<?xml version="1.0" encoding="UTF-8" standalone="no" ?>
<gpx xmlns="http://www.topografix.com/GPX/1/1" xmlns:xsi="http://www.w3.org/2001/XMLSchema-instance" xsi:schemaLocation="http://www.topografix.com/GPX/1/1 http://www.topografix.com/GPX/1/1/gpx.xsd" version="1.1" creator="VisuGPX - https://www.visugpx.com">
  <metadata>
    <name>Col de Serre Larobe (1006 m)</name>
    <desc><![CDATA[Départ de Laragne pour le col de Serre Larobe via les villages de Saléon, Lagrand, Trescléoux, Chamousse, Montjay. Puis au col retour à Laragne par l'Epine, Montclus, Serres, Mereuil, Lagrand et Saléon.  ]]></desc>
  </metadata>
  <trk>
    <name><![CDATA[Col de Serre Larobe (1006 m)_1]]></name>
    <trkseg>
      <trkpt lat="44.31607" lon="5.82955">
        <ele>579</ele>
        <time>2019-03-23T12:55:39Z</time>
      </trkpt>
      <trkpt lat="44.31583" lon="5.82932">
        <ele>583</ele>
        <time>2019-03-23T12:56:08Z</time>
      </trkpt>
      <trkpt lat="44.3158" lon="5.82931">
        <ele>583</ele>
        <time>2019-03-23T12:56:09Z</time>
      </trkpt>
      <trkpt lat="44.31577" lon="5.82929">
        <ele>583</ele>
        <time>2019-03-23T12:56:10Z</time>
      </trkpt>
      <trkpt lat="44.31573" lon="5.82927">
        <ele>583</ele>
        <time>2019-03-23T12:56:11Z</time>
      </trkpt>
      <trkpt lat="44.31569" lon="5.82925">
        <ele>583</ele>
        <time>2019-03-23T12:56:12Z</time>
      </trkpt>
      <trkpt lat="44.31565" lon="5.82922">
        <ele>583</ele>
        <time>2019-03-23T12:56:13Z</time>
      </trkpt>
      <trkpt lat="44.31561" lon="5.8292">
        <ele>582</ele>
        <time>2019-03-23T12:56:14Z</time>
      </trkpt>
      <trkpt lat="44.31558" lon="5.82918">
        <ele>582</ele>
        <time>2019-03-23T12:56:15Z</time>
      </trkpt>
      <trkpt lat="44.31555" lon="5.82916">
        <ele>582</ele>
        <time>2019-03-23T12:56:16Z</time>
      </trkpt>
      <trkpt lat="44.31553" lon="5.82914">
        <ele>582</ele>
        <time>2019-03-23T12:56:17Z</time>
      </trkpt>
      <trkpt lat="44.31551" lon="5.82913">
        <ele>582</ele>
        <time>2019-03-23T12:56:18Z</time>
      </trkpt>
      <trkpt lat="44.31549" lon="5.82912">
        <ele>582</ele>
        <time>2019-03-23T12:56:19Z</time>
      </trkpt>
      <trkpt lat="44.31547" lon="5.82911">
        <ele>582</ele>
        <time>2019-03-23T12:56:20Z</time>
      </trkpt>
      <trkpt lat="44.31544" lon="5.82909">
        <ele>582</ele>
        <time>2019-03-23T12:56:21Z</time>
      </trkpt>
      <trkpt lat="44.31542" lon="5.82908">
        <ele>582</ele>
        <time>2019-03-23T12:56:22Z</time>
      </trkpt>
      <trkpt lat="44.31539" lon="5.82905">
        <ele>582</ele>
        <time>2019-03-23T12:56:23Z</time>
      </trkpt>
      <trkpt lat="44.31537" lon="5.82903">
        <ele>582</ele>
        <time>2019-03-23T12:56:24Z</time>
      </trkpt>
      <trkpt lat="44.31535" lon="5.829">
        <ele>581</ele>
        <time>2019-03-23T12:56:25Z</time>
      </trkpt>
      <trkpt lat="44.31532" lon="5.82897">
        <ele>581</ele>
        <time>2019-03-23T12:56:26Z</time>
      </trkpt>
      <trkpt lat="44.3153" lon="5.82894">
        <ele>581</ele>
        <time>2019-03-23T12:56:27Z</time>
      </trkpt>
      <trkpt lat="44.31528" lon="5.82892">
        <ele>581</ele>
        <time>2019-03-23T12:56:28Z</time>
      </trkpt>
      <trkpt lat="44.31525" lon="5.82889">
        <ele>581</ele>
        <time>2019-03-23T12:56:29Z</time>
      </trkpt>
      <trkpt lat="44.31522" lon="5.82887">
        <ele>581</ele>
        <time>2019-03-23T12:56:30Z</time>
      </trkpt>
      <trkpt lat="44.3152" lon="5.82884">
        <ele>581</ele>
        <time>2019-03-23T12:56:31Z</time>
      </trkpt>
      <trkpt lat="44.31517" lon="5.82882">
        <ele>581</ele>
        <time>2019-03-23T12:56:32Z</time>
      </trkpt>
      <trkpt lat="44.31515" lon="5.8288">
        <ele>581</ele>
        <time>2019-03-23T12:56:33Z</time>
      </trkpt>
      <trkpt lat="44.31512" lon="5.82877">
        <ele>581</ele>
        <time>2019-03-23T12:56:34Z</time>
      </trkpt>
      <trkpt lat="44.31509" lon="5.82874">
        <ele>581</ele>
        <time>2019-03-23T12:56:35Z</time>
      </trkpt>
      <trkpt lat="44.31506" lon="5.82872">
        <ele>581</ele>
        <time>2019-03-23T12:56:36Z</time>
      </trkpt>
      <trkpt lat="44.31502" lon="5.82871">
        <ele>581</ele>
        <time>2019-03-23T12:56:37Z</time>
      </trkpt>
      <trkpt lat="44.31498" lon="5.82873">
        <ele>580</ele>
        <time>2019-03-23T12:56:38Z</time>
      </trkpt>
      <trkpt lat="44.31495" lon="5.82876">
        <ele>580</ele>
        <time>2019-03-23T12:56:39Z</time>
      </trkpt>
      <trkpt lat="44.31492" lon="5.82879">
        <ele>580</ele>
        <time>2019-03-23T12:56:40Z</time>
      </trkpt>
      <trkpt lat="44.3149" lon="5.82883">
        <ele>579</ele>
        <time>2019-03-23T12:56:41Z</time>
      </trkpt>
      <trkpt lat="44.31487" lon="5.82887">
        <ele>579</ele>
        <time>2019-03-23T12:56:42Z</time>
      </trkpt>
      <trkpt lat="44.31485" lon="5.82891">
        <ele>578</ele>
        <time>2019-03-23T12:56:43Z</time>
      </trkpt>
      <trkpt lat="44.31483" lon="5.82896">
        <ele>578</ele>
        <time>2019-03-23T12:56:44Z</time>
      </trkpt>
      <trkpt lat="44.31481" lon="5.829">
        <ele>577</ele>
        <time>2019-03-23T12:56:45Z</time>
      </trkpt>
      <trkpt lat="44.31478" lon="5.82904">
        <ele>576</ele>
        <time>2019-03-23T12:56:46Z</time>
      </trkpt>
      <trkpt lat="44.31475" lon="5.82908">
        <ele>576</ele>
        <time>2019-03-23T12:56:47Z</time>
      </trkpt>
      <trkpt lat="44.31473" lon="5.82912">
        <ele>576</ele>
        <time>2019-03-23T12:56:48Z</time>
      </trkpt>
      <trkpt lat="44.3147" lon="5.82915">
        <ele>575</ele>
        <time>2019-03-23T12:56:49Z</time>
      </trkpt>
      <trkpt lat="44.31468" lon="5.82919">
        <ele>575</ele>
        <time>2019-03-23T12:56:50Z</time>
      </trkpt>
      <trkpt lat="44.31466" lon="5.82923">
        <ele>574</ele>
        <time>2019-03-23T12:56:51Z</time>
      </trkpt>
      <trkpt lat="44.31463" lon="5.82927">
        <ele>573</ele>
        <time>2019-03-23T12:56:52Z</time>
      </trkpt>
      <trkpt lat="44.3146" lon="5.82931">
        <ele>573</ele>
        <time>2019-03-23T12:56:53Z</time>
      </trkpt>
      <trkpt lat="44.31457" lon="5.82936">
        <ele>572</ele>
        <time>2019-03-23T12:56:54Z</time>
      </trkpt>
      <trkpt lat="44.31454" lon="5.8294">
        <ele>572</ele>
        <time>2019-03-23T12:56:55Z</time>
      </trkpt>
      <trkpt lat="44.31451" lon="5.82945">
        <ele>571</ele>
        <time>2019-03-23T12:56:56Z</time>
      </trkpt>
      <trkpt lat="44.31448" lon="5.8295">
        <ele>571</ele>
        <time>2019-03-23T12:56:57Z</time>
      </trkpt>
      <trkpt lat="44.31445" lon="5.82954">
        <ele>571</ele>
        <time>2019-03-23T12:56:58Z</time>
      </trkpt>
      <trkpt lat="44.31441" lon="5.82959">
        <ele>570</ele>
        <time>2019-03-23T12:56:59Z</time>
      </trkpt>
      <trkpt lat="44.31438" lon="5.82963">
        <ele>570</ele>
        <time>2019-03-23T12:57:00Z</time>
      </trkpt>
      <trkpt lat="44.31435" lon="5.82968">
        <ele>569</ele>
        <time>2019-03-23T12:57:01Z</time>
      </trkpt>
      <trkpt lat="44.31432" lon="5.82972">
        <ele>569</ele>
        <time>2019-03-23T12:57:02Z</time>
      </trkpt>
      <trkpt lat="44.31429" lon="5.82977">
        <ele>568</ele>
        <time>2019-03-23T12:57:03Z</time>
      </trkpt>
      <trkpt lat="44.31426" lon="5.82981">
        <ele>568</ele>
        <time>2019-03-23T12:57:04Z</time>
      </trkpt>
      <trkpt lat="44.31423" lon="5.82986">
        <ele>568</ele>
        <time>2019-03-23T12:57:05Z</time>
      </trkpt>
      <trkpt lat="44.3142" lon="5.8299">
        <ele>568</ele>
        <time>2019-03-23T12:57:06Z</time>
      </trkpt>
      <trkpt lat="44.31417" lon="5.82995">
        <ele>568</ele>
        <time>2019-03-23T12:57:07Z</time>
      </trkpt>
      <trkpt lat="44.31414" lon="5.83">
        <ele>568</ele>
        <time>2019-03-23T12:57:08Z</time>
      </trkpt>
      <trkpt lat="44.31411" lon="5.83004">
        <ele>568</ele>
        <time>2019-03-23T12:57:09Z</time>
      </trkpt>
      <trkpt lat="44.31407" lon="5.83009">
        <ele>568</ele>
        <time>2019-03-23T12:57:10Z</time>
      </trkpt>
      <trkpt lat="44.31404" lon="5.83013">
        <ele>568</ele>
        <time>2019-03-23T12:57:11Z</time>
      </trkpt>
      <trkpt lat="44.31401" lon="5.83018">
        <ele>568</ele>
        <time>2019-03-23T12:57:12Z</time>
      </trkpt>
      <trkpt lat="44.31398" lon="5.83022">
        <ele>568</ele>
        <time>2019-03-23T12:57:13Z</time>
      </trkpt>
      <trkpt lat="44.31395" lon="5.83027">
        <ele>567</ele>
        <time>2019-03-23T12:57:14Z</time>
      </trkpt>
      <trkpt lat="44.31392" lon="5.83031">
        <ele>567</ele>
        <time>2019-03-23T12:57:15Z</time>
      </trkpt>
      <trkpt lat="44.31388" lon="5.83036">
        <ele>567</ele>
        <time>2019-03-23T12:57:16Z</time>
      </trkpt>
      <trkpt lat="44.31385" lon="5.8304">
        <ele>567</ele>
        <time>2019-03-23T12:57:17Z</time>
      </trkpt>
      <trkpt lat="44.31382" lon="5.83044">
        <ele>567</ele>
        <time>2019-03-23T12:57:18Z</time>
      </trkpt>
      <trkpt lat="44.31379" lon="5.83048">
        <ele>566</ele>
        <time>2019-03-23T12:57:19Z</time>
      </trkpt>
      <trkpt lat="44.31377" lon="5.83053">
        <ele>566</ele>
        <time>2019-03-23T12:57:20Z</time>
      </trkpt>
      <trkpt lat="44.31375" lon="5.83057">
        <ele>566</ele>
        <time>2019-03-23T12:57:21Z</time>
      </trkpt>
      <trkpt lat="44.31372" lon="5.83061">
        <ele>566</ele>
        <time>2019-03-23T12:57:22Z</time>
      </trkpt>
      <trkpt lat="44.3137" lon="5.83065">
        <ele>566</ele>
        <time>2019-03-23T12:57:23Z</time>
      </trkpt>
      <trkpt lat="44.31368" lon="5.83069">
        <ele>566</ele>
        <time>2019-03-23T12:57:24Z</time>
      </trkpt>
      <trkpt lat="44.31366" lon="5.83074">
        <ele>566</ele>
        <time>2019-03-23T12:57:25Z</time>
      </trkpt>
      <trkpt lat="44.31365" lon="5.83078">
        <ele>566</ele>
        <time>2019-03-23T12:57:26Z</time>
      </trkpt>
      <trkpt lat="44.31363" lon="5.83083">
        <ele>566</ele>
        <time>2019-03-23T12:57:27Z</time>
      </trkpt>
      <trkpt lat="44.31363" lon="5.83088">
        <ele>566</ele>
        <time>2019-03-23T12:57:28Z</time>
      </trkpt>
      <trkpt lat="44.31361" lon="5.83093">
        <ele>566</ele>
        <time>2019-03-23T12:57:29Z</time>
      </trkpt>
      <trkpt lat="44.31358" lon="5.83097">
        <ele>566</ele>
        <time>2019-03-23T12:57:30Z</time>
      </trkpt>
      <trkpt lat="44.31356" lon="5.831">
        <ele>566</ele>
        <time>2019-03-23T12:57:31Z</time>
      </trkpt>
      <trkpt lat="44.31353" lon="5.83102">
        <ele>566</ele>
        <time>2019-03-23T12:57:32Z</time>
      </trkpt>
      <trkpt lat="44.31351" lon="5.83102">
        <ele>566</ele>
        <time>2019-03-23T12:57:33Z</time>
      </trkpt>
      <trkpt lat="44.31349" lon="5.83101">
        <ele>566</ele>
        <time>2019-03-23T12:57:34Z</time>
      </trkpt>
      <trkpt lat="44.31347" lon="5.83098">
        <ele>566</ele>
        <time>2019-03-23T12:57:35Z</time>
      </trkpt>
      <trkpt lat="44.31346" lon="5.83095">
        <ele>566</ele>
        <time>2019-03-23T12:57:36Z</time>
      </trkpt>
      <trkpt lat="44.31346" lon="5.83091">
        <ele>566</ele>
        <time>2019-03-23T12:57:37Z</time>
      </trkpt>
      <trkpt lat="44.31346" lon="5.83086">
        <ele>567</ele>
        <time>2019-03-23T12:57:38Z</time>
      </trkpt>
      <trkpt lat="44.31346" lon="5.83082">
        <ele>567</ele>
        <time>2019-03-23T12:57:39Z</time>
      </trkpt>
      <trkpt lat="44.31346" lon="5.83078">
        <ele>567</ele>
        <time>2019-03-23T12:57:40Z</time>
      </trkpt>
      <trkpt lat="44.31347" lon="5.83073">
        <ele>567</ele>
        <time>2019-03-23T12:57:41Z</time>
      </trkpt>
      <trkpt lat="44.31347" lon="5.83069">
        <ele>567</ele>
        <time>2019-03-23T12:57:42Z</time>
      </trkpt>
      <trkpt lat="44.31348" lon="5.83064">
        <ele>567</ele>
        <time>2019-03-23T12:57:43Z</time>
      </trkpt>
      <trkpt lat="44.3135" lon="5.83058">
        <ele>567</ele>
        <time>2019-03-23T12:57:44Z</time>
      </trkpt>
      <trkpt lat="44.31351" lon="5.83053">
        <ele>567</ele>
        <time>2019-03-23T12:57:45Z</time>
      </trkpt>
      <trkpt lat="44.31353" lon="5.83047">
        <ele>567</ele>
        <time>2019-03-23T12:57:46Z</time>
      </trkpt>
      <trkpt lat="44.31354" lon="5.83041">
        <ele>567</ele>
        <time>2019-03-23T12:57:47Z</time>
      </trkpt>
      <trkpt lat="44.31355" lon="5.83036">
        <ele>567</ele>
        <time>2019-03-23T12:57:48Z</time>
      </trkpt>
      <trkpt lat="44.31356" lon="5.8303">
        <ele>567</ele>
        <time>2019-03-23T12:57:49Z</time>
      </trkpt>
      <trkpt lat="44.31357" lon="5.83024">
        <ele>567</ele>
        <time>2019-03-23T12:57:50Z</time>
      </trkpt>
      <trkpt lat="44.31358" lon="5.83017">
        <ele>567</ele>
        <time>2019-03-23T12:57:51Z</time>
      </trkpt>
      <trkpt lat="44.31358" lon="5.83011">
        <ele>567</ele>
        <time>2019-03-23T12:57:52Z</time>
      </trkpt>
      <trkpt lat="44.31359" lon="5.83004">
        <ele>567</ele>
        <time>2019-03-23T12:57:53Z</time>
      </trkpt>
      <trkpt lat="44.31361" lon="5.82997">
        <ele>567</ele>
        <time>2019-03-23T12:57:54Z</time>
      </trkpt>
      <trkpt lat="44.31361" lon="5.8299">
        <ele>567</ele>
        <time>2019-03-23T12:57:55Z</time>
      </trkpt>
      <trkpt lat="44.31363" lon="5.82982">
        <ele>567</ele>
        <time>2019-03-23T12:57:56Z</time>
      </trkpt>
      <trkpt lat="44.31364" lon="5.82975">
        <ele>567</ele>
        <time>2019-03-23T12:57:57Z</time>
      </trkpt>
      <trkpt lat="44.31364" lon="5.82967">
        <ele>567</ele>
        <time>2019-03-23T12:57:58Z</time>
      </trkpt>
      <trkpt lat="44.31366" lon="5.82959">
        <ele>567</ele>
        <time>2019-03-23T12:57:59Z</time>
      </trkpt>
      <trkpt lat="44.31366" lon="5.82951">
        <ele>567</ele>
        <time>2019-03-23T12:58:00Z</time>
      </trkpt>
      <trkpt lat="44.31368" lon="5.82943">
        <ele>567</ele>
        <time>2019-03-23T12:58:01Z</time>
      </trkpt>
      <trkpt lat="44.31369" lon="5.82935">
        <ele>567</ele>
        <time>2019-03-23T12:58:02Z</time>
      </trkpt>
      <trkpt lat="44.31369" lon="5.82926">
        <ele>567</ele>
        <time>2019-03-23T12:58:03Z</time>
      </trkpt>
      <trkpt lat="44.3137" lon="5.82917">
        <ele>567</ele>
        <time>2019-03-23T12:58:04Z</time>
      </trkpt>
      <trkpt lat="44.3137" lon="5.82909">
        <ele>567</ele>
        <time>2019-03-23T12:58:05Z</time>
      </trkpt>
      <trkpt lat="44.31371" lon="5.829">
        <ele>567</ele>
        <time>2019-03-23T12:58:06Z</time>
      </trkpt>
      <trkpt lat="44.31371" lon="5.82891">
        <ele>567</ele>
        <time>2019-03-23T12:58:07Z</time>
      </trkpt>
      <trkpt lat="44.31372" lon="5.82883">
        <ele>567</ele>
        <time>2019-03-23T12:58:08Z</time>
      </trkpt>
      <trkpt lat="44.31373" lon="5.82875">
        <ele>567</ele>
        <time>2019-03-23T12:58:09Z</time>
      </trkpt>
      <trkpt lat="44.31374" lon="5.82867">
        <ele>567</ele>
        <time>2019-03-23T12:58:10Z</time>
      </trkpt>
      <trkpt lat="44.31375" lon="5.82859">
        <ele>567</ele>
        <time>2019-03-23T12:58:11Z</time>
      </trkpt>
      <trkpt lat="44.31375" lon="5.82851">
        <ele>567</ele>
        <time>2019-03-23T12:58:12Z</time>
      </trkpt>
      <trkpt lat="44.31376" lon="5.82842">
        <ele>567</ele>
        <time>2019-03-23T12:58:13Z</time>
      </trkpt>
      <trkpt lat="44.31377" lon="5.82834">
        <ele>567</ele>
        <time>2019-03-23T12:58:14Z</time>
      </trkpt>
      <trkpt lat="44.31378" lon="5.82826">
        <ele>567</ele>
        <time>2019-03-23T12:58:15Z</time>
      </trkpt>
      <trkpt lat="44.31378" lon="5.82817">
        <ele>567</ele>
        <time>2019-03-23T12:58:16Z</time>
      </trkpt>
      <trkpt lat="44.31379" lon="5.82809">
        <ele>567</ele>
        <time>2019-03-23T12:58:17Z</time>
      </trkpt>
      <trkpt lat="44.31379" lon="5.82801">
        <ele>567</ele>
        <time>2019-03-23T12:58:18Z</time>
      </trkpt>
      <trkpt lat="44.3138" lon="5.82793">
        <ele>567</ele>
        <time>2019-03-23T12:58:19Z</time>
      </trkpt>
      <trkpt lat="44.3138" lon="5.82785">
        <ele>567</ele>
        <time>2019-03-23T12:58:20Z</time>
      </trkpt>
      <trkpt lat="44.3138" lon="5.82777">
        <ele>567</ele>
        <time>2019-03-23T12:58:21Z</time>
      </trkpt>
      <trkpt lat="44.3138" lon="5.82769">
        <ele>567</ele>
        <time>2019-03-23T12:58:22Z</time>
      </trkpt>
      <trkpt lat="44.3138" lon="5.82761">
        <ele>567</ele>
        <time>2019-03-23T12:58:23Z</time>
      </trkpt>
      <trkpt lat="44.3138" lon="5.82753">
        <ele>567</ele>
        <time>2019-03-23T12:58:24Z</time>
      </trkpt>
      <trkpt lat="44.31379" lon="5.82746">
        <ele>567</ele>
        <time>2019-03-23T12:58:25Z</time>
      </trkpt>
      <trkpt lat="44.31379" lon="5.82738">
        <ele>567</ele>
        <time>2019-03-23T12:58:26Z</time>
      </trkpt>
      <trkpt lat="44.31378" lon="5.8273">
        <ele>567</ele>
        <time>2019-03-23T12:58:27Z</time>
      </trkpt>
      <trkpt lat="44.31378" lon="5.82723">
        <ele>567</ele>
        <time>2019-03-23T12:58:28Z</time>
      </trkpt>
      <trkpt lat="44.31377" lon="5.82717">
        <ele>567</ele>
        <time>2019-03-23T12:58:29Z</time>
      </trkpt>
      <trkpt lat="44.31377" lon="5.82711">
        <ele>567</ele>
        <time>2019-03-23T12:58:30Z</time>
      </trkpt>
      <trkpt lat="44.31376" lon="5.82706">
        <ele>567</ele>
        <time>2019-03-23T12:58:31Z</time>
      </trkpt>
      <trkpt lat="44.31376" lon="5.827">
        <ele>567</ele>
        <time>2019-03-23T12:58:32Z</time>
      </trkpt>
      <trkpt lat="44.31374" lon="5.82695">
        <ele>567</ele>
        <time>2019-03-23T12:58:33Z</time>
      </trkpt>
      <trkpt lat="44.31372" lon="5.8269">
        <ele>567</ele>
        <time>2019-03-23T12:58:34Z</time>
      </trkpt>
      <trkpt lat="44.31369" lon="5.82687">
        <ele>567</ele>
        <time>2019-03-23T12:58:35Z</time>
      </trkpt>
      <trkpt lat="44.31366" lon="5.82684">
        <ele>567</ele>
        <time>2019-03-23T12:58:36Z</time>
      </trkpt>
      <trkpt lat="44.31361" lon="5.82681">
        <ele>567</ele>
        <time>2019-03-23T12:58:37Z</time>
      </trkpt>
      <trkpt lat="44.31357" lon="5.82679">
        <ele>567</ele>
        <time>2019-03-23T12:58:38Z</time>
      </trkpt>
      <trkpt lat="44.31353" lon="5.82676">
        <ele>567</ele>
        <time>2019-03-23T12:58:39Z</time>
      </trkpt>
      <trkpt lat="44.31349" lon="5.82674">
        <ele>567</ele>
        <time>2019-03-23T12:58:40Z</time>
      </trkpt>
      <trkpt lat="44.31344" lon="5.82672">
        <ele>567</ele>
        <time>2019-03-23T12:58:41Z</time>
      </trkpt>
      <trkpt lat="44.3134" lon="5.8267">
        <ele>567</ele>
        <time>2019-03-23T12:58:42Z</time>
      </trkpt>
      <trkpt lat="44.31335" lon="5.82668">
        <ele>567</ele>
        <time>2019-03-23T12:58:43Z</time>
      </trkpt>
      <trkpt lat="44.3133" lon="5.82665">
        <ele>567</ele>
        <time>2019-03-23T12:58:44Z</time>
      </trkpt>
      <trkpt lat="44.31325" lon="5.82663">
        <ele>567</ele>
        <time>2019-03-23T12:58:45Z</time>
      </trkpt>
      <trkpt lat="44.31319" lon="5.82659">
        <ele>567</ele>
        <time>2019-03-23T12:58:46Z</time>
      </trkpt>
      <trkpt lat="44.31314" lon="5.82656">
        <ele>567</ele>
        <time>2019-03-23T12:58:47Z</time>
      </trkpt>
      <trkpt lat="44.31307" lon="5.82652">
        <ele>567</ele>
        <time>2019-03-23T12:58:48Z</time>
      </trkpt>
      <trkpt lat="44.313" lon="5.82647">
        <ele>567</ele>
        <time>2019-03-23T12:58:49Z</time>
      </trkpt>
      <trkpt lat="44.31293" lon="5.82642">
        <ele>567</ele>
        <time>2019-03-23T12:58:50Z</time>
      </trkpt>
      <trkpt lat="44.31286" lon="5.82637">
        <ele>567</ele>
        <time>2019-03-23T12:58:51Z</time>
      </trkpt>
      <trkpt lat="44.31278" lon="5.82632">
        <ele>567</ele>
        <time>2019-03-23T12:58:52Z</time>
      </trkpt>
      <trkpt lat="44.31269" lon="5.82628">
        <ele>567</ele>
        <time>2019-03-23T12:58:53Z</time>
      </trkpt>
      <trkpt lat="44.31261" lon="5.82623">
        <ele>567</ele>
        <time>2019-03-23T12:58:54Z</time>
      </trkpt>
      <trkpt lat="44.31253" lon="5.82618">
        <ele>567</ele>
        <time>2019-03-23T12:58:55Z</time>
      </trkpt>
      <trkpt lat="44.31245" lon="5.82613">
        <ele>566</ele>
        <time>2019-03-23T12:58:56Z</time>
      </trkpt>
      <trkpt lat="44.31236" lon="5.82609">
        <ele>566</ele>
        <time>2019-03-23T12:58:57Z</time>
      </trkpt>
      <trkpt lat="44.31228" lon="5.82604">
        <ele>565</ele>
        <time>2019-03-23T12:58:58Z</time>
      </trkpt>
      <trkpt lat="44.3122" lon="5.826">
        <ele>564</ele>
        <time>2019-03-23T12:58:59Z</time>
      </trkpt>
      <trkpt lat="44.31212" lon="5.82595">
        <ele>564</ele>
        <time>2019-03-23T12:59:00Z</time>
      </trkpt>
      <trkpt lat="44.31204" lon="5.82591">
        <ele>564</ele>
        <time>2019-03-23T12:59:01Z</time>
      </trkpt>
      <trkpt lat="44.31196" lon="5.82586">
        <ele>564</ele>
        <time>2019-03-23T12:59:02Z</time>
      </trkpt>
      <trkpt lat="44.31189" lon="5.82582">
        <ele>564</ele>
        <time>2019-03-23T12:59:03Z</time>
      </trkpt>
      <trkpt lat="44.31181" lon="5.82578">
        <ele>563</ele>
        <time>2019-03-23T12:59:04Z</time>
      </trkpt>
      <trkpt lat="44.31174" lon="5.82573">
        <ele>563</ele>
        <time>2019-03-23T12:59:05Z</time>
      </trkpt>
      <trkpt lat="44.31167" lon="5.82569">
        <ele>563</ele>
        <time>2019-03-23T12:59:06Z</time>
      </trkpt>
      <trkpt lat="44.3116" lon="5.82565">
        <ele>563</ele>
        <time>2019-03-23T12:59:07Z</time>
      </trkpt>
      <trkpt lat="44.31153" lon="5.82561">
        <ele>562</ele>
        <time>2019-03-23T12:59:08Z</time>
      </trkpt>
      <trkpt lat="44.31146" lon="5.82557">
        <ele>562</ele>
        <time>2019-03-23T12:59:09Z</time>
      </trkpt>
      <trkpt lat="44.3114" lon="5.82554">
        <ele>561</ele>
        <time>2019-03-23T12:59:10Z</time>
      </trkpt>
      <trkpt lat="44.31133" lon="5.8255">
        <ele>561</ele>
        <time>2019-03-23T12:59:11Z</time>
      </trkpt>
      <trkpt lat="44.31127" lon="5.82547">
        <ele>560</ele>
        <time>2019-03-23T12:59:12Z</time>
      </trkpt>
      <trkpt lat="44.31121" lon="5.82544">
        <ele>560</ele>
        <time>2019-03-23T12:59:13Z</time>
      </trkpt>
      <trkpt lat="44.31115" lon="5.8254">
        <ele>560</ele>
        <time>2019-03-23T12:59:14Z</time>
      </trkpt>
      <trkpt lat="44.31109" lon="5.82537">
        <ele>559</ele>
        <time>2019-03-23T12:59:15Z</time>
      </trkpt>
      <trkpt lat="44.31103" lon="5.82533">
        <ele>559</ele>
        <time>2019-03-23T12:59:16Z</time>
      </trkpt>
      <trkpt lat="44.31098" lon="5.8253">
        <ele>559</ele>
        <time>2019-03-23T12:59:17Z</time>
      </trkpt>
      <trkpt lat="44.31092" lon="5.82527">
        <ele>558</ele>
        <time>2019-03-23T12:59:18Z</time>
      </trkpt>
      <trkpt lat="44.31087" lon="5.82523">
        <ele>558</ele>
        <time>2019-03-23T12:59:19Z</time>
      </trkpt>
      <trkpt lat="44.31083" lon="5.82518">
        <ele>557</ele>
        <time>2019-03-23T12:59:20Z</time>
      </trkpt>
      <trkpt lat="44.31079" lon="5.82512">
        <ele>557</ele>
        <time>2019-03-23T12:59:21Z</time>
      </trkpt>
      <trkpt lat="44.31077" lon="5.82506">
        <ele>556</ele>
        <time>2019-03-23T12:59:22Z</time>
      </trkpt>
      <trkpt lat="44.31075" lon="5.82499">
        <ele>556</ele>
        <time>2019-03-23T12:59:23Z</time>
      </trkpt>
      <trkpt lat="44.31075" lon="5.82492">
        <ele>555</ele>
        <time>2019-03-23T12:59:24Z</time>
      </trkpt>
      <trkpt lat="44.31076" lon="5.82485">
        <ele>555</ele>
        <time>2019-03-23T12:59:25Z</time>
      </trkpt>
      <trkpt lat="44.31077" lon="5.82479">
        <ele>554</ele>
        <time>2019-03-23T12:59:26Z</time>
      </trkpt>
      <trkpt lat="44.3108" lon="5.82473">
        <ele>554</ele>
        <time>2019-03-23T12:59:27Z</time>
      </trkpt>
      <trkpt lat="44.31082" lon="5.82467">
        <ele>554</ele>
        <time>2019-03-23T12:59:28Z</time>
      </trkpt>
      <trkpt lat="44.31084" lon="5.82461">
        <ele>554</ele>
        <time>2019-03-23T12:59:29Z</time>
      </trkpt>
      <trkpt lat="44.31086" lon="5.82456">
        <ele>554</ele>
        <time>2019-03-23T12:59:30Z</time>
      </trkpt>
      <trkpt lat="44.31089" lon="5.82451">
        <ele>554</ele>
        <time>2019-03-23T12:59:31Z</time>
      </trkpt>
      <trkpt lat="44.31091" lon="5.82446">
        <ele>554</ele>
        <time>2019-03-23T12:59:32Z</time>
      </trkpt>
      <trkpt lat="44.31093" lon="5.82441">
        <ele>554</ele>
        <time>2019-03-23T12:59:33Z</time>
      </trkpt>
      <trkpt lat="44.31096" lon="5.82436">
        <ele>553</ele>
        <time>2019-03-23T12:59:34Z</time>
      </trkpt>
      <trkpt lat="44.31098" lon="5.82431">
        <ele>553</ele>
        <time>2019-03-23T12:59:35Z</time>
      </trkpt>
      <trkpt lat="44.31101" lon="5.82425">
        <ele>553</ele>
        <time>2019-03-23T12:59:36Z</time>
      </trkpt>
      <trkpt lat="44.31104" lon="5.82418">
        <ele>552</ele>
        <time>2019-03-23T12:59:37Z</time>
      </trkpt>
      <trkpt lat="44.31107" lon="5.82411">
        <ele>552</ele>
        <time>2019-03-23T12:59:38Z</time>
      </trkpt>
      <trkpt lat="44.31109" lon="5.82403">
        <ele>552</ele>
        <time>2019-03-23T12:59:39Z</time>
      </trkpt>
      <trkpt lat="44.3111" lon="5.82395">
        <ele>552</ele>
        <time>2019-03-23T12:59:40Z</time>
      </trkpt>
      <trkpt lat="44.3111" lon="5.82387">
        <ele>552</ele>
        <time>2019-03-23T12:59:41Z</time>
      </trkpt>
      <trkpt lat="44.3111" lon="5.82378">
        <ele>551</ele>
        <time>2019-03-23T12:59:42Z</time>
      </trkpt>
      <trkpt lat="44.31111" lon="5.8237">
        <ele>551</ele>
        <time>2019-03-23T12:59:43Z</time>
      </trkpt>
      <trkpt lat="44.31112" lon="5.82361">
        <ele>551</ele>
        <time>2019-03-23T12:59:44Z</time>
      </trkpt>
      <trkpt lat="44.31115" lon="5.82353">
        <ele>551</ele>
        <time>2019-03-23T12:59:45Z</time>
      </trkpt>
      <trkpt lat="44.31118" lon="5.82347">
        <ele>550</ele>
        <time>2019-03-23T12:59:46Z</time>
      </trkpt>
      <trkpt lat="44.31122" lon="5.82341">
        <ele>550</ele>
        <time>2019-03-23T12:59:47Z</time>
      </trkpt>
      <trkpt lat="44.31126" lon="5.82335">
        <ele>550</ele>
        <time>2019-03-23T12:59:48Z</time>
      </trkpt>
      <trkpt lat="44.3113" lon="5.82329">
        <ele>550</ele>
        <time>2019-03-23T12:59:49Z</time>
      </trkpt>
      <trkpt lat="44.31134" lon="5.82323">
        <ele>550</ele>
        <time>2019-03-23T12:59:50Z</time>
      </trkpt>
      <trkpt lat="44.31138" lon="5.82317">
        <ele>550</ele>
        <time>2019-03-23T12:59:51Z</time>
      </trkpt>
      <trkpt lat="44.31142" lon="5.82311">
        <ele>550</ele>
        <time>2019-03-23T12:59:52Z</time>
      </trkpt>
      <trkpt lat="44.31145" lon="5.82306">
        <ele>550</ele>
        <time>2019-03-23T12:59:53Z</time>
      </trkpt>
      <trkpt lat="44.31147" lon="5.82301">
        <ele>550</ele>
        <time>2019-03-23T12:59:54Z</time>
      </trkpt>
      <trkpt lat="44.31149" lon="5.82297">
        <ele>550</ele>
        <time>2019-03-23T12:59:55Z</time>
      </trkpt>
      <trkpt lat="44.31149" lon="5.82293">
        <ele>550</ele>
        <time>2019-03-23T12:59:56Z</time>
      </trkpt>
      <trkpt lat="44.3115" lon="5.8229">
        <ele>550</ele>
        <time>2019-03-23T12:59:57Z</time>
      </trkpt>
      <trkpt lat="44.3115" lon="5.82288">
        <ele>550</ele>
        <time>2019-03-23T12:59:58Z</time>
      </trkpt>
      <trkpt lat="44.31148" lon="5.82288">
        <ele>549</ele>
        <time>2019-03-23T13:00:14Z</time>
      </trkpt>
      <trkpt lat="44.3115" lon="5.82288">
        <ele>549</ele>
        <time>2019-03-23T13:00:22Z</time>
      </trkpt>
      <trkpt lat="44.31149" lon="5.82286">
        <ele>549</ele>
        <time>2019-03-23T13:00:35Z</time>
      </trkpt>
      <trkpt lat="44.31148" lon="5.82284">
        <ele>549</ele>
        <time>2019-03-23T13:00:44Z</time>
      </trkpt>
      <trkpt lat="44.31147" lon="5.82283">
        <ele>549</ele>
        <time>2019-03-23T13:00:50Z</time>
      </trkpt>
      <trkpt lat="44.31147" lon="5.82284">
        <ele>550</ele>
        <time>2019-03-23T13:01:12Z</time>
      </trkpt>
      <trkpt lat="44.31148" lon="5.82286">
        <ele>550</ele>
        <time>2019-03-23T13:01:23Z</time>
      </trkpt>
      <trkpt lat="44.31149" lon="5.82287">
        <ele>550</ele>
        <time>2019-03-23T13:01:29Z</time>
      </trkpt>
      <trkpt lat="44.31148" lon="5.82286">
        <ele>550</ele>
        <time>2019-03-23T13:02:12Z</time>
      </trkpt>
      <trkpt lat="44.31149" lon="5.82284">
        <ele>551</ele>
        <time>2019-03-23T13:02:22Z</time>
      </trkpt>
      <trkpt lat="44.31148" lon="5.82283">
        <ele>552</ele>
        <time>2019-03-23T13:02:33Z</time>
      </trkpt>
      <trkpt lat="44.31149" lon="5.82283">
        <ele>554</ele>
        <time>2019-03-23T13:02:52Z</time>
      </trkpt>
      <trkpt lat="44.31149" lon="5.82281">
        <ele>554</ele>
        <time>2019-03-23T13:02:55Z</time>
      </trkpt>
      <trkpt lat="44.3115" lon="5.82279">
        <ele>554</ele>
        <time>2019-03-23T13:03:04Z</time>
      </trkpt>
      <trkpt lat="44.3115" lon="5.82277">
        <ele>554</ele>
        <time>2019-03-23T13:03:06Z</time>
      </trkpt>
      <trkpt lat="44.3115" lon="5.82274">
        <ele>554</ele>
        <time>2019-03-23T13:03:08Z</time>
      </trkpt>
      <trkpt lat="44.31149" lon="5.82272">
        <ele>554</ele>
        <time>2019-03-23T13:03:09Z</time>
      </trkpt>
      <trkpt lat="44.31148" lon="5.8227">
        <ele>554</ele>
        <time>2019-03-23T13:03:10Z</time>
      </trkpt>
      <trkpt lat="44.31147" lon="5.82267">
        <ele>554</ele>
        <time>2019-03-23T13:03:11Z</time>
      </trkpt>
      <trkpt lat="44.31146" lon="5.82264">
        <ele>554</ele>
        <time>2019-03-23T13:03:12Z</time>
      </trkpt>
      <trkpt lat="44.31144" lon="5.82261">
        <ele>554</ele>
        <time>2019-03-23T13:03:13Z</time>
      </trkpt>
      <trkpt lat="44.31141" lon="5.82259">
        <ele>554</ele>
        <time>2019-03-23T13:03:14Z</time>
      </trkpt>
      <trkpt lat="44.31139" lon="5.82256">
        <ele>554</ele>
        <time>2019-03-23T13:03:14Z</time>
      </trkpt>
      <trkpt lat="44.31136" lon="5.82253">
        <ele>554</ele>
        <time>2019-03-23T13:03:16Z</time>
      </trkpt>
      <trkpt lat="44.31134" lon="5.8225">
        <ele>554</ele>
        <time>2019-03-23T13:03:17Z</time>
      </trkpt>
      <trkpt lat="44.31131" lon="5.82246">
        <ele>554</ele>
        <time>2019-03-23T13:03:17Z</time>
      </trkpt>
      <trkpt lat="44.31128" lon="5.82243">
        <ele>554</ele>
        <time>2019-03-23T13:03:19Z</time>
      </trkpt>
      <trkpt lat="44.31125" lon="5.82239">
        <ele>554</ele>
        <time>2019-03-23T13:03:19Z</time>
      </trkpt>
      <trkpt lat="44.31121" lon="5.82235">
        <ele>554</ele>
        <time>2019-03-23T13:03:21Z</time>
      </trkpt>
      <trkpt lat="44.31118" lon="5.82231">
        <ele>554</ele>
        <time>2019-03-23T13:03:22Z</time>
      </trkpt>
      <trkpt lat="44.31115" lon="5.82227">
        <ele>554</ele>
        <time>2019-03-23T13:03:22Z</time>
      </trkpt>
      <trkpt lat="44.31112" lon="5.82222">
        <ele>554</ele>
        <time>2019-03-23T13:03:24Z</time>
      </trkpt>
      <trkpt lat="44.31109" lon="5.82218">
        <ele>554</ele>
        <time>2019-03-23T13:03:25Z</time>
      </trkpt>
      <trkpt lat="44.31105" lon="5.82214">
        <ele>554</ele>
        <time>2019-03-23T13:03:26Z</time>
      </trkpt>
      <trkpt lat="44.31102" lon="5.82209">
        <ele>554</ele>
        <time>2019-03-23T13:03:26Z</time>
      </trkpt>
      <trkpt lat="44.31098" lon="5.82205">
        <ele>554</ele>
        <time>2019-03-23T13:03:27Z</time>
      </trkpt>
      <trkpt lat="44.31095" lon="5.822">
        <ele>554</ele>
        <time>2019-03-23T13:03:29Z</time>
      </trkpt>
      <trkpt lat="44.31091" lon="5.82195">
        <ele>554</ele>
        <time>2019-03-23T13:03:30Z</time>
      </trkpt>
      <trkpt lat="44.31088" lon="5.82191">
        <ele>554</ele>
        <time>2019-03-23T13:03:30Z</time>
      </trkpt>
      <trkpt lat="44.31084" lon="5.82186">
        <ele>554</ele>
        <time>2019-03-23T13:03:32Z</time>
      </trkpt>
      <trkpt lat="44.31081" lon="5.82182">
        <ele>554</ele>
        <time>2019-03-23T13:03:33Z</time>
      </trkpt>
      <trkpt lat="44.31078" lon="5.82177">
        <ele>554</ele>
        <time>2019-03-23T13:03:34Z</time>
      </trkpt>
      <trkpt lat="44.31074" lon="5.82173">
        <ele>554</ele>
        <time>2019-03-23T13:03:35Z</time>
      </trkpt>
      <trkpt lat="44.3107" lon="5.82168">
        <ele>554</ele>
        <time>2019-03-23T13:03:36Z</time>
      </trkpt>
      <trkpt lat="44.31066" lon="5.82164">
        <ele>554</ele>
        <time>2019-03-23T13:03:37Z</time>
      </trkpt>
      <trkpt lat="44.31063" lon="5.82159">
        <ele>554</ele>
        <time>2019-03-23T13:03:38Z</time>
      </trkpt>
      <trkpt lat="44.31059" lon="5.82155">
        <ele>554</ele>
        <time>2019-03-23T13:03:39Z</time>
      </trkpt>
      <trkpt lat="44.31055" lon="5.8215">
        <ele>554</ele>
        <time>2019-03-23T13:03:40Z</time>
      </trkpt>
      <trkpt lat="44.31052" lon="5.82145">
        <ele>554</ele>
        <time>2019-03-23T13:03:41Z</time>
      </trkpt>
      <trkpt lat="44.31048" lon="5.8214">
        <ele>554</ele>
        <time>2019-03-23T13:03:42Z</time>
      </trkpt>
      <trkpt lat="44.31044" lon="5.82136">
        <ele>554</ele>
        <time>2019-03-23T13:03:43Z</time>
      </trkpt>
      <trkpt lat="44.31041" lon="5.82131">
        <ele>554</ele>
        <time>2019-03-23T13:03:44Z</time>
      </trkpt>
      <trkpt lat="44.31037" lon="5.82126">
        <ele>554</ele>
        <time>2019-03-23T13:03:45Z</time>
      </trkpt>
      <trkpt lat="44.31033" lon="5.82121">
        <ele>554</ele>
        <time>2019-03-23T13:03:46Z</time>
      </trkpt>
      <trkpt lat="44.31029" lon="5.82116">
        <ele>554</ele>
        <time>2019-03-23T13:03:47Z</time>
      </trkpt>
      <trkpt lat="44.31026" lon="5.82111">
        <ele>554</ele>
        <time>2019-03-23T13:03:48Z</time>
      </trkpt>
      <trkpt lat="44.31022" lon="5.82106">
        <ele>554</ele>
        <time>2019-03-23T13:03:49Z</time>
      </trkpt>
      <trkpt lat="44.31018" lon="5.82101">
        <ele>554</ele>
        <time>2019-03-23T13:03:49Z</time>
      </trkpt>
      <trkpt lat="44.31014" lon="5.82096">
        <ele>554</ele>
        <time>2019-03-23T13:03:51Z</time>
      </trkpt>
      <trkpt lat="44.3101" lon="5.82091">
        <ele>554</ele>
        <time>2019-03-23T13:03:52Z</time>
      </trkpt>
      <trkpt lat="44.31006" lon="5.82086">
        <ele>554</ele>
        <time>2019-03-23T13:03:53Z</time>
      </trkpt>
      <trkpt lat="44.31002" lon="5.82082">
        <ele>554</ele>
        <time>2019-03-23T13:03:54Z</time>
      </trkpt>
      <trkpt lat="44.30997" lon="5.82077">
        <ele>554</ele>
        <time>2019-03-23T13:03:54Z</time>
      </trkpt>
      <trkpt lat="44.30993" lon="5.82072">
        <ele>554</ele>
        <time>2019-03-23T13:03:56Z</time>
      </trkpt>
      <trkpt lat="44.30989" lon="5.82068">
        <ele>554</ele>
        <time>2019-03-23T13:03:57Z</time>
      </trkpt>
      <trkpt lat="44.30984" lon="5.82064">
        <ele>554</ele>
        <time>2019-03-23T13:03:58Z</time>
      </trkpt>
      <trkpt lat="44.3098" lon="5.8206">
        <ele>553</ele>
        <time>2019-03-23T13:03:59Z</time>
      </trkpt>
      <trkpt lat="44.30975" lon="5.82057">
        <ele>553</ele>
        <time>2019-03-23T13:04:00Z</time>
      </trkpt>
      <trkpt lat="44.30971" lon="5.82053">
        <ele>553</ele>
        <time>2019-03-23T13:04:01Z</time>
      </trkpt>
      <trkpt lat="44.30966" lon="5.8205">
        <ele>553</ele>
        <time>2019-03-23T13:04:02Z</time>
      </trkpt>
      <trkpt lat="44.30962" lon="5.82047">
        <ele>553</ele>
        <time>2019-03-23T13:04:03Z</time>
      </trkpt>
      <trkpt lat="44.30957" lon="5.82044">
        <ele>553</ele>
        <time>2019-03-23T13:04:04Z</time>
      </trkpt>
      <trkpt lat="44.30952" lon="5.82041">
        <ele>553</ele>
        <time>2019-03-23T13:04:05Z</time>
      </trkpt>
      <trkpt lat="44.30947" lon="5.82039">
        <ele>553</ele>
        <time>2019-03-23T13:04:06Z</time>
      </trkpt>
      <trkpt lat="44.30941" lon="5.82037">
        <ele>553</ele>
        <time>2019-03-23T13:04:06Z</time>
      </trkpt>
      <trkpt lat="44.30936" lon="5.82036">
        <ele>553</ele>
        <time>2019-03-23T13:04:08Z</time>
      </trkpt>
      <trkpt lat="44.30931" lon="5.82035">
        <ele>553</ele>
        <time>2019-03-23T13:04:09Z</time>
      </trkpt>
      <trkpt lat="44.30926" lon="5.82035">
        <ele>553</ele>
        <time>2019-03-23T13:04:10Z</time>
      </trkpt>
      <trkpt lat="44.30921" lon="5.82035">
        <ele>553</ele>
        <time>2019-03-23T13:04:11Z</time>
      </trkpt>
      <trkpt lat="44.30917" lon="5.82035">
        <ele>553</ele>
        <time>2019-03-23T13:04:12Z</time>
      </trkpt>
      <trkpt lat="44.30912" lon="5.82035">
        <ele>553</ele>
        <time>2019-03-23T13:04:13Z</time>
      </trkpt>
      <trkpt lat="44.30907" lon="5.82036">
        <ele>553</ele>
        <time>2019-03-23T13:04:14Z</time>
      </trkpt>
      <trkpt lat="44.30903" lon="5.82036">
        <ele>553</ele>
        <time>2019-03-23T13:04:14Z</time>
      </trkpt>
      <trkpt lat="44.30898" lon="5.82038">
        <ele>553</ele>
        <time>2019-03-23T13:04:16Z</time>
      </trkpt>
      <trkpt lat="44.30893" lon="5.82039">
        <ele>553</ele>
        <time>2019-03-23T13:04:17Z</time>
      </trkpt>
      <trkpt lat="44.30889" lon="5.82041">
        <ele>553</ele>
        <time>2019-03-23T13:04:18Z</time>
      </trkpt>
      <trkpt lat="44.30885" lon="5.82042">
        <ele>553</ele>
        <time>2019-03-23T13:04:19Z</time>
      </trkpt>
      <trkpt lat="44.30881" lon="5.82044">
        <ele>553</ele>
        <time>2019-03-23T13:04:20Z</time>
      </trkpt>
      <trkpt lat="44.30876" lon="5.82046">
        <ele>553</ele>
        <time>2019-03-23T13:04:21Z</time>
      </trkpt>
      <trkpt lat="44.30872" lon="5.82048">
        <ele>553</ele>
        <time>2019-03-23T13:04:22Z</time>
      </trkpt>
      <trkpt lat="44.30868" lon="5.82049">
        <ele>553</ele>
        <time>2019-03-23T13:04:22Z</time>
      </trkpt>
      <trkpt lat="44.30864" lon="5.82051">
        <ele>553</ele>
        <time>2019-03-23T13:04:24Z</time>
      </trkpt>
      <trkpt lat="44.3086" lon="5.82053">
        <ele>553</ele>
        <time>2019-03-23T13:04:25Z</time>
      </trkpt>
      <trkpt lat="44.30856" lon="5.82054">
        <ele>553</ele>
        <time>2019-03-23T13:04:26Z</time>
      </trkpt>
      <trkpt lat="44.30851" lon="5.82055">
        <ele>553</ele>
        <time>2019-03-23T13:04:27Z</time>
      </trkpt>
      <trkpt lat="44.30847" lon="5.82056">
        <ele>553</ele>
        <time>2019-03-23T13:04:28Z</time>
      </trkpt>
      <trkpt lat="44.30843" lon="5.82057">
        <ele>553</ele>
        <time>2019-03-23T13:04:29Z</time>
      </trkpt>
      <trkpt lat="44.30839" lon="5.82058">
        <ele>553</ele>
        <time>2019-03-23T13:04:30Z</time>
      </trkpt>
      <trkpt lat="44.30835" lon="5.82059">
        <ele>553</ele>
        <time>2019-03-23T13:04:30Z</time>
      </trkpt>
      <trkpt lat="44.3083" lon="5.82061">
        <ele>553</ele>
        <time>2019-03-23T13:04:31Z</time>
      </trkpt>
      <trkpt lat="44.30826" lon="5.82062">
        <ele>553</ele>
        <time>2019-03-23T13:04:33Z</time>
      </trkpt>
      <trkpt lat="44.30822" lon="5.82063">
        <ele>553</ele>
        <time>2019-03-23T13:04:34Z</time>
      </trkpt>
      <trkpt lat="44.30817" lon="5.82064">
        <ele>553</ele>
        <time>2019-03-23T13:04:35Z</time>
      </trkpt>
      <trkpt lat="44.30813" lon="5.82065">
        <ele>553</ele>
        <time>2019-03-23T13:04:36Z</time>
      </trkpt>
      <trkpt lat="44.30809" lon="5.82066">
        <ele>553</ele>
        <time>2019-03-23T13:04:37Z</time>
      </trkpt>
      <trkpt lat="44.30804" lon="5.82067">
        <ele>553</ele>
        <time>2019-03-23T13:04:38Z</time>
      </trkpt>
      <trkpt lat="44.30799" lon="5.82069">
        <ele>553</ele>
        <time>2019-03-23T13:04:39Z</time>
      </trkpt>
      <trkpt lat="44.30795" lon="5.8207">
        <ele>553</ele>
        <time>2019-03-23T13:04:40Z</time>
      </trkpt>
      <trkpt lat="44.3079" lon="5.82071">
        <ele>553</ele>
        <time>2019-03-23T13:04:41Z</time>
      </trkpt>
      <trkpt lat="44.30785" lon="5.82072">
        <ele>553</ele>
        <time>2019-03-23T13:04:42Z</time>
      </trkpt>
      <trkpt lat="44.30781" lon="5.82073">
        <ele>553</ele>
        <time>2019-03-23T13:04:43Z</time>
      </trkpt>
      <trkpt lat="44.30776" lon="5.82075">
        <ele>553</ele>
        <time>2019-03-23T13:04:44Z</time>
      </trkpt>
      <trkpt lat="44.30772" lon="5.82078">
        <ele>553</ele>
        <time>2019-03-23T13:04:45Z</time>
      </trkpt>
      <trkpt lat="44.30767" lon="5.8208">
        <ele>553</ele>
        <time>2019-03-23T13:04:46Z</time>
      </trkpt>
      <trkpt lat="44.30763" lon="5.82084">
        <ele>553</ele>
        <time>2019-03-23T13:04:47Z</time>
      </trkpt>
      <trkpt lat="44.30759" lon="5.82088">
        <ele>553</ele>
        <time>2019-03-23T13:04:48Z</time>
      </trkpt>
      <trkpt lat="44.30755" lon="5.82092">
        <ele>553</ele>
        <time>2019-03-23T13:04:48Z</time>
      </trkpt>
      <trkpt lat="44.30752" lon="5.82096">
        <ele>553</ele>
        <time>2019-03-23T13:04:50Z</time>
      </trkpt>
      <trkpt lat="44.30749" lon="5.82101">
        <ele>553</ele>
        <time>2019-03-23T13:04:50Z</time>
      </trkpt>
      <trkpt lat="44.30746" lon="5.82106">
        <ele>553</ele>
        <time>2019-03-23T13:04:52Z</time>
      </trkpt>
      <trkpt lat="44.30743" lon="5.82111">
        <ele>553</ele>
        <time>2019-03-23T13:04:53Z</time>
      </trkpt>
      <trkpt lat="44.3074" lon="5.82117">
        <ele>553</ele>
        <time>2019-03-23T13:04:54Z</time>
      </trkpt>
      <trkpt lat="44.30738" lon="5.82123">
        <ele>553</ele>
        <time>2019-03-23T13:04:55Z</time>
      </trkpt>
      <trkpt lat="44.30735" lon="5.82128">
        <ele>553</ele>
        <time>2019-03-23T13:04:56Z</time>
      </trkpt>
      <trkpt lat="44.30733" lon="5.82134">
        <ele>553</ele>
        <time>2019-03-23T13:04:57Z</time>
      </trkpt>
      <trkpt lat="44.30731" lon="5.8214">
        <ele>553</ele>
        <time>2019-03-23T13:04:57Z</time>
      </trkpt>
      <trkpt lat="44.30729" lon="5.82146">
        <ele>553</ele>
        <time>2019-03-23T13:04:58Z</time>
      </trkpt>
      <trkpt lat="44.30727" lon="5.82152">
        <ele>553</ele>
        <time>2019-03-23T13:05:00Z</time>
      </trkpt>
      <trkpt lat="44.30725" lon="5.82158">
        <ele>553</ele>
        <time>2019-03-23T13:05:00Z</time>
      </trkpt>
      <trkpt lat="44.30724" lon="5.82163">
        <ele>553</ele>
        <time>2019-03-23T13:05:01Z</time>
      </trkpt>
      <trkpt lat="44.30722" lon="5.82169">
        <ele>553</ele>
        <time>2019-03-23T13:05:02Z</time>
      </trkpt>
      <trkpt lat="44.30719" lon="5.82175">
        <ele>553</ele>
        <time>2019-03-23T13:05:03Z</time>
      </trkpt>
      <trkpt lat="44.30717" lon="5.8218">
        <ele>553</ele>
        <time>2019-03-23T13:05:05Z</time>
      </trkpt>
      <trkpt lat="44.30714" lon="5.82186">
        <ele>553</ele>
        <time>2019-03-23T13:05:05Z</time>
      </trkpt>
      <trkpt lat="44.30712" lon="5.82191">
        <ele>553</ele>
        <time>2019-03-23T13:05:06Z</time>
      </trkpt>
      <trkpt lat="44.30709" lon="5.82197">
        <ele>553</ele>
        <time>2019-03-23T13:05:07Z</time>
      </trkpt>
      <trkpt lat="44.30706" lon="5.82201">
        <ele>553</ele>
        <time>2019-03-23T13:05:09Z</time>
      </trkpt>
      <trkpt lat="44.30704" lon="5.82206">
        <ele>553</ele>
        <time>2019-03-23T13:05:10Z</time>
      </trkpt>
      <trkpt lat="44.30701" lon="5.82211">
        <ele>553</ele>
        <time>2019-03-23T13:05:10Z</time>
      </trkpt>
      <trkpt lat="44.30699" lon="5.82217">
        <ele>553</ele>
        <time>2019-03-23T13:05:12Z</time>
      </trkpt>
      <trkpt lat="44.30697" lon="5.82221">
        <ele>553</ele>
        <time>2019-03-23T13:05:12Z</time>
      </trkpt>
      <trkpt lat="44.30693" lon="5.82225">
        <ele>553</ele>
        <time>2019-03-23T13:05:13Z</time>
      </trkpt>
      <trkpt lat="44.3069" lon="5.82226">
        <ele>553</ele>
        <time>2019-03-23T13:05:15Z</time>
      </trkpt>
      <trkpt lat="44.30686" lon="5.82225">
        <ele>553</ele>
        <time>2019-03-23T13:05:15Z</time>
      </trkpt>
      <trkpt lat="44.30684" lon="5.82222">
        <ele>553</ele>
        <time>2019-03-23T13:05:16Z</time>
      </trkpt>
      <trkpt lat="44.30683" lon="5.82218">
        <ele>553</ele>
        <time>2019-03-23T13:05:18Z</time>
      </trkpt>
      <trkpt lat="44.30684" lon="5.82214">
        <ele>553</ele>
        <time>2019-03-23T13:05:19Z</time>
      </trkpt>
      <trkpt lat="44.30686" lon="5.82211">
        <ele>553</ele>
        <time>2019-03-23T13:05:20Z</time>
      </trkpt>
      <trkpt lat="44.30689" lon="5.82208">
        <ele>553</ele>
        <time>2019-03-23T13:05:21Z</time>
      </trkpt>
      <trkpt lat="44.30692" lon="5.82205">
        <ele>553</ele>
        <time>2019-03-23T13:05:21Z</time>
      </trkpt>
      <trkpt lat="44.30694" lon="5.82201">
        <ele>553</ele>
        <time>2019-03-23T13:05:23Z</time>
      </trkpt>
      <trkpt lat="44.30696" lon="5.82198">
        <ele>553</ele>
        <time>2019-03-23T13:05:24Z</time>
      </trkpt>
      <trkpt lat="44.30698" lon="5.82194">
        <ele>553</ele>
        <time>2019-03-23T13:05:24Z</time>
      </trkpt>
      <trkpt lat="44.307" lon="5.8219">
        <ele>553</ele>
        <time>2019-03-23T13:05:26Z</time>
      </trkpt>
      <trkpt lat="44.30702" lon="5.82186">
        <ele>553</ele>
        <time>2019-03-23T13:05:27Z</time>
      </trkpt>
      <trkpt lat="44.30704" lon="5.82183">
        <ele>553</ele>
        <time>2019-03-23T13:05:28Z</time>
      </trkpt>
      <trkpt lat="44.30706" lon="5.82179">
        <ele>553</ele>
        <time>2019-03-23T13:05:28Z</time>
      </trkpt>
      <trkpt lat="44.30707" lon="5.82175">
        <ele>553</ele>
        <time>2019-03-23T13:05:29Z</time>
      </trkpt>
      <trkpt lat="44.30709" lon="5.8217">
        <ele>553</ele>
        <time>2019-03-23T13:05:31Z</time>
      </trkpt>
      <trkpt lat="44.3071" lon="5.82166">
        <ele>553</ele>
        <time>2019-03-23T13:05:32Z</time>
      </trkpt>
      <trkpt lat="44.30711" lon="5.82161">
        <ele>553</ele>
        <time>2019-03-23T13:05:33Z</time>
      </trkpt>
      <trkpt lat="44.30712" lon="5.82157">
        <ele>553</ele>
        <time>2019-03-23T13:05:33Z</time>
      </trkpt>
      <trkpt lat="44.30713" lon="5.82153">
        <ele>553</ele>
        <time>2019-03-23T13:05:35Z</time>
      </trkpt>
      <trkpt lat="44.30714" lon="5.82148">
        <ele>554</ele>
        <time>2019-03-23T13:05:36Z</time>
      </trkpt>
      <trkpt lat="44.30715" lon="5.82144">
        <ele>554</ele>
        <time>2019-03-23T13:05:37Z</time>
      </trkpt>
      <trkpt lat="44.30715" lon="5.8214">
        <ele>554</ele>
        <time>2019-03-23T13:05:38Z</time>
      </trkpt>
      <trkpt lat="44.30716" lon="5.82136">
        <ele>555</ele>
        <time>2019-03-23T13:05:39Z</time>
      </trkpt>
      <trkpt lat="44.30716" lon="5.82132">
        <ele>555</ele>
        <time>2019-03-23T13:05:40Z</time>
      </trkpt>
      <trkpt lat="44.30716" lon="5.82128">
        <ele>555</ele>
        <time>2019-03-23T13:05:41Z</time>
      </trkpt>
      <trkpt lat="44.30717" lon="5.82124">
        <ele>555</ele>
        <time>2019-03-23T13:05:42Z</time>
      </trkpt>
      <trkpt lat="44.30717" lon="5.8212">
        <ele>556</ele>
        <time>2019-03-23T13:05:42Z</time>
      </trkpt>
      <trkpt lat="44.30717" lon="5.82115">
        <ele>556</ele>
        <time>2019-03-23T13:05:44Z</time>
      </trkpt>
      <trkpt lat="44.30717" lon="5.82111">
        <ele>556</ele>
        <time>2019-03-23T13:05:45Z</time>
      </trkpt>
      <trkpt lat="44.30716" lon="5.82106">
        <ele>556</ele>
        <time>2019-03-23T13:05:45Z</time>
      </trkpt>
      <trkpt lat="44.30716" lon="5.82102">
        <ele>556</ele>
        <time>2019-03-23T13:05:47Z</time>
      </trkpt>
      <trkpt lat="44.30715" lon="5.82098">
        <ele>557</ele>
        <time>2019-03-23T13:05:48Z</time>
      </trkpt>
      <trkpt lat="44.30714" lon="5.82094">
        <ele>557</ele>
        <time>2019-03-23T13:05:49Z</time>
      </trkpt>
      <trkpt lat="44.30714" lon="5.8209">
        <ele>557</ele>
        <time>2019-03-23T13:05:50Z</time>
      </trkpt>
      <trkpt lat="44.30713" lon="5.82087">
        <ele>558</ele>
        <time>2019-03-23T13:05:51Z</time>
      </trkpt>
      <trkpt lat="44.30712" lon="5.82083">
        <ele>558</ele>
        <time>2019-03-23T13:05:52Z</time>
      </trkpt>
      <trkpt lat="44.30711" lon="5.82079">
        <ele>558</ele>
        <time>2019-03-23T13:05:53Z</time>
      </trkpt>
      <trkpt lat="44.3071" lon="5.82074">
        <ele>559</ele>
        <time>2019-03-23T13:05:54Z</time>
      </trkpt>
      <trkpt lat="44.30709" lon="5.8207">
        <ele>560</ele>
        <time>2019-03-23T13:05:55Z</time>
      </trkpt>
      <trkpt lat="44.30709" lon="5.82066">
        <ele>560</ele>
        <time>2019-03-23T13:05:56Z</time>
      </trkpt>
      <trkpt lat="44.30708" lon="5.82062">
        <ele>561</ele>
        <time>2019-03-23T13:05:56Z</time>
      </trkpt>
      <trkpt lat="44.30708" lon="5.82058">
        <ele>562</ele>
        <time>2019-03-23T13:05:58Z</time>
      </trkpt>
      <trkpt lat="44.30707" lon="5.82054">
        <ele>562</ele>
        <time>2019-03-23T13:05:58Z</time>
      </trkpt>
      <trkpt lat="44.30706" lon="5.8205">
        <ele>563</ele>
        <time>2019-03-23T13:06:00Z</time>
      </trkpt>
      <trkpt lat="44.30706" lon="5.82047">
        <ele>563</ele>
        <time>2019-03-23T13:06:00Z</time>
      </trkpt>
      <trkpt lat="44.30706" lon="5.82043">
        <ele>564</ele>
        <time>2019-03-23T13:06:01Z</time>
      </trkpt>
      <trkpt lat="44.30706" lon="5.82039">
        <ele>564</ele>
        <time>2019-03-23T13:06:03Z</time>
      </trkpt>
      <trkpt lat="44.30706" lon="5.82035">
        <ele>565</ele>
        <time>2019-03-23T13:06:04Z</time>
      </trkpt>
      <trkpt lat="44.30706" lon="5.82031">
        <ele>565</ele>
        <time>2019-03-23T13:06:04Z</time>
      </trkpt>
      <trkpt lat="44.30706" lon="5.82027">
        <ele>566</ele>
        <time>2019-03-23T13:06:05Z</time>
      </trkpt>
      <trkpt lat="44.30706" lon="5.82023">
        <ele>566</ele>
        <time>2019-03-23T13:06:07Z</time>
      </trkpt>
      <trkpt lat="44.30706" lon="5.82019">
        <ele>567</ele>
        <time>2019-03-23T13:06:07Z</time>
      </trkpt>
      <trkpt lat="44.30707" lon="5.82015">
        <ele>567</ele>
        <time>2019-03-23T13:06:09Z</time>
      </trkpt>
      <trkpt lat="44.30707" lon="5.82011">
        <ele>567</ele>
        <time>2019-03-23T13:06:09Z</time>
      </trkpt>
      <trkpt lat="44.30708" lon="5.82007">
        <ele>568</ele>
        <time>2019-03-23T13:06:10Z</time>
      </trkpt>
      <trkpt lat="44.30708" lon="5.82002">
        <ele>568</ele>
        <time>2019-03-23T13:06:11Z</time>
      </trkpt>
      <trkpt lat="44.30708" lon="5.81998">
        <ele>568</ele>
        <time>2019-03-23T13:06:13Z</time>
      </trkpt>
      <trkpt lat="44.30709" lon="5.81993">
        <ele>568</ele>
        <time>2019-03-23T13:06:14Z</time>
      </trkpt>
      <trkpt lat="44.3071" lon="5.81989">
        <ele>568</ele>
        <time>2019-03-23T13:06:14Z</time>
      </trkpt>
      <trkpt lat="44.30711" lon="5.81985">
        <ele>568</ele>
        <time>2019-03-23T13:06:15Z</time>
      </trkpt>
      <trkpt lat="44.30711" lon="5.81981">
        <ele>568</ele>
        <time>2019-03-23T13:06:16Z</time>
      </trkpt>
      <trkpt lat="44.30712" lon="5.81976">
        <ele>568</ele>
        <time>2019-03-23T13:06:17Z</time>
      </trkpt>
      <trkpt lat="44.30713" lon="5.81972">
        <ele>568</ele>
        <time>2019-03-23T13:06:19Z</time>
      </trkpt>
      <trkpt lat="44.30713" lon="5.81968">
        <ele>568</ele>
        <time>2019-03-23T13:06:19Z</time>
      </trkpt>
      <trkpt lat="44.30714" lon="5.81964">
        <ele>568</ele>
        <time>2019-03-23T13:06:20Z</time>
      </trkpt>
      <trkpt lat="44.30714" lon="5.8196">
        <ele>569</ele>
        <time>2019-03-23T13:06:21Z</time>
      </trkpt>
      <trkpt lat="44.30715" lon="5.81956">
        <ele>569</ele>
        <time>2019-03-23T13:06:23Z</time>
      </trkpt>
      <trkpt lat="44.30716" lon="5.81952">
        <ele>569</ele>
        <time>2019-03-23T13:06:24Z</time>
      </trkpt>
      <trkpt lat="44.30717" lon="5.81949">
        <ele>569</ele>
        <time>2019-03-23T13:06:24Z</time>
      </trkpt>
      <trkpt lat="44.30717" lon="5.81946">
        <ele>569</ele>
        <time>2019-03-23T13:06:25Z</time>
      </trkpt>
      <trkpt lat="44.30718" lon="5.81942">
        <ele>569</ele>
        <time>2019-03-23T13:06:26Z</time>
      </trkpt>
      <trkpt lat="44.30719" lon="5.81938">
        <ele>569</ele>
        <time>2019-03-23T13:06:27Z</time>
      </trkpt>
      <trkpt lat="44.30719" lon="5.81933">
        <ele>569</ele>
        <time>2019-03-23T13:06:29Z</time>
      </trkpt>
      <trkpt lat="44.3072" lon="5.8193">
        <ele>569</ele>
        <time>2019-03-23T13:06:29Z</time>
      </trkpt>
      <trkpt lat="44.30721" lon="5.81926">
        <ele>569</ele>
        <time>2019-03-23T13:06:30Z</time>
      </trkpt>
      <trkpt lat="44.30722" lon="5.81922">
        <ele>570</ele>
        <time>2019-03-23T13:06:31Z</time>
      </trkpt>
      <trkpt lat="44.30724" lon="5.81918">
        <ele>570</ele>
        <time>2019-03-23T13:06:32Z</time>
      </trkpt>
      <trkpt lat="44.30724" lon="5.81914">
        <ele>570</ele>
        <time>2019-03-23T13:06:34Z</time>
      </trkpt>
      <trkpt lat="44.30725" lon="5.8191">
        <ele>570</ele>
        <time>2019-03-23T13:06:34Z</time>
      </trkpt>
      <trkpt lat="44.30726" lon="5.81906">
        <ele>570</ele>
        <time>2019-03-23T13:06:35Z</time>
      </trkpt>
      <trkpt lat="44.30727" lon="5.81902">
        <ele>570</ele>
        <time>2019-03-23T13:06:36Z</time>
      </trkpt>
      <trkpt lat="44.30728" lon="5.81898">
        <ele>570</ele>
        <time>2019-03-23T13:06:37Z</time>
      </trkpt>
      <trkpt lat="44.30729" lon="5.81894">
        <ele>570</ele>
        <time>2019-03-23T13:06:39Z</time>
      </trkpt>
      <trkpt lat="44.3073" lon="5.8189">
        <ele>571</ele>
        <time>2019-03-23T13:06:40Z</time>
      </trkpt>
      <trkpt lat="44.3073" lon="5.81885">
        <ele>571</ele>
        <time>2019-03-23T13:06:40Z</time>
      </trkpt>
      <trkpt lat="44.30731" lon="5.81881">
        <ele>571</ele>
        <time>2019-03-23T13:06:41Z</time>
      </trkpt>
      <trkpt lat="44.30732" lon="5.81877">
        <ele>571</ele>
        <time>2019-03-23T13:06:42Z</time>
      </trkpt>
      <trkpt lat="44.30732" lon="5.81873">
        <ele>572</ele>
        <time>2019-03-23T13:06:44Z</time>
      </trkpt>
      <trkpt lat="44.30733" lon="5.81869">
        <ele>572</ele>
        <time>2019-03-23T13:06:44Z</time>
      </trkpt>
      <trkpt lat="44.30734" lon="5.81865">
        <ele>572</ele>
        <time>2019-03-23T13:06:45Z</time>
      </trkpt>
      <trkpt lat="44.30735" lon="5.81861">
        <ele>572</ele>
        <time>2019-03-23T13:06:46Z</time>
      </trkpt>
      <trkpt lat="44.30736" lon="5.81857">
        <ele>573</ele>
        <time>2019-03-23T13:06:47Z</time>
      </trkpt>
      <trkpt lat="44.30737" lon="5.81853">
        <ele>573</ele>
        <time>2019-03-23T13:06:49Z</time>
      </trkpt>
      <trkpt lat="44.30738" lon="5.81849">
        <ele>573</ele>
        <time>2019-03-23T13:06:49Z</time>
      </trkpt>
      <trkpt lat="44.30739" lon="5.81845">
        <ele>573</ele>
        <time>2019-03-23T13:06:51Z</time>
      </trkpt>
      <trkpt lat="44.3074" lon="5.81841">
        <ele>573</ele>
        <time>2019-03-23T13:06:51Z</time>
      </trkpt>
      <trkpt lat="44.30741" lon="5.81837">
        <ele>574</ele>
        <time>2019-03-23T13:06:52Z</time>
      </trkpt>
      <trkpt lat="44.30742" lon="5.81833">
        <ele>574</ele>
        <time>2019-03-23T13:06:54Z</time>
      </trkpt>
      <trkpt lat="44.30743" lon="5.81829">
        <ele>574</ele>
        <time>2019-03-23T13:06:54Z</time>
      </trkpt>
      <trkpt lat="44.30744" lon="5.81825">
        <ele>574</ele>
        <time>2019-03-23T13:06:55Z</time>
      </trkpt>
      <trkpt lat="44.30745" lon="5.81822">
        <ele>575</ele>
        <time>2019-03-23T13:06:56Z</time>
      </trkpt>
      <trkpt lat="44.30747" lon="5.81818">
        <ele>575</ele>
        <time>2019-03-23T13:06:57Z</time>
      </trkpt>
      <trkpt lat="44.30748" lon="5.81814">
        <ele>575</ele>
        <time>2019-03-23T13:06:59Z</time>
      </trkpt>
      <trkpt lat="44.30749" lon="5.81811">
        <ele>575</ele>
        <time>2019-03-23T13:06:59Z</time>
      </trkpt>
      <trkpt lat="44.3075" lon="5.81807">
        <ele>576</ele>
        <time>2019-03-23T13:07:00Z</time>
      </trkpt>
      <trkpt lat="44.30751" lon="5.81803">
        <ele>576</ele>
        <time>2019-03-23T13:07:01Z</time>
      </trkpt>
      <trkpt lat="44.30752" lon="5.818">
        <ele>576</ele>
        <time>2019-03-23T13:07:02Z</time>
      </trkpt>
      <trkpt lat="44.30753" lon="5.81796">
        <ele>576</ele>
        <time>2019-03-23T13:07:04Z</time>
      </trkpt>
      <trkpt lat="44.30754" lon="5.81792">
        <ele>576</ele>
        <time>2019-03-23T13:07:04Z</time>
      </trkpt>
      <trkpt lat="44.30755" lon="5.81788">
        <ele>576</ele>
        <time>2019-03-23T13:07:05Z</time>
      </trkpt>
      <trkpt lat="44.30756" lon="5.81784">
        <ele>576</ele>
        <time>2019-03-23T13:07:06Z</time>
      </trkpt>
      <trkpt lat="44.30757" lon="5.8178">
        <ele>577</ele>
        <time>2019-03-23T13:07:07Z</time>
      </trkpt>
      <trkpt lat="44.30758" lon="5.81776">
        <ele>577</ele>
        <time>2019-03-23T13:07:09Z</time>
      </trkpt>
      <trkpt lat="44.30759" lon="5.81772">
        <ele>577</ele>
        <time>2019-03-23T13:07:09Z</time>
      </trkpt>
      <trkpt lat="44.30761" lon="5.81769">
        <ele>577</ele>
        <time>2019-03-23T13:07:10Z</time>
      </trkpt>
      <trkpt lat="44.30762" lon="5.81765">
        <ele>578</ele>
        <time>2019-03-23T13:07:11Z</time>
      </trkpt>
      <trkpt lat="44.30763" lon="5.81761">
        <ele>578</ele>
        <time>2019-03-23T13:07:12Z</time>
      </trkpt>
      <trkpt lat="44.30764" lon="5.81758">
        <ele>578</ele>
        <time>2019-03-23T13:07:14Z</time>
      </trkpt>
      <trkpt lat="44.30765" lon="5.81754">
        <ele>578</ele>
        <time>2019-03-23T13:07:14Z</time>
      </trkpt>
      <trkpt lat="44.30766" lon="5.81751">
        <ele>579</ele>
        <time>2019-03-23T13:07:15Z</time>
      </trkpt>
      <trkpt lat="44.30767" lon="5.81747">
        <ele>579</ele>
        <time>2019-03-23T13:07:16Z</time>
      </trkpt>
      <trkpt lat="44.30769" lon="5.81744">
        <ele>579</ele>
        <time>2019-03-23T13:07:17Z</time>
      </trkpt>
      <trkpt lat="44.3077" lon="5.8174">
        <ele>580</ele>
        <time>2019-03-23T13:07:18Z</time>
      </trkpt>
      <trkpt lat="44.30771" lon="5.81737">
        <ele>580</ele>
        <time>2019-03-23T13:07:19Z</time>
      </trkpt>
      <trkpt lat="44.30772" lon="5.81734">
        <ele>580</ele>
        <time>2019-03-23T13:07:20Z</time>
      </trkpt>
      <trkpt lat="44.30774" lon="5.8173">
        <ele>580</ele>
        <time>2019-03-23T13:07:21Z</time>
      </trkpt>
      <trkpt lat="44.30775" lon="5.81727">
        <ele>581</ele>
        <time>2019-03-23T13:07:22Z</time>
      </trkpt>
      <trkpt lat="44.30776" lon="5.81723">
        <ele>581</ele>
        <time>2019-03-23T13:07:24Z</time>
      </trkpt>
      <trkpt lat="44.30777" lon="5.8172">
        <ele>581</ele>
        <time>2019-03-23T13:07:24Z</time>
      </trkpt>
      <trkpt lat="44.30778" lon="5.81717">
        <ele>581</ele>
        <time>2019-03-23T13:07:25Z</time>
      </trkpt>
      <trkpt lat="44.3078" lon="5.81713">
        <ele>582</ele>
        <time>2019-03-23T13:07:26Z</time>
      </trkpt>
      <trkpt lat="44.30781" lon="5.8171">
        <ele>582</ele>
        <time>2019-03-23T13:07:27Z</time>
      </trkpt>
      <trkpt lat="44.30782" lon="5.81707">
        <ele>582</ele>
        <time>2019-03-23T13:07:28Z</time>
      </trkpt>
      <trkpt lat="44.30783" lon="5.81703">
        <ele>582</ele>
        <time>2019-03-23T13:07:29Z</time>
      </trkpt>
      <trkpt lat="44.30785" lon="5.817">
        <ele>582</ele>
        <time>2019-03-23T13:07:30Z</time>
      </trkpt>
      <trkpt lat="44.30786" lon="5.81696">
        <ele>582</ele>
        <time>2019-03-23T13:07:31Z</time>
      </trkpt>
      <trkpt lat="44.30787" lon="5.81693">
        <ele>582</ele>
        <time>2019-03-23T13:07:32Z</time>
      </trkpt>
      <trkpt lat="44.30788" lon="5.8169">
        <ele>583</ele>
        <time>2019-03-23T13:07:34Z</time>
      </trkpt>
      <trkpt lat="44.30789" lon="5.81686">
        <ele>583</ele>
        <time>2019-03-23T13:07:34Z</time>
      </trkpt>
      <trkpt lat="44.3079" lon="5.81683">
        <ele>583</ele>
        <time>2019-03-23T13:07:35Z</time>
      </trkpt>
      <trkpt lat="44.30791" lon="5.81679">
        <ele>583</ele>
        <time>2019-03-23T13:07:36Z</time>
      </trkpt>
      <trkpt lat="44.30792" lon="5.81675">
        <ele>583</ele>
        <time>2019-03-23T13:07:37Z</time>
      </trkpt>
      <trkpt lat="44.30793" lon="5.81671">
        <ele>584</ele>
        <time>2019-03-23T13:07:39Z</time>
      </trkpt>
      <trkpt lat="44.30794" lon="5.81667">
        <ele>584</ele>
        <time>2019-03-23T13:07:40Z</time>
      </trkpt>
      <trkpt lat="44.30795" lon="5.81663">
        <ele>584</ele>
        <time>2019-03-23T13:07:40Z</time>
      </trkpt>
      <trkpt lat="44.30795" lon="5.81659">
        <ele>585</ele>
        <time>2019-03-23T13:07:41Z</time>
      </trkpt>
      <trkpt lat="44.30796" lon="5.81655">
        <ele>585</ele>
        <time>2019-03-23T13:07:42Z</time>
      </trkpt>
      <trkpt lat="44.30797" lon="5.81651">
        <ele>585</ele>
        <time>2019-03-23T13:07:44Z</time>
      </trkpt>
      <trkpt lat="44.30798" lon="5.81648">
        <ele>585</ele>
        <time>2019-03-23T13:07:44Z</time>
      </trkpt>
      <trkpt lat="44.30798" lon="5.81644">
        <ele>586</ele>
        <time>2019-03-23T13:07:46Z</time>
      </trkpt>
      <trkpt lat="44.30799" lon="5.8164">
        <ele>586</ele>
        <time>2019-03-23T13:07:46Z</time>
      </trkpt>
      <trkpt lat="44.30799" lon="5.81637">
        <ele>586</ele>
        <time>2019-03-23T13:07:47Z</time>
      </trkpt>
      <trkpt lat="44.308" lon="5.81633">
        <ele>586</ele>
        <time>2019-03-23T13:07:49Z</time>
      </trkpt>
      <trkpt lat="44.30801" lon="5.8163">
        <ele>586</ele>
        <time>2019-03-23T13:07:49Z</time>
      </trkpt>
      <trkpt lat="44.30801" lon="5.81626">
        <ele>586</ele>
        <time>2019-03-23T13:07:50Z</time>
      </trkpt>
      <trkpt lat="44.30802" lon="5.81623">
        <ele>586</ele>
        <time>2019-03-23T13:07:51Z</time>
      </trkpt>
      <trkpt lat="44.30802" lon="5.81619">
        <ele>586</ele>
        <time>2019-03-23T13:07:52Z</time>
      </trkpt>
      <trkpt lat="44.30803" lon="5.81615">
        <ele>586</ele>
        <time>2019-03-23T13:07:54Z</time>
      </trkpt>
      <trkpt lat="44.30804" lon="5.81612">
        <ele>587</ele>
        <time>2019-03-23T13:07:54Z</time>
      </trkpt>
      <trkpt lat="44.30804" lon="5.81608">
        <ele>587</ele>
        <time>2019-03-23T13:07:55Z</time>
      </trkpt>
      <trkpt lat="44.30805" lon="5.81605">
        <ele>587</ele>
        <time>2019-03-23T13:07:56Z</time>
      </trkpt>
      <trkpt lat="44.30805" lon="5.81601">
        <ele>587</ele>
        <time>2019-03-23T13:07:57Z</time>
      </trkpt>
      <trkpt lat="44.30806" lon="5.81598">
        <ele>587</ele>
        <time>2019-03-23T13:07:59Z</time>
      </trkpt>
      <trkpt lat="44.30806" lon="5.81595">
        <ele>587</ele>
        <time>2019-03-23T13:08:00Z</time>
      </trkpt>
      <trkpt lat="44.30807" lon="5.81591">
        <ele>587</ele>
        <time>2019-03-23T13:08:00Z</time>
      </trkpt>
      <trkpt lat="44.30807" lon="5.81588">
        <ele>587</ele>
        <time>2019-03-23T13:08:01Z</time>
      </trkpt>
      <trkpt lat="44.30808" lon="5.81585">
        <ele>587</ele>
        <time>2019-03-23T13:08:03Z</time>
      </trkpt>
      <trkpt lat="44.30808" lon="5.81581">
        <ele>588</ele>
        <time>2019-03-23T13:08:04Z</time>
      </trkpt>
      <trkpt lat="44.30808" lon="5.81577">
        <ele>588</ele>
        <time>2019-03-23T13:08:04Z</time>
      </trkpt>
      <trkpt lat="44.30809" lon="5.81574">
        <ele>588</ele>
        <time>2019-03-23T13:08:05Z</time>
      </trkpt>
      <trkpt lat="44.30809" lon="5.8157">
        <ele>588</ele>
        <time>2019-03-23T13:08:06Z</time>
      </trkpt>
      <trkpt lat="44.30809" lon="5.81566">
        <ele>588</ele>
        <time>2019-03-23T13:08:07Z</time>
      </trkpt>
      <trkpt lat="44.3081" lon="5.81563">
        <ele>588</ele>
        <time>2019-03-23T13:08:09Z</time>
      </trkpt>
      <trkpt lat="44.30811" lon="5.8156">
        <ele>589</ele>
        <time>2019-03-23T13:08:09Z</time>
      </trkpt>
      <trkpt lat="44.30811" lon="5.81556">
        <ele>589</ele>
        <time>2019-03-23T13:08:10Z</time>
      </trkpt>
      <trkpt lat="44.30811" lon="5.81553">
        <ele>589</ele>
        <time>2019-03-23T13:08:11Z</time>
      </trkpt>
      <trkpt lat="44.30812" lon="5.8155">
        <ele>589</ele>
        <time>2019-03-23T13:08:12Z</time>
      </trkpt>
      <trkpt lat="44.30812" lon="5.81546">
        <ele>589</ele>
        <time>2019-03-23T13:08:14Z</time>
      </trkpt>
      <trkpt lat="44.30813" lon="5.81543">
        <ele>590</ele>
        <time>2019-03-23T13:08:14Z</time>
      </trkpt>
      <trkpt lat="44.30813" lon="5.8154">
        <ele>590</ele>
        <time>2019-03-23T13:08:15Z</time>
      </trkpt>
      <trkpt lat="44.30814" lon="5.81537">
        <ele>590</ele>
        <time>2019-03-23T13:08:16Z</time>
      </trkpt>
      <trkpt lat="44.30815" lon="5.81533">
        <ele>590</ele>
        <time>2019-03-23T13:08:17Z</time>
      </trkpt>
      <trkpt lat="44.30816" lon="5.8153">
        <ele>590</ele>
        <time>2019-03-23T13:08:19Z</time>
      </trkpt>
      <trkpt lat="44.30816" lon="5.81527">
        <ele>590</ele>
        <time>2019-03-23T13:08:19Z</time>
      </trkpt>
      <trkpt lat="44.30817" lon="5.81523">
        <ele>590</ele>
        <time>2019-03-23T13:08:21Z</time>
      </trkpt>
      <trkpt lat="44.30818" lon="5.8152">
        <ele>590</ele>
        <time>2019-03-23T13:08:21Z</time>
      </trkpt>
      <trkpt lat="44.30819" lon="5.81516">
        <ele>591</ele>
        <time>2019-03-23T13:08:22Z</time>
      </trkpt>
      <trkpt lat="44.30819" lon="5.81513">
        <ele>591</ele>
        <time>2019-03-23T13:08:24Z</time>
      </trkpt>
      <trkpt lat="44.3082" lon="5.81509">
        <ele>591</ele>
        <time>2019-03-23T13:08:24Z</time>
      </trkpt>
      <trkpt lat="44.30821" lon="5.81506">
        <ele>591</ele>
        <time>2019-03-23T13:08:25Z</time>
      </trkpt>
      <trkpt lat="44.30822" lon="5.81502">
        <ele>592</ele>
        <time>2019-03-23T13:08:26Z</time>
      </trkpt>
      <trkpt lat="44.30822" lon="5.81499">
        <ele>592</ele>
        <time>2019-03-23T13:08:27Z</time>
      </trkpt>
      <trkpt lat="44.30823" lon="5.81496">
        <ele>592</ele>
        <time>2019-03-23T13:08:29Z</time>
      </trkpt>
      <trkpt lat="44.30824" lon="5.81493">
        <ele>592</ele>
        <time>2019-03-23T13:08:29Z</time>
      </trkpt>
      <trkpt lat="44.30825" lon="5.81489">
        <ele>592</ele>
        <time>2019-03-23T13:08:30Z</time>
      </trkpt>
      <trkpt lat="44.30825" lon="5.81486">
        <ele>593</ele>
        <time>2019-03-23T13:08:31Z</time>
      </trkpt>
      <trkpt lat="44.30826" lon="5.81483">
        <ele>593</ele>
        <time>2019-03-23T13:08:32Z</time>
      </trkpt>
      <trkpt lat="44.30827" lon="5.81479">
        <ele>593</ele>
        <time>2019-03-23T13:08:34Z</time>
      </trkpt>
      <trkpt lat="44.30827" lon="5.81475">
        <ele>593</ele>
        <time>2019-03-23T13:08:34Z</time>
      </trkpt>
      <trkpt lat="44.30828" lon="5.81471">
        <ele>594</ele>
        <time>2019-03-23T13:08:35Z</time>
      </trkpt>
      <trkpt lat="44.30829" lon="5.81467">
        <ele>594</ele>
        <time>2019-03-23T13:08:36Z</time>
      </trkpt>
      <trkpt lat="44.3083" lon="5.81463">
        <ele>594</ele>
        <time>2019-03-23T13:08:37Z</time>
      </trkpt>
      <trkpt lat="44.30831" lon="5.81459">
        <ele>595</ele>
        <time>2019-03-23T13:08:39Z</time>
      </trkpt>
      <trkpt lat="44.30832" lon="5.81454">
        <ele>595</ele>
        <time>2019-03-23T13:08:40Z</time>
      </trkpt>
      <trkpt lat="44.30832" lon="5.8145">
        <ele>595</ele>
        <time>2019-03-23T13:08:40Z</time>
      </trkpt>
      <trkpt lat="44.30833" lon="5.81446">
        <ele>596</ele>
        <time>2019-03-23T13:08:41Z</time>
      </trkpt>
      <trkpt lat="44.30833" lon="5.81443">
        <ele>596</ele>
        <time>2019-03-23T13:08:42Z</time>
      </trkpt>
      <trkpt lat="44.30833" lon="5.81439">
        <ele>596</ele>
        <time>2019-03-23T13:08:44Z</time>
      </trkpt>
      <trkpt lat="44.30834" lon="5.81436">
        <ele>596</ele>
        <time>2019-03-23T13:08:44Z</time>
      </trkpt>
      <trkpt lat="44.30835" lon="5.81433">
        <ele>597</ele>
        <time>2019-03-23T13:08:45Z</time>
      </trkpt>
      <trkpt lat="44.30835" lon="5.8143">
        <ele>597</ele>
        <time>2019-03-23T13:08:46Z</time>
      </trkpt>
      <trkpt lat="44.30835" lon="5.81426">
        <ele>597</ele>
        <time>2019-03-23T13:08:47Z</time>
      </trkpt>
      <trkpt lat="44.30836" lon="5.81423">
        <ele>597</ele>
        <time>2019-03-23T13:08:48Z</time>
      </trkpt>
      <trkpt lat="44.30836" lon="5.8142">
        <ele>597</ele>
        <time>2019-03-23T13:08:49Z</time>
      </trkpt>
      <trkpt lat="44.30836" lon="5.81417">
        <ele>598</ele>
        <time>2019-03-23T13:08:50Z</time>
      </trkpt>
      <trkpt lat="44.30837" lon="5.81414">
        <ele>598</ele>
        <time>2019-03-23T13:08:51Z</time>
      </trkpt>
      <trkpt lat="44.30837" lon="5.81411">
        <ele>598</ele>
        <time>2019-03-23T13:08:52Z</time>
      </trkpt>
      <trkpt lat="44.30837" lon="5.81407">
        <ele>598</ele>
        <time>2019-03-23T13:08:54Z</time>
      </trkpt>
      <trkpt lat="44.30838" lon="5.81404">
        <ele>598</ele>
        <time>2019-03-23T13:08:54Z</time>
      </trkpt>
      <trkpt lat="44.30838" lon="5.81401">
        <ele>599</ele>
        <time>2019-03-23T13:08:55Z</time>
      </trkpt>
      <trkpt lat="44.30839" lon="5.81397">
        <ele>599</ele>
        <time>2019-03-23T13:08:56Z</time>
      </trkpt>
      <trkpt lat="44.30839" lon="5.81394">
        <ele>599</ele>
        <time>2019-03-23T13:08:57Z</time>
      </trkpt>
      <trkpt lat="44.30839" lon="5.8139">
        <ele>599</ele>
        <time>2019-03-23T13:08:59Z</time>
      </trkpt>
      <trkpt lat="44.30839" lon="5.81387">
        <ele>599</ele>
        <time>2019-03-23T13:08:59Z</time>
      </trkpt>
      <trkpt lat="44.30839" lon="5.81384">
        <ele>599</ele>
        <time>2019-03-23T13:09:00Z</time>
      </trkpt>
      <trkpt lat="44.3084" lon="5.8138">
        <ele>599</ele>
        <time>2019-03-23T13:09:01Z</time>
      </trkpt>
      <trkpt lat="44.3084" lon="5.81377">
        <ele>599</ele>
        <time>2019-03-23T13:09:02Z</time>
      </trkpt>
      <trkpt lat="44.3084" lon="5.81373">
        <ele>599</ele>
        <time>2019-03-23T13:09:04Z</time>
      </trkpt>
      <trkpt lat="44.30841" lon="5.81369">
        <ele>599</ele>
        <time>2019-03-23T13:09:04Z</time>
      </trkpt>
      <trkpt lat="44.30841" lon="5.81365">
        <ele>599</ele>
        <time>2019-03-23T13:09:05Z</time>
      </trkpt>
      <trkpt lat="44.30842" lon="5.81361">
        <ele>599</ele>
        <time>2019-03-23T13:09:06Z</time>
      </trkpt>
      <trkpt lat="44.30843" lon="5.81357">
        <ele>599</ele>
        <time>2019-03-23T13:09:07Z</time>
      </trkpt>
      <trkpt lat="44.30843" lon="5.81353">
        <ele>600</ele>
        <time>2019-03-23T13:09:08Z</time>
      </trkpt>
      <trkpt lat="44.30844" lon="5.8135">
        <ele>600</ele>
        <time>2019-03-23T13:09:09Z</time>
      </trkpt>
      <trkpt lat="44.30845" lon="5.81346">
        <ele>600</ele>
        <time>2019-03-23T13:09:10Z</time>
      </trkpt>
      <trkpt lat="44.30846" lon="5.81343">
        <ele>600</ele>
        <time>2019-03-23T13:09:11Z</time>
      </trkpt>
      <trkpt lat="44.30848" lon="5.81339">
        <ele>600</ele>
        <time>2019-03-23T13:09:12Z</time>
      </trkpt>
      <trkpt lat="44.30849" lon="5.81336">
        <ele>600</ele>
        <time>2019-03-23T13:09:13Z</time>
      </trkpt>
      <trkpt lat="44.3085" lon="5.81333">
        <ele>600</ele>
        <time>2019-03-23T13:09:14Z</time>
      </trkpt>
      <trkpt lat="44.30851" lon="5.8133">
        <ele>601</ele>
        <time>2019-03-23T13:09:15Z</time>
      </trkpt>
      <trkpt lat="44.30853" lon="5.81326">
        <ele>601</ele>
        <time>2019-03-23T13:09:16Z</time>
      </trkpt>
      <trkpt lat="44.30854" lon="5.81323">
        <ele>601</ele>
        <time>2019-03-23T13:09:17Z</time>
      </trkpt>
      <trkpt lat="44.30856" lon="5.8132">
        <ele>601</ele>
        <time>2019-03-23T13:09:18Z</time>
      </trkpt>
      <trkpt lat="44.30857" lon="5.81316">
        <ele>601</ele>
        <time>2019-03-23T13:09:19Z</time>
      </trkpt>
      <trkpt lat="44.30858" lon="5.81313">
        <ele>601</ele>
        <time>2019-03-23T13:09:20Z</time>
      </trkpt>
      <trkpt lat="44.30859" lon="5.81309">
        <ele>601</ele>
        <time>2019-03-23T13:09:21Z</time>
      </trkpt>
      <trkpt lat="44.3086" lon="5.81305">
        <ele>602</ele>
        <time>2019-03-23T13:09:22Z</time>
      </trkpt>
      <trkpt lat="44.30861" lon="5.81301">
        <ele>602</ele>
        <time>2019-03-23T13:09:24Z</time>
      </trkpt>
      <trkpt lat="44.30862" lon="5.81297">
        <ele>602</ele>
        <time>2019-03-23T13:09:24Z</time>
      </trkpt>
      <trkpt lat="44.30864" lon="5.81293">
        <ele>602</ele>
        <time>2019-03-23T13:09:25Z</time>
      </trkpt>
      <trkpt lat="44.30865" lon="5.81289">
        <ele>602</ele>
        <time>2019-03-23T13:09:26Z</time>
      </trkpt>
      <trkpt lat="44.30866" lon="5.81285">
        <ele>602</ele>
        <time>2019-03-23T13:09:27Z</time>
      </trkpt>
      <trkpt lat="44.30868" lon="5.8128">
        <ele>602</ele>
        <time>2019-03-23T13:09:28Z</time>
      </trkpt>
      <trkpt lat="44.30869" lon="5.81275">
        <ele>602</ele>
        <time>2019-03-23T13:09:29Z</time>
      </trkpt>
      <trkpt lat="44.3087" lon="5.8127">
        <ele>602</ele>
        <time>2019-03-23T13:09:30Z</time>
      </trkpt>
      <trkpt lat="44.30871" lon="5.81266">
        <ele>602</ele>
        <time>2019-03-23T13:09:31Z</time>
      </trkpt>
      <trkpt lat="44.30872" lon="5.81261">
        <ele>602</ele>
        <time>2019-03-23T13:09:32Z</time>
      </trkpt>
      <trkpt lat="44.30874" lon="5.81257">
        <ele>602</ele>
        <time>2019-03-23T13:09:33Z</time>
      </trkpt>
      <trkpt lat="44.30875" lon="5.81252">
        <ele>603</ele>
        <time>2019-03-23T13:09:34Z</time>
      </trkpt>
      <trkpt lat="44.30876" lon="5.81248">
        <ele>603</ele>
        <time>2019-03-23T13:09:35Z</time>
      </trkpt>
      <trkpt lat="44.30878" lon="5.81243">
        <ele>603</ele>
        <time>2019-03-23T13:09:36Z</time>
      </trkpt>
      <trkpt lat="44.30878" lon="5.81238">
        <ele>603</ele>
        <time>2019-03-23T13:09:37Z</time>
      </trkpt>
      <trkpt lat="44.3088" lon="5.81234">
        <ele>603</ele>
        <time>2019-03-23T13:09:38Z</time>
      </trkpt>
      <trkpt lat="44.30881" lon="5.81229">
        <ele>604</ele>
        <time>2019-03-23T13:09:40Z</time>
      </trkpt>
      <trkpt lat="44.30882" lon="5.81224">
        <ele>604</ele>
        <time>2019-03-23T13:09:40Z</time>
      </trkpt>
      <trkpt lat="44.30884" lon="5.8122">
        <ele>604</ele>
        <time>2019-03-23T13:09:41Z</time>
      </trkpt>
      <trkpt lat="44.30885" lon="5.81216">
        <ele>604</ele>
        <time>2019-03-23T13:09:42Z</time>
      </trkpt>
      <trkpt lat="44.30887" lon="5.81211">
        <ele>604</ele>
        <time>2019-03-23T13:09:44Z</time>
      </trkpt>
      <trkpt lat="44.30888" lon="5.81206">
        <ele>604</ele>
        <time>2019-03-23T13:09:44Z</time>
      </trkpt>
      <trkpt lat="44.3089" lon="5.81201">
        <ele>604</ele>
        <time>2019-03-23T13:09:45Z</time>
      </trkpt>
      <trkpt lat="44.30891" lon="5.81196">
        <ele>604</ele>
        <time>2019-03-23T13:09:46Z</time>
      </trkpt>
      <trkpt lat="44.30893" lon="5.81191">
        <ele>604</ele>
        <time>2019-03-23T13:09:47Z</time>
      </trkpt>
      <trkpt lat="44.30895" lon="5.81185">
        <ele>604</ele>
        <time>2019-03-23T13:09:49Z</time>
      </trkpt>
      <trkpt lat="44.30896" lon="5.8118">
        <ele>604</ele>
        <time>2019-03-23T13:09:49Z</time>
      </trkpt>
      <trkpt lat="44.30898" lon="5.81175">
        <ele>604</ele>
        <time>2019-03-23T13:09:50Z</time>
      </trkpt>
      <trkpt lat="44.309" lon="5.8117">
        <ele>604</ele>
        <time>2019-03-23T13:09:51Z</time>
      </trkpt>
      <trkpt lat="44.30901" lon="5.81165">
        <ele>604</ele>
        <time>2019-03-23T13:09:52Z</time>
      </trkpt>
      <trkpt lat="44.30903" lon="5.81159">
        <ele>604</ele>
        <time>2019-03-23T13:09:53Z</time>
      </trkpt>
      <trkpt lat="44.30904" lon="5.81153">
        <ele>604</ele>
        <time>2019-03-23T13:09:54Z</time>
      </trkpt>
      <trkpt lat="44.30906" lon="5.81147">
        <ele>604</ele>
        <time>2019-03-23T13:09:55Z</time>
      </trkpt>
      <trkpt lat="44.30908" lon="5.81141">
        <ele>604</ele>
        <time>2019-03-23T13:09:56Z</time>
      </trkpt>
      <trkpt lat="44.30909" lon="5.81134">
        <ele>604</ele>
        <time>2019-03-23T13:09:57Z</time>
      </trkpt>
      <trkpt lat="44.30911" lon="5.81128">
        <ele>604</ele>
        <time>2019-03-23T13:09:59Z</time>
      </trkpt>
      <trkpt lat="44.30913" lon="5.8112">
        <ele>604</ele>
        <time>2019-03-23T13:09:59Z</time>
      </trkpt>
      <trkpt lat="44.30915" lon="5.81113">
        <ele>604</ele>
        <time>2019-03-23T13:10:00Z</time>
      </trkpt>
      <trkpt lat="44.30916" lon="5.81106">
        <ele>604</ele>
        <time>2019-03-23T13:10:01Z</time>
      </trkpt>
      <trkpt lat="44.30918" lon="5.81099">
        <ele>604</ele>
        <time>2019-03-23T13:10:02Z</time>
      </trkpt>
      <trkpt lat="44.3092" lon="5.81091">
        <ele>604</ele>
        <time>2019-03-23T13:10:04Z</time>
      </trkpt>
      <trkpt lat="44.30922" lon="5.81084">
        <ele>604</ele>
        <time>2019-03-23T13:10:04Z</time>
      </trkpt>
      <trkpt lat="44.30923" lon="5.81077">
        <ele>604</ele>
        <time>2019-03-23T13:10:05Z</time>
      </trkpt>
      <trkpt lat="44.30925" lon="5.8107">
        <ele>604</ele>
        <time>2019-03-23T13:10:06Z</time>
      </trkpt>
      <trkpt lat="44.30928" lon="5.81063">
        <ele>604</ele>
        <time>2019-03-23T13:10:07Z</time>
      </trkpt>
      <trkpt lat="44.3093" lon="5.81056">
        <ele>604</ele>
        <time>2019-03-23T13:10:09Z</time>
      </trkpt>
      <trkpt lat="44.30932" lon="5.8105">
        <ele>604</ele>
        <time>2019-03-23T13:10:09Z</time>
      </trkpt>
      <trkpt lat="44.30935" lon="5.81043">
        <ele>604</ele>
        <time>2019-03-23T13:10:10Z</time>
      </trkpt>
      <trkpt lat="44.30938" lon="5.81037">
        <ele>604</ele>
        <time>2019-03-23T13:10:11Z</time>
      </trkpt>
      <trkpt lat="44.3094" lon="5.81031">
        <ele>604</ele>
        <time>2019-03-23T13:10:12Z</time>
      </trkpt>
      <trkpt lat="44.30942" lon="5.81024">
        <ele>604</ele>
        <time>2019-03-23T13:10:13Z</time>
      </trkpt>
      <trkpt lat="44.30945" lon="5.81019">
        <ele>604</ele>
        <time>2019-03-23T13:10:14Z</time>
      </trkpt>
      <trkpt lat="44.30948" lon="5.81014">
        <ele>604</ele>
        <time>2019-03-23T13:10:15Z</time>
      </trkpt>
      <trkpt lat="44.30951" lon="5.81008">
        <ele>604</ele>
        <time>2019-03-23T13:10:16Z</time>
      </trkpt>
      <trkpt lat="44.30954" lon="5.81003">
        <ele>604</ele>
        <time>2019-03-23T13:10:17Z</time>
      </trkpt>
      <trkpt lat="44.30957" lon="5.80999">
        <ele>604</ele>
        <time>2019-03-23T13:10:18Z</time>
      </trkpt>
      <trkpt lat="44.3096" lon="5.80995">
        <ele>604</ele>
        <time>2019-03-23T13:10:19Z</time>
      </trkpt>
      <trkpt lat="44.30963" lon="5.8099">
        <ele>604</ele>
        <time>2019-03-23T13:10:20Z</time>
      </trkpt>
      <trkpt lat="44.30965" lon="5.80986">
        <ele>604</ele>
        <time>2019-03-23T13:10:21Z</time>
      </trkpt>
      <trkpt lat="44.30968" lon="5.80982">
        <ele>604</ele>
        <time>2019-03-23T13:10:22Z</time>
      </trkpt>
      <trkpt lat="44.3097" lon="5.80978">
        <ele>604</ele>
        <time>2019-03-23T13:10:23Z</time>
      </trkpt>
      <trkpt lat="44.30972" lon="5.80974">
        <ele>604</ele>
        <time>2019-03-23T13:10:24Z</time>
      </trkpt>
      <trkpt lat="44.30974" lon="5.8097">
        <ele>604</ele>
        <time>2019-03-23T13:10:25Z</time>
      </trkpt>
      <trkpt lat="44.30976" lon="5.80966">
        <ele>604</ele>
        <time>2019-03-23T13:10:26Z</time>
      </trkpt>
      <trkpt lat="44.30978" lon="5.80963">
        <ele>604</ele>
        <time>2019-03-23T13:10:27Z</time>
      </trkpt>
      <trkpt lat="44.3098" lon="5.80959">
        <ele>605</ele>
        <time>2019-03-23T13:10:28Z</time>
      </trkpt>
      <trkpt lat="44.30982" lon="5.80955">
        <ele>605</ele>
        <time>2019-03-23T13:10:29Z</time>
      </trkpt>
      <trkpt lat="44.30983" lon="5.80951">
        <ele>605</ele>
        <time>2019-03-23T13:10:30Z</time>
      </trkpt>
      <trkpt lat="44.30986" lon="5.80947">
        <ele>605</ele>
        <time>2019-03-23T13:10:31Z</time>
      </trkpt>
      <trkpt lat="44.30987" lon="5.80943">
        <ele>605</ele>
        <time>2019-03-23T13:10:32Z</time>
      </trkpt>
      <trkpt lat="44.30988" lon="5.80938">
        <ele>605</ele>
        <time>2019-03-23T13:10:34Z</time>
      </trkpt>
      <trkpt lat="44.3099" lon="5.80934">
        <ele>605</ele>
        <time>2019-03-23T13:10:34Z</time>
      </trkpt>
      <trkpt lat="44.30992" lon="5.8093">
        <ele>605</ele>
        <time>2019-03-23T13:10:35Z</time>
      </trkpt>
      <trkpt lat="44.30993" lon="5.80925">
        <ele>605</ele>
        <time>2019-03-23T13:10:36Z</time>
      </trkpt>
      <trkpt lat="44.30994" lon="5.80921">
        <ele>606</ele>
        <time>2019-03-23T13:10:37Z</time>
      </trkpt>
      <trkpt lat="44.30996" lon="5.80916">
        <ele>606</ele>
        <time>2019-03-23T13:10:39Z</time>
      </trkpt>
      <trkpt lat="44.30997" lon="5.80912">
        <ele>606</ele>
        <time>2019-03-23T13:10:40Z</time>
      </trkpt>
      <trkpt lat="44.30998" lon="5.80907">
        <ele>606</ele>
        <time>2019-03-23T13:10:40Z</time>
      </trkpt>
      <trkpt lat="44.30999" lon="5.80903">
        <ele>606</ele>
        <time>2019-03-23T13:10:41Z</time>
      </trkpt>
      <trkpt lat="44.31" lon="5.80899">
        <ele>606</ele>
        <time>2019-03-23T13:10:42Z</time>
      </trkpt>
      <trkpt lat="44.31" lon="5.80894">
        <ele>606</ele>
        <time>2019-03-23T13:10:44Z</time>
      </trkpt>
      <trkpt lat="44.31001" lon="5.80889">
        <ele>606</ele>
        <time>2019-03-23T13:10:44Z</time>
      </trkpt>
      <trkpt lat="44.31002" lon="5.80884">
        <ele>607</ele>
        <time>2019-03-23T13:10:45Z</time>
      </trkpt>
      <trkpt lat="44.31002" lon="5.80879">
        <ele>607</ele>
        <time>2019-03-23T13:10:46Z</time>
      </trkpt>
      <trkpt lat="44.31003" lon="5.80874">
        <ele>607</ele>
        <time>2019-03-23T13:10:47Z</time>
      </trkpt>
      <trkpt lat="44.31003" lon="5.80869">
        <ele>607</ele>
        <time>2019-03-23T13:10:49Z</time>
      </trkpt>
      <trkpt lat="44.31004" lon="5.80864">
        <ele>607</ele>
        <time>2019-03-23T13:10:49Z</time>
      </trkpt>
      <trkpt lat="44.31004" lon="5.80858">
        <ele>607</ele>
        <time>2019-03-23T13:10:50Z</time>
      </trkpt>
      <trkpt lat="44.31005" lon="5.80852">
        <ele>607</ele>
        <time>2019-03-23T13:10:51Z</time>
      </trkpt>
      <trkpt lat="44.31006" lon="5.80846">
        <ele>607</ele>
        <time>2019-03-23T13:10:52Z</time>
      </trkpt>
      <trkpt lat="44.31008" lon="5.8084">
        <ele>607</ele>
        <time>2019-03-23T13:10:53Z</time>
      </trkpt>
      <trkpt lat="44.31009" lon="5.80834">
        <ele>607</ele>
        <time>2019-03-23T13:10:54Z</time>
      </trkpt>
      <trkpt lat="44.31011" lon="5.80828">
        <ele>607</ele>
        <time>2019-03-23T13:10:55Z</time>
      </trkpt>
      <trkpt lat="44.31013" lon="5.80822">
        <ele>607</ele>
        <time>2019-03-23T13:10:56Z</time>
      </trkpt>
      <trkpt lat="44.31015" lon="5.80817">
        <ele>607</ele>
        <time>2019-03-23T13:10:57Z</time>
      </trkpt>
      <trkpt lat="44.31017" lon="5.80812">
        <ele>608</ele>
        <time>2019-03-23T13:10:59Z</time>
      </trkpt>
      <trkpt lat="44.3102" lon="5.80807">
        <ele>608</ele>
        <time>2019-03-23T13:10:59Z</time>
      </trkpt>
      <trkpt lat="44.31022" lon="5.80803">
        <ele>608</ele>
        <time>2019-03-23T13:11:00Z</time>
      </trkpt>
      <trkpt lat="44.31025" lon="5.80798">
        <ele>608</ele>
        <time>2019-03-23T13:11:01Z</time>
      </trkpt>
      <trkpt lat="44.31027" lon="5.80794">
        <ele>609</ele>
        <time>2019-03-23T13:11:02Z</time>
      </trkpt>
      <trkpt lat="44.31029" lon="5.8079">
        <ele>609</ele>
        <time>2019-03-23T13:11:03Z</time>
      </trkpt>
      <trkpt lat="44.31031" lon="5.80785">
        <ele>609</ele>
        <time>2019-03-23T13:11:04Z</time>
      </trkpt>
      <trkpt lat="44.31033" lon="5.80781">
        <ele>609</ele>
        <time>2019-03-23T13:11:05Z</time>
      </trkpt>
      <trkpt lat="44.31035" lon="5.80776">
        <ele>610</ele>
        <time>2019-03-23T13:11:06Z</time>
      </trkpt>
      <trkpt lat="44.31037" lon="5.80772">
        <ele>610</ele>
        <time>2019-03-23T13:11:07Z</time>
      </trkpt>
      <trkpt lat="44.31039" lon="5.80768">
        <ele>610</ele>
        <time>2019-03-23T13:11:09Z</time>
      </trkpt>
      <trkpt lat="44.31041" lon="5.80764">
        <ele>610</ele>
        <time>2019-03-23T13:11:09Z</time>
      </trkpt>
      <trkpt lat="44.31042" lon="5.80759">
        <ele>611</ele>
        <time>2019-03-23T13:11:10Z</time>
      </trkpt>
      <trkpt lat="44.31044" lon="5.80755">
        <ele>611</ele>
        <time>2019-03-23T13:11:11Z</time>
      </trkpt>
      <trkpt lat="44.31045" lon="5.8075">
        <ele>611</ele>
        <time>2019-03-23T13:11:12Z</time>
      </trkpt>
      <trkpt lat="44.31047" lon="5.80745">
        <ele>611</ele>
        <time>2019-03-23T13:11:13Z</time>
      </trkpt>
      <trkpt lat="44.31048" lon="5.8074">
        <ele>611</ele>
        <time>2019-03-23T13:11:14Z</time>
      </trkpt>
      <trkpt lat="44.3105" lon="5.80735">
        <ele>612</ele>
        <time>2019-03-23T13:11:15Z</time>
      </trkpt>
      <trkpt lat="44.31051" lon="5.8073">
        <ele>612</ele>
        <time>2019-03-23T13:11:16Z</time>
      </trkpt>
      <trkpt lat="44.31052" lon="5.80726">
        <ele>612</ele>
        <time>2019-03-23T13:11:17Z</time>
      </trkpt>
      <trkpt lat="44.31054" lon="5.80721">
        <ele>612</ele>
        <time>2019-03-23T13:11:19Z</time>
      </trkpt>
      <trkpt lat="44.31055" lon="5.80717">
        <ele>613</ele>
        <time>2019-03-23T13:11:19Z</time>
      </trkpt>
      <trkpt lat="44.31057" lon="5.80712">
        <ele>613</ele>
        <time>2019-03-23T13:11:20Z</time>
      </trkpt>
      <trkpt lat="44.31058" lon="5.80708">
        <ele>613</ele>
        <time>2019-03-23T13:11:21Z</time>
      </trkpt>
      <trkpt lat="44.31059" lon="5.80703">
        <ele>613</ele>
        <time>2019-03-23T13:11:22Z</time>
      </trkpt>
      <trkpt lat="44.3106" lon="5.80698">
        <ele>613</ele>
        <time>2019-03-23T13:11:24Z</time>
      </trkpt>
      <trkpt lat="44.31062" lon="5.80693">
        <ele>613</ele>
        <time>2019-03-23T13:11:24Z</time>
      </trkpt>
      <trkpt lat="44.31063" lon="5.80688">
        <ele>614</ele>
        <time>2019-03-23T13:11:25Z</time>
      </trkpt>
      <trkpt lat="44.31064" lon="5.80683">
        <ele>614</ele>
        <time>2019-03-23T13:11:26Z</time>
      </trkpt>
      <trkpt lat="44.31065" lon="5.80678">
        <ele>614</ele>
        <time>2019-03-23T13:11:27Z</time>
      </trkpt>
      <trkpt lat="44.31067" lon="5.80674">
        <ele>614</ele>
        <time>2019-03-23T13:11:29Z</time>
      </trkpt>
      <trkpt lat="44.31068" lon="5.80669">
        <ele>614</ele>
        <time>2019-03-23T13:11:29Z</time>
      </trkpt>
      <trkpt lat="44.3107" lon="5.80664">
        <ele>615</ele>
        <time>2019-03-23T13:11:30Z</time>
      </trkpt>
      <trkpt lat="44.31071" lon="5.80659">
        <ele>615</ele>
        <time>2019-03-23T13:11:31Z</time>
      </trkpt>
      <trkpt lat="44.31072" lon="5.80654">
        <ele>615</ele>
        <time>2019-03-23T13:11:32Z</time>
      </trkpt>
      <trkpt lat="44.31073" lon="5.8065">
        <ele>615</ele>
        <time>2019-03-23T13:11:33Z</time>
      </trkpt>
      <trkpt lat="44.31075" lon="5.80645">
        <ele>615</ele>
        <time>2019-03-23T13:11:34Z</time>
      </trkpt>
      <trkpt lat="44.31076" lon="5.8064">
        <ele>615</ele>
        <time>2019-03-23T13:11:35Z</time>
      </trkpt>
      <trkpt lat="44.31078" lon="5.80634">
        <ele>615</ele>
        <time>2019-03-23T13:11:36Z</time>
      </trkpt>
      <trkpt lat="44.31079" lon="5.80629">
        <ele>615</ele>
        <time>2019-03-23T13:11:37Z</time>
      </trkpt>
      <trkpt lat="44.31081" lon="5.80623">
        <ele>615</ele>
        <time>2019-03-23T13:11:39Z</time>
      </trkpt>
      <trkpt lat="44.31083" lon="5.80618">
        <ele>615</ele>
        <time>2019-03-23T13:11:40Z</time>
      </trkpt>
      <trkpt lat="44.31084" lon="5.80612">
        <ele>615</ele>
        <time>2019-03-23T13:11:40Z</time>
      </trkpt>
      <trkpt lat="44.31086" lon="5.80606">
        <ele>615</ele>
        <time>2019-03-23T13:11:41Z</time>
      </trkpt>
      <trkpt lat="44.31087" lon="5.806">
        <ele>615</ele>
        <time>2019-03-23T13:11:42Z</time>
      </trkpt>
      <trkpt lat="44.31089" lon="5.80593">
        <ele>615</ele>
        <time>2019-03-23T13:11:44Z</time>
      </trkpt>
      <trkpt lat="44.31091" lon="5.80586">
        <ele>615</ele>
        <time>2019-03-23T13:11:44Z</time>
      </trkpt>
      <trkpt lat="44.31092" lon="5.80579">
        <ele>615</ele>
        <time>2019-03-23T13:11:45Z</time>
      </trkpt>
      <trkpt lat="44.31094" lon="5.80571">
        <ele>615</ele>
        <time>2019-03-23T13:11:46Z</time>
      </trkpt>
      <trkpt lat="44.31096" lon="5.80563">
        <ele>615</ele>
        <time>2019-03-23T13:11:47Z</time>
      </trkpt>
      <trkpt lat="44.31098" lon="5.80555">
        <ele>615</ele>
        <time>2019-03-23T13:11:49Z</time>
      </trkpt>
      <trkpt lat="44.311" lon="5.80547">
        <ele>615</ele>
        <time>2019-03-23T13:11:49Z</time>
      </trkpt>
      <trkpt lat="44.31102" lon="5.80539">
        <ele>615</ele>
        <time>2019-03-23T13:11:50Z</time>
      </trkpt>
      <trkpt lat="44.31104" lon="5.80531">
        <ele>615</ele>
        <time>2019-03-23T13:11:51Z</time>
      </trkpt>
      <trkpt lat="44.31106" lon="5.80523">
        <ele>615</ele>
        <time>2019-03-23T13:11:52Z</time>
      </trkpt>
      <trkpt lat="44.31108" lon="5.80515">
        <ele>615</ele>
        <time>2019-03-23T13:11:54Z</time>
      </trkpt>
      <trkpt lat="44.31111" lon="5.80507">
        <ele>615</ele>
        <time>2019-03-23T13:11:54Z</time>
      </trkpt>
      <trkpt lat="44.31113" lon="5.805">
        <ele>615</ele>
        <time>2019-03-23T13:11:55Z</time>
      </trkpt>
      <trkpt lat="44.31115" lon="5.80493">
        <ele>615</ele>
        <time>2019-03-23T13:11:56Z</time>
      </trkpt>
      <trkpt lat="44.31117" lon="5.80487">
        <ele>615</ele>
        <time>2019-03-23T13:11:57Z</time>
      </trkpt>
      <trkpt lat="44.31119" lon="5.80481">
        <ele>615</ele>
        <time>2019-03-23T13:11:59Z</time>
      </trkpt>
      <trkpt lat="44.3112" lon="5.80476">
        <ele>615</ele>
        <time>2019-03-23T13:11:59Z</time>
      </trkpt>
      <trkpt lat="44.31122" lon="5.80469">
        <ele>615</ele>
        <time>2019-03-23T13:12:00Z</time>
      </trkpt>
      <trkpt lat="44.31122" lon="5.80462">
        <ele>615</ele>
        <time>2019-03-23T13:12:01Z</time>
      </trkpt>
      <trkpt lat="44.31123" lon="5.80455">
        <ele>615</ele>
        <time>2019-03-23T13:12:03Z</time>
      </trkpt>
      <trkpt lat="44.31123" lon="5.80447">
        <ele>615</ele>
        <time>2019-03-23T13:12:04Z</time>
      </trkpt>
      <trkpt lat="44.31122" lon="5.8044">
        <ele>615</ele>
        <time>2019-03-23T13:12:04Z</time>
      </trkpt>
      <trkpt lat="44.31121" lon="5.80433">
        <ele>615</ele>
        <time>2019-03-23T13:12:05Z</time>
      </trkpt>
      <trkpt lat="44.3112" lon="5.80426">
        <ele>615</ele>
        <time>2019-03-23T13:12:06Z</time>
      </trkpt>
      <trkpt lat="44.31119" lon="5.80418">
        <ele>615</ele>
        <time>2019-03-23T13:12:07Z</time>
      </trkpt>
      <trkpt lat="44.31118" lon="5.8041">
        <ele>615</ele>
        <time>2019-03-23T13:12:08Z</time>
      </trkpt>
      <trkpt lat="44.31118" lon="5.80402">
        <ele>615</ele>
        <time>2019-03-23T13:12:09Z</time>
      </trkpt>
      <trkpt lat="44.31118" lon="5.80394">
        <ele>615</ele>
        <time>2019-03-23T13:12:10Z</time>
      </trkpt>
      <trkpt lat="44.31118" lon="5.80386">
        <ele>615</ele>
        <time>2019-03-23T13:12:11Z</time>
      </trkpt>
      <trkpt lat="44.31118" lon="5.80378">
        <ele>615</ele>
        <time>2019-03-23T13:12:12Z</time>
      </trkpt>
      <trkpt lat="44.31118" lon="5.8037">
        <ele>615</ele>
        <time>2019-03-23T13:12:14Z</time>
      </trkpt>
      <trkpt lat="44.31117" lon="5.80362">
        <ele>615</ele>
        <time>2019-03-23T13:12:14Z</time>
      </trkpt>
      <trkpt lat="44.31117" lon="5.80354">
        <ele>615</ele>
        <time>2019-03-23T13:12:15Z</time>
      </trkpt>
      <trkpt lat="44.31117" lon="5.80345">
        <ele>615</ele>
        <time>2019-03-23T13:12:16Z</time>
      </trkpt>
      <trkpt lat="44.31116" lon="5.80337">
        <ele>615</ele>
        <time>2019-03-23T13:12:17Z</time>
      </trkpt>
      <trkpt lat="44.31116" lon="5.80329">
        <ele>615</ele>
        <time>2019-03-23T13:12:18Z</time>
      </trkpt>
      <trkpt lat="44.31117" lon="5.8032">
        <ele>615</ele>
        <time>2019-03-23T13:12:19Z</time>
      </trkpt>
      <trkpt lat="44.31118" lon="5.80311">
        <ele>615</ele>
        <time>2019-03-23T13:12:20Z</time>
      </trkpt>
      <trkpt lat="44.3112" lon="5.80303">
        <ele>615</ele>
        <time>2019-03-23T13:12:21Z</time>
      </trkpt>
      <trkpt lat="44.31122" lon="5.80294">
        <ele>615</ele>
        <time>2019-03-23T13:12:22Z</time>
      </trkpt>
      <trkpt lat="44.31125" lon="5.80286">
        <ele>615</ele>
        <time>2019-03-23T13:12:23Z</time>
      </trkpt>
      <trkpt lat="44.31128" lon="5.80277">
        <ele>615</ele>
        <time>2019-03-23T13:12:24Z</time>
      </trkpt>
      <trkpt lat="44.31131" lon="5.8027">
        <ele>615</ele>
        <time>2019-03-23T13:12:25Z</time>
      </trkpt>
      <trkpt lat="44.31134" lon="5.80262">
        <ele>615</ele>
        <time>2019-03-23T13:12:26Z</time>
      </trkpt>
      <trkpt lat="44.31137" lon="5.80255">
        <ele>615</ele>
        <time>2019-03-23T13:12:27Z</time>
      </trkpt>
      <trkpt lat="44.31141" lon="5.80248">
        <ele>615</ele>
        <time>2019-03-23T13:12:28Z</time>
      </trkpt>
      <trkpt lat="44.31144" lon="5.80241">
        <ele>615</ele>
        <time>2019-03-23T13:12:29Z</time>
      </trkpt>
      <trkpt lat="44.31148" lon="5.80234">
        <ele>615</ele>
        <time>2019-03-23T13:12:30Z</time>
      </trkpt>
      <trkpt lat="44.31152" lon="5.80227">
        <ele>615</ele>
        <time>2019-03-23T13:12:31Z</time>
      </trkpt>
      <trkpt lat="44.31155" lon="5.80218">
        <ele>615</ele>
        <time>2019-03-23T13:12:32Z</time>
      </trkpt>
      <trkpt lat="44.31159" lon="5.80209">
        <ele>615</ele>
        <time>2019-03-23T13:12:34Z</time>
      </trkpt>
      <trkpt lat="44.31163" lon="5.802">
        <ele>615</ele>
        <time>2019-03-23T13:12:34Z</time>
      </trkpt>
      <trkpt lat="44.31168" lon="5.8019">
        <ele>615</ele>
        <time>2019-03-23T13:12:35Z</time>
      </trkpt>
      <trkpt lat="44.31172" lon="5.8018">
        <ele>615</ele>
        <time>2019-03-23T13:12:36Z</time>
      </trkpt>
      <trkpt lat="44.31175" lon="5.80169">
        <ele>614</ele>
        <time>2019-03-23T13:12:37Z</time>
      </trkpt>
      <trkpt lat="44.31178" lon="5.80159">
        <ele>614</ele>
        <time>2019-03-23T13:12:38Z</time>
      </trkpt>
      <trkpt lat="44.31181" lon="5.80147">
        <ele>614</ele>
        <time>2019-03-23T13:12:40Z</time>
      </trkpt>
      <trkpt lat="44.31184" lon="5.80135">
        <ele>614</ele>
        <time>2019-03-23T13:12:40Z</time>
      </trkpt>
      <trkpt lat="44.31187" lon="5.80123">
        <ele>613</ele>
        <time>2019-03-23T13:12:41Z</time>
      </trkpt>
      <trkpt lat="44.31192" lon="5.80113">
        <ele>613</ele>
        <time>2019-03-23T13:12:42Z</time>
      </trkpt>
      <trkpt lat="44.31197" lon="5.80103">
        <ele>613</ele>
        <time>2019-03-23T13:12:43Z</time>
      </trkpt>
      <trkpt lat="44.31202" lon="5.80094">
        <ele>613</ele>
        <time>2019-03-23T13:12:44Z</time>
      </trkpt>
      <trkpt lat="44.31208" lon="5.80087">
        <ele>613</ele>
        <time>2019-03-23T13:12:45Z</time>
      </trkpt>
      <trkpt lat="44.31214" lon="5.80079">
        <ele>613</ele>
        <time>2019-03-23T13:12:46Z</time>
      </trkpt>
      <trkpt lat="44.31219" lon="5.8007">
        <ele>613</ele>
        <time>2019-03-23T13:12:47Z</time>
      </trkpt>
      <trkpt lat="44.31223" lon="5.80061">
        <ele>613</ele>
        <time>2019-03-23T13:12:48Z</time>
      </trkpt>
      <trkpt lat="44.31226" lon="5.80053">
        <ele>613</ele>
        <time>2019-03-23T13:12:49Z</time>
      </trkpt>
      <trkpt lat="44.31229" lon="5.80043">
        <ele>613</ele>
        <time>2019-03-23T13:12:50Z</time>
      </trkpt>
      <trkpt lat="44.3123" lon="5.80034">
        <ele>613</ele>
        <time>2019-03-23T13:12:51Z</time>
      </trkpt>
      <trkpt lat="44.3123" lon="5.80024">
        <ele>613</ele>
        <time>2019-03-23T13:12:52Z</time>
      </trkpt>
      <trkpt lat="44.3123" lon="5.80015">
        <ele>613</ele>
        <time>2019-03-23T13:12:53Z</time>
      </trkpt>
      <trkpt lat="44.3123" lon="5.80005">
        <ele>613</ele>
        <time>2019-03-23T13:12:54Z</time>
      </trkpt>
      <trkpt lat="44.31231" lon="5.79994">
        <ele>613</ele>
        <time>2019-03-23T13:12:55Z</time>
      </trkpt>
      <trkpt lat="44.31232" lon="5.79984">
        <ele>613</ele>
        <time>2019-03-23T13:12:56Z</time>
      </trkpt>
      <trkpt lat="44.31233" lon="5.79974">
        <ele>613</ele>
        <time>2019-03-23T13:12:57Z</time>
      </trkpt>
      <trkpt lat="44.31236" lon="5.79965">
        <ele>613</ele>
        <time>2019-03-23T13:12:59Z</time>
      </trkpt>
      <trkpt lat="44.31239" lon="5.79957">
        <ele>613</ele>
        <time>2019-03-23T13:12:59Z</time>
      </trkpt>
      <trkpt lat="44.31243" lon="5.7995">
        <ele>613</ele>
        <time>2019-03-23T13:13:00Z</time>
      </trkpt>
      <trkpt lat="44.31247" lon="5.79944">
        <ele>613</ele>
        <time>2019-03-23T13:13:01Z</time>
      </trkpt>
      <trkpt lat="44.31251" lon="5.79939">
        <ele>613</ele>
        <time>2019-03-23T13:13:02Z</time>
      </trkpt>
      <trkpt lat="44.31255" lon="5.79934">
        <ele>613</ele>
        <time>2019-03-23T13:13:03Z</time>
      </trkpt>
      <trkpt lat="44.31259" lon="5.79928">
        <ele>613</ele>
        <time>2019-03-23T13:13:04Z</time>
      </trkpt>
      <trkpt lat="44.31263" lon="5.79923">
        <ele>613</ele>
        <time>2019-03-23T13:13:05Z</time>
      </trkpt>
      <trkpt lat="44.31268" lon="5.79917">
        <ele>613</ele>
        <time>2019-03-23T13:13:06Z</time>
      </trkpt>
      <trkpt lat="44.31273" lon="5.79911">
        <ele>613</ele>
        <time>2019-03-23T13:13:07Z</time>
      </trkpt>
      <trkpt lat="44.31277" lon="5.79905">
        <ele>613</ele>
        <time>2019-03-23T13:13:09Z</time>
      </trkpt>
      <trkpt lat="44.31282" lon="5.79899">
        <ele>613</ele>
        <time>2019-03-23T13:13:09Z</time>
      </trkpt>
      <trkpt lat="44.31287" lon="5.79892">
        <ele>613</ele>
        <time>2019-03-23T13:13:10Z</time>
      </trkpt>
      <trkpt lat="44.31292" lon="5.79886">
        <ele>613</ele>
        <time>2019-03-23T13:13:11Z</time>
      </trkpt>
      <trkpt lat="44.31296" lon="5.79879">
        <ele>613</ele>
        <time>2019-03-23T13:13:12Z</time>
      </trkpt>
      <trkpt lat="44.31301" lon="5.79873">
        <ele>613</ele>
        <time>2019-03-23T13:13:13Z</time>
      </trkpt>
      <trkpt lat="44.31306" lon="5.79866">
        <ele>613</ele>
        <time>2019-03-23T13:13:14Z</time>
      </trkpt>
      <trkpt lat="44.31311" lon="5.79859">
        <ele>613</ele>
        <time>2019-03-23T13:13:15Z</time>
      </trkpt>
      <trkpt lat="44.31315" lon="5.79852">
        <ele>613</ele>
        <time>2019-03-23T13:13:16Z</time>
      </trkpt>
      <trkpt lat="44.3132" lon="5.79845">
        <ele>613</ele>
        <time>2019-03-23T13:13:17Z</time>
      </trkpt>
      <trkpt lat="44.31324" lon="5.79838">
        <ele>613</ele>
        <time>2019-03-23T13:13:18Z</time>
      </trkpt>
      <trkpt lat="44.31329" lon="5.79831">
        <ele>613</ele>
        <time>2019-03-23T13:13:19Z</time>
      </trkpt>
      <trkpt lat="44.31334" lon="5.79824">
        <ele>613</ele>
        <time>2019-03-23T13:13:20Z</time>
      </trkpt>
      <trkpt lat="44.31338" lon="5.79817">
        <ele>613</ele>
        <time>2019-03-23T13:13:21Z</time>
      </trkpt>
      <trkpt lat="44.31342" lon="5.79811">
        <ele>613</ele>
        <time>2019-03-23T13:13:22Z</time>
      </trkpt>
      <trkpt lat="44.31346" lon="5.79804">
        <ele>613</ele>
        <time>2019-03-23T13:13:23Z</time>
      </trkpt>
      <trkpt lat="44.3135" lon="5.79798">
        <ele>613</ele>
        <time>2019-03-23T13:13:24Z</time>
      </trkpt>
      <trkpt lat="44.31354" lon="5.79791">
        <ele>613</ele>
        <time>2019-03-23T13:13:25Z</time>
      </trkpt>
      <trkpt lat="44.31358" lon="5.79784">
        <ele>613</ele>
        <time>2019-03-23T13:13:26Z</time>
      </trkpt>
      <trkpt lat="44.31362" lon="5.79778">
        <ele>613</ele>
        <time>2019-03-23T13:13:27Z</time>
      </trkpt>
      <trkpt lat="44.31366" lon="5.79771">
        <ele>613</ele>
        <time>2019-03-23T13:13:28Z</time>
      </trkpt>
      <trkpt lat="44.3137" lon="5.79765">
        <ele>613</ele>
        <time>2019-03-23T13:13:29Z</time>
      </trkpt>
      <trkpt lat="44.31374" lon="5.79759">
        <ele>613</ele>
        <time>2019-03-23T13:13:30Z</time>
      </trkpt>
      <trkpt lat="44.31378" lon="5.79753">
        <ele>613</ele>
        <time>2019-03-23T13:13:31Z</time>
      </trkpt>
      <trkpt lat="44.31382" lon="5.79746">
        <ele>613</ele>
        <time>2019-03-23T13:13:32Z</time>
      </trkpt>
      <trkpt lat="44.31385" lon="5.7974">
        <ele>613</ele>
        <time>2019-03-23T13:13:33Z</time>
      </trkpt>
      <trkpt lat="44.31389" lon="5.79734">
        <ele>613</ele>
        <time>2019-03-23T13:13:34Z</time>
      </trkpt>
      <trkpt lat="44.31392" lon="5.79728">
        <ele>613</ele>
        <time>2019-03-23T13:13:35Z</time>
      </trkpt>
      <trkpt lat="44.31395" lon="5.79721">
        <ele>613</ele>
        <time>2019-03-23T13:13:36Z</time>
      </trkpt>
      <trkpt lat="44.31398" lon="5.79715">
        <ele>613</ele>
        <time>2019-03-23T13:13:37Z</time>
      </trkpt>
      <trkpt lat="44.314" lon="5.79708">
        <ele>613</ele>
        <time>2019-03-23T13:13:38Z</time>
      </trkpt>
      <trkpt lat="44.31402" lon="5.79701">
        <ele>613</ele>
        <time>2019-03-23T13:13:40Z</time>
      </trkpt>
      <trkpt lat="44.31404" lon="5.79694">
        <ele>613</ele>
        <time>2019-03-23T13:13:40Z</time>
      </trkpt>
      <trkpt lat="44.31406" lon="5.79686">
        <ele>613</ele>
        <time>2019-03-23T13:13:41Z</time>
      </trkpt>
      <trkpt lat="44.31408" lon="5.79678">
        <ele>613</ele>
        <time>2019-03-23T13:13:42Z</time>
      </trkpt>
      <trkpt lat="44.31411" lon="5.7967">
        <ele>613</ele>
        <time>2019-03-23T13:13:43Z</time>
      </trkpt>
      <trkpt lat="44.31413" lon="5.7966">
        <ele>612</ele>
        <time>2019-03-23T13:13:44Z</time>
      </trkpt>
      <trkpt lat="44.31416" lon="5.7965">
        <ele>612</ele>
        <time>2019-03-23T13:13:45Z</time>
      </trkpt>
      <trkpt lat="44.31418" lon="5.79639">
        <ele>611</ele>
        <time>2019-03-23T13:13:46Z</time>
      </trkpt>
      <trkpt lat="44.31421" lon="5.79628">
        <ele>610</ele>
        <time>2019-03-23T13:13:47Z</time>
      </trkpt>
      <trkpt lat="44.31424" lon="5.79617">
        <ele>610</ele>
        <time>2019-03-23T13:13:48Z</time>
      </trkpt>
      <trkpt lat="44.31427" lon="5.79605">
        <ele>609</ele>
        <time>2019-03-23T13:13:49Z</time>
      </trkpt>
      <trkpt lat="44.3143" lon="5.79593">
        <ele>609</ele>
        <time>2019-03-23T13:13:50Z</time>
      </trkpt>
      <trkpt lat="44.31432" lon="5.7958">
        <ele>608</ele>
        <time>2019-03-23T13:13:51Z</time>
      </trkpt>
      <trkpt lat="44.31435" lon="5.79569">
        <ele>608</ele>
        <time>2019-03-23T13:13:52Z</time>
      </trkpt>
      <trkpt lat="44.31438" lon="5.79557">
        <ele>607</ele>
        <time>2019-03-23T13:13:53Z</time>
      </trkpt>
      <trkpt lat="44.31441" lon="5.79545">
        <ele>607</ele>
        <time>2019-03-23T13:13:54Z</time>
      </trkpt>
      <trkpt lat="44.31445" lon="5.79532">
        <ele>606</ele>
        <time>2019-03-23T13:13:55Z</time>
      </trkpt>
      <trkpt lat="44.31448" lon="5.7952">
        <ele>605</ele>
        <time>2019-03-23T13:13:56Z</time>
      </trkpt>
      <trkpt lat="44.31452" lon="5.79507">
        <ele>605</ele>
        <time>2019-03-23T13:13:57Z</time>
      </trkpt>
      <trkpt lat="44.31455" lon="5.79495">
        <ele>604</ele>
        <time>2019-03-23T13:13:58Z</time>
      </trkpt>
      <trkpt lat="44.31458" lon="5.79483">
        <ele>603</ele>
        <time>2019-03-23T13:13:59Z</time>
      </trkpt>
      <trkpt lat="44.3146" lon="5.79471">
        <ele>602</ele>
        <time>2019-03-23T13:14:00Z</time>
      </trkpt>
      <trkpt lat="44.31462" lon="5.79458">
        <ele>602</ele>
        <time>2019-03-23T13:14:01Z</time>
      </trkpt>
      <trkpt lat="44.31464" lon="5.79445">
        <ele>601</ele>
        <time>2019-03-23T13:14:02Z</time>
      </trkpt>
      <trkpt lat="44.31464" lon="5.79432">
        <ele>600</ele>
        <time>2019-03-23T13:14:04Z</time>
      </trkpt>
      <trkpt lat="44.31464" lon="5.79418">
        <ele>600</ele>
        <time>2019-03-23T13:14:04Z</time>
      </trkpt>
      <trkpt lat="44.31463" lon="5.79405">
        <ele>599</ele>
        <time>2019-03-23T13:14:05Z</time>
      </trkpt>
      <trkpt lat="44.31462" lon="5.79392">
        <ele>598</ele>
        <time>2019-03-23T13:14:06Z</time>
      </trkpt>
      <trkpt lat="44.31461" lon="5.79379">
        <ele>598</ele>
        <time>2019-03-23T13:14:07Z</time>
      </trkpt>
      <trkpt lat="44.31459" lon="5.79365">
        <ele>597</ele>
        <time>2019-03-23T13:14:08Z</time>
      </trkpt>
      <trkpt lat="44.31459" lon="5.79352">
        <ele>596</ele>
        <time>2019-03-23T13:14:09Z</time>
      </trkpt>
      <trkpt lat="44.31459" lon="5.79339">
        <ele>596</ele>
        <time>2019-03-23T13:14:10Z</time>
      </trkpt>
      <trkpt lat="44.31459" lon="5.79326">
        <ele>595</ele>
        <time>2019-03-23T13:14:11Z</time>
      </trkpt>
      <trkpt lat="44.31461" lon="5.79312">
        <ele>595</ele>
        <time>2019-03-23T13:14:12Z</time>
      </trkpt>
      <trkpt lat="44.31463" lon="5.79298">
        <ele>594</ele>
        <time>2019-03-23T13:14:13Z</time>
      </trkpt>
      <trkpt lat="44.31466" lon="5.79284">
        <ele>593</ele>
        <time>2019-03-23T13:14:14Z</time>
      </trkpt>
      <trkpt lat="44.31469" lon="5.7927">
        <ele>593</ele>
        <time>2019-03-23T13:14:15Z</time>
      </trkpt>
      <trkpt lat="44.31472" lon="5.79256">
        <ele>592</ele>
        <time>2019-03-23T13:14:16Z</time>
      </trkpt>
      <trkpt lat="44.31475" lon="5.79242">
        <ele>592</ele>
        <time>2019-03-23T13:14:17Z</time>
      </trkpt>
      <trkpt lat="44.3148" lon="5.79228">
        <ele>591</ele>
        <time>2019-03-23T13:14:18Z</time>
      </trkpt>
      <trkpt lat="44.31485" lon="5.79216">
        <ele>591</ele>
        <time>2019-03-23T13:14:19Z</time>
      </trkpt>
      <trkpt lat="44.31491" lon="5.79205">
        <ele>590</ele>
        <time>2019-03-23T13:14:20Z</time>
      </trkpt>
      <trkpt lat="44.31497" lon="5.79193">
        <ele>590</ele>
        <time>2019-03-23T13:14:21Z</time>
      </trkpt>
      <trkpt lat="44.31503" lon="5.79181">
        <ele>589</ele>
        <time>2019-03-23T13:14:22Z</time>
      </trkpt>
      <trkpt lat="44.31508" lon="5.79169">
        <ele>589</ele>
        <time>2019-03-23T13:14:23Z</time>
      </trkpt>
      <trkpt lat="44.31512" lon="5.79156">
        <ele>588</ele>
        <time>2019-03-23T13:14:24Z</time>
      </trkpt>
      <trkpt lat="44.31517" lon="5.79143">
        <ele>588</ele>
        <time>2019-03-23T13:14:25Z</time>
      </trkpt>
      <trkpt lat="44.3152" lon="5.7913">
        <ele>588</ele>
        <time>2019-03-23T13:14:26Z</time>
      </trkpt>
      <trkpt lat="44.31524" lon="5.79117">
        <ele>587</ele>
        <time>2019-03-23T13:14:28Z</time>
      </trkpt>
      <trkpt lat="44.31528" lon="5.79105">
        <ele>587</ele>
        <time>2019-03-23T13:14:28Z</time>
      </trkpt>
      <trkpt lat="44.31532" lon="5.79093">
        <ele>587</ele>
        <time>2019-03-23T13:14:29Z</time>
      </trkpt>
      <trkpt lat="44.31535" lon="5.79081">
        <ele>587</ele>
        <time>2019-03-23T13:14:30Z</time>
      </trkpt>
      <trkpt lat="44.3154" lon="5.7907">
        <ele>587</ele>
        <time>2019-03-23T13:14:31Z</time>
      </trkpt>
      <trkpt lat="44.31543" lon="5.7906">
        <ele>587</ele>
        <time>2019-03-23T13:14:32Z</time>
      </trkpt>
      <trkpt lat="44.31548" lon="5.79049">
        <ele>587</ele>
        <time>2019-03-23T13:14:33Z</time>
      </trkpt>
      <trkpt lat="44.31552" lon="5.79039">
        <ele>587</ele>
        <time>2019-03-23T13:14:34Z</time>
      </trkpt>
      <trkpt lat="44.31556" lon="5.7903">
        <ele>587</ele>
        <time>2019-03-23T13:14:35Z</time>
      </trkpt>
      <trkpt lat="44.3156" lon="5.7902">
        <ele>587</ele>
        <time>2019-03-23T13:14:36Z</time>
      </trkpt>
      <trkpt lat="44.31564" lon="5.79011">
        <ele>587</ele>
        <time>2019-03-23T13:14:37Z</time>
      </trkpt>
      <trkpt lat="44.31567" lon="5.79001">
        <ele>587</ele>
        <time>2019-03-23T13:14:38Z</time>
      </trkpt>
      <trkpt lat="44.31569" lon="5.78991">
        <ele>587</ele>
        <time>2019-03-23T13:14:40Z</time>
      </trkpt>
      <trkpt lat="44.31571" lon="5.78981">
        <ele>587</ele>
        <time>2019-03-23T13:14:40Z</time>
      </trkpt>
      <trkpt lat="44.31573" lon="5.78971">
        <ele>587</ele>
        <time>2019-03-23T13:14:41Z</time>
      </trkpt>
      <trkpt lat="44.31575" lon="5.78961">
        <ele>587</ele>
        <time>2019-03-23T13:14:42Z</time>
      </trkpt>
      <trkpt lat="44.31576" lon="5.78952">
        <ele>587</ele>
        <time>2019-03-23T13:14:44Z</time>
      </trkpt>
      <trkpt lat="44.31577" lon="5.78942">
        <ele>587</ele>
        <time>2019-03-23T13:14:44Z</time>
      </trkpt>
      <trkpt lat="44.31578" lon="5.78933">
        <ele>587</ele>
        <time>2019-03-23T13:14:45Z</time>
      </trkpt>
      <trkpt lat="44.3158" lon="5.78924">
        <ele>587</ele>
        <time>2019-03-23T13:14:46Z</time>
      </trkpt>
      <trkpt lat="44.3158" lon="5.78915">
        <ele>587</ele>
        <time>2019-03-23T13:14:47Z</time>
      </trkpt>
      <trkpt lat="44.31581" lon="5.78906">
        <ele>587</ele>
        <time>2019-03-23T13:14:48Z</time>
      </trkpt>
      <trkpt lat="44.31582" lon="5.78897">
        <ele>587</ele>
        <time>2019-03-23T13:14:49Z</time>
      </trkpt>
      <trkpt lat="44.31583" lon="5.78889">
        <ele>587</ele>
        <time>2019-03-23T13:14:50Z</time>
      </trkpt>
      <trkpt lat="44.31584" lon="5.7888">
        <ele>587</ele>
        <time>2019-03-23T13:14:51Z</time>
      </trkpt>
      <trkpt lat="44.31585" lon="5.78871">
        <ele>587</ele>
        <time>2019-03-23T13:14:52Z</time>
      </trkpt>
      <trkpt lat="44.31586" lon="5.78863">
        <ele>587</ele>
        <time>2019-03-23T13:14:53Z</time>
      </trkpt>
      <trkpt lat="44.31587" lon="5.78855">
        <ele>587</ele>
        <time>2019-03-23T13:14:54Z</time>
      </trkpt>
      <trkpt lat="44.31589" lon="5.78847">
        <ele>587</ele>
        <time>2019-03-23T13:14:55Z</time>
      </trkpt>
      <trkpt lat="44.3159" lon="5.7884">
        <ele>587</ele>
        <time>2019-03-23T13:14:56Z</time>
      </trkpt>
      <trkpt lat="44.31591" lon="5.78833">
        <ele>587</ele>
        <time>2019-03-23T13:14:57Z</time>
      </trkpt>
      <trkpt lat="44.31592" lon="5.78827">
        <ele>587</ele>
        <time>2019-03-23T13:14:58Z</time>
      </trkpt>
      <trkpt lat="44.31593" lon="5.78821">
        <ele>587</ele>
        <time>2019-03-23T13:14:59Z</time>
      </trkpt>
      <trkpt lat="44.31594" lon="5.78815">
        <ele>587</ele>
        <time>2019-03-23T13:15:00Z</time>
      </trkpt>
      <trkpt lat="44.31594" lon="5.78809">
        <ele>588</ele>
        <time>2019-03-23T13:15:01Z</time>
      </trkpt>
      <trkpt lat="44.31594" lon="5.78804">
        <ele>588</ele>
        <time>2019-03-23T13:15:02Z</time>
      </trkpt>
      <trkpt lat="44.31594" lon="5.78799">
        <ele>588</ele>
        <time>2019-03-23T13:15:03Z</time>
      </trkpt>
      <trkpt lat="44.31594" lon="5.78793">
        <ele>589</ele>
        <time>2019-03-23T13:15:04Z</time>
      </trkpt>
      <trkpt lat="44.31595" lon="5.78788">
        <ele>589</ele>
        <time>2019-03-23T13:15:05Z</time>
      </trkpt>
      <trkpt lat="44.31595" lon="5.78783">
        <ele>589</ele>
        <time>2019-03-23T13:15:06Z</time>
      </trkpt>
      <trkpt lat="44.31596" lon="5.78777">
        <ele>589</ele>
        <time>2019-03-23T13:15:07Z</time>
      </trkpt>
      <trkpt lat="44.31596" lon="5.78772">
        <ele>590</ele>
        <time>2019-03-23T13:15:08Z</time>
      </trkpt>
      <trkpt lat="44.31596" lon="5.78766">
        <ele>590</ele>
        <time>2019-03-23T13:15:09Z</time>
      </trkpt>
      <trkpt lat="44.31597" lon="5.78761">
        <ele>590</ele>
        <time>2019-03-23T13:15:10Z</time>
      </trkpt>
      <trkpt lat="44.31597" lon="5.78756">
        <ele>590</ele>
        <time>2019-03-23T13:15:11Z</time>
      </trkpt>
      <trkpt lat="44.31598" lon="5.78751">
        <ele>590</ele>
        <time>2019-03-23T13:15:12Z</time>
      </trkpt>
      <trkpt lat="44.31598" lon="5.78746">
        <ele>591</ele>
        <time>2019-03-23T13:15:13Z</time>
      </trkpt>
      <trkpt lat="44.31599" lon="5.78741">
        <ele>591</ele>
        <time>2019-03-23T13:15:14Z</time>
      </trkpt>
      <trkpt lat="44.31599" lon="5.78736">
        <ele>591</ele>
        <time>2019-03-23T13:15:15Z</time>
      </trkpt>
      <trkpt lat="44.31599" lon="5.7873">
        <ele>591</ele>
        <time>2019-03-23T13:15:16Z</time>
      </trkpt>
      <trkpt lat="44.31599" lon="5.78725">
        <ele>592</ele>
        <time>2019-03-23T13:15:17Z</time>
      </trkpt>
      <trkpt lat="44.316" lon="5.7872">
        <ele>592</ele>
        <time>2019-03-23T13:15:18Z</time>
      </trkpt>
      <trkpt lat="44.316" lon="5.78714">
        <ele>592</ele>
        <time>2019-03-23T13:15:19Z</time>
      </trkpt>
      <trkpt lat="44.31601" lon="5.78709">
        <ele>592</ele>
        <time>2019-03-23T13:15:20Z</time>
      </trkpt>
      <trkpt lat="44.316" lon="5.78703">
        <ele>593</ele>
        <time>2019-03-23T13:15:21Z</time>
      </trkpt>
      <trkpt lat="44.316" lon="5.78698">
        <ele>593</ele>
        <time>2019-03-23T13:15:22Z</time>
      </trkpt>
      <trkpt lat="44.316" lon="5.78693">
        <ele>593</ele>
        <time>2019-03-23T13:15:23Z</time>
      </trkpt>
      <trkpt lat="44.316" lon="5.78688">
        <ele>594</ele>
        <time>2019-03-23T13:15:24Z</time>
      </trkpt>
      <trkpt lat="44.316" lon="5.78683">
        <ele>594</ele>
        <time>2019-03-23T13:15:25Z</time>
      </trkpt>
      <trkpt lat="44.316" lon="5.78677">
        <ele>594</ele>
        <time>2019-03-23T13:15:26Z</time>
      </trkpt>
      <trkpt lat="44.316" lon="5.78672">
        <ele>595</ele>
        <time>2019-03-23T13:15:27Z</time>
      </trkpt>
      <trkpt lat="44.31599" lon="5.78667">
        <ele>595</ele>
        <time>2019-03-23T13:15:28Z</time>
      </trkpt>
      <trkpt lat="44.31599" lon="5.78662">
        <ele>595</ele>
        <time>2019-03-23T13:15:29Z</time>
      </trkpt>
      <trkpt lat="44.31599" lon="5.78656">
        <ele>596</ele>
        <time>2019-03-23T13:15:30Z</time>
      </trkpt>
      <trkpt lat="44.31599" lon="5.78651">
        <ele>596</ele>
        <time>2019-03-23T13:15:31Z</time>
      </trkpt>
      <trkpt lat="44.31599" lon="5.78647">
        <ele>597</ele>
        <time>2019-03-23T13:15:32Z</time>
      </trkpt>
      <trkpt lat="44.31599" lon="5.78642">
        <ele>597</ele>
        <time>2019-03-23T13:15:33Z</time>
      </trkpt>
      <trkpt lat="44.31599" lon="5.78637">
        <ele>597</ele>
        <time>2019-03-23T13:15:34Z</time>
      </trkpt>
      <trkpt lat="44.31599" lon="5.78632">
        <ele>598</ele>
        <time>2019-03-23T13:15:35Z</time>
      </trkpt>
      <trkpt lat="44.31599" lon="5.78627">
        <ele>598</ele>
        <time>2019-03-23T13:15:36Z</time>
      </trkpt>
      <trkpt lat="44.31599" lon="5.78622">
        <ele>598</ele>
        <time>2019-03-23T13:15:37Z</time>
      </trkpt>
      <trkpt lat="44.31599" lon="5.78617">
        <ele>598</ele>
        <time>2019-03-23T13:15:38Z</time>
      </trkpt>
      <trkpt lat="44.31599" lon="5.78613">
        <ele>598</ele>
        <time>2019-03-23T13:15:40Z</time>
      </trkpt>
      <trkpt lat="44.31599" lon="5.78608">
        <ele>599</ele>
        <time>2019-03-23T13:15:40Z</time>
      </trkpt>
      <trkpt lat="44.31599" lon="5.78604">
        <ele>599</ele>
        <time>2019-03-23T13:15:41Z</time>
      </trkpt>
      <trkpt lat="44.316" lon="5.786">
        <ele>599</ele>
        <time>2019-03-23T13:15:42Z</time>
      </trkpt>
      <trkpt lat="44.316" lon="5.78596">
        <ele>599</ele>
        <time>2019-03-23T13:15:43Z</time>
      </trkpt>
      <trkpt lat="44.31601" lon="5.78591">
        <ele>599</ele>
        <time>2019-03-23T13:15:44Z</time>
      </trkpt>
      <trkpt lat="44.31602" lon="5.78587">
        <ele>599</ele>
        <time>2019-03-23T13:15:45Z</time>
      </trkpt>
      <trkpt lat="44.31603" lon="5.78582">
        <ele>599</ele>
        <time>2019-03-23T13:15:46Z</time>
      </trkpt>
      <trkpt lat="44.31605" lon="5.78578">
        <ele>599</ele>
        <time>2019-03-23T13:15:47Z</time>
      </trkpt>
      <trkpt lat="44.31607" lon="5.78572">
        <ele>599</ele>
        <time>2019-03-23T13:15:48Z</time>
      </trkpt>
      <trkpt lat="44.31611" lon="5.78566">
        <ele>599</ele>
        <time>2019-03-23T13:15:49Z</time>
      </trkpt>
      <trkpt lat="44.31615" lon="5.78561">
        <ele>599</ele>
        <time>2019-03-23T13:15:50Z</time>
      </trkpt>
      <trkpt lat="44.3162" lon="5.78556">
        <ele>599</ele>
        <time>2019-03-23T13:15:51Z</time>
      </trkpt>
      <trkpt lat="44.31625" lon="5.78552">
        <ele>599</ele>
        <time>2019-03-23T13:15:52Z</time>
      </trkpt>
      <trkpt lat="44.31632" lon="5.78548">
        <ele>599</ele>
        <time>2019-03-23T13:15:53Z</time>
      </trkpt>
      <trkpt lat="44.31639" lon="5.78545">
        <ele>599</ele>
        <time>2019-03-23T13:15:54Z</time>
      </trkpt>
      <trkpt lat="44.31646" lon="5.78541">
        <ele>599</ele>
        <time>2019-03-23T13:15:55Z</time>
      </trkpt>
      <trkpt lat="44.31653" lon="5.78538">
        <ele>599</ele>
        <time>2019-03-23T13:15:56Z</time>
      </trkpt>
      <trkpt lat="44.31661" lon="5.78535">
        <ele>599</ele>
        <time>2019-03-23T13:15:57Z</time>
      </trkpt>
      <trkpt lat="44.31669" lon="5.78532">
        <ele>599</ele>
        <time>2019-03-23T13:15:58Z</time>
      </trkpt>
      <trkpt lat="44.31677" lon="5.78528">
        <ele>599</ele>
        <time>2019-03-23T13:15:59Z</time>
      </trkpt>
      <trkpt lat="44.31685" lon="5.78524">
        <ele>599</ele>
        <time>2019-03-23T13:16:00Z</time>
      </trkpt>
      <trkpt lat="44.31693" lon="5.78521">
        <ele>598</ele>
        <time>2019-03-23T13:16:01Z</time>
      </trkpt>
      <trkpt lat="44.31701" lon="5.78517">
        <ele>598</ele>
        <time>2019-03-23T13:16:02Z</time>
      </trkpt>
      <trkpt lat="44.31709" lon="5.78513">
        <ele>597</ele>
        <time>2019-03-23T13:16:03Z</time>
      </trkpt>
      <trkpt lat="44.31717" lon="5.78509">
        <ele>597</ele>
        <time>2019-03-23T13:16:04Z</time>
      </trkpt>
      <trkpt lat="44.31725" lon="5.78504">
        <ele>596</ele>
        <time>2019-03-23T13:16:05Z</time>
      </trkpt>
      <trkpt lat="44.31732" lon="5.78499">
        <ele>596</ele>
        <time>2019-03-23T13:16:06Z</time>
      </trkpt>
      <trkpt lat="44.31739" lon="5.78493">
        <ele>596</ele>
        <time>2019-03-23T13:16:07Z</time>
      </trkpt>
      <trkpt lat="44.31745" lon="5.78486">
        <ele>596</ele>
        <time>2019-03-23T13:16:09Z</time>
      </trkpt>
      <trkpt lat="44.31751" lon="5.78478">
        <ele>596</ele>
        <time>2019-03-23T13:16:09Z</time>
      </trkpt>
      <trkpt lat="44.31755" lon="5.78471">
        <ele>596</ele>
        <time>2019-03-23T13:16:10Z</time>
      </trkpt>
      <trkpt lat="44.3176" lon="5.78463">
        <ele>596</ele>
        <time>2019-03-23T13:16:11Z</time>
      </trkpt>
      <trkpt lat="44.31764" lon="5.78455">
        <ele>596</ele>
        <time>2019-03-23T13:16:12Z</time>
      </trkpt>
      <trkpt lat="44.31768" lon="5.78447">
        <ele>596</ele>
        <time>2019-03-23T13:16:13Z</time>
      </trkpt>
      <trkpt lat="44.31772" lon="5.7844">
        <ele>596</ele>
        <time>2019-03-23T13:16:14Z</time>
      </trkpt>
      <trkpt lat="44.31775" lon="5.78433">
        <ele>596</ele>
        <time>2019-03-23T13:16:15Z</time>
      </trkpt>
      <trkpt lat="44.31779" lon="5.78427">
        <ele>596</ele>
        <time>2019-03-23T13:16:16Z</time>
      </trkpt>
      <trkpt lat="44.31782" lon="5.78421">
        <ele>596</ele>
        <time>2019-03-23T13:16:17Z</time>
      </trkpt>
      <trkpt lat="44.31785" lon="5.78415">
        <ele>596</ele>
        <time>2019-03-23T13:16:18Z</time>
      </trkpt>
      <trkpt lat="44.31787" lon="5.78409">
        <ele>596</ele>
        <time>2019-03-23T13:16:19Z</time>
      </trkpt>
      <trkpt lat="44.3179" lon="5.78404">
        <ele>596</ele>
        <time>2019-03-23T13:16:20Z</time>
      </trkpt>
      <trkpt lat="44.31793" lon="5.78399">
        <ele>596</ele>
        <time>2019-03-23T13:16:21Z</time>
      </trkpt>
      <trkpt lat="44.31797" lon="5.78394">
        <ele>596</ele>
        <time>2019-03-23T13:16:22Z</time>
      </trkpt>
      <trkpt lat="44.31799" lon="5.78389">
        <ele>596</ele>
        <time>2019-03-23T13:16:23Z</time>
      </trkpt>
      <trkpt lat="44.31802" lon="5.78382">
        <ele>596</ele>
        <time>2019-03-23T13:16:24Z</time>
      </trkpt>
      <trkpt lat="44.31805" lon="5.78375">
        <ele>596</ele>
        <time>2019-03-23T13:16:25Z</time>
      </trkpt>
      <trkpt lat="44.31809" lon="5.78368">
        <ele>596</ele>
        <time>2019-03-23T13:16:26Z</time>
      </trkpt>
      <trkpt lat="44.31813" lon="5.7836">
        <ele>595</ele>
        <time>2019-03-23T13:16:27Z</time>
      </trkpt>
      <trkpt lat="44.31815" lon="5.78351">
        <ele>595</ele>
        <time>2019-03-23T13:16:28Z</time>
      </trkpt>
      <trkpt lat="44.31817" lon="5.7834">
        <ele>595</ele>
        <time>2019-03-23T13:16:29Z</time>
      </trkpt>
      <trkpt lat="44.31817" lon="5.78329">
        <ele>594</ele>
        <time>2019-03-23T13:16:30Z</time>
      </trkpt>
      <trkpt lat="44.31816" lon="5.78318">
        <ele>594</ele>
        <time>2019-03-23T13:16:31Z</time>
      </trkpt>
      <trkpt lat="44.31814" lon="5.78306">
        <ele>593</ele>
        <time>2019-03-23T13:16:32Z</time>
      </trkpt>
      <trkpt lat="44.31813" lon="5.78296">
        <ele>593</ele>
        <time>2019-03-23T13:16:33Z</time>
      </trkpt>
      <trkpt lat="44.31813" lon="5.78286">
        <ele>592</ele>
        <time>2019-03-23T13:16:34Z</time>
      </trkpt>
      <trkpt lat="44.31816" lon="5.78277">
        <ele>591</ele>
        <time>2019-03-23T13:16:35Z</time>
      </trkpt>
      <trkpt lat="44.3182" lon="5.7827">
        <ele>591</ele>
        <time>2019-03-23T13:16:36Z</time>
      </trkpt>
      <trkpt lat="44.31824" lon="5.78265">
        <ele>590</ele>
        <time>2019-03-23T13:16:37Z</time>
      </trkpt>
      <trkpt lat="44.31829" lon="5.78264">
        <ele>590</ele>
        <time>2019-03-23T13:16:38Z</time>
      </trkpt>
      <trkpt lat="44.31835" lon="5.78264">
        <ele>590</ele>
        <time>2019-03-23T13:16:40Z</time>
      </trkpt>
      <trkpt lat="44.31841" lon="5.78268">
        <ele>590</ele>
        <time>2019-03-23T13:16:40Z</time>
      </trkpt>
      <trkpt lat="44.31846" lon="5.78273">
        <ele>590</ele>
        <time>2019-03-23T13:16:41Z</time>
      </trkpt>
      <trkpt lat="44.31851" lon="5.78276">
        <ele>590</ele>
        <time>2019-03-23T13:16:42Z</time>
      </trkpt>
      <trkpt lat="44.31856" lon="5.78278">
        <ele>590</ele>
        <time>2019-03-23T13:16:43Z</time>
      </trkpt>
      <trkpt lat="44.31861" lon="5.7828">
        <ele>590</ele>
        <time>2019-03-23T13:16:44Z</time>
      </trkpt>
      <trkpt lat="44.31865" lon="5.78282">
        <ele>590</ele>
        <time>2019-03-23T13:16:45Z</time>
      </trkpt>
      <trkpt lat="44.31868" lon="5.78285">
        <ele>590</ele>
        <time>2019-03-23T13:16:46Z</time>
      </trkpt>
      <trkpt lat="44.31871" lon="5.78286">
        <ele>590</ele>
        <time>2019-03-23T13:16:47Z</time>
      </trkpt>
      <trkpt lat="44.31874" lon="5.78288">
        <ele>590</ele>
        <time>2019-03-23T13:16:48Z</time>
      </trkpt>
      <trkpt lat="44.31879" lon="5.78289">
        <ele>590</ele>
        <time>2019-03-23T13:16:49Z</time>
      </trkpt>
      <trkpt lat="44.31882" lon="5.7829">
        <ele>590</ele>
        <time>2019-03-23T13:16:50Z</time>
      </trkpt>
      <trkpt lat="44.31886" lon="5.78293">
        <ele>590</ele>
        <time>2019-03-23T13:16:51Z</time>
      </trkpt>
      <trkpt lat="44.31888" lon="5.78295">
        <ele>590</ele>
        <time>2019-03-23T13:16:52Z</time>
      </trkpt>
      <trkpt lat="44.31891" lon="5.78297">
        <ele>590</ele>
        <time>2019-03-23T13:16:53Z</time>
      </trkpt>
      <trkpt lat="44.31895" lon="5.78299">
        <ele>590</ele>
        <time>2019-03-23T13:16:54Z</time>
      </trkpt>
      <trkpt lat="44.319" lon="5.783">
        <ele>590</ele>
        <time>2019-03-23T13:16:55Z</time>
      </trkpt>
      <trkpt lat="44.31905" lon="5.78301">
        <ele>590</ele>
        <time>2019-03-23T13:16:56Z</time>
      </trkpt>
      <trkpt lat="44.31908" lon="5.78303">
        <ele>591</ele>
        <time>2019-03-23T13:16:57Z</time>
      </trkpt>
      <trkpt lat="44.31911" lon="5.78305">
        <ele>592</ele>
        <time>2019-03-23T13:16:58Z</time>
      </trkpt>
      <trkpt lat="44.31914" lon="5.78306">
        <ele>593</ele>
        <time>2019-03-23T13:16:59Z</time>
      </trkpt>
      <trkpt lat="44.31918" lon="5.78307">
        <ele>593</ele>
        <time>2019-03-23T13:17:00Z</time>
      </trkpt>
      <trkpt lat="44.31921" lon="5.78308">
        <ele>593</ele>
        <time>2019-03-23T13:17:01Z</time>
      </trkpt>
      <trkpt lat="44.31924" lon="5.78308">
        <ele>593</ele>
        <time>2019-03-23T13:17:02Z</time>
      </trkpt>
      <trkpt lat="44.31927" lon="5.78309">
        <ele>593</ele>
        <time>2019-03-23T13:17:03Z</time>
      </trkpt>
      <trkpt lat="44.31931" lon="5.7831">
        <ele>593</ele>
        <time>2019-03-23T13:17:04Z</time>
      </trkpt>
      <trkpt lat="44.31934" lon="5.78311">
        <ele>593</ele>
        <time>2019-03-23T13:17:05Z</time>
      </trkpt>
      <trkpt lat="44.31938" lon="5.78311">
        <ele>593</ele>
        <time>2019-03-23T13:17:06Z</time>
      </trkpt>
      <trkpt lat="44.31942" lon="5.7831">
        <ele>593</ele>
        <time>2019-03-23T13:17:07Z</time>
      </trkpt>
      <trkpt lat="44.31946" lon="5.78309">
        <ele>593</ele>
        <time>2019-03-23T13:17:08Z</time>
      </trkpt>
      <trkpt lat="44.3195" lon="5.78307">
        <ele>593</ele>
        <time>2019-03-23T13:17:09Z</time>
      </trkpt>
      <trkpt lat="44.31953" lon="5.78306">
        <ele>593</ele>
        <time>2019-03-23T13:17:10Z</time>
      </trkpt>
      <trkpt lat="44.31956" lon="5.78304">
        <ele>594</ele>
        <time>2019-03-23T13:17:11Z</time>
      </trkpt>
      <trkpt lat="44.3196" lon="5.78301">
        <ele>594</ele>
        <time>2019-03-23T13:17:12Z</time>
      </trkpt>
      <trkpt lat="44.31963" lon="5.78299">
        <ele>594</ele>
        <time>2019-03-23T13:17:13Z</time>
      </trkpt>
      <trkpt lat="44.31966" lon="5.78296">
        <ele>594</ele>
        <time>2019-03-23T13:17:14Z</time>
      </trkpt>
      <trkpt lat="44.3197" lon="5.78293">
        <ele>594</ele>
        <time>2019-03-23T13:17:15Z</time>
      </trkpt>
      <trkpt lat="44.31974" lon="5.7829">
        <ele>595</ele>
        <time>2019-03-23T13:17:16Z</time>
      </trkpt>
      <trkpt lat="44.31977" lon="5.78287">
        <ele>595</ele>
        <time>2019-03-23T13:17:17Z</time>
      </trkpt>
      <trkpt lat="44.31981" lon="5.78284">
        <ele>595</ele>
        <time>2019-03-23T13:17:18Z</time>
      </trkpt>
      <trkpt lat="44.31985" lon="5.7828">
        <ele>595</ele>
        <time>2019-03-23T13:17:19Z</time>
      </trkpt>
      <trkpt lat="44.31989" lon="5.78277">
        <ele>595</ele>
        <time>2019-03-23T13:17:20Z</time>
      </trkpt>
      <trkpt lat="44.31992" lon="5.78273">
        <ele>595</ele>
        <time>2019-03-23T13:17:21Z</time>
      </trkpt>
      <trkpt lat="44.31997" lon="5.7827">
        <ele>595</ele>
        <time>2019-03-23T13:17:22Z</time>
      </trkpt>
      <trkpt lat="44.32" lon="5.78266">
        <ele>595</ele>
        <time>2019-03-23T13:17:23Z</time>
      </trkpt>
      <trkpt lat="44.32005" lon="5.78263">
        <ele>595</ele>
        <time>2019-03-23T13:17:24Z</time>
      </trkpt>
      <trkpt lat="44.32009" lon="5.78259">
        <ele>595</ele>
        <time>2019-03-23T13:17:25Z</time>
      </trkpt>
      <trkpt lat="44.32013" lon="5.78255">
        <ele>595</ele>
        <time>2019-03-23T13:17:26Z</time>
      </trkpt>
      <trkpt lat="44.32017" lon="5.78251">
        <ele>595</ele>
        <time>2019-03-23T13:17:27Z</time>
      </trkpt>
      <trkpt lat="44.32021" lon="5.78247">
        <ele>595</ele>
        <time>2019-03-23T13:17:28Z</time>
      </trkpt>
      <trkpt lat="44.32025" lon="5.78243">
        <ele>595</ele>
        <time>2019-03-23T13:17:29Z</time>
      </trkpt>
      <trkpt lat="44.32029" lon="5.78238">
        <ele>595</ele>
        <time>2019-03-23T13:17:30Z</time>
      </trkpt>
      <trkpt lat="44.32033" lon="5.78234">
        <ele>595</ele>
        <time>2019-03-23T13:17:31Z</time>
      </trkpt>
      <trkpt lat="44.32037" lon="5.7823">
        <ele>595</ele>
        <time>2019-03-23T13:17:32Z</time>
      </trkpt>
      <trkpt lat="44.32041" lon="5.78226">
        <ele>595</ele>
        <time>2019-03-23T13:17:33Z</time>
      </trkpt>
      <trkpt lat="44.32045" lon="5.78222">
        <ele>595</ele>
        <time>2019-03-23T13:17:34Z</time>
      </trkpt>
      <trkpt lat="44.32049" lon="5.78218">
        <ele>595</ele>
        <time>2019-03-23T13:17:35Z</time>
      </trkpt>
      <trkpt lat="44.32053" lon="5.78213">
        <ele>595</ele>
        <time>2019-03-23T13:17:36Z</time>
      </trkpt>
      <trkpt lat="44.32057" lon="5.78209">
        <ele>595</ele>
        <time>2019-03-23T13:17:37Z</time>
      </trkpt>
      <trkpt lat="44.32061" lon="5.78205">
        <ele>595</ele>
        <time>2019-03-23T13:17:38Z</time>
      </trkpt>
      <trkpt lat="44.32065" lon="5.78201">
        <ele>595</ele>
        <time>2019-03-23T13:17:40Z</time>
      </trkpt>
      <trkpt lat="44.32069" lon="5.78197">
        <ele>595</ele>
        <time>2019-03-23T13:17:40Z</time>
      </trkpt>
      <trkpt lat="44.32073" lon="5.78192">
        <ele>595</ele>
        <time>2019-03-23T13:17:41Z</time>
      </trkpt>
      <trkpt lat="44.32077" lon="5.78188">
        <ele>595</ele>
        <time>2019-03-23T13:17:42Z</time>
      </trkpt>
      <trkpt lat="44.32081" lon="5.78184">
        <ele>595</ele>
        <time>2019-03-23T13:17:43Z</time>
      </trkpt>
      <trkpt lat="44.32085" lon="5.7818">
        <ele>595</ele>
        <time>2019-03-23T13:17:44Z</time>
      </trkpt>
      <trkpt lat="44.32089" lon="5.78175">
        <ele>595</ele>
        <time>2019-03-23T13:17:45Z</time>
      </trkpt>
      <trkpt lat="44.32093" lon="5.78171">
        <ele>595</ele>
        <time>2019-03-23T13:17:46Z</time>
      </trkpt>
      <trkpt lat="44.32096" lon="5.78167">
        <ele>595</ele>
        <time>2019-03-23T13:17:47Z</time>
      </trkpt>
      <trkpt lat="44.32101" lon="5.78163">
        <ele>595</ele>
        <time>2019-03-23T13:17:48Z</time>
      </trkpt>
      <trkpt lat="44.32105" lon="5.78159">
        <ele>595</ele>
        <time>2019-03-23T13:17:49Z</time>
      </trkpt>
      <trkpt lat="44.32109" lon="5.78155">
        <ele>595</ele>
        <time>2019-03-23T13:17:50Z</time>
      </trkpt>
      <trkpt lat="44.32113" lon="5.78151">
        <ele>595</ele>
        <time>2019-03-23T13:17:51Z</time>
      </trkpt>
      <trkpt lat="44.32117" lon="5.78147">
        <ele>595</ele>
        <time>2019-03-23T13:17:52Z</time>
      </trkpt>
      <trkpt lat="44.32121" lon="5.78143">
        <ele>595</ele>
        <time>2019-03-23T13:17:53Z</time>
      </trkpt>
      <trkpt lat="44.32125" lon="5.78139">
        <ele>595</ele>
        <time>2019-03-23T13:17:54Z</time>
      </trkpt>
      <trkpt lat="44.32129" lon="5.78135">
        <ele>595</ele>
        <time>2019-03-23T13:17:55Z</time>
      </trkpt>
      <trkpt lat="44.32133" lon="5.7813">
        <ele>595</ele>
        <time>2019-03-23T13:17:56Z</time>
      </trkpt>
      <trkpt lat="44.32138" lon="5.78126">
        <ele>595</ele>
        <time>2019-03-23T13:17:57Z</time>
      </trkpt>
      <trkpt lat="44.32142" lon="5.78122">
        <ele>595</ele>
        <time>2019-03-23T13:17:58Z</time>
      </trkpt>
      <trkpt lat="44.32146" lon="5.78118">
        <ele>595</ele>
        <time>2019-03-23T13:17:59Z</time>
      </trkpt>
      <trkpt lat="44.32151" lon="5.78113">
        <ele>595</ele>
        <time>2019-03-23T13:18:00Z</time>
      </trkpt>
      <trkpt lat="44.32156" lon="5.78109">
        <ele>595</ele>
        <time>2019-03-23T13:18:01Z</time>
      </trkpt>
      <trkpt lat="44.32161" lon="5.78104">
        <ele>595</ele>
        <time>2019-03-23T13:18:02Z</time>
      </trkpt>
      <trkpt lat="44.32165" lon="5.781">
        <ele>595</ele>
        <time>2019-03-23T13:18:03Z</time>
      </trkpt>
      <trkpt lat="44.3217" lon="5.78096">
        <ele>595</ele>
        <time>2019-03-23T13:18:04Z</time>
      </trkpt>
      <trkpt lat="44.32175" lon="5.78091">
        <ele>595</ele>
        <time>2019-03-23T13:18:05Z</time>
      </trkpt>
      <trkpt lat="44.32179" lon="5.78088">
        <ele>595</ele>
        <time>2019-03-23T13:18:06Z</time>
      </trkpt>
      <trkpt lat="44.32184" lon="5.78084">
        <ele>595</ele>
        <time>2019-03-23T13:18:07Z</time>
      </trkpt>
      <trkpt lat="44.32189" lon="5.7808">
        <ele>595</ele>
        <time>2019-03-23T13:18:08Z</time>
      </trkpt>
      <trkpt lat="44.32194" lon="5.78077">
        <ele>595</ele>
        <time>2019-03-23T13:18:09Z</time>
      </trkpt>
      <trkpt lat="44.32199" lon="5.78073">
        <ele>595</ele>
        <time>2019-03-23T13:18:10Z</time>
      </trkpt>
      <trkpt lat="44.32205" lon="5.7807">
        <ele>595</ele>
        <time>2019-03-23T13:18:11Z</time>
      </trkpt>
      <trkpt lat="44.3221" lon="5.78067">
        <ele>595</ele>
        <time>2019-03-23T13:18:12Z</time>
      </trkpt>
      <trkpt lat="44.32215" lon="5.78063">
        <ele>595</ele>
        <time>2019-03-23T13:18:13Z</time>
      </trkpt>
      <trkpt lat="44.3222" lon="5.7806">
        <ele>595</ele>
        <time>2019-03-23T13:18:14Z</time>
      </trkpt>
      <trkpt lat="44.32225" lon="5.78057">
        <ele>595</ele>
        <time>2019-03-23T13:18:15Z</time>
      </trkpt>
      <trkpt lat="44.32231" lon="5.78054">
        <ele>595</ele>
        <time>2019-03-23T13:18:16Z</time>
      </trkpt>
      <trkpt lat="44.32236" lon="5.78051">
        <ele>595</ele>
        <time>2019-03-23T13:18:17Z</time>
      </trkpt>
      <trkpt lat="44.32241" lon="5.78047">
        <ele>595</ele>
        <time>2019-03-23T13:18:18Z</time>
      </trkpt>
      <trkpt lat="44.32247" lon="5.78044">
        <ele>595</ele>
        <time>2019-03-23T13:18:19Z</time>
      </trkpt>
      <trkpt lat="44.32252" lon="5.78041">
        <ele>595</ele>
        <time>2019-03-23T13:18:20Z</time>
      </trkpt>
      <trkpt lat="44.32258" lon="5.78037">
        <ele>595</ele>
        <time>2019-03-23T13:18:21Z</time>
      </trkpt>
      <trkpt lat="44.32263" lon="5.78034">
        <ele>595</ele>
        <time>2019-03-23T13:18:22Z</time>
      </trkpt>
      <trkpt lat="44.32269" lon="5.7803">
        <ele>595</ele>
        <time>2019-03-23T13:18:23Z</time>
      </trkpt>
      <trkpt lat="44.32274" lon="5.78026">
        <ele>595</ele>
        <time>2019-03-23T13:18:24Z</time>
      </trkpt>
      <trkpt lat="44.3228" lon="5.78023">
        <ele>595</ele>
        <time>2019-03-23T13:18:25Z</time>
      </trkpt>
      <trkpt lat="44.32285" lon="5.7802">
        <ele>595</ele>
        <time>2019-03-23T13:18:26Z</time>
      </trkpt>
      <trkpt lat="44.32291" lon="5.78016">
        <ele>595</ele>
        <time>2019-03-23T13:18:27Z</time>
      </trkpt>
      <trkpt lat="44.32297" lon="5.78013">
        <ele>595</ele>
        <time>2019-03-23T13:18:28Z</time>
      </trkpt>
      <trkpt lat="44.32303" lon="5.78009">
        <ele>595</ele>
        <time>2019-03-23T13:18:29Z</time>
      </trkpt>
      <trkpt lat="44.32309" lon="5.78005">
        <ele>595</ele>
        <time>2019-03-23T13:18:30Z</time>
      </trkpt>
      <trkpt lat="44.32314" lon="5.78001">
        <ele>595</ele>
        <time>2019-03-23T13:18:31Z</time>
      </trkpt>
      <trkpt lat="44.3232" lon="5.77998">
        <ele>595</ele>
        <time>2019-03-23T13:18:32Z</time>
      </trkpt>
      <trkpt lat="44.32326" lon="5.77994">
        <ele>595</ele>
        <time>2019-03-23T13:18:33Z</time>
      </trkpt>
      <trkpt lat="44.32332" lon="5.7799">
        <ele>595</ele>
        <time>2019-03-23T13:18:34Z</time>
      </trkpt>
      <trkpt lat="44.32338" lon="5.77987">
        <ele>595</ele>
        <time>2019-03-23T13:18:35Z</time>
      </trkpt>
      <trkpt lat="44.32343" lon="5.77984">
        <ele>595</ele>
        <time>2019-03-23T13:18:36Z</time>
      </trkpt>
      <trkpt lat="44.32349" lon="5.7798">
        <ele>595</ele>
        <time>2019-03-23T13:18:37Z</time>
      </trkpt>
      <trkpt lat="44.32355" lon="5.77977">
        <ele>595</ele>
        <time>2019-03-23T13:18:38Z</time>
      </trkpt>
      <trkpt lat="44.32361" lon="5.77973">
        <ele>595</ele>
        <time>2019-03-23T13:18:40Z</time>
      </trkpt>
      <trkpt lat="44.32367" lon="5.7797">
        <ele>595</ele>
        <time>2019-03-23T13:18:40Z</time>
      </trkpt>
      <trkpt lat="44.32373" lon="5.77966">
        <ele>595</ele>
        <time>2019-03-23T13:18:41Z</time>
      </trkpt>
      <trkpt lat="44.3238" lon="5.77962">
        <ele>595</ele>
        <time>2019-03-23T13:18:42Z</time>
      </trkpt>
      <trkpt lat="44.32386" lon="5.77959">
        <ele>595</ele>
        <time>2019-03-23T13:18:43Z</time>
      </trkpt>
      <trkpt lat="44.32392" lon="5.77956">
        <ele>595</ele>
        <time>2019-03-23T13:18:44Z</time>
      </trkpt>
      <trkpt lat="44.32398" lon="5.77952">
        <ele>595</ele>
        <time>2019-03-23T13:18:45Z</time>
      </trkpt>
      <trkpt lat="44.32404" lon="5.77949">
        <ele>595</ele>
        <time>2019-03-23T13:18:46Z</time>
      </trkpt>
      <trkpt lat="44.3241" lon="5.77945">
        <ele>595</ele>
        <time>2019-03-23T13:18:47Z</time>
      </trkpt>
      <trkpt lat="44.32416" lon="5.77941">
        <ele>595</ele>
        <time>2019-03-23T13:18:48Z</time>
      </trkpt>
      <trkpt lat="44.32421" lon="5.77938">
        <ele>595</ele>
        <time>2019-03-23T13:18:49Z</time>
      </trkpt>
      <trkpt lat="44.32428" lon="5.77934">
        <ele>595</ele>
        <time>2019-03-23T13:18:50Z</time>
      </trkpt>
      <trkpt lat="44.32433" lon="5.7793">
        <ele>595</ele>
        <time>2019-03-23T13:18:51Z</time>
      </trkpt>
      <trkpt lat="44.3244" lon="5.77926">
        <ele>595</ele>
        <time>2019-03-23T13:18:52Z</time>
      </trkpt>
      <trkpt lat="44.32446" lon="5.77922">
        <ele>595</ele>
        <time>2019-03-23T13:18:53Z</time>
      </trkpt>
      <trkpt lat="44.32452" lon="5.77917">
        <ele>595</ele>
        <time>2019-03-23T13:18:54Z</time>
      </trkpt>
      <trkpt lat="44.32458" lon="5.77913">
        <ele>595</ele>
        <time>2019-03-23T13:18:55Z</time>
      </trkpt>
      <trkpt lat="44.32463" lon="5.77909">
        <ele>595</ele>
        <time>2019-03-23T13:18:56Z</time>
      </trkpt>
      <trkpt lat="44.32469" lon="5.77905">
        <ele>595</ele>
        <time>2019-03-23T13:18:57Z</time>
      </trkpt>
      <trkpt lat="44.32475" lon="5.779">
        <ele>595</ele>
        <time>2019-03-23T13:18:58Z</time>
      </trkpt>
      <trkpt lat="44.32481" lon="5.77895">
        <ele>595</ele>
        <time>2019-03-23T13:18:59Z</time>
      </trkpt>
      <trkpt lat="44.32486" lon="5.7789">
        <ele>595</ele>
        <time>2019-03-23T13:19:00Z</time>
      </trkpt>
      <trkpt lat="44.32492" lon="5.77885">
        <ele>595</ele>
        <time>2019-03-23T13:19:01Z</time>
      </trkpt>
      <trkpt lat="44.32497" lon="5.7788">
        <ele>595</ele>
        <time>2019-03-23T13:19:02Z</time>
      </trkpt>
      <trkpt lat="44.32502" lon="5.77875">
        <ele>595</ele>
        <time>2019-03-23T13:19:03Z</time>
      </trkpt>
      <trkpt lat="44.32508" lon="5.7787">
        <ele>595</ele>
        <time>2019-03-23T13:19:04Z</time>
      </trkpt>
      <trkpt lat="44.32513" lon="5.77865">
        <ele>595</ele>
        <time>2019-03-23T13:19:05Z</time>
      </trkpt>
      <trkpt lat="44.32518" lon="5.7786">
        <ele>595</ele>
        <time>2019-03-23T13:19:06Z</time>
      </trkpt>
      <trkpt lat="44.32523" lon="5.77855">
        <ele>595</ele>
        <time>2019-03-23T13:19:07Z</time>
      </trkpt>
      <trkpt lat="44.32529" lon="5.7785">
        <ele>595</ele>
        <time>2019-03-23T13:19:08Z</time>
      </trkpt>
      <trkpt lat="44.32534" lon="5.77845">
        <ele>595</ele>
        <time>2019-03-23T13:19:09Z</time>
      </trkpt>
      <trkpt lat="44.32539" lon="5.7784">
        <ele>595</ele>
        <time>2019-03-23T13:19:10Z</time>
      </trkpt>
      <trkpt lat="44.32545" lon="5.77835">
        <ele>595</ele>
        <time>2019-03-23T13:19:11Z</time>
      </trkpt>
      <trkpt lat="44.3255" lon="5.7783">
        <ele>595</ele>
        <time>2019-03-23T13:19:12Z</time>
      </trkpt>
      <trkpt lat="44.32556" lon="5.77825">
        <ele>595</ele>
        <time>2019-03-23T13:19:13Z</time>
      </trkpt>
      <trkpt lat="44.32562" lon="5.7782">
        <ele>595</ele>
        <time>2019-03-23T13:19:14Z</time>
      </trkpt>
      <trkpt lat="44.32568" lon="5.77815">
        <ele>595</ele>
        <time>2019-03-23T13:19:15Z</time>
      </trkpt>
      <trkpt lat="44.32574" lon="5.7781">
        <ele>595</ele>
        <time>2019-03-23T13:19:16Z</time>
      </trkpt>
      <trkpt lat="44.3258" lon="5.77805">
        <ele>595</ele>
        <time>2019-03-23T13:19:17Z</time>
      </trkpt>
      <trkpt lat="44.32586" lon="5.778">
        <ele>595</ele>
        <time>2019-03-23T13:19:18Z</time>
      </trkpt>
      <trkpt lat="44.32592" lon="5.77795">
        <ele>595</ele>
        <time>2019-03-23T13:19:19Z</time>
      </trkpt>
      <trkpt lat="44.32598" lon="5.7779">
        <ele>595</ele>
        <time>2019-03-23T13:19:20Z</time>
      </trkpt>
      <trkpt lat="44.32604" lon="5.77785">
        <ele>595</ele>
        <time>2019-03-23T13:19:21Z</time>
      </trkpt>
      <trkpt lat="44.3261" lon="5.7778">
        <ele>595</ele>
        <time>2019-03-23T13:19:22Z</time>
      </trkpt>
      <trkpt lat="44.32615" lon="5.77774">
        <ele>595</ele>
        <time>2019-03-23T13:19:23Z</time>
      </trkpt>
      <trkpt lat="44.3262" lon="5.77768">
        <ele>595</ele>
        <time>2019-03-23T13:19:24Z</time>
      </trkpt>
      <trkpt lat="44.32624" lon="5.77762">
        <ele>595</ele>
        <time>2019-03-23T13:19:25Z</time>
      </trkpt>
      <trkpt lat="44.32629" lon="5.77755">
        <ele>595</ele>
        <time>2019-03-23T13:19:26Z</time>
      </trkpt>
      <trkpt lat="44.32633" lon="5.77749">
        <ele>595</ele>
        <time>2019-03-23T13:19:27Z</time>
      </trkpt>
      <trkpt lat="44.32637" lon="5.77742">
        <ele>595</ele>
        <time>2019-03-23T13:19:28Z</time>
      </trkpt>
      <trkpt lat="44.32641" lon="5.77735">
        <ele>595</ele>
        <time>2019-03-23T13:19:29Z</time>
      </trkpt>
      <trkpt lat="44.32645" lon="5.77728">
        <ele>595</ele>
        <time>2019-03-23T13:19:30Z</time>
      </trkpt>
      <trkpt lat="44.32649" lon="5.77721">
        <ele>595</ele>
        <time>2019-03-23T13:19:31Z</time>
      </trkpt>
      <trkpt lat="44.32652" lon="5.77714">
        <ele>595</ele>
        <time>2019-03-23T13:19:32Z</time>
      </trkpt>
      <trkpt lat="44.32655" lon="5.77707">
        <ele>595</ele>
        <time>2019-03-23T13:19:33Z</time>
      </trkpt>
      <trkpt lat="44.32658" lon="5.77699">
        <ele>595</ele>
        <time>2019-03-23T13:19:34Z</time>
      </trkpt>
      <trkpt lat="44.3266" lon="5.77692">
        <ele>595</ele>
        <time>2019-03-23T13:19:35Z</time>
      </trkpt>
      <trkpt lat="44.32662" lon="5.77684">
        <ele>595</ele>
        <time>2019-03-23T13:19:36Z</time>
      </trkpt>
      <trkpt lat="44.32664" lon="5.77677">
        <ele>595</ele>
        <time>2019-03-23T13:19:37Z</time>
      </trkpt>
      <trkpt lat="44.32666" lon="5.77669">
        <ele>595</ele>
        <time>2019-03-23T13:19:38Z</time>
      </trkpt>
      <trkpt lat="44.32669" lon="5.77662">
        <ele>595</ele>
        <time>2019-03-23T13:19:40Z</time>
      </trkpt>
      <trkpt lat="44.32671" lon="5.77654">
        <ele>595</ele>
        <time>2019-03-23T13:19:40Z</time>
      </trkpt>
      <trkpt lat="44.32673" lon="5.77646">
        <ele>595</ele>
        <time>2019-03-23T13:19:41Z</time>
      </trkpt>
      <trkpt lat="44.32674" lon="5.77638">
        <ele>595</ele>
        <time>2019-03-23T13:19:42Z</time>
      </trkpt>
      <trkpt lat="44.32677" lon="5.7763">
        <ele>595</ele>
        <time>2019-03-23T13:19:43Z</time>
      </trkpt>
      <trkpt lat="44.3268" lon="5.77623">
        <ele>595</ele>
        <time>2019-03-23T13:19:44Z</time>
      </trkpt>
      <trkpt lat="44.32683" lon="5.77615">
        <ele>595</ele>
        <time>2019-03-23T13:19:45Z</time>
      </trkpt>
      <trkpt lat="44.32687" lon="5.77608">
        <ele>595</ele>
        <time>2019-03-23T13:19:46Z</time>
      </trkpt>
      <trkpt lat="44.32693" lon="5.77603">
        <ele>595</ele>
        <time>2019-03-23T13:19:47Z</time>
      </trkpt>
      <trkpt lat="44.32699" lon="5.77599">
        <ele>595</ele>
        <time>2019-03-23T13:19:48Z</time>
      </trkpt>
      <trkpt lat="44.32705" lon="5.77597">
        <ele>595</ele>
        <time>2019-03-23T13:19:49Z</time>
      </trkpt>
      <trkpt lat="44.32711" lon="5.77596">
        <ele>595</ele>
        <time>2019-03-23T13:19:50Z</time>
      </trkpt>
      <trkpt lat="44.32718" lon="5.77594">
        <ele>595</ele>
        <time>2019-03-23T13:19:51Z</time>
      </trkpt>
      <trkpt lat="44.32724" lon="5.77592">
        <ele>595</ele>
        <time>2019-03-23T13:19:52Z</time>
      </trkpt>
      <trkpt lat="44.32729" lon="5.7759">
        <ele>595</ele>
        <time>2019-03-23T13:19:53Z</time>
      </trkpt>
      <trkpt lat="44.32735" lon="5.77588">
        <ele>595</ele>
        <time>2019-03-23T13:19:54Z</time>
      </trkpt>
      <trkpt lat="44.32742" lon="5.77586">
        <ele>595</ele>
        <time>2019-03-23T13:19:55Z</time>
      </trkpt>
      <trkpt lat="44.32748" lon="5.77584">
        <ele>595</ele>
        <time>2019-03-23T13:19:56Z</time>
      </trkpt>
      <trkpt lat="44.32753" lon="5.77582">
        <ele>595</ele>
        <time>2019-03-23T13:19:57Z</time>
      </trkpt>
      <trkpt lat="44.32759" lon="5.7758">
        <ele>595</ele>
        <time>2019-03-23T13:19:58Z</time>
      </trkpt>
      <trkpt lat="44.32765" lon="5.77578">
        <ele>594</ele>
        <time>2019-03-23T13:19:59Z</time>
      </trkpt>
      <trkpt lat="44.32771" lon="5.77578">
        <ele>594</ele>
        <time>2019-03-23T13:20:00Z</time>
      </trkpt>
      <trkpt lat="44.32778" lon="5.77577">
        <ele>594</ele>
        <time>2019-03-23T13:20:01Z</time>
      </trkpt>
      <trkpt lat="44.32784" lon="5.77578">
        <ele>594</ele>
        <time>2019-03-23T13:20:02Z</time>
      </trkpt>
      <trkpt lat="44.32791" lon="5.77579">
        <ele>594</ele>
        <time>2019-03-23T13:20:03Z</time>
      </trkpt>
      <trkpt lat="44.32798" lon="5.77581">
        <ele>594</ele>
        <time>2019-03-23T13:20:04Z</time>
      </trkpt>
      <trkpt lat="44.32805" lon="5.77584">
        <ele>594</ele>
        <time>2019-03-23T13:20:05Z</time>
      </trkpt>
      <trkpt lat="44.32812" lon="5.77587">
        <ele>594</ele>
        <time>2019-03-23T13:20:06Z</time>
      </trkpt>
      <trkpt lat="44.32819" lon="5.7759">
        <ele>593</ele>
        <time>2019-03-23T13:20:07Z</time>
      </trkpt>
      <trkpt lat="44.32826" lon="5.77592">
        <ele>593</ele>
        <time>2019-03-23T13:20:08Z</time>
      </trkpt>
      <trkpt lat="44.32833" lon="5.77593">
        <ele>593</ele>
        <time>2019-03-23T13:20:09Z</time>
      </trkpt>
      <trkpt lat="44.3284" lon="5.77594">
        <ele>592</ele>
        <time>2019-03-23T13:20:10Z</time>
      </trkpt>
      <trkpt lat="44.32847" lon="5.77595">
        <ele>592</ele>
        <time>2019-03-23T13:20:11Z</time>
      </trkpt>
      <trkpt lat="44.32854" lon="5.77595">
        <ele>592</ele>
        <time>2019-03-23T13:20:12Z</time>
      </trkpt>
      <trkpt lat="44.32861" lon="5.77596">
        <ele>592</ele>
        <time>2019-03-23T13:20:13Z</time>
      </trkpt>
      <trkpt lat="44.32868" lon="5.77596">
        <ele>592</ele>
        <time>2019-03-23T13:20:14Z</time>
      </trkpt>
      <trkpt lat="44.32875" lon="5.77596">
        <ele>592</ele>
        <time>2019-03-23T13:20:15Z</time>
      </trkpt>
      <trkpt lat="44.32882" lon="5.77596">
        <ele>592</ele>
        <time>2019-03-23T13:20:16Z</time>
      </trkpt>
      <trkpt lat="44.32888" lon="5.77597">
        <ele>592</ele>
        <time>2019-03-23T13:20:17Z</time>
      </trkpt>
      <trkpt lat="44.32895" lon="5.77597">
        <ele>591</ele>
        <time>2019-03-23T13:20:18Z</time>
      </trkpt>
      <trkpt lat="44.32902" lon="5.77598">
        <ele>591</ele>
        <time>2019-03-23T13:20:19Z</time>
      </trkpt>
      <trkpt lat="44.32909" lon="5.77598">
        <ele>591</ele>
        <time>2019-03-23T13:20:20Z</time>
      </trkpt>
      <trkpt lat="44.32915" lon="5.77599">
        <ele>591</ele>
        <time>2019-03-23T13:20:21Z</time>
      </trkpt>
      <trkpt lat="44.32922" lon="5.77599">
        <ele>590</ele>
        <time>2019-03-23T13:20:22Z</time>
      </trkpt>
      <trkpt lat="44.32929" lon="5.77599">
        <ele>590</ele>
        <time>2019-03-23T13:20:23Z</time>
      </trkpt>
      <trkpt lat="44.32935" lon="5.776">
        <ele>590</ele>
        <time>2019-03-23T13:20:24Z</time>
      </trkpt>
      <trkpt lat="44.32942" lon="5.776">
        <ele>590</ele>
        <time>2019-03-23T13:20:25Z</time>
      </trkpt>
      <trkpt lat="44.32949" lon="5.77601">
        <ele>589</ele>
        <time>2019-03-23T13:20:26Z</time>
      </trkpt>
      <trkpt lat="44.32956" lon="5.77601">
        <ele>589</ele>
        <time>2019-03-23T13:20:27Z</time>
      </trkpt>
      <trkpt lat="44.32962" lon="5.77601">
        <ele>589</ele>
        <time>2019-03-23T13:20:28Z</time>
      </trkpt>
      <trkpt lat="44.3297" lon="5.77601">
        <ele>589</ele>
        <time>2019-03-23T13:20:29Z</time>
      </trkpt>
      <trkpt lat="44.32976" lon="5.77601">
        <ele>589</ele>
        <time>2019-03-23T13:20:30Z</time>
      </trkpt>
      <trkpt lat="44.32983" lon="5.77601">
        <ele>589</ele>
        <time>2019-03-23T13:20:31Z</time>
      </trkpt>
      <trkpt lat="44.3299" lon="5.77601">
        <ele>589</ele>
        <time>2019-03-23T13:20:32Z</time>
      </trkpt>
      <trkpt lat="44.32996" lon="5.776">
        <ele>589</ele>
        <time>2019-03-23T13:20:33Z</time>
      </trkpt>
      <trkpt lat="44.33003" lon="5.776">
        <ele>588</ele>
        <time>2019-03-23T13:20:34Z</time>
      </trkpt>
      <trkpt lat="44.3301" lon="5.77599">
        <ele>588</ele>
        <time>2019-03-23T13:20:35Z</time>
      </trkpt>
      <trkpt lat="44.33018" lon="5.77599">
        <ele>588</ele>
        <time>2019-03-23T13:20:36Z</time>
      </trkpt>
      <trkpt lat="44.33026" lon="5.77599">
        <ele>588</ele>
        <time>2019-03-23T13:20:37Z</time>
      </trkpt>
      <trkpt lat="44.33034" lon="5.77599">
        <ele>587</ele>
        <time>2019-03-23T13:20:38Z</time>
      </trkpt>
      <trkpt lat="44.33041" lon="5.77599">
        <ele>587</ele>
        <time>2019-03-23T13:20:40Z</time>
      </trkpt>
      <trkpt lat="44.33049" lon="5.77599">
        <ele>586</ele>
        <time>2019-03-23T13:20:40Z</time>
      </trkpt>
      <trkpt lat="44.33057" lon="5.776">
        <ele>586</ele>
        <time>2019-03-23T13:20:41Z</time>
      </trkpt>
      <trkpt lat="44.33066" lon="5.776">
        <ele>586</ele>
        <time>2019-03-23T13:20:42Z</time>
      </trkpt>
      <trkpt lat="44.33073" lon="5.776">
        <ele>586</ele>
        <time>2019-03-23T13:20:43Z</time>
      </trkpt>
      <trkpt lat="44.33081" lon="5.776">
        <ele>586</ele>
        <time>2019-03-23T13:20:44Z</time>
      </trkpt>
      <trkpt lat="44.33088" lon="5.776">
        <ele>586</ele>
        <time>2019-03-23T13:20:45Z</time>
      </trkpt>
      <trkpt lat="44.33095" lon="5.776">
        <ele>586</ele>
        <time>2019-03-23T13:20:46Z</time>
      </trkpt>
      <trkpt lat="44.33102" lon="5.776">
        <ele>586</ele>
        <time>2019-03-23T13:20:47Z</time>
      </trkpt>
      <trkpt lat="44.33109" lon="5.77599">
        <ele>586</ele>
        <time>2019-03-23T13:20:48Z</time>
      </trkpt>
      <trkpt lat="44.33116" lon="5.77598">
        <ele>586</ele>
        <time>2019-03-23T13:20:49Z</time>
      </trkpt>
      <trkpt lat="44.33123" lon="5.77596">
        <ele>586</ele>
        <time>2019-03-23T13:20:50Z</time>
      </trkpt>
      <trkpt lat="44.3313" lon="5.77592">
        <ele>586</ele>
        <time>2019-03-23T13:20:51Z</time>
      </trkpt>
      <trkpt lat="44.33136" lon="5.77589">
        <ele>586</ele>
        <time>2019-03-23T13:20:52Z</time>
      </trkpt>
      <trkpt lat="44.33142" lon="5.77585">
        <ele>586</ele>
        <time>2019-03-23T13:20:53Z</time>
      </trkpt>
      <trkpt lat="44.33148" lon="5.77581">
        <ele>586</ele>
        <time>2019-03-23T13:20:54Z</time>
      </trkpt>
      <trkpt lat="44.33154" lon="5.77577">
        <ele>586</ele>
        <time>2019-03-23T13:20:55Z</time>
      </trkpt>
      <trkpt lat="44.33159" lon="5.77572">
        <ele>586</ele>
        <time>2019-03-23T13:20:56Z</time>
      </trkpt>
      <trkpt lat="44.33165" lon="5.77568">
        <ele>586</ele>
        <time>2019-03-23T13:20:57Z</time>
      </trkpt>
      <trkpt lat="44.3317" lon="5.77564">
        <ele>586</ele>
        <time>2019-03-23T13:20:58Z</time>
      </trkpt>
      <trkpt lat="44.33176" lon="5.77561">
        <ele>586</ele>
        <time>2019-03-23T13:20:59Z</time>
      </trkpt>
      <trkpt lat="44.33182" lon="5.77556">
        <ele>586</ele>
        <time>2019-03-23T13:21:00Z</time>
      </trkpt>
      <trkpt lat="44.33187" lon="5.77551">
        <ele>586</ele>
        <time>2019-03-23T13:21:01Z</time>
      </trkpt>
      <trkpt lat="44.33192" lon="5.77546">
        <ele>586</ele>
        <time>2019-03-23T13:21:02Z</time>
      </trkpt>
      <trkpt lat="44.33198" lon="5.7754">
        <ele>586</ele>
        <time>2019-03-23T13:21:03Z</time>
      </trkpt>
      <trkpt lat="44.33202" lon="5.77533">
        <ele>586</ele>
        <time>2019-03-23T13:21:04Z</time>
      </trkpt>
      <trkpt lat="44.33207" lon="5.77527">
        <ele>586</ele>
        <time>2019-03-23T13:21:05Z</time>
      </trkpt>
      <trkpt lat="44.33213" lon="5.77522">
        <ele>586</ele>
        <time>2019-03-23T13:21:06Z</time>
      </trkpt>
      <trkpt lat="44.33218" lon="5.77517">
        <ele>586</ele>
        <time>2019-03-23T13:21:07Z</time>
      </trkpt>
      <trkpt lat="44.33224" lon="5.77513">
        <ele>586</ele>
        <time>2019-03-23T13:21:08Z</time>
      </trkpt>
      <trkpt lat="44.3323" lon="5.77509">
        <ele>586</ele>
        <time>2019-03-23T13:21:09Z</time>
      </trkpt>
      <trkpt lat="44.33236" lon="5.77507">
        <ele>586</ele>
        <time>2019-03-23T13:21:10Z</time>
      </trkpt>
      <trkpt lat="44.33242" lon="5.77505">
        <ele>586</ele>
        <time>2019-03-23T13:21:11Z</time>
      </trkpt>
      <trkpt lat="44.33248" lon="5.77504">
        <ele>586</ele>
        <time>2019-03-23T13:21:12Z</time>
      </trkpt>
      <trkpt lat="44.33254" lon="5.77503">
        <ele>586</ele>
        <time>2019-03-23T13:21:13Z</time>
      </trkpt>
      <trkpt lat="44.3326" lon="5.77502">
        <ele>586</ele>
        <time>2019-03-23T13:21:14Z</time>
      </trkpt>
      <trkpt lat="44.33266" lon="5.77501">
        <ele>586</ele>
        <time>2019-03-23T13:21:15Z</time>
      </trkpt>
      <trkpt lat="44.33272" lon="5.77501">
        <ele>586</ele>
        <time>2019-03-23T13:21:16Z</time>
      </trkpt>
      <trkpt lat="44.33278" lon="5.77501">
        <ele>586</ele>
        <time>2019-03-23T13:21:17Z</time>
      </trkpt>
      <trkpt lat="44.33284" lon="5.77501">
        <ele>586</ele>
        <time>2019-03-23T13:21:18Z</time>
      </trkpt>
      <trkpt lat="44.3329" lon="5.775">
        <ele>586</ele>
        <time>2019-03-23T13:21:19Z</time>
      </trkpt>
      <trkpt lat="44.33295" lon="5.77501">
        <ele>586</ele>
        <time>2019-03-23T13:21:20Z</time>
      </trkpt>
      <trkpt lat="44.33301" lon="5.775">
        <ele>586</ele>
        <time>2019-03-23T13:21:21Z</time>
      </trkpt>
      <trkpt lat="44.33306" lon="5.77501">
        <ele>586</ele>
        <time>2019-03-23T13:21:22Z</time>
      </trkpt>
      <trkpt lat="44.33311" lon="5.77501">
        <ele>586</ele>
        <time>2019-03-23T13:21:23Z</time>
      </trkpt>
      <trkpt lat="44.33316" lon="5.77501">
        <ele>586</ele>
        <time>2019-03-23T13:21:24Z</time>
      </trkpt>
      <trkpt lat="44.33321" lon="5.77501">
        <ele>586</ele>
        <time>2019-03-23T13:21:25Z</time>
      </trkpt>
      <trkpt lat="44.33326" lon="5.77501">
        <ele>586</ele>
        <time>2019-03-23T13:21:26Z</time>
      </trkpt>
      <trkpt lat="44.33331" lon="5.77501">
        <ele>586</ele>
        <time>2019-03-23T13:21:27Z</time>
      </trkpt>
      <trkpt lat="44.33335" lon="5.77502">
        <ele>586</ele>
        <time>2019-03-23T13:21:28Z</time>
      </trkpt>
      <trkpt lat="44.3334" lon="5.77502">
        <ele>586</ele>
        <time>2019-03-23T13:21:29Z</time>
      </trkpt>
      <trkpt lat="44.33345" lon="5.77503">
        <ele>586</ele>
        <time>2019-03-23T13:21:30Z</time>
      </trkpt>
      <trkpt lat="44.3335" lon="5.77503">
        <ele>586</ele>
        <time>2019-03-23T13:21:31Z</time>
      </trkpt>
      <trkpt lat="44.33355" lon="5.77504">
        <ele>586</ele>
        <time>2019-03-23T13:21:32Z</time>
      </trkpt>
      <trkpt lat="44.33359" lon="5.77505">
        <ele>586</ele>
        <time>2019-03-23T13:21:33Z</time>
      </trkpt>
      <trkpt lat="44.33364" lon="5.77506">
        <ele>586</ele>
        <time>2019-03-23T13:21:34Z</time>
      </trkpt>
      <trkpt lat="44.33368" lon="5.77507">
        <ele>586</ele>
        <time>2019-03-23T13:21:35Z</time>
      </trkpt>
      <trkpt lat="44.33372" lon="5.77508">
        <ele>586</ele>
        <time>2019-03-23T13:21:36Z</time>
      </trkpt>
      <trkpt lat="44.33376" lon="5.77508">
        <ele>586</ele>
        <time>2019-03-23T13:21:37Z</time>
      </trkpt>
      <trkpt lat="44.3338" lon="5.77507">
        <ele>586</ele>
        <time>2019-03-23T13:21:38Z</time>
      </trkpt>
      <trkpt lat="44.33384" lon="5.77507">
        <ele>586</ele>
        <time>2019-03-23T13:21:40Z</time>
      </trkpt>
      <trkpt lat="44.33389" lon="5.77507">
        <ele>586</ele>
        <time>2019-03-23T13:21:40Z</time>
      </trkpt>
      <trkpt lat="44.33393" lon="5.77508">
        <ele>586</ele>
        <time>2019-03-23T13:21:41Z</time>
      </trkpt>
      <trkpt lat="44.33397" lon="5.77508">
        <ele>586</ele>
        <time>2019-03-23T13:21:42Z</time>
      </trkpt>
      <trkpt lat="44.33402" lon="5.77508">
        <ele>586</ele>
        <time>2019-03-23T13:21:43Z</time>
      </trkpt>
      <trkpt lat="44.33407" lon="5.77509">
        <ele>586</ele>
        <time>2019-03-23T13:21:44Z</time>
      </trkpt>
      <trkpt lat="44.33412" lon="5.7751">
        <ele>586</ele>
        <time>2019-03-23T13:21:45Z</time>
      </trkpt>
      <trkpt lat="44.33418" lon="5.77512">
        <ele>586</ele>
        <time>2019-03-23T13:21:46Z</time>
      </trkpt>
      <trkpt lat="44.33423" lon="5.77513">
        <ele>586</ele>
        <time>2019-03-23T13:21:47Z</time>
      </trkpt>
      <trkpt lat="44.33429" lon="5.77514">
        <ele>586</ele>
        <time>2019-03-23T13:21:48Z</time>
      </trkpt>
      <trkpt lat="44.33435" lon="5.77516">
        <ele>586</ele>
        <time>2019-03-23T13:21:49Z</time>
      </trkpt>
      <trkpt lat="44.3344" lon="5.77517">
        <ele>586</ele>
        <time>2019-03-23T13:21:50Z</time>
      </trkpt>
      <trkpt lat="44.33446" lon="5.77518">
        <ele>586</ele>
        <time>2019-03-23T13:21:51Z</time>
      </trkpt>
      <trkpt lat="44.33452" lon="5.77519">
        <ele>586</ele>
        <time>2019-03-23T13:21:52Z</time>
      </trkpt>
      <trkpt lat="44.33458" lon="5.77521">
        <ele>586</ele>
        <time>2019-03-23T13:21:53Z</time>
      </trkpt>
      <trkpt lat="44.33465" lon="5.77522">
        <ele>586</ele>
        <time>2019-03-23T13:21:54Z</time>
      </trkpt>
      <trkpt lat="44.33471" lon="5.77523">
        <ele>586</ele>
        <time>2019-03-23T13:21:55Z</time>
      </trkpt>
      <trkpt lat="44.33477" lon="5.77525">
        <ele>586</ele>
        <time>2019-03-23T13:21:56Z</time>
      </trkpt>
      <trkpt lat="44.33484" lon="5.77527">
        <ele>586</ele>
        <time>2019-03-23T13:21:57Z</time>
      </trkpt>
      <trkpt lat="44.3349" lon="5.77528">
        <ele>586</ele>
        <time>2019-03-23T13:21:58Z</time>
      </trkpt>
      <trkpt lat="44.33497" lon="5.77529">
        <ele>586</ele>
        <time>2019-03-23T13:21:59Z</time>
      </trkpt>
      <trkpt lat="44.33503" lon="5.7753">
        <ele>586</ele>
        <time>2019-03-23T13:22:00Z</time>
      </trkpt>
      <trkpt lat="44.33509" lon="5.77531">
        <ele>586</ele>
        <time>2019-03-23T13:22:01Z</time>
      </trkpt>
      <trkpt lat="44.33516" lon="5.77532">
        <ele>586</ele>
        <time>2019-03-23T13:22:02Z</time>
      </trkpt>
      <trkpt lat="44.33522" lon="5.77534">
        <ele>586</ele>
        <time>2019-03-23T13:22:03Z</time>
      </trkpt>
      <trkpt lat="44.33527" lon="5.77535">
        <ele>586</ele>
        <time>2019-03-23T13:22:04Z</time>
      </trkpt>
      <trkpt lat="44.33534" lon="5.77536">
        <ele>586</ele>
        <time>2019-03-23T13:22:05Z</time>
      </trkpt>
      <trkpt lat="44.33539" lon="5.77537">
        <ele>586</ele>
        <time>2019-03-23T13:22:06Z</time>
      </trkpt>
      <trkpt lat="44.33544" lon="5.77538">
        <ele>586</ele>
        <time>2019-03-23T13:22:07Z</time>
      </trkpt>
      <trkpt lat="44.33549" lon="5.77539">
        <ele>586</ele>
        <time>2019-03-23T13:22:08Z</time>
      </trkpt>
      <trkpt lat="44.33553" lon="5.77541">
        <ele>586</ele>
        <time>2019-03-23T13:22:09Z</time>
      </trkpt>
      <trkpt lat="44.33558" lon="5.77542">
        <ele>587</ele>
        <time>2019-03-23T13:22:10Z</time>
      </trkpt>
      <trkpt lat="44.33562" lon="5.77543">
        <ele>587</ele>
        <time>2019-03-23T13:22:11Z</time>
      </trkpt>
      <trkpt lat="44.33567" lon="5.77543">
        <ele>588</ele>
        <time>2019-03-23T13:22:12Z</time>
      </trkpt>
      <trkpt lat="44.33571" lon="5.77543">
        <ele>588</ele>
        <time>2019-03-23T13:22:13Z</time>
      </trkpt>
      <trkpt lat="44.33575" lon="5.77542">
        <ele>589</ele>
        <time>2019-03-23T13:22:14Z</time>
      </trkpt>
      <trkpt lat="44.33579" lon="5.77541">
        <ele>589</ele>
        <time>2019-03-23T13:22:15Z</time>
      </trkpt>
      <trkpt lat="44.33583" lon="5.7754">
        <ele>589</ele>
        <time>2019-03-23T13:22:16Z</time>
      </trkpt>
      <trkpt lat="44.33587" lon="5.77537">
        <ele>590</ele>
        <time>2019-03-23T13:22:17Z</time>
      </trkpt>
      <trkpt lat="44.3359" lon="5.77533">
        <ele>590</ele>
        <time>2019-03-23T13:22:18Z</time>
      </trkpt>
      <trkpt lat="44.33593" lon="5.7753">
        <ele>590</ele>
        <time>2019-03-23T13:22:19Z</time>
      </trkpt>
      <trkpt lat="44.33597" lon="5.77526">
        <ele>591</ele>
        <time>2019-03-23T13:22:20Z</time>
      </trkpt>
      <trkpt lat="44.33599" lon="5.77523">
        <ele>591</ele>
        <time>2019-03-23T13:22:21Z</time>
      </trkpt>
      <trkpt lat="44.33601" lon="5.77519">
        <ele>592</ele>
        <time>2019-03-23T13:22:22Z</time>
      </trkpt>
      <trkpt lat="44.33604" lon="5.77516">
        <ele>592</ele>
        <time>2019-03-23T13:22:23Z</time>
      </trkpt>
      <trkpt lat="44.33606" lon="5.77513">
        <ele>593</ele>
        <time>2019-03-23T13:22:24Z</time>
      </trkpt>
      <trkpt lat="44.33609" lon="5.7751">
        <ele>593</ele>
        <time>2019-03-23T13:22:25Z</time>
      </trkpt>
      <trkpt lat="44.33612" lon="5.77508">
        <ele>593</ele>
        <time>2019-03-23T13:22:26Z</time>
      </trkpt>
      <trkpt lat="44.33616" lon="5.77507">
        <ele>593</ele>
        <time>2019-03-23T13:22:27Z</time>
      </trkpt>
      <trkpt lat="44.33618" lon="5.77507">
        <ele>594</ele>
        <time>2019-03-23T13:22:28Z</time>
      </trkpt>
      <trkpt lat="44.33621" lon="5.77507">
        <ele>594</ele>
        <time>2019-03-23T13:22:29Z</time>
      </trkpt>
      <trkpt lat="44.33624" lon="5.77508">
        <ele>594</ele>
        <time>2019-03-23T13:22:30Z</time>
      </trkpt>
      <trkpt lat="44.33628" lon="5.77509">
        <ele>594</ele>
        <time>2019-03-23T13:22:31Z</time>
      </trkpt>
      <trkpt lat="44.33631" lon="5.7751">
        <ele>595</ele>
        <time>2019-03-23T13:22:32Z</time>
      </trkpt>
      <trkpt lat="44.33634" lon="5.77512">
        <ele>595</ele>
        <time>2019-03-23T13:22:33Z</time>
      </trkpt>
      <trkpt lat="44.33638" lon="5.77513">
        <ele>595</ele>
        <time>2019-03-23T13:22:34Z</time>
      </trkpt>
      <trkpt lat="44.33641" lon="5.77514">
        <ele>596</ele>
        <time>2019-03-23T13:22:35Z</time>
      </trkpt>
      <trkpt lat="44.33644" lon="5.77516">
        <ele>596</ele>
        <time>2019-03-23T13:22:36Z</time>
      </trkpt>
      <trkpt lat="44.33647" lon="5.77517">
        <ele>597</ele>
        <time>2019-03-23T13:22:37Z</time>
      </trkpt>
      <trkpt lat="44.3365" lon="5.77517">
        <ele>597</ele>
        <time>2019-03-23T13:22:38Z</time>
      </trkpt>
      <trkpt lat="44.33654" lon="5.77518">
        <ele>598</ele>
        <time>2019-03-23T13:22:40Z</time>
      </trkpt>
      <trkpt lat="44.33656" lon="5.77519">
        <ele>599</ele>
        <time>2019-03-23T13:22:40Z</time>
      </trkpt>
      <trkpt lat="44.33659" lon="5.7752">
        <ele>599</ele>
        <time>2019-03-23T13:22:41Z</time>
      </trkpt>
      <trkpt lat="44.33662" lon="5.77521">
        <ele>600</ele>
        <time>2019-03-23T13:22:42Z</time>
      </trkpt>
      <trkpt lat="44.33665" lon="5.77522">
        <ele>600</ele>
        <time>2019-03-23T13:22:43Z</time>
      </trkpt>
      <trkpt lat="44.33668" lon="5.77523">
        <ele>600</ele>
        <time>2019-03-23T13:22:44Z</time>
      </trkpt>
      <trkpt lat="44.33671" lon="5.77525">
        <ele>601</ele>
        <time>2019-03-23T13:22:45Z</time>
      </trkpt>
      <trkpt lat="44.33675" lon="5.77526">
        <ele>601</ele>
        <time>2019-03-23T13:22:46Z</time>
      </trkpt>
      <trkpt lat="44.33678" lon="5.77526">
        <ele>601</ele>
        <time>2019-03-23T13:22:47Z</time>
      </trkpt>
      <trkpt lat="44.3368" lon="5.77527">
        <ele>602</ele>
        <time>2019-03-23T13:22:48Z</time>
      </trkpt>
      <trkpt lat="44.33683" lon="5.77528">
        <ele>602</ele>
        <time>2019-03-23T13:22:49Z</time>
      </trkpt>
      <trkpt lat="44.33686" lon="5.77529">
        <ele>603</ele>
        <time>2019-03-23T13:22:50Z</time>
      </trkpt>
      <trkpt lat="44.33689" lon="5.7753">
        <ele>603</ele>
        <time>2019-03-23T13:22:51Z</time>
      </trkpt>
      <trkpt lat="44.33692" lon="5.77531">
        <ele>603</ele>
        <time>2019-03-23T13:22:52Z</time>
      </trkpt>
      <trkpt lat="44.33695" lon="5.77532">
        <ele>604</ele>
        <time>2019-03-23T13:22:53Z</time>
      </trkpt>
      <trkpt lat="44.33698" lon="5.77533">
        <ele>604</ele>
        <time>2019-03-23T13:22:54Z</time>
      </trkpt>
      <trkpt lat="44.33701" lon="5.77533">
        <ele>604</ele>
        <time>2019-03-23T13:22:55Z</time>
      </trkpt>
      <trkpt lat="44.33705" lon="5.77534">
        <ele>604</ele>
        <time>2019-03-23T13:22:56Z</time>
      </trkpt>
      <trkpt lat="44.33708" lon="5.77536">
        <ele>605</ele>
        <time>2019-03-23T13:22:57Z</time>
      </trkpt>
      <trkpt lat="44.33711" lon="5.77537">
        <ele>605</ele>
        <time>2019-03-23T13:22:58Z</time>
      </trkpt>
      <trkpt lat="44.33714" lon="5.77538">
        <ele>605</ele>
        <time>2019-03-23T13:22:59Z</time>
      </trkpt>
      <trkpt lat="44.33717" lon="5.77539">
        <ele>606</ele>
        <time>2019-03-23T13:23:00Z</time>
      </trkpt>
      <trkpt lat="44.3372" lon="5.7754">
        <ele>606</ele>
        <time>2019-03-23T13:23:01Z</time>
      </trkpt>
      <trkpt lat="44.33723" lon="5.77541">
        <ele>607</ele>
        <time>2019-03-23T13:23:02Z</time>
      </trkpt>
      <trkpt lat="44.33725" lon="5.77543">
        <ele>607</ele>
        <time>2019-03-23T13:23:03Z</time>
      </trkpt>
      <trkpt lat="44.33727" lon="5.77544">
        <ele>607</ele>
        <time>2019-03-23T13:23:04Z</time>
      </trkpt>
      <trkpt lat="44.3373" lon="5.77545">
        <ele>608</ele>
        <time>2019-03-23T13:23:05Z</time>
      </trkpt>
      <trkpt lat="44.33734" lon="5.77546">
        <ele>608</ele>
        <time>2019-03-23T13:23:06Z</time>
      </trkpt>
      <trkpt lat="44.33736" lon="5.77548">
        <ele>609</ele>
        <time>2019-03-23T13:23:07Z</time>
      </trkpt>
      <trkpt lat="44.33739" lon="5.77549">
        <ele>609</ele>
        <time>2019-03-23T13:23:08Z</time>
      </trkpt>
      <trkpt lat="44.33741" lon="5.7755">
        <ele>610</ele>
        <time>2019-03-23T13:23:09Z</time>
      </trkpt>
      <trkpt lat="44.33743" lon="5.77552">
        <ele>610</ele>
        <time>2019-03-23T13:23:10Z</time>
      </trkpt>
      <trkpt lat="44.33746" lon="5.77553">
        <ele>610</ele>
        <time>2019-03-23T13:23:11Z</time>
      </trkpt>
      <trkpt lat="44.33748" lon="5.77555">
        <ele>611</ele>
        <time>2019-03-23T13:23:12Z</time>
      </trkpt>
      <trkpt lat="44.3375" lon="5.77556">
        <ele>611</ele>
        <time>2019-03-23T13:23:13Z</time>
      </trkpt>
      <trkpt lat="44.33752" lon="5.77558">
        <ele>611</ele>
        <time>2019-03-23T13:23:14Z</time>
      </trkpt>
      <trkpt lat="44.33754" lon="5.77559">
        <ele>612</ele>
        <time>2019-03-23T13:23:15Z</time>
      </trkpt>
      <trkpt lat="44.33757" lon="5.77561">
        <ele>612</ele>
        <time>2019-03-23T13:23:16Z</time>
      </trkpt>
      <trkpt lat="44.33759" lon="5.77562">
        <ele>612</ele>
        <time>2019-03-23T13:23:17Z</time>
      </trkpt>
      <trkpt lat="44.33761" lon="5.77564">
        <ele>612</ele>
        <time>2019-03-23T13:23:18Z</time>
      </trkpt>
      <trkpt lat="44.33764" lon="5.77566">
        <ele>613</ele>
        <time>2019-03-23T13:23:19Z</time>
      </trkpt>
      <trkpt lat="44.33766" lon="5.77567">
        <ele>613</ele>
        <time>2019-03-23T13:23:20Z</time>
      </trkpt>
      <trkpt lat="44.33768" lon="5.77569">
        <ele>613</ele>
        <time>2019-03-23T13:23:21Z</time>
      </trkpt>
      <trkpt lat="44.3377" lon="5.77571">
        <ele>614</ele>
        <time>2019-03-23T13:23:22Z</time>
      </trkpt>
      <trkpt lat="44.33773" lon="5.77572">
        <ele>614</ele>
        <time>2019-03-23T13:23:23Z</time>
      </trkpt>
      <trkpt lat="44.33775" lon="5.77574">
        <ele>614</ele>
        <time>2019-03-23T13:23:24Z</time>
      </trkpt>
      <trkpt lat="44.33777" lon="5.77575">
        <ele>614</ele>
        <time>2019-03-23T13:23:25Z</time>
      </trkpt>
      <trkpt lat="44.3378" lon="5.77577">
        <ele>615</ele>
        <time>2019-03-23T13:23:26Z</time>
      </trkpt>
      <trkpt lat="44.33782" lon="5.77578">
        <ele>615</ele>
        <time>2019-03-23T13:23:27Z</time>
      </trkpt>
      <trkpt lat="44.33784" lon="5.7758">
        <ele>615</ele>
        <time>2019-03-23T13:23:28Z</time>
      </trkpt>
      <trkpt lat="44.33786" lon="5.77582">
        <ele>615</ele>
        <time>2019-03-23T13:23:29Z</time>
      </trkpt>
      <trkpt lat="44.33788" lon="5.77583">
        <ele>615</ele>
        <time>2019-03-23T13:23:30Z</time>
      </trkpt>
      <trkpt lat="44.33791" lon="5.77585">
        <ele>616</ele>
        <time>2019-03-23T13:23:31Z</time>
      </trkpt>
      <trkpt lat="44.33793" lon="5.77587">
        <ele>616</ele>
        <time>2019-03-23T13:23:32Z</time>
      </trkpt>
      <trkpt lat="44.33796" lon="5.77589">
        <ele>616</ele>
        <time>2019-03-23T13:23:33Z</time>
      </trkpt>
      <trkpt lat="44.33799" lon="5.77591">
        <ele>616</ele>
        <time>2019-03-23T13:23:34Z</time>
      </trkpt>
      <trkpt lat="44.33801" lon="5.77593">
        <ele>616</ele>
        <time>2019-03-23T13:23:35Z</time>
      </trkpt>
      <trkpt lat="44.33804" lon="5.77595">
        <ele>616</ele>
        <time>2019-03-23T13:23:36Z</time>
      </trkpt>
      <trkpt lat="44.33807" lon="5.77597">
        <ele>616</ele>
        <time>2019-03-23T13:23:37Z</time>
      </trkpt>
      <trkpt lat="44.3381" lon="5.776">
        <ele>616</ele>
        <time>2019-03-23T13:23:38Z</time>
      </trkpt>
      <trkpt lat="44.33813" lon="5.77602">
        <ele>616</ele>
        <time>2019-03-23T13:23:40Z</time>
      </trkpt>
      <trkpt lat="44.33815" lon="5.77605">
        <ele>616</ele>
        <time>2019-03-23T13:23:40Z</time>
      </trkpt>
      <trkpt lat="44.33818" lon="5.77608">
        <ele>616</ele>
        <time>2019-03-23T13:23:41Z</time>
      </trkpt>
      <trkpt lat="44.33822" lon="5.77611">
        <ele>616</ele>
        <time>2019-03-23T13:23:42Z</time>
      </trkpt>
      <trkpt lat="44.33824" lon="5.77614">
        <ele>616</ele>
        <time>2019-03-23T13:23:43Z</time>
      </trkpt>
      <trkpt lat="44.33827" lon="5.77617">
        <ele>616</ele>
        <time>2019-03-23T13:23:44Z</time>
      </trkpt>
      <trkpt lat="44.3383" lon="5.7762">
        <ele>616</ele>
        <time>2019-03-23T13:23:45Z</time>
      </trkpt>
      <trkpt lat="44.33833" lon="5.77623">
        <ele>616</ele>
        <time>2019-03-23T13:23:46Z</time>
      </trkpt>
      <trkpt lat="44.33835" lon="5.77627">
        <ele>616</ele>
        <time>2019-03-23T13:23:47Z</time>
      </trkpt>
      <trkpt lat="44.33837" lon="5.77631">
        <ele>616</ele>
        <time>2019-03-23T13:23:48Z</time>
      </trkpt>
      <trkpt lat="44.3384" lon="5.77634">
        <ele>616</ele>
        <time>2019-03-23T13:23:49Z</time>
      </trkpt>
      <trkpt lat="44.33843" lon="5.77637">
        <ele>616</ele>
        <time>2019-03-23T13:23:50Z</time>
      </trkpt>
      <trkpt lat="44.33846" lon="5.7764">
        <ele>616</ele>
        <time>2019-03-23T13:23:51Z</time>
      </trkpt>
      <trkpt lat="44.33849" lon="5.77643">
        <ele>616</ele>
        <time>2019-03-23T13:23:52Z</time>
      </trkpt>
      <trkpt lat="44.33852" lon="5.77646">
        <ele>617</ele>
        <time>2019-03-23T13:23:53Z</time>
      </trkpt>
      <trkpt lat="44.33856" lon="5.77649">
        <ele>617</ele>
        <time>2019-03-23T13:23:54Z</time>
      </trkpt>
      <trkpt lat="44.33859" lon="5.77653">
        <ele>617</ele>
        <time>2019-03-23T13:23:55Z</time>
      </trkpt>
      <trkpt lat="44.33862" lon="5.77656">
        <ele>617</ele>
        <time>2019-03-23T13:23:56Z</time>
      </trkpt>
      <trkpt lat="44.33865" lon="5.77659">
        <ele>617</ele>
        <time>2019-03-23T13:23:57Z</time>
      </trkpt>
      <trkpt lat="44.33869" lon="5.77662">
        <ele>617</ele>
        <time>2019-03-23T13:23:58Z</time>
      </trkpt>
      <trkpt lat="44.33873" lon="5.77664">
        <ele>617</ele>
        <time>2019-03-23T13:23:59Z</time>
      </trkpt>
      <trkpt lat="44.33877" lon="5.77666">
        <ele>618</ele>
        <time>2019-03-23T13:24:00Z</time>
      </trkpt>
      <trkpt lat="44.33881" lon="5.77667">
        <ele>618</ele>
        <time>2019-03-23T13:24:01Z</time>
      </trkpt>
      <trkpt lat="44.33884" lon="5.77668">
        <ele>619</ele>
        <time>2019-03-23T13:24:02Z</time>
      </trkpt>
      <trkpt lat="44.33887" lon="5.77668">
        <ele>619</ele>
        <time>2019-03-23T13:24:03Z</time>
      </trkpt>
      <trkpt lat="44.33891" lon="5.77669">
        <ele>619</ele>
        <time>2019-03-23T13:24:04Z</time>
      </trkpt>
      <trkpt lat="44.33894" lon="5.77669">
        <ele>619</ele>
        <time>2019-03-23T13:24:05Z</time>
      </trkpt>
      <trkpt lat="44.33897" lon="5.77669">
        <ele>619</ele>
        <time>2019-03-23T13:24:06Z</time>
      </trkpt>
      <trkpt lat="44.339" lon="5.77669">
        <ele>619</ele>
        <time>2019-03-23T13:24:07Z</time>
      </trkpt>
      <trkpt lat="44.33904" lon="5.77669">
        <ele>619</ele>
        <time>2019-03-23T13:24:08Z</time>
      </trkpt>
      <trkpt lat="44.33908" lon="5.77668">
        <ele>619</ele>
        <time>2019-03-23T13:24:09Z</time>
      </trkpt>
      <trkpt lat="44.33911" lon="5.77667">
        <ele>619</ele>
        <time>2019-03-23T13:24:10Z</time>
      </trkpt>
      <trkpt lat="44.33915" lon="5.77665">
        <ele>619</ele>
        <time>2019-03-23T13:24:11Z</time>
      </trkpt>
      <trkpt lat="44.33919" lon="5.77663">
        <ele>619</ele>
        <time>2019-03-23T13:24:12Z</time>
      </trkpt>
      <trkpt lat="44.33922" lon="5.7766">
        <ele>619</ele>
        <time>2019-03-23T13:24:13Z</time>
      </trkpt>
      <trkpt lat="44.33926" lon="5.77658">
        <ele>619</ele>
        <time>2019-03-23T13:24:14Z</time>
      </trkpt>
      <trkpt lat="44.3393" lon="5.77655">
        <ele>619</ele>
        <time>2019-03-23T13:24:15Z</time>
      </trkpt>
      <trkpt lat="44.33934" lon="5.77653">
        <ele>619</ele>
        <time>2019-03-23T13:24:16Z</time>
      </trkpt>
      <trkpt lat="44.33937" lon="5.7765">
        <ele>619</ele>
        <time>2019-03-23T13:24:17Z</time>
      </trkpt>
      <trkpt lat="44.3394" lon="5.77648">
        <ele>619</ele>
        <time>2019-03-23T13:24:18Z</time>
      </trkpt>
      <trkpt lat="44.33943" lon="5.77645">
        <ele>619</ele>
        <time>2019-03-23T13:24:19Z</time>
      </trkpt>
      <trkpt lat="44.33946" lon="5.77642">
        <ele>619</ele>
        <time>2019-03-23T13:24:20Z</time>
      </trkpt>
      <trkpt lat="44.33949" lon="5.77639">
        <ele>619</ele>
        <time>2019-03-23T13:24:21Z</time>
      </trkpt>
      <trkpt lat="44.33952" lon="5.77635">
        <ele>619</ele>
        <time>2019-03-23T13:24:22Z</time>
      </trkpt>
      <trkpt lat="44.33955" lon="5.77632">
        <ele>619</ele>
        <time>2019-03-23T13:24:23Z</time>
      </trkpt>
      <trkpt lat="44.33958" lon="5.77628">
        <ele>619</ele>
        <time>2019-03-23T13:24:24Z</time>
      </trkpt>
      <trkpt lat="44.3396" lon="5.77625">
        <ele>619</ele>
        <time>2019-03-23T13:24:25Z</time>
      </trkpt>
      <trkpt lat="44.33963" lon="5.77621">
        <ele>619</ele>
        <time>2019-03-23T13:24:26Z</time>
      </trkpt>
      <trkpt lat="44.33966" lon="5.77618">
        <ele>619</ele>
        <time>2019-03-23T13:24:27Z</time>
      </trkpt>
      <trkpt lat="44.33969" lon="5.77614">
        <ele>619</ele>
        <time>2019-03-23T13:24:28Z</time>
      </trkpt>
      <trkpt lat="44.33971" lon="5.7761">
        <ele>619</ele>
        <time>2019-03-23T13:24:29Z</time>
      </trkpt>
      <trkpt lat="44.33974" lon="5.77606">
        <ele>619</ele>
        <time>2019-03-23T13:24:30Z</time>
      </trkpt>
      <trkpt lat="44.33977" lon="5.77602">
        <ele>619</ele>
        <time>2019-03-23T13:24:31Z</time>
      </trkpt>
      <trkpt lat="44.33979" lon="5.77598">
        <ele>619</ele>
        <time>2019-03-23T13:24:32Z</time>
      </trkpt>
      <trkpt lat="44.33981" lon="5.77593">
        <ele>619</ele>
        <time>2019-03-23T13:24:33Z</time>
      </trkpt>
      <trkpt lat="44.33984" lon="5.77588">
        <ele>620</ele>
        <time>2019-03-23T13:24:34Z</time>
      </trkpt>
      <trkpt lat="44.33986" lon="5.77583">
        <ele>620</ele>
        <time>2019-03-23T13:24:35Z</time>
      </trkpt>
      <trkpt lat="44.33987" lon="5.77578">
        <ele>620</ele>
        <time>2019-03-23T13:24:36Z</time>
      </trkpt>
      <trkpt lat="44.33989" lon="5.77574">
        <ele>621</ele>
        <time>2019-03-23T13:24:37Z</time>
      </trkpt>
      <trkpt lat="44.33991" lon="5.77569">
        <ele>621</ele>
        <time>2019-03-23T13:24:38Z</time>
      </trkpt>
      <trkpt lat="44.33993" lon="5.77565">
        <ele>621</ele>
        <time>2019-03-23T13:24:39Z</time>
      </trkpt>
      <trkpt lat="44.33995" lon="5.77561">
        <ele>621</ele>
        <time>2019-03-23T13:24:40Z</time>
      </trkpt>
      <trkpt lat="44.33997" lon="5.77556">
        <ele>622</ele>
        <time>2019-03-23T13:24:41Z</time>
      </trkpt>
      <trkpt lat="44.33999" lon="5.77551">
        <ele>622</ele>
        <time>2019-03-23T13:24:42Z</time>
      </trkpt>
      <trkpt lat="44.34002" lon="5.77547">
        <ele>622</ele>
        <time>2019-03-23T13:24:43Z</time>
      </trkpt>
      <trkpt lat="44.34004" lon="5.77542">
        <ele>622</ele>
        <time>2019-03-23T13:24:44Z</time>
      </trkpt>
      <trkpt lat="44.34006" lon="5.77537">
        <ele>622</ele>
        <time>2019-03-23T13:24:45Z</time>
      </trkpt>
      <trkpt lat="44.34008" lon="5.77532">
        <ele>622</ele>
        <time>2019-03-23T13:24:46Z</time>
      </trkpt>
      <trkpt lat="44.34009" lon="5.77527">
        <ele>622</ele>
        <time>2019-03-23T13:24:47Z</time>
      </trkpt>
      <trkpt lat="44.34011" lon="5.77523">
        <ele>623</ele>
        <time>2019-03-23T13:24:48Z</time>
      </trkpt>
      <trkpt lat="44.34012" lon="5.77518">
        <ele>623</ele>
        <time>2019-03-23T13:24:49Z</time>
      </trkpt>
      <trkpt lat="44.34012" lon="5.77513">
        <ele>623</ele>
        <time>2019-03-23T13:24:50Z</time>
      </trkpt>
      <trkpt lat="44.34012" lon="5.77508">
        <ele>623</ele>
        <time>2019-03-23T13:24:51Z</time>
      </trkpt>
      <trkpt lat="44.34011" lon="5.77503">
        <ele>623</ele>
        <time>2019-03-23T13:24:52Z</time>
      </trkpt>
      <trkpt lat="44.3401" lon="5.77499">
        <ele>623</ele>
        <time>2019-03-23T13:24:53Z</time>
      </trkpt>
      <trkpt lat="44.34009" lon="5.77494">
        <ele>623</ele>
        <time>2019-03-23T13:24:54Z</time>
      </trkpt>
      <trkpt lat="44.34008" lon="5.7749">
        <ele>623</ele>
        <time>2019-03-23T13:24:55Z</time>
      </trkpt>
      <trkpt lat="44.34006" lon="5.77485">
        <ele>623</ele>
        <time>2019-03-23T13:24:56Z</time>
      </trkpt>
      <trkpt lat="44.34005" lon="5.7748">
        <ele>623</ele>
        <time>2019-03-23T13:24:57Z</time>
      </trkpt>
      <trkpt lat="44.34003" lon="5.77474">
        <ele>623</ele>
        <time>2019-03-23T13:24:58Z</time>
      </trkpt>
      <trkpt lat="44.34001" lon="5.77467">
        <ele>623</ele>
        <time>2019-03-23T13:24:59Z</time>
      </trkpt>
      <trkpt lat="44.33999" lon="5.7746">
        <ele>623</ele>
        <time>2019-03-23T13:25:00Z</time>
      </trkpt>
      <trkpt lat="44.33996" lon="5.77453">
        <ele>623</ele>
        <time>2019-03-23T13:25:01Z</time>
      </trkpt>
      <trkpt lat="44.33993" lon="5.77445">
        <ele>623</ele>
        <time>2019-03-23T13:25:02Z</time>
      </trkpt>
      <trkpt lat="44.3399" lon="5.77436">
        <ele>623</ele>
        <time>2019-03-23T13:25:03Z</time>
      </trkpt>
      <trkpt lat="44.33987" lon="5.77426">
        <ele>623</ele>
        <time>2019-03-23T13:25:04Z</time>
      </trkpt>
      <trkpt lat="44.33984" lon="5.77417">
        <ele>623</ele>
        <time>2019-03-23T13:25:05Z</time>
      </trkpt>
      <trkpt lat="44.33981" lon="5.77406">
        <ele>623</ele>
        <time>2019-03-23T13:25:06Z</time>
      </trkpt>
      <trkpt lat="44.3398" lon="5.77395">
        <ele>623</ele>
        <time>2019-03-23T13:25:07Z</time>
      </trkpt>
      <trkpt lat="44.33981" lon="5.77384">
        <ele>623</ele>
        <time>2019-03-23T13:25:08Z</time>
      </trkpt>
      <trkpt lat="44.33983" lon="5.77372">
        <ele>623</ele>
        <time>2019-03-23T13:25:09Z</time>
      </trkpt>
      <trkpt lat="44.33985" lon="5.7736">
        <ele>623</ele>
        <time>2019-03-23T13:25:10Z</time>
      </trkpt>
      <trkpt lat="44.33987" lon="5.77347">
        <ele>623</ele>
        <time>2019-03-23T13:25:11Z</time>
      </trkpt>
      <trkpt lat="44.33987" lon="5.77334">
        <ele>623</ele>
        <time>2019-03-23T13:25:12Z</time>
      </trkpt>
      <trkpt lat="44.33987" lon="5.7732">
        <ele>622</ele>
        <time>2019-03-23T13:25:13Z</time>
      </trkpt>
      <trkpt lat="44.33985" lon="5.77307">
        <ele>622</ele>
        <time>2019-03-23T13:25:14Z</time>
      </trkpt>
      <trkpt lat="44.33982" lon="5.77292">
        <ele>621</ele>
        <time>2019-03-23T13:25:15Z</time>
      </trkpt>
      <trkpt lat="44.3398" lon="5.77278">
        <ele>621</ele>
        <time>2019-03-23T13:25:16Z</time>
      </trkpt>
      <trkpt lat="44.33979" lon="5.77264">
        <ele>620</ele>
        <time>2019-03-23T13:25:17Z</time>
      </trkpt>
      <trkpt lat="44.33979" lon="5.77249">
        <ele>619</ele>
        <time>2019-03-23T13:25:18Z</time>
      </trkpt>
      <trkpt lat="44.33979" lon="5.77233">
        <ele>618</ele>
        <time>2019-03-23T13:25:19Z</time>
      </trkpt>
      <trkpt lat="44.33979" lon="5.77218">
        <ele>618</ele>
        <time>2019-03-23T13:25:20Z</time>
      </trkpt>
      <trkpt lat="44.3398" lon="5.77202">
        <ele>617</ele>
        <time>2019-03-23T13:25:21Z</time>
      </trkpt>
      <trkpt lat="44.33979" lon="5.77186">
        <ele>616</ele>
        <time>2019-03-23T13:25:22Z</time>
      </trkpt>
      <trkpt lat="44.33979" lon="5.7717">
        <ele>616</ele>
        <time>2019-03-23T13:25:23Z</time>
      </trkpt>
      <trkpt lat="44.33979" lon="5.77154">
        <ele>615</ele>
        <time>2019-03-23T13:25:24Z</time>
      </trkpt>
      <trkpt lat="44.33978" lon="5.77137">
        <ele>614</ele>
        <time>2019-03-23T13:25:25Z</time>
      </trkpt>
      <trkpt lat="44.33978" lon="5.77121">
        <ele>613</ele>
        <time>2019-03-23T13:25:26Z</time>
      </trkpt>
      <trkpt lat="44.33978" lon="5.77104">
        <ele>613</ele>
        <time>2019-03-23T13:25:27Z</time>
      </trkpt>
      <trkpt lat="44.33979" lon="5.77087">
        <ele>612</ele>
        <time>2019-03-23T13:25:28Z</time>
      </trkpt>
      <trkpt lat="44.33981" lon="5.77069">
        <ele>611</ele>
        <time>2019-03-23T13:25:29Z</time>
      </trkpt>
      <trkpt lat="44.33983" lon="5.77052">
        <ele>610</ele>
        <time>2019-03-23T13:25:30Z</time>
      </trkpt>
      <trkpt lat="44.33986" lon="5.77035">
        <ele>609</ele>
        <time>2019-03-23T13:25:31Z</time>
      </trkpt>
      <trkpt lat="44.33988" lon="5.77017">
        <ele>608</ele>
        <time>2019-03-23T13:25:32Z</time>
      </trkpt>
      <trkpt lat="44.33991" lon="5.77">
        <ele>607</ele>
        <time>2019-03-23T13:25:33Z</time>
      </trkpt>
      <trkpt lat="44.33994" lon="5.76982">
        <ele>606</ele>
        <time>2019-03-23T13:25:34Z</time>
      </trkpt>
      <trkpt lat="44.33996" lon="5.76964">
        <ele>605</ele>
        <time>2019-03-23T13:25:35Z</time>
      </trkpt>
      <trkpt lat="44.33998" lon="5.76947">
        <ele>604</ele>
        <time>2019-03-23T13:25:36Z</time>
      </trkpt>
      <trkpt lat="44.34" lon="5.76931">
        <ele>603</ele>
        <time>2019-03-23T13:25:37Z</time>
      </trkpt>
      <trkpt lat="44.34003" lon="5.76914">
        <ele>602</ele>
        <time>2019-03-23T13:25:38Z</time>
      </trkpt>
      <trkpt lat="44.34005" lon="5.76899">
        <ele>602</ele>
        <time>2019-03-23T13:25:39Z</time>
      </trkpt>
      <trkpt lat="44.34008" lon="5.76884">
        <ele>602</ele>
        <time>2019-03-23T13:25:40Z</time>
      </trkpt>
      <trkpt lat="44.34011" lon="5.76869">
        <ele>602</ele>
        <time>2019-03-23T13:25:41Z</time>
      </trkpt>
      <trkpt lat="44.34015" lon="5.76855">
        <ele>602</ele>
        <time>2019-03-23T13:25:42Z</time>
      </trkpt>
      <trkpt lat="44.34018" lon="5.76842">
        <ele>602</ele>
        <time>2019-03-23T13:25:44Z</time>
      </trkpt>
      <trkpt lat="44.3402" lon="5.76828">
        <ele>602</ele>
        <time>2019-03-23T13:25:44Z</time>
      </trkpt>
      <trkpt lat="44.34022" lon="5.76815">
        <ele>601</ele>
        <time>2019-03-23T13:25:45Z</time>
      </trkpt>
      <trkpt lat="44.34023" lon="5.76802">
        <ele>601</ele>
        <time>2019-03-23T13:25:46Z</time>
      </trkpt>
      <trkpt lat="44.34022" lon="5.76789">
        <ele>601</ele>
        <time>2019-03-23T13:25:47Z</time>
      </trkpt>
      <trkpt lat="44.34021" lon="5.76776">
        <ele>600</ele>
        <time>2019-03-23T13:25:48Z</time>
      </trkpt>
      <trkpt lat="44.34019" lon="5.76764">
        <ele>600</ele>
        <time>2019-03-23T13:25:49Z</time>
      </trkpt>
      <trkpt lat="44.34017" lon="5.76752">
        <ele>599</ele>
        <time>2019-03-23T13:25:50Z</time>
      </trkpt>
      <trkpt lat="44.34015" lon="5.7674">
        <ele>598</ele>
        <time>2019-03-23T13:25:51Z</time>
      </trkpt>
      <trkpt lat="44.34013" lon="5.76728">
        <ele>598</ele>
        <time>2019-03-23T13:25:52Z</time>
      </trkpt>
      <trkpt lat="44.34013" lon="5.76717">
        <ele>597</ele>
        <time>2019-03-23T13:25:53Z</time>
      </trkpt>
      <trkpt lat="44.34015" lon="5.76706">
        <ele>597</ele>
        <time>2019-03-23T13:25:54Z</time>
      </trkpt>
      <trkpt lat="44.34019" lon="5.76696">
        <ele>596</ele>
        <time>2019-03-23T13:25:55Z</time>
      </trkpt>
      <trkpt lat="44.34025" lon="5.76689">
        <ele>596</ele>
        <time>2019-03-23T13:25:56Z</time>
      </trkpt>
      <trkpt lat="44.34032" lon="5.76683">
        <ele>596</ele>
        <time>2019-03-23T13:25:57Z</time>
      </trkpt>
      <trkpt lat="44.3404" lon="5.76679">
        <ele>596</ele>
        <time>2019-03-23T13:25:58Z</time>
      </trkpt>
      <trkpt lat="44.34047" lon="5.76675">
        <ele>596</ele>
        <time>2019-03-23T13:25:59Z</time>
      </trkpt>
      <trkpt lat="44.34054" lon="5.7667">
        <ele>596</ele>
        <time>2019-03-23T13:26:00Z</time>
      </trkpt>
      <trkpt lat="44.34059" lon="5.76662">
        <ele>596</ele>
        <time>2019-03-23T13:26:01Z</time>
      </trkpt>
      <trkpt lat="44.34061" lon="5.76654">
        <ele>596</ele>
        <time>2019-03-23T13:26:02Z</time>
      </trkpt>
      <trkpt lat="44.34061" lon="5.76647">
        <ele>596</ele>
        <time>2019-03-23T13:26:03Z</time>
      </trkpt>
      <trkpt lat="44.34059" lon="5.7664">
        <ele>596</ele>
        <time>2019-03-23T13:26:04Z</time>
      </trkpt>
      <trkpt lat="44.34057" lon="5.76635">
        <ele>596</ele>
        <time>2019-03-23T13:26:05Z</time>
      </trkpt>
      <trkpt lat="44.34054" lon="5.76629">
        <ele>596</ele>
        <time>2019-03-23T13:26:06Z</time>
      </trkpt>
      <trkpt lat="44.34051" lon="5.76625">
        <ele>596</ele>
        <time>2019-03-23T13:26:07Z</time>
      </trkpt>
      <trkpt lat="44.34048" lon="5.76619">
        <ele>596</ele>
        <time>2019-03-23T13:26:08Z</time>
      </trkpt>
      <trkpt lat="44.34046" lon="5.76614">
        <ele>596</ele>
        <time>2019-03-23T13:26:09Z</time>
      </trkpt>
      <trkpt lat="44.34044" lon="5.76609">
        <ele>596</ele>
        <time>2019-03-23T13:26:10Z</time>
      </trkpt>
      <trkpt lat="44.34042" lon="5.76603">
        <ele>596</ele>
        <time>2019-03-23T13:26:11Z</time>
      </trkpt>
      <trkpt lat="44.3404" lon="5.76597">
        <ele>596</ele>
        <time>2019-03-23T13:26:12Z</time>
      </trkpt>
      <trkpt lat="44.34039" lon="5.76591">
        <ele>596</ele>
        <time>2019-03-23T13:26:13Z</time>
      </trkpt>
      <trkpt lat="44.34037" lon="5.76585">
        <ele>596</ele>
        <time>2019-03-23T13:26:14Z</time>
      </trkpt>
      <trkpt lat="44.34035" lon="5.7658">
        <ele>596</ele>
        <time>2019-03-23T13:26:15Z</time>
      </trkpt>
      <trkpt lat="44.34033" lon="5.76574">
        <ele>596</ele>
        <time>2019-03-23T13:26:16Z</time>
      </trkpt>
      <trkpt lat="44.34033" lon="5.76569">
        <ele>596</ele>
        <time>2019-03-23T13:26:17Z</time>
      </trkpt>
      <trkpt lat="44.34034" lon="5.76563">
        <ele>596</ele>
        <time>2019-03-23T13:26:18Z</time>
      </trkpt>
      <trkpt lat="44.34036" lon="5.76557">
        <ele>596</ele>
        <time>2019-03-23T13:26:19Z</time>
      </trkpt>
      <trkpt lat="44.34038" lon="5.76552">
        <ele>596</ele>
        <time>2019-03-23T13:26:20Z</time>
      </trkpt>
      <trkpt lat="44.34041" lon="5.76547">
        <ele>596</ele>
        <time>2019-03-23T13:26:21Z</time>
      </trkpt>
      <trkpt lat="44.34044" lon="5.76542">
        <ele>596</ele>
        <time>2019-03-23T13:26:22Z</time>
      </trkpt>
      <trkpt lat="44.34046" lon="5.76537">
        <ele>596</ele>
        <time>2019-03-23T13:26:23Z</time>
      </trkpt>
      <trkpt lat="44.34049" lon="5.76532">
        <ele>596</ele>
        <time>2019-03-23T13:26:24Z</time>
      </trkpt>
      <trkpt lat="44.34052" lon="5.76526">
        <ele>596</ele>
        <time>2019-03-23T13:26:25Z</time>
      </trkpt>
      <trkpt lat="44.34055" lon="5.76521">
        <ele>596</ele>
        <time>2019-03-23T13:26:26Z</time>
      </trkpt>
      <trkpt lat="44.34058" lon="5.76516">
        <ele>596</ele>
        <time>2019-03-23T13:26:27Z</time>
      </trkpt>
      <trkpt lat="44.34061" lon="5.7651">
        <ele>596</ele>
        <time>2019-03-23T13:26:28Z</time>
      </trkpt>
      <trkpt lat="44.34063" lon="5.76504">
        <ele>596</ele>
        <time>2019-03-23T13:26:29Z</time>
      </trkpt>
      <trkpt lat="44.34066" lon="5.76499">
        <ele>596</ele>
        <time>2019-03-23T13:26:30Z</time>
      </trkpt>
      <trkpt lat="44.34069" lon="5.76493">
        <ele>596</ele>
        <time>2019-03-23T13:26:31Z</time>
      </trkpt>
      <trkpt lat="44.34072" lon="5.76488">
        <ele>596</ele>
        <time>2019-03-23T13:26:32Z</time>
      </trkpt>
      <trkpt lat="44.34075" lon="5.76482">
        <ele>596</ele>
        <time>2019-03-23T13:26:33Z</time>
      </trkpt>
      <trkpt lat="44.34078" lon="5.76476">
        <ele>596</ele>
        <time>2019-03-23T13:26:34Z</time>
      </trkpt>
      <trkpt lat="44.34081" lon="5.76471">
        <ele>596</ele>
        <time>2019-03-23T13:26:35Z</time>
      </trkpt>
      <trkpt lat="44.34084" lon="5.76465">
        <ele>596</ele>
        <time>2019-03-23T13:26:36Z</time>
      </trkpt>
      <trkpt lat="44.34087" lon="5.76459">
        <ele>596</ele>
        <time>2019-03-23T13:26:37Z</time>
      </trkpt>
      <trkpt lat="44.3409" lon="5.76453">
        <ele>596</ele>
        <time>2019-03-23T13:26:38Z</time>
      </trkpt>
      <trkpt lat="44.34093" lon="5.76448">
        <ele>596</ele>
        <time>2019-03-23T13:26:40Z</time>
      </trkpt>
      <trkpt lat="44.34096" lon="5.76442">
        <ele>596</ele>
        <time>2019-03-23T13:26:40Z</time>
      </trkpt>
      <trkpt lat="44.34099" lon="5.76437">
        <ele>596</ele>
        <time>2019-03-23T13:26:41Z</time>
      </trkpt>
      <trkpt lat="44.34103" lon="5.76431">
        <ele>596</ele>
        <time>2019-03-23T13:26:42Z</time>
      </trkpt>
      <trkpt lat="44.34106" lon="5.76425">
        <ele>596</ele>
        <time>2019-03-23T13:26:43Z</time>
      </trkpt>
      <trkpt lat="44.34109" lon="5.7642">
        <ele>596</ele>
        <time>2019-03-23T13:26:44Z</time>
      </trkpt>
      <trkpt lat="44.34111" lon="5.76415">
        <ele>596</ele>
        <time>2019-03-23T13:26:45Z</time>
      </trkpt>
      <trkpt lat="44.34114" lon="5.76409">
        <ele>596</ele>
        <time>2019-03-23T13:26:46Z</time>
      </trkpt>
      <trkpt lat="44.34116" lon="5.76404">
        <ele>596</ele>
        <time>2019-03-23T13:26:47Z</time>
      </trkpt>
      <trkpt lat="44.34117" lon="5.76398">
        <ele>596</ele>
        <time>2019-03-23T13:26:48Z</time>
      </trkpt>
      <trkpt lat="44.34119" lon="5.76393">
        <ele>596</ele>
        <time>2019-03-23T13:26:49Z</time>
      </trkpt>
      <trkpt lat="44.34121" lon="5.76388">
        <ele>596</ele>
        <time>2019-03-23T13:26:50Z</time>
      </trkpt>
      <trkpt lat="44.34124" lon="5.76385">
        <ele>596</ele>
        <time>2019-03-23T13:26:51Z</time>
      </trkpt>
      <trkpt lat="44.34127" lon="5.76382">
        <ele>596</ele>
        <time>2019-03-23T13:26:52Z</time>
      </trkpt>
      <trkpt lat="44.34131" lon="5.76379">
        <ele>596</ele>
        <time>2019-03-23T13:26:53Z</time>
      </trkpt>
      <trkpt lat="44.34134" lon="5.76376">
        <ele>596</ele>
        <time>2019-03-23T13:26:54Z</time>
      </trkpt>
      <trkpt lat="44.34137" lon="5.76371">
        <ele>596</ele>
        <time>2019-03-23T13:26:55Z</time>
      </trkpt>
      <trkpt lat="44.34139" lon="5.76366">
        <ele>596</ele>
        <time>2019-03-23T13:26:56Z</time>
      </trkpt>
      <trkpt lat="44.3414" lon="5.7636">
        <ele>596</ele>
        <time>2019-03-23T13:26:57Z</time>
      </trkpt>
      <trkpt lat="44.34142" lon="5.76354">
        <ele>596</ele>
        <time>2019-03-23T13:26:58Z</time>
      </trkpt>
      <trkpt lat="44.34143" lon="5.76348">
        <ele>596</ele>
        <time>2019-03-23T13:26:59Z</time>
      </trkpt>
      <trkpt lat="44.34145" lon="5.76342">
        <ele>596</ele>
        <time>2019-03-23T13:27:00Z</time>
      </trkpt>
      <trkpt lat="44.34146" lon="5.76336">
        <ele>596</ele>
        <time>2019-03-23T13:27:01Z</time>
      </trkpt>
      <trkpt lat="44.34148" lon="5.7633">
        <ele>596</ele>
        <time>2019-03-23T13:27:02Z</time>
      </trkpt>
      <trkpt lat="44.3415" lon="5.76324">
        <ele>596</ele>
        <time>2019-03-23T13:27:03Z</time>
      </trkpt>
      <trkpt lat="44.34152" lon="5.76318">
        <ele>596</ele>
        <time>2019-03-23T13:27:04Z</time>
      </trkpt>
      <trkpt lat="44.34154" lon="5.76311">
        <ele>596</ele>
        <time>2019-03-23T13:27:05Z</time>
      </trkpt>
      <trkpt lat="44.34156" lon="5.76305">
        <ele>596</ele>
        <time>2019-03-23T13:27:06Z</time>
      </trkpt>
      <trkpt lat="44.34158" lon="5.76298">
        <ele>596</ele>
        <time>2019-03-23T13:27:07Z</time>
      </trkpt>
      <trkpt lat="44.3416" lon="5.76292">
        <ele>596</ele>
        <time>2019-03-23T13:27:08Z</time>
      </trkpt>
      <trkpt lat="44.34163" lon="5.76285">
        <ele>596</ele>
        <time>2019-03-23T13:27:09Z</time>
      </trkpt>
      <trkpt lat="44.34164" lon="5.76278">
        <ele>596</ele>
        <time>2019-03-23T13:27:10Z</time>
      </trkpt>
      <trkpt lat="44.34166" lon="5.76271">
        <ele>596</ele>
        <time>2019-03-23T13:27:11Z</time>
      </trkpt>
      <trkpt lat="44.34168" lon="5.76265">
        <ele>596</ele>
        <time>2019-03-23T13:27:12Z</time>
      </trkpt>
      <trkpt lat="44.3417" lon="5.76259">
        <ele>596</ele>
        <time>2019-03-23T13:27:13Z</time>
      </trkpt>
      <trkpt lat="44.34172" lon="5.76253">
        <ele>596</ele>
        <time>2019-03-23T13:27:14Z</time>
      </trkpt>
      <trkpt lat="44.34174" lon="5.76246">
        <ele>596</ele>
        <time>2019-03-23T13:27:15Z</time>
      </trkpt>
      <trkpt lat="44.34175" lon="5.7624">
        <ele>596</ele>
        <time>2019-03-23T13:27:16Z</time>
      </trkpt>
      <trkpt lat="44.34177" lon="5.76235">
        <ele>596</ele>
        <time>2019-03-23T13:27:17Z</time>
      </trkpt>
      <trkpt lat="44.34178" lon="5.76229">
        <ele>596</ele>
        <time>2019-03-23T13:27:18Z</time>
      </trkpt>
      <trkpt lat="44.34179" lon="5.76224">
        <ele>596</ele>
        <time>2019-03-23T13:27:19Z</time>
      </trkpt>
      <trkpt lat="44.34181" lon="5.76219">
        <ele>596</ele>
        <time>2019-03-23T13:27:20Z</time>
      </trkpt>
      <trkpt lat="44.34183" lon="5.76214">
        <ele>596</ele>
        <time>2019-03-23T13:27:21Z</time>
      </trkpt>
      <trkpt lat="44.34185" lon="5.76209">
        <ele>596</ele>
        <time>2019-03-23T13:27:22Z</time>
      </trkpt>
      <trkpt lat="44.34187" lon="5.76204">
        <ele>596</ele>
        <time>2019-03-23T13:27:23Z</time>
      </trkpt>
      <trkpt lat="44.3419" lon="5.762">
        <ele>596</ele>
        <time>2019-03-23T13:27:24Z</time>
      </trkpt>
      <trkpt lat="44.34193" lon="5.76196">
        <ele>596</ele>
        <time>2019-03-23T13:27:25Z</time>
      </trkpt>
      <trkpt lat="44.34196" lon="5.76193">
        <ele>596</ele>
        <time>2019-03-23T13:27:26Z</time>
      </trkpt>
      <trkpt lat="44.34199" lon="5.76189">
        <ele>596</ele>
        <time>2019-03-23T13:27:27Z</time>
      </trkpt>
      <trkpt lat="44.34203" lon="5.76186">
        <ele>596</ele>
        <time>2019-03-23T13:27:28Z</time>
      </trkpt>
      <trkpt lat="44.34206" lon="5.76182">
        <ele>596</ele>
        <time>2019-03-23T13:27:29Z</time>
      </trkpt>
      <trkpt lat="44.3421" lon="5.76179">
        <ele>596</ele>
        <time>2019-03-23T13:27:30Z</time>
      </trkpt>
      <trkpt lat="44.34214" lon="5.76175">
        <ele>596</ele>
        <time>2019-03-23T13:27:31Z</time>
      </trkpt>
      <trkpt lat="44.34218" lon="5.76172">
        <ele>596</ele>
        <time>2019-03-23T13:27:32Z</time>
      </trkpt>
      <trkpt lat="44.34222" lon="5.76168">
        <ele>596</ele>
        <time>2019-03-23T13:27:33Z</time>
      </trkpt>
      <trkpt lat="44.34225" lon="5.76165">
        <ele>596</ele>
        <time>2019-03-23T13:27:34Z</time>
      </trkpt>
      <trkpt lat="44.3423" lon="5.76162">
        <ele>596</ele>
        <time>2019-03-23T13:27:35Z</time>
      </trkpt>
      <trkpt lat="44.34234" lon="5.76159">
        <ele>596</ele>
        <time>2019-03-23T13:27:36Z</time>
      </trkpt>
      <trkpt lat="44.34238" lon="5.76156">
        <ele>596</ele>
        <time>2019-03-23T13:27:37Z</time>
      </trkpt>
      <trkpt lat="44.34242" lon="5.76153">
        <ele>596</ele>
        <time>2019-03-23T13:27:38Z</time>
      </trkpt>
      <trkpt lat="44.34247" lon="5.76151">
        <ele>596</ele>
        <time>2019-03-23T13:27:40Z</time>
      </trkpt>
      <trkpt lat="44.34253" lon="5.7615">
        <ele>596</ele>
        <time>2019-03-23T13:27:40Z</time>
      </trkpt>
      <trkpt lat="44.34258" lon="5.7615">
        <ele>596</ele>
        <time>2019-03-23T13:27:41Z</time>
      </trkpt>
      <trkpt lat="44.34264" lon="5.76151">
        <ele>596</ele>
        <time>2019-03-23T13:27:42Z</time>
      </trkpt>
      <trkpt lat="44.3427" lon="5.76152">
        <ele>596</ele>
        <time>2019-03-23T13:27:43Z</time>
      </trkpt>
      <trkpt lat="44.34277" lon="5.76154">
        <ele>596</ele>
        <time>2019-03-23T13:27:44Z</time>
      </trkpt>
      <trkpt lat="44.34283" lon="5.76156">
        <ele>596</ele>
        <time>2019-03-23T13:27:45Z</time>
      </trkpt>
      <trkpt lat="44.3429" lon="5.76158">
        <ele>596</ele>
        <time>2019-03-23T13:27:46Z</time>
      </trkpt>
      <trkpt lat="44.34296" lon="5.7616">
        <ele>596</ele>
        <time>2019-03-23T13:27:47Z</time>
      </trkpt>
      <trkpt lat="44.34303" lon="5.76163">
        <ele>596</ele>
        <time>2019-03-23T13:27:48Z</time>
      </trkpt>
      <trkpt lat="44.3431" lon="5.76166">
        <ele>596</ele>
        <time>2019-03-23T13:27:49Z</time>
      </trkpt>
      <trkpt lat="44.34316" lon="5.76169">
        <ele>596</ele>
        <time>2019-03-23T13:27:50Z</time>
      </trkpt>
      <trkpt lat="44.34322" lon="5.76173">
        <ele>596</ele>
        <time>2019-03-23T13:27:51Z</time>
      </trkpt>
      <trkpt lat="44.34328" lon="5.76176">
        <ele>596</ele>
        <time>2019-03-23T13:27:52Z</time>
      </trkpt>
      <trkpt lat="44.34335" lon="5.7618">
        <ele>596</ele>
        <time>2019-03-23T13:27:53Z</time>
      </trkpt>
      <trkpt lat="44.3434" lon="5.76183">
        <ele>596</ele>
        <time>2019-03-23T13:27:54Z</time>
      </trkpt>
      <trkpt lat="44.34346" lon="5.76187">
        <ele>596</ele>
        <time>2019-03-23T13:27:55Z</time>
      </trkpt>
      <trkpt lat="44.34352" lon="5.7619">
        <ele>596</ele>
        <time>2019-03-23T13:27:56Z</time>
      </trkpt>
      <trkpt lat="44.34358" lon="5.76194">
        <ele>596</ele>
        <time>2019-03-23T13:27:57Z</time>
      </trkpt>
      <trkpt lat="44.34364" lon="5.76197">
        <ele>596</ele>
        <time>2019-03-23T13:27:58Z</time>
      </trkpt>
      <trkpt lat="44.34369" lon="5.76199">
        <ele>596</ele>
        <time>2019-03-23T13:27:59Z</time>
      </trkpt>
      <trkpt lat="44.34375" lon="5.76201">
        <ele>596</ele>
        <time>2019-03-23T13:28:00Z</time>
      </trkpt>
      <trkpt lat="44.3438" lon="5.76202">
        <ele>596</ele>
        <time>2019-03-23T13:28:01Z</time>
      </trkpt>
      <trkpt lat="44.34386" lon="5.76202">
        <ele>596</ele>
        <time>2019-03-23T13:28:02Z</time>
      </trkpt>
      <trkpt lat="44.34391" lon="5.76201">
        <ele>596</ele>
        <time>2019-03-23T13:28:03Z</time>
      </trkpt>
      <trkpt lat="44.34396" lon="5.76199">
        <ele>596</ele>
        <time>2019-03-23T13:28:04Z</time>
      </trkpt>
      <trkpt lat="44.344" lon="5.76195">
        <ele>596</ele>
        <time>2019-03-23T13:28:05Z</time>
      </trkpt>
      <trkpt lat="44.34404" lon="5.76191">
        <ele>596</ele>
        <time>2019-03-23T13:28:06Z</time>
      </trkpt>
      <trkpt lat="44.34407" lon="5.76186">
        <ele>596</ele>
        <time>2019-03-23T13:28:07Z</time>
      </trkpt>
      <trkpt lat="44.34409" lon="5.7618">
        <ele>596</ele>
        <time>2019-03-23T13:28:08Z</time>
      </trkpt>
      <trkpt lat="44.3441" lon="5.76173">
        <ele>596</ele>
        <time>2019-03-23T13:28:09Z</time>
      </trkpt>
      <trkpt lat="44.3441" lon="5.76167">
        <ele>596</ele>
        <time>2019-03-23T13:28:10Z</time>
      </trkpt>
      <trkpt lat="44.34411" lon="5.76161">
        <ele>596</ele>
        <time>2019-03-23T13:28:11Z</time>
      </trkpt>
      <trkpt lat="44.34411" lon="5.76155">
        <ele>596</ele>
        <time>2019-03-23T13:28:12Z</time>
      </trkpt>
      <trkpt lat="44.34411" lon="5.76148">
        <ele>596</ele>
        <time>2019-03-23T13:28:13Z</time>
      </trkpt>
      <trkpt lat="44.34411" lon="5.76142">
        <ele>596</ele>
        <time>2019-03-23T13:28:14Z</time>
      </trkpt>
      <trkpt lat="44.34411" lon="5.76136">
        <ele>596</ele>
        <time>2019-03-23T13:28:15Z</time>
      </trkpt>
      <trkpt lat="44.34411" lon="5.7613">
        <ele>596</ele>
        <time>2019-03-23T13:28:16Z</time>
      </trkpt>
      <trkpt lat="44.34411" lon="5.76124">
        <ele>596</ele>
        <time>2019-03-23T13:28:17Z</time>
      </trkpt>
      <trkpt lat="44.34411" lon="5.76117">
        <ele>596</ele>
        <time>2019-03-23T13:28:18Z</time>
      </trkpt>
      <trkpt lat="44.34411" lon="5.76111">
        <ele>596</ele>
        <time>2019-03-23T13:28:19Z</time>
      </trkpt>
      <trkpt lat="44.34411" lon="5.76105">
        <ele>596</ele>
        <time>2019-03-23T13:28:20Z</time>
      </trkpt>
      <trkpt lat="44.34411" lon="5.76099">
        <ele>596</ele>
        <time>2019-03-23T13:28:21Z</time>
      </trkpt>
      <trkpt lat="44.34411" lon="5.76093">
        <ele>596</ele>
        <time>2019-03-23T13:28:22Z</time>
      </trkpt>
      <trkpt lat="44.34411" lon="5.76087">
        <ele>596</ele>
        <time>2019-03-23T13:28:23Z</time>
      </trkpt>
      <trkpt lat="44.34411" lon="5.76081">
        <ele>596</ele>
        <time>2019-03-23T13:28:24Z</time>
      </trkpt>
      <trkpt lat="44.34411" lon="5.76075">
        <ele>596</ele>
        <time>2019-03-23T13:28:25Z</time>
      </trkpt>
      <trkpt lat="44.34411" lon="5.76068">
        <ele>596</ele>
        <time>2019-03-23T13:28:26Z</time>
      </trkpt>
      <trkpt lat="44.34411" lon="5.76062">
        <ele>596</ele>
        <time>2019-03-23T13:28:27Z</time>
      </trkpt>
      <trkpt lat="44.34411" lon="5.76056">
        <ele>596</ele>
        <time>2019-03-23T13:28:28Z</time>
      </trkpt>
      <trkpt lat="44.3441" lon="5.7605">
        <ele>596</ele>
        <time>2019-03-23T13:28:29Z</time>
      </trkpt>
      <trkpt lat="44.3441" lon="5.76044">
        <ele>596</ele>
        <time>2019-03-23T13:28:30Z</time>
      </trkpt>
      <trkpt lat="44.3441" lon="5.76038">
        <ele>596</ele>
        <time>2019-03-23T13:28:31Z</time>
      </trkpt>
      <trkpt lat="44.3441" lon="5.76031">
        <ele>596</ele>
        <time>2019-03-23T13:28:32Z</time>
      </trkpt>
      <trkpt lat="44.3441" lon="5.76025">
        <ele>596</ele>
        <time>2019-03-23T13:28:33Z</time>
      </trkpt>
      <trkpt lat="44.3441" lon="5.76019">
        <ele>596</ele>
        <time>2019-03-23T13:28:34Z</time>
      </trkpt>
      <trkpt lat="44.3441" lon="5.76014">
        <ele>596</ele>
        <time>2019-03-23T13:28:35Z</time>
      </trkpt>
      <trkpt lat="44.3441" lon="5.76008">
        <ele>597</ele>
        <time>2019-03-23T13:28:36Z</time>
      </trkpt>
      <trkpt lat="44.3441" lon="5.76002">
        <ele>597</ele>
        <time>2019-03-23T13:28:37Z</time>
      </trkpt>
      <trkpt lat="44.3441" lon="5.75996">
        <ele>597</ele>
        <time>2019-03-23T13:28:38Z</time>
      </trkpt>
      <trkpt lat="44.3441" lon="5.7599">
        <ele>597</ele>
        <time>2019-03-23T13:28:40Z</time>
      </trkpt>
      <trkpt lat="44.3441" lon="5.75984">
        <ele>597</ele>
        <time>2019-03-23T13:28:40Z</time>
      </trkpt>
      <trkpt lat="44.3441" lon="5.75978">
        <ele>597</ele>
        <time>2019-03-23T13:28:41Z</time>
      </trkpt>
      <trkpt lat="44.3441" lon="5.75972">
        <ele>598</ele>
        <time>2019-03-23T13:28:42Z</time>
      </trkpt>
      <trkpt lat="44.3441" lon="5.75966">
        <ele>598</ele>
        <time>2019-03-23T13:28:43Z</time>
      </trkpt>
      <trkpt lat="44.3441" lon="5.7596">
        <ele>598</ele>
        <time>2019-03-23T13:28:44Z</time>
      </trkpt>
      <trkpt lat="44.34411" lon="5.75953">
        <ele>598</ele>
        <time>2019-03-23T13:28:45Z</time>
      </trkpt>
      <trkpt lat="44.34412" lon="5.75947">
        <ele>598</ele>
        <time>2019-03-23T13:28:46Z</time>
      </trkpt>
      <trkpt lat="44.34412" lon="5.75941">
        <ele>598</ele>
        <time>2019-03-23T13:28:47Z</time>
      </trkpt>
      <trkpt lat="44.34413" lon="5.75934">
        <ele>599</ele>
        <time>2019-03-23T13:28:48Z</time>
      </trkpt>
      <trkpt lat="44.34415" lon="5.75928">
        <ele>599</ele>
        <time>2019-03-23T13:28:49Z</time>
      </trkpt>
      <trkpt lat="44.34416" lon="5.75922">
        <ele>599</ele>
        <time>2019-03-23T13:28:50Z</time>
      </trkpt>
      <trkpt lat="44.34417" lon="5.75916">
        <ele>599</ele>
        <time>2019-03-23T13:28:51Z</time>
      </trkpt>
      <trkpt lat="44.34419" lon="5.7591">
        <ele>599</ele>
        <time>2019-03-23T13:28:52Z</time>
      </trkpt>
      <trkpt lat="44.34421" lon="5.75904">
        <ele>599</ele>
        <time>2019-03-23T13:28:53Z</time>
      </trkpt>
      <trkpt lat="44.34423" lon="5.75898">
        <ele>599</ele>
        <time>2019-03-23T13:28:54Z</time>
      </trkpt>
      <trkpt lat="44.34425" lon="5.75892">
        <ele>599</ele>
        <time>2019-03-23T13:28:55Z</time>
      </trkpt>
      <trkpt lat="44.34427" lon="5.75886">
        <ele>599</ele>
        <time>2019-03-23T13:28:56Z</time>
      </trkpt>
      <trkpt lat="44.3443" lon="5.7588">
        <ele>599</ele>
        <time>2019-03-23T13:28:57Z</time>
      </trkpt>
      <trkpt lat="44.34432" lon="5.75874">
        <ele>599</ele>
        <time>2019-03-23T13:28:58Z</time>
      </trkpt>
      <trkpt lat="44.34434" lon="5.75868">
        <ele>599</ele>
        <time>2019-03-23T13:28:59Z</time>
      </trkpt>
      <trkpt lat="44.34437" lon="5.75863">
        <ele>599</ele>
        <time>2019-03-23T13:29:00Z</time>
      </trkpt>
      <trkpt lat="44.34439" lon="5.75857">
        <ele>599</ele>
        <time>2019-03-23T13:29:01Z</time>
      </trkpt>
      <trkpt lat="44.34441" lon="5.75851">
        <ele>599</ele>
        <time>2019-03-23T13:29:02Z</time>
      </trkpt>
      <trkpt lat="44.34444" lon="5.75845">
        <ele>600</ele>
        <time>2019-03-23T13:29:03Z</time>
      </trkpt>
      <trkpt lat="44.34446" lon="5.75839">
        <ele>600</ele>
        <time>2019-03-23T13:29:04Z</time>
      </trkpt>
      <trkpt lat="44.34448" lon="5.75833">
        <ele>600</ele>
        <time>2019-03-23T13:29:05Z</time>
      </trkpt>
      <trkpt lat="44.3445" lon="5.75827">
        <ele>600</ele>
        <time>2019-03-23T13:29:06Z</time>
      </trkpt>
      <trkpt lat="44.34453" lon="5.7582">
        <ele>600</ele>
        <time>2019-03-23T13:29:07Z</time>
      </trkpt>
      <trkpt lat="44.34455" lon="5.75814">
        <ele>600</ele>
        <time>2019-03-23T13:29:08Z</time>
      </trkpt>
      <trkpt lat="44.34458" lon="5.75809">
        <ele>600</ele>
        <time>2019-03-23T13:29:09Z</time>
      </trkpt>
      <trkpt lat="44.3446" lon="5.75803">
        <ele>601</ele>
        <time>2019-03-23T13:29:10Z</time>
      </trkpt>
      <trkpt lat="44.34463" lon="5.75796">
        <ele>601</ele>
        <time>2019-03-23T13:29:11Z</time>
      </trkpt>
      <trkpt lat="44.34465" lon="5.7579">
        <ele>601</ele>
        <time>2019-03-23T13:29:12Z</time>
      </trkpt>
      <trkpt lat="44.34468" lon="5.75784">
        <ele>601</ele>
        <time>2019-03-23T13:29:13Z</time>
      </trkpt>
      <trkpt lat="44.3447" lon="5.75778">
        <ele>601</ele>
        <time>2019-03-23T13:29:14Z</time>
      </trkpt>
      <trkpt lat="44.34473" lon="5.75771">
        <ele>601</ele>
        <time>2019-03-23T13:29:15Z</time>
      </trkpt>
      <trkpt lat="44.34475" lon="5.75765">
        <ele>601</ele>
        <time>2019-03-23T13:29:16Z</time>
      </trkpt>
      <trkpt lat="44.34478" lon="5.75758">
        <ele>601</ele>
        <time>2019-03-23T13:29:17Z</time>
      </trkpt>
      <trkpt lat="44.34481" lon="5.75752">
        <ele>602</ele>
        <time>2019-03-23T13:29:18Z</time>
      </trkpt>
      <trkpt lat="44.34483" lon="5.75745">
        <ele>602</ele>
        <time>2019-03-23T13:29:19Z</time>
      </trkpt>
      <trkpt lat="44.34486" lon="5.75739">
        <ele>602</ele>
        <time>2019-03-23T13:29:20Z</time>
      </trkpt>
      <trkpt lat="44.34488" lon="5.75732">
        <ele>602</ele>
        <time>2019-03-23T13:29:21Z</time>
      </trkpt>
      <trkpt lat="44.34491" lon="5.75726">
        <ele>602</ele>
        <time>2019-03-23T13:29:22Z</time>
      </trkpt>
      <trkpt lat="44.34494" lon="5.75719">
        <ele>602</ele>
        <time>2019-03-23T13:29:23Z</time>
      </trkpt>
      <trkpt lat="44.34496" lon="5.75713">
        <ele>602</ele>
        <time>2019-03-23T13:29:24Z</time>
      </trkpt>
      <trkpt lat="44.34499" lon="5.75706">
        <ele>602</ele>
        <time>2019-03-23T13:29:25Z</time>
      </trkpt>
      <trkpt lat="44.34501" lon="5.757">
        <ele>602</ele>
        <time>2019-03-23T13:29:26Z</time>
      </trkpt>
      <trkpt lat="44.34504" lon="5.75693">
        <ele>602</ele>
        <time>2019-03-23T13:29:27Z</time>
      </trkpt>
      <trkpt lat="44.34507" lon="5.75686">
        <ele>602</ele>
        <time>2019-03-23T13:29:28Z</time>
      </trkpt>
      <trkpt lat="44.34509" lon="5.75679">
        <ele>602</ele>
        <time>2019-03-23T13:29:29Z</time>
      </trkpt>
      <trkpt lat="44.34512" lon="5.75673">
        <ele>602</ele>
        <time>2019-03-23T13:29:30Z</time>
      </trkpt>
      <trkpt lat="44.34515" lon="5.75666">
        <ele>602</ele>
        <time>2019-03-23T13:29:31Z</time>
      </trkpt>
      <trkpt lat="44.34517" lon="5.75659">
        <ele>603</ele>
        <time>2019-03-23T13:29:32Z</time>
      </trkpt>
      <trkpt lat="44.3452" lon="5.75652">
        <ele>603</ele>
        <time>2019-03-23T13:29:33Z</time>
      </trkpt>
      <trkpt lat="44.34523" lon="5.75645">
        <ele>603</ele>
        <time>2019-03-23T13:29:34Z</time>
      </trkpt>
      <trkpt lat="44.34526" lon="5.75638">
        <ele>603</ele>
        <time>2019-03-23T13:29:35Z</time>
      </trkpt>
      <trkpt lat="44.34528" lon="5.75632">
        <ele>603</ele>
        <time>2019-03-23T13:29:36Z</time>
      </trkpt>
      <trkpt lat="44.34531" lon="5.75625">
        <ele>603</ele>
        <time>2019-03-23T13:29:37Z</time>
      </trkpt>
      <trkpt lat="44.34534" lon="5.75618">
        <ele>603</ele>
        <time>2019-03-23T13:29:38Z</time>
      </trkpt>
      <trkpt lat="44.34536" lon="5.75611">
        <ele>603</ele>
        <time>2019-03-23T13:29:40Z</time>
      </trkpt>
      <trkpt lat="44.34539" lon="5.75604">
        <ele>603</ele>
        <time>2019-03-23T13:29:40Z</time>
      </trkpt>
      <trkpt lat="44.34542" lon="5.75597">
        <ele>603</ele>
        <time>2019-03-23T13:29:41Z</time>
      </trkpt>
      <trkpt lat="44.34544" lon="5.7559">
        <ele>603</ele>
        <time>2019-03-23T13:29:42Z</time>
      </trkpt>
      <trkpt lat="44.34547" lon="5.75583">
        <ele>603</ele>
        <time>2019-03-23T13:29:43Z</time>
      </trkpt>
      <trkpt lat="44.3455" lon="5.75576">
        <ele>603</ele>
        <time>2019-03-23T13:29:44Z</time>
      </trkpt>
      <trkpt lat="44.34553" lon="5.75569">
        <ele>603</ele>
        <time>2019-03-23T13:29:45Z</time>
      </trkpt>
      <trkpt lat="44.34555" lon="5.75563">
        <ele>603</ele>
        <time>2019-03-23T13:29:46Z</time>
      </trkpt>
      <trkpt lat="44.34558" lon="5.75556">
        <ele>604</ele>
        <time>2019-03-23T13:29:47Z</time>
      </trkpt>
      <trkpt lat="44.34561" lon="5.75549">
        <ele>604</ele>
        <time>2019-03-23T13:29:48Z</time>
      </trkpt>
      <trkpt lat="44.34564" lon="5.75542">
        <ele>604</ele>
        <time>2019-03-23T13:29:49Z</time>
      </trkpt>
      <trkpt lat="44.34567" lon="5.75535">
        <ele>604</ele>
        <time>2019-03-23T13:29:50Z</time>
      </trkpt>
      <trkpt lat="44.3457" lon="5.75528">
        <ele>604</ele>
        <time>2019-03-23T13:29:51Z</time>
      </trkpt>
      <trkpt lat="44.34573" lon="5.75521">
        <ele>604</ele>
        <time>2019-03-23T13:29:52Z</time>
      </trkpt>
      <trkpt lat="44.34575" lon="5.75514">
        <ele>604</ele>
        <time>2019-03-23T13:29:53Z</time>
      </trkpt>
      <trkpt lat="44.34578" lon="5.75507">
        <ele>604</ele>
        <time>2019-03-23T13:29:54Z</time>
      </trkpt>
      <trkpt lat="44.34581" lon="5.755">
        <ele>604</ele>
        <time>2019-03-23T13:29:55Z</time>
      </trkpt>
      <trkpt lat="44.34584" lon="5.75493">
        <ele>604</ele>
        <time>2019-03-23T13:29:56Z</time>
      </trkpt>
      <trkpt lat="44.34587" lon="5.75486">
        <ele>604</ele>
        <time>2019-03-23T13:29:57Z</time>
      </trkpt>
      <trkpt lat="44.34589" lon="5.75479">
        <ele>604</ele>
        <time>2019-03-23T13:29:58Z</time>
      </trkpt>
      <trkpt lat="44.34592" lon="5.75472">
        <ele>604</ele>
        <time>2019-03-23T13:29:59Z</time>
      </trkpt>
      <trkpt lat="44.34595" lon="5.75465">
        <ele>604</ele>
        <time>2019-03-23T13:30:00Z</time>
      </trkpt>
      <trkpt lat="44.34598" lon="5.75458">
        <ele>604</ele>
        <time>2019-03-23T13:30:01Z</time>
      </trkpt>
      <trkpt lat="44.346" lon="5.75451">
        <ele>604</ele>
        <time>2019-03-23T13:30:02Z</time>
      </trkpt>
      <trkpt lat="44.34603" lon="5.75444">
        <ele>605</ele>
        <time>2019-03-23T13:30:03Z</time>
      </trkpt>
      <trkpt lat="44.34606" lon="5.75437">
        <ele>605</ele>
        <time>2019-03-23T13:30:04Z</time>
      </trkpt>
      <trkpt lat="44.34608" lon="5.75431">
        <ele>605</ele>
        <time>2019-03-23T13:30:05Z</time>
      </trkpt>
      <trkpt lat="44.34611" lon="5.75424">
        <ele>605</ele>
        <time>2019-03-23T13:30:06Z</time>
      </trkpt>
      <trkpt lat="44.34614" lon="5.75417">
        <ele>605</ele>
        <time>2019-03-23T13:30:07Z</time>
      </trkpt>
      <trkpt lat="44.34616" lon="5.75411">
        <ele>605</ele>
        <time>2019-03-23T13:30:08Z</time>
      </trkpt>
      <trkpt lat="44.34619" lon="5.75404">
        <ele>605</ele>
        <time>2019-03-23T13:30:09Z</time>
      </trkpt>
      <trkpt lat="44.34622" lon="5.75397">
        <ele>605</ele>
        <time>2019-03-23T13:30:10Z</time>
      </trkpt>
      <trkpt lat="44.34624" lon="5.7539">
        <ele>605</ele>
        <time>2019-03-23T13:30:11Z</time>
      </trkpt>
      <trkpt lat="44.34627" lon="5.75383">
        <ele>605</ele>
        <time>2019-03-23T13:30:12Z</time>
      </trkpt>
      <trkpt lat="44.34629" lon="5.75376">
        <ele>605</ele>
        <time>2019-03-23T13:30:13Z</time>
      </trkpt>
      <trkpt lat="44.34632" lon="5.7537">
        <ele>605</ele>
        <time>2019-03-23T13:30:14Z</time>
      </trkpt>
      <trkpt lat="44.34635" lon="5.75363">
        <ele>605</ele>
        <time>2019-03-23T13:30:15Z</time>
      </trkpt>
      <trkpt lat="44.34638" lon="5.75356">
        <ele>605</ele>
        <time>2019-03-23T13:30:16Z</time>
      </trkpt>
      <trkpt lat="44.3464" lon="5.75349">
        <ele>605</ele>
        <time>2019-03-23T13:30:17Z</time>
      </trkpt>
      <trkpt lat="44.34643" lon="5.75343">
        <ele>605</ele>
        <time>2019-03-23T13:30:18Z</time>
      </trkpt>
      <trkpt lat="44.34646" lon="5.75336">
        <ele>606</ele>
        <time>2019-03-23T13:30:19Z</time>
      </trkpt>
      <trkpt lat="44.34648" lon="5.75329">
        <ele>606</ele>
        <time>2019-03-23T13:30:20Z</time>
      </trkpt>
      <trkpt lat="44.34651" lon="5.75323">
        <ele>606</ele>
        <time>2019-03-23T13:30:21Z</time>
      </trkpt>
      <trkpt lat="44.34653" lon="5.75316">
        <ele>606</ele>
        <time>2019-03-23T13:30:22Z</time>
      </trkpt>
      <trkpt lat="44.34656" lon="5.7531">
        <ele>606</ele>
        <time>2019-03-23T13:30:23Z</time>
      </trkpt>
      <trkpt lat="44.34659" lon="5.75303">
        <ele>606</ele>
        <time>2019-03-23T13:30:24Z</time>
      </trkpt>
      <trkpt lat="44.34662" lon="5.75296">
        <ele>606</ele>
        <time>2019-03-23T13:30:25Z</time>
      </trkpt>
      <trkpt lat="44.34664" lon="5.75289">
        <ele>606</ele>
        <time>2019-03-23T13:30:26Z</time>
      </trkpt>
      <trkpt lat="44.34667" lon="5.75283">
        <ele>606</ele>
        <time>2019-03-23T13:30:27Z</time>
      </trkpt>
      <trkpt lat="44.3467" lon="5.75276">
        <ele>606</ele>
        <time>2019-03-23T13:30:28Z</time>
      </trkpt>
      <trkpt lat="44.34672" lon="5.75269">
        <ele>606</ele>
        <time>2019-03-23T13:30:29Z</time>
      </trkpt>
      <trkpt lat="44.34675" lon="5.75262">
        <ele>606</ele>
        <time>2019-03-23T13:30:30Z</time>
      </trkpt>
      <trkpt lat="44.34677" lon="5.75256">
        <ele>607</ele>
        <time>2019-03-23T13:30:31Z</time>
      </trkpt>
      <trkpt lat="44.3468" lon="5.75249">
        <ele>607</ele>
        <time>2019-03-23T13:30:32Z</time>
      </trkpt>
      <trkpt lat="44.34683" lon="5.75243">
        <ele>607</ele>
        <time>2019-03-23T13:30:33Z</time>
      </trkpt>
      <trkpt lat="44.34685" lon="5.75236">
        <ele>607</ele>
        <time>2019-03-23T13:30:34Z</time>
      </trkpt>
      <trkpt lat="44.34688" lon="5.75229">
        <ele>607</ele>
        <time>2019-03-23T13:30:35Z</time>
      </trkpt>
      <trkpt lat="44.34691" lon="5.75222">
        <ele>607</ele>
        <time>2019-03-23T13:30:36Z</time>
      </trkpt>
      <trkpt lat="44.34693" lon="5.75216">
        <ele>607</ele>
        <time>2019-03-23T13:30:37Z</time>
      </trkpt>
      <trkpt lat="44.34696" lon="5.75209">
        <ele>607</ele>
        <time>2019-03-23T13:30:38Z</time>
      </trkpt>
      <trkpt lat="44.34699" lon="5.75202">
        <ele>607</ele>
        <time>2019-03-23T13:30:40Z</time>
      </trkpt>
      <trkpt lat="44.34702" lon="5.75195">
        <ele>607</ele>
        <time>2019-03-23T13:30:40Z</time>
      </trkpt>
      <trkpt lat="44.34704" lon="5.75188">
        <ele>607</ele>
        <time>2019-03-23T13:30:41Z</time>
      </trkpt>
      <trkpt lat="44.34707" lon="5.75182">
        <ele>608</ele>
        <time>2019-03-23T13:30:42Z</time>
      </trkpt>
      <trkpt lat="44.3471" lon="5.75175">
        <ele>608</ele>
        <time>2019-03-23T13:30:43Z</time>
      </trkpt>
      <trkpt lat="44.34712" lon="5.75168">
        <ele>608</ele>
        <time>2019-03-23T13:30:44Z</time>
      </trkpt>
      <trkpt lat="44.34715" lon="5.75161">
        <ele>608</ele>
        <time>2019-03-23T13:30:45Z</time>
      </trkpt>
      <trkpt lat="44.34718" lon="5.75154">
        <ele>608</ele>
        <time>2019-03-23T13:30:46Z</time>
      </trkpt>
      <trkpt lat="44.34721" lon="5.75148">
        <ele>608</ele>
        <time>2019-03-23T13:30:47Z</time>
      </trkpt>
      <trkpt lat="44.34724" lon="5.75141">
        <ele>608</ele>
        <time>2019-03-23T13:30:48Z</time>
      </trkpt>
      <trkpt lat="44.34726" lon="5.75134">
        <ele>608</ele>
        <time>2019-03-23T13:30:49Z</time>
      </trkpt>
      <trkpt lat="44.34729" lon="5.75127">
        <ele>608</ele>
        <time>2019-03-23T13:30:50Z</time>
      </trkpt>
      <trkpt lat="44.34732" lon="5.7512">
        <ele>608</ele>
        <time>2019-03-23T13:30:51Z</time>
      </trkpt>
      <trkpt lat="44.34735" lon="5.75113">
        <ele>609</ele>
        <time>2019-03-23T13:30:52Z</time>
      </trkpt>
      <trkpt lat="44.34737" lon="5.75106">
        <ele>609</ele>
        <time>2019-03-23T13:30:53Z</time>
      </trkpt>
      <trkpt lat="44.3474" lon="5.751">
        <ele>609</ele>
        <time>2019-03-23T13:30:54Z</time>
      </trkpt>
      <trkpt lat="44.34743" lon="5.75093">
        <ele>609</ele>
        <time>2019-03-23T13:30:55Z</time>
      </trkpt>
      <trkpt lat="44.34746" lon="5.75086">
        <ele>609</ele>
        <time>2019-03-23T13:30:56Z</time>
      </trkpt>
      <trkpt lat="44.34748" lon="5.75079">
        <ele>609</ele>
        <time>2019-03-23T13:30:57Z</time>
      </trkpt>
      <trkpt lat="44.34751" lon="5.75072">
        <ele>609</ele>
        <time>2019-03-23T13:30:58Z</time>
      </trkpt>
      <trkpt lat="44.34754" lon="5.75065">
        <ele>609</ele>
        <time>2019-03-23T13:30:59Z</time>
      </trkpt>
      <trkpt lat="44.34757" lon="5.75058">
        <ele>609</ele>
        <time>2019-03-23T13:31:00Z</time>
      </trkpt>
      <trkpt lat="44.3476" lon="5.75051">
        <ele>609</ele>
        <time>2019-03-23T13:31:01Z</time>
      </trkpt>
      <trkpt lat="44.34763" lon="5.75044">
        <ele>609</ele>
        <time>2019-03-23T13:31:02Z</time>
      </trkpt>
      <trkpt lat="44.34765" lon="5.75037">
        <ele>609</ele>
        <time>2019-03-23T13:31:03Z</time>
      </trkpt>
      <trkpt lat="44.34768" lon="5.7503">
        <ele>610</ele>
        <time>2019-03-23T13:31:04Z</time>
      </trkpt>
      <trkpt lat="44.34771" lon="5.75022">
        <ele>610</ele>
        <time>2019-03-23T13:31:05Z</time>
      </trkpt>
      <trkpt lat="44.34774" lon="5.75015">
        <ele>610</ele>
        <time>2019-03-23T13:31:06Z</time>
      </trkpt>
      <trkpt lat="44.34777" lon="5.75008">
        <ele>610</ele>
        <time>2019-03-23T13:31:07Z</time>
      </trkpt>
      <trkpt lat="44.34779" lon="5.75001">
        <ele>610</ele>
        <time>2019-03-23T13:31:08Z</time>
      </trkpt>
      <trkpt lat="44.34782" lon="5.74994">
        <ele>610</ele>
        <time>2019-03-23T13:31:09Z</time>
      </trkpt>
      <trkpt lat="44.34785" lon="5.74987">
        <ele>610</ele>
        <time>2019-03-23T13:31:10Z</time>
      </trkpt>
      <trkpt lat="44.34788" lon="5.7498">
        <ele>610</ele>
        <time>2019-03-23T13:31:11Z</time>
      </trkpt>
      <trkpt lat="44.34791" lon="5.74973">
        <ele>610</ele>
        <time>2019-03-23T13:31:12Z</time>
      </trkpt>
      <trkpt lat="44.34794" lon="5.74966">
        <ele>610</ele>
        <time>2019-03-23T13:31:13Z</time>
      </trkpt>
      <trkpt lat="44.34797" lon="5.74959">
        <ele>610</ele>
        <time>2019-03-23T13:31:14Z</time>
      </trkpt>
      <trkpt lat="44.34799" lon="5.74952">
        <ele>610</ele>
        <time>2019-03-23T13:31:15Z</time>
      </trkpt>
      <trkpt lat="44.34802" lon="5.74945">
        <ele>610</ele>
        <time>2019-03-23T13:31:16Z</time>
      </trkpt>
      <trkpt lat="44.34805" lon="5.74938">
        <ele>611</ele>
        <time>2019-03-23T13:31:17Z</time>
      </trkpt>
      <trkpt lat="44.34808" lon="5.74931">
        <ele>611</ele>
        <time>2019-03-23T13:31:18Z</time>
      </trkpt>
      <trkpt lat="44.34811" lon="5.74924">
        <ele>611</ele>
        <time>2019-03-23T13:31:19Z</time>
      </trkpt>
      <trkpt lat="44.34813" lon="5.74917">
        <ele>611</ele>
        <time>2019-03-23T13:31:20Z</time>
      </trkpt>
      <trkpt lat="44.34816" lon="5.7491">
        <ele>611</ele>
        <time>2019-03-23T13:31:21Z</time>
      </trkpt>
      <trkpt lat="44.34819" lon="5.74903">
        <ele>611</ele>
        <time>2019-03-23T13:31:22Z</time>
      </trkpt>
      <trkpt lat="44.34822" lon="5.74896">
        <ele>611</ele>
        <time>2019-03-23T13:31:23Z</time>
      </trkpt>
      <trkpt lat="44.34825" lon="5.74889">
        <ele>611</ele>
        <time>2019-03-23T13:31:24Z</time>
      </trkpt>
      <trkpt lat="44.34828" lon="5.74881">
        <ele>611</ele>
        <time>2019-03-23T13:31:25Z</time>
      </trkpt>
      <trkpt lat="44.34831" lon="5.74874">
        <ele>611</ele>
        <time>2019-03-23T13:31:26Z</time>
      </trkpt>
      <trkpt lat="44.34834" lon="5.74866">
        <ele>611</ele>
        <time>2019-03-23T13:31:27Z</time>
      </trkpt>
      <trkpt lat="44.34837" lon="5.74859">
        <ele>611</ele>
        <time>2019-03-23T13:31:28Z</time>
      </trkpt>
      <trkpt lat="44.3484" lon="5.74851">
        <ele>612</ele>
        <time>2019-03-23T13:31:29Z</time>
      </trkpt>
      <trkpt lat="44.34843" lon="5.74844">
        <ele>612</ele>
        <time>2019-03-23T13:31:30Z</time>
      </trkpt>
      <trkpt lat="44.34846" lon="5.74836">
        <ele>612</ele>
        <time>2019-03-23T13:31:31Z</time>
      </trkpt>
      <trkpt lat="44.34849" lon="5.74829">
        <ele>612</ele>
        <time>2019-03-23T13:31:32Z</time>
      </trkpt>
      <trkpt lat="44.34851" lon="5.74821">
        <ele>612</ele>
        <time>2019-03-23T13:31:33Z</time>
      </trkpt>
      <trkpt lat="44.34854" lon="5.74814">
        <ele>612</ele>
        <time>2019-03-23T13:31:34Z</time>
      </trkpt>
      <trkpt lat="44.34857" lon="5.74806">
        <ele>612</ele>
        <time>2019-03-23T13:31:35Z</time>
      </trkpt>
      <trkpt lat="44.3486" lon="5.74799">
        <ele>612</ele>
        <time>2019-03-23T13:31:36Z</time>
      </trkpt>
      <trkpt lat="44.34863" lon="5.74791">
        <ele>612</ele>
        <time>2019-03-23T13:31:37Z</time>
      </trkpt>
      <trkpt lat="44.34866" lon="5.74784">
        <ele>612</ele>
        <time>2019-03-23T13:31:38Z</time>
      </trkpt>
      <trkpt lat="44.34869" lon="5.74777">
        <ele>612</ele>
        <time>2019-03-23T13:31:39Z</time>
      </trkpt>
      <trkpt lat="44.34872" lon="5.74769">
        <ele>612</ele>
        <time>2019-03-23T13:31:40Z</time>
      </trkpt>
      <trkpt lat="44.34874" lon="5.74762">
        <ele>612</ele>
        <time>2019-03-23T13:31:41Z</time>
      </trkpt>
      <trkpt lat="44.34877" lon="5.74755">
        <ele>612</ele>
        <time>2019-03-23T13:31:42Z</time>
      </trkpt>
      <trkpt lat="44.3488" lon="5.74748">
        <ele>613</ele>
        <time>2019-03-23T13:31:43Z</time>
      </trkpt>
      <trkpt lat="44.34883" lon="5.74741">
        <ele>613</ele>
        <time>2019-03-23T13:31:44Z</time>
      </trkpt>
      <trkpt lat="44.34885" lon="5.74734">
        <ele>613</ele>
        <time>2019-03-23T13:31:45Z</time>
      </trkpt>
      <trkpt lat="44.34888" lon="5.74727">
        <ele>613</ele>
        <time>2019-03-23T13:31:46Z</time>
      </trkpt>
      <trkpt lat="44.34891" lon="5.7472">
        <ele>613</ele>
        <time>2019-03-23T13:31:47Z</time>
      </trkpt>
      <trkpt lat="44.34894" lon="5.74713">
        <ele>613</ele>
        <time>2019-03-23T13:31:48Z</time>
      </trkpt>
      <trkpt lat="44.34896" lon="5.74707">
        <ele>613</ele>
        <time>2019-03-23T13:31:49Z</time>
      </trkpt>
      <trkpt lat="44.34899" lon="5.747">
        <ele>613</ele>
        <time>2019-03-23T13:31:50Z</time>
      </trkpt>
      <trkpt lat="44.34902" lon="5.74693">
        <ele>613</ele>
        <time>2019-03-23T13:31:51Z</time>
      </trkpt>
      <trkpt lat="44.34904" lon="5.74686">
        <ele>613</ele>
        <time>2019-03-23T13:31:52Z</time>
      </trkpt>
      <trkpt lat="44.34907" lon="5.7468">
        <ele>613</ele>
        <time>2019-03-23T13:31:53Z</time>
      </trkpt>
      <trkpt lat="44.3491" lon="5.74673">
        <ele>614</ele>
        <time>2019-03-23T13:31:54Z</time>
      </trkpt>
      <trkpt lat="44.34912" lon="5.74666">
        <ele>614</ele>
        <time>2019-03-23T13:31:55Z</time>
      </trkpt>
      <trkpt lat="44.34915" lon="5.74659">
        <ele>614</ele>
        <time>2019-03-23T13:31:56Z</time>
      </trkpt>
      <trkpt lat="44.34918" lon="5.74652">
        <ele>614</ele>
        <time>2019-03-23T13:31:57Z</time>
      </trkpt>
      <trkpt lat="44.34921" lon="5.74646">
        <ele>614</ele>
        <time>2019-03-23T13:31:58Z</time>
      </trkpt>
      <trkpt lat="44.34924" lon="5.74639">
        <ele>614</ele>
        <time>2019-03-23T13:31:59Z</time>
      </trkpt>
      <trkpt lat="44.34926" lon="5.74632">
        <ele>614</ele>
        <time>2019-03-23T13:32:00Z</time>
      </trkpt>
      <trkpt lat="44.34929" lon="5.74625">
        <ele>614</ele>
        <time>2019-03-23T13:32:01Z</time>
      </trkpt>
      <trkpt lat="44.34932" lon="5.74618">
        <ele>614</ele>
        <time>2019-03-23T13:32:02Z</time>
      </trkpt>
      <trkpt lat="44.34935" lon="5.74611">
        <ele>614</ele>
        <time>2019-03-23T13:32:03Z</time>
      </trkpt>
      <trkpt lat="44.34938" lon="5.74604">
        <ele>614</ele>
        <time>2019-03-23T13:32:04Z</time>
      </trkpt>
      <trkpt lat="44.3494" lon="5.74597">
        <ele>614</ele>
        <time>2019-03-23T13:32:05Z</time>
      </trkpt>
      <trkpt lat="44.34943" lon="5.74589">
        <ele>614</ele>
        <time>2019-03-23T13:32:06Z</time>
      </trkpt>
      <trkpt lat="44.34946" lon="5.74581">
        <ele>615</ele>
        <time>2019-03-23T13:32:07Z</time>
      </trkpt>
      <trkpt lat="44.34949" lon="5.74574">
        <ele>615</ele>
        <time>2019-03-23T13:32:08Z</time>
      </trkpt>
      <trkpt lat="44.34952" lon="5.74566">
        <ele>615</ele>
        <time>2019-03-23T13:32:09Z</time>
      </trkpt>
      <trkpt lat="44.34956" lon="5.74558">
        <ele>615</ele>
        <time>2019-03-23T13:32:10Z</time>
      </trkpt>
      <trkpt lat="44.34959" lon="5.7455">
        <ele>615</ele>
        <time>2019-03-23T13:32:11Z</time>
      </trkpt>
      <trkpt lat="44.34962" lon="5.74542">
        <ele>615</ele>
        <time>2019-03-23T13:32:12Z</time>
      </trkpt>
      <trkpt lat="44.34965" lon="5.74535">
        <ele>615</ele>
        <time>2019-03-23T13:32:13Z</time>
      </trkpt>
      <trkpt lat="44.34968" lon="5.74527">
        <ele>615</ele>
        <time>2019-03-23T13:32:14Z</time>
      </trkpt>
      <trkpt lat="44.34971" lon="5.74519">
        <ele>615</ele>
        <time>2019-03-23T13:32:15Z</time>
      </trkpt>
      <trkpt lat="44.34974" lon="5.74511">
        <ele>615</ele>
        <time>2019-03-23T13:32:16Z</time>
      </trkpt>
      <trkpt lat="44.34977" lon="5.74504">
        <ele>615</ele>
        <time>2019-03-23T13:32:17Z</time>
      </trkpt>
      <trkpt lat="44.3498" lon="5.74496">
        <ele>615</ele>
        <time>2019-03-23T13:32:18Z</time>
      </trkpt>
      <trkpt lat="44.34984" lon="5.74488">
        <ele>615</ele>
        <time>2019-03-23T13:32:19Z</time>
      </trkpt>
      <trkpt lat="44.34987" lon="5.7448">
        <ele>615</ele>
        <time>2019-03-23T13:32:20Z</time>
      </trkpt>
      <trkpt lat="44.3499" lon="5.74473">
        <ele>615</ele>
        <time>2019-03-23T13:32:21Z</time>
      </trkpt>
      <trkpt lat="44.34993" lon="5.74465">
        <ele>615</ele>
        <time>2019-03-23T13:32:22Z</time>
      </trkpt>
      <trkpt lat="44.34996" lon="5.74457">
        <ele>615</ele>
        <time>2019-03-23T13:32:23Z</time>
      </trkpt>
      <trkpt lat="44.34999" lon="5.74449">
        <ele>615</ele>
        <time>2019-03-23T13:32:24Z</time>
      </trkpt>
      <trkpt lat="44.35002" lon="5.74442">
        <ele>615</ele>
        <time>2019-03-23T13:32:25Z</time>
      </trkpt>
      <trkpt lat="44.35005" lon="5.74434">
        <ele>615</ele>
        <time>2019-03-23T13:32:26Z</time>
      </trkpt>
      <trkpt lat="44.35009" lon="5.74427">
        <ele>615</ele>
        <time>2019-03-23T13:32:27Z</time>
      </trkpt>
      <trkpt lat="44.35012" lon="5.74419">
        <ele>615</ele>
        <time>2019-03-23T13:32:28Z</time>
      </trkpt>
      <trkpt lat="44.35014" lon="5.74412">
        <ele>615</ele>
        <time>2019-03-23T13:32:29Z</time>
      </trkpt>
      <trkpt lat="44.35017" lon="5.74404">
        <ele>615</ele>
        <time>2019-03-23T13:32:30Z</time>
      </trkpt>
      <trkpt lat="44.3502" lon="5.74397">
        <ele>615</ele>
        <time>2019-03-23T13:32:31Z</time>
      </trkpt>
      <trkpt lat="44.35023" lon="5.7439">
        <ele>615</ele>
        <time>2019-03-23T13:32:32Z</time>
      </trkpt>
      <trkpt lat="44.35027" lon="5.74383">
        <ele>615</ele>
        <time>2019-03-23T13:32:33Z</time>
      </trkpt>
      <trkpt lat="44.3503" lon="5.74375">
        <ele>616</ele>
        <time>2019-03-23T13:32:34Z</time>
      </trkpt>
      <trkpt lat="44.35033" lon="5.74368">
        <ele>616</ele>
        <time>2019-03-23T13:32:35Z</time>
      </trkpt>
      <trkpt lat="44.35036" lon="5.7436">
        <ele>616</ele>
        <time>2019-03-23T13:32:36Z</time>
      </trkpt>
      <trkpt lat="44.35039" lon="5.74352">
        <ele>616</ele>
        <time>2019-03-23T13:32:37Z</time>
      </trkpt>
      <trkpt lat="44.35042" lon="5.74344">
        <ele>616</ele>
        <time>2019-03-23T13:32:38Z</time>
      </trkpt>
      <trkpt lat="44.35046" lon="5.74335">
        <ele>616</ele>
        <time>2019-03-23T13:32:39Z</time>
      </trkpt>
      <trkpt lat="44.35049" lon="5.74327">
        <ele>616</ele>
        <time>2019-03-23T13:32:40Z</time>
      </trkpt>
      <trkpt lat="44.35053" lon="5.74319">
        <ele>616</ele>
        <time>2019-03-23T13:32:41Z</time>
      </trkpt>
      <trkpt lat="44.35056" lon="5.7431">
        <ele>616</ele>
        <time>2019-03-23T13:32:42Z</time>
      </trkpt>
      <trkpt lat="44.3506" lon="5.74301">
        <ele>616</ele>
        <time>2019-03-23T13:32:43Z</time>
      </trkpt>
      <trkpt lat="44.35063" lon="5.74292">
        <ele>616</ele>
        <time>2019-03-23T13:32:44Z</time>
      </trkpt>
      <trkpt lat="44.35067" lon="5.74283">
        <ele>616</ele>
        <time>2019-03-23T13:32:45Z</time>
      </trkpt>
      <trkpt lat="44.3507" lon="5.74274">
        <ele>616</ele>
        <time>2019-03-23T13:32:46Z</time>
      </trkpt>
      <trkpt lat="44.35073" lon="5.74266">
        <ele>616</ele>
        <time>2019-03-23T13:32:47Z</time>
      </trkpt>
      <trkpt lat="44.35077" lon="5.74257">
        <ele>616</ele>
        <time>2019-03-23T13:32:48Z</time>
      </trkpt>
      <trkpt lat="44.3508" lon="5.74248">
        <ele>616</ele>
        <time>2019-03-23T13:32:49Z</time>
      </trkpt>
      <trkpt lat="44.35084" lon="5.7424">
        <ele>616</ele>
        <time>2019-03-23T13:32:50Z</time>
      </trkpt>
      <trkpt lat="44.35087" lon="5.74231">
        <ele>616</ele>
        <time>2019-03-23T13:32:51Z</time>
      </trkpt>
      <trkpt lat="44.35091" lon="5.74223">
        <ele>616</ele>
        <time>2019-03-23T13:32:52Z</time>
      </trkpt>
      <trkpt lat="44.35094" lon="5.74214">
        <ele>616</ele>
        <time>2019-03-23T13:32:53Z</time>
      </trkpt>
      <trkpt lat="44.35097" lon="5.74206">
        <ele>616</ele>
        <time>2019-03-23T13:32:54Z</time>
      </trkpt>
      <trkpt lat="44.35101" lon="5.74197">
        <ele>616</ele>
        <time>2019-03-23T13:32:55Z</time>
      </trkpt>
      <trkpt lat="44.35104" lon="5.74189">
        <ele>616</ele>
        <time>2019-03-23T13:32:56Z</time>
      </trkpt>
      <trkpt lat="44.35107" lon="5.74181">
        <ele>616</ele>
        <time>2019-03-23T13:32:57Z</time>
      </trkpt>
      <trkpt lat="44.3511" lon="5.74172">
        <ele>616</ele>
        <time>2019-03-23T13:32:58Z</time>
      </trkpt>
      <trkpt lat="44.35114" lon="5.74164">
        <ele>616</ele>
        <time>2019-03-23T13:32:59Z</time>
      </trkpt>
      <trkpt lat="44.35117" lon="5.74156">
        <ele>616</ele>
        <time>2019-03-23T13:33:00Z</time>
      </trkpt>
      <trkpt lat="44.3512" lon="5.74148">
        <ele>616</ele>
        <time>2019-03-23T13:33:01Z</time>
      </trkpt>
      <trkpt lat="44.35124" lon="5.74141">
        <ele>616</ele>
        <time>2019-03-23T13:33:02Z</time>
      </trkpt>
      <trkpt lat="44.35127" lon="5.74133">
        <ele>616</ele>
        <time>2019-03-23T13:33:03Z</time>
      </trkpt>
      <trkpt lat="44.3513" lon="5.74125">
        <ele>616</ele>
        <time>2019-03-23T13:33:04Z</time>
      </trkpt>
      <trkpt lat="44.35133" lon="5.74117">
        <ele>616</ele>
        <time>2019-03-23T13:33:05Z</time>
      </trkpt>
      <trkpt lat="44.35136" lon="5.74109">
        <ele>616</ele>
        <time>2019-03-23T13:33:06Z</time>
      </trkpt>
      <trkpt lat="44.35139" lon="5.74101">
        <ele>616</ele>
        <time>2019-03-23T13:33:07Z</time>
      </trkpt>
      <trkpt lat="44.35142" lon="5.74094">
        <ele>616</ele>
        <time>2019-03-23T13:33:08Z</time>
      </trkpt>
      <trkpt lat="44.35144" lon="5.74087">
        <ele>616</ele>
        <time>2019-03-23T13:33:09Z</time>
      </trkpt>
      <trkpt lat="44.35147" lon="5.74079">
        <ele>616</ele>
        <time>2019-03-23T13:33:10Z</time>
      </trkpt>
      <trkpt lat="44.35151" lon="5.74072">
        <ele>617</ele>
        <time>2019-03-23T13:33:11Z</time>
      </trkpt>
      <trkpt lat="44.35154" lon="5.74065">
        <ele>617</ele>
        <time>2019-03-23T13:33:12Z</time>
      </trkpt>
      <trkpt lat="44.35157" lon="5.74058">
        <ele>617</ele>
        <time>2019-03-23T13:33:13Z</time>
      </trkpt>
      <trkpt lat="44.35159" lon="5.74051">
        <ele>617</ele>
        <time>2019-03-23T13:33:14Z</time>
      </trkpt>
      <trkpt lat="44.35162" lon="5.74044">
        <ele>617</ele>
        <time>2019-03-23T13:33:15Z</time>
      </trkpt>
      <trkpt lat="44.35165" lon="5.74036">
        <ele>617</ele>
        <time>2019-03-23T13:33:16Z</time>
      </trkpt>
      <trkpt lat="44.35168" lon="5.74029">
        <ele>617</ele>
        <time>2019-03-23T13:33:17Z</time>
      </trkpt>
      <trkpt lat="44.35171" lon="5.74022">
        <ele>617</ele>
        <time>2019-03-23T13:33:18Z</time>
      </trkpt>
      <trkpt lat="44.35174" lon="5.74014">
        <ele>617</ele>
        <time>2019-03-23T13:33:19Z</time>
      </trkpt>
      <trkpt lat="44.35177" lon="5.74007">
        <ele>617</ele>
        <time>2019-03-23T13:33:20Z</time>
      </trkpt>
      <trkpt lat="44.3518" lon="5.74">
        <ele>617</ele>
        <time>2019-03-23T13:33:21Z</time>
      </trkpt>
      <trkpt lat="44.35182" lon="5.73993">
        <ele>617</ele>
        <time>2019-03-23T13:33:22Z</time>
      </trkpt>
      <trkpt lat="44.35185" lon="5.73986">
        <ele>618</ele>
        <time>2019-03-23T13:33:23Z</time>
      </trkpt>
      <trkpt lat="44.35188" lon="5.73979">
        <ele>618</ele>
        <time>2019-03-23T13:33:24Z</time>
      </trkpt>
      <trkpt lat="44.35191" lon="5.73971">
        <ele>618</ele>
        <time>2019-03-23T13:33:25Z</time>
      </trkpt>
      <trkpt lat="44.35194" lon="5.73964">
        <ele>618</ele>
        <time>2019-03-23T13:33:26Z</time>
      </trkpt>
      <trkpt lat="44.35197" lon="5.73957">
        <ele>618</ele>
        <time>2019-03-23T13:33:27Z</time>
      </trkpt>
      <trkpt lat="44.35199" lon="5.7395">
        <ele>618</ele>
        <time>2019-03-23T13:33:28Z</time>
      </trkpt>
      <trkpt lat="44.35202" lon="5.73943">
        <ele>619</ele>
        <time>2019-03-23T13:33:29Z</time>
      </trkpt>
      <trkpt lat="44.35205" lon="5.73936">
        <ele>619</ele>
        <time>2019-03-23T13:33:30Z</time>
      </trkpt>
      <trkpt lat="44.35208" lon="5.73928">
        <ele>619</ele>
        <time>2019-03-23T13:33:31Z</time>
      </trkpt>
      <trkpt lat="44.35211" lon="5.73921">
        <ele>619</ele>
        <time>2019-03-23T13:33:32Z</time>
      </trkpt>
      <trkpt lat="44.35214" lon="5.73914">
        <ele>619</ele>
        <time>2019-03-23T13:33:33Z</time>
      </trkpt>
      <trkpt lat="44.35217" lon="5.73907">
        <ele>619</ele>
        <time>2019-03-23T13:33:34Z</time>
      </trkpt>
      <trkpt lat="44.3522" lon="5.739">
        <ele>619</ele>
        <time>2019-03-23T13:33:35Z</time>
      </trkpt>
      <trkpt lat="44.35223" lon="5.73892">
        <ele>619</ele>
        <time>2019-03-23T13:33:36Z</time>
      </trkpt>
      <trkpt lat="44.35226" lon="5.73885">
        <ele>619</ele>
        <time>2019-03-23T13:33:37Z</time>
      </trkpt>
      <trkpt lat="44.35228" lon="5.73878">
        <ele>620</ele>
        <time>2019-03-23T13:33:38Z</time>
      </trkpt>
      <trkpt lat="44.35231" lon="5.73871">
        <ele>620</ele>
        <time>2019-03-23T13:33:39Z</time>
      </trkpt>
      <trkpt lat="44.35234" lon="5.73864">
        <ele>620</ele>
        <time>2019-03-23T13:33:40Z</time>
      </trkpt>
      <trkpt lat="44.35236" lon="5.73857">
        <ele>620</ele>
        <time>2019-03-23T13:33:41Z</time>
      </trkpt>
      <trkpt lat="44.35239" lon="5.7385">
        <ele>620</ele>
        <time>2019-03-23T13:33:42Z</time>
      </trkpt>
      <trkpt lat="44.35242" lon="5.73843">
        <ele>620</ele>
        <time>2019-03-23T13:33:43Z</time>
      </trkpt>
      <trkpt lat="44.35245" lon="5.73836">
        <ele>620</ele>
        <time>2019-03-23T13:33:44Z</time>
      </trkpt>
      <trkpt lat="44.35248" lon="5.7383">
        <ele>620</ele>
        <time>2019-03-23T13:33:45Z</time>
      </trkpt>
      <trkpt lat="44.3525" lon="5.73822">
        <ele>620</ele>
        <time>2019-03-23T13:33:46Z</time>
      </trkpt>
      <trkpt lat="44.35253" lon="5.73816">
        <ele>620</ele>
        <time>2019-03-23T13:33:47Z</time>
      </trkpt>
      <trkpt lat="44.35256" lon="5.73809">
        <ele>621</ele>
        <time>2019-03-23T13:33:48Z</time>
      </trkpt>
      <trkpt lat="44.35259" lon="5.73803">
        <ele>621</ele>
        <time>2019-03-23T13:33:49Z</time>
      </trkpt>
      <trkpt lat="44.35261" lon="5.73796">
        <ele>621</ele>
        <time>2019-03-23T13:33:50Z</time>
      </trkpt>
      <trkpt lat="44.35264" lon="5.73789">
        <ele>621</ele>
        <time>2019-03-23T13:33:51Z</time>
      </trkpt>
      <trkpt lat="44.35266" lon="5.73782">
        <ele>621</ele>
        <time>2019-03-23T13:33:52Z</time>
      </trkpt>
      <trkpt lat="44.35269" lon="5.73776">
        <ele>621</ele>
        <time>2019-03-23T13:33:53Z</time>
      </trkpt>
      <trkpt lat="44.35272" lon="5.73769">
        <ele>621</ele>
        <time>2019-03-23T13:33:54Z</time>
      </trkpt>
      <trkpt lat="44.35275" lon="5.73762">
        <ele>621</ele>
        <time>2019-03-23T13:33:55Z</time>
      </trkpt>
      <trkpt lat="44.35278" lon="5.73756">
        <ele>621</ele>
        <time>2019-03-23T13:33:56Z</time>
      </trkpt>
      <trkpt lat="44.3528" lon="5.73748">
        <ele>621</ele>
        <time>2019-03-23T13:33:57Z</time>
      </trkpt>
      <trkpt lat="44.35283" lon="5.73742">
        <ele>621</ele>
        <time>2019-03-23T13:33:58Z</time>
      </trkpt>
      <trkpt lat="44.35286" lon="5.73735">
        <ele>621</ele>
        <time>2019-03-23T13:33:59Z</time>
      </trkpt>
      <trkpt lat="44.35288" lon="5.73728">
        <ele>622</ele>
        <time>2019-03-23T13:34:00Z</time>
      </trkpt>
      <trkpt lat="44.35291" lon="5.73721">
        <ele>622</ele>
        <time>2019-03-23T13:34:01Z</time>
      </trkpt>
      <trkpt lat="44.35293" lon="5.73714">
        <ele>622</ele>
        <time>2019-03-23T13:34:02Z</time>
      </trkpt>
      <trkpt lat="44.35296" lon="5.73707">
        <ele>622</ele>
        <time>2019-03-23T13:34:03Z</time>
      </trkpt>
      <trkpt lat="44.35299" lon="5.737">
        <ele>622</ele>
        <time>2019-03-23T13:34:04Z</time>
      </trkpt>
      <trkpt lat="44.35302" lon="5.73693">
        <ele>622</ele>
        <time>2019-03-23T13:34:05Z</time>
      </trkpt>
      <trkpt lat="44.35305" lon="5.73685">
        <ele>622</ele>
        <time>2019-03-23T13:34:06Z</time>
      </trkpt>
      <trkpt lat="44.35307" lon="5.73678">
        <ele>622</ele>
        <time>2019-03-23T13:34:07Z</time>
      </trkpt>
      <trkpt lat="44.3531" lon="5.73671">
        <ele>622</ele>
        <time>2019-03-23T13:34:08Z</time>
      </trkpt>
      <trkpt lat="44.35313" lon="5.73663">
        <ele>622</ele>
        <time>2019-03-23T13:34:09Z</time>
      </trkpt>
      <trkpt lat="44.35316" lon="5.73656">
        <ele>622</ele>
        <time>2019-03-23T13:34:10Z</time>
      </trkpt>
      <trkpt lat="44.35319" lon="5.73649">
        <ele>622</ele>
        <time>2019-03-23T13:34:11Z</time>
      </trkpt>
      <trkpt lat="44.35322" lon="5.73642">
        <ele>622</ele>
        <time>2019-03-23T13:34:12Z</time>
      </trkpt>
      <trkpt lat="44.35325" lon="5.73635">
        <ele>622</ele>
        <time>2019-03-23T13:34:13Z</time>
      </trkpt>
      <trkpt lat="44.35328" lon="5.73628">
        <ele>623</ele>
        <time>2019-03-23T13:34:14Z</time>
      </trkpt>
      <trkpt lat="44.3533" lon="5.73621">
        <ele>623</ele>
        <time>2019-03-23T13:34:15Z</time>
      </trkpt>
      <trkpt lat="44.35333" lon="5.73614">
        <ele>623</ele>
        <time>2019-03-23T13:34:16Z</time>
      </trkpt>
      <trkpt lat="44.35336" lon="5.73607">
        <ele>623</ele>
        <time>2019-03-23T13:34:17Z</time>
      </trkpt>
      <trkpt lat="44.35339" lon="5.73601">
        <ele>623</ele>
        <time>2019-03-23T13:34:18Z</time>
      </trkpt>
      <trkpt lat="44.35341" lon="5.73594">
        <ele>623</ele>
        <time>2019-03-23T13:34:19Z</time>
      </trkpt>
      <trkpt lat="44.35344" lon="5.73587">
        <ele>623</ele>
        <time>2019-03-23T13:34:20Z</time>
      </trkpt>
      <trkpt lat="44.35347" lon="5.7358">
        <ele>623</ele>
        <time>2019-03-23T13:34:21Z</time>
      </trkpt>
      <trkpt lat="44.35349" lon="5.73573">
        <ele>623</ele>
        <time>2019-03-23T13:34:22Z</time>
      </trkpt>
      <trkpt lat="44.35352" lon="5.73566">
        <ele>623</ele>
        <time>2019-03-23T13:34:23Z</time>
      </trkpt>
      <trkpt lat="44.35355" lon="5.73559">
        <ele>624</ele>
        <time>2019-03-23T13:34:24Z</time>
      </trkpt>
      <trkpt lat="44.35357" lon="5.73552">
        <ele>624</ele>
        <time>2019-03-23T13:34:25Z</time>
      </trkpt>
      <trkpt lat="44.3536" lon="5.73545">
        <ele>624</ele>
        <time>2019-03-23T13:34:26Z</time>
      </trkpt>
      <trkpt lat="44.35363" lon="5.73538">
        <ele>624</ele>
        <time>2019-03-23T13:34:27Z</time>
      </trkpt>
      <trkpt lat="44.35365" lon="5.73531">
        <ele>624</ele>
        <time>2019-03-23T13:34:28Z</time>
      </trkpt>
      <trkpt lat="44.35368" lon="5.73524">
        <ele>624</ele>
        <time>2019-03-23T13:34:29Z</time>
      </trkpt>
      <trkpt lat="44.35371" lon="5.73517">
        <ele>624</ele>
        <time>2019-03-23T13:34:30Z</time>
      </trkpt>
      <trkpt lat="44.35374" lon="5.7351">
        <ele>624</ele>
        <time>2019-03-23T13:34:31Z</time>
      </trkpt>
      <trkpt lat="44.35377" lon="5.73503">
        <ele>624</ele>
        <time>2019-03-23T13:34:32Z</time>
      </trkpt>
      <trkpt lat="44.3538" lon="5.73496">
        <ele>624</ele>
        <time>2019-03-23T13:34:33Z</time>
      </trkpt>
      <trkpt lat="44.35383" lon="5.73488">
        <ele>624</ele>
        <time>2019-03-23T13:34:34Z</time>
      </trkpt>
      <trkpt lat="44.35386" lon="5.73481">
        <ele>624</ele>
        <time>2019-03-23T13:34:35Z</time>
      </trkpt>
      <trkpt lat="44.35389" lon="5.73473">
        <ele>624</ele>
        <time>2019-03-23T13:34:36Z</time>
      </trkpt>
      <trkpt lat="44.35392" lon="5.73466">
        <ele>624</ele>
        <time>2019-03-23T13:34:37Z</time>
      </trkpt>
      <trkpt lat="44.35395" lon="5.73458">
        <ele>624</ele>
        <time>2019-03-23T13:34:38Z</time>
      </trkpt>
      <trkpt lat="44.35397" lon="5.73451">
        <ele>624</ele>
        <time>2019-03-23T13:34:39Z</time>
      </trkpt>
      <trkpt lat="44.354" lon="5.73444">
        <ele>624</ele>
        <time>2019-03-23T13:34:40Z</time>
      </trkpt>
      <trkpt lat="44.35403" lon="5.73437">
        <ele>624</ele>
        <time>2019-03-23T13:34:41Z</time>
      </trkpt>
      <trkpt lat="44.35406" lon="5.7343">
        <ele>624</ele>
        <time>2019-03-23T13:34:42Z</time>
      </trkpt>
      <trkpt lat="44.35408" lon="5.73423">
        <ele>624</ele>
        <time>2019-03-23T13:34:43Z</time>
      </trkpt>
      <trkpt lat="44.35411" lon="5.73417">
        <ele>625</ele>
        <time>2019-03-23T13:34:44Z</time>
      </trkpt>
      <trkpt lat="44.35414" lon="5.7341">
        <ele>625</ele>
        <time>2019-03-23T13:34:45Z</time>
      </trkpt>
      <trkpt lat="44.35417" lon="5.73403">
        <ele>625</ele>
        <time>2019-03-23T13:34:46Z</time>
      </trkpt>
      <trkpt lat="44.3542" lon="5.73396">
        <ele>625</ele>
        <time>2019-03-23T13:34:47Z</time>
      </trkpt>
      <trkpt lat="44.35422" lon="5.73389">
        <ele>626</ele>
        <time>2019-03-23T13:34:48Z</time>
      </trkpt>
      <trkpt lat="44.35425" lon="5.73382">
        <ele>626</ele>
        <time>2019-03-23T13:34:49Z</time>
      </trkpt>
      <trkpt lat="44.35428" lon="5.73376">
        <ele>626</ele>
        <time>2019-03-23T13:34:50Z</time>
      </trkpt>
      <trkpt lat="44.35431" lon="5.73369">
        <ele>626</ele>
        <time>2019-03-23T13:34:51Z</time>
      </trkpt>
      <trkpt lat="44.35433" lon="5.73362">
        <ele>626</ele>
        <time>2019-03-23T13:34:52Z</time>
      </trkpt>
      <trkpt lat="44.35436" lon="5.73355">
        <ele>626</ele>
        <time>2019-03-23T13:34:53Z</time>
      </trkpt>
      <trkpt lat="44.35439" lon="5.73349">
        <ele>627</ele>
        <time>2019-03-23T13:34:54Z</time>
      </trkpt>
      <trkpt lat="44.35441" lon="5.73342">
        <ele>627</ele>
        <time>2019-03-23T13:34:55Z</time>
      </trkpt>
      <trkpt lat="44.35444" lon="5.73335">
        <ele>627</ele>
        <time>2019-03-23T13:34:56Z</time>
      </trkpt>
      <trkpt lat="44.35446" lon="5.73329">
        <ele>627</ele>
        <time>2019-03-23T13:34:57Z</time>
      </trkpt>
      <trkpt lat="44.35449" lon="5.73322">
        <ele>628</ele>
        <time>2019-03-23T13:34:58Z</time>
      </trkpt>
      <trkpt lat="44.35452" lon="5.73316">
        <ele>628</ele>
        <time>2019-03-23T13:34:59Z</time>
      </trkpt>
      <trkpt lat="44.35454" lon="5.7331">
        <ele>628</ele>
        <time>2019-03-23T13:35:00Z</time>
      </trkpt>
      <trkpt lat="44.35457" lon="5.73304">
        <ele>629</ele>
        <time>2019-03-23T13:35:01Z</time>
      </trkpt>
      <trkpt lat="44.35459" lon="5.73297">
        <ele>629</ele>
        <time>2019-03-23T13:35:02Z</time>
      </trkpt>
      <trkpt lat="44.35461" lon="5.73291">
        <ele>629</ele>
        <time>2019-03-23T13:35:03Z</time>
      </trkpt>
      <trkpt lat="44.35464" lon="5.73285">
        <ele>629</ele>
        <time>2019-03-23T13:35:04Z</time>
      </trkpt>
      <trkpt lat="44.35466" lon="5.73279">
        <ele>630</ele>
        <time>2019-03-23T13:35:05Z</time>
      </trkpt>
      <trkpt lat="44.35469" lon="5.73273">
        <ele>630</ele>
        <time>2019-03-23T13:35:06Z</time>
      </trkpt>
      <trkpt lat="44.35471" lon="5.73266">
        <ele>630</ele>
        <time>2019-03-23T13:35:07Z</time>
      </trkpt>
      <trkpt lat="44.35474" lon="5.7326">
        <ele>630</ele>
        <time>2019-03-23T13:35:08Z</time>
      </trkpt>
      <trkpt lat="44.35477" lon="5.73254">
        <ele>631</ele>
        <time>2019-03-23T13:35:09Z</time>
      </trkpt>
      <trkpt lat="44.35479" lon="5.73247">
        <ele>631</ele>
        <time>2019-03-23T13:35:10Z</time>
      </trkpt>
      <trkpt lat="44.35482" lon="5.73241">
        <ele>631</ele>
        <time>2019-03-23T13:35:11Z</time>
      </trkpt>
      <trkpt lat="44.35484" lon="5.73234">
        <ele>631</ele>
        <time>2019-03-23T13:35:12Z</time>
      </trkpt>
      <trkpt lat="44.35487" lon="5.73228">
        <ele>631</ele>
        <time>2019-03-23T13:35:13Z</time>
      </trkpt>
      <trkpt lat="44.3549" lon="5.73221">
        <ele>632</ele>
        <time>2019-03-23T13:35:14Z</time>
      </trkpt>
      <trkpt lat="44.35493" lon="5.73214">
        <ele>632</ele>
        <time>2019-03-23T13:35:15Z</time>
      </trkpt>
      <trkpt lat="44.35495" lon="5.73208">
        <ele>632</ele>
        <time>2019-03-23T13:35:16Z</time>
      </trkpt>
      <trkpt lat="44.35498" lon="5.73201">
        <ele>632</ele>
        <time>2019-03-23T13:35:17Z</time>
      </trkpt>
      <trkpt lat="44.355" lon="5.73195">
        <ele>632</ele>
        <time>2019-03-23T13:35:18Z</time>
      </trkpt>
      <trkpt lat="44.35503" lon="5.73188">
        <ele>632</ele>
        <time>2019-03-23T13:35:19Z</time>
      </trkpt>
      <trkpt lat="44.35506" lon="5.73182">
        <ele>633</ele>
        <time>2019-03-23T13:35:20Z</time>
      </trkpt>
      <trkpt lat="44.35509" lon="5.73176">
        <ele>633</ele>
        <time>2019-03-23T13:35:21Z</time>
      </trkpt>
      <trkpt lat="44.35511" lon="5.73169">
        <ele>633</ele>
        <time>2019-03-23T13:35:22Z</time>
      </trkpt>
      <trkpt lat="44.35514" lon="5.73163">
        <ele>633</ele>
        <time>2019-03-23T13:35:23Z</time>
      </trkpt>
      <trkpt lat="44.35516" lon="5.73156">
        <ele>633</ele>
        <time>2019-03-23T13:35:24Z</time>
      </trkpt>
      <trkpt lat="44.35519" lon="5.73149">
        <ele>633</ele>
        <time>2019-03-23T13:35:25Z</time>
      </trkpt>
      <trkpt lat="44.35521" lon="5.73143">
        <ele>633</ele>
        <time>2019-03-23T13:35:26Z</time>
      </trkpt>
      <trkpt lat="44.35523" lon="5.73136">
        <ele>634</ele>
        <time>2019-03-23T13:35:27Z</time>
      </trkpt>
      <trkpt lat="44.35526" lon="5.7313">
        <ele>634</ele>
        <time>2019-03-23T13:35:28Z</time>
      </trkpt>
      <trkpt lat="44.35529" lon="5.73123">
        <ele>634</ele>
        <time>2019-03-23T13:35:29Z</time>
      </trkpt>
      <trkpt lat="44.35532" lon="5.73116">
        <ele>634</ele>
        <time>2019-03-23T13:35:30Z</time>
      </trkpt>
      <trkpt lat="44.35534" lon="5.73108">
        <ele>634</ele>
        <time>2019-03-23T13:35:31Z</time>
      </trkpt>
      <trkpt lat="44.35537" lon="5.73102">
        <ele>634</ele>
        <time>2019-03-23T13:35:32Z</time>
      </trkpt>
      <trkpt lat="44.3554" lon="5.73095">
        <ele>634</ele>
        <time>2019-03-23T13:35:33Z</time>
      </trkpt>
      <trkpt lat="44.35543" lon="5.73088">
        <ele>635</ele>
        <time>2019-03-23T13:35:34Z</time>
      </trkpt>
      <trkpt lat="44.35546" lon="5.73081">
        <ele>635</ele>
        <time>2019-03-23T13:35:35Z</time>
      </trkpt>
      <trkpt lat="44.35548" lon="5.73074">
        <ele>635</ele>
        <time>2019-03-23T13:35:36Z</time>
      </trkpt>
      <trkpt lat="44.35551" lon="5.73067">
        <ele>635</ele>
        <time>2019-03-23T13:35:37Z</time>
      </trkpt>
      <trkpt lat="44.35554" lon="5.7306">
        <ele>635</ele>
        <time>2019-03-23T13:35:38Z</time>
      </trkpt>
      <trkpt lat="44.35557" lon="5.73053">
        <ele>635</ele>
        <time>2019-03-23T13:35:39Z</time>
      </trkpt>
      <trkpt lat="44.35559" lon="5.73046">
        <ele>635</ele>
        <time>2019-03-23T13:35:40Z</time>
      </trkpt>
      <trkpt lat="44.35562" lon="5.73039">
        <ele>636</ele>
        <time>2019-03-23T13:35:41Z</time>
      </trkpt>
      <trkpt lat="44.35565" lon="5.73032">
        <ele>636</ele>
        <time>2019-03-23T13:35:42Z</time>
      </trkpt>
      <trkpt lat="44.35568" lon="5.73026">
        <ele>636</ele>
        <time>2019-03-23T13:35:43Z</time>
      </trkpt>
      <trkpt lat="44.35571" lon="5.73019">
        <ele>636</ele>
        <time>2019-03-23T13:35:44Z</time>
      </trkpt>
      <trkpt lat="44.35573" lon="5.73011">
        <ele>636</ele>
        <time>2019-03-23T13:35:45Z</time>
      </trkpt>
      <trkpt lat="44.35576" lon="5.73004">
        <ele>636</ele>
        <time>2019-03-23T13:35:46Z</time>
      </trkpt>
      <trkpt lat="44.35579" lon="5.72997">
        <ele>636</ele>
        <time>2019-03-23T13:35:47Z</time>
      </trkpt>
      <trkpt lat="44.35582" lon="5.7299">
        <ele>637</ele>
        <time>2019-03-23T13:35:48Z</time>
      </trkpt>
      <trkpt lat="44.35585" lon="5.72983">
        <ele>637</ele>
        <time>2019-03-23T13:35:49Z</time>
      </trkpt>
      <trkpt lat="44.35587" lon="5.72976">
        <ele>637</ele>
        <time>2019-03-23T13:35:50Z</time>
      </trkpt>
      <trkpt lat="44.3559" lon="5.72969">
        <ele>637</ele>
        <time>2019-03-23T13:35:51Z</time>
      </trkpt>
      <trkpt lat="44.35593" lon="5.72962">
        <ele>637</ele>
        <time>2019-03-23T13:35:52Z</time>
      </trkpt>
      <trkpt lat="44.35596" lon="5.72955">
        <ele>637</ele>
        <time>2019-03-23T13:35:53Z</time>
      </trkpt>
      <trkpt lat="44.35599" lon="5.72948">
        <ele>637</ele>
        <time>2019-03-23T13:35:54Z</time>
      </trkpt>
      <trkpt lat="44.35602" lon="5.7294">
        <ele>638</ele>
        <time>2019-03-23T13:35:55Z</time>
      </trkpt>
      <trkpt lat="44.35605" lon="5.72933">
        <ele>638</ele>
        <time>2019-03-23T13:35:56Z</time>
      </trkpt>
      <trkpt lat="44.35608" lon="5.72926">
        <ele>638</ele>
        <time>2019-03-23T13:35:57Z</time>
      </trkpt>
      <trkpt lat="44.3561" lon="5.72918">
        <ele>638</ele>
        <time>2019-03-23T13:35:58Z</time>
      </trkpt>
      <trkpt lat="44.35613" lon="5.72911">
        <ele>638</ele>
        <time>2019-03-23T13:35:59Z</time>
      </trkpt>
      <trkpt lat="44.35615" lon="5.72903">
        <ele>638</ele>
        <time>2019-03-23T13:36:00Z</time>
      </trkpt>
      <trkpt lat="44.35617" lon="5.72895">
        <ele>639</ele>
        <time>2019-03-23T13:36:01Z</time>
      </trkpt>
      <trkpt lat="44.35619" lon="5.72887">
        <ele>639</ele>
        <time>2019-03-23T13:36:02Z</time>
      </trkpt>
      <trkpt lat="44.3562" lon="5.72878">
        <ele>639</ele>
        <time>2019-03-23T13:36:03Z</time>
      </trkpt>
      <trkpt lat="44.35621" lon="5.72869">
        <ele>639</ele>
        <time>2019-03-23T13:36:04Z</time>
      </trkpt>
      <trkpt lat="44.35621" lon="5.7286">
        <ele>639</ele>
        <time>2019-03-23T13:36:05Z</time>
      </trkpt>
      <trkpt lat="44.35621" lon="5.7285">
        <ele>639</ele>
        <time>2019-03-23T13:36:06Z</time>
      </trkpt>
      <trkpt lat="44.35621" lon="5.7284">
        <ele>639</ele>
        <time>2019-03-23T13:36:07Z</time>
      </trkpt>
      <trkpt lat="44.35621" lon="5.7283">
        <ele>639</ele>
        <time>2019-03-23T13:36:08Z</time>
      </trkpt>
      <trkpt lat="44.3562" lon="5.7282">
        <ele>639</ele>
        <time>2019-03-23T13:36:09Z</time>
      </trkpt>
      <trkpt lat="44.3562" lon="5.7281">
        <ele>639</ele>
        <time>2019-03-23T13:36:10Z</time>
      </trkpt>
      <trkpt lat="44.35619" lon="5.728">
        <ele>639</ele>
        <time>2019-03-23T13:36:11Z</time>
      </trkpt>
      <trkpt lat="44.35619" lon="5.7279">
        <ele>639</ele>
        <time>2019-03-23T13:36:12Z</time>
      </trkpt>
      <trkpt lat="44.35619" lon="5.72781">
        <ele>639</ele>
        <time>2019-03-23T13:36:13Z</time>
      </trkpt>
      <trkpt lat="44.35619" lon="5.72772">
        <ele>639</ele>
        <time>2019-03-23T13:36:14Z</time>
      </trkpt>
      <trkpt lat="44.35618" lon="5.72763">
        <ele>639</ele>
        <time>2019-03-23T13:36:15Z</time>
      </trkpt>
      <trkpt lat="44.35618" lon="5.72754">
        <ele>639</ele>
        <time>2019-03-23T13:36:16Z</time>
      </trkpt>
      <trkpt lat="44.35618" lon="5.72746">
        <ele>639</ele>
        <time>2019-03-23T13:36:17Z</time>
      </trkpt>
      <trkpt lat="44.35618" lon="5.72738">
        <ele>639</ele>
        <time>2019-03-23T13:36:18Z</time>
      </trkpt>
      <trkpt lat="44.35617" lon="5.7273">
        <ele>640</ele>
        <time>2019-03-23T13:36:19Z</time>
      </trkpt>
      <trkpt lat="44.35617" lon="5.72723">
        <ele>640</ele>
        <time>2019-03-23T13:36:20Z</time>
      </trkpt>
      <trkpt lat="44.35617" lon="5.72715">
        <ele>640</ele>
        <time>2019-03-23T13:36:21Z</time>
      </trkpt>
      <trkpt lat="44.35617" lon="5.72708">
        <ele>640</ele>
        <time>2019-03-23T13:36:22Z</time>
      </trkpt>
      <trkpt lat="44.35616" lon="5.72701">
        <ele>641</ele>
        <time>2019-03-23T13:36:23Z</time>
      </trkpt>
      <trkpt lat="44.35616" lon="5.72693">
        <ele>641</ele>
        <time>2019-03-23T13:36:24Z</time>
      </trkpt>
      <trkpt lat="44.35616" lon="5.72686">
        <ele>641</ele>
        <time>2019-03-23T13:36:25Z</time>
      </trkpt>
      <trkpt lat="44.35615" lon="5.72679">
        <ele>641</ele>
        <time>2019-03-23T13:36:26Z</time>
      </trkpt>
      <trkpt lat="44.35615" lon="5.72671">
        <ele>641</ele>
        <time>2019-03-23T13:36:27Z</time>
      </trkpt>
      <trkpt lat="44.35615" lon="5.72664">
        <ele>641</ele>
        <time>2019-03-23T13:36:28Z</time>
      </trkpt>
      <trkpt lat="44.35615" lon="5.72657">
        <ele>642</ele>
        <time>2019-03-23T13:36:29Z</time>
      </trkpt>
      <trkpt lat="44.35614" lon="5.72649">
        <ele>642</ele>
        <time>2019-03-23T13:36:30Z</time>
      </trkpt>
      <trkpt lat="44.35614" lon="5.72642">
        <ele>642</ele>
        <time>2019-03-23T13:36:31Z</time>
      </trkpt>
      <trkpt lat="44.35614" lon="5.72635">
        <ele>642</ele>
        <time>2019-03-23T13:36:32Z</time>
      </trkpt>
      <trkpt lat="44.35613" lon="5.72627">
        <ele>642</ele>
        <time>2019-03-23T13:36:33Z</time>
      </trkpt>
      <trkpt lat="44.35613" lon="5.7262">
        <ele>642</ele>
        <time>2019-03-23T13:36:34Z</time>
      </trkpt>
      <trkpt lat="44.35613" lon="5.72613">
        <ele>642</ele>
        <time>2019-03-23T13:36:35Z</time>
      </trkpt>
      <trkpt lat="44.35613" lon="5.72605">
        <ele>643</ele>
        <time>2019-03-23T13:36:36Z</time>
      </trkpt>
      <trkpt lat="44.35613" lon="5.72598">
        <ele>643</ele>
        <time>2019-03-23T13:36:37Z</time>
      </trkpt>
      <trkpt lat="44.35612" lon="5.72591">
        <ele>643</ele>
        <time>2019-03-23T13:36:38Z</time>
      </trkpt>
      <trkpt lat="44.35611" lon="5.72583">
        <ele>643</ele>
        <time>2019-03-23T13:36:39Z</time>
      </trkpt>
      <trkpt lat="44.35611" lon="5.72576">
        <ele>643</ele>
        <time>2019-03-23T13:36:40Z</time>
      </trkpt>
      <trkpt lat="44.35611" lon="5.72569">
        <ele>643</ele>
        <time>2019-03-23T13:36:41Z</time>
      </trkpt>
      <trkpt lat="44.3561" lon="5.72562">
        <ele>643</ele>
        <time>2019-03-23T13:36:42Z</time>
      </trkpt>
      <trkpt lat="44.3561" lon="5.72554">
        <ele>643</ele>
        <time>2019-03-23T13:36:43Z</time>
      </trkpt>
      <trkpt lat="44.3561" lon="5.72547">
        <ele>643</ele>
        <time>2019-03-23T13:36:44Z</time>
      </trkpt>
      <trkpt lat="44.3561" lon="5.7254">
        <ele>643</ele>
        <time>2019-03-23T13:36:45Z</time>
      </trkpt>
      <trkpt lat="44.35609" lon="5.72533">
        <ele>643</ele>
        <time>2019-03-23T13:36:46Z</time>
      </trkpt>
      <trkpt lat="44.35609" lon="5.72525">
        <ele>644</ele>
        <time>2019-03-23T13:36:47Z</time>
      </trkpt>
      <trkpt lat="44.35609" lon="5.72518">
        <ele>644</ele>
        <time>2019-03-23T13:36:48Z</time>
      </trkpt>
      <trkpt lat="44.35609" lon="5.72511">
        <ele>644</ele>
        <time>2019-03-23T13:36:49Z</time>
      </trkpt>
      <trkpt lat="44.35609" lon="5.72503">
        <ele>644</ele>
        <time>2019-03-23T13:36:50Z</time>
      </trkpt>
      <trkpt lat="44.35609" lon="5.72496">
        <ele>644</ele>
        <time>2019-03-23T13:36:51Z</time>
      </trkpt>
      <trkpt lat="44.35609" lon="5.72488">
        <ele>644</ele>
        <time>2019-03-23T13:36:52Z</time>
      </trkpt>
      <trkpt lat="44.35608" lon="5.72481">
        <ele>644</ele>
        <time>2019-03-23T13:36:53Z</time>
      </trkpt>
      <trkpt lat="44.35608" lon="5.72473">
        <ele>644</ele>
        <time>2019-03-23T13:36:54Z</time>
      </trkpt>
      <trkpt lat="44.35608" lon="5.72466">
        <ele>644</ele>
        <time>2019-03-23T13:36:55Z</time>
      </trkpt>
      <trkpt lat="44.35607" lon="5.72459">
        <ele>644</ele>
        <time>2019-03-23T13:36:56Z</time>
      </trkpt>
      <trkpt lat="44.35607" lon="5.72451">
        <ele>645</ele>
        <time>2019-03-23T13:36:57Z</time>
      </trkpt>
      <trkpt lat="44.35607" lon="5.72443">
        <ele>645</ele>
        <time>2019-03-23T13:36:58Z</time>
      </trkpt>
      <trkpt lat="44.35606" lon="5.72436">
        <ele>645</ele>
        <time>2019-03-23T13:36:59Z</time>
      </trkpt>
      <trkpt lat="44.35606" lon="5.72429">
        <ele>645</ele>
        <time>2019-03-23T13:37:00Z</time>
      </trkpt>
      <trkpt lat="44.35606" lon="5.72422">
        <ele>645</ele>
        <time>2019-03-23T13:37:01Z</time>
      </trkpt>
      <trkpt lat="44.35606" lon="5.72415">
        <ele>645</ele>
        <time>2019-03-23T13:37:02Z</time>
      </trkpt>
      <trkpt lat="44.35606" lon="5.72408">
        <ele>645</ele>
        <time>2019-03-23T13:37:03Z</time>
      </trkpt>
      <trkpt lat="44.35606" lon="5.724">
        <ele>645</ele>
        <time>2019-03-23T13:37:04Z</time>
      </trkpt>
      <trkpt lat="44.35605" lon="5.72393">
        <ele>646</ele>
        <time>2019-03-23T13:37:05Z</time>
      </trkpt>
      <trkpt lat="44.35605" lon="5.72386">
        <ele>646</ele>
        <time>2019-03-23T13:37:06Z</time>
      </trkpt>
      <trkpt lat="44.35605" lon="5.72378">
        <ele>646</ele>
        <time>2019-03-23T13:37:07Z</time>
      </trkpt>
      <trkpt lat="44.35604" lon="5.72371">
        <ele>646</ele>
        <time>2019-03-23T13:37:08Z</time>
      </trkpt>
      <trkpt lat="44.35604" lon="5.72364">
        <ele>646</ele>
        <time>2019-03-23T13:37:09Z</time>
      </trkpt>
      <trkpt lat="44.35603" lon="5.72356">
        <ele>646</ele>
        <time>2019-03-23T13:37:10Z</time>
      </trkpt>
      <trkpt lat="44.35603" lon="5.72348">
        <ele>646</ele>
        <time>2019-03-23T13:37:11Z</time>
      </trkpt>
      <trkpt lat="44.35603" lon="5.7234">
        <ele>646</ele>
        <time>2019-03-23T13:37:12Z</time>
      </trkpt>
      <trkpt lat="44.35602" lon="5.72332">
        <ele>646</ele>
        <time>2019-03-23T13:37:13Z</time>
      </trkpt>
      <trkpt lat="44.35602" lon="5.72325">
        <ele>646</ele>
        <time>2019-03-23T13:37:14Z</time>
      </trkpt>
      <trkpt lat="44.35602" lon="5.72317">
        <ele>646</ele>
        <time>2019-03-23T13:37:15Z</time>
      </trkpt>
      <trkpt lat="44.35602" lon="5.72309">
        <ele>646</ele>
        <time>2019-03-23T13:37:16Z</time>
      </trkpt>
      <trkpt lat="44.35601" lon="5.72301">
        <ele>646</ele>
        <time>2019-03-23T13:37:17Z</time>
      </trkpt>
      <trkpt lat="44.35601" lon="5.72294">
        <ele>646</ele>
        <time>2019-03-23T13:37:18Z</time>
      </trkpt>
      <trkpt lat="44.35601" lon="5.72287">
        <ele>646</ele>
        <time>2019-03-23T13:37:19Z</time>
      </trkpt>
      <trkpt lat="44.35601" lon="5.72279">
        <ele>646</ele>
        <time>2019-03-23T13:37:20Z</time>
      </trkpt>
      <trkpt lat="44.35601" lon="5.72272">
        <ele>646</ele>
        <time>2019-03-23T13:37:21Z</time>
      </trkpt>
      <trkpt lat="44.35601" lon="5.72264">
        <ele>646</ele>
        <time>2019-03-23T13:37:22Z</time>
      </trkpt>
      <trkpt lat="44.356" lon="5.72257">
        <ele>646</ele>
        <time>2019-03-23T13:37:23Z</time>
      </trkpt>
      <trkpt lat="44.356" lon="5.72249">
        <ele>646</ele>
        <time>2019-03-23T13:37:24Z</time>
      </trkpt>
      <trkpt lat="44.356" lon="5.72241">
        <ele>646</ele>
        <time>2019-03-23T13:37:25Z</time>
      </trkpt>
      <trkpt lat="44.35599" lon="5.72234">
        <ele>646</ele>
        <time>2019-03-23T13:37:26Z</time>
      </trkpt>
      <trkpt lat="44.35598" lon="5.72226">
        <ele>646</ele>
        <time>2019-03-23T13:37:27Z</time>
      </trkpt>
      <trkpt lat="44.35598" lon="5.72218">
        <ele>646</ele>
        <time>2019-03-23T13:37:28Z</time>
      </trkpt>
      <trkpt lat="44.35598" lon="5.7221">
        <ele>646</ele>
        <time>2019-03-23T13:37:29Z</time>
      </trkpt>
      <trkpt lat="44.35597" lon="5.72201">
        <ele>646</ele>
        <time>2019-03-23T13:37:30Z</time>
      </trkpt>
      <trkpt lat="44.35596" lon="5.72193">
        <ele>646</ele>
        <time>2019-03-23T13:37:31Z</time>
      </trkpt>
      <trkpt lat="44.35596" lon="5.72186">
        <ele>646</ele>
        <time>2019-03-23T13:37:32Z</time>
      </trkpt>
      <trkpt lat="44.35596" lon="5.72178">
        <ele>646</ele>
        <time>2019-03-23T13:37:33Z</time>
      </trkpt>
      <trkpt lat="44.35595" lon="5.7217">
        <ele>647</ele>
        <time>2019-03-23T13:37:34Z</time>
      </trkpt>
      <trkpt lat="44.35595" lon="5.72162">
        <ele>647</ele>
        <time>2019-03-23T13:37:35Z</time>
      </trkpt>
      <trkpt lat="44.35595" lon="5.72155">
        <ele>647</ele>
        <time>2019-03-23T13:37:36Z</time>
      </trkpt>
      <trkpt lat="44.35595" lon="5.72147">
        <ele>647</ele>
        <time>2019-03-23T13:37:37Z</time>
      </trkpt>
      <trkpt lat="44.35595" lon="5.7214">
        <ele>647</ele>
        <time>2019-03-23T13:37:38Z</time>
      </trkpt>
      <trkpt lat="44.35595" lon="5.72132">
        <ele>647</ele>
        <time>2019-03-23T13:37:39Z</time>
      </trkpt>
      <trkpt lat="44.35594" lon="5.72125">
        <ele>647</ele>
        <time>2019-03-23T13:37:40Z</time>
      </trkpt>
      <trkpt lat="44.35594" lon="5.72118">
        <ele>647</ele>
        <time>2019-03-23T13:37:41Z</time>
      </trkpt>
      <trkpt lat="44.35594" lon="5.72111">
        <ele>647</ele>
        <time>2019-03-23T13:37:42Z</time>
      </trkpt>
      <trkpt lat="44.35594" lon="5.72103">
        <ele>647</ele>
        <time>2019-03-23T13:37:43Z</time>
      </trkpt>
      <trkpt lat="44.35594" lon="5.72096">
        <ele>647</ele>
        <time>2019-03-23T13:37:44Z</time>
      </trkpt>
      <trkpt lat="44.35594" lon="5.72088">
        <ele>647</ele>
        <time>2019-03-23T13:37:45Z</time>
      </trkpt>
      <trkpt lat="44.35593" lon="5.72081">
        <ele>647</ele>
        <time>2019-03-23T13:37:46Z</time>
      </trkpt>
      <trkpt lat="44.35593" lon="5.72073">
        <ele>647</ele>
        <time>2019-03-23T13:37:47Z</time>
      </trkpt>
      <trkpt lat="44.35593" lon="5.72066">
        <ele>647</ele>
        <time>2019-03-23T13:37:48Z</time>
      </trkpt>
      <trkpt lat="44.35593" lon="5.72058">
        <ele>647</ele>
        <time>2019-03-23T13:37:49Z</time>
      </trkpt>
      <trkpt lat="44.35593" lon="5.72051">
        <ele>647</ele>
        <time>2019-03-23T13:37:50Z</time>
      </trkpt>
      <trkpt lat="44.35593" lon="5.72043">
        <ele>647</ele>
        <time>2019-03-23T13:37:51Z</time>
      </trkpt>
      <trkpt lat="44.35592" lon="5.72036">
        <ele>647</ele>
        <time>2019-03-23T13:37:52Z</time>
      </trkpt>
      <trkpt lat="44.35592" lon="5.72029">
        <ele>647</ele>
        <time>2019-03-23T13:37:53Z</time>
      </trkpt>
      <trkpt lat="44.35592" lon="5.72021">
        <ele>647</ele>
        <time>2019-03-23T13:37:54Z</time>
      </trkpt>
      <trkpt lat="44.35591" lon="5.72015">
        <ele>647</ele>
        <time>2019-03-23T13:37:55Z</time>
      </trkpt>
      <trkpt lat="44.35591" lon="5.72008">
        <ele>647</ele>
        <time>2019-03-23T13:37:56Z</time>
      </trkpt>
      <trkpt lat="44.35591" lon="5.72001">
        <ele>647</ele>
        <time>2019-03-23T13:37:57Z</time>
      </trkpt>
      <trkpt lat="44.35591" lon="5.71994">
        <ele>648</ele>
        <time>2019-03-23T13:37:58Z</time>
      </trkpt>
      <trkpt lat="44.35591" lon="5.71987">
        <ele>648</ele>
        <time>2019-03-23T13:37:59Z</time>
      </trkpt>
      <trkpt lat="44.3559" lon="5.71981">
        <ele>648</ele>
        <time>2019-03-23T13:38:00Z</time>
      </trkpt>
      <trkpt lat="44.3559" lon="5.71974">
        <ele>648</ele>
        <time>2019-03-23T13:38:01Z</time>
      </trkpt>
      <trkpt lat="44.3559" lon="5.71968">
        <ele>648</ele>
        <time>2019-03-23T13:38:02Z</time>
      </trkpt>
      <trkpt lat="44.35589" lon="5.71961">
        <ele>648</ele>
        <time>2019-03-23T13:38:03Z</time>
      </trkpt>
      <trkpt lat="44.35589" lon="5.71954">
        <ele>648</ele>
        <time>2019-03-23T13:38:04Z</time>
      </trkpt>
      <trkpt lat="44.35588" lon="5.71947">
        <ele>648</ele>
        <time>2019-03-23T13:38:05Z</time>
      </trkpt>
      <trkpt lat="44.35588" lon="5.7194">
        <ele>648</ele>
        <time>2019-03-23T13:38:06Z</time>
      </trkpt>
      <trkpt lat="44.35588" lon="5.71932">
        <ele>648</ele>
        <time>2019-03-23T13:38:07Z</time>
      </trkpt>
      <trkpt lat="44.35587" lon="5.71925">
        <ele>648</ele>
        <time>2019-03-23T13:38:08Z</time>
      </trkpt>
      <trkpt lat="44.35587" lon="5.71917">
        <ele>648</ele>
        <time>2019-03-23T13:38:09Z</time>
      </trkpt>
      <trkpt lat="44.35587" lon="5.71909">
        <ele>649</ele>
        <time>2019-03-23T13:38:10Z</time>
      </trkpt>
      <trkpt lat="44.35586" lon="5.71902">
        <ele>649</ele>
        <time>2019-03-23T13:38:11Z</time>
      </trkpt>
      <trkpt lat="44.35586" lon="5.71894">
        <ele>649</ele>
        <time>2019-03-23T13:38:12Z</time>
      </trkpt>
      <trkpt lat="44.35586" lon="5.71886">
        <ele>649</ele>
        <time>2019-03-23T13:38:13Z</time>
      </trkpt>
      <trkpt lat="44.35585" lon="5.71878">
        <ele>649</ele>
        <time>2019-03-23T13:38:14Z</time>
      </trkpt>
      <trkpt lat="44.35585" lon="5.7187">
        <ele>649</ele>
        <time>2019-03-23T13:38:15Z</time>
      </trkpt>
      <trkpt lat="44.35585" lon="5.71863">
        <ele>649</ele>
        <time>2019-03-23T13:38:16Z</time>
      </trkpt>
      <trkpt lat="44.35585" lon="5.71855">
        <ele>649</ele>
        <time>2019-03-23T13:38:17Z</time>
      </trkpt>
      <trkpt lat="44.35584" lon="5.71847">
        <ele>649</ele>
        <time>2019-03-23T13:38:18Z</time>
      </trkpt>
      <trkpt lat="44.35584" lon="5.71839">
        <ele>649</ele>
        <time>2019-03-23T13:38:19Z</time>
      </trkpt>
      <trkpt lat="44.35584" lon="5.71832">
        <ele>649</ele>
        <time>2019-03-23T13:38:20Z</time>
      </trkpt>
      <trkpt lat="44.35583" lon="5.71824">
        <ele>649</ele>
        <time>2019-03-23T13:38:21Z</time>
      </trkpt>
      <trkpt lat="44.35583" lon="5.71817">
        <ele>649</ele>
        <time>2019-03-23T13:38:22Z</time>
      </trkpt>
      <trkpt lat="44.35583" lon="5.71809">
        <ele>649</ele>
        <time>2019-03-23T13:38:23Z</time>
      </trkpt>
      <trkpt lat="44.35583" lon="5.71802">
        <ele>649</ele>
        <time>2019-03-23T13:38:24Z</time>
      </trkpt>
      <trkpt lat="44.35582" lon="5.71795">
        <ele>649</ele>
        <time>2019-03-23T13:38:25Z</time>
      </trkpt>
      <trkpt lat="44.35582" lon="5.71787">
        <ele>649</ele>
        <time>2019-03-23T13:38:26Z</time>
      </trkpt>
      <trkpt lat="44.35582" lon="5.71779">
        <ele>649</ele>
        <time>2019-03-23T13:38:27Z</time>
      </trkpt>
      <trkpt lat="44.35582" lon="5.71771">
        <ele>650</ele>
        <time>2019-03-23T13:38:28Z</time>
      </trkpt>
      <trkpt lat="44.35581" lon="5.71764">
        <ele>650</ele>
        <time>2019-03-23T13:38:29Z</time>
      </trkpt>
      <trkpt lat="44.35581" lon="5.71756">
        <ele>650</ele>
        <time>2019-03-23T13:38:30Z</time>
      </trkpt>
      <trkpt lat="44.35581" lon="5.71749">
        <ele>650</ele>
        <time>2019-03-23T13:38:31Z</time>
      </trkpt>
      <trkpt lat="44.35581" lon="5.71741">
        <ele>650</ele>
        <time>2019-03-23T13:38:32Z</time>
      </trkpt>
      <trkpt lat="44.35581" lon="5.71734">
        <ele>650</ele>
        <time>2019-03-23T13:38:33Z</time>
      </trkpt>
      <trkpt lat="44.3558" lon="5.71727">
        <ele>651</ele>
        <time>2019-03-23T13:38:34Z</time>
      </trkpt>
      <trkpt lat="44.3558" lon="5.71719">
        <ele>651</ele>
        <time>2019-03-23T13:38:35Z</time>
      </trkpt>
      <trkpt lat="44.3558" lon="5.71712">
        <ele>651</ele>
        <time>2019-03-23T13:38:36Z</time>
      </trkpt>
      <trkpt lat="44.3558" lon="5.71704">
        <ele>651</ele>
        <time>2019-03-23T13:38:37Z</time>
      </trkpt>
      <trkpt lat="44.3558" lon="5.71697">
        <ele>651</ele>
        <time>2019-03-23T13:38:38Z</time>
      </trkpt>
      <trkpt lat="44.35579" lon="5.7169">
        <ele>651</ele>
        <time>2019-03-23T13:38:39Z</time>
      </trkpt>
      <trkpt lat="44.35579" lon="5.71683">
        <ele>651</ele>
        <time>2019-03-23T13:38:40Z</time>
      </trkpt>
      <trkpt lat="44.35579" lon="5.71676">
        <ele>651</ele>
        <time>2019-03-23T13:38:41Z</time>
      </trkpt>
      <trkpt lat="44.35579" lon="5.71669">
        <ele>651</ele>
        <time>2019-03-23T13:38:42Z</time>
      </trkpt>
      <trkpt lat="44.35579" lon="5.71663">
        <ele>651</ele>
        <time>2019-03-23T13:38:43Z</time>
      </trkpt>
      <trkpt lat="44.35579" lon="5.71656">
        <ele>652</ele>
        <time>2019-03-23T13:38:44Z</time>
      </trkpt>
      <trkpt lat="44.35579" lon="5.71649">
        <ele>652</ele>
        <time>2019-03-23T13:38:45Z</time>
      </trkpt>
      <trkpt lat="44.35579" lon="5.71642">
        <ele>652</ele>
        <time>2019-03-23T13:38:46Z</time>
      </trkpt>
      <trkpt lat="44.35579" lon="5.71635">
        <ele>652</ele>
        <time>2019-03-23T13:38:47Z</time>
      </trkpt>
      <trkpt lat="44.35579" lon="5.71628">
        <ele>652</ele>
        <time>2019-03-23T13:38:48Z</time>
      </trkpt>
      <trkpt lat="44.35578" lon="5.7162">
        <ele>652</ele>
        <time>2019-03-23T13:38:49Z</time>
      </trkpt>
      <trkpt lat="44.35578" lon="5.71613">
        <ele>652</ele>
        <time>2019-03-23T13:38:50Z</time>
      </trkpt>
      <trkpt lat="44.35577" lon="5.71606">
        <ele>652</ele>
        <time>2019-03-23T13:38:51Z</time>
      </trkpt>
      <trkpt lat="44.35577" lon="5.71598">
        <ele>652</ele>
        <time>2019-03-23T13:38:52Z</time>
      </trkpt>
      <trkpt lat="44.35577" lon="5.71591">
        <ele>652</ele>
        <time>2019-03-23T13:38:53Z</time>
      </trkpt>
      <trkpt lat="44.35577" lon="5.71584">
        <ele>652</ele>
        <time>2019-03-23T13:38:54Z</time>
      </trkpt>
      <trkpt lat="44.35577" lon="5.71576">
        <ele>652</ele>
        <time>2019-03-23T13:38:55Z</time>
      </trkpt>
      <trkpt lat="44.35577" lon="5.71569">
        <ele>652</ele>
        <time>2019-03-23T13:38:56Z</time>
      </trkpt>
      <trkpt lat="44.35576" lon="5.71563">
        <ele>652</ele>
        <time>2019-03-23T13:38:57Z</time>
      </trkpt>
      <trkpt lat="44.35576" lon="5.71556">
        <ele>652</ele>
        <time>2019-03-23T13:38:58Z</time>
      </trkpt>
      <trkpt lat="44.35576" lon="5.71549">
        <ele>652</ele>
        <time>2019-03-23T13:38:59Z</time>
      </trkpt>
      <trkpt lat="44.35575" lon="5.71542">
        <ele>652</ele>
        <time>2019-03-23T13:39:00Z</time>
      </trkpt>
      <trkpt lat="44.35575" lon="5.71536">
        <ele>652</ele>
        <time>2019-03-23T13:39:01Z</time>
      </trkpt>
      <trkpt lat="44.35575" lon="5.71529">
        <ele>652</ele>
        <time>2019-03-23T13:39:02Z</time>
      </trkpt>
      <trkpt lat="44.35574" lon="5.71522">
        <ele>652</ele>
        <time>2019-03-23T13:39:03Z</time>
      </trkpt>
      <trkpt lat="44.35574" lon="5.71516">
        <ele>652</ele>
        <time>2019-03-23T13:39:04Z</time>
      </trkpt>
      <trkpt lat="44.35574" lon="5.71509">
        <ele>653</ele>
        <time>2019-03-23T13:39:05Z</time>
      </trkpt>
      <trkpt lat="44.35574" lon="5.71502">
        <ele>653</ele>
        <time>2019-03-23T13:39:06Z</time>
      </trkpt>
      <trkpt lat="44.35573" lon="5.71495">
        <ele>653</ele>
        <time>2019-03-23T13:39:07Z</time>
      </trkpt>
      <trkpt lat="44.35573" lon="5.71489">
        <ele>653</ele>
        <time>2019-03-23T13:39:08Z</time>
      </trkpt>
      <trkpt lat="44.35573" lon="5.71482">
        <ele>653</ele>
        <time>2019-03-23T13:39:09Z</time>
      </trkpt>
      <trkpt lat="44.35572" lon="5.71476">
        <ele>654</ele>
        <time>2019-03-23T13:39:10Z</time>
      </trkpt>
      <trkpt lat="44.35572" lon="5.71469">
        <ele>654</ele>
        <time>2019-03-23T13:39:11Z</time>
      </trkpt>
      <trkpt lat="44.35572" lon="5.71462">
        <ele>654</ele>
        <time>2019-03-23T13:39:12Z</time>
      </trkpt>
      <trkpt lat="44.35572" lon="5.71455">
        <ele>654</ele>
        <time>2019-03-23T13:39:13Z</time>
      </trkpt>
      <trkpt lat="44.35572" lon="5.71449">
        <ele>654</ele>
        <time>2019-03-23T13:39:14Z</time>
      </trkpt>
      <trkpt lat="44.35572" lon="5.71442">
        <ele>654</ele>
        <time>2019-03-23T13:39:15Z</time>
      </trkpt>
      <trkpt lat="44.35572" lon="5.71435">
        <ele>654</ele>
        <time>2019-03-23T13:39:16Z</time>
      </trkpt>
      <trkpt lat="44.35572" lon="5.71429">
        <ele>655</ele>
        <time>2019-03-23T13:39:17Z</time>
      </trkpt>
      <trkpt lat="44.35571" lon="5.71422">
        <ele>655</ele>
        <time>2019-03-23T13:39:18Z</time>
      </trkpt>
      <trkpt lat="44.35571" lon="5.71416">
        <ele>655</ele>
        <time>2019-03-23T13:39:19Z</time>
      </trkpt>
      <trkpt lat="44.35571" lon="5.7141">
        <ele>655</ele>
        <time>2019-03-23T13:39:20Z</time>
      </trkpt>
      <trkpt lat="44.3557" lon="5.71405">
        <ele>655</ele>
        <time>2019-03-23T13:39:21Z</time>
      </trkpt>
      <trkpt lat="44.3557" lon="5.71399">
        <ele>656</ele>
        <time>2019-03-23T13:39:22Z</time>
      </trkpt>
      <trkpt lat="44.3557" lon="5.71393">
        <ele>656</ele>
        <time>2019-03-23T13:39:23Z</time>
      </trkpt>
      <trkpt lat="44.3557" lon="5.71387">
        <ele>656</ele>
        <time>2019-03-23T13:39:24Z</time>
      </trkpt>
      <trkpt lat="44.3557" lon="5.71381">
        <ele>656</ele>
        <time>2019-03-23T13:39:25Z</time>
      </trkpt>
      <trkpt lat="44.3557" lon="5.71375">
        <ele>657</ele>
        <time>2019-03-23T13:39:26Z</time>
      </trkpt>
      <trkpt lat="44.35569" lon="5.71369">
        <ele>657</ele>
        <time>2019-03-23T13:39:27Z</time>
      </trkpt>
      <trkpt lat="44.35569" lon="5.71363">
        <ele>657</ele>
        <time>2019-03-23T13:39:28Z</time>
      </trkpt>
      <trkpt lat="44.35569" lon="5.71357">
        <ele>657</ele>
        <time>2019-03-23T13:39:29Z</time>
      </trkpt>
      <trkpt lat="44.35569" lon="5.71352">
        <ele>658</ele>
        <time>2019-03-23T13:39:30Z</time>
      </trkpt>
      <trkpt lat="44.35569" lon="5.71347">
        <ele>658</ele>
        <time>2019-03-23T13:39:31Z</time>
      </trkpt>
      <trkpt lat="44.35569" lon="5.71342">
        <ele>658</ele>
        <time>2019-03-23T13:39:32Z</time>
      </trkpt>
      <trkpt lat="44.35568" lon="5.71336">
        <ele>658</ele>
        <time>2019-03-23T13:39:33Z</time>
      </trkpt>
      <trkpt lat="44.35568" lon="5.71331">
        <ele>658</ele>
        <time>2019-03-23T13:39:34Z</time>
      </trkpt>
      <trkpt lat="44.35567" lon="5.71325">
        <ele>658</ele>
        <time>2019-03-23T13:39:35Z</time>
      </trkpt>
      <trkpt lat="44.35566" lon="5.7132">
        <ele>659</ele>
        <time>2019-03-23T13:39:36Z</time>
      </trkpt>
      <trkpt lat="44.35565" lon="5.71315">
        <ele>659</ele>
        <time>2019-03-23T13:39:37Z</time>
      </trkpt>
      <trkpt lat="44.35564" lon="5.7131">
        <ele>659</ele>
        <time>2019-03-23T13:39:38Z</time>
      </trkpt>
      <trkpt lat="44.35563" lon="5.71305">
        <ele>660</ele>
        <time>2019-03-23T13:39:39Z</time>
      </trkpt>
      <trkpt lat="44.35561" lon="5.713">
        <ele>660</ele>
        <time>2019-03-23T13:39:40Z</time>
      </trkpt>
      <trkpt lat="44.3556" lon="5.71295">
        <ele>660</ele>
        <time>2019-03-23T13:39:41Z</time>
      </trkpt>
      <trkpt lat="44.35558" lon="5.7129">
        <ele>660</ele>
        <time>2019-03-23T13:39:42Z</time>
      </trkpt>
      <trkpt lat="44.35556" lon="5.71285">
        <ele>661</ele>
        <time>2019-03-23T13:39:43Z</time>
      </trkpt>
      <trkpt lat="44.35553" lon="5.7128">
        <ele>661</ele>
        <time>2019-03-23T13:39:44Z</time>
      </trkpt>
      <trkpt lat="44.35551" lon="5.71275">
        <ele>661</ele>
        <time>2019-03-23T13:39:45Z</time>
      </trkpt>
      <trkpt lat="44.35548" lon="5.71271">
        <ele>661</ele>
        <time>2019-03-23T13:39:46Z</time>
      </trkpt>
      <trkpt lat="44.35546" lon="5.71265">
        <ele>661</ele>
        <time>2019-03-23T13:39:47Z</time>
      </trkpt>
      <trkpt lat="44.35544" lon="5.7126">
        <ele>661</ele>
        <time>2019-03-23T13:39:48Z</time>
      </trkpt>
      <trkpt lat="44.35542" lon="5.71255">
        <ele>661</ele>
        <time>2019-03-23T13:39:49Z</time>
      </trkpt>
      <trkpt lat="44.3554" lon="5.7125">
        <ele>661</ele>
        <time>2019-03-23T13:39:50Z</time>
      </trkpt>
      <trkpt lat="44.35537" lon="5.71244">
        <ele>661</ele>
        <time>2019-03-23T13:39:51Z</time>
      </trkpt>
      <trkpt lat="44.35535" lon="5.71239">
        <ele>661</ele>
        <time>2019-03-23T13:39:52Z</time>
      </trkpt>
      <trkpt lat="44.35533" lon="5.71234">
        <ele>661</ele>
        <time>2019-03-23T13:39:53Z</time>
      </trkpt>
      <trkpt lat="44.3553" lon="5.71229">
        <ele>661</ele>
        <time>2019-03-23T13:39:54Z</time>
      </trkpt>
      <trkpt lat="44.35528" lon="5.71224">
        <ele>661</ele>
        <time>2019-03-23T13:39:55Z</time>
      </trkpt>
      <trkpt lat="44.35526" lon="5.71218">
        <ele>662</ele>
        <time>2019-03-23T13:39:56Z</time>
      </trkpt>
      <trkpt lat="44.35524" lon="5.71213">
        <ele>662</ele>
        <time>2019-03-23T13:39:57Z</time>
      </trkpt>
      <trkpt lat="44.35521" lon="5.71208">
        <ele>662</ele>
        <time>2019-03-23T13:39:58Z</time>
      </trkpt>
      <trkpt lat="44.35519" lon="5.71204">
        <ele>662</ele>
        <time>2019-03-23T13:39:59Z</time>
      </trkpt>
      <trkpt lat="44.35516" lon="5.71199">
        <ele>662</ele>
        <time>2019-03-23T13:40:00Z</time>
      </trkpt>
      <trkpt lat="44.35514" lon="5.71194">
        <ele>662</ele>
        <time>2019-03-23T13:40:01Z</time>
      </trkpt>
      <trkpt lat="44.35512" lon="5.71189">
        <ele>663</ele>
        <time>2019-03-23T13:40:02Z</time>
      </trkpt>
      <trkpt lat="44.35509" lon="5.71184">
        <ele>663</ele>
        <time>2019-03-23T13:40:03Z</time>
      </trkpt>
      <trkpt lat="44.35507" lon="5.71178">
        <ele>663</ele>
        <time>2019-03-23T13:40:04Z</time>
      </trkpt>
      <trkpt lat="44.35505" lon="5.71173">
        <ele>663</ele>
        <time>2019-03-23T13:40:05Z</time>
      </trkpt>
      <trkpt lat="44.35503" lon="5.71168">
        <ele>663</ele>
        <time>2019-03-23T13:40:06Z</time>
      </trkpt>
      <trkpt lat="44.355" lon="5.71163">
        <ele>663</ele>
        <time>2019-03-23T13:40:07Z</time>
      </trkpt>
      <trkpt lat="44.35498" lon="5.71157">
        <ele>663</ele>
        <time>2019-03-23T13:40:08Z</time>
      </trkpt>
      <trkpt lat="44.35496" lon="5.71152">
        <ele>663</ele>
        <time>2019-03-23T13:40:09Z</time>
      </trkpt>
      <trkpt lat="44.35494" lon="5.71146">
        <ele>663</ele>
        <time>2019-03-23T13:40:10Z</time>
      </trkpt>
      <trkpt lat="44.35492" lon="5.7114">
        <ele>663</ele>
        <time>2019-03-23T13:40:11Z</time>
      </trkpt>
      <trkpt lat="44.35491" lon="5.71134">
        <ele>663</ele>
        <time>2019-03-23T13:40:12Z</time>
      </trkpt>
      <trkpt lat="44.35489" lon="5.71129">
        <ele>663</ele>
        <time>2019-03-23T13:40:13Z</time>
      </trkpt>
      <trkpt lat="44.35487" lon="5.71123">
        <ele>663</ele>
        <time>2019-03-23T13:40:14Z</time>
      </trkpt>
      <trkpt lat="44.35486" lon="5.71117">
        <ele>663</ele>
        <time>2019-03-23T13:40:15Z</time>
      </trkpt>
      <trkpt lat="44.35484" lon="5.71111">
        <ele>663</ele>
        <time>2019-03-23T13:40:16Z</time>
      </trkpt>
      <trkpt lat="44.35483" lon="5.71105">
        <ele>663</ele>
        <time>2019-03-23T13:40:17Z</time>
      </trkpt>
      <trkpt lat="44.35482" lon="5.71099">
        <ele>663</ele>
        <time>2019-03-23T13:40:18Z</time>
      </trkpt>
      <trkpt lat="44.35481" lon="5.71093">
        <ele>663</ele>
        <time>2019-03-23T13:40:19Z</time>
      </trkpt>
      <trkpt lat="44.3548" lon="5.71087">
        <ele>664</ele>
        <time>2019-03-23T13:40:20Z</time>
      </trkpt>
      <trkpt lat="44.3548" lon="5.7108">
        <ele>664</ele>
        <time>2019-03-23T13:40:21Z</time>
      </trkpt>
      <trkpt lat="44.3548" lon="5.71074">
        <ele>664</ele>
        <time>2019-03-23T13:40:22Z</time>
      </trkpt>
      <trkpt lat="44.3548" lon="5.71068">
        <ele>664</ele>
        <time>2019-03-23T13:40:23Z</time>
      </trkpt>
      <trkpt lat="44.35479" lon="5.71061">
        <ele>664</ele>
        <time>2019-03-23T13:40:24Z</time>
      </trkpt>
      <trkpt lat="44.3548" lon="5.71055">
        <ele>664</ele>
        <time>2019-03-23T13:40:25Z</time>
      </trkpt>
      <trkpt lat="44.3548" lon="5.71048">
        <ele>664</ele>
        <time>2019-03-23T13:40:26Z</time>
      </trkpt>
      <trkpt lat="44.35481" lon="5.71042">
        <ele>664</ele>
        <time>2019-03-23T13:40:27Z</time>
      </trkpt>
      <trkpt lat="44.35482" lon="5.71035">
        <ele>664</ele>
        <time>2019-03-23T13:40:28Z</time>
      </trkpt>
      <trkpt lat="44.35483" lon="5.71028">
        <ele>665</ele>
        <time>2019-03-23T13:40:29Z</time>
      </trkpt>
      <trkpt lat="44.35484" lon="5.71021">
        <ele>665</ele>
        <time>2019-03-23T13:40:30Z</time>
      </trkpt>
      <trkpt lat="44.35484" lon="5.71014">
        <ele>665</ele>
        <time>2019-03-23T13:40:31Z</time>
      </trkpt>
      <trkpt lat="44.35485" lon="5.71007">
        <ele>665</ele>
        <time>2019-03-23T13:40:32Z</time>
      </trkpt>
      <trkpt lat="44.35485" lon="5.71001">
        <ele>665</ele>
        <time>2019-03-23T13:40:33Z</time>
      </trkpt>
      <trkpt lat="44.35485" lon="5.70994">
        <ele>666</ele>
        <time>2019-03-23T13:40:34Z</time>
      </trkpt>
      <trkpt lat="44.35484" lon="5.70988">
        <ele>666</ele>
        <time>2019-03-23T13:40:35Z</time>
      </trkpt>
      <trkpt lat="44.35485" lon="5.70981">
        <ele>666</ele>
        <time>2019-03-23T13:40:36Z</time>
      </trkpt>
      <trkpt lat="44.35484" lon="5.70975">
        <ele>667</ele>
        <time>2019-03-23T13:40:37Z</time>
      </trkpt>
      <trkpt lat="44.35484" lon="5.70968">
        <ele>667</ele>
        <time>2019-03-23T13:40:38Z</time>
      </trkpt>
      <trkpt lat="44.35484" lon="5.70962">
        <ele>667</ele>
        <time>2019-03-23T13:40:39Z</time>
      </trkpt>
      <trkpt lat="44.35484" lon="5.70956">
        <ele>667</ele>
        <time>2019-03-23T13:40:40Z</time>
      </trkpt>
      <trkpt lat="44.35484" lon="5.7095">
        <ele>668</ele>
        <time>2019-03-23T13:40:41Z</time>
      </trkpt>
      <trkpt lat="44.35483" lon="5.70944">
        <ele>668</ele>
        <time>2019-03-23T13:40:42Z</time>
      </trkpt>
      <trkpt lat="44.35482" lon="5.70938">
        <ele>668</ele>
        <time>2019-03-23T13:40:43Z</time>
      </trkpt>
      <trkpt lat="44.35482" lon="5.70932">
        <ele>668</ele>
        <time>2019-03-23T13:40:44Z</time>
      </trkpt>
      <trkpt lat="44.3548" lon="5.70926">
        <ele>668</ele>
        <time>2019-03-23T13:40:45Z</time>
      </trkpt>
      <trkpt lat="44.35479" lon="5.70921">
        <ele>668</ele>
        <time>2019-03-23T13:40:46Z</time>
      </trkpt>
      <trkpt lat="44.35477" lon="5.70916">
        <ele>668</ele>
        <time>2019-03-23T13:40:47Z</time>
      </trkpt>
      <trkpt lat="44.35474" lon="5.70912">
        <ele>668</ele>
        <time>2019-03-23T13:40:48Z</time>
      </trkpt>
      <trkpt lat="44.35471" lon="5.70907">
        <ele>668</ele>
        <time>2019-03-23T13:40:49Z</time>
      </trkpt>
      <trkpt lat="44.35467" lon="5.70904">
        <ele>668</ele>
        <time>2019-03-23T13:40:50Z</time>
      </trkpt>
      <trkpt lat="44.35464" lon="5.70901">
        <ele>669</ele>
        <time>2019-03-23T13:40:51Z</time>
      </trkpt>
      <trkpt lat="44.3546" lon="5.70897">
        <ele>669</ele>
        <time>2019-03-23T13:40:52Z</time>
      </trkpt>
      <trkpt lat="44.35455" lon="5.70894">
        <ele>669</ele>
        <time>2019-03-23T13:40:53Z</time>
      </trkpt>
      <trkpt lat="44.35451" lon="5.70891">
        <ele>669</ele>
        <time>2019-03-23T13:40:54Z</time>
      </trkpt>
      <trkpt lat="44.35447" lon="5.70887">
        <ele>669</ele>
        <time>2019-03-23T13:40:55Z</time>
      </trkpt>
      <trkpt lat="44.35443" lon="5.70884">
        <ele>669</ele>
        <time>2019-03-23T13:40:56Z</time>
      </trkpt>
      <trkpt lat="44.35438" lon="5.70882">
        <ele>669</ele>
        <time>2019-03-23T13:40:57Z</time>
      </trkpt>
      <trkpt lat="44.35434" lon="5.70879">
        <ele>669</ele>
        <time>2019-03-23T13:40:58Z</time>
      </trkpt>
      <trkpt lat="44.3543" lon="5.70876">
        <ele>669</ele>
        <time>2019-03-23T13:40:59Z</time>
      </trkpt>
      <trkpt lat="44.35426" lon="5.70874">
        <ele>670</ele>
        <time>2019-03-23T13:41:00Z</time>
      </trkpt>
      <trkpt lat="44.35421" lon="5.70871">
        <ele>670</ele>
        <time>2019-03-23T13:41:01Z</time>
      </trkpt>
      <trkpt lat="44.35418" lon="5.70869">
        <ele>670</ele>
        <time>2019-03-23T13:41:02Z</time>
      </trkpt>
      <trkpt lat="44.35414" lon="5.70866">
        <ele>670</ele>
        <time>2019-03-23T13:41:03Z</time>
      </trkpt>
      <trkpt lat="44.3541" lon="5.70864">
        <ele>671</ele>
        <time>2019-03-23T13:41:04Z</time>
      </trkpt>
      <trkpt lat="44.35406" lon="5.70861">
        <ele>671</ele>
        <time>2019-03-23T13:41:05Z</time>
      </trkpt>
      <trkpt lat="44.35402" lon="5.70857">
        <ele>671</ele>
        <time>2019-03-23T13:41:06Z</time>
      </trkpt>
      <trkpt lat="44.35398" lon="5.70854">
        <ele>671</ele>
        <time>2019-03-23T13:41:07Z</time>
      </trkpt>
      <trkpt lat="44.35395" lon="5.70851">
        <ele>671</ele>
        <time>2019-03-23T13:41:08Z</time>
      </trkpt>
      <trkpt lat="44.35392" lon="5.70848">
        <ele>671</ele>
        <time>2019-03-23T13:41:09Z</time>
      </trkpt>
      <trkpt lat="44.35388" lon="5.70846">
        <ele>671</ele>
        <time>2019-03-23T13:41:10Z</time>
      </trkpt>
      <trkpt lat="44.35384" lon="5.70843">
        <ele>671</ele>
        <time>2019-03-23T13:41:11Z</time>
      </trkpt>
      <trkpt lat="44.35381" lon="5.70841">
        <ele>671</ele>
        <time>2019-03-23T13:41:12Z</time>
      </trkpt>
      <trkpt lat="44.35377" lon="5.70838">
        <ele>672</ele>
        <time>2019-03-23T13:41:13Z</time>
      </trkpt>
      <trkpt lat="44.35374" lon="5.70836">
        <ele>672</ele>
        <time>2019-03-23T13:41:14Z</time>
      </trkpt>
      <trkpt lat="44.3537" lon="5.70835">
        <ele>672</ele>
        <time>2019-03-23T13:41:15Z</time>
      </trkpt>
      <trkpt lat="44.35366" lon="5.70835">
        <ele>672</ele>
        <time>2019-03-23T13:41:16Z</time>
      </trkpt>
      <trkpt lat="44.35361" lon="5.70834">
        <ele>672</ele>
        <time>2019-03-23T13:41:17Z</time>
      </trkpt>
      <trkpt lat="44.35357" lon="5.70833">
        <ele>672</ele>
        <time>2019-03-23T13:41:18Z</time>
      </trkpt>
      <trkpt lat="44.35352" lon="5.70832">
        <ele>672</ele>
        <time>2019-03-23T13:41:19Z</time>
      </trkpt>
      <trkpt lat="44.35347" lon="5.70831">
        <ele>672</ele>
        <time>2019-03-23T13:41:20Z</time>
      </trkpt>
      <trkpt lat="44.35342" lon="5.7083">
        <ele>673</ele>
        <time>2019-03-23T13:41:21Z</time>
      </trkpt>
      <trkpt lat="44.35337" lon="5.70828">
        <ele>673</ele>
        <time>2019-03-23T13:41:22Z</time>
      </trkpt>
      <trkpt lat="44.35333" lon="5.70827">
        <ele>673</ele>
        <time>2019-03-23T13:41:23Z</time>
      </trkpt>
      <trkpt lat="44.35328" lon="5.70825">
        <ele>673</ele>
        <time>2019-03-23T13:41:24Z</time>
      </trkpt>
      <trkpt lat="44.35323" lon="5.70824">
        <ele>673</ele>
        <time>2019-03-23T13:41:25Z</time>
      </trkpt>
      <trkpt lat="44.35318" lon="5.70823">
        <ele>673</ele>
        <time>2019-03-23T13:41:26Z</time>
      </trkpt>
      <trkpt lat="44.35314" lon="5.70821">
        <ele>673</ele>
        <time>2019-03-23T13:41:27Z</time>
      </trkpt>
      <trkpt lat="44.3531" lon="5.70818">
        <ele>673</ele>
        <time>2019-03-23T13:41:28Z</time>
      </trkpt>
      <trkpt lat="44.35306" lon="5.70816">
        <ele>673</ele>
        <time>2019-03-23T13:41:29Z</time>
      </trkpt>
      <trkpt lat="44.35302" lon="5.70814">
        <ele>673</ele>
        <time>2019-03-23T13:41:30Z</time>
      </trkpt>
      <trkpt lat="44.35297" lon="5.70813">
        <ele>673</ele>
        <time>2019-03-23T13:41:31Z</time>
      </trkpt>
      <trkpt lat="44.35292" lon="5.70811">
        <ele>673</ele>
        <time>2019-03-23T13:41:32Z</time>
      </trkpt>
      <trkpt lat="44.35287" lon="5.70809">
        <ele>673</ele>
        <time>2019-03-23T13:41:33Z</time>
      </trkpt>
      <trkpt lat="44.35282" lon="5.70806">
        <ele>673</ele>
        <time>2019-03-23T13:41:34Z</time>
      </trkpt>
      <trkpt lat="44.35276" lon="5.70804">
        <ele>673</ele>
        <time>2019-03-23T13:41:35Z</time>
      </trkpt>
      <trkpt lat="44.35271" lon="5.70802">
        <ele>673</ele>
        <time>2019-03-23T13:41:36Z</time>
      </trkpt>
      <trkpt lat="44.35266" lon="5.70799">
        <ele>673</ele>
        <time>2019-03-23T13:41:37Z</time>
      </trkpt>
      <trkpt lat="44.35261" lon="5.70796">
        <ele>673</ele>
        <time>2019-03-23T13:41:38Z</time>
      </trkpt>
      <trkpt lat="44.35256" lon="5.70793">
        <ele>673</ele>
        <time>2019-03-23T13:41:39Z</time>
      </trkpt>
      <trkpt lat="44.35251" lon="5.70789">
        <ele>673</ele>
        <time>2019-03-23T13:41:40Z</time>
      </trkpt>
      <trkpt lat="44.35245" lon="5.70785">
        <ele>673</ele>
        <time>2019-03-23T13:41:41Z</time>
      </trkpt>
      <trkpt lat="44.35239" lon="5.7078">
        <ele>673</ele>
        <time>2019-03-23T13:41:42Z</time>
      </trkpt>
      <trkpt lat="44.35234" lon="5.70773">
        <ele>673</ele>
        <time>2019-03-23T13:41:43Z</time>
      </trkpt>
      <trkpt lat="44.35229" lon="5.70764">
        <ele>673</ele>
        <time>2019-03-23T13:41:44Z</time>
      </trkpt>
      <trkpt lat="44.35226" lon="5.70754">
        <ele>673</ele>
        <time>2019-03-23T13:41:45Z</time>
      </trkpt>
      <trkpt lat="44.35222" lon="5.70744">
        <ele>673</ele>
        <time>2019-03-23T13:41:46Z</time>
      </trkpt>
      <trkpt lat="44.35218" lon="5.70734">
        <ele>672</ele>
        <time>2019-03-23T13:41:47Z</time>
      </trkpt>
      <trkpt lat="44.35214" lon="5.70723">
        <ele>672</ele>
        <time>2019-03-23T13:41:48Z</time>
      </trkpt>
      <trkpt lat="44.3521" lon="5.70713">
        <ele>671</ele>
        <time>2019-03-23T13:41:49Z</time>
      </trkpt>
      <trkpt lat="44.35206" lon="5.70704">
        <ele>670</ele>
        <time>2019-03-23T13:41:50Z</time>
      </trkpt>
      <trkpt lat="44.35202" lon="5.70694">
        <ele>670</ele>
        <time>2019-03-23T13:41:51Z</time>
      </trkpt>
      <trkpt lat="44.35199" lon="5.70684">
        <ele>669</ele>
        <time>2019-03-23T13:41:52Z</time>
      </trkpt>
      <trkpt lat="44.35196" lon="5.70675">
        <ele>668</ele>
        <time>2019-03-23T13:41:53Z</time>
      </trkpt>
      <trkpt lat="44.35191" lon="5.70665">
        <ele>667</ele>
        <time>2019-03-23T13:41:54Z</time>
      </trkpt>
      <trkpt lat="44.35188" lon="5.70656">
        <ele>666</ele>
        <time>2019-03-23T13:41:55Z</time>
      </trkpt>
      <trkpt lat="44.35184" lon="5.70646">
        <ele>666</ele>
        <time>2019-03-23T13:41:56Z</time>
      </trkpt>
      <trkpt lat="44.3518" lon="5.70637">
        <ele>666</ele>
        <time>2019-03-23T13:41:57Z</time>
      </trkpt>
      <trkpt lat="44.35177" lon="5.70628">
        <ele>666</ele>
        <time>2019-03-23T13:41:58Z</time>
      </trkpt>
      <trkpt lat="44.35173" lon="5.7062">
        <ele>666</ele>
        <time>2019-03-23T13:41:59Z</time>
      </trkpt>
      <trkpt lat="44.3517" lon="5.70612">
        <ele>666</ele>
        <time>2019-03-23T13:42:00Z</time>
      </trkpt>
      <trkpt lat="44.35167" lon="5.70604">
        <ele>666</ele>
        <time>2019-03-23T13:42:01Z</time>
      </trkpt>
      <trkpt lat="44.35163" lon="5.70596">
        <ele>666</ele>
        <time>2019-03-23T13:42:02Z</time>
      </trkpt>
      <trkpt lat="44.3516" lon="5.70589">
        <ele>666</ele>
        <time>2019-03-23T13:42:03Z</time>
      </trkpt>
      <trkpt lat="44.35157" lon="5.70581">
        <ele>666</ele>
        <time>2019-03-23T13:42:04Z</time>
      </trkpt>
      <trkpt lat="44.35154" lon="5.70575">
        <ele>666</ele>
        <time>2019-03-23T13:42:05Z</time>
      </trkpt>
      <trkpt lat="44.35151" lon="5.70568">
        <ele>666</ele>
        <time>2019-03-23T13:42:06Z</time>
      </trkpt>
      <trkpt lat="44.35147" lon="5.70561">
        <ele>666</ele>
        <time>2019-03-23T13:42:07Z</time>
      </trkpt>
      <trkpt lat="44.35144" lon="5.70554">
        <ele>666</ele>
        <time>2019-03-23T13:42:08Z</time>
      </trkpt>
      <trkpt lat="44.35141" lon="5.70546">
        <ele>666</ele>
        <time>2019-03-23T13:42:09Z</time>
      </trkpt>
      <trkpt lat="44.35138" lon="5.70539">
        <ele>666</ele>
        <time>2019-03-23T13:42:10Z</time>
      </trkpt>
      <trkpt lat="44.35135" lon="5.70531">
        <ele>666</ele>
        <time>2019-03-23T13:42:11Z</time>
      </trkpt>
      <trkpt lat="44.35132" lon="5.70524">
        <ele>666</ele>
        <time>2019-03-23T13:42:12Z</time>
      </trkpt>
      <trkpt lat="44.35129" lon="5.70516">
        <ele>666</ele>
        <time>2019-03-23T13:42:13Z</time>
      </trkpt>
      <trkpt lat="44.35127" lon="5.70508">
        <ele>666</ele>
        <time>2019-03-23T13:42:14Z</time>
      </trkpt>
      <trkpt lat="44.35124" lon="5.705">
        <ele>666</ele>
        <time>2019-03-23T13:42:15Z</time>
      </trkpt>
      <trkpt lat="44.35122" lon="5.70491">
        <ele>666</ele>
        <time>2019-03-23T13:42:16Z</time>
      </trkpt>
      <trkpt lat="44.35119" lon="5.70482">
        <ele>666</ele>
        <time>2019-03-23T13:42:17Z</time>
      </trkpt>
      <trkpt lat="44.35117" lon="5.70473">
        <ele>666</ele>
        <time>2019-03-23T13:42:18Z</time>
      </trkpt>
      <trkpt lat="44.35114" lon="5.70465">
        <ele>666</ele>
        <time>2019-03-23T13:42:19Z</time>
      </trkpt>
      <trkpt lat="44.35111" lon="5.70456">
        <ele>666</ele>
        <time>2019-03-23T13:42:20Z</time>
      </trkpt>
      <trkpt lat="44.35109" lon="5.70446">
        <ele>666</ele>
        <time>2019-03-23T13:42:21Z</time>
      </trkpt>
      <trkpt lat="44.35107" lon="5.70437">
        <ele>666</ele>
        <time>2019-03-23T13:42:22Z</time>
      </trkpt>
      <trkpt lat="44.35105" lon="5.70427">
        <ele>666</ele>
        <time>2019-03-23T13:42:23Z</time>
      </trkpt>
      <trkpt lat="44.35103" lon="5.70418">
        <ele>666</ele>
        <time>2019-03-23T13:42:24Z</time>
      </trkpt>
      <trkpt lat="44.35102" lon="5.70408">
        <ele>666</ele>
        <time>2019-03-23T13:42:25Z</time>
      </trkpt>
      <trkpt lat="44.35101" lon="5.70399">
        <ele>666</ele>
        <time>2019-03-23T13:42:26Z</time>
      </trkpt>
      <trkpt lat="44.351" lon="5.7039">
        <ele>666</ele>
        <time>2019-03-23T13:42:27Z</time>
      </trkpt>
      <trkpt lat="44.35098" lon="5.7038">
        <ele>666</ele>
        <time>2019-03-23T13:42:28Z</time>
      </trkpt>
      <trkpt lat="44.35097" lon="5.70371">
        <ele>666</ele>
        <time>2019-03-23T13:42:29Z</time>
      </trkpt>
      <trkpt lat="44.35096" lon="5.70363">
        <ele>666</ele>
        <time>2019-03-23T13:42:30Z</time>
      </trkpt>
      <trkpt lat="44.35095" lon="5.70354">
        <ele>666</ele>
        <time>2019-03-23T13:42:31Z</time>
      </trkpt>
      <trkpt lat="44.35094" lon="5.70344">
        <ele>666</ele>
        <time>2019-03-23T13:42:32Z</time>
      </trkpt>
      <trkpt lat="44.35093" lon="5.70335">
        <ele>666</ele>
        <time>2019-03-23T13:42:33Z</time>
      </trkpt>
      <trkpt lat="44.35092" lon="5.70326">
        <ele>666</ele>
        <time>2019-03-23T13:42:34Z</time>
      </trkpt>
      <trkpt lat="44.35091" lon="5.70317">
        <ele>666</ele>
        <time>2019-03-23T13:42:35Z</time>
      </trkpt>
      <trkpt lat="44.3509" lon="5.70308">
        <ele>666</ele>
        <time>2019-03-23T13:42:36Z</time>
      </trkpt>
      <trkpt lat="44.35089" lon="5.70298">
        <ele>666</ele>
        <time>2019-03-23T13:42:37Z</time>
      </trkpt>
      <trkpt lat="44.35088" lon="5.70289">
        <ele>666</ele>
        <time>2019-03-23T13:42:38Z</time>
      </trkpt>
      <trkpt lat="44.35086" lon="5.7028">
        <ele>666</ele>
        <time>2019-03-23T13:42:39Z</time>
      </trkpt>
      <trkpt lat="44.35086" lon="5.70271">
        <ele>666</ele>
        <time>2019-03-23T13:42:40Z</time>
      </trkpt>
      <trkpt lat="44.35085" lon="5.70261">
        <ele>666</ele>
        <time>2019-03-23T13:42:41Z</time>
      </trkpt>
      <trkpt lat="44.35084" lon="5.70252">
        <ele>666</ele>
        <time>2019-03-23T13:42:42Z</time>
      </trkpt>
      <trkpt lat="44.35083" lon="5.70242">
        <ele>666</ele>
        <time>2019-03-23T13:42:43Z</time>
      </trkpt>
      <trkpt lat="44.35082" lon="5.70233">
        <ele>666</ele>
        <time>2019-03-23T13:42:44Z</time>
      </trkpt>
      <trkpt lat="44.35081" lon="5.70223">
        <ele>666</ele>
        <time>2019-03-23T13:42:45Z</time>
      </trkpt>
      <trkpt lat="44.3508" lon="5.70214">
        <ele>666</ele>
        <time>2019-03-23T13:42:46Z</time>
      </trkpt>
      <trkpt lat="44.35079" lon="5.70204">
        <ele>666</ele>
        <time>2019-03-23T13:42:47Z</time>
      </trkpt>
      <trkpt lat="44.35078" lon="5.70194">
        <ele>666</ele>
        <time>2019-03-23T13:42:48Z</time>
      </trkpt>
      <trkpt lat="44.35077" lon="5.70184">
        <ele>666</ele>
        <time>2019-03-23T13:42:49Z</time>
      </trkpt>
      <trkpt lat="44.35075" lon="5.70174">
        <ele>666</ele>
        <time>2019-03-23T13:42:50Z</time>
      </trkpt>
      <trkpt lat="44.35074" lon="5.70164">
        <ele>666</ele>
        <time>2019-03-23T13:42:51Z</time>
      </trkpt>
      <trkpt lat="44.35072" lon="5.70154">
        <ele>666</ele>
        <time>2019-03-23T13:42:52Z</time>
      </trkpt>
      <trkpt lat="44.35071" lon="5.70144">
        <ele>666</ele>
        <time>2019-03-23T13:42:53Z</time>
      </trkpt>
      <trkpt lat="44.35069" lon="5.70133">
        <ele>666</ele>
        <time>2019-03-23T13:42:54Z</time>
      </trkpt>
      <trkpt lat="44.35068" lon="5.70122">
        <ele>666</ele>
        <time>2019-03-23T13:42:55Z</time>
      </trkpt>
      <trkpt lat="44.35066" lon="5.70112">
        <ele>666</ele>
        <time>2019-03-23T13:42:56Z</time>
      </trkpt>
      <trkpt lat="44.35064" lon="5.70101">
        <ele>666</ele>
        <time>2019-03-23T13:42:57Z</time>
      </trkpt>
      <trkpt lat="44.35062" lon="5.7009">
        <ele>666</ele>
        <time>2019-03-23T13:42:58Z</time>
      </trkpt>
      <trkpt lat="44.3506" lon="5.70079">
        <ele>666</ele>
        <time>2019-03-23T13:42:59Z</time>
      </trkpt>
      <trkpt lat="44.35059" lon="5.70069">
        <ele>666</ele>
        <time>2019-03-23T13:43:00Z</time>
      </trkpt>
      <trkpt lat="44.35057" lon="5.70058">
        <ele>666</ele>
        <time>2019-03-23T13:43:01Z</time>
      </trkpt>
      <trkpt lat="44.35056" lon="5.70048">
        <ele>666</ele>
        <time>2019-03-23T13:43:02Z</time>
      </trkpt>
      <trkpt lat="44.35053" lon="5.70037">
        <ele>666</ele>
        <time>2019-03-23T13:43:03Z</time>
      </trkpt>
      <trkpt lat="44.35049" lon="5.70027">
        <ele>666</ele>
        <time>2019-03-23T13:43:04Z</time>
      </trkpt>
      <trkpt lat="44.35046" lon="5.70018">
        <ele>666</ele>
        <time>2019-03-23T13:43:05Z</time>
      </trkpt>
      <trkpt lat="44.35041" lon="5.70009">
        <ele>666</ele>
        <time>2019-03-23T13:43:06Z</time>
      </trkpt>
      <trkpt lat="44.35037" lon="5.70001">
        <ele>666</ele>
        <time>2019-03-23T13:43:07Z</time>
      </trkpt>
      <trkpt lat="44.35032" lon="5.69993">
        <ele>666</ele>
        <time>2019-03-23T13:43:08Z</time>
      </trkpt>
      <trkpt lat="44.35027" lon="5.69986">
        <ele>666</ele>
        <time>2019-03-23T13:43:09Z</time>
      </trkpt>
      <trkpt lat="44.35022" lon="5.6998">
        <ele>666</ele>
        <time>2019-03-23T13:43:10Z</time>
      </trkpt>
      <trkpt lat="44.35016" lon="5.69974">
        <ele>666</ele>
        <time>2019-03-23T13:43:11Z</time>
      </trkpt>
      <trkpt lat="44.3501" lon="5.69969">
        <ele>666</ele>
        <time>2019-03-23T13:43:12Z</time>
      </trkpt>
      <trkpt lat="44.35004" lon="5.69965">
        <ele>666</ele>
        <time>2019-03-23T13:43:13Z</time>
      </trkpt>
      <trkpt lat="44.34997" lon="5.69961">
        <ele>666</ele>
        <time>2019-03-23T13:43:14Z</time>
      </trkpt>
      <trkpt lat="44.3499" lon="5.69959">
        <ele>666</ele>
        <time>2019-03-23T13:43:15Z</time>
      </trkpt>
      <trkpt lat="44.34984" lon="5.69955">
        <ele>666</ele>
        <time>2019-03-23T13:43:16Z</time>
      </trkpt>
      <trkpt lat="44.34977" lon="5.69952">
        <ele>666</ele>
        <time>2019-03-23T13:43:17Z</time>
      </trkpt>
      <trkpt lat="44.3497" lon="5.69949">
        <ele>666</ele>
        <time>2019-03-23T13:43:18Z</time>
      </trkpt>
      <trkpt lat="44.34964" lon="5.69946">
        <ele>666</ele>
        <time>2019-03-23T13:43:19Z</time>
      </trkpt>
      <trkpt lat="44.34958" lon="5.69942">
        <ele>666</ele>
        <time>2019-03-23T13:43:20Z</time>
      </trkpt>
      <trkpt lat="44.34952" lon="5.69937">
        <ele>666</ele>
        <time>2019-03-23T13:43:21Z</time>
      </trkpt>
      <trkpt lat="44.34946" lon="5.69933">
        <ele>666</ele>
        <time>2019-03-23T13:43:22Z</time>
      </trkpt>
      <trkpt lat="44.3494" lon="5.69928">
        <ele>666</ele>
        <time>2019-03-23T13:43:23Z</time>
      </trkpt>
      <trkpt lat="44.34935" lon="5.69922">
        <ele>666</ele>
        <time>2019-03-23T13:43:24Z</time>
      </trkpt>
      <trkpt lat="44.3493" lon="5.69917">
        <ele>666</ele>
        <time>2019-03-23T13:43:25Z</time>
      </trkpt>
      <trkpt lat="44.34924" lon="5.69913">
        <ele>666</ele>
        <time>2019-03-23T13:43:26Z</time>
      </trkpt>
      <trkpt lat="44.34917" lon="5.69909">
        <ele>666</ele>
        <time>2019-03-23T13:43:27Z</time>
      </trkpt>
      <trkpt lat="44.34911" lon="5.69905">
        <ele>666</ele>
        <time>2019-03-23T13:43:28Z</time>
      </trkpt>
      <trkpt lat="44.34905" lon="5.69902">
        <ele>666</ele>
        <time>2019-03-23T13:43:29Z</time>
      </trkpt>
      <trkpt lat="44.34899" lon="5.69899">
        <ele>666</ele>
        <time>2019-03-23T13:43:30Z</time>
      </trkpt>
      <trkpt lat="44.34893" lon="5.69897">
        <ele>666</ele>
        <time>2019-03-23T13:43:31Z</time>
      </trkpt>
      <trkpt lat="44.34888" lon="5.69894">
        <ele>666</ele>
        <time>2019-03-23T13:43:32Z</time>
      </trkpt>
      <trkpt lat="44.34883" lon="5.69892">
        <ele>666</ele>
        <time>2019-03-23T13:43:33Z</time>
      </trkpt>
      <trkpt lat="44.34877" lon="5.69889">
        <ele>666</ele>
        <time>2019-03-23T13:43:34Z</time>
      </trkpt>
      <trkpt lat="44.34872" lon="5.69886">
        <ele>666</ele>
        <time>2019-03-23T13:43:35Z</time>
      </trkpt>
      <trkpt lat="44.34867" lon="5.69883">
        <ele>666</ele>
        <time>2019-03-23T13:43:36Z</time>
      </trkpt>
      <trkpt lat="44.34862" lon="5.69879">
        <ele>666</ele>
        <time>2019-03-23T13:43:37Z</time>
      </trkpt>
      <trkpt lat="44.34857" lon="5.69874">
        <ele>666</ele>
        <time>2019-03-23T13:43:38Z</time>
      </trkpt>
      <trkpt lat="44.34853" lon="5.69869">
        <ele>666</ele>
        <time>2019-03-23T13:43:39Z</time>
      </trkpt>
      <trkpt lat="44.34849" lon="5.69863">
        <ele>666</ele>
        <time>2019-03-23T13:43:40Z</time>
      </trkpt>
      <trkpt lat="44.34846" lon="5.69857">
        <ele>666</ele>
        <time>2019-03-23T13:43:41Z</time>
      </trkpt>
      <trkpt lat="44.34843" lon="5.6985">
        <ele>666</ele>
        <time>2019-03-23T13:43:42Z</time>
      </trkpt>
      <trkpt lat="44.3484" lon="5.69843">
        <ele>666</ele>
        <time>2019-03-23T13:43:43Z</time>
      </trkpt>
      <trkpt lat="44.34837" lon="5.69836">
        <ele>666</ele>
        <time>2019-03-23T13:43:44Z</time>
      </trkpt>
      <trkpt lat="44.34834" lon="5.69828">
        <ele>666</ele>
        <time>2019-03-23T13:43:45Z</time>
      </trkpt>
      <trkpt lat="44.34832" lon="5.6982">
        <ele>666</ele>
        <time>2019-03-23T13:43:46Z</time>
      </trkpt>
      <trkpt lat="44.34829" lon="5.69812">
        <ele>666</ele>
        <time>2019-03-23T13:43:47Z</time>
      </trkpt>
      <trkpt lat="44.34828" lon="5.69804">
        <ele>666</ele>
        <time>2019-03-23T13:43:48Z</time>
      </trkpt>
      <trkpt lat="44.34827" lon="5.69797">
        <ele>666</ele>
        <time>2019-03-23T13:43:49Z</time>
      </trkpt>
      <trkpt lat="44.34825" lon="5.69789">
        <ele>666</ele>
        <time>2019-03-23T13:43:50Z</time>
      </trkpt>
      <trkpt lat="44.34824" lon="5.69781">
        <ele>666</ele>
        <time>2019-03-23T13:43:51Z</time>
      </trkpt>
      <trkpt lat="44.34823" lon="5.69774">
        <ele>666</ele>
        <time>2019-03-23T13:43:52Z</time>
      </trkpt>
      <trkpt lat="44.34822" lon="5.69766">
        <ele>666</ele>
        <time>2019-03-23T13:43:53Z</time>
      </trkpt>
      <trkpt lat="44.34822" lon="5.69758">
        <ele>666</ele>
        <time>2019-03-23T13:43:54Z</time>
      </trkpt>
      <trkpt lat="44.34822" lon="5.6975">
        <ele>666</ele>
        <time>2019-03-23T13:43:55Z</time>
      </trkpt>
      <trkpt lat="44.34821" lon="5.69742">
        <ele>666</ele>
        <time>2019-03-23T13:43:56Z</time>
      </trkpt>
      <trkpt lat="44.34821" lon="5.69734">
        <ele>666</ele>
        <time>2019-03-23T13:43:57Z</time>
      </trkpt>
      <trkpt lat="44.34821" lon="5.69727">
        <ele>666</ele>
        <time>2019-03-23T13:43:58Z</time>
      </trkpt>
      <trkpt lat="44.34821" lon="5.69719">
        <ele>666</ele>
        <time>2019-03-23T13:43:59Z</time>
      </trkpt>
      <trkpt lat="44.34821" lon="5.6971">
        <ele>666</ele>
        <time>2019-03-23T13:44:00Z</time>
      </trkpt>
      <trkpt lat="44.34821" lon="5.69702">
        <ele>666</ele>
        <time>2019-03-23T13:44:01Z</time>
      </trkpt>
      <trkpt lat="44.34822" lon="5.69694">
        <ele>666</ele>
        <time>2019-03-23T13:44:02Z</time>
      </trkpt>
      <trkpt lat="44.34822" lon="5.69686">
        <ele>666</ele>
        <time>2019-03-23T13:44:03Z</time>
      </trkpt>
      <trkpt lat="44.34823" lon="5.69677">
        <ele>666</ele>
        <time>2019-03-23T13:44:04Z</time>
      </trkpt>
      <trkpt lat="44.34823" lon="5.69669">
        <ele>666</ele>
        <time>2019-03-23T13:44:05Z</time>
      </trkpt>
      <trkpt lat="44.34824" lon="5.69661">
        <ele>666</ele>
        <time>2019-03-23T13:44:06Z</time>
      </trkpt>
      <trkpt lat="44.34825" lon="5.69653">
        <ele>666</ele>
        <time>2019-03-23T13:44:07Z</time>
      </trkpt>
      <trkpt lat="44.34826" lon="5.69644">
        <ele>666</ele>
        <time>2019-03-23T13:44:08Z</time>
      </trkpt>
      <trkpt lat="44.34827" lon="5.69636">
        <ele>666</ele>
        <time>2019-03-23T13:44:09Z</time>
      </trkpt>
      <trkpt lat="44.34827" lon="5.69628">
        <ele>666</ele>
        <time>2019-03-23T13:44:10Z</time>
      </trkpt>
      <trkpt lat="44.34828" lon="5.69619">
        <ele>666</ele>
        <time>2019-03-23T13:44:11Z</time>
      </trkpt>
      <trkpt lat="44.34829" lon="5.69611">
        <ele>666</ele>
        <time>2019-03-23T13:44:12Z</time>
      </trkpt>
      <trkpt lat="44.3483" lon="5.69602">
        <ele>666</ele>
        <time>2019-03-23T13:44:13Z</time>
      </trkpt>
      <trkpt lat="44.34831" lon="5.69594">
        <ele>666</ele>
        <time>2019-03-23T13:44:14Z</time>
      </trkpt>
      <trkpt lat="44.34832" lon="5.69586">
        <ele>666</ele>
        <time>2019-03-23T13:44:15Z</time>
      </trkpt>
      <trkpt lat="44.34832" lon="5.69578">
        <ele>666</ele>
        <time>2019-03-23T13:44:16Z</time>
      </trkpt>
      <trkpt lat="44.34834" lon="5.6957">
        <ele>666</ele>
        <time>2019-03-23T13:44:17Z</time>
      </trkpt>
      <trkpt lat="44.34835" lon="5.69562">
        <ele>666</ele>
        <time>2019-03-23T13:44:18Z</time>
      </trkpt>
      <trkpt lat="44.34837" lon="5.69554">
        <ele>666</ele>
        <time>2019-03-23T13:44:19Z</time>
      </trkpt>
      <trkpt lat="44.34838" lon="5.69546">
        <ele>666</ele>
        <time>2019-03-23T13:44:20Z</time>
      </trkpt>
      <trkpt lat="44.3484" lon="5.69538">
        <ele>666</ele>
        <time>2019-03-23T13:44:21Z</time>
      </trkpt>
      <trkpt lat="44.34842" lon="5.69531">
        <ele>666</ele>
        <time>2019-03-23T13:44:22Z</time>
      </trkpt>
      <trkpt lat="44.34843" lon="5.69523">
        <ele>666</ele>
        <time>2019-03-23T13:44:23Z</time>
      </trkpt>
      <trkpt lat="44.34845" lon="5.69515">
        <ele>667</ele>
        <time>2019-03-23T13:44:24Z</time>
      </trkpt>
      <trkpt lat="44.34846" lon="5.69508">
        <ele>667</ele>
        <time>2019-03-23T13:44:25Z</time>
      </trkpt>
      <trkpt lat="44.34847" lon="5.695">
        <ele>667</ele>
        <time>2019-03-23T13:44:26Z</time>
      </trkpt>
      <trkpt lat="44.34848" lon="5.69492">
        <ele>667</ele>
        <time>2019-03-23T13:44:27Z</time>
      </trkpt>
      <trkpt lat="44.34848" lon="5.69484">
        <ele>667</ele>
        <time>2019-03-23T13:44:28Z</time>
      </trkpt>
      <trkpt lat="44.34848" lon="5.69477">
        <ele>667</ele>
        <time>2019-03-23T13:44:29Z</time>
      </trkpt>
      <trkpt lat="44.34848" lon="5.69469">
        <ele>667</ele>
        <time>2019-03-23T13:44:30Z</time>
      </trkpt>
      <trkpt lat="44.34848" lon="5.69461">
        <ele>667</ele>
        <time>2019-03-23T13:44:31Z</time>
      </trkpt>
      <trkpt lat="44.34848" lon="5.69453">
        <ele>667</ele>
        <time>2019-03-23T13:44:32Z</time>
      </trkpt>
      <trkpt lat="44.34848" lon="5.69446">
        <ele>667</ele>
        <time>2019-03-23T13:44:33Z</time>
      </trkpt>
      <trkpt lat="44.34849" lon="5.69438">
        <ele>668</ele>
        <time>2019-03-23T13:44:34Z</time>
      </trkpt>
      <trkpt lat="44.34849" lon="5.6943">
        <ele>668</ele>
        <time>2019-03-23T13:44:35Z</time>
      </trkpt>
      <trkpt lat="44.34849" lon="5.69422">
        <ele>668</ele>
        <time>2019-03-23T13:44:36Z</time>
      </trkpt>
      <trkpt lat="44.34849" lon="5.69414">
        <ele>668</ele>
        <time>2019-03-23T13:44:37Z</time>
      </trkpt>
      <trkpt lat="44.3485" lon="5.69406">
        <ele>668</ele>
        <time>2019-03-23T13:44:38Z</time>
      </trkpt>
      <trkpt lat="44.3485" lon="5.69398">
        <ele>668</ele>
        <time>2019-03-23T13:44:39Z</time>
      </trkpt>
      <trkpt lat="44.3485" lon="5.69391">
        <ele>668</ele>
        <time>2019-03-23T13:44:40Z</time>
      </trkpt>
      <trkpt lat="44.3485" lon="5.69383">
        <ele>668</ele>
        <time>2019-03-23T13:44:41Z</time>
      </trkpt>
      <trkpt lat="44.3485" lon="5.69375">
        <ele>668</ele>
        <time>2019-03-23T13:44:42Z</time>
      </trkpt>
      <trkpt lat="44.34851" lon="5.69367">
        <ele>669</ele>
        <time>2019-03-23T13:44:43Z</time>
      </trkpt>
      <trkpt lat="44.34851" lon="5.6936">
        <ele>669</ele>
        <time>2019-03-23T13:44:44Z</time>
      </trkpt>
      <trkpt lat="44.34851" lon="5.69352">
        <ele>669</ele>
        <time>2019-03-23T13:44:45Z</time>
      </trkpt>
      <trkpt lat="44.34851" lon="5.69345">
        <ele>670</ele>
        <time>2019-03-23T13:44:46Z</time>
      </trkpt>
      <trkpt lat="44.34852" lon="5.69338">
        <ele>670</ele>
        <time>2019-03-23T13:44:47Z</time>
      </trkpt>
      <trkpt lat="44.34852" lon="5.6933">
        <ele>670</ele>
        <time>2019-03-23T13:44:48Z</time>
      </trkpt>
      <trkpt lat="44.34853" lon="5.69322">
        <ele>670</ele>
        <time>2019-03-23T13:44:49Z</time>
      </trkpt>
      <trkpt lat="44.34853" lon="5.69315">
        <ele>671</ele>
        <time>2019-03-23T13:44:50Z</time>
      </trkpt>
      <trkpt lat="44.34855" lon="5.69308">
        <ele>671</ele>
        <time>2019-03-23T13:44:51Z</time>
      </trkpt>
      <trkpt lat="44.34856" lon="5.69301">
        <ele>671</ele>
        <time>2019-03-23T13:44:52Z</time>
      </trkpt>
      <trkpt lat="44.34858" lon="5.69294">
        <ele>671</ele>
        <time>2019-03-23T13:44:53Z</time>
      </trkpt>
      <trkpt lat="44.3486" lon="5.69287">
        <ele>671</ele>
        <time>2019-03-23T13:44:54Z</time>
      </trkpt>
      <trkpt lat="44.34863" lon="5.69281">
        <ele>671</ele>
        <time>2019-03-23T13:44:55Z</time>
      </trkpt>
      <trkpt lat="44.34866" lon="5.69275">
        <ele>671</ele>
        <time>2019-03-23T13:44:56Z</time>
      </trkpt>
      <trkpt lat="44.34869" lon="5.69268">
        <ele>671</ele>
        <time>2019-03-23T13:44:57Z</time>
      </trkpt>
      <trkpt lat="44.34873" lon="5.69262">
        <ele>671</ele>
        <time>2019-03-23T13:44:58Z</time>
      </trkpt>
      <trkpt lat="44.34876" lon="5.69255">
        <ele>671</ele>
        <time>2019-03-23T13:44:59Z</time>
      </trkpt>
      <trkpt lat="44.3488" lon="5.69249">
        <ele>671</ele>
        <time>2019-03-23T13:45:00Z</time>
      </trkpt>
      <trkpt lat="44.34883" lon="5.69243">
        <ele>671</ele>
        <time>2019-03-23T13:45:01Z</time>
      </trkpt>
      <trkpt lat="44.34886" lon="5.69237">
        <ele>671</ele>
        <time>2019-03-23T13:45:02Z</time>
      </trkpt>
      <trkpt lat="44.34889" lon="5.6923">
        <ele>671</ele>
        <time>2019-03-23T13:45:03Z</time>
      </trkpt>
      <trkpt lat="44.34893" lon="5.69224">
        <ele>671</ele>
        <time>2019-03-23T13:45:04Z</time>
      </trkpt>
      <trkpt lat="44.34895" lon="5.69217">
        <ele>671</ele>
        <time>2019-03-23T13:45:05Z</time>
      </trkpt>
      <trkpt lat="44.34898" lon="5.6921">
        <ele>671</ele>
        <time>2019-03-23T13:45:06Z</time>
      </trkpt>
      <trkpt lat="44.34901" lon="5.69204">
        <ele>671</ele>
        <time>2019-03-23T13:45:07Z</time>
      </trkpt>
      <trkpt lat="44.34903" lon="5.69197">
        <ele>671</ele>
        <time>2019-03-23T13:45:08Z</time>
      </trkpt>
      <trkpt lat="44.34906" lon="5.6919">
        <ele>671</ele>
        <time>2019-03-23T13:45:09Z</time>
      </trkpt>
      <trkpt lat="44.34908" lon="5.69183">
        <ele>671</ele>
        <time>2019-03-23T13:45:10Z</time>
      </trkpt>
      <trkpt lat="44.3491" lon="5.69177">
        <ele>671</ele>
        <time>2019-03-23T13:45:11Z</time>
      </trkpt>
      <trkpt lat="44.34912" lon="5.6917">
        <ele>671</ele>
        <time>2019-03-23T13:45:12Z</time>
      </trkpt>
      <trkpt lat="44.34915" lon="5.69163">
        <ele>672</ele>
        <time>2019-03-23T13:45:13Z</time>
      </trkpt>
      <trkpt lat="44.34917" lon="5.69156">
        <ele>672</ele>
        <time>2019-03-23T13:45:14Z</time>
      </trkpt>
      <trkpt lat="44.34919" lon="5.69149">
        <ele>672</ele>
        <time>2019-03-23T13:45:15Z</time>
      </trkpt>
      <trkpt lat="44.34921" lon="5.69143">
        <ele>672</ele>
        <time>2019-03-23T13:45:16Z</time>
      </trkpt>
      <trkpt lat="44.34923" lon="5.69136">
        <ele>672</ele>
        <time>2019-03-23T13:45:17Z</time>
      </trkpt>
      <trkpt lat="44.34925" lon="5.69129">
        <ele>672</ele>
        <time>2019-03-23T13:45:18Z</time>
      </trkpt>
      <trkpt lat="44.34927" lon="5.69122">
        <ele>672</ele>
        <time>2019-03-23T13:45:19Z</time>
      </trkpt>
      <trkpt lat="44.34929" lon="5.69115">
        <ele>672</ele>
        <time>2019-03-23T13:45:20Z</time>
      </trkpt>
      <trkpt lat="44.34932" lon="5.69108">
        <ele>672</ele>
        <time>2019-03-23T13:45:21Z</time>
      </trkpt>
      <trkpt lat="44.34933" lon="5.69101">
        <ele>672</ele>
        <time>2019-03-23T13:45:22Z</time>
      </trkpt>
      <trkpt lat="44.34936" lon="5.69095">
        <ele>672</ele>
        <time>2019-03-23T13:45:23Z</time>
      </trkpt>
      <trkpt lat="44.34938" lon="5.69088">
        <ele>673</ele>
        <time>2019-03-23T13:45:24Z</time>
      </trkpt>
      <trkpt lat="44.3494" lon="5.69081">
        <ele>673</ele>
        <time>2019-03-23T13:45:25Z</time>
      </trkpt>
      <trkpt lat="44.34942" lon="5.69075">
        <ele>673</ele>
        <time>2019-03-23T13:45:26Z</time>
      </trkpt>
      <trkpt lat="44.34944" lon="5.69068">
        <ele>673</ele>
        <time>2019-03-23T13:45:27Z</time>
      </trkpt>
      <trkpt lat="44.34946" lon="5.6906">
        <ele>673</ele>
        <time>2019-03-23T13:45:28Z</time>
      </trkpt>
      <trkpt lat="44.34948" lon="5.69053">
        <ele>673</ele>
        <time>2019-03-23T13:45:29Z</time>
      </trkpt>
      <trkpt lat="44.34949" lon="5.69047">
        <ele>673</ele>
        <time>2019-03-23T13:45:30Z</time>
      </trkpt>
      <trkpt lat="44.34951" lon="5.6904">
        <ele>673</ele>
        <time>2019-03-23T13:45:31Z</time>
      </trkpt>
      <trkpt lat="44.34954" lon="5.69032">
        <ele>674</ele>
        <time>2019-03-23T13:45:32Z</time>
      </trkpt>
      <trkpt lat="44.34956" lon="5.69026">
        <ele>674</ele>
        <time>2019-03-23T13:45:33Z</time>
      </trkpt>
      <trkpt lat="44.34958" lon="5.69019">
        <ele>674</ele>
        <time>2019-03-23T13:45:34Z</time>
      </trkpt>
      <trkpt lat="44.3496" lon="5.69012">
        <ele>674</ele>
        <time>2019-03-23T13:45:35Z</time>
      </trkpt>
      <trkpt lat="44.34962" lon="5.69005">
        <ele>674</ele>
        <time>2019-03-23T13:45:36Z</time>
      </trkpt>
      <trkpt lat="44.34964" lon="5.68998">
        <ele>674</ele>
        <time>2019-03-23T13:45:37Z</time>
      </trkpt>
      <trkpt lat="44.34965" lon="5.68992">
        <ele>674</ele>
        <time>2019-03-23T13:45:38Z</time>
      </trkpt>
      <trkpt lat="44.34967" lon="5.68985">
        <ele>674</ele>
        <time>2019-03-23T13:45:39Z</time>
      </trkpt>
      <trkpt lat="44.34968" lon="5.68978">
        <ele>674</ele>
        <time>2019-03-23T13:45:40Z</time>
      </trkpt>
      <trkpt lat="44.34969" lon="5.68971">
        <ele>674</ele>
        <time>2019-03-23T13:45:41Z</time>
      </trkpt>
      <trkpt lat="44.34969" lon="5.68964">
        <ele>674</ele>
        <time>2019-03-23T13:45:42Z</time>
      </trkpt>
      <trkpt lat="44.3497" lon="5.68957">
        <ele>674</ele>
        <time>2019-03-23T13:45:43Z</time>
      </trkpt>
      <trkpt lat="44.34972" lon="5.6895">
        <ele>674</ele>
        <time>2019-03-23T13:45:44Z</time>
      </trkpt>
      <trkpt lat="44.34973" lon="5.68943">
        <ele>675</ele>
        <time>2019-03-23T13:45:45Z</time>
      </trkpt>
      <trkpt lat="44.34973" lon="5.68936">
        <ele>675</ele>
        <time>2019-03-23T13:45:46Z</time>
      </trkpt>
      <trkpt lat="44.34973" lon="5.68929">
        <ele>675</ele>
        <time>2019-03-23T13:45:47Z</time>
      </trkpt>
      <trkpt lat="44.34972" lon="5.68922">
        <ele>675</ele>
        <time>2019-03-23T13:45:48Z</time>
      </trkpt>
      <trkpt lat="44.34972" lon="5.68915">
        <ele>676</ele>
        <time>2019-03-23T13:45:49Z</time>
      </trkpt>
      <trkpt lat="44.34972" lon="5.68908">
        <ele>676</ele>
        <time>2019-03-23T13:45:50Z</time>
      </trkpt>
      <trkpt lat="44.34972" lon="5.68901">
        <ele>677</ele>
        <time>2019-03-23T13:45:51Z</time>
      </trkpt>
      <trkpt lat="44.34971" lon="5.68894">
        <ele>677</ele>
        <time>2019-03-23T13:45:52Z</time>
      </trkpt>
      <trkpt lat="44.3497" lon="5.68887">
        <ele>678</ele>
        <time>2019-03-23T13:45:53Z</time>
      </trkpt>
      <trkpt lat="44.34971" lon="5.6888">
        <ele>679</ele>
        <time>2019-03-23T13:45:54Z</time>
      </trkpt>
      <trkpt lat="44.34971" lon="5.68873">
        <ele>679</ele>
        <time>2019-03-23T13:45:55Z</time>
      </trkpt>
      <trkpt lat="44.34972" lon="5.68865">
        <ele>680</ele>
        <time>2019-03-23T13:45:56Z</time>
      </trkpt>
      <trkpt lat="44.34972" lon="5.68858">
        <ele>680</ele>
        <time>2019-03-23T13:45:57Z</time>
      </trkpt>
      <trkpt lat="44.34974" lon="5.68851">
        <ele>681</ele>
        <time>2019-03-23T13:45:58Z</time>
      </trkpt>
      <trkpt lat="44.34975" lon="5.68844">
        <ele>681</ele>
        <time>2019-03-23T13:45:59Z</time>
      </trkpt>
      <trkpt lat="44.34977" lon="5.68837">
        <ele>682</ele>
        <time>2019-03-23T13:46:00Z</time>
      </trkpt>
      <trkpt lat="44.34979" lon="5.6883">
        <ele>682</ele>
        <time>2019-03-23T13:46:01Z</time>
      </trkpt>
      <trkpt lat="44.34982" lon="5.68822">
        <ele>682</ele>
        <time>2019-03-23T13:46:02Z</time>
      </trkpt>
      <trkpt lat="44.34984" lon="5.68816">
        <ele>682</ele>
        <time>2019-03-23T13:46:03Z</time>
      </trkpt>
      <trkpt lat="44.34986" lon="5.6881">
        <ele>683</ele>
        <time>2019-03-23T13:46:04Z</time>
      </trkpt>
      <trkpt lat="44.34989" lon="5.68803">
        <ele>683</ele>
        <time>2019-03-23T13:46:05Z</time>
      </trkpt>
      <trkpt lat="44.34991" lon="5.68797">
        <ele>683</ele>
        <time>2019-03-23T13:46:06Z</time>
      </trkpt>
      <trkpt lat="44.34993" lon="5.68791">
        <ele>683</ele>
        <time>2019-03-23T13:46:07Z</time>
      </trkpt>
      <trkpt lat="44.34994" lon="5.68785">
        <ele>683</ele>
        <time>2019-03-23T13:46:08Z</time>
      </trkpt>
      <trkpt lat="44.34995" lon="5.68779">
        <ele>683</ele>
        <time>2019-03-23T13:46:09Z</time>
      </trkpt>
      <trkpt lat="44.34996" lon="5.68773">
        <ele>683</ele>
        <time>2019-03-23T13:46:10Z</time>
      </trkpt>
      <trkpt lat="44.34996" lon="5.68765">
        <ele>683</ele>
        <time>2019-03-23T13:46:11Z</time>
      </trkpt>
      <trkpt lat="44.34997" lon="5.68758">
        <ele>683</ele>
        <time>2019-03-23T13:46:12Z</time>
      </trkpt>
      <trkpt lat="44.34997" lon="5.68751">
        <ele>684</ele>
        <time>2019-03-23T13:46:13Z</time>
      </trkpt>
      <trkpt lat="44.34997" lon="5.68745">
        <ele>685</ele>
        <time>2019-03-23T13:46:14Z</time>
      </trkpt>
      <trkpt lat="44.34997" lon="5.68738">
        <ele>685</ele>
        <time>2019-03-23T13:46:15Z</time>
      </trkpt>
      <trkpt lat="44.34998" lon="5.68732">
        <ele>686</ele>
        <time>2019-03-23T13:46:16Z</time>
      </trkpt>
      <trkpt lat="44.34997" lon="5.68725">
        <ele>687</ele>
        <time>2019-03-23T13:46:17Z</time>
      </trkpt>
      <trkpt lat="44.34998" lon="5.68719">
        <ele>687</ele>
        <time>2019-03-23T13:46:18Z</time>
      </trkpt>
      <trkpt lat="44.34997" lon="5.68713">
        <ele>687</ele>
        <time>2019-03-23T13:46:19Z</time>
      </trkpt>
      <trkpt lat="44.34996" lon="5.68707">
        <ele>688</ele>
        <time>2019-03-23T13:46:20Z</time>
      </trkpt>
      <trkpt lat="44.34996" lon="5.68702">
        <ele>688</ele>
        <time>2019-03-23T13:46:21Z</time>
      </trkpt>
      <trkpt lat="44.34996" lon="5.68696">
        <ele>688</ele>
        <time>2019-03-23T13:46:22Z</time>
      </trkpt>
      <trkpt lat="44.34994" lon="5.68691">
        <ele>688</ele>
        <time>2019-03-23T13:46:23Z</time>
      </trkpt>
      <trkpt lat="44.34993" lon="5.68686">
        <ele>688</ele>
        <time>2019-03-23T13:46:24Z</time>
      </trkpt>
      <trkpt lat="44.34993" lon="5.6868">
        <ele>688</ele>
        <time>2019-03-23T13:46:25Z</time>
      </trkpt>
      <trkpt lat="44.34994" lon="5.68675">
        <ele>688</ele>
        <time>2019-03-23T13:46:26Z</time>
      </trkpt>
      <trkpt lat="44.34994" lon="5.6867">
        <ele>688</ele>
        <time>2019-03-23T13:46:27Z</time>
      </trkpt>
      <trkpt lat="44.34994" lon="5.68665">
        <ele>688</ele>
        <time>2019-03-23T13:46:28Z</time>
      </trkpt>
      <trkpt lat="44.34994" lon="5.68659">
        <ele>688</ele>
        <time>2019-03-23T13:46:29Z</time>
      </trkpt>
      <trkpt lat="44.34994" lon="5.68653">
        <ele>688</ele>
        <time>2019-03-23T13:46:30Z</time>
      </trkpt>
      <trkpt lat="44.34994" lon="5.68648">
        <ele>688</ele>
        <time>2019-03-23T13:46:31Z</time>
      </trkpt>
      <trkpt lat="44.34995" lon="5.68642">
        <ele>688</ele>
        <time>2019-03-23T13:46:32Z</time>
      </trkpt>
      <trkpt lat="44.34995" lon="5.68636">
        <ele>688</ele>
        <time>2019-03-23T13:46:33Z</time>
      </trkpt>
      <trkpt lat="44.34996" lon="5.6863">
        <ele>688</ele>
        <time>2019-03-23T13:46:34Z</time>
      </trkpt>
      <trkpt lat="44.34998" lon="5.68623">
        <ele>688</ele>
        <time>2019-03-23T13:46:35Z</time>
      </trkpt>
      <trkpt lat="44.35" lon="5.68617">
        <ele>688</ele>
        <time>2019-03-23T13:46:36Z</time>
      </trkpt>
      <trkpt lat="44.35002" lon="5.6861">
        <ele>688</ele>
        <time>2019-03-23T13:46:37Z</time>
      </trkpt>
      <trkpt lat="44.35004" lon="5.68604">
        <ele>688</ele>
        <time>2019-03-23T13:46:38Z</time>
      </trkpt>
      <trkpt lat="44.35007" lon="5.68598">
        <ele>688</ele>
        <time>2019-03-23T13:46:39Z</time>
      </trkpt>
      <trkpt lat="44.35011" lon="5.68592">
        <ele>688</ele>
        <time>2019-03-23T13:46:40Z</time>
      </trkpt>
      <trkpt lat="44.35014" lon="5.68587">
        <ele>688</ele>
        <time>2019-03-23T13:46:41Z</time>
      </trkpt>
      <trkpt lat="44.35018" lon="5.68582">
        <ele>688</ele>
        <time>2019-03-23T13:46:42Z</time>
      </trkpt>
      <trkpt lat="44.35022" lon="5.68576">
        <ele>688</ele>
        <time>2019-03-23T13:46:43Z</time>
      </trkpt>
      <trkpt lat="44.35027" lon="5.68571">
        <ele>689</ele>
        <time>2019-03-23T13:46:44Z</time>
      </trkpt>
      <trkpt lat="44.35031" lon="5.68566">
        <ele>690</ele>
        <time>2019-03-23T13:46:45Z</time>
      </trkpt>
      <trkpt lat="44.35036" lon="5.68562">
        <ele>690</ele>
        <time>2019-03-23T13:46:46Z</time>
      </trkpt>
      <trkpt lat="44.35041" lon="5.68557">
        <ele>691</ele>
        <time>2019-03-23T13:46:47Z</time>
      </trkpt>
      <trkpt lat="44.35046" lon="5.68552">
        <ele>692</ele>
        <time>2019-03-23T13:46:48Z</time>
      </trkpt>
      <trkpt lat="44.35051" lon="5.68548">
        <ele>692</ele>
        <time>2019-03-23T13:46:49Z</time>
      </trkpt>
      <trkpt lat="44.35056" lon="5.68544">
        <ele>692</ele>
        <time>2019-03-23T13:46:50Z</time>
      </trkpt>
      <trkpt lat="44.35062" lon="5.6854">
        <ele>692</ele>
        <time>2019-03-23T13:46:51Z</time>
      </trkpt>
      <trkpt lat="44.35067" lon="5.68536">
        <ele>692</ele>
        <time>2019-03-23T13:46:52Z</time>
      </trkpt>
      <trkpt lat="44.35072" lon="5.6853">
        <ele>692</ele>
        <time>2019-03-23T13:46:53Z</time>
      </trkpt>
      <trkpt lat="44.35076" lon="5.68525">
        <ele>692</ele>
        <time>2019-03-23T13:46:54Z</time>
      </trkpt>
      <trkpt lat="44.3508" lon="5.68519">
        <ele>692</ele>
        <time>2019-03-23T13:46:55Z</time>
      </trkpt>
      <trkpt lat="44.35084" lon="5.68513">
        <ele>692</ele>
        <time>2019-03-23T13:46:56Z</time>
      </trkpt>
      <trkpt lat="44.35088" lon="5.68507">
        <ele>693</ele>
        <time>2019-03-23T13:46:57Z</time>
      </trkpt>
      <trkpt lat="44.35092" lon="5.68502">
        <ele>693</ele>
        <time>2019-03-23T13:46:58Z</time>
      </trkpt>
      <trkpt lat="44.35096" lon="5.68495">
        <ele>693</ele>
        <time>2019-03-23T13:46:59Z</time>
      </trkpt>
      <trkpt lat="44.35099" lon="5.68489">
        <ele>693</ele>
        <time>2019-03-23T13:47:00Z</time>
      </trkpt>
      <trkpt lat="44.35101" lon="5.68482">
        <ele>693</ele>
        <time>2019-03-23T13:47:01Z</time>
      </trkpt>
      <trkpt lat="44.35104" lon="5.68477">
        <ele>693</ele>
        <time>2019-03-23T13:47:02Z</time>
      </trkpt>
      <trkpt lat="44.35107" lon="5.68471">
        <ele>693</ele>
        <time>2019-03-23T13:47:03Z</time>
      </trkpt>
      <trkpt lat="44.35109" lon="5.68464">
        <ele>693</ele>
        <time>2019-03-23T13:47:04Z</time>
      </trkpt>
      <trkpt lat="44.35112" lon="5.68457">
        <ele>693</ele>
        <time>2019-03-23T13:47:05Z</time>
      </trkpt>
      <trkpt lat="44.35114" lon="5.6845">
        <ele>693</ele>
        <time>2019-03-23T13:47:06Z</time>
      </trkpt>
      <trkpt lat="44.35115" lon="5.68442">
        <ele>693</ele>
        <time>2019-03-23T13:47:07Z</time>
      </trkpt>
      <trkpt lat="44.35118" lon="5.68434">
        <ele>693</ele>
        <time>2019-03-23T13:47:08Z</time>
      </trkpt>
      <trkpt lat="44.3512" lon="5.68426">
        <ele>693</ele>
        <time>2019-03-23T13:47:09Z</time>
      </trkpt>
      <trkpt lat="44.35123" lon="5.68417">
        <ele>693</ele>
        <time>2019-03-23T13:47:10Z</time>
      </trkpt>
      <trkpt lat="44.35124" lon="5.68408">
        <ele>693</ele>
        <time>2019-03-23T13:47:11Z</time>
      </trkpt>
      <trkpt lat="44.35126" lon="5.68399">
        <ele>693</ele>
        <time>2019-03-23T13:47:12Z</time>
      </trkpt>
      <trkpt lat="44.35126" lon="5.6839">
        <ele>693</ele>
        <time>2019-03-23T13:47:13Z</time>
      </trkpt>
      <trkpt lat="44.35127" lon="5.68382">
        <ele>693</ele>
        <time>2019-03-23T13:47:14Z</time>
      </trkpt>
      <trkpt lat="44.35127" lon="5.68373">
        <ele>693</ele>
        <time>2019-03-23T13:47:15Z</time>
      </trkpt>
      <trkpt lat="44.35127" lon="5.68364">
        <ele>693</ele>
        <time>2019-03-23T13:47:16Z</time>
      </trkpt>
      <trkpt lat="44.35128" lon="5.68356">
        <ele>693</ele>
        <time>2019-03-23T13:47:17Z</time>
      </trkpt>
      <trkpt lat="44.3513" lon="5.68348">
        <ele>693</ele>
        <time>2019-03-23T13:47:18Z</time>
      </trkpt>
      <trkpt lat="44.35131" lon="5.6834">
        <ele>693</ele>
        <time>2019-03-23T13:47:19Z</time>
      </trkpt>
      <trkpt lat="44.35133" lon="5.68333">
        <ele>693</ele>
        <time>2019-03-23T13:47:20Z</time>
      </trkpt>
      <trkpt lat="44.35135" lon="5.68325">
        <ele>693</ele>
        <time>2019-03-23T13:47:21Z</time>
      </trkpt>
      <trkpt lat="44.35137" lon="5.68318">
        <ele>693</ele>
        <time>2019-03-23T13:47:22Z</time>
      </trkpt>
      <trkpt lat="44.35139" lon="5.68311">
        <ele>693</ele>
        <time>2019-03-23T13:47:23Z</time>
      </trkpt>
      <trkpt lat="44.35142" lon="5.68304">
        <ele>693</ele>
        <time>2019-03-23T13:47:24Z</time>
      </trkpt>
      <trkpt lat="44.35145" lon="5.68297">
        <ele>693</ele>
        <time>2019-03-23T13:47:25Z</time>
      </trkpt>
      <trkpt lat="44.35148" lon="5.6829">
        <ele>693</ele>
        <time>2019-03-23T13:47:26Z</time>
      </trkpt>
      <trkpt lat="44.35151" lon="5.68283">
        <ele>693</ele>
        <time>2019-03-23T13:47:27Z</time>
      </trkpt>
      <trkpt lat="44.35154" lon="5.68276">
        <ele>693</ele>
        <time>2019-03-23T13:47:28Z</time>
      </trkpt>
      <trkpt lat="44.35157" lon="5.68269">
        <ele>693</ele>
        <time>2019-03-23T13:47:30Z</time>
      </trkpt>
      <trkpt lat="44.35159" lon="5.68262">
        <ele>693</ele>
        <time>2019-03-23T13:47:30Z</time>
      </trkpt>
      <trkpt lat="44.35162" lon="5.68255">
        <ele>693</ele>
        <time>2019-03-23T13:47:31Z</time>
      </trkpt>
      <trkpt lat="44.35164" lon="5.68248">
        <ele>693</ele>
        <time>2019-03-23T13:47:32Z</time>
      </trkpt>
      <trkpt lat="44.35167" lon="5.68241">
        <ele>693</ele>
        <time>2019-03-23T13:47:33Z</time>
      </trkpt>
      <trkpt lat="44.3517" lon="5.68234">
        <ele>693</ele>
        <time>2019-03-23T13:47:34Z</time>
      </trkpt>
      <trkpt lat="44.35172" lon="5.68227">
        <ele>693</ele>
        <time>2019-03-23T13:47:35Z</time>
      </trkpt>
      <trkpt lat="44.35175" lon="5.6822">
        <ele>693</ele>
        <time>2019-03-23T13:47:36Z</time>
      </trkpt>
      <trkpt lat="44.35177" lon="5.68213">
        <ele>693</ele>
        <time>2019-03-23T13:47:37Z</time>
      </trkpt>
      <trkpt lat="44.35179" lon="5.68206">
        <ele>693</ele>
        <time>2019-03-23T13:47:38Z</time>
      </trkpt>
      <trkpt lat="44.35181" lon="5.68199">
        <ele>693</ele>
        <time>2019-03-23T13:47:39Z</time>
      </trkpt>
      <trkpt lat="44.35183" lon="5.68191">
        <ele>693</ele>
        <time>2019-03-23T13:47:40Z</time>
      </trkpt>
      <trkpt lat="44.35184" lon="5.68184">
        <ele>693</ele>
        <time>2019-03-23T13:47:41Z</time>
      </trkpt>
      <trkpt lat="44.35186" lon="5.68177">
        <ele>693</ele>
        <time>2019-03-23T13:47:42Z</time>
      </trkpt>
      <trkpt lat="44.35187" lon="5.68169">
        <ele>693</ele>
        <time>2019-03-23T13:47:43Z</time>
      </trkpt>
      <trkpt lat="44.35188" lon="5.68161">
        <ele>693</ele>
        <time>2019-03-23T13:47:44Z</time>
      </trkpt>
      <trkpt lat="44.35189" lon="5.68154">
        <ele>693</ele>
        <time>2019-03-23T13:47:45Z</time>
      </trkpt>
      <trkpt lat="44.3519" lon="5.68146">
        <ele>693</ele>
        <time>2019-03-23T13:47:46Z</time>
      </trkpt>
      <trkpt lat="44.35192" lon="5.68138">
        <ele>693</ele>
        <time>2019-03-23T13:47:47Z</time>
      </trkpt>
      <trkpt lat="44.35194" lon="5.68131">
        <ele>693</ele>
        <time>2019-03-23T13:47:48Z</time>
      </trkpt>
      <trkpt lat="44.35197" lon="5.68124">
        <ele>693</ele>
        <time>2019-03-23T13:47:49Z</time>
      </trkpt>
      <trkpt lat="44.35199" lon="5.68118">
        <ele>693</ele>
        <time>2019-03-23T13:47:50Z</time>
      </trkpt>
      <trkpt lat="44.35203" lon="5.68111">
        <ele>693</ele>
        <time>2019-03-23T13:47:51Z</time>
      </trkpt>
      <trkpt lat="44.35206" lon="5.68104">
        <ele>693</ele>
        <time>2019-03-23T13:47:52Z</time>
      </trkpt>
      <trkpt lat="44.3521" lon="5.68098">
        <ele>693</ele>
        <time>2019-03-23T13:47:53Z</time>
      </trkpt>
      <trkpt lat="44.35213" lon="5.68092">
        <ele>693</ele>
        <time>2019-03-23T13:47:54Z</time>
      </trkpt>
      <trkpt lat="44.35217" lon="5.68085">
        <ele>693</ele>
        <time>2019-03-23T13:47:55Z</time>
      </trkpt>
      <trkpt lat="44.35221" lon="5.68079">
        <ele>693</ele>
        <time>2019-03-23T13:47:56Z</time>
      </trkpt>
      <trkpt lat="44.35224" lon="5.68073">
        <ele>693</ele>
        <time>2019-03-23T13:47:57Z</time>
      </trkpt>
      <trkpt lat="44.35228" lon="5.68066">
        <ele>693</ele>
        <time>2019-03-23T13:47:58Z</time>
      </trkpt>
      <trkpt lat="44.35232" lon="5.68059">
        <ele>693</ele>
        <time>2019-03-23T13:47:59Z</time>
      </trkpt>
      <trkpt lat="44.35235" lon="5.68052">
        <ele>693</ele>
        <time>2019-03-23T13:48:00Z</time>
      </trkpt>
      <trkpt lat="44.35239" lon="5.68046">
        <ele>693</ele>
        <time>2019-03-23T13:48:01Z</time>
      </trkpt>
      <trkpt lat="44.35242" lon="5.68039">
        <ele>693</ele>
        <time>2019-03-23T13:48:02Z</time>
      </trkpt>
      <trkpt lat="44.35246" lon="5.68033">
        <ele>693</ele>
        <time>2019-03-23T13:48:03Z</time>
      </trkpt>
      <trkpt lat="44.3525" lon="5.68026">
        <ele>693</ele>
        <time>2019-03-23T13:48:04Z</time>
      </trkpt>
      <trkpt lat="44.35254" lon="5.6802">
        <ele>693</ele>
        <time>2019-03-23T13:48:05Z</time>
      </trkpt>
      <trkpt lat="44.35257" lon="5.68013">
        <ele>693</ele>
        <time>2019-03-23T13:48:06Z</time>
      </trkpt>
      <trkpt lat="44.3526" lon="5.68006">
        <ele>693</ele>
        <time>2019-03-23T13:48:07Z</time>
      </trkpt>
      <trkpt lat="44.35264" lon="5.67999">
        <ele>693</ele>
        <time>2019-03-23T13:48:08Z</time>
      </trkpt>
      <trkpt lat="44.35268" lon="5.67991">
        <ele>693</ele>
        <time>2019-03-23T13:48:09Z</time>
      </trkpt>
      <trkpt lat="44.35273" lon="5.67984">
        <ele>693</ele>
        <time>2019-03-23T13:48:10Z</time>
      </trkpt>
      <trkpt lat="44.35277" lon="5.67977">
        <ele>693</ele>
        <time>2019-03-23T13:48:11Z</time>
      </trkpt>
      <trkpt lat="44.35281" lon="5.6797">
        <ele>693</ele>
        <time>2019-03-23T13:48:12Z</time>
      </trkpt>
      <trkpt lat="44.35286" lon="5.67963">
        <ele>693</ele>
        <time>2019-03-23T13:48:13Z</time>
      </trkpt>
      <trkpt lat="44.3529" lon="5.67956">
        <ele>693</ele>
        <time>2019-03-23T13:48:14Z</time>
      </trkpt>
      <trkpt lat="44.35294" lon="5.67949">
        <ele>693</ele>
        <time>2019-03-23T13:48:15Z</time>
      </trkpt>
      <trkpt lat="44.35298" lon="5.67942">
        <ele>693</ele>
        <time>2019-03-23T13:48:16Z</time>
      </trkpt>
      <trkpt lat="44.35301" lon="5.67934">
        <ele>693</ele>
        <time>2019-03-23T13:48:17Z</time>
      </trkpt>
      <trkpt lat="44.35305" lon="5.67927">
        <ele>693</ele>
        <time>2019-03-23T13:48:18Z</time>
      </trkpt>
      <trkpt lat="44.35308" lon="5.6792">
        <ele>693</ele>
        <time>2019-03-23T13:48:19Z</time>
      </trkpt>
      <trkpt lat="44.35312" lon="5.67913">
        <ele>693</ele>
        <time>2019-03-23T13:48:20Z</time>
      </trkpt>
      <trkpt lat="44.35315" lon="5.67906">
        <ele>693</ele>
        <time>2019-03-23T13:48:21Z</time>
      </trkpt>
      <trkpt lat="44.35318" lon="5.67898">
        <ele>693</ele>
        <time>2019-03-23T13:48:22Z</time>
      </trkpt>
      <trkpt lat="44.35321" lon="5.6789">
        <ele>693</ele>
        <time>2019-03-23T13:48:23Z</time>
      </trkpt>
      <trkpt lat="44.35323" lon="5.67882">
        <ele>693</ele>
        <time>2019-03-23T13:48:24Z</time>
      </trkpt>
      <trkpt lat="44.35325" lon="5.67874">
        <ele>693</ele>
        <time>2019-03-23T13:48:25Z</time>
      </trkpt>
      <trkpt lat="44.35326" lon="5.67866">
        <ele>693</ele>
        <time>2019-03-23T13:48:26Z</time>
      </trkpt>
      <trkpt lat="44.35326" lon="5.67857">
        <ele>693</ele>
        <time>2019-03-23T13:48:27Z</time>
      </trkpt>
      <trkpt lat="44.35326" lon="5.67849">
        <ele>693</ele>
        <time>2019-03-23T13:48:28Z</time>
      </trkpt>
      <trkpt lat="44.35326" lon="5.6784">
        <ele>693</ele>
        <time>2019-03-23T13:48:29Z</time>
      </trkpt>
      <trkpt lat="44.35326" lon="5.67831">
        <ele>693</ele>
        <time>2019-03-23T13:48:30Z</time>
      </trkpt>
      <trkpt lat="44.35325" lon="5.67823">
        <ele>693</ele>
        <time>2019-03-23T13:48:31Z</time>
      </trkpt>
      <trkpt lat="44.35324" lon="5.67814">
        <ele>693</ele>
        <time>2019-03-23T13:48:32Z</time>
      </trkpt>
      <trkpt lat="44.35324" lon="5.67806">
        <ele>693</ele>
        <time>2019-03-23T13:48:33Z</time>
      </trkpt>
      <trkpt lat="44.35323" lon="5.67797">
        <ele>693</ele>
        <time>2019-03-23T13:48:34Z</time>
      </trkpt>
      <trkpt lat="44.35323" lon="5.67788">
        <ele>693</ele>
        <time>2019-03-23T13:48:35Z</time>
      </trkpt>
      <trkpt lat="44.35322" lon="5.67779">
        <ele>693</ele>
        <time>2019-03-23T13:48:36Z</time>
      </trkpt>
      <trkpt lat="44.35321" lon="5.67771">
        <ele>693</ele>
        <time>2019-03-23T13:48:37Z</time>
      </trkpt>
      <trkpt lat="44.35321" lon="5.67762">
        <ele>693</ele>
        <time>2019-03-23T13:48:38Z</time>
      </trkpt>
      <trkpt lat="44.3532" lon="5.67753">
        <ele>693</ele>
        <time>2019-03-23T13:48:39Z</time>
      </trkpt>
      <trkpt lat="44.35319" lon="5.67745">
        <ele>693</ele>
        <time>2019-03-23T13:48:40Z</time>
      </trkpt>
      <trkpt lat="44.35318" lon="5.67736">
        <ele>693</ele>
        <time>2019-03-23T13:48:41Z</time>
      </trkpt>
      <trkpt lat="44.35316" lon="5.67728">
        <ele>693</ele>
        <time>2019-03-23T13:48:42Z</time>
      </trkpt>
      <trkpt lat="44.35315" lon="5.6772">
        <ele>693</ele>
        <time>2019-03-23T13:48:43Z</time>
      </trkpt>
      <trkpt lat="44.35315" lon="5.67711">
        <ele>693</ele>
        <time>2019-03-23T13:48:44Z</time>
      </trkpt>
      <trkpt lat="44.35314" lon="5.67703">
        <ele>693</ele>
        <time>2019-03-23T13:48:45Z</time>
      </trkpt>
      <trkpt lat="44.35315" lon="5.67694">
        <ele>693</ele>
        <time>2019-03-23T13:48:46Z</time>
      </trkpt>
      <trkpt lat="44.35316" lon="5.67686">
        <ele>693</ele>
        <time>2019-03-23T13:48:47Z</time>
      </trkpt>
      <trkpt lat="44.35318" lon="5.67677">
        <ele>693</ele>
        <time>2019-03-23T13:48:48Z</time>
      </trkpt>
      <trkpt lat="44.3532" lon="5.67669">
        <ele>693</ele>
        <time>2019-03-23T13:48:49Z</time>
      </trkpt>
      <trkpt lat="44.35323" lon="5.67661">
        <ele>693</ele>
        <time>2019-03-23T13:48:50Z</time>
      </trkpt>
      <trkpt lat="44.35327" lon="5.67654">
        <ele>693</ele>
        <time>2019-03-23T13:48:51Z</time>
      </trkpt>
      <trkpt lat="44.3533" lon="5.67647">
        <ele>693</ele>
        <time>2019-03-23T13:48:52Z</time>
      </trkpt>
      <trkpt lat="44.35334" lon="5.6764">
        <ele>693</ele>
        <time>2019-03-23T13:48:53Z</time>
      </trkpt>
      <trkpt lat="44.35337" lon="5.67633">
        <ele>693</ele>
        <time>2019-03-23T13:48:54Z</time>
      </trkpt>
      <trkpt lat="44.3534" lon="5.67626">
        <ele>693</ele>
        <time>2019-03-23T13:48:55Z</time>
      </trkpt>
      <trkpt lat="44.35344" lon="5.67619">
        <ele>693</ele>
        <time>2019-03-23T13:48:56Z</time>
      </trkpt>
      <trkpt lat="44.35348" lon="5.67612">
        <ele>693</ele>
        <time>2019-03-23T13:48:57Z</time>
      </trkpt>
      <trkpt lat="44.35352" lon="5.67605">
        <ele>693</ele>
        <time>2019-03-23T13:48:58Z</time>
      </trkpt>
      <trkpt lat="44.35355" lon="5.67598">
        <ele>693</ele>
        <time>2019-03-23T13:48:59Z</time>
      </trkpt>
      <trkpt lat="44.35359" lon="5.67591">
        <ele>693</ele>
        <time>2019-03-23T13:49:00Z</time>
      </trkpt>
      <trkpt lat="44.35363" lon="5.67584">
        <ele>693</ele>
        <time>2019-03-23T13:49:01Z</time>
      </trkpt>
      <trkpt lat="44.35366" lon="5.67577">
        <ele>693</ele>
        <time>2019-03-23T13:49:02Z</time>
      </trkpt>
      <trkpt lat="44.3537" lon="5.6757">
        <ele>693</ele>
        <time>2019-03-23T13:49:03Z</time>
      </trkpt>
      <trkpt lat="44.35373" lon="5.67563">
        <ele>693</ele>
        <time>2019-03-23T13:49:04Z</time>
      </trkpt>
      <trkpt lat="44.35377" lon="5.67556">
        <ele>693</ele>
        <time>2019-03-23T13:49:05Z</time>
      </trkpt>
      <trkpt lat="44.35381" lon="5.67549">
        <ele>693</ele>
        <time>2019-03-23T13:49:06Z</time>
      </trkpt>
      <trkpt lat="44.35384" lon="5.67542">
        <ele>693</ele>
        <time>2019-03-23T13:49:07Z</time>
      </trkpt>
      <trkpt lat="44.35387" lon="5.67534">
        <ele>693</ele>
        <time>2019-03-23T13:49:08Z</time>
      </trkpt>
      <trkpt lat="44.3539" lon="5.67527">
        <ele>693</ele>
        <time>2019-03-23T13:49:09Z</time>
      </trkpt>
      <trkpt lat="44.35393" lon="5.6752">
        <ele>693</ele>
        <time>2019-03-23T13:49:10Z</time>
      </trkpt>
      <trkpt lat="44.35396" lon="5.67513">
        <ele>693</ele>
        <time>2019-03-23T13:49:11Z</time>
      </trkpt>
      <trkpt lat="44.35399" lon="5.67505">
        <ele>693</ele>
        <time>2019-03-23T13:49:12Z</time>
      </trkpt>
      <trkpt lat="44.35402" lon="5.67497">
        <ele>693</ele>
        <time>2019-03-23T13:49:13Z</time>
      </trkpt>
      <trkpt lat="44.35404" lon="5.6749">
        <ele>693</ele>
        <time>2019-03-23T13:49:14Z</time>
      </trkpt>
      <trkpt lat="44.35406" lon="5.67482">
        <ele>693</ele>
        <time>2019-03-23T13:49:15Z</time>
      </trkpt>
      <trkpt lat="44.35408" lon="5.67475">
        <ele>693</ele>
        <time>2019-03-23T13:49:16Z</time>
      </trkpt>
      <trkpt lat="44.3541" lon="5.67467">
        <ele>693</ele>
        <time>2019-03-23T13:49:17Z</time>
      </trkpt>
      <trkpt lat="44.35413" lon="5.6746">
        <ele>693</ele>
        <time>2019-03-23T13:49:18Z</time>
      </trkpt>
      <trkpt lat="44.35415" lon="5.67452">
        <ele>693</ele>
        <time>2019-03-23T13:49:19Z</time>
      </trkpt>
      <trkpt lat="44.35417" lon="5.67445">
        <ele>693</ele>
        <time>2019-03-23T13:49:20Z</time>
      </trkpt>
      <trkpt lat="44.35419" lon="5.67438">
        <ele>693</ele>
        <time>2019-03-23T13:49:21Z</time>
      </trkpt>
      <trkpt lat="44.35421" lon="5.6743">
        <ele>693</ele>
        <time>2019-03-23T13:49:22Z</time>
      </trkpt>
      <trkpt lat="44.35423" lon="5.67423">
        <ele>694</ele>
        <time>2019-03-23T13:49:23Z</time>
      </trkpt>
      <trkpt lat="44.35425" lon="5.67416">
        <ele>694</ele>
        <time>2019-03-23T13:49:24Z</time>
      </trkpt>
      <trkpt lat="44.35427" lon="5.67408">
        <ele>694</ele>
        <time>2019-03-23T13:49:25Z</time>
      </trkpt>
      <trkpt lat="44.35429" lon="5.67401">
        <ele>694</ele>
        <time>2019-03-23T13:49:26Z</time>
      </trkpt>
      <trkpt lat="44.35431" lon="5.67394">
        <ele>695</ele>
        <time>2019-03-23T13:49:27Z</time>
      </trkpt>
      <trkpt lat="44.35432" lon="5.67386">
        <ele>695</ele>
        <time>2019-03-23T13:49:28Z</time>
      </trkpt>
      <trkpt lat="44.35433" lon="5.67378">
        <ele>695</ele>
        <time>2019-03-23T13:49:29Z</time>
      </trkpt>
      <trkpt lat="44.35433" lon="5.67371">
        <ele>695</ele>
        <time>2019-03-23T13:49:30Z</time>
      </trkpt>
      <trkpt lat="44.35434" lon="5.67362">
        <ele>695</ele>
        <time>2019-03-23T13:49:31Z</time>
      </trkpt>
      <trkpt lat="44.35434" lon="5.67355">
        <ele>696</ele>
        <time>2019-03-23T13:49:32Z</time>
      </trkpt>
      <trkpt lat="44.35434" lon="5.67346">
        <ele>696</ele>
        <time>2019-03-23T13:49:33Z</time>
      </trkpt>
      <trkpt lat="44.35434" lon="5.67339">
        <ele>696</ele>
        <time>2019-03-23T13:49:34Z</time>
      </trkpt>
      <trkpt lat="44.35434" lon="5.6733">
        <ele>696</ele>
        <time>2019-03-23T13:49:35Z</time>
      </trkpt>
      <trkpt lat="44.35435" lon="5.67322">
        <ele>697</ele>
        <time>2019-03-23T13:49:36Z</time>
      </trkpt>
      <trkpt lat="44.35437" lon="5.67314">
        <ele>697</ele>
        <time>2019-03-23T13:49:37Z</time>
      </trkpt>
      <trkpt lat="44.35438" lon="5.67307">
        <ele>697</ele>
        <time>2019-03-23T13:49:38Z</time>
      </trkpt>
      <trkpt lat="44.3544" lon="5.67299">
        <ele>698</ele>
        <time>2019-03-23T13:49:39Z</time>
      </trkpt>
      <trkpt lat="44.35443" lon="5.67292">
        <ele>698</ele>
        <time>2019-03-23T13:49:40Z</time>
      </trkpt>
      <trkpt lat="44.35445" lon="5.67285">
        <ele>698</ele>
        <time>2019-03-23T13:49:41Z</time>
      </trkpt>
      <trkpt lat="44.35448" lon="5.67279">
        <ele>698</ele>
        <time>2019-03-23T13:49:42Z</time>
      </trkpt>
      <trkpt lat="44.35451" lon="5.67273">
        <ele>698</ele>
        <time>2019-03-23T13:49:43Z</time>
      </trkpt>
      <trkpt lat="44.35455" lon="5.67266">
        <ele>698</ele>
        <time>2019-03-23T13:49:44Z</time>
      </trkpt>
      <trkpt lat="44.35458" lon="5.6726">
        <ele>698</ele>
        <time>2019-03-23T13:49:45Z</time>
      </trkpt>
      <trkpt lat="44.35461" lon="5.67254">
        <ele>698</ele>
        <time>2019-03-23T13:49:46Z</time>
      </trkpt>
      <trkpt lat="44.35464" lon="5.67247">
        <ele>698</ele>
        <time>2019-03-23T13:49:47Z</time>
      </trkpt>
      <trkpt lat="44.35468" lon="5.67241">
        <ele>698</ele>
        <time>2019-03-23T13:49:48Z</time>
      </trkpt>
      <trkpt lat="44.35471" lon="5.67235">
        <ele>698</ele>
        <time>2019-03-23T13:49:49Z</time>
      </trkpt>
      <trkpt lat="44.35475" lon="5.67228">
        <ele>698</ele>
        <time>2019-03-23T13:49:50Z</time>
      </trkpt>
      <trkpt lat="44.35479" lon="5.67222">
        <ele>698</ele>
        <time>2019-03-23T13:49:51Z</time>
      </trkpt>
      <trkpt lat="44.35483" lon="5.67217">
        <ele>698</ele>
        <time>2019-03-23T13:49:52Z</time>
      </trkpt>
      <trkpt lat="44.35487" lon="5.67212">
        <ele>698</ele>
        <time>2019-03-23T13:49:53Z</time>
      </trkpt>
      <trkpt lat="44.35491" lon="5.67206">
        <ele>698</ele>
        <time>2019-03-23T13:49:54Z</time>
      </trkpt>
      <trkpt lat="44.35494" lon="5.67201">
        <ele>699</ele>
        <time>2019-03-23T13:49:55Z</time>
      </trkpt>
      <trkpt lat="44.35498" lon="5.67196">
        <ele>699</ele>
        <time>2019-03-23T13:49:56Z</time>
      </trkpt>
      <trkpt lat="44.35502" lon="5.6719">
        <ele>699</ele>
        <time>2019-03-23T13:49:57Z</time>
      </trkpt>
      <trkpt lat="44.35505" lon="5.67184">
        <ele>699</ele>
        <time>2019-03-23T13:49:58Z</time>
      </trkpt>
      <trkpt lat="44.35509" lon="5.67178">
        <ele>700</ele>
        <time>2019-03-23T13:49:59Z</time>
      </trkpt>
      <trkpt lat="44.35512" lon="5.67172">
        <ele>700</ele>
        <time>2019-03-23T13:50:00Z</time>
      </trkpt>
      <trkpt lat="44.35515" lon="5.67167">
        <ele>701</ele>
        <time>2019-03-23T13:50:01Z</time>
      </trkpt>
      <trkpt lat="44.35518" lon="5.67161">
        <ele>701</ele>
        <time>2019-03-23T13:50:02Z</time>
      </trkpt>
      <trkpt lat="44.35521" lon="5.67154">
        <ele>701</ele>
        <time>2019-03-23T13:50:03Z</time>
      </trkpt>
      <trkpt lat="44.35523" lon="5.67148">
        <ele>701</ele>
        <time>2019-03-23T13:50:04Z</time>
      </trkpt>
      <trkpt lat="44.35525" lon="5.67141">
        <ele>702</ele>
        <time>2019-03-23T13:50:05Z</time>
      </trkpt>
      <trkpt lat="44.35527" lon="5.67134">
        <ele>702</ele>
        <time>2019-03-23T13:50:06Z</time>
      </trkpt>
      <trkpt lat="44.35528" lon="5.67127">
        <ele>702</ele>
        <time>2019-03-23T13:50:07Z</time>
      </trkpt>
      <trkpt lat="44.3553" lon="5.6712">
        <ele>702</ele>
        <time>2019-03-23T13:50:08Z</time>
      </trkpt>
      <trkpt lat="44.35531" lon="5.67112">
        <ele>702</ele>
        <time>2019-03-23T13:50:09Z</time>
      </trkpt>
      <trkpt lat="44.35532" lon="5.67104">
        <ele>702</ele>
        <time>2019-03-23T13:50:10Z</time>
      </trkpt>
      <trkpt lat="44.35533" lon="5.67097">
        <ele>702</ele>
        <time>2019-03-23T13:50:11Z</time>
      </trkpt>
      <trkpt lat="44.35534" lon="5.67089">
        <ele>702</ele>
        <time>2019-03-23T13:50:12Z</time>
      </trkpt>
      <trkpt lat="44.35535" lon="5.67081">
        <ele>702</ele>
        <time>2019-03-23T13:50:13Z</time>
      </trkpt>
      <trkpt lat="44.35535" lon="5.67074">
        <ele>702</ele>
        <time>2019-03-23T13:50:14Z</time>
      </trkpt>
      <trkpt lat="44.35535" lon="5.67066">
        <ele>702</ele>
        <time>2019-03-23T13:50:15Z</time>
      </trkpt>
      <trkpt lat="44.35535" lon="5.67058">
        <ele>702</ele>
        <time>2019-03-23T13:50:16Z</time>
      </trkpt>
      <trkpt lat="44.35535" lon="5.6705">
        <ele>702</ele>
        <time>2019-03-23T13:50:17Z</time>
      </trkpt>
      <trkpt lat="44.35534" lon="5.67041">
        <ele>702</ele>
        <time>2019-03-23T13:50:18Z</time>
      </trkpt>
      <trkpt lat="44.35533" lon="5.67034">
        <ele>702</ele>
        <time>2019-03-23T13:50:19Z</time>
      </trkpt>
      <trkpt lat="44.35532" lon="5.67026">
        <ele>702</ele>
        <time>2019-03-23T13:50:20Z</time>
      </trkpt>
      <trkpt lat="44.3553" lon="5.67018">
        <ele>702</ele>
        <time>2019-03-23T13:50:21Z</time>
      </trkpt>
      <trkpt lat="44.35529" lon="5.6701">
        <ele>702</ele>
        <time>2019-03-23T13:50:22Z</time>
      </trkpt>
      <trkpt lat="44.35527" lon="5.67002">
        <ele>702</ele>
        <time>2019-03-23T13:50:23Z</time>
      </trkpt>
      <trkpt lat="44.35524" lon="5.66995">
        <ele>702</ele>
        <time>2019-03-23T13:50:24Z</time>
      </trkpt>
      <trkpt lat="44.35522" lon="5.66988">
        <ele>702</ele>
        <time>2019-03-23T13:50:25Z</time>
      </trkpt>
      <trkpt lat="44.35519" lon="5.66981">
        <ele>702</ele>
        <time>2019-03-23T13:50:26Z</time>
      </trkpt>
      <trkpt lat="44.35516" lon="5.66974">
        <ele>703</ele>
        <time>2019-03-23T13:50:27Z</time>
      </trkpt>
      <trkpt lat="44.35512" lon="5.66967">
        <ele>703</ele>
        <time>2019-03-23T13:50:28Z</time>
      </trkpt>
      <trkpt lat="44.35508" lon="5.6696">
        <ele>703</ele>
        <time>2019-03-23T13:50:29Z</time>
      </trkpt>
      <trkpt lat="44.35505" lon="5.66954">
        <ele>703</ele>
        <time>2019-03-23T13:50:30Z</time>
      </trkpt>
      <trkpt lat="44.35501" lon="5.66948">
        <ele>704</ele>
        <time>2019-03-23T13:50:31Z</time>
      </trkpt>
      <trkpt lat="44.35498" lon="5.66941">
        <ele>704</ele>
        <time>2019-03-23T13:50:32Z</time>
      </trkpt>
      <trkpt lat="44.35495" lon="5.66934">
        <ele>704</ele>
        <time>2019-03-23T13:50:33Z</time>
      </trkpt>
      <trkpt lat="44.35492" lon="5.66927">
        <ele>704</ele>
        <time>2019-03-23T13:50:34Z</time>
      </trkpt>
      <trkpt lat="44.35489" lon="5.66921">
        <ele>704</ele>
        <time>2019-03-23T13:50:35Z</time>
      </trkpt>
      <trkpt lat="44.35486" lon="5.66914">
        <ele>704</ele>
        <time>2019-03-23T13:50:36Z</time>
      </trkpt>
      <trkpt lat="44.35484" lon="5.66906">
        <ele>704</ele>
        <time>2019-03-23T13:50:37Z</time>
      </trkpt>
      <trkpt lat="44.35481" lon="5.66899">
        <ele>704</ele>
        <time>2019-03-23T13:50:38Z</time>
      </trkpt>
      <trkpt lat="44.35479" lon="5.66891">
        <ele>704</ele>
        <time>2019-03-23T13:50:39Z</time>
      </trkpt>
      <trkpt lat="44.35477" lon="5.66884">
        <ele>704</ele>
        <time>2019-03-23T13:50:40Z</time>
      </trkpt>
      <trkpt lat="44.35475" lon="5.66876">
        <ele>704</ele>
        <time>2019-03-23T13:50:41Z</time>
      </trkpt>
      <trkpt lat="44.35473" lon="5.66869">
        <ele>704</ele>
        <time>2019-03-23T13:50:42Z</time>
      </trkpt>
      <trkpt lat="44.35471" lon="5.66861">
        <ele>704</ele>
        <time>2019-03-23T13:50:43Z</time>
      </trkpt>
      <trkpt lat="44.35469" lon="5.66853">
        <ele>704</ele>
        <time>2019-03-23T13:50:44Z</time>
      </trkpt>
      <trkpt lat="44.35468" lon="5.66846">
        <ele>704</ele>
        <time>2019-03-23T13:50:45Z</time>
      </trkpt>
      <trkpt lat="44.35466" lon="5.66838">
        <ele>704</ele>
        <time>2019-03-23T13:50:46Z</time>
      </trkpt>
      <trkpt lat="44.35464" lon="5.6683">
        <ele>704</ele>
        <time>2019-03-23T13:50:47Z</time>
      </trkpt>
      <trkpt lat="44.35463" lon="5.66822">
        <ele>704</ele>
        <time>2019-03-23T13:50:48Z</time>
      </trkpt>
      <trkpt lat="44.35461" lon="5.66814">
        <ele>704</ele>
        <time>2019-03-23T13:50:49Z</time>
      </trkpt>
      <trkpt lat="44.3546" lon="5.66806">
        <ele>704</ele>
        <time>2019-03-23T13:50:50Z</time>
      </trkpt>
      <trkpt lat="44.35459" lon="5.66798">
        <ele>704</ele>
        <time>2019-03-23T13:50:51Z</time>
      </trkpt>
      <trkpt lat="44.35459" lon="5.6679">
        <ele>704</ele>
        <time>2019-03-23T13:50:52Z</time>
      </trkpt>
      <trkpt lat="44.35458" lon="5.66782">
        <ele>704</ele>
        <time>2019-03-23T13:50:53Z</time>
      </trkpt>
      <trkpt lat="44.35458" lon="5.66774">
        <ele>704</ele>
        <time>2019-03-23T13:50:54Z</time>
      </trkpt>
      <trkpt lat="44.35458" lon="5.66765">
        <ele>704</ele>
        <time>2019-03-23T13:50:55Z</time>
      </trkpt>
      <trkpt lat="44.35459" lon="5.66757">
        <ele>704</ele>
        <time>2019-03-23T13:50:56Z</time>
      </trkpt>
      <trkpt lat="44.3546" lon="5.66748">
        <ele>704</ele>
        <time>2019-03-23T13:50:57Z</time>
      </trkpt>
      <trkpt lat="44.35461" lon="5.6674">
        <ele>705</ele>
        <time>2019-03-23T13:50:58Z</time>
      </trkpt>
      <trkpt lat="44.35463" lon="5.66732">
        <ele>705</ele>
        <time>2019-03-23T13:50:59Z</time>
      </trkpt>
      <trkpt lat="44.35465" lon="5.66724">
        <ele>706</ele>
        <time>2019-03-23T13:51:00Z</time>
      </trkpt>
      <trkpt lat="44.35467" lon="5.66717">
        <ele>706</ele>
        <time>2019-03-23T13:51:01Z</time>
      </trkpt>
      <trkpt lat="44.35469" lon="5.6671">
        <ele>706</ele>
        <time>2019-03-23T13:51:02Z</time>
      </trkpt>
      <trkpt lat="44.35471" lon="5.66702">
        <ele>707</ele>
        <time>2019-03-23T13:51:03Z</time>
      </trkpt>
      <trkpt lat="44.35474" lon="5.66695">
        <ele>707</ele>
        <time>2019-03-23T13:51:04Z</time>
      </trkpt>
      <trkpt lat="44.35476" lon="5.66688">
        <ele>707</ele>
        <time>2019-03-23T13:51:05Z</time>
      </trkpt>
      <trkpt lat="44.35479" lon="5.66681">
        <ele>707</ele>
        <time>2019-03-23T13:51:06Z</time>
      </trkpt>
      <trkpt lat="44.35481" lon="5.66674">
        <ele>707</ele>
        <time>2019-03-23T13:51:07Z</time>
      </trkpt>
      <trkpt lat="44.35484" lon="5.66667">
        <ele>707</ele>
        <time>2019-03-23T13:51:08Z</time>
      </trkpt>
      <trkpt lat="44.35487" lon="5.6666">
        <ele>707</ele>
        <time>2019-03-23T13:51:09Z</time>
      </trkpt>
      <trkpt lat="44.3549" lon="5.66654">
        <ele>708</ele>
        <time>2019-03-23T13:51:10Z</time>
      </trkpt>
      <trkpt lat="44.35493" lon="5.66647">
        <ele>708</ele>
        <time>2019-03-23T13:51:11Z</time>
      </trkpt>
      <trkpt lat="44.35496" lon="5.66641">
        <ele>708</ele>
        <time>2019-03-23T13:51:12Z</time>
      </trkpt>
      <trkpt lat="44.35498" lon="5.66635">
        <ele>708</ele>
        <time>2019-03-23T13:51:13Z</time>
      </trkpt>
      <trkpt lat="44.35502" lon="5.66629">
        <ele>708</ele>
        <time>2019-03-23T13:51:14Z</time>
      </trkpt>
      <trkpt lat="44.35505" lon="5.66623">
        <ele>708</ele>
        <time>2019-03-23T13:51:15Z</time>
      </trkpt>
      <trkpt lat="44.35508" lon="5.66617">
        <ele>708</ele>
        <time>2019-03-23T13:51:16Z</time>
      </trkpt>
      <trkpt lat="44.35512" lon="5.66612">
        <ele>708</ele>
        <time>2019-03-23T13:51:17Z</time>
      </trkpt>
      <trkpt lat="44.35516" lon="5.66606">
        <ele>708</ele>
        <time>2019-03-23T13:51:18Z</time>
      </trkpt>
      <trkpt lat="44.35519" lon="5.666">
        <ele>708</ele>
        <time>2019-03-23T13:51:19Z</time>
      </trkpt>
      <trkpt lat="44.35523" lon="5.66594">
        <ele>708</ele>
        <time>2019-03-23T13:51:20Z</time>
      </trkpt>
      <trkpt lat="44.35526" lon="5.66588">
        <ele>708</ele>
        <time>2019-03-23T13:51:21Z</time>
      </trkpt>
      <trkpt lat="44.3553" lon="5.66583">
        <ele>708</ele>
        <time>2019-03-23T13:51:22Z</time>
      </trkpt>
      <trkpt lat="44.35533" lon="5.66577">
        <ele>708</ele>
        <time>2019-03-23T13:51:23Z</time>
      </trkpt>
      <trkpt lat="44.35537" lon="5.66572">
        <ele>708</ele>
        <time>2019-03-23T13:51:24Z</time>
      </trkpt>
      <trkpt lat="44.35541" lon="5.66567">
        <ele>708</ele>
        <time>2019-03-23T13:51:25Z</time>
      </trkpt>
      <trkpt lat="44.35544" lon="5.66562">
        <ele>708</ele>
        <time>2019-03-23T13:51:26Z</time>
      </trkpt>
      <trkpt lat="44.35547" lon="5.66557">
        <ele>708</ele>
        <time>2019-03-23T13:51:27Z</time>
      </trkpt>
      <trkpt lat="44.35551" lon="5.66551">
        <ele>708</ele>
        <time>2019-03-23T13:51:28Z</time>
      </trkpt>
      <trkpt lat="44.35554" lon="5.66546">
        <ele>708</ele>
        <time>2019-03-23T13:51:29Z</time>
      </trkpt>
      <trkpt lat="44.35557" lon="5.6654">
        <ele>708</ele>
        <time>2019-03-23T13:51:30Z</time>
      </trkpt>
      <trkpt lat="44.3556" lon="5.66534">
        <ele>708</ele>
        <time>2019-03-23T13:51:31Z</time>
      </trkpt>
      <trkpt lat="44.35562" lon="5.66528">
        <ele>708</ele>
        <time>2019-03-23T13:51:32Z</time>
      </trkpt>
      <trkpt lat="44.35565" lon="5.66521">
        <ele>708</ele>
        <time>2019-03-23T13:51:33Z</time>
      </trkpt>
      <trkpt lat="44.35568" lon="5.66514">
        <ele>708</ele>
        <time>2019-03-23T13:51:34Z</time>
      </trkpt>
      <trkpt lat="44.3557" lon="5.66507">
        <ele>708</ele>
        <time>2019-03-23T13:51:35Z</time>
      </trkpt>
      <trkpt lat="44.35573" lon="5.665">
        <ele>708</ele>
        <time>2019-03-23T13:51:36Z</time>
      </trkpt>
      <trkpt lat="44.35575" lon="5.66492">
        <ele>708</ele>
        <time>2019-03-23T13:51:37Z</time>
      </trkpt>
      <trkpt lat="44.35577" lon="5.66484">
        <ele>708</ele>
        <time>2019-03-23T13:51:38Z</time>
      </trkpt>
      <trkpt lat="44.35579" lon="5.66476">
        <ele>708</ele>
        <time>2019-03-23T13:51:39Z</time>
      </trkpt>
      <trkpt lat="44.35581" lon="5.66468">
        <ele>708</ele>
        <time>2019-03-23T13:51:40Z</time>
      </trkpt>
      <trkpt lat="44.35583" lon="5.66461">
        <ele>708</ele>
        <time>2019-03-23T13:51:41Z</time>
      </trkpt>
      <trkpt lat="44.35586" lon="5.66453">
        <ele>708</ele>
        <time>2019-03-23T13:51:42Z</time>
      </trkpt>
      <trkpt lat="44.35588" lon="5.66446">
        <ele>708</ele>
        <time>2019-03-23T13:51:43Z</time>
      </trkpt>
      <trkpt lat="44.3559" lon="5.66438">
        <ele>708</ele>
        <time>2019-03-23T13:51:44Z</time>
      </trkpt>
      <trkpt lat="44.35592" lon="5.66431">
        <ele>708</ele>
        <time>2019-03-23T13:51:45Z</time>
      </trkpt>
      <trkpt lat="44.35593" lon="5.66423">
        <ele>708</ele>
        <time>2019-03-23T13:51:46Z</time>
      </trkpt>
      <trkpt lat="44.35596" lon="5.66416">
        <ele>708</ele>
        <time>2019-03-23T13:51:47Z</time>
      </trkpt>
      <trkpt lat="44.35598" lon="5.66409">
        <ele>708</ele>
        <time>2019-03-23T13:51:48Z</time>
      </trkpt>
      <trkpt lat="44.356" lon="5.66403">
        <ele>709</ele>
        <time>2019-03-23T13:51:49Z</time>
      </trkpt>
      <trkpt lat="44.35602" lon="5.66396">
        <ele>709</ele>
        <time>2019-03-23T13:51:50Z</time>
      </trkpt>
      <trkpt lat="44.35604" lon="5.66389">
        <ele>709</ele>
        <time>2019-03-23T13:51:51Z</time>
      </trkpt>
      <trkpt lat="44.35606" lon="5.66383">
        <ele>709</ele>
        <time>2019-03-23T13:51:52Z</time>
      </trkpt>
      <trkpt lat="44.35608" lon="5.66376">
        <ele>709</ele>
        <time>2019-03-23T13:51:53Z</time>
      </trkpt>
      <trkpt lat="44.35611" lon="5.66369">
        <ele>709</ele>
        <time>2019-03-23T13:51:54Z</time>
      </trkpt>
      <trkpt lat="44.35613" lon="5.66363">
        <ele>709</ele>
        <time>2019-03-23T13:51:55Z</time>
      </trkpt>
      <trkpt lat="44.35616" lon="5.66356">
        <ele>709</ele>
        <time>2019-03-23T13:51:56Z</time>
      </trkpt>
      <trkpt lat="44.35619" lon="5.6635">
        <ele>709</ele>
        <time>2019-03-23T13:51:57Z</time>
      </trkpt>
      <trkpt lat="44.35621" lon="5.66343">
        <ele>709</ele>
        <time>2019-03-23T13:51:58Z</time>
      </trkpt>
      <trkpt lat="44.35624" lon="5.66337">
        <ele>710</ele>
        <time>2019-03-23T13:51:59Z</time>
      </trkpt>
      <trkpt lat="44.35627" lon="5.66331">
        <ele>710</ele>
        <time>2019-03-23T13:52:00Z</time>
      </trkpt>
      <trkpt lat="44.3563" lon="5.66325">
        <ele>710</ele>
        <time>2019-03-23T13:52:01Z</time>
      </trkpt>
      <trkpt lat="44.35632" lon="5.66318">
        <ele>710</ele>
        <time>2019-03-23T13:52:02Z</time>
      </trkpt>
      <trkpt lat="44.35635" lon="5.66313">
        <ele>710</ele>
        <time>2019-03-23T13:52:03Z</time>
      </trkpt>
      <trkpt lat="44.35638" lon="5.66307">
        <ele>710</ele>
        <time>2019-03-23T13:52:04Z</time>
      </trkpt>
      <trkpt lat="44.3564" lon="5.66301">
        <ele>710</ele>
        <time>2019-03-23T13:52:05Z</time>
      </trkpt>
      <trkpt lat="44.35643" lon="5.66295">
        <ele>710</ele>
        <time>2019-03-23T13:52:06Z</time>
      </trkpt>
      <trkpt lat="44.35646" lon="5.6629">
        <ele>711</ele>
        <time>2019-03-23T13:52:07Z</time>
      </trkpt>
      <trkpt lat="44.35648" lon="5.66284">
        <ele>711</ele>
        <time>2019-03-23T13:52:08Z</time>
      </trkpt>
      <trkpt lat="44.35651" lon="5.66278">
        <ele>711</ele>
        <time>2019-03-23T13:52:09Z</time>
      </trkpt>
      <trkpt lat="44.35654" lon="5.66272">
        <ele>711</ele>
        <time>2019-03-23T13:52:10Z</time>
      </trkpt>
      <trkpt lat="44.35657" lon="5.66266">
        <ele>711</ele>
        <time>2019-03-23T13:52:11Z</time>
      </trkpt>
      <trkpt lat="44.35659" lon="5.6626">
        <ele>711</ele>
        <time>2019-03-23T13:52:12Z</time>
      </trkpt>
      <trkpt lat="44.35662" lon="5.66254">
        <ele>711</ele>
        <time>2019-03-23T13:52:13Z</time>
      </trkpt>
      <trkpt lat="44.35665" lon="5.66248">
        <ele>711</ele>
        <time>2019-03-23T13:52:14Z</time>
      </trkpt>
      <trkpt lat="44.35667" lon="5.66241">
        <ele>712</ele>
        <time>2019-03-23T13:52:15Z</time>
      </trkpt>
      <trkpt lat="44.3567" lon="5.66235">
        <ele>712</ele>
        <time>2019-03-23T13:52:16Z</time>
      </trkpt>
      <trkpt lat="44.35673" lon="5.66229">
        <ele>712</ele>
        <time>2019-03-23T13:52:17Z</time>
      </trkpt>
      <trkpt lat="44.35676" lon="5.66223">
        <ele>712</ele>
        <time>2019-03-23T13:52:18Z</time>
      </trkpt>
      <trkpt lat="44.35678" lon="5.66217">
        <ele>712</ele>
        <time>2019-03-23T13:52:19Z</time>
      </trkpt>
      <trkpt lat="44.35681" lon="5.66211">
        <ele>713</ele>
        <time>2019-03-23T13:52:20Z</time>
      </trkpt>
      <trkpt lat="44.35684" lon="5.66205">
        <ele>713</ele>
        <time>2019-03-23T13:52:21Z</time>
      </trkpt>
      <trkpt lat="44.35686" lon="5.66198">
        <ele>713</ele>
        <time>2019-03-23T13:52:22Z</time>
      </trkpt>
      <trkpt lat="44.35688" lon="5.6619">
        <ele>714</ele>
        <time>2019-03-23T13:52:23Z</time>
      </trkpt>
      <trkpt lat="44.35691" lon="5.66184">
        <ele>714</ele>
        <time>2019-03-23T13:52:24Z</time>
      </trkpt>
      <trkpt lat="44.35693" lon="5.66178">
        <ele>715</ele>
        <time>2019-03-23T13:52:25Z</time>
      </trkpt>
      <trkpt lat="44.35696" lon="5.66172">
        <ele>715</ele>
        <time>2019-03-23T13:52:26Z</time>
      </trkpt>
      <trkpt lat="44.35698" lon="5.66166">
        <ele>716</ele>
        <time>2019-03-23T13:52:27Z</time>
      </trkpt>
      <trkpt lat="44.357" lon="5.66159">
        <ele>716</ele>
        <time>2019-03-23T13:52:28Z</time>
      </trkpt>
      <trkpt lat="44.35702" lon="5.66153">
        <ele>716</ele>
        <time>2019-03-23T13:52:29Z</time>
      </trkpt>
      <trkpt lat="44.35704" lon="5.66147">
        <ele>716</ele>
        <time>2019-03-23T13:52:30Z</time>
      </trkpt>
      <trkpt lat="44.35706" lon="5.66141">
        <ele>716</ele>
        <time>2019-03-23T13:52:31Z</time>
      </trkpt>
      <trkpt lat="44.35709" lon="5.66134">
        <ele>717</ele>
        <time>2019-03-23T13:52:32Z</time>
      </trkpt>
      <trkpt lat="44.35711" lon="5.66127">
        <ele>717</ele>
        <time>2019-03-23T13:52:33Z</time>
      </trkpt>
      <trkpt lat="44.35712" lon="5.66121">
        <ele>717</ele>
        <time>2019-03-23T13:52:34Z</time>
      </trkpt>
      <trkpt lat="44.35714" lon="5.66114">
        <ele>717</ele>
        <time>2019-03-23T13:52:35Z</time>
      </trkpt>
      <trkpt lat="44.35716" lon="5.66108">
        <ele>717</ele>
        <time>2019-03-23T13:52:36Z</time>
      </trkpt>
      <trkpt lat="44.35718" lon="5.66101">
        <ele>717</ele>
        <time>2019-03-23T13:52:37Z</time>
      </trkpt>
      <trkpt lat="44.3572" lon="5.66094">
        <ele>717</ele>
        <time>2019-03-23T13:52:38Z</time>
      </trkpt>
      <trkpt lat="44.35723" lon="5.66087">
        <ele>717</ele>
        <time>2019-03-23T13:52:39Z</time>
      </trkpt>
      <trkpt lat="44.35725" lon="5.6608">
        <ele>717</ele>
        <time>2019-03-23T13:52:40Z</time>
      </trkpt>
      <trkpt lat="44.35727" lon="5.66072">
        <ele>717</ele>
        <time>2019-03-23T13:52:41Z</time>
      </trkpt>
      <trkpt lat="44.3573" lon="5.66065">
        <ele>717</ele>
        <time>2019-03-23T13:52:42Z</time>
      </trkpt>
      <trkpt lat="44.35733" lon="5.66057">
        <ele>717</ele>
        <time>2019-03-23T13:52:43Z</time>
      </trkpt>
      <trkpt lat="44.35735" lon="5.66049">
        <ele>717</ele>
        <time>2019-03-23T13:52:44Z</time>
      </trkpt>
      <trkpt lat="44.35738" lon="5.66042">
        <ele>717</ele>
        <time>2019-03-23T13:52:45Z</time>
      </trkpt>
      <trkpt lat="44.35741" lon="5.66034">
        <ele>717</ele>
        <time>2019-03-23T13:52:46Z</time>
      </trkpt>
      <trkpt lat="44.35743" lon="5.66027">
        <ele>717</ele>
        <time>2019-03-23T13:52:47Z</time>
      </trkpt>
      <trkpt lat="44.35746" lon="5.66019">
        <ele>717</ele>
        <time>2019-03-23T13:52:48Z</time>
      </trkpt>
      <trkpt lat="44.35749" lon="5.66012">
        <ele>717</ele>
        <time>2019-03-23T13:52:49Z</time>
      </trkpt>
      <trkpt lat="44.35752" lon="5.66005">
        <ele>717</ele>
        <time>2019-03-23T13:52:50Z</time>
      </trkpt>
      <trkpt lat="44.35755" lon="5.65999">
        <ele>717</ele>
        <time>2019-03-23T13:52:51Z</time>
      </trkpt>
      <trkpt lat="44.35759" lon="5.65992">
        <ele>717</ele>
        <time>2019-03-23T13:52:52Z</time>
      </trkpt>
      <trkpt lat="44.35762" lon="5.65986">
        <ele>717</ele>
        <time>2019-03-23T13:52:53Z</time>
      </trkpt>
      <trkpt lat="44.35765" lon="5.6598">
        <ele>717</ele>
        <time>2019-03-23T13:52:54Z</time>
      </trkpt>
      <trkpt lat="44.35768" lon="5.65974">
        <ele>717</ele>
        <time>2019-03-23T13:52:55Z</time>
      </trkpt>
      <trkpt lat="44.35771" lon="5.65967">
        <ele>717</ele>
        <time>2019-03-23T13:52:56Z</time>
      </trkpt>
      <trkpt lat="44.35775" lon="5.65961">
        <ele>717</ele>
        <time>2019-03-23T13:52:57Z</time>
      </trkpt>
      <trkpt lat="44.35777" lon="5.65955">
        <ele>717</ele>
        <time>2019-03-23T13:52:58Z</time>
      </trkpt>
      <trkpt lat="44.3578" lon="5.65948">
        <ele>717</ele>
        <time>2019-03-23T13:52:59Z</time>
      </trkpt>
      <trkpt lat="44.35783" lon="5.65942">
        <ele>717</ele>
        <time>2019-03-23T13:53:00Z</time>
      </trkpt>
      <trkpt lat="44.35786" lon="5.65936">
        <ele>717</ele>
        <time>2019-03-23T13:53:01Z</time>
      </trkpt>
      <trkpt lat="44.35789" lon="5.65929">
        <ele>717</ele>
        <time>2019-03-23T13:53:02Z</time>
      </trkpt>
      <trkpt lat="44.35792" lon="5.65922">
        <ele>717</ele>
        <time>2019-03-23T13:53:03Z</time>
      </trkpt>
      <trkpt lat="44.35795" lon="5.65915">
        <ele>717</ele>
        <time>2019-03-23T13:53:04Z</time>
      </trkpt>
      <trkpt lat="44.35798" lon="5.65908">
        <ele>717</ele>
        <time>2019-03-23T13:53:05Z</time>
      </trkpt>
      <trkpt lat="44.358" lon="5.65901">
        <ele>717</ele>
        <time>2019-03-23T13:53:06Z</time>
      </trkpt>
      <trkpt lat="44.35802" lon="5.65893">
        <ele>717</ele>
        <time>2019-03-23T13:53:07Z</time>
      </trkpt>
      <trkpt lat="44.35804" lon="5.65885">
        <ele>717</ele>
        <time>2019-03-23T13:53:08Z</time>
      </trkpt>
      <trkpt lat="44.35806" lon="5.65877">
        <ele>717</ele>
        <time>2019-03-23T13:53:09Z</time>
      </trkpt>
      <trkpt lat="44.35807" lon="5.6587">
        <ele>717</ele>
        <time>2019-03-23T13:53:10Z</time>
      </trkpt>
      <trkpt lat="44.35809" lon="5.65862">
        <ele>717</ele>
        <time>2019-03-23T13:53:11Z</time>
      </trkpt>
      <trkpt lat="44.3581" lon="5.65853">
        <ele>717</ele>
        <time>2019-03-23T13:53:12Z</time>
      </trkpt>
      <trkpt lat="44.35811" lon="5.65845">
        <ele>718</ele>
        <time>2019-03-23T13:53:13Z</time>
      </trkpt>
      <trkpt lat="44.35812" lon="5.65837">
        <ele>718</ele>
        <time>2019-03-23T13:53:14Z</time>
      </trkpt>
      <trkpt lat="44.35813" lon="5.65829">
        <ele>718</ele>
        <time>2019-03-23T13:53:15Z</time>
      </trkpt>
      <trkpt lat="44.35814" lon="5.65821">
        <ele>718</ele>
        <time>2019-03-23T13:53:16Z</time>
      </trkpt>
      <trkpt lat="44.35815" lon="5.65813">
        <ele>718</ele>
        <time>2019-03-23T13:53:17Z</time>
      </trkpt>
      <trkpt lat="44.35816" lon="5.65805">
        <ele>718</ele>
        <time>2019-03-23T13:53:18Z</time>
      </trkpt>
      <trkpt lat="44.35817" lon="5.65797">
        <ele>718</ele>
        <time>2019-03-23T13:53:19Z</time>
      </trkpt>
      <trkpt lat="44.35818" lon="5.65789">
        <ele>718</ele>
        <time>2019-03-23T13:53:20Z</time>
      </trkpt>
      <trkpt lat="44.3582" lon="5.65781">
        <ele>718</ele>
        <time>2019-03-23T13:53:21Z</time>
      </trkpt>
      <trkpt lat="44.35821" lon="5.65774">
        <ele>718</ele>
        <time>2019-03-23T13:53:22Z</time>
      </trkpt>
      <trkpt lat="44.35822" lon="5.65766">
        <ele>718</ele>
        <time>2019-03-23T13:53:23Z</time>
      </trkpt>
      <trkpt lat="44.35824" lon="5.65758">
        <ele>718</ele>
        <time>2019-03-23T13:53:24Z</time>
      </trkpt>
      <trkpt lat="44.35825" lon="5.6575">
        <ele>718</ele>
        <time>2019-03-23T13:53:25Z</time>
      </trkpt>
      <trkpt lat="44.35826" lon="5.65742">
        <ele>718</ele>
        <time>2019-03-23T13:53:26Z</time>
      </trkpt>
      <trkpt lat="44.35828" lon="5.65734">
        <ele>718</ele>
        <time>2019-03-23T13:53:27Z</time>
      </trkpt>
      <trkpt lat="44.35829" lon="5.65727">
        <ele>718</ele>
        <time>2019-03-23T13:53:28Z</time>
      </trkpt>
      <trkpt lat="44.3583" lon="5.65719">
        <ele>718</ele>
        <time>2019-03-23T13:53:29Z</time>
      </trkpt>
      <trkpt lat="44.35832" lon="5.65711">
        <ele>718</ele>
        <time>2019-03-23T13:53:30Z</time>
      </trkpt>
      <trkpt lat="44.35833" lon="5.65703">
        <ele>718</ele>
        <time>2019-03-23T13:53:31Z</time>
      </trkpt>
      <trkpt lat="44.35834" lon="5.65696">
        <ele>718</ele>
        <time>2019-03-23T13:53:32Z</time>
      </trkpt>
      <trkpt lat="44.35835" lon="5.65688">
        <ele>718</ele>
        <time>2019-03-23T13:53:33Z</time>
      </trkpt>
      <trkpt lat="44.35836" lon="5.6568">
        <ele>718</ele>
        <time>2019-03-23T13:53:34Z</time>
      </trkpt>
      <trkpt lat="44.35838" lon="5.65672">
        <ele>718</ele>
        <time>2019-03-23T13:53:35Z</time>
      </trkpt>
      <trkpt lat="44.35839" lon="5.65664">
        <ele>718</ele>
        <time>2019-03-23T13:53:36Z</time>
      </trkpt>
      <trkpt lat="44.35839" lon="5.65657">
        <ele>718</ele>
        <time>2019-03-23T13:53:37Z</time>
      </trkpt>
      <trkpt lat="44.3584" lon="5.65649">
        <ele>718</ele>
        <time>2019-03-23T13:53:38Z</time>
      </trkpt>
      <trkpt lat="44.35841" lon="5.65641">
        <ele>718</ele>
        <time>2019-03-23T13:53:39Z</time>
      </trkpt>
      <trkpt lat="44.35841" lon="5.65633">
        <ele>718</ele>
        <time>2019-03-23T13:53:40Z</time>
      </trkpt>
      <trkpt lat="44.35842" lon="5.65625">
        <ele>718</ele>
        <time>2019-03-23T13:53:41Z</time>
      </trkpt>
      <trkpt lat="44.35842" lon="5.65617">
        <ele>718</ele>
        <time>2019-03-23T13:53:42Z</time>
      </trkpt>
      <trkpt lat="44.35843" lon="5.65609">
        <ele>718</ele>
        <time>2019-03-23T13:53:43Z</time>
      </trkpt>
      <trkpt lat="44.35844" lon="5.65601">
        <ele>718</ele>
        <time>2019-03-23T13:53:44Z</time>
      </trkpt>
      <trkpt lat="44.35845" lon="5.65594">
        <ele>718</ele>
        <time>2019-03-23T13:53:45Z</time>
      </trkpt>
      <trkpt lat="44.35846" lon="5.65586">
        <ele>718</ele>
        <time>2019-03-23T13:53:46Z</time>
      </trkpt>
      <trkpt lat="44.35847" lon="5.65578">
        <ele>718</ele>
        <time>2019-03-23T13:53:47Z</time>
      </trkpt>
      <trkpt lat="44.35849" lon="5.6557">
        <ele>718</ele>
        <time>2019-03-23T13:53:48Z</time>
      </trkpt>
      <trkpt lat="44.3585" lon="5.65563">
        <ele>718</ele>
        <time>2019-03-23T13:53:49Z</time>
      </trkpt>
      <trkpt lat="44.35852" lon="5.65555">
        <ele>718</ele>
        <time>2019-03-23T13:53:50Z</time>
      </trkpt>
      <trkpt lat="44.35854" lon="5.65548">
        <ele>718</ele>
        <time>2019-03-23T13:53:51Z</time>
      </trkpt>
      <trkpt lat="44.35855" lon="5.65541">
        <ele>718</ele>
        <time>2019-03-23T13:53:52Z</time>
      </trkpt>
      <trkpt lat="44.35857" lon="5.65534">
        <ele>718</ele>
        <time>2019-03-23T13:53:53Z</time>
      </trkpt>
      <trkpt lat="44.35858" lon="5.65527">
        <ele>718</ele>
        <time>2019-03-23T13:53:54Z</time>
      </trkpt>
      <trkpt lat="44.3586" lon="5.6552">
        <ele>718</ele>
        <time>2019-03-23T13:53:55Z</time>
      </trkpt>
      <trkpt lat="44.35862" lon="5.65513">
        <ele>719</ele>
        <time>2019-03-23T13:53:56Z</time>
      </trkpt>
      <trkpt lat="44.35863" lon="5.65506">
        <ele>719</ele>
        <time>2019-03-23T13:53:57Z</time>
      </trkpt>
      <trkpt lat="44.35865" lon="5.65499">
        <ele>719</ele>
        <time>2019-03-23T13:53:58Z</time>
      </trkpt>
      <trkpt lat="44.35867" lon="5.65493">
        <ele>719</ele>
        <time>2019-03-23T13:53:59Z</time>
      </trkpt>
      <trkpt lat="44.35869" lon="5.65486">
        <ele>720</ele>
        <time>2019-03-23T13:54:00Z</time>
      </trkpt>
      <trkpt lat="44.35871" lon="5.6548">
        <ele>720</ele>
        <time>2019-03-23T13:54:01Z</time>
      </trkpt>
      <trkpt lat="44.35873" lon="5.65473">
        <ele>720</ele>
        <time>2019-03-23T13:54:02Z</time>
      </trkpt>
      <trkpt lat="44.35875" lon="5.65466">
        <ele>720</ele>
        <time>2019-03-23T13:54:03Z</time>
      </trkpt>
      <trkpt lat="44.35877" lon="5.6546">
        <ele>721</ele>
        <time>2019-03-23T13:54:04Z</time>
      </trkpt>
      <trkpt lat="44.35879" lon="5.65454">
        <ele>721</ele>
        <time>2019-03-23T13:54:05Z</time>
      </trkpt>
      <trkpt lat="44.35881" lon="5.65447">
        <ele>721</ele>
        <time>2019-03-23T13:54:06Z</time>
      </trkpt>
      <trkpt lat="44.35883" lon="5.65441">
        <ele>721</ele>
        <time>2019-03-23T13:54:07Z</time>
      </trkpt>
      <trkpt lat="44.35885" lon="5.65435">
        <ele>721</ele>
        <time>2019-03-23T13:54:08Z</time>
      </trkpt>
      <trkpt lat="44.35887" lon="5.65429">
        <ele>722</ele>
        <time>2019-03-23T13:54:09Z</time>
      </trkpt>
      <trkpt lat="44.35889" lon="5.65423">
        <ele>722</ele>
        <time>2019-03-23T13:54:10Z</time>
      </trkpt>
      <trkpt lat="44.35891" lon="5.65418">
        <ele>722</ele>
        <time>2019-03-23T13:54:11Z</time>
      </trkpt>
      <trkpt lat="44.35894" lon="5.65412">
        <ele>722</ele>
        <time>2019-03-23T13:54:12Z</time>
      </trkpt>
      <trkpt lat="44.35897" lon="5.65407">
        <ele>723</ele>
        <time>2019-03-23T13:54:13Z</time>
      </trkpt>
      <trkpt lat="44.35899" lon="5.65402">
        <ele>723</ele>
        <time>2019-03-23T13:54:14Z</time>
      </trkpt>
      <trkpt lat="44.35902" lon="5.65397">
        <ele>723</ele>
        <time>2019-03-23T13:54:15Z</time>
      </trkpt>
      <trkpt lat="44.35905" lon="5.65392">
        <ele>724</ele>
        <time>2019-03-23T13:54:16Z</time>
      </trkpt>
      <trkpt lat="44.35908" lon="5.65388">
        <ele>724</ele>
        <time>2019-03-23T13:54:17Z</time>
      </trkpt>
      <trkpt lat="44.3591" lon="5.65383">
        <ele>724</ele>
        <time>2019-03-23T13:54:18Z</time>
      </trkpt>
      <trkpt lat="44.35913" lon="5.65378">
        <ele>724</ele>
        <time>2019-03-23T13:54:19Z</time>
      </trkpt>
      <trkpt lat="44.35915" lon="5.65373">
        <ele>725</ele>
        <time>2019-03-23T13:54:20Z</time>
      </trkpt>
      <trkpt lat="44.35918" lon="5.65368">
        <ele>725</ele>
        <time>2019-03-23T13:54:21Z</time>
      </trkpt>
      <trkpt lat="44.3592" lon="5.65362">
        <ele>725</ele>
        <time>2019-03-23T13:54:22Z</time>
      </trkpt>
      <trkpt lat="44.35923" lon="5.65356">
        <ele>725</ele>
        <time>2019-03-23T13:54:23Z</time>
      </trkpt>
      <trkpt lat="44.35926" lon="5.65351">
        <ele>725</ele>
        <time>2019-03-23T13:54:24Z</time>
      </trkpt>
      <trkpt lat="44.35928" lon="5.65345">
        <ele>725</ele>
        <time>2019-03-23T13:54:25Z</time>
      </trkpt>
      <trkpt lat="44.3593" lon="5.65339">
        <ele>725</ele>
        <time>2019-03-23T13:54:26Z</time>
      </trkpt>
      <trkpt lat="44.35933" lon="5.65333">
        <ele>725</ele>
        <time>2019-03-23T13:54:27Z</time>
      </trkpt>
      <trkpt lat="44.35935" lon="5.65328">
        <ele>725</ele>
        <time>2019-03-23T13:54:28Z</time>
      </trkpt>
      <trkpt lat="44.35937" lon="5.65322">
        <ele>725</ele>
        <time>2019-03-23T13:54:29Z</time>
      </trkpt>
      <trkpt lat="44.35939" lon="5.65316">
        <ele>726</ele>
        <time>2019-03-23T13:54:30Z</time>
      </trkpt>
      <trkpt lat="44.35941" lon="5.6531">
        <ele>726</ele>
        <time>2019-03-23T13:54:31Z</time>
      </trkpt>
      <trkpt lat="44.35943" lon="5.65304">
        <ele>726</ele>
        <time>2019-03-23T13:54:32Z</time>
      </trkpt>
      <trkpt lat="44.35946" lon="5.65299">
        <ele>726</ele>
        <time>2019-03-23T13:54:33Z</time>
      </trkpt>
      <trkpt lat="44.35948" lon="5.65293">
        <ele>727</ele>
        <time>2019-03-23T13:54:34Z</time>
      </trkpt>
      <trkpt lat="44.3595" lon="5.65288">
        <ele>727</ele>
        <time>2019-03-23T13:54:35Z</time>
      </trkpt>
      <trkpt lat="44.35952" lon="5.65282">
        <ele>727</ele>
        <time>2019-03-23T13:54:36Z</time>
      </trkpt>
      <trkpt lat="44.35954" lon="5.65277">
        <ele>728</ele>
        <time>2019-03-23T13:54:37Z</time>
      </trkpt>
      <trkpt lat="44.35956" lon="5.65272">
        <ele>728</ele>
        <time>2019-03-23T13:54:38Z</time>
      </trkpt>
      <trkpt lat="44.35958" lon="5.65268">
        <ele>728</ele>
        <time>2019-03-23T13:54:39Z</time>
      </trkpt>
      <trkpt lat="44.35961" lon="5.65263">
        <ele>728</ele>
        <time>2019-03-23T13:54:40Z</time>
      </trkpt>
      <trkpt lat="44.35963" lon="5.65259">
        <ele>729</ele>
        <time>2019-03-23T13:54:41Z</time>
      </trkpt>
      <trkpt lat="44.35966" lon="5.65254">
        <ele>729</ele>
        <time>2019-03-23T13:54:42Z</time>
      </trkpt>
      <trkpt lat="44.35968" lon="5.6525">
        <ele>729</ele>
        <time>2019-03-23T13:54:43Z</time>
      </trkpt>
      <trkpt lat="44.35971" lon="5.65246">
        <ele>729</ele>
        <time>2019-03-23T13:54:44Z</time>
      </trkpt>
      <trkpt lat="44.35973" lon="5.65242">
        <ele>730</ele>
        <time>2019-03-23T13:54:45Z</time>
      </trkpt>
      <trkpt lat="44.35976" lon="5.65238">
        <ele>730</ele>
        <time>2019-03-23T13:54:46Z</time>
      </trkpt>
      <trkpt lat="44.35979" lon="5.65234">
        <ele>730</ele>
        <time>2019-03-23T13:54:47Z</time>
      </trkpt>
      <trkpt lat="44.35982" lon="5.65231">
        <ele>730</ele>
        <time>2019-03-23T13:54:48Z</time>
      </trkpt>
      <trkpt lat="44.35985" lon="5.65228">
        <ele>731</ele>
        <time>2019-03-23T13:54:49Z</time>
      </trkpt>
      <trkpt lat="44.35988" lon="5.65224">
        <ele>731</ele>
        <time>2019-03-23T13:54:50Z</time>
      </trkpt>
      <trkpt lat="44.35991" lon="5.65221">
        <ele>731</ele>
        <time>2019-03-23T13:54:51Z</time>
      </trkpt>
      <trkpt lat="44.35994" lon="5.65218">
        <ele>731</ele>
        <time>2019-03-23T13:54:52Z</time>
      </trkpt>
      <trkpt lat="44.35998" lon="5.65215">
        <ele>732</ele>
        <time>2019-03-23T13:54:53Z</time>
      </trkpt>
      <trkpt lat="44.36001" lon="5.65211">
        <ele>732</ele>
        <time>2019-03-23T13:54:54Z</time>
      </trkpt>
      <trkpt lat="44.36004" lon="5.65208">
        <ele>732</ele>
        <time>2019-03-23T13:54:55Z</time>
      </trkpt>
      <trkpt lat="44.36007" lon="5.65205">
        <ele>732</ele>
        <time>2019-03-23T13:54:56Z</time>
      </trkpt>
      <trkpt lat="44.3601" lon="5.65201">
        <ele>732</ele>
        <time>2019-03-23T13:54:57Z</time>
      </trkpt>
      <trkpt lat="44.36013" lon="5.65197">
        <ele>732</ele>
        <time>2019-03-23T13:54:58Z</time>
      </trkpt>
      <trkpt lat="44.36016" lon="5.65193">
        <ele>732</ele>
        <time>2019-03-23T13:54:59Z</time>
      </trkpt>
      <trkpt lat="44.36019" lon="5.65189">
        <ele>733</ele>
        <time>2019-03-23T13:55:00Z</time>
      </trkpt>
      <trkpt lat="44.36022" lon="5.65184">
        <ele>733</ele>
        <time>2019-03-23T13:55:01Z</time>
      </trkpt>
      <trkpt lat="44.36024" lon="5.65179">
        <ele>733</ele>
        <time>2019-03-23T13:55:02Z</time>
      </trkpt>
      <trkpt lat="44.36026" lon="5.65174">
        <ele>733</ele>
        <time>2019-03-23T13:55:03Z</time>
      </trkpt>
      <trkpt lat="44.36029" lon="5.65169">
        <ele>733</ele>
        <time>2019-03-23T13:55:04Z</time>
      </trkpt>
      <trkpt lat="44.36031" lon="5.65164">
        <ele>733</ele>
        <time>2019-03-23T13:55:05Z</time>
      </trkpt>
      <trkpt lat="44.36034" lon="5.65159">
        <ele>733</ele>
        <time>2019-03-23T13:55:06Z</time>
      </trkpt>
      <trkpt lat="44.36037" lon="5.65153">
        <ele>734</ele>
        <time>2019-03-23T13:55:07Z</time>
      </trkpt>
      <trkpt lat="44.3604" lon="5.65148">
        <ele>734</ele>
        <time>2019-03-23T13:55:08Z</time>
      </trkpt>
      <trkpt lat="44.36043" lon="5.65144">
        <ele>734</ele>
        <time>2019-03-23T13:55:09Z</time>
      </trkpt>
      <trkpt lat="44.36046" lon="5.65139">
        <ele>734</ele>
        <time>2019-03-23T13:55:10Z</time>
      </trkpt>
      <trkpt lat="44.3605" lon="5.65135">
        <ele>734</ele>
        <time>2019-03-23T13:55:11Z</time>
      </trkpt>
      <trkpt lat="44.36053" lon="5.65131">
        <ele>734</ele>
        <time>2019-03-23T13:55:12Z</time>
      </trkpt>
      <trkpt lat="44.36056" lon="5.65127">
        <ele>734</ele>
        <time>2019-03-23T13:55:13Z</time>
      </trkpt>
      <trkpt lat="44.3606" lon="5.65124">
        <ele>734</ele>
        <time>2019-03-23T13:55:14Z</time>
      </trkpt>
      <trkpt lat="44.36064" lon="5.65121">
        <ele>734</ele>
        <time>2019-03-23T13:55:15Z</time>
      </trkpt>
      <trkpt lat="44.36068" lon="5.65118">
        <ele>734</ele>
        <time>2019-03-23T13:55:16Z</time>
      </trkpt>
      <trkpt lat="44.36072" lon="5.65115">
        <ele>735</ele>
        <time>2019-03-23T13:55:17Z</time>
      </trkpt>
      <trkpt lat="44.36076" lon="5.65112">
        <ele>735</ele>
        <time>2019-03-23T13:55:18Z</time>
      </trkpt>
      <trkpt lat="44.3608" lon="5.6511">
        <ele>735</ele>
        <time>2019-03-23T13:55:19Z</time>
      </trkpt>
      <trkpt lat="44.36084" lon="5.65108">
        <ele>735</ele>
        <time>2019-03-23T13:55:20Z</time>
      </trkpt>
      <trkpt lat="44.36089" lon="5.65106">
        <ele>735</ele>
        <time>2019-03-23T13:55:21Z</time>
      </trkpt>
      <trkpt lat="44.36093" lon="5.65104">
        <ele>735</ele>
        <time>2019-03-23T13:55:22Z</time>
      </trkpt>
      <trkpt lat="44.36098" lon="5.65102">
        <ele>736</ele>
        <time>2019-03-23T13:55:23Z</time>
      </trkpt>
      <trkpt lat="44.36102" lon="5.651">
        <ele>736</ele>
        <time>2019-03-23T13:55:24Z</time>
      </trkpt>
      <trkpt lat="44.36107" lon="5.65099">
        <ele>736</ele>
        <time>2019-03-23T13:55:25Z</time>
      </trkpt>
      <trkpt lat="44.36112" lon="5.65097">
        <ele>736</ele>
        <time>2019-03-23T13:55:26Z</time>
      </trkpt>
      <trkpt lat="44.36117" lon="5.65095">
        <ele>736</ele>
        <time>2019-03-23T13:55:27Z</time>
      </trkpt>
      <trkpt lat="44.36121" lon="5.65093">
        <ele>736</ele>
        <time>2019-03-23T13:55:28Z</time>
      </trkpt>
      <trkpt lat="44.36126" lon="5.65091">
        <ele>736</ele>
        <time>2019-03-23T13:55:29Z</time>
      </trkpt>
      <trkpt lat="44.3613" lon="5.65088">
        <ele>736</ele>
        <time>2019-03-23T13:55:30Z</time>
      </trkpt>
      <trkpt lat="44.36134" lon="5.65085">
        <ele>736</ele>
        <time>2019-03-23T13:55:31Z</time>
      </trkpt>
      <trkpt lat="44.36138" lon="5.65082">
        <ele>737</ele>
        <time>2019-03-23T13:55:32Z</time>
      </trkpt>
      <trkpt lat="44.36141" lon="5.65079">
        <ele>737</ele>
        <time>2019-03-23T13:55:33Z</time>
      </trkpt>
      <trkpt lat="44.36145" lon="5.65075">
        <ele>737</ele>
        <time>2019-03-23T13:55:34Z</time>
      </trkpt>
      <trkpt lat="44.36148" lon="5.65071">
        <ele>737</ele>
        <time>2019-03-23T13:55:35Z</time>
      </trkpt>
      <trkpt lat="44.36152" lon="5.65068">
        <ele>737</ele>
        <time>2019-03-23T13:55:36Z</time>
      </trkpt>
      <trkpt lat="44.36155" lon="5.65064">
        <ele>737</ele>
        <time>2019-03-23T13:55:37Z</time>
      </trkpt>
      <trkpt lat="44.36158" lon="5.65059">
        <ele>737</ele>
        <time>2019-03-23T13:55:38Z</time>
      </trkpt>
      <trkpt lat="44.36161" lon="5.65055">
        <ele>737</ele>
        <time>2019-03-23T13:55:39Z</time>
      </trkpt>
      <trkpt lat="44.36164" lon="5.6505">
        <ele>737</ele>
        <time>2019-03-23T13:55:40Z</time>
      </trkpt>
      <trkpt lat="44.36168" lon="5.65045">
        <ele>738</ele>
        <time>2019-03-23T13:55:41Z</time>
      </trkpt>
      <trkpt lat="44.36171" lon="5.65039">
        <ele>738</ele>
        <time>2019-03-23T13:55:42Z</time>
      </trkpt>
      <trkpt lat="44.36174" lon="5.65033">
        <ele>738</ele>
        <time>2019-03-23T13:55:43Z</time>
      </trkpt>
      <trkpt lat="44.36177" lon="5.65027">
        <ele>738</ele>
        <time>2019-03-23T13:55:44Z</time>
      </trkpt>
      <trkpt lat="44.3618" lon="5.6502">
        <ele>738</ele>
        <time>2019-03-23T13:55:45Z</time>
      </trkpt>
      <trkpt lat="44.36183" lon="5.65012">
        <ele>738</ele>
        <time>2019-03-23T13:55:46Z</time>
      </trkpt>
      <trkpt lat="44.36185" lon="5.65004">
        <ele>738</ele>
        <time>2019-03-23T13:55:47Z</time>
      </trkpt>
      <trkpt lat="44.36188" lon="5.64996">
        <ele>738</ele>
        <time>2019-03-23T13:55:48Z</time>
      </trkpt>
      <trkpt lat="44.3619" lon="5.64988">
        <ele>738</ele>
        <time>2019-03-23T13:55:49Z</time>
      </trkpt>
      <trkpt lat="44.36192" lon="5.64979">
        <ele>738</ele>
        <time>2019-03-23T13:55:50Z</time>
      </trkpt>
      <trkpt lat="44.36193" lon="5.6497">
        <ele>738</ele>
        <time>2019-03-23T13:55:51Z</time>
      </trkpt>
      <trkpt lat="44.36194" lon="5.64962">
        <ele>738</ele>
        <time>2019-03-23T13:55:52Z</time>
      </trkpt>
      <trkpt lat="44.36196" lon="5.64953">
        <ele>738</ele>
        <time>2019-03-23T13:55:53Z</time>
      </trkpt>
      <trkpt lat="44.36197" lon="5.64945">
        <ele>738</ele>
        <time>2019-03-23T13:55:54Z</time>
      </trkpt>
      <trkpt lat="44.36198" lon="5.64936">
        <ele>738</ele>
        <time>2019-03-23T13:55:55Z</time>
      </trkpt>
      <trkpt lat="44.36199" lon="5.64927">
        <ele>738</ele>
        <time>2019-03-23T13:55:56Z</time>
      </trkpt>
      <trkpt lat="44.362" lon="5.64919">
        <ele>738</ele>
        <time>2019-03-23T13:55:57Z</time>
      </trkpt>
      <trkpt lat="44.36201" lon="5.6491">
        <ele>738</ele>
        <time>2019-03-23T13:55:58Z</time>
      </trkpt>
      <trkpt lat="44.36202" lon="5.64901">
        <ele>738</ele>
        <time>2019-03-23T13:55:59Z</time>
      </trkpt>
      <trkpt lat="44.36203" lon="5.64893">
        <ele>738</ele>
        <time>2019-03-23T13:56:00Z</time>
      </trkpt>
      <trkpt lat="44.36204" lon="5.64884">
        <ele>738</ele>
        <time>2019-03-23T13:56:01Z</time>
      </trkpt>
      <trkpt lat="44.36206" lon="5.64875">
        <ele>738</ele>
        <time>2019-03-23T13:56:02Z</time>
      </trkpt>
      <trkpt lat="44.36207" lon="5.64866">
        <ele>738</ele>
        <time>2019-03-23T13:56:03Z</time>
      </trkpt>
      <trkpt lat="44.36208" lon="5.64857">
        <ele>738</ele>
        <time>2019-03-23T13:56:04Z</time>
      </trkpt>
      <trkpt lat="44.3621" lon="5.64848">
        <ele>738</ele>
        <time>2019-03-23T13:56:05Z</time>
      </trkpt>
      <trkpt lat="44.36211" lon="5.64839">
        <ele>738</ele>
        <time>2019-03-23T13:56:06Z</time>
      </trkpt>
      <trkpt lat="44.36212" lon="5.64829">
        <ele>738</ele>
        <time>2019-03-23T13:56:07Z</time>
      </trkpt>
      <trkpt lat="44.36213" lon="5.6482">
        <ele>738</ele>
        <time>2019-03-23T13:56:08Z</time>
      </trkpt>
      <trkpt lat="44.36214" lon="5.64811">
        <ele>738</ele>
        <time>2019-03-23T13:56:09Z</time>
      </trkpt>
      <trkpt lat="44.36215" lon="5.64802">
        <ele>738</ele>
        <time>2019-03-23T13:56:10Z</time>
      </trkpt>
      <trkpt lat="44.36216" lon="5.64793">
        <ele>738</ele>
        <time>2019-03-23T13:56:11Z</time>
      </trkpt>
      <trkpt lat="44.36217" lon="5.64784">
        <ele>738</ele>
        <time>2019-03-23T13:56:12Z</time>
      </trkpt>
      <trkpt lat="44.36219" lon="5.64775">
        <ele>738</ele>
        <time>2019-03-23T13:56:13Z</time>
      </trkpt>
      <trkpt lat="44.3622" lon="5.64767">
        <ele>738</ele>
        <time>2019-03-23T13:56:14Z</time>
      </trkpt>
      <trkpt lat="44.36221" lon="5.64758">
        <ele>738</ele>
        <time>2019-03-23T13:56:15Z</time>
      </trkpt>
      <trkpt lat="44.36223" lon="5.64749">
        <ele>738</ele>
        <time>2019-03-23T13:56:16Z</time>
      </trkpt>
      <trkpt lat="44.36224" lon="5.64741">
        <ele>738</ele>
        <time>2019-03-23T13:56:17Z</time>
      </trkpt>
      <trkpt lat="44.36225" lon="5.64732">
        <ele>738</ele>
        <time>2019-03-23T13:56:18Z</time>
      </trkpt>
      <trkpt lat="44.36226" lon="5.64724">
        <ele>738</ele>
        <time>2019-03-23T13:56:19Z</time>
      </trkpt>
      <trkpt lat="44.36227" lon="5.64716">
        <ele>738</ele>
        <time>2019-03-23T13:56:20Z</time>
      </trkpt>
      <trkpt lat="44.36229" lon="5.64707">
        <ele>738</ele>
        <time>2019-03-23T13:56:21Z</time>
      </trkpt>
      <trkpt lat="44.3623" lon="5.64699">
        <ele>738</ele>
        <time>2019-03-23T13:56:22Z</time>
      </trkpt>
      <trkpt lat="44.36232" lon="5.64691">
        <ele>738</ele>
        <time>2019-03-23T13:56:23Z</time>
      </trkpt>
      <trkpt lat="44.36232" lon="5.64683">
        <ele>738</ele>
        <time>2019-03-23T13:56:24Z</time>
      </trkpt>
      <trkpt lat="44.36234" lon="5.64676">
        <ele>738</ele>
        <time>2019-03-23T13:56:25Z</time>
      </trkpt>
      <trkpt lat="44.36235" lon="5.64668">
        <ele>738</ele>
        <time>2019-03-23T13:56:26Z</time>
      </trkpt>
      <trkpt lat="44.36236" lon="5.6466">
        <ele>738</ele>
        <time>2019-03-23T13:56:27Z</time>
      </trkpt>
      <trkpt lat="44.36237" lon="5.64652">
        <ele>738</ele>
        <time>2019-03-23T13:56:28Z</time>
      </trkpt>
      <trkpt lat="44.36239" lon="5.64645">
        <ele>738</ele>
        <time>2019-03-23T13:56:29Z</time>
      </trkpt>
      <trkpt lat="44.3624" lon="5.64637">
        <ele>738</ele>
        <time>2019-03-23T13:56:30Z</time>
      </trkpt>
      <trkpt lat="44.36241" lon="5.6463">
        <ele>738</ele>
        <time>2019-03-23T13:56:31Z</time>
      </trkpt>
      <trkpt lat="44.36242" lon="5.64622">
        <ele>738</ele>
        <time>2019-03-23T13:56:32Z</time>
      </trkpt>
      <trkpt lat="44.36243" lon="5.64614">
        <ele>738</ele>
        <time>2019-03-23T13:56:33Z</time>
      </trkpt>
      <trkpt lat="44.36245" lon="5.64606">
        <ele>738</ele>
        <time>2019-03-23T13:56:34Z</time>
      </trkpt>
      <trkpt lat="44.36246" lon="5.64599">
        <ele>738</ele>
        <time>2019-03-23T13:56:35Z</time>
      </trkpt>
      <trkpt lat="44.36247" lon="5.64591">
        <ele>738</ele>
        <time>2019-03-23T13:56:36Z</time>
      </trkpt>
      <trkpt lat="44.36248" lon="5.64583">
        <ele>738</ele>
        <time>2019-03-23T13:56:37Z</time>
      </trkpt>
      <trkpt lat="44.36249" lon="5.64576">
        <ele>738</ele>
        <time>2019-03-23T13:56:38Z</time>
      </trkpt>
      <trkpt lat="44.3625" lon="5.64568">
        <ele>738</ele>
        <time>2019-03-23T13:56:39Z</time>
      </trkpt>
      <trkpt lat="44.36251" lon="5.64561">
        <ele>738</ele>
        <time>2019-03-23T13:56:40Z</time>
      </trkpt>
      <trkpt lat="44.36253" lon="5.64553">
        <ele>738</ele>
        <time>2019-03-23T13:56:41Z</time>
      </trkpt>
      <trkpt lat="44.36254" lon="5.64545">
        <ele>738</ele>
        <time>2019-03-23T13:56:42Z</time>
      </trkpt>
      <trkpt lat="44.36255" lon="5.64538">
        <ele>738</ele>
        <time>2019-03-23T13:56:43Z</time>
      </trkpt>
      <trkpt lat="44.36256" lon="5.64531">
        <ele>738</ele>
        <time>2019-03-23T13:56:44Z</time>
      </trkpt>
      <trkpt lat="44.36257" lon="5.64524">
        <ele>738</ele>
        <time>2019-03-23T13:56:45Z</time>
      </trkpt>
      <trkpt lat="44.36258" lon="5.64516">
        <ele>738</ele>
        <time>2019-03-23T13:56:46Z</time>
      </trkpt>
      <trkpt lat="44.36259" lon="5.64509">
        <ele>738</ele>
        <time>2019-03-23T13:56:47Z</time>
      </trkpt>
      <trkpt lat="44.36259" lon="5.64501">
        <ele>738</ele>
        <time>2019-03-23T13:56:48Z</time>
      </trkpt>
      <trkpt lat="44.36261" lon="5.64494">
        <ele>738</ele>
        <time>2019-03-23T13:56:49Z</time>
      </trkpt>
      <trkpt lat="44.36261" lon="5.64487">
        <ele>738</ele>
        <time>2019-03-23T13:56:50Z</time>
      </trkpt>
      <trkpt lat="44.36263" lon="5.6448">
        <ele>738</ele>
        <time>2019-03-23T13:56:51Z</time>
      </trkpt>
      <trkpt lat="44.36264" lon="5.64473">
        <ele>738</ele>
        <time>2019-03-23T13:56:52Z</time>
      </trkpt>
      <trkpt lat="44.36265" lon="5.64466">
        <ele>738</ele>
        <time>2019-03-23T13:56:53Z</time>
      </trkpt>
      <trkpt lat="44.36266" lon="5.64459">
        <ele>738</ele>
        <time>2019-03-23T13:56:54Z</time>
      </trkpt>
      <trkpt lat="44.36267" lon="5.64451">
        <ele>738</ele>
        <time>2019-03-23T13:56:55Z</time>
      </trkpt>
      <trkpt lat="44.36269" lon="5.64444">
        <ele>738</ele>
        <time>2019-03-23T13:56:56Z</time>
      </trkpt>
      <trkpt lat="44.36271" lon="5.64437">
        <ele>738</ele>
        <time>2019-03-23T13:56:57Z</time>
      </trkpt>
      <trkpt lat="44.36272" lon="5.6443">
        <ele>738</ele>
        <time>2019-03-23T13:56:58Z</time>
      </trkpt>
      <trkpt lat="44.36274" lon="5.64423">
        <ele>738</ele>
        <time>2019-03-23T13:56:59Z</time>
      </trkpt>
      <trkpt lat="44.36276" lon="5.64415">
        <ele>738</ele>
        <time>2019-03-23T13:57:00Z</time>
      </trkpt>
      <trkpt lat="44.36277" lon="5.64407">
        <ele>738</ele>
        <time>2019-03-23T13:57:01Z</time>
      </trkpt>
      <trkpt lat="44.3628" lon="5.644">
        <ele>738</ele>
        <time>2019-03-23T13:57:02Z</time>
      </trkpt>
      <trkpt lat="44.36282" lon="5.64392">
        <ele>738</ele>
        <time>2019-03-23T13:57:03Z</time>
      </trkpt>
      <trkpt lat="44.36284" lon="5.64384">
        <ele>738</ele>
        <time>2019-03-23T13:57:04Z</time>
      </trkpt>
      <trkpt lat="44.36287" lon="5.64376">
        <ele>738</ele>
        <time>2019-03-23T13:57:05Z</time>
      </trkpt>
      <trkpt lat="44.36289" lon="5.64368">
        <ele>738</ele>
        <time>2019-03-23T13:57:06Z</time>
      </trkpt>
      <trkpt lat="44.36291" lon="5.6436">
        <ele>738</ele>
        <time>2019-03-23T13:57:07Z</time>
      </trkpt>
      <trkpt lat="44.36293" lon="5.64352">
        <ele>738</ele>
        <time>2019-03-23T13:57:08Z</time>
      </trkpt>
      <trkpt lat="44.36296" lon="5.64344">
        <ele>738</ele>
        <time>2019-03-23T13:57:09Z</time>
      </trkpt>
      <trkpt lat="44.36298" lon="5.64336">
        <ele>738</ele>
        <time>2019-03-23T13:57:10Z</time>
      </trkpt>
      <trkpt lat="44.363" lon="5.64328">
        <ele>738</ele>
        <time>2019-03-23T13:57:11Z</time>
      </trkpt>
      <trkpt lat="44.36302" lon="5.6432">
        <ele>738</ele>
        <time>2019-03-23T13:57:12Z</time>
      </trkpt>
      <trkpt lat="44.36304" lon="5.64313">
        <ele>738</ele>
        <time>2019-03-23T13:57:13Z</time>
      </trkpt>
      <trkpt lat="44.36305" lon="5.64304">
        <ele>738</ele>
        <time>2019-03-23T13:57:14Z</time>
      </trkpt>
      <trkpt lat="44.36307" lon="5.64296">
        <ele>738</ele>
        <time>2019-03-23T13:57:15Z</time>
      </trkpt>
      <trkpt lat="44.36308" lon="5.64288">
        <ele>738</ele>
        <time>2019-03-23T13:57:16Z</time>
      </trkpt>
      <trkpt lat="44.36309" lon="5.64279">
        <ele>738</ele>
        <time>2019-03-23T13:57:17Z</time>
      </trkpt>
      <trkpt lat="44.36311" lon="5.64271">
        <ele>738</ele>
        <time>2019-03-23T13:57:18Z</time>
      </trkpt>
      <trkpt lat="44.36312" lon="5.64263">
        <ele>738</ele>
        <time>2019-03-23T13:57:19Z</time>
      </trkpt>
      <trkpt lat="44.36313" lon="5.64254">
        <ele>738</ele>
        <time>2019-03-23T13:57:20Z</time>
      </trkpt>
      <trkpt lat="44.36314" lon="5.64245">
        <ele>738</ele>
        <time>2019-03-23T13:57:21Z</time>
      </trkpt>
      <trkpt lat="44.36315" lon="5.64237">
        <ele>738</ele>
        <time>2019-03-23T13:57:22Z</time>
      </trkpt>
      <trkpt lat="44.36316" lon="5.64228">
        <ele>738</ele>
        <time>2019-03-23T13:57:23Z</time>
      </trkpt>
      <trkpt lat="44.36317" lon="5.6422">
        <ele>738</ele>
        <time>2019-03-23T13:57:24Z</time>
      </trkpt>
      <trkpt lat="44.36318" lon="5.64211">
        <ele>738</ele>
        <time>2019-03-23T13:57:25Z</time>
      </trkpt>
      <trkpt lat="44.36319" lon="5.64202">
        <ele>738</ele>
        <time>2019-03-23T13:57:26Z</time>
      </trkpt>
      <trkpt lat="44.3632" lon="5.64193">
        <ele>738</ele>
        <time>2019-03-23T13:57:27Z</time>
      </trkpt>
      <trkpt lat="44.36322" lon="5.64185">
        <ele>738</ele>
        <time>2019-03-23T13:57:28Z</time>
      </trkpt>
      <trkpt lat="44.36322" lon="5.64176">
        <ele>738</ele>
        <time>2019-03-23T13:57:29Z</time>
      </trkpt>
      <trkpt lat="44.36322" lon="5.64167">
        <ele>738</ele>
        <time>2019-03-23T13:57:30Z</time>
      </trkpt>
      <trkpt lat="44.36322" lon="5.64158">
        <ele>738</ele>
        <time>2019-03-23T13:57:31Z</time>
      </trkpt>
      <trkpt lat="44.36322" lon="5.6415">
        <ele>738</ele>
        <time>2019-03-23T13:57:32Z</time>
      </trkpt>
      <trkpt lat="44.36323" lon="5.64142">
        <ele>738</ele>
        <time>2019-03-23T13:57:33Z</time>
      </trkpt>
      <trkpt lat="44.36322" lon="5.64133">
        <ele>738</ele>
        <time>2019-03-23T13:57:34Z</time>
      </trkpt>
      <trkpt lat="44.36323" lon="5.64125">
        <ele>738</ele>
        <time>2019-03-23T13:57:35Z</time>
      </trkpt>
      <trkpt lat="44.36322" lon="5.64117">
        <ele>738</ele>
        <time>2019-03-23T13:57:36Z</time>
      </trkpt>
      <trkpt lat="44.36321" lon="5.64109">
        <ele>738</ele>
        <time>2019-03-23T13:57:37Z</time>
      </trkpt>
      <trkpt lat="44.36321" lon="5.64101">
        <ele>738</ele>
        <time>2019-03-23T13:57:38Z</time>
      </trkpt>
      <trkpt lat="44.3632" lon="5.64093">
        <ele>738</ele>
        <time>2019-03-23T13:57:39Z</time>
      </trkpt>
      <trkpt lat="44.3632" lon="5.64085">
        <ele>738</ele>
        <time>2019-03-23T13:57:40Z</time>
      </trkpt>
      <trkpt lat="44.36319" lon="5.64077">
        <ele>739</ele>
        <time>2019-03-23T13:57:41Z</time>
      </trkpt>
      <trkpt lat="44.36319" lon="5.64069">
        <ele>740</ele>
        <time>2019-03-23T13:57:42Z</time>
      </trkpt>
      <trkpt lat="44.36317" lon="5.6406">
        <ele>741</ele>
        <time>2019-03-23T13:57:43Z</time>
      </trkpt>
      <trkpt lat="44.36316" lon="5.64051">
        <ele>742</ele>
        <time>2019-03-23T13:57:44Z</time>
      </trkpt>
      <trkpt lat="44.36316" lon="5.64043">
        <ele>743</ele>
        <time>2019-03-23T13:57:45Z</time>
      </trkpt>
      <trkpt lat="44.36315" lon="5.64035">
        <ele>744</ele>
        <time>2019-03-23T13:57:46Z</time>
      </trkpt>
      <trkpt lat="44.36314" lon="5.64026">
        <ele>745</ele>
        <time>2019-03-23T13:57:47Z</time>
      </trkpt>
      <trkpt lat="44.36314" lon="5.64018">
        <ele>745</ele>
        <time>2019-03-23T13:57:48Z</time>
      </trkpt>
      <trkpt lat="44.36314" lon="5.6401">
        <ele>746</ele>
        <time>2019-03-23T13:57:49Z</time>
      </trkpt>
      <trkpt lat="44.36312" lon="5.64002">
        <ele>746</ele>
        <time>2019-03-23T13:57:50Z</time>
      </trkpt>
      <trkpt lat="44.36313" lon="5.63994">
        <ele>747</ele>
        <time>2019-03-23T13:57:51Z</time>
      </trkpt>
      <trkpt lat="44.36314" lon="5.63985">
        <ele>747</ele>
        <time>2019-03-23T13:57:52Z</time>
      </trkpt>
      <trkpt lat="44.36315" lon="5.63977">
        <ele>747</ele>
        <time>2019-03-23T13:57:53Z</time>
      </trkpt>
      <trkpt lat="44.36316" lon="5.63968">
        <ele>747</ele>
        <time>2019-03-23T13:57:54Z</time>
      </trkpt>
      <trkpt lat="44.36317" lon="5.6396">
        <ele>747</ele>
        <time>2019-03-23T13:57:55Z</time>
      </trkpt>
      <trkpt lat="44.36316" lon="5.63951">
        <ele>747</ele>
        <time>2019-03-23T13:57:56Z</time>
      </trkpt>
      <trkpt lat="44.36317" lon="5.63942">
        <ele>747</ele>
        <time>2019-03-23T13:57:57Z</time>
      </trkpt>
      <trkpt lat="44.36317" lon="5.63934">
        <ele>747</ele>
        <time>2019-03-23T13:57:58Z</time>
      </trkpt>
      <trkpt lat="44.36317" lon="5.63925">
        <ele>747</ele>
        <time>2019-03-23T13:57:59Z</time>
      </trkpt>
      <trkpt lat="44.36316" lon="5.63917">
        <ele>747</ele>
        <time>2019-03-23T13:58:00Z</time>
      </trkpt>
      <trkpt lat="44.36316" lon="5.63908">
        <ele>747</ele>
        <time>2019-03-23T13:58:01Z</time>
      </trkpt>
      <trkpt lat="44.36317" lon="5.639">
        <ele>747</ele>
        <time>2019-03-23T13:58:02Z</time>
      </trkpt>
      <trkpt lat="44.36317" lon="5.63892">
        <ele>747</ele>
        <time>2019-03-23T13:58:03Z</time>
      </trkpt>
      <trkpt lat="44.36316" lon="5.63884">
        <ele>747</ele>
        <time>2019-03-23T13:58:04Z</time>
      </trkpt>
      <trkpt lat="44.36316" lon="5.63876">
        <ele>747</ele>
        <time>2019-03-23T13:58:05Z</time>
      </trkpt>
      <trkpt lat="44.36316" lon="5.63869">
        <ele>747</ele>
        <time>2019-03-23T13:58:06Z</time>
      </trkpt>
      <trkpt lat="44.36315" lon="5.63862">
        <ele>747</ele>
        <time>2019-03-23T13:58:07Z</time>
      </trkpt>
      <trkpt lat="44.36316" lon="5.63854">
        <ele>747</ele>
        <time>2019-03-23T13:58:08Z</time>
      </trkpt>
      <trkpt lat="44.36316" lon="5.63847">
        <ele>747</ele>
        <time>2019-03-23T13:58:09Z</time>
      </trkpt>
      <trkpt lat="44.36316" lon="5.63839">
        <ele>747</ele>
        <time>2019-03-23T13:58:10Z</time>
      </trkpt>
      <trkpt lat="44.36317" lon="5.63832">
        <ele>747</ele>
        <time>2019-03-23T13:58:11Z</time>
      </trkpt>
      <trkpt lat="44.36318" lon="5.63825">
        <ele>747</ele>
        <time>2019-03-23T13:58:12Z</time>
      </trkpt>
      <trkpt lat="44.3632" lon="5.63818">
        <ele>747</ele>
        <time>2019-03-23T13:58:13Z</time>
      </trkpt>
      <trkpt lat="44.36321" lon="5.63811">
        <ele>747</ele>
        <time>2019-03-23T13:58:14Z</time>
      </trkpt>
      <trkpt lat="44.36322" lon="5.63805">
        <ele>747</ele>
        <time>2019-03-23T13:58:15Z</time>
      </trkpt>
      <trkpt lat="44.36324" lon="5.63798">
        <ele>747</ele>
        <time>2019-03-23T13:58:16Z</time>
      </trkpt>
      <trkpt lat="44.36325" lon="5.63791">
        <ele>747</ele>
        <time>2019-03-23T13:58:17Z</time>
      </trkpt>
      <trkpt lat="44.36326" lon="5.63784">
        <ele>747</ele>
        <time>2019-03-23T13:58:18Z</time>
      </trkpt>
      <trkpt lat="44.36328" lon="5.63777">
        <ele>747</ele>
        <time>2019-03-23T13:58:19Z</time>
      </trkpt>
      <trkpt lat="44.3633" lon="5.6377">
        <ele>747</ele>
        <time>2019-03-23T13:58:20Z</time>
      </trkpt>
      <trkpt lat="44.36332" lon="5.63763">
        <ele>747</ele>
        <time>2019-03-23T13:58:21Z</time>
      </trkpt>
      <trkpt lat="44.36334" lon="5.63756">
        <ele>747</ele>
        <time>2019-03-23T13:58:22Z</time>
      </trkpt>
      <trkpt lat="44.36335" lon="5.63749">
        <ele>747</ele>
        <time>2019-03-23T13:58:23Z</time>
      </trkpt>
      <trkpt lat="44.36338" lon="5.63741">
        <ele>747</ele>
        <time>2019-03-23T13:58:24Z</time>
      </trkpt>
      <trkpt lat="44.36339" lon="5.63734">
        <ele>747</ele>
        <time>2019-03-23T13:58:25Z</time>
      </trkpt>
      <trkpt lat="44.3634" lon="5.63727">
        <ele>747</ele>
        <time>2019-03-23T13:58:26Z</time>
      </trkpt>
      <trkpt lat="44.36341" lon="5.63719">
        <ele>747</ele>
        <time>2019-03-23T13:58:27Z</time>
      </trkpt>
      <trkpt lat="44.36342" lon="5.63712">
        <ele>747</ele>
        <time>2019-03-23T13:58:28Z</time>
      </trkpt>
      <trkpt lat="44.36342" lon="5.63704">
        <ele>747</ele>
        <time>2019-03-23T13:58:29Z</time>
      </trkpt>
      <trkpt lat="44.36342" lon="5.63697">
        <ele>747</ele>
        <time>2019-03-23T13:58:30Z</time>
      </trkpt>
      <trkpt lat="44.36342" lon="5.6369">
        <ele>747</ele>
        <time>2019-03-23T13:58:31Z</time>
      </trkpt>
      <trkpt lat="44.36342" lon="5.63682">
        <ele>748</ele>
        <time>2019-03-23T13:58:32Z</time>
      </trkpt>
      <trkpt lat="44.36341" lon="5.63675">
        <ele>749</ele>
        <time>2019-03-23T13:58:33Z</time>
      </trkpt>
      <trkpt lat="44.3634" lon="5.63667">
        <ele>750</ele>
        <time>2019-03-23T13:58:34Z</time>
      </trkpt>
      <trkpt lat="44.36337" lon="5.63659">
        <ele>751</ele>
        <time>2019-03-23T13:58:35Z</time>
      </trkpt>
      <trkpt lat="44.36336" lon="5.63652">
        <ele>752</ele>
        <time>2019-03-23T13:58:36Z</time>
      </trkpt>
      <trkpt lat="44.36335" lon="5.63645">
        <ele>753</ele>
        <time>2019-03-23T13:58:37Z</time>
      </trkpt>
      <trkpt lat="44.36334" lon="5.63637">
        <ele>754</ele>
        <time>2019-03-23T13:58:38Z</time>
      </trkpt>
      <trkpt lat="44.36333" lon="5.63629">
        <ele>755</ele>
        <time>2019-03-23T13:58:39Z</time>
      </trkpt>
      <trkpt lat="44.36331" lon="5.63622">
        <ele>756</ele>
        <time>2019-03-23T13:58:40Z</time>
      </trkpt>
      <trkpt lat="44.3633" lon="5.63615">
        <ele>757</ele>
        <time>2019-03-23T13:58:41Z</time>
      </trkpt>
      <trkpt lat="44.3633" lon="5.63607">
        <ele>758</ele>
        <time>2019-03-23T13:58:42Z</time>
      </trkpt>
      <trkpt lat="44.36331" lon="5.636">
        <ele>758</ele>
        <time>2019-03-23T13:58:43Z</time>
      </trkpt>
      <trkpt lat="44.3633" lon="5.63593">
        <ele>758</ele>
        <time>2019-03-23T13:58:44Z</time>
      </trkpt>
      <trkpt lat="44.3633" lon="5.63585">
        <ele>758</ele>
        <time>2019-03-23T13:58:45Z</time>
      </trkpt>
      <trkpt lat="44.3633" lon="5.63578">
        <ele>758</ele>
        <time>2019-03-23T13:58:46Z</time>
      </trkpt>
      <trkpt lat="44.3633" lon="5.6357">
        <ele>758</ele>
        <time>2019-03-23T13:58:47Z</time>
      </trkpt>
      <trkpt lat="44.3633" lon="5.63562">
        <ele>758</ele>
        <time>2019-03-23T13:58:48Z</time>
      </trkpt>
      <trkpt lat="44.3633" lon="5.63553">
        <ele>758</ele>
        <time>2019-03-23T13:58:49Z</time>
      </trkpt>
      <trkpt lat="44.36329" lon="5.63545">
        <ele>758</ele>
        <time>2019-03-23T13:58:50Z</time>
      </trkpt>
      <trkpt lat="44.36329" lon="5.63536">
        <ele>758</ele>
        <time>2019-03-23T13:58:51Z</time>
      </trkpt>
      <trkpt lat="44.36329" lon="5.63527">
        <ele>758</ele>
        <time>2019-03-23T13:58:52Z</time>
      </trkpt>
      <trkpt lat="44.36329" lon="5.63519">
        <ele>758</ele>
        <time>2019-03-23T13:58:53Z</time>
      </trkpt>
      <trkpt lat="44.36329" lon="5.6351">
        <ele>758</ele>
        <time>2019-03-23T13:58:54Z</time>
      </trkpt>
      <trkpt lat="44.36329" lon="5.635">
        <ele>758</ele>
        <time>2019-03-23T13:58:55Z</time>
      </trkpt>
      <trkpt lat="44.36329" lon="5.63491">
        <ele>758</ele>
        <time>2019-03-23T13:58:56Z</time>
      </trkpt>
      <trkpt lat="44.36329" lon="5.63482">
        <ele>758</ele>
        <time>2019-03-23T13:58:57Z</time>
      </trkpt>
      <trkpt lat="44.36329" lon="5.63473">
        <ele>758</ele>
        <time>2019-03-23T13:58:58Z</time>
      </trkpt>
      <trkpt lat="44.36328" lon="5.63463">
        <ele>758</ele>
        <time>2019-03-23T13:58:59Z</time>
      </trkpt>
      <trkpt lat="44.36327" lon="5.63454">
        <ele>757</ele>
        <time>2019-03-23T13:59:00Z</time>
      </trkpt>
      <trkpt lat="44.36327" lon="5.63446">
        <ele>757</ele>
        <time>2019-03-23T13:59:01Z</time>
      </trkpt>
      <trkpt lat="44.36327" lon="5.63437">
        <ele>756</ele>
        <time>2019-03-23T13:59:02Z</time>
      </trkpt>
      <trkpt lat="44.36323" lon="5.63428">
        <ele>755</ele>
        <time>2019-03-23T13:59:03Z</time>
      </trkpt>
      <trkpt lat="44.36322" lon="5.6342">
        <ele>755</ele>
        <time>2019-03-23T13:59:04Z</time>
      </trkpt>
      <trkpt lat="44.36319" lon="5.63412">
        <ele>754</ele>
        <time>2019-03-23T13:59:05Z</time>
      </trkpt>
      <trkpt lat="44.36317" lon="5.63404">
        <ele>754</ele>
        <time>2019-03-23T13:59:06Z</time>
      </trkpt>
      <trkpt lat="44.36314" lon="5.63396">
        <ele>754</ele>
        <time>2019-03-23T13:59:07Z</time>
      </trkpt>
      <trkpt lat="44.36311" lon="5.63388">
        <ele>753</ele>
        <time>2019-03-23T13:59:08Z</time>
      </trkpt>
      <trkpt lat="44.36308" lon="5.63379">
        <ele>753</ele>
        <time>2019-03-23T13:59:09Z</time>
      </trkpt>
      <trkpt lat="44.36306" lon="5.63371">
        <ele>753</ele>
        <time>2019-03-23T13:59:10Z</time>
      </trkpt>
      <trkpt lat="44.36303" lon="5.63363">
        <ele>753</ele>
        <time>2019-03-23T13:59:11Z</time>
      </trkpt>
      <trkpt lat="44.36299" lon="5.63355">
        <ele>753</ele>
        <time>2019-03-23T13:59:12Z</time>
      </trkpt>
      <trkpt lat="44.36296" lon="5.63347">
        <ele>753</ele>
        <time>2019-03-23T13:59:13Z</time>
      </trkpt>
      <trkpt lat="44.36293" lon="5.6334">
        <ele>753</ele>
        <time>2019-03-23T13:59:14Z</time>
      </trkpt>
      <trkpt lat="44.3629" lon="5.63333">
        <ele>753</ele>
        <time>2019-03-23T13:59:15Z</time>
      </trkpt>
      <trkpt lat="44.36286" lon="5.63326">
        <ele>753</ele>
        <time>2019-03-23T13:59:16Z</time>
      </trkpt>
      <trkpt lat="44.36282" lon="5.63318">
        <ele>753</ele>
        <time>2019-03-23T13:59:17Z</time>
      </trkpt>
      <trkpt lat="44.36278" lon="5.63312">
        <ele>753</ele>
        <time>2019-03-23T13:59:18Z</time>
      </trkpt>
      <trkpt lat="44.36274" lon="5.63305">
        <ele>753</ele>
        <time>2019-03-23T13:59:19Z</time>
      </trkpt>
      <trkpt lat="44.3627" lon="5.63299">
        <ele>753</ele>
        <time>2019-03-23T13:59:20Z</time>
      </trkpt>
      <trkpt lat="44.36266" lon="5.63293">
        <ele>753</ele>
        <time>2019-03-23T13:59:21Z</time>
      </trkpt>
      <trkpt lat="44.36261" lon="5.63288">
        <ele>753</ele>
        <time>2019-03-23T13:59:22Z</time>
      </trkpt>
      <trkpt lat="44.36256" lon="5.63281">
        <ele>753</ele>
        <time>2019-03-23T13:59:23Z</time>
      </trkpt>
      <trkpt lat="44.36252" lon="5.63276">
        <ele>752</ele>
        <time>2019-03-23T13:59:24Z</time>
      </trkpt>
      <trkpt lat="44.36248" lon="5.6327">
        <ele>752</ele>
        <time>2019-03-23T13:59:25Z</time>
      </trkpt>
      <trkpt lat="44.36243" lon="5.63264">
        <ele>752</ele>
        <time>2019-03-23T13:59:26Z</time>
      </trkpt>
      <trkpt lat="44.36238" lon="5.63258">
        <ele>751</ele>
        <time>2019-03-23T13:59:27Z</time>
      </trkpt>
      <trkpt lat="44.36234" lon="5.63251">
        <ele>751</ele>
        <time>2019-03-23T13:59:28Z</time>
      </trkpt>
      <trkpt lat="44.36231" lon="5.63245">
        <ele>750</ele>
        <time>2019-03-23T13:59:29Z</time>
      </trkpt>
      <trkpt lat="44.36228" lon="5.63238">
        <ele>750</ele>
        <time>2019-03-23T13:59:30Z</time>
      </trkpt>
      <trkpt lat="44.36226" lon="5.63231">
        <ele>750</ele>
        <time>2019-03-23T13:59:31Z</time>
      </trkpt>
      <trkpt lat="44.36223" lon="5.63224">
        <ele>749</ele>
        <time>2019-03-23T13:59:32Z</time>
      </trkpt>
      <trkpt lat="44.36221" lon="5.63217">
        <ele>749</ele>
        <time>2019-03-23T13:59:33Z</time>
      </trkpt>
      <trkpt lat="44.3622" lon="5.6321">
        <ele>749</ele>
        <time>2019-03-23T13:59:34Z</time>
      </trkpt>
      <trkpt lat="44.36218" lon="5.63203">
        <ele>748</ele>
        <time>2019-03-23T13:59:35Z</time>
      </trkpt>
      <trkpt lat="44.36216" lon="5.63197">
        <ele>748</ele>
        <time>2019-03-23T13:59:36Z</time>
      </trkpt>
      <trkpt lat="44.36215" lon="5.6319">
        <ele>748</ele>
        <time>2019-03-23T13:59:37Z</time>
      </trkpt>
      <trkpt lat="44.36213" lon="5.63183">
        <ele>748</ele>
        <time>2019-03-23T13:59:38Z</time>
      </trkpt>
      <trkpt lat="44.36211" lon="5.63176">
        <ele>748</ele>
        <time>2019-03-23T13:59:39Z</time>
      </trkpt>
      <trkpt lat="44.36208" lon="5.63169">
        <ele>748</ele>
        <time>2019-03-23T13:59:40Z</time>
      </trkpt>
      <trkpt lat="44.36204" lon="5.63162">
        <ele>748</ele>
        <time>2019-03-23T13:59:41Z</time>
      </trkpt>
      <trkpt lat="44.36202" lon="5.63156">
        <ele>748</ele>
        <time>2019-03-23T13:59:42Z</time>
      </trkpt>
      <trkpt lat="44.362" lon="5.63148">
        <ele>748</ele>
        <time>2019-03-23T13:59:43Z</time>
      </trkpt>
      <trkpt lat="44.36198" lon="5.63141">
        <ele>748</ele>
        <time>2019-03-23T13:59:44Z</time>
      </trkpt>
      <trkpt lat="44.36198" lon="5.63133">
        <ele>748</ele>
        <time>2019-03-23T13:59:45Z</time>
      </trkpt>
      <trkpt lat="44.36198" lon="5.63126">
        <ele>748</ele>
        <time>2019-03-23T13:59:46Z</time>
      </trkpt>
      <trkpt lat="44.36197" lon="5.63118">
        <ele>748</ele>
        <time>2019-03-23T13:59:47Z</time>
      </trkpt>
      <trkpt lat="44.36196" lon="5.6311">
        <ele>748</ele>
        <time>2019-03-23T13:59:48Z</time>
      </trkpt>
      <trkpt lat="44.36194" lon="5.63102">
        <ele>748</ele>
        <time>2019-03-23T13:59:49Z</time>
      </trkpt>
      <trkpt lat="44.36193" lon="5.63095">
        <ele>748</ele>
        <time>2019-03-23T13:59:50Z</time>
      </trkpt>
      <trkpt lat="44.36191" lon="5.63087">
        <ele>748</ele>
        <time>2019-03-23T13:59:51Z</time>
      </trkpt>
      <trkpt lat="44.3619" lon="5.63079">
        <ele>748</ele>
        <time>2019-03-23T13:59:52Z</time>
      </trkpt>
      <trkpt lat="44.36189" lon="5.63071">
        <ele>748</ele>
        <time>2019-03-23T13:59:53Z</time>
      </trkpt>
      <trkpt lat="44.36187" lon="5.63063">
        <ele>748</ele>
        <time>2019-03-23T13:59:54Z</time>
      </trkpt>
      <trkpt lat="44.36186" lon="5.63056">
        <ele>748</ele>
        <time>2019-03-23T13:59:55Z</time>
      </trkpt>
      <trkpt lat="44.36185" lon="5.63048">
        <ele>748</ele>
        <time>2019-03-23T13:59:56Z</time>
      </trkpt>
      <trkpt lat="44.36185" lon="5.63041">
        <ele>748</ele>
        <time>2019-03-23T13:59:57Z</time>
      </trkpt>
      <trkpt lat="44.36184" lon="5.63033">
        <ele>748</ele>
        <time>2019-03-23T13:59:58Z</time>
      </trkpt>
      <trkpt lat="44.36183" lon="5.63026">
        <ele>748</ele>
        <time>2019-03-23T13:59:59Z</time>
      </trkpt>
      <trkpt lat="44.36182" lon="5.63018">
        <ele>748</ele>
        <time>2019-03-23T14:00:00Z</time>
      </trkpt>
      <trkpt lat="44.36181" lon="5.6301">
        <ele>748</ele>
        <time>2019-03-23T14:00:01Z</time>
      </trkpt>
      <trkpt lat="44.36179" lon="5.63003">
        <ele>748</ele>
        <time>2019-03-23T14:00:02Z</time>
      </trkpt>
      <trkpt lat="44.36178" lon="5.62995">
        <ele>748</ele>
        <time>2019-03-23T14:00:03Z</time>
      </trkpt>
      <trkpt lat="44.36176" lon="5.62987">
        <ele>748</ele>
        <time>2019-03-23T14:00:04Z</time>
      </trkpt>
      <trkpt lat="44.36176" lon="5.6298">
        <ele>748</ele>
        <time>2019-03-23T14:00:05Z</time>
      </trkpt>
      <trkpt lat="44.36174" lon="5.62972">
        <ele>748</ele>
        <time>2019-03-23T14:00:06Z</time>
      </trkpt>
      <trkpt lat="44.36172" lon="5.62964">
        <ele>748</ele>
        <time>2019-03-23T14:00:07Z</time>
      </trkpt>
      <trkpt lat="44.36171" lon="5.62956">
        <ele>748</ele>
        <time>2019-03-23T14:00:08Z</time>
      </trkpt>
      <trkpt lat="44.36169" lon="5.62947">
        <ele>748</ele>
        <time>2019-03-23T14:00:09Z</time>
      </trkpt>
      <trkpt lat="44.36167" lon="5.62939">
        <ele>748</ele>
        <time>2019-03-23T14:00:10Z</time>
      </trkpt>
      <trkpt lat="44.36166" lon="5.62931">
        <ele>748</ele>
        <time>2019-03-23T14:00:11Z</time>
      </trkpt>
      <trkpt lat="44.36164" lon="5.62923">
        <ele>748</ele>
        <time>2019-03-23T14:00:12Z</time>
      </trkpt>
      <trkpt lat="44.3616" lon="5.62915">
        <ele>748</ele>
        <time>2019-03-23T14:00:13Z</time>
      </trkpt>
      <trkpt lat="44.36158" lon="5.62907">
        <ele>748</ele>
        <time>2019-03-23T14:00:14Z</time>
      </trkpt>
      <trkpt lat="44.36156" lon="5.629">
        <ele>748</ele>
        <time>2019-03-23T14:00:15Z</time>
      </trkpt>
      <trkpt lat="44.36154" lon="5.62892">
        <ele>748</ele>
        <time>2019-03-23T14:00:16Z</time>
      </trkpt>
      <trkpt lat="44.36153" lon="5.62885">
        <ele>748</ele>
        <time>2019-03-23T14:00:17Z</time>
      </trkpt>
      <trkpt lat="44.36152" lon="5.62878">
        <ele>748</ele>
        <time>2019-03-23T14:00:18Z</time>
      </trkpt>
      <trkpt lat="44.36152" lon="5.62871">
        <ele>748</ele>
        <time>2019-03-23T14:00:19Z</time>
      </trkpt>
      <trkpt lat="44.3615" lon="5.62864">
        <ele>748</ele>
        <time>2019-03-23T14:00:20Z</time>
      </trkpt>
      <trkpt lat="44.36148" lon="5.62857">
        <ele>748</ele>
        <time>2019-03-23T14:00:21Z</time>
      </trkpt>
      <trkpt lat="44.36144" lon="5.62851">
        <ele>748</ele>
        <time>2019-03-23T14:00:22Z</time>
      </trkpt>
      <trkpt lat="44.3614" lon="5.62844">
        <ele>748</ele>
        <time>2019-03-23T14:00:23Z</time>
      </trkpt>
      <trkpt lat="44.36137" lon="5.62838">
        <ele>748</ele>
        <time>2019-03-23T14:00:24Z</time>
      </trkpt>
      <trkpt lat="44.36134" lon="5.62831">
        <ele>748</ele>
        <time>2019-03-23T14:00:25Z</time>
      </trkpt>
      <trkpt lat="44.36132" lon="5.62825">
        <ele>748</ele>
        <time>2019-03-23T14:00:26Z</time>
      </trkpt>
      <trkpt lat="44.36129" lon="5.62819">
        <ele>748</ele>
        <time>2019-03-23T14:00:27Z</time>
      </trkpt>
      <trkpt lat="44.36126" lon="5.62812">
        <ele>748</ele>
        <time>2019-03-23T14:00:28Z</time>
      </trkpt>
      <trkpt lat="44.36123" lon="5.62806">
        <ele>748</ele>
        <time>2019-03-23T14:00:29Z</time>
      </trkpt>
      <trkpt lat="44.3612" lon="5.62799">
        <ele>748</ele>
        <time>2019-03-23T14:00:30Z</time>
      </trkpt>
      <trkpt lat="44.36117" lon="5.62793">
        <ele>748</ele>
        <time>2019-03-23T14:00:31Z</time>
      </trkpt>
      <trkpt lat="44.36114" lon="5.62786">
        <ele>749</ele>
        <time>2019-03-23T14:00:32Z</time>
      </trkpt>
      <trkpt lat="44.36111" lon="5.6278">
        <ele>750</ele>
        <time>2019-03-23T14:00:33Z</time>
      </trkpt>
      <trkpt lat="44.36108" lon="5.62774">
        <ele>750</ele>
        <time>2019-03-23T14:00:34Z</time>
      </trkpt>
      <trkpt lat="44.36105" lon="5.62767">
        <ele>751</ele>
        <time>2019-03-23T14:00:35Z</time>
      </trkpt>
      <trkpt lat="44.36102" lon="5.62761">
        <ele>751</ele>
        <time>2019-03-23T14:00:36Z</time>
      </trkpt>
      <trkpt lat="44.361" lon="5.62755">
        <ele>751</ele>
        <time>2019-03-23T14:00:37Z</time>
      </trkpt>
      <trkpt lat="44.36097" lon="5.62748">
        <ele>751</ele>
        <time>2019-03-23T14:00:38Z</time>
      </trkpt>
      <trkpt lat="44.36094" lon="5.62742">
        <ele>751</ele>
        <time>2019-03-23T14:00:39Z</time>
      </trkpt>
      <trkpt lat="44.36092" lon="5.62735">
        <ele>751</ele>
        <time>2019-03-23T14:00:40Z</time>
      </trkpt>
      <trkpt lat="44.36089" lon="5.62727">
        <ele>751</ele>
        <time>2019-03-23T14:00:41Z</time>
      </trkpt>
      <trkpt lat="44.36087" lon="5.6272">
        <ele>751</ele>
        <time>2019-03-23T14:00:42Z</time>
      </trkpt>
      <trkpt lat="44.36086" lon="5.62713">
        <ele>751</ele>
        <time>2019-03-23T14:00:43Z</time>
      </trkpt>
      <trkpt lat="44.36084" lon="5.62706">
        <ele>751</ele>
        <time>2019-03-23T14:00:44Z</time>
      </trkpt>
      <trkpt lat="44.36083" lon="5.62699">
        <ele>751</ele>
        <time>2019-03-23T14:00:45Z</time>
      </trkpt>
      <trkpt lat="44.36081" lon="5.62691">
        <ele>751</ele>
        <time>2019-03-23T14:00:46Z</time>
      </trkpt>
      <trkpt lat="44.3608" lon="5.62683">
        <ele>752</ele>
        <time>2019-03-23T14:00:47Z</time>
      </trkpt>
      <trkpt lat="44.3608" lon="5.62676">
        <ele>752</ele>
        <time>2019-03-23T14:00:48Z</time>
      </trkpt>
      <trkpt lat="44.36079" lon="5.62668">
        <ele>753</ele>
        <time>2019-03-23T14:00:49Z</time>
      </trkpt>
      <trkpt lat="44.36078" lon="5.6266">
        <ele>753</ele>
        <time>2019-03-23T14:00:50Z</time>
      </trkpt>
      <trkpt lat="44.36077" lon="5.62652">
        <ele>754</ele>
        <time>2019-03-23T14:00:51Z</time>
      </trkpt>
      <trkpt lat="44.36077" lon="5.62643">
        <ele>754</ele>
        <time>2019-03-23T14:00:52Z</time>
      </trkpt>
      <trkpt lat="44.36077" lon="5.62636">
        <ele>755</ele>
        <time>2019-03-23T14:00:53Z</time>
      </trkpt>
      <trkpt lat="44.36077" lon="5.62628">
        <ele>755</ele>
        <time>2019-03-23T14:00:54Z</time>
      </trkpt>
      <trkpt lat="44.36077" lon="5.62619">
        <ele>755</ele>
        <time>2019-03-23T14:00:55Z</time>
      </trkpt>
      <trkpt lat="44.36076" lon="5.62611">
        <ele>755</ele>
        <time>2019-03-23T14:00:56Z</time>
      </trkpt>
      <trkpt lat="44.36076" lon="5.62603">
        <ele>755</ele>
        <time>2019-03-23T14:00:57Z</time>
      </trkpt>
      <trkpt lat="44.36076" lon="5.62595">
        <ele>756</ele>
        <time>2019-03-23T14:00:58Z</time>
      </trkpt>
      <trkpt lat="44.36076" lon="5.62586">
        <ele>756</ele>
        <time>2019-03-23T14:00:59Z</time>
      </trkpt>
      <trkpt lat="44.36077" lon="5.62579">
        <ele>756</ele>
        <time>2019-03-23T14:01:00Z</time>
      </trkpt>
      <trkpt lat="44.36077" lon="5.62572">
        <ele>756</ele>
        <time>2019-03-23T14:01:01Z</time>
      </trkpt>
      <trkpt lat="44.36077" lon="5.62565">
        <ele>756</ele>
        <time>2019-03-23T14:01:02Z</time>
      </trkpt>
      <trkpt lat="44.36077" lon="5.62558">
        <ele>756</ele>
        <time>2019-03-23T14:01:03Z</time>
      </trkpt>
      <trkpt lat="44.36076" lon="5.62551">
        <ele>756</ele>
        <time>2019-03-23T14:01:04Z</time>
      </trkpt>
      <trkpt lat="44.36076" lon="5.62544">
        <ele>756</ele>
        <time>2019-03-23T14:01:05Z</time>
      </trkpt>
      <trkpt lat="44.36075" lon="5.62537">
        <ele>756</ele>
        <time>2019-03-23T14:01:06Z</time>
      </trkpt>
      <trkpt lat="44.36076" lon="5.62531">
        <ele>756</ele>
        <time>2019-03-23T14:01:07Z</time>
      </trkpt>
      <trkpt lat="44.36076" lon="5.62524">
        <ele>756</ele>
        <time>2019-03-23T14:01:08Z</time>
      </trkpt>
      <trkpt lat="44.36075" lon="5.62517">
        <ele>756</ele>
        <time>2019-03-23T14:01:09Z</time>
      </trkpt>
      <trkpt lat="44.36075" lon="5.6251">
        <ele>756</ele>
        <time>2019-03-23T14:01:10Z</time>
      </trkpt>
      <trkpt lat="44.36075" lon="5.62503">
        <ele>756</ele>
        <time>2019-03-23T14:01:11Z</time>
      </trkpt>
      <trkpt lat="44.36075" lon="5.62497">
        <ele>756</ele>
        <time>2019-03-23T14:01:12Z</time>
      </trkpt>
      <trkpt lat="44.36075" lon="5.6249">
        <ele>756</ele>
        <time>2019-03-23T14:01:13Z</time>
      </trkpt>
      <trkpt lat="44.36075" lon="5.62483">
        <ele>756</ele>
        <time>2019-03-23T14:01:14Z</time>
      </trkpt>
      <trkpt lat="44.36074" lon="5.62476">
        <ele>756</ele>
        <time>2019-03-23T14:01:15Z</time>
      </trkpt>
      <trkpt lat="44.36074" lon="5.6247">
        <ele>756</ele>
        <time>2019-03-23T14:01:16Z</time>
      </trkpt>
      <trkpt lat="44.36075" lon="5.62463">
        <ele>756</ele>
        <time>2019-03-23T14:01:17Z</time>
      </trkpt>
      <trkpt lat="44.36075" lon="5.62456">
        <ele>756</ele>
        <time>2019-03-23T14:01:18Z</time>
      </trkpt>
      <trkpt lat="44.36076" lon="5.62449">
        <ele>756</ele>
        <time>2019-03-23T14:01:19Z</time>
      </trkpt>
      <trkpt lat="44.36078" lon="5.62442">
        <ele>756</ele>
        <time>2019-03-23T14:01:20Z</time>
      </trkpt>
      <trkpt lat="44.36079" lon="5.62435">
        <ele>756</ele>
        <time>2019-03-23T14:01:21Z</time>
      </trkpt>
      <trkpt lat="44.36081" lon="5.62429">
        <ele>756</ele>
        <time>2019-03-23T14:01:22Z</time>
      </trkpt>
      <trkpt lat="44.36083" lon="5.62423">
        <ele>756</ele>
        <time>2019-03-23T14:01:23Z</time>
      </trkpt>
      <trkpt lat="44.36085" lon="5.62417">
        <ele>756</ele>
        <time>2019-03-23T14:01:24Z</time>
      </trkpt>
      <trkpt lat="44.36087" lon="5.62411">
        <ele>757</ele>
        <time>2019-03-23T14:01:25Z</time>
      </trkpt>
      <trkpt lat="44.36089" lon="5.62405">
        <ele>757</ele>
        <time>2019-03-23T14:01:26Z</time>
      </trkpt>
      <trkpt lat="44.36091" lon="5.62399">
        <ele>757</ele>
        <time>2019-03-23T14:01:27Z</time>
      </trkpt>
      <trkpt lat="44.36093" lon="5.62393">
        <ele>758</ele>
        <time>2019-03-23T14:01:28Z</time>
      </trkpt>
      <trkpt lat="44.36096" lon="5.62388">
        <ele>758</ele>
        <time>2019-03-23T14:01:29Z</time>
      </trkpt>
      <trkpt lat="44.36098" lon="5.62382">
        <ele>758</ele>
        <time>2019-03-23T14:01:30Z</time>
      </trkpt>
      <trkpt lat="44.361" lon="5.62376">
        <ele>758</ele>
        <time>2019-03-23T14:01:31Z</time>
      </trkpt>
      <trkpt lat="44.36102" lon="5.6237">
        <ele>759</ele>
        <time>2019-03-23T14:01:32Z</time>
      </trkpt>
      <trkpt lat="44.36103" lon="5.62364">
        <ele>759</ele>
        <time>2019-03-23T14:01:33Z</time>
      </trkpt>
      <trkpt lat="44.36104" lon="5.62358">
        <ele>759</ele>
        <time>2019-03-23T14:01:34Z</time>
      </trkpt>
      <trkpt lat="44.36105" lon="5.62352">
        <ele>759</ele>
        <time>2019-03-23T14:01:35Z</time>
      </trkpt>
      <trkpt lat="44.36107" lon="5.62345">
        <ele>759</ele>
        <time>2019-03-23T14:01:36Z</time>
      </trkpt>
      <trkpt lat="44.36108" lon="5.62339">
        <ele>760</ele>
        <time>2019-03-23T14:01:37Z</time>
      </trkpt>
      <trkpt lat="44.36108" lon="5.62332">
        <ele>760</ele>
        <time>2019-03-23T14:01:38Z</time>
      </trkpt>
      <trkpt lat="44.36108" lon="5.62326">
        <ele>760</ele>
        <time>2019-03-23T14:01:39Z</time>
      </trkpt>
      <trkpt lat="44.36108" lon="5.62319">
        <ele>760</ele>
        <time>2019-03-23T14:01:40Z</time>
      </trkpt>
      <trkpt lat="44.36108" lon="5.62312">
        <ele>761</ele>
        <time>2019-03-23T14:01:41Z</time>
      </trkpt>
      <trkpt lat="44.36108" lon="5.62304">
        <ele>761</ele>
        <time>2019-03-23T14:01:42Z</time>
      </trkpt>
      <trkpt lat="44.36108" lon="5.62297">
        <ele>761</ele>
        <time>2019-03-23T14:01:43Z</time>
      </trkpt>
      <trkpt lat="44.36108" lon="5.62289">
        <ele>761</ele>
        <time>2019-03-23T14:01:44Z</time>
      </trkpt>
      <trkpt lat="44.36107" lon="5.62282">
        <ele>761</ele>
        <time>2019-03-23T14:01:45Z</time>
      </trkpt>
      <trkpt lat="44.36107" lon="5.62274">
        <ele>762</ele>
        <time>2019-03-23T14:01:46Z</time>
      </trkpt>
      <trkpt lat="44.36107" lon="5.62267">
        <ele>762</ele>
        <time>2019-03-23T14:01:47Z</time>
      </trkpt>
      <trkpt lat="44.36106" lon="5.62259">
        <ele>762</ele>
        <time>2019-03-23T14:01:48Z</time>
      </trkpt>
      <trkpt lat="44.36106" lon="5.62252">
        <ele>762</ele>
        <time>2019-03-23T14:01:49Z</time>
      </trkpt>
      <trkpt lat="44.36105" lon="5.62245">
        <ele>762</ele>
        <time>2019-03-23T14:01:50Z</time>
      </trkpt>
      <trkpt lat="44.36105" lon="5.62238">
        <ele>762</ele>
        <time>2019-03-23T14:01:51Z</time>
      </trkpt>
      <trkpt lat="44.36105" lon="5.62231">
        <ele>762</ele>
        <time>2019-03-23T14:01:52Z</time>
      </trkpt>
      <trkpt lat="44.36104" lon="5.62224">
        <ele>762</ele>
        <time>2019-03-23T14:01:53Z</time>
      </trkpt>
      <trkpt lat="44.36103" lon="5.62218">
        <ele>762</ele>
        <time>2019-03-23T14:01:54Z</time>
      </trkpt>
      <trkpt lat="44.36102" lon="5.62211">
        <ele>762</ele>
        <time>2019-03-23T14:01:55Z</time>
      </trkpt>
      <trkpt lat="44.361" lon="5.62204">
        <ele>762</ele>
        <time>2019-03-23T14:01:56Z</time>
      </trkpt>
      <trkpt lat="44.36099" lon="5.62197">
        <ele>762</ele>
        <time>2019-03-23T14:01:57Z</time>
      </trkpt>
      <trkpt lat="44.36098" lon="5.62191">
        <ele>763</ele>
        <time>2019-03-23T14:01:58Z</time>
      </trkpt>
      <trkpt lat="44.36096" lon="5.62185">
        <ele>763</ele>
        <time>2019-03-23T14:01:59Z</time>
      </trkpt>
      <trkpt lat="44.36095" lon="5.62178">
        <ele>763</ele>
        <time>2019-03-23T14:02:00Z</time>
      </trkpt>
      <trkpt lat="44.36093" lon="5.62172">
        <ele>763</ele>
        <time>2019-03-23T14:02:01Z</time>
      </trkpt>
      <trkpt lat="44.36091" lon="5.62165">
        <ele>763</ele>
        <time>2019-03-23T14:02:02Z</time>
      </trkpt>
      <trkpt lat="44.3609" lon="5.62159">
        <ele>763</ele>
        <time>2019-03-23T14:02:03Z</time>
      </trkpt>
      <trkpt lat="44.36087" lon="5.62153">
        <ele>763</ele>
        <time>2019-03-23T14:02:04Z</time>
      </trkpt>
      <trkpt lat="44.36086" lon="5.62147">
        <ele>763</ele>
        <time>2019-03-23T14:02:05Z</time>
      </trkpt>
      <trkpt lat="44.36084" lon="5.62141">
        <ele>763</ele>
        <time>2019-03-23T14:02:06Z</time>
      </trkpt>
      <trkpt lat="44.36082" lon="5.62135">
        <ele>763</ele>
        <time>2019-03-23T14:02:07Z</time>
      </trkpt>
      <trkpt lat="44.3608" lon="5.62129">
        <ele>764</ele>
        <time>2019-03-23T14:02:08Z</time>
      </trkpt>
      <trkpt lat="44.36077" lon="5.62123">
        <ele>764</ele>
        <time>2019-03-23T14:02:09Z</time>
      </trkpt>
      <trkpt lat="44.36075" lon="5.62117">
        <ele>764</ele>
        <time>2019-03-23T14:02:10Z</time>
      </trkpt>
      <trkpt lat="44.36073" lon="5.62112">
        <ele>764</ele>
        <time>2019-03-23T14:02:11Z</time>
      </trkpt>
      <trkpt lat="44.36071" lon="5.62106">
        <ele>764</ele>
        <time>2019-03-23T14:02:12Z</time>
      </trkpt>
      <trkpt lat="44.36069" lon="5.621">
        <ele>764</ele>
        <time>2019-03-23T14:02:13Z</time>
      </trkpt>
      <trkpt lat="44.36066" lon="5.62094">
        <ele>764</ele>
        <time>2019-03-23T14:02:14Z</time>
      </trkpt>
      <trkpt lat="44.36064" lon="5.62088">
        <ele>764</ele>
        <time>2019-03-23T14:02:15Z</time>
      </trkpt>
      <trkpt lat="44.36061" lon="5.62082">
        <ele>764</ele>
        <time>2019-03-23T14:02:16Z</time>
      </trkpt>
      <trkpt lat="44.36058" lon="5.62077">
        <ele>764</ele>
        <time>2019-03-23T14:02:17Z</time>
      </trkpt>
      <trkpt lat="44.36056" lon="5.62071">
        <ele>764</ele>
        <time>2019-03-23T14:02:18Z</time>
      </trkpt>
      <trkpt lat="44.36053" lon="5.62065">
        <ele>764</ele>
        <time>2019-03-23T14:02:19Z</time>
      </trkpt>
      <trkpt lat="44.3605" lon="5.62059">
        <ele>764</ele>
        <time>2019-03-23T14:02:20Z</time>
      </trkpt>
      <trkpt lat="44.36048" lon="5.62054">
        <ele>764</ele>
        <time>2019-03-23T14:02:21Z</time>
      </trkpt>
      <trkpt lat="44.36045" lon="5.62048">
        <ele>764</ele>
        <time>2019-03-23T14:02:22Z</time>
      </trkpt>
      <trkpt lat="44.36043" lon="5.62042">
        <ele>764</ele>
        <time>2019-03-23T14:02:23Z</time>
      </trkpt>
      <trkpt lat="44.3604" lon="5.62037">
        <ele>764</ele>
        <time>2019-03-23T14:02:24Z</time>
      </trkpt>
      <trkpt lat="44.36036" lon="5.62031">
        <ele>764</ele>
        <time>2019-03-23T14:02:25Z</time>
      </trkpt>
      <trkpt lat="44.36033" lon="5.62025">
        <ele>764</ele>
        <time>2019-03-23T14:02:26Z</time>
      </trkpt>
      <trkpt lat="44.3603" lon="5.62019">
        <ele>764</ele>
        <time>2019-03-23T14:02:27Z</time>
      </trkpt>
      <trkpt lat="44.36028" lon="5.62013">
        <ele>764</ele>
        <time>2019-03-23T14:02:28Z</time>
      </trkpt>
      <trkpt lat="44.36026" lon="5.62008">
        <ele>764</ele>
        <time>2019-03-23T14:02:29Z</time>
      </trkpt>
      <trkpt lat="44.36022" lon="5.62002">
        <ele>764</ele>
        <time>2019-03-23T14:02:30Z</time>
      </trkpt>
      <trkpt lat="44.3602" lon="5.61996">
        <ele>764</ele>
        <time>2019-03-23T14:02:31Z</time>
      </trkpt>
      <trkpt lat="44.36017" lon="5.6199">
        <ele>764</ele>
        <time>2019-03-23T14:02:32Z</time>
      </trkpt>
      <trkpt lat="44.36015" lon="5.61984">
        <ele>764</ele>
        <time>2019-03-23T14:02:33Z</time>
      </trkpt>
      <trkpt lat="44.36012" lon="5.61978">
        <ele>764</ele>
        <time>2019-03-23T14:02:34Z</time>
      </trkpt>
      <trkpt lat="44.3601" lon="5.61972">
        <ele>764</ele>
        <time>2019-03-23T14:02:35Z</time>
      </trkpt>
      <trkpt lat="44.36008" lon="5.61966">
        <ele>764</ele>
        <time>2019-03-23T14:02:36Z</time>
      </trkpt>
      <trkpt lat="44.36007" lon="5.61959">
        <ele>764</ele>
        <time>2019-03-23T14:02:37Z</time>
      </trkpt>
      <trkpt lat="44.36005" lon="5.61953">
        <ele>764</ele>
        <time>2019-03-23T14:02:38Z</time>
      </trkpt>
      <trkpt lat="44.36004" lon="5.61947">
        <ele>764</ele>
        <time>2019-03-23T14:02:39Z</time>
      </trkpt>
      <trkpt lat="44.36002" lon="5.6194">
        <ele>764</ele>
        <time>2019-03-23T14:02:40Z</time>
      </trkpt>
      <trkpt lat="44.36" lon="5.61934">
        <ele>764</ele>
        <time>2019-03-23T14:02:41Z</time>
      </trkpt>
      <trkpt lat="44.35999" lon="5.61927">
        <ele>764</ele>
        <time>2019-03-23T14:02:42Z</time>
      </trkpt>
      <trkpt lat="44.35997" lon="5.61921">
        <ele>764</ele>
        <time>2019-03-23T14:02:43Z</time>
      </trkpt>
      <trkpt lat="44.35996" lon="5.61914">
        <ele>764</ele>
        <time>2019-03-23T14:02:44Z</time>
      </trkpt>
      <trkpt lat="44.35995" lon="5.61908">
        <ele>764</ele>
        <time>2019-03-23T14:02:45Z</time>
      </trkpt>
      <trkpt lat="44.35993" lon="5.61902">
        <ele>764</ele>
        <time>2019-03-23T14:02:46Z</time>
      </trkpt>
      <trkpt lat="44.35992" lon="5.61895">
        <ele>764</ele>
        <time>2019-03-23T14:02:47Z</time>
      </trkpt>
      <trkpt lat="44.35991" lon="5.61889">
        <ele>765</ele>
        <time>2019-03-23T14:02:48Z</time>
      </trkpt>
      <trkpt lat="44.35989" lon="5.61882">
        <ele>765</ele>
        <time>2019-03-23T14:02:49Z</time>
      </trkpt>
      <trkpt lat="44.35988" lon="5.61876">
        <ele>765</ele>
        <time>2019-03-23T14:02:50Z</time>
      </trkpt>
      <trkpt lat="44.35986" lon="5.61869">
        <ele>765</ele>
        <time>2019-03-23T14:02:51Z</time>
      </trkpt>
      <trkpt lat="44.35985" lon="5.61863">
        <ele>765</ele>
        <time>2019-03-23T14:02:52Z</time>
      </trkpt>
      <trkpt lat="44.35983" lon="5.61856">
        <ele>765</ele>
        <time>2019-03-23T14:02:53Z</time>
      </trkpt>
      <trkpt lat="44.35982" lon="5.61849">
        <ele>765</ele>
        <time>2019-03-23T14:02:54Z</time>
      </trkpt>
      <trkpt lat="44.35981" lon="5.61842">
        <ele>766</ele>
        <time>2019-03-23T14:02:55Z</time>
      </trkpt>
      <trkpt lat="44.35979" lon="5.61836">
        <ele>766</ele>
        <time>2019-03-23T14:02:56Z</time>
      </trkpt>
      <trkpt lat="44.35978" lon="5.61829">
        <ele>766</ele>
        <time>2019-03-23T14:02:57Z</time>
      </trkpt>
      <trkpt lat="44.35977" lon="5.61822">
        <ele>766</ele>
        <time>2019-03-23T14:02:58Z</time>
      </trkpt>
      <trkpt lat="44.35976" lon="5.61815">
        <ele>766</ele>
        <time>2019-03-23T14:02:59Z</time>
      </trkpt>
      <trkpt lat="44.35975" lon="5.61808">
        <ele>766</ele>
        <time>2019-03-23T14:03:00Z</time>
      </trkpt>
      <trkpt lat="44.35974" lon="5.61801">
        <ele>766</ele>
        <time>2019-03-23T14:03:01Z</time>
      </trkpt>
      <trkpt lat="44.35973" lon="5.61793">
        <ele>766</ele>
        <time>2019-03-23T14:03:02Z</time>
      </trkpt>
      <trkpt lat="44.35973" lon="5.61786">
        <ele>766</ele>
        <time>2019-03-23T14:03:03Z</time>
      </trkpt>
      <trkpt lat="44.35973" lon="5.61779">
        <ele>766</ele>
        <time>2019-03-23T14:03:04Z</time>
      </trkpt>
      <trkpt lat="44.35973" lon="5.61772">
        <ele>766</ele>
        <time>2019-03-23T14:03:05Z</time>
      </trkpt>
      <trkpt lat="44.35973" lon="5.61765">
        <ele>766</ele>
        <time>2019-03-23T14:03:06Z</time>
      </trkpt>
      <trkpt lat="44.35973" lon="5.61758">
        <ele>766</ele>
        <time>2019-03-23T14:03:07Z</time>
      </trkpt>
      <trkpt lat="44.35974" lon="5.61751">
        <ele>766</ele>
        <time>2019-03-23T14:03:08Z</time>
      </trkpt>
      <trkpt lat="44.35975" lon="5.61744">
        <ele>766</ele>
        <time>2019-03-23T14:03:09Z</time>
      </trkpt>
      <trkpt lat="44.35975" lon="5.61737">
        <ele>766</ele>
        <time>2019-03-23T14:03:10Z</time>
      </trkpt>
      <trkpt lat="44.35976" lon="5.6173">
        <ele>766</ele>
        <time>2019-03-23T14:03:11Z</time>
      </trkpt>
      <trkpt lat="44.35977" lon="5.61724">
        <ele>766</ele>
        <time>2019-03-23T14:03:12Z</time>
      </trkpt>
      <trkpt lat="44.35978" lon="5.61717">
        <ele>766</ele>
        <time>2019-03-23T14:03:13Z</time>
      </trkpt>
      <trkpt lat="44.35979" lon="5.6171">
        <ele>766</ele>
        <time>2019-03-23T14:03:14Z</time>
      </trkpt>
      <trkpt lat="44.35981" lon="5.61703">
        <ele>766</ele>
        <time>2019-03-23T14:03:15Z</time>
      </trkpt>
      <trkpt lat="44.35982" lon="5.61696">
        <ele>766</ele>
        <time>2019-03-23T14:03:16Z</time>
      </trkpt>
      <trkpt lat="44.35983" lon="5.61689">
        <ele>766</ele>
        <time>2019-03-23T14:03:17Z</time>
      </trkpt>
      <trkpt lat="44.35985" lon="5.61682">
        <ele>766</ele>
        <time>2019-03-23T14:03:18Z</time>
      </trkpt>
      <trkpt lat="44.35986" lon="5.61675">
        <ele>766</ele>
        <time>2019-03-23T14:03:19Z</time>
      </trkpt>
      <trkpt lat="44.35988" lon="5.61668">
        <ele>766</ele>
        <time>2019-03-23T14:03:20Z</time>
      </trkpt>
      <trkpt lat="44.35989" lon="5.61661">
        <ele>766</ele>
        <time>2019-03-23T14:03:21Z</time>
      </trkpt>
      <trkpt lat="44.35991" lon="5.61654">
        <ele>766</ele>
        <time>2019-03-23T14:03:22Z</time>
      </trkpt>
      <trkpt lat="44.35992" lon="5.61647">
        <ele>766</ele>
        <time>2019-03-23T14:03:23Z</time>
      </trkpt>
      <trkpt lat="44.35993" lon="5.61639">
        <ele>766</ele>
        <time>2019-03-23T14:03:24Z</time>
      </trkpt>
      <trkpt lat="44.35994" lon="5.61632">
        <ele>766</ele>
        <time>2019-03-23T14:03:25Z</time>
      </trkpt>
      <trkpt lat="44.35995" lon="5.61625">
        <ele>766</ele>
        <time>2019-03-23T14:03:26Z</time>
      </trkpt>
      <trkpt lat="44.35996" lon="5.61618">
        <ele>766</ele>
        <time>2019-03-23T14:03:27Z</time>
      </trkpt>
      <trkpt lat="44.35997" lon="5.61611">
        <ele>766</ele>
        <time>2019-03-23T14:03:28Z</time>
      </trkpt>
      <trkpt lat="44.35997" lon="5.61604">
        <ele>766</ele>
        <time>2019-03-23T14:03:29Z</time>
      </trkpt>
      <trkpt lat="44.35998" lon="5.61597">
        <ele>766</ele>
        <time>2019-03-23T14:03:30Z</time>
      </trkpt>
      <trkpt lat="44.35999" lon="5.6159">
        <ele>766</ele>
        <time>2019-03-23T14:03:31Z</time>
      </trkpt>
      <trkpt lat="44.35999" lon="5.61584">
        <ele>766</ele>
        <time>2019-03-23T14:03:32Z</time>
      </trkpt>
      <trkpt lat="44.36" lon="5.61576">
        <ele>766</ele>
        <time>2019-03-23T14:03:33Z</time>
      </trkpt>
      <trkpt lat="44.36" lon="5.61569">
        <ele>766</ele>
        <time>2019-03-23T14:03:34Z</time>
      </trkpt>
      <trkpt lat="44.36001" lon="5.61562">
        <ele>766</ele>
        <time>2019-03-23T14:03:35Z</time>
      </trkpt>
      <trkpt lat="44.36002" lon="5.61555">
        <ele>766</ele>
        <time>2019-03-23T14:03:36Z</time>
      </trkpt>
      <trkpt lat="44.36002" lon="5.61548">
        <ele>766</ele>
        <time>2019-03-23T14:03:37Z</time>
      </trkpt>
      <trkpt lat="44.36003" lon="5.61541">
        <ele>766</ele>
        <time>2019-03-23T14:03:38Z</time>
      </trkpt>
      <trkpt lat="44.36004" lon="5.61534">
        <ele>766</ele>
        <time>2019-03-23T14:03:39Z</time>
      </trkpt>
      <trkpt lat="44.36005" lon="5.61527">
        <ele>766</ele>
        <time>2019-03-23T14:03:40Z</time>
      </trkpt>
      <trkpt lat="44.36006" lon="5.6152">
        <ele>766</ele>
        <time>2019-03-23T14:03:41Z</time>
      </trkpt>
      <trkpt lat="44.36006" lon="5.61513">
        <ele>766</ele>
        <time>2019-03-23T14:03:42Z</time>
      </trkpt>
      <trkpt lat="44.36006" lon="5.61505">
        <ele>766</ele>
        <time>2019-03-23T14:03:43Z</time>
      </trkpt>
      <trkpt lat="44.36007" lon="5.61498">
        <ele>766</ele>
        <time>2019-03-23T14:03:44Z</time>
      </trkpt>
      <trkpt lat="44.36006" lon="5.6149">
        <ele>766</ele>
        <time>2019-03-23T14:03:45Z</time>
      </trkpt>
      <trkpt lat="44.36006" lon="5.61482">
        <ele>766</ele>
        <time>2019-03-23T14:03:46Z</time>
      </trkpt>
      <trkpt lat="44.36005" lon="5.61475">
        <ele>766</ele>
        <time>2019-03-23T14:03:47Z</time>
      </trkpt>
      <trkpt lat="44.36003" lon="5.61468">
        <ele>766</ele>
        <time>2019-03-23T14:03:48Z</time>
      </trkpt>
      <trkpt lat="44.36002" lon="5.6146">
        <ele>766</ele>
        <time>2019-03-23T14:03:49Z</time>
      </trkpt>
      <trkpt lat="44.36" lon="5.61453">
        <ele>766</ele>
        <time>2019-03-23T14:03:50Z</time>
      </trkpt>
      <trkpt lat="44.35998" lon="5.61446">
        <ele>766</ele>
        <time>2019-03-23T14:03:51Z</time>
      </trkpt>
      <trkpt lat="44.35997" lon="5.61439">
        <ele>766</ele>
        <time>2019-03-23T14:03:52Z</time>
      </trkpt>
      <trkpt lat="44.35995" lon="5.61432">
        <ele>766</ele>
        <time>2019-03-23T14:03:53Z</time>
      </trkpt>
      <trkpt lat="44.35992" lon="5.61425">
        <ele>767</ele>
        <time>2019-03-23T14:03:54Z</time>
      </trkpt>
      <trkpt lat="44.3599" lon="5.61419">
        <ele>767</ele>
        <time>2019-03-23T14:03:55Z</time>
      </trkpt>
      <trkpt lat="44.35988" lon="5.61412">
        <ele>767</ele>
        <time>2019-03-23T14:03:56Z</time>
      </trkpt>
      <trkpt lat="44.35986" lon="5.61406">
        <ele>767</ele>
        <time>2019-03-23T14:03:57Z</time>
      </trkpt>
      <trkpt lat="44.35983" lon="5.614">
        <ele>767</ele>
        <time>2019-03-23T14:03:58Z</time>
      </trkpt>
      <trkpt lat="44.35981" lon="5.61393">
        <ele>767</ele>
        <time>2019-03-23T14:03:59Z</time>
      </trkpt>
      <trkpt lat="44.35978" lon="5.61387">
        <ele>767</ele>
        <time>2019-03-23T14:04:00Z</time>
      </trkpt>
      <trkpt lat="44.35975" lon="5.61381">
        <ele>767</ele>
        <time>2019-03-23T14:04:01Z</time>
      </trkpt>
      <trkpt lat="44.35972" lon="5.61376">
        <ele>767</ele>
        <time>2019-03-23T14:04:02Z</time>
      </trkpt>
      <trkpt lat="44.35969" lon="5.61371">
        <ele>767</ele>
        <time>2019-03-23T14:04:03Z</time>
      </trkpt>
      <trkpt lat="44.35965" lon="5.61366">
        <ele>767</ele>
        <time>2019-03-23T14:04:04Z</time>
      </trkpt>
      <trkpt lat="44.35961" lon="5.61361">
        <ele>767</ele>
        <time>2019-03-23T14:04:05Z</time>
      </trkpt>
      <trkpt lat="44.35957" lon="5.61357">
        <ele>767</ele>
        <time>2019-03-23T14:04:06Z</time>
      </trkpt>
      <trkpt lat="44.35953" lon="5.61353">
        <ele>767</ele>
        <time>2019-03-23T14:04:07Z</time>
      </trkpt>
      <trkpt lat="44.35949" lon="5.61349">
        <ele>767</ele>
        <time>2019-03-23T14:04:08Z</time>
      </trkpt>
      <trkpt lat="44.35945" lon="5.61346">
        <ele>767</ele>
        <time>2019-03-23T14:04:09Z</time>
      </trkpt>
      <trkpt lat="44.35941" lon="5.61342">
        <ele>767</ele>
        <time>2019-03-23T14:04:10Z</time>
      </trkpt>
      <trkpt lat="44.35937" lon="5.61338">
        <ele>767</ele>
        <time>2019-03-23T14:04:11Z</time>
      </trkpt>
      <trkpt lat="44.35933" lon="5.61334">
        <ele>767</ele>
        <time>2019-03-23T14:04:12Z</time>
      </trkpt>
      <trkpt lat="44.3593" lon="5.61329">
        <ele>767</ele>
        <time>2019-03-23T14:04:13Z</time>
      </trkpt>
      <trkpt lat="44.35927" lon="5.61324">
        <ele>767</ele>
        <time>2019-03-23T14:04:14Z</time>
      </trkpt>
      <trkpt lat="44.35925" lon="5.61319">
        <ele>767</ele>
        <time>2019-03-23T14:04:15Z</time>
      </trkpt>
      <trkpt lat="44.35922" lon="5.61314">
        <ele>767</ele>
        <time>2019-03-23T14:04:16Z</time>
      </trkpt>
      <trkpt lat="44.3592" lon="5.61309">
        <ele>767</ele>
        <time>2019-03-23T14:04:17Z</time>
      </trkpt>
      <trkpt lat="44.35919" lon="5.61303">
        <ele>768</ele>
        <time>2019-03-23T14:04:18Z</time>
      </trkpt>
      <trkpt lat="44.35918" lon="5.61297">
        <ele>768</ele>
        <time>2019-03-23T14:04:19Z</time>
      </trkpt>
      <trkpt lat="44.35918" lon="5.61292">
        <ele>769</ele>
        <time>2019-03-23T14:04:20Z</time>
      </trkpt>
      <trkpt lat="44.35918" lon="5.61286">
        <ele>769</ele>
        <time>2019-03-23T14:04:21Z</time>
      </trkpt>
      <trkpt lat="44.35919" lon="5.6128">
        <ele>769</ele>
        <time>2019-03-23T14:04:22Z</time>
      </trkpt>
      <trkpt lat="44.3592" lon="5.61274">
        <ele>769</ele>
        <time>2019-03-23T14:04:23Z</time>
      </trkpt>
      <trkpt lat="44.3592" lon="5.61268">
        <ele>769</ele>
        <time>2019-03-23T14:04:24Z</time>
      </trkpt>
      <trkpt lat="44.35921" lon="5.61261">
        <ele>770</ele>
        <time>2019-03-23T14:04:25Z</time>
      </trkpt>
      <trkpt lat="44.35923" lon="5.61255">
        <ele>770</ele>
        <time>2019-03-23T14:04:26Z</time>
      </trkpt>
      <trkpt lat="44.35923" lon="5.61249">
        <ele>771</ele>
        <time>2019-03-23T14:04:27Z</time>
      </trkpt>
      <trkpt lat="44.35924" lon="5.61242">
        <ele>771</ele>
        <time>2019-03-23T14:04:28Z</time>
      </trkpt>
      <trkpt lat="44.35925" lon="5.61236">
        <ele>772</ele>
        <time>2019-03-23T14:04:29Z</time>
      </trkpt>
      <trkpt lat="44.35925" lon="5.6123">
        <ele>772</ele>
        <time>2019-03-23T14:04:30Z</time>
      </trkpt>
      <trkpt lat="44.35924" lon="5.61223">
        <ele>773</ele>
        <time>2019-03-23T14:04:31Z</time>
      </trkpt>
      <trkpt lat="44.35923" lon="5.61217">
        <ele>773</ele>
        <time>2019-03-23T14:04:32Z</time>
      </trkpt>
      <trkpt lat="44.35922" lon="5.6121">
        <ele>773</ele>
        <time>2019-03-23T14:04:33Z</time>
      </trkpt>
      <trkpt lat="44.3592" lon="5.61203">
        <ele>773</ele>
        <time>2019-03-23T14:04:34Z</time>
      </trkpt>
      <trkpt lat="44.35919" lon="5.61196">
        <ele>773</ele>
        <time>2019-03-23T14:04:35Z</time>
      </trkpt>
      <trkpt lat="44.35917" lon="5.61189">
        <ele>774</ele>
        <time>2019-03-23T14:04:36Z</time>
      </trkpt>
      <trkpt lat="44.35915" lon="5.61182">
        <ele>774</ele>
        <time>2019-03-23T14:04:37Z</time>
      </trkpt>
      <trkpt lat="44.35914" lon="5.61175">
        <ele>774</ele>
        <time>2019-03-23T14:04:38Z</time>
      </trkpt>
      <trkpt lat="44.35912" lon="5.61168">
        <ele>775</ele>
        <time>2019-03-23T14:04:39Z</time>
      </trkpt>
      <trkpt lat="44.3591" lon="5.61162">
        <ele>775</ele>
        <time>2019-03-23T14:04:40Z</time>
      </trkpt>
      <trkpt lat="44.35909" lon="5.61155">
        <ele>776</ele>
        <time>2019-03-23T14:04:41Z</time>
      </trkpt>
      <trkpt lat="44.35907" lon="5.61149">
        <ele>776</ele>
        <time>2019-03-23T14:04:42Z</time>
      </trkpt>
      <trkpt lat="44.35906" lon="5.61142">
        <ele>777</ele>
        <time>2019-03-23T14:04:43Z</time>
      </trkpt>
      <trkpt lat="44.35904" lon="5.61136">
        <ele>777</ele>
        <time>2019-03-23T14:04:44Z</time>
      </trkpt>
      <trkpt lat="44.35903" lon="5.6113">
        <ele>777</ele>
        <time>2019-03-23T14:04:45Z</time>
      </trkpt>
      <trkpt lat="44.35902" lon="5.61124">
        <ele>778</ele>
        <time>2019-03-23T14:04:46Z</time>
      </trkpt>
      <trkpt lat="44.359" lon="5.61118">
        <ele>778</ele>
        <time>2019-03-23T14:04:47Z</time>
      </trkpt>
      <trkpt lat="44.35899" lon="5.61111">
        <ele>778</ele>
        <time>2019-03-23T14:04:48Z</time>
      </trkpt>
      <trkpt lat="44.35897" lon="5.61105">
        <ele>778</ele>
        <time>2019-03-23T14:04:49Z</time>
      </trkpt>
      <trkpt lat="44.35896" lon="5.61098">
        <ele>779</ele>
        <time>2019-03-23T14:04:50Z</time>
      </trkpt>
      <trkpt lat="44.35894" lon="5.61092">
        <ele>779</ele>
        <time>2019-03-23T14:04:51Z</time>
      </trkpt>
      <trkpt lat="44.35893" lon="5.61085">
        <ele>779</ele>
        <time>2019-03-23T14:04:52Z</time>
      </trkpt>
      <trkpt lat="44.35892" lon="5.61079">
        <ele>779</ele>
        <time>2019-03-23T14:04:53Z</time>
      </trkpt>
      <trkpt lat="44.35891" lon="5.61071">
        <ele>779</ele>
        <time>2019-03-23T14:04:54Z</time>
      </trkpt>
      <trkpt lat="44.35891" lon="5.61064">
        <ele>779</ele>
        <time>2019-03-23T14:04:55Z</time>
      </trkpt>
      <trkpt lat="44.35889" lon="5.61057">
        <ele>779</ele>
        <time>2019-03-23T14:04:56Z</time>
      </trkpt>
      <trkpt lat="44.35889" lon="5.6105">
        <ele>779</ele>
        <time>2019-03-23T14:04:57Z</time>
      </trkpt>
      <trkpt lat="44.35888" lon="5.61042">
        <ele>780</ele>
        <time>2019-03-23T14:04:58Z</time>
      </trkpt>
      <trkpt lat="44.35887" lon="5.61034">
        <ele>780</ele>
        <time>2019-03-23T14:04:59Z</time>
      </trkpt>
      <trkpt lat="44.35886" lon="5.61027">
        <ele>780</ele>
        <time>2019-03-23T14:05:00Z</time>
      </trkpt>
      <trkpt lat="44.35885" lon="5.61019">
        <ele>780</ele>
        <time>2019-03-23T14:05:01Z</time>
      </trkpt>
      <trkpt lat="44.35884" lon="5.61011">
        <ele>780</ele>
        <time>2019-03-23T14:05:02Z</time>
      </trkpt>
      <trkpt lat="44.35883" lon="5.61003">
        <ele>780</ele>
        <time>2019-03-23T14:05:03Z</time>
      </trkpt>
      <trkpt lat="44.35883" lon="5.60995">
        <ele>780</ele>
        <time>2019-03-23T14:05:04Z</time>
      </trkpt>
      <trkpt lat="44.35882" lon="5.60988">
        <ele>780</ele>
        <time>2019-03-23T14:05:05Z</time>
      </trkpt>
      <trkpt lat="44.35881" lon="5.6098">
        <ele>780</ele>
        <time>2019-03-23T14:05:06Z</time>
      </trkpt>
      <trkpt lat="44.3588" lon="5.60972">
        <ele>780</ele>
        <time>2019-03-23T14:05:07Z</time>
      </trkpt>
      <trkpt lat="44.35881" lon="5.60963">
        <ele>781</ele>
        <time>2019-03-23T14:05:08Z</time>
      </trkpt>
      <trkpt lat="44.35882" lon="5.60955">
        <ele>781</ele>
        <time>2019-03-23T14:05:09Z</time>
      </trkpt>
      <trkpt lat="44.35883" lon="5.60947">
        <ele>781</ele>
        <time>2019-03-23T14:05:10Z</time>
      </trkpt>
      <trkpt lat="44.35884" lon="5.60939">
        <ele>781</ele>
        <time>2019-03-23T14:05:11Z</time>
      </trkpt>
      <trkpt lat="44.35884" lon="5.60931">
        <ele>781</ele>
        <time>2019-03-23T14:05:12Z</time>
      </trkpt>
      <trkpt lat="44.35884" lon="5.60923">
        <ele>781</ele>
        <time>2019-03-23T14:05:13Z</time>
      </trkpt>
      <trkpt lat="44.35885" lon="5.60914">
        <ele>781</ele>
        <time>2019-03-23T14:05:14Z</time>
      </trkpt>
      <trkpt lat="44.35885" lon="5.60906">
        <ele>781</ele>
        <time>2019-03-23T14:05:15Z</time>
      </trkpt>
      <trkpt lat="44.35886" lon="5.60897">
        <ele>781</ele>
        <time>2019-03-23T14:05:16Z</time>
      </trkpt>
      <trkpt lat="44.35886" lon="5.60888">
        <ele>781</ele>
        <time>2019-03-23T14:05:17Z</time>
      </trkpt>
      <trkpt lat="44.35886" lon="5.6088">
        <ele>781</ele>
        <time>2019-03-23T14:05:18Z</time>
      </trkpt>
      <trkpt lat="44.35886" lon="5.60871">
        <ele>781</ele>
        <time>2019-03-23T14:05:19Z</time>
      </trkpt>
      <trkpt lat="44.35886" lon="5.60863">
        <ele>781</ele>
        <time>2019-03-23T14:05:20Z</time>
      </trkpt>
      <trkpt lat="44.35886" lon="5.60854">
        <ele>781</ele>
        <time>2019-03-23T14:05:21Z</time>
      </trkpt>
      <trkpt lat="44.35886" lon="5.60846">
        <ele>781</ele>
        <time>2019-03-23T14:05:22Z</time>
      </trkpt>
      <trkpt lat="44.35887" lon="5.60837">
        <ele>781</ele>
        <time>2019-03-23T14:05:23Z</time>
      </trkpt>
      <trkpt lat="44.35887" lon="5.60828">
        <ele>781</ele>
        <time>2019-03-23T14:05:24Z</time>
      </trkpt>
      <trkpt lat="44.35888" lon="5.6082">
        <ele>781</ele>
        <time>2019-03-23T14:05:25Z</time>
      </trkpt>
      <trkpt lat="44.35889" lon="5.60811">
        <ele>781</ele>
        <time>2019-03-23T14:05:26Z</time>
      </trkpt>
      <trkpt lat="44.35889" lon="5.60802">
        <ele>781</ele>
        <time>2019-03-23T14:05:27Z</time>
      </trkpt>
      <trkpt lat="44.3589" lon="5.60794">
        <ele>781</ele>
        <time>2019-03-23T14:05:28Z</time>
      </trkpt>
      <trkpt lat="44.35891" lon="5.60785">
        <ele>781</ele>
        <time>2019-03-23T14:05:29Z</time>
      </trkpt>
      <trkpt lat="44.35893" lon="5.60776">
        <ele>781</ele>
        <time>2019-03-23T14:05:30Z</time>
      </trkpt>
      <trkpt lat="44.35895" lon="5.60768">
        <ele>781</ele>
        <time>2019-03-23T14:05:31Z</time>
      </trkpt>
      <trkpt lat="44.35898" lon="5.6076">
        <ele>781</ele>
        <time>2019-03-23T14:05:32Z</time>
      </trkpt>
      <trkpt lat="44.35901" lon="5.60752">
        <ele>781</ele>
        <time>2019-03-23T14:05:33Z</time>
      </trkpt>
      <trkpt lat="44.35904" lon="5.60745">
        <ele>781</ele>
        <time>2019-03-23T14:05:34Z</time>
      </trkpt>
      <trkpt lat="44.35908" lon="5.60739">
        <ele>781</ele>
        <time>2019-03-23T14:05:35Z</time>
      </trkpt>
      <trkpt lat="44.35912" lon="5.60734">
        <ele>781</ele>
        <time>2019-03-23T14:05:36Z</time>
      </trkpt>
      <trkpt lat="44.35917" lon="5.60728">
        <ele>781</ele>
        <time>2019-03-23T14:05:37Z</time>
      </trkpt>
      <trkpt lat="44.35921" lon="5.60722">
        <ele>781</ele>
        <time>2019-03-23T14:05:38Z</time>
      </trkpt>
      <trkpt lat="44.35926" lon="5.60717">
        <ele>781</ele>
        <time>2019-03-23T14:05:39Z</time>
      </trkpt>
      <trkpt lat="44.3593" lon="5.6071">
        <ele>781</ele>
        <time>2019-03-23T14:05:40Z</time>
      </trkpt>
      <trkpt lat="44.35934" lon="5.60704">
        <ele>781</ele>
        <time>2019-03-23T14:05:41Z</time>
      </trkpt>
      <trkpt lat="44.35938" lon="5.60698">
        <ele>781</ele>
        <time>2019-03-23T14:05:42Z</time>
      </trkpt>
      <trkpt lat="44.35941" lon="5.60692">
        <ele>781</ele>
        <time>2019-03-23T14:05:43Z</time>
      </trkpt>
      <trkpt lat="44.35945" lon="5.60686">
        <ele>781</ele>
        <time>2019-03-23T14:05:44Z</time>
      </trkpt>
      <trkpt lat="44.35949" lon="5.60679">
        <ele>781</ele>
        <time>2019-03-23T14:05:45Z</time>
      </trkpt>
      <trkpt lat="44.35952" lon="5.60673">
        <ele>781</ele>
        <time>2019-03-23T14:05:46Z</time>
      </trkpt>
      <trkpt lat="44.35956" lon="5.60666">
        <ele>781</ele>
        <time>2019-03-23T14:05:47Z</time>
      </trkpt>
      <trkpt lat="44.35959" lon="5.6066">
        <ele>781</ele>
        <time>2019-03-23T14:05:48Z</time>
      </trkpt>
      <trkpt lat="44.35962" lon="5.60652">
        <ele>781</ele>
        <time>2019-03-23T14:05:49Z</time>
      </trkpt>
      <trkpt lat="44.35965" lon="5.60645">
        <ele>781</ele>
        <time>2019-03-23T14:05:50Z</time>
      </trkpt>
      <trkpt lat="44.35968" lon="5.60638">
        <ele>781</ele>
        <time>2019-03-23T14:05:51Z</time>
      </trkpt>
      <trkpt lat="44.3597" lon="5.60631">
        <ele>781</ele>
        <time>2019-03-23T14:05:52Z</time>
      </trkpt>
      <trkpt lat="44.35972" lon="5.60624">
        <ele>781</ele>
        <time>2019-03-23T14:05:53Z</time>
      </trkpt>
      <trkpt lat="44.35975" lon="5.60616">
        <ele>781</ele>
        <time>2019-03-23T14:05:54Z</time>
      </trkpt>
      <trkpt lat="44.35976" lon="5.60609">
        <ele>781</ele>
        <time>2019-03-23T14:05:55Z</time>
      </trkpt>
      <trkpt lat="44.35978" lon="5.60602">
        <ele>781</ele>
        <time>2019-03-23T14:05:56Z</time>
      </trkpt>
      <trkpt lat="44.35979" lon="5.60595">
        <ele>781</ele>
        <time>2019-03-23T14:05:57Z</time>
      </trkpt>
      <trkpt lat="44.35981" lon="5.60589">
        <ele>781</ele>
        <time>2019-03-23T14:05:58Z</time>
      </trkpt>
      <trkpt lat="44.35984" lon="5.60582">
        <ele>781</ele>
        <time>2019-03-23T14:05:59Z</time>
      </trkpt>
      <trkpt lat="44.35986" lon="5.60576">
        <ele>781</ele>
        <time>2019-03-23T14:06:00Z</time>
      </trkpt>
      <trkpt lat="44.35988" lon="5.60571">
        <ele>781</ele>
        <time>2019-03-23T14:06:01Z</time>
      </trkpt>
      <trkpt lat="44.3599" lon="5.60566">
        <ele>781</ele>
        <time>2019-03-23T14:06:02Z</time>
      </trkpt>
      <trkpt lat="44.35992" lon="5.60561">
        <ele>781</ele>
        <time>2019-03-23T14:06:03Z</time>
      </trkpt>
      <trkpt lat="44.35994" lon="5.60556">
        <ele>781</ele>
        <time>2019-03-23T14:06:04Z</time>
      </trkpt>
      <trkpt lat="44.35995" lon="5.60552">
        <ele>781</ele>
        <time>2019-03-23T14:06:05Z</time>
      </trkpt>
      <trkpt lat="44.35996" lon="5.60547">
        <ele>781</ele>
        <time>2019-03-23T14:06:06Z</time>
      </trkpt>
      <trkpt lat="44.35997" lon="5.60543">
        <ele>781</ele>
        <time>2019-03-23T14:06:07Z</time>
      </trkpt>
      <trkpt lat="44.35998" lon="5.60539">
        <ele>781</ele>
        <time>2019-03-23T14:06:08Z</time>
      </trkpt>
      <trkpt lat="44.35998" lon="5.60537">
        <ele>781</ele>
        <time>2019-03-23T14:06:09Z</time>
      </trkpt>
      <trkpt lat="44.35998" lon="5.60534">
        <ele>781</ele>
        <time>2019-03-23T14:06:10Z</time>
      </trkpt>
      <trkpt lat="44.35998" lon="5.60533">
        <ele>782</ele>
        <time>2019-03-23T14:06:11Z</time>
      </trkpt>
      <trkpt lat="44.35997" lon="5.60531">
        <ele>782</ele>
        <time>2019-03-23T14:06:12Z</time>
      </trkpt>
      <trkpt lat="44.35996" lon="5.60531">
        <ele>782</ele>
        <time>2019-03-23T14:06:16Z</time>
      </trkpt>
      <trkpt lat="44.35995" lon="5.6053">
        <ele>782</ele>
        <time>2019-03-23T14:06:36Z</time>
      </trkpt>
      <trkpt lat="44.35996" lon="5.60529">
        <ele>784</ele>
        <time>2019-03-23T14:06:56Z</time>
      </trkpt>
      <trkpt lat="44.35996" lon="5.60527">
        <ele>786</ele>
        <time>2019-03-23T14:07:07Z</time>
      </trkpt>
      <trkpt lat="44.35997" lon="5.60527">
        <ele>787</ele>
        <time>2019-03-23T14:07:15Z</time>
      </trkpt>
      <trkpt lat="44.35998" lon="5.60529">
        <ele>791</ele>
        <time>2019-03-23T14:07:28Z</time>
      </trkpt>
      <trkpt lat="44.35999" lon="5.6053">
        <ele>793</ele>
        <time>2019-03-23T14:07:37Z</time>
      </trkpt>
      <trkpt lat="44.36001" lon="5.60531">
        <ele>794</ele>
        <time>2019-03-23T14:07:40Z</time>
      </trkpt>
      <trkpt lat="44.35999" lon="5.60531">
        <ele>795</ele>
        <time>2019-03-23T14:08:12Z</time>
      </trkpt>
      <trkpt lat="44.35998" lon="5.6053">
        <ele>795</ele>
        <time>2019-03-23T14:08:20Z</time>
      </trkpt>
      <trkpt lat="44.35997" lon="5.6053">
        <ele>793</ele>
        <time>2019-03-23T14:08:46Z</time>
      </trkpt>
      <trkpt lat="44.35995" lon="5.6053">
        <ele>791</ele>
        <time>2019-03-23T14:08:57Z</time>
      </trkpt>
      <trkpt lat="44.35995" lon="5.60528">
        <ele>787</ele>
        <time>2019-03-23T14:09:42Z</time>
      </trkpt>
      <trkpt lat="44.35994" lon="5.6053">
        <ele>786</ele>
        <time>2019-03-23T14:11:17Z</time>
      </trkpt>
      <trkpt lat="44.35994" lon="5.60528">
        <ele>786</ele>
        <time>2019-03-23T14:11:29Z</time>
      </trkpt>
      <trkpt lat="44.35993" lon="5.60527">
        <ele>786</ele>
        <time>2019-03-23T14:11:42Z</time>
      </trkpt>
      <trkpt lat="44.35994" lon="5.60528">
        <ele>786</ele>
        <time>2019-03-23T14:12:10Z</time>
      </trkpt>
      <trkpt lat="44.35995" lon="5.60529">
        <ele>786</ele>
        <time>2019-03-23T14:12:25Z</time>
      </trkpt>
      <trkpt lat="44.35996" lon="5.60529">
        <ele>786</ele>
        <time>2019-03-23T14:12:34Z</time>
      </trkpt>
      <trkpt lat="44.35997" lon="5.60529">
        <ele>786</ele>
        <time>2019-03-23T14:12:44Z</time>
      </trkpt>
      <trkpt lat="44.35997" lon="5.60527">
        <ele>785</ele>
        <time>2019-03-23T14:13:00Z</time>
      </trkpt>
      <trkpt lat="44.35995" lon="5.60527">
        <ele>785</ele>
        <time>2019-03-23T14:13:06Z</time>
      </trkpt>
      <trkpt lat="44.35995" lon="5.60529">
        <ele>785</ele>
        <time>2019-03-23T14:13:22Z</time>
      </trkpt>
      <trkpt lat="44.35994" lon="5.60529">
        <ele>785</ele>
        <time>2019-03-23T14:13:37Z</time>
      </trkpt>
      <trkpt lat="44.35992" lon="5.60528">
        <ele>785</ele>
        <time>2019-03-23T14:13:39Z</time>
      </trkpt>
      <trkpt lat="44.35991" lon="5.60527">
        <ele>785</ele>
        <time>2019-03-23T14:13:43Z</time>
      </trkpt>
      <trkpt lat="44.3599" lon="5.60527">
        <ele>783</ele>
        <time>2019-03-23T14:13:46Z</time>
      </trkpt>
      <trkpt lat="44.35991" lon="5.60526">
        <ele>781</ele>
        <time>2019-03-23T14:13:56Z</time>
      </trkpt>
      <trkpt lat="44.35992" lon="5.60525">
        <ele>781</ele>
        <time>2019-03-23T14:14:07Z</time>
      </trkpt>
      <trkpt lat="44.35993" lon="5.60526">
        <ele>781</ele>
        <time>2019-03-23T14:14:12Z</time>
      </trkpt>
      <trkpt lat="44.35994" lon="5.60527">
        <ele>782</ele>
        <time>2019-03-23T14:14:16Z</time>
      </trkpt>
      <trkpt lat="44.35996" lon="5.60528">
        <ele>782</ele>
        <time>2019-03-23T14:14:30Z</time>
      </trkpt>
      <trkpt lat="44.35997" lon="5.60528">
        <ele>782</ele>
        <time>2019-03-23T14:14:35Z</time>
      </trkpt>
      <trkpt lat="44.35998" lon="5.60528">
        <ele>782</ele>
        <time>2019-03-23T14:14:37Z</time>
      </trkpt>
      <trkpt lat="44.36" lon="5.60529">
        <ele>782</ele>
        <time>2019-03-23T14:14:48Z</time>
      </trkpt>
      <trkpt lat="44.36001" lon="5.60529">
        <ele>783</ele>
        <time>2019-03-23T14:14:50Z</time>
      </trkpt>
      <trkpt lat="44.36004" lon="5.6053">
        <ele>783</ele>
        <time>2019-03-23T14:14:52Z</time>
      </trkpt>
      <trkpt lat="44.36005" lon="5.6053">
        <ele>784</ele>
        <time>2019-03-23T14:14:53Z</time>
      </trkpt>
      <trkpt lat="44.36007" lon="5.60531">
        <ele>784</ele>
        <time>2019-03-23T14:14:54Z</time>
      </trkpt>
      <trkpt lat="44.36009" lon="5.60531">
        <ele>784</ele>
        <time>2019-03-23T14:14:55Z</time>
      </trkpt>
      <trkpt lat="44.36011" lon="5.60531">
        <ele>784</ele>
        <time>2019-03-23T14:14:56Z</time>
      </trkpt>
      <trkpt lat="44.36013" lon="5.60531">
        <ele>784</ele>
        <time>2019-03-23T14:14:57Z</time>
      </trkpt>
      <trkpt lat="44.36015" lon="5.60532">
        <ele>784</ele>
        <time>2019-03-23T14:14:58Z</time>
      </trkpt>
      <trkpt lat="44.36017" lon="5.60532">
        <ele>784</ele>
        <time>2019-03-23T14:14:59Z</time>
      </trkpt>
      <trkpt lat="44.3602" lon="5.60532">
        <ele>784</ele>
        <time>2019-03-23T14:15:00Z</time>
      </trkpt>
      <trkpt lat="44.36022" lon="5.60533">
        <ele>784</ele>
        <time>2019-03-23T14:15:01Z</time>
      </trkpt>
      <trkpt lat="44.36024" lon="5.60533">
        <ele>784</ele>
        <time>2019-03-23T14:15:02Z</time>
      </trkpt>
      <trkpt lat="44.36027" lon="5.60534">
        <ele>784</ele>
        <time>2019-03-23T14:15:03Z</time>
      </trkpt>
      <trkpt lat="44.3603" lon="5.60534">
        <ele>784</ele>
        <time>2019-03-23T14:15:04Z</time>
      </trkpt>
      <trkpt lat="44.36033" lon="5.60534">
        <ele>784</ele>
        <time>2019-03-23T14:15:05Z</time>
      </trkpt>
      <trkpt lat="44.36036" lon="5.60535">
        <ele>784</ele>
        <time>2019-03-23T14:15:06Z</time>
      </trkpt>
      <trkpt lat="44.36039" lon="5.60536">
        <ele>784</ele>
        <time>2019-03-23T14:15:07Z</time>
      </trkpt>
      <trkpt lat="44.36042" lon="5.60537">
        <ele>784</ele>
        <time>2019-03-23T14:15:08Z</time>
      </trkpt>
      <trkpt lat="44.36045" lon="5.60537">
        <ele>784</ele>
        <time>2019-03-23T14:15:09Z</time>
      </trkpt>
      <trkpt lat="44.36048" lon="5.60539">
        <ele>784</ele>
        <time>2019-03-23T14:15:10Z</time>
      </trkpt>
      <trkpt lat="44.36051" lon="5.6054">
        <ele>784</ele>
        <time>2019-03-23T14:15:11Z</time>
      </trkpt>
      <trkpt lat="44.36054" lon="5.60542">
        <ele>784</ele>
        <time>2019-03-23T14:15:12Z</time>
      </trkpt>
      <trkpt lat="44.36057" lon="5.60543">
        <ele>784</ele>
        <time>2019-03-23T14:15:13Z</time>
      </trkpt>
      <trkpt lat="44.3606" lon="5.60544">
        <ele>784</ele>
        <time>2019-03-23T14:15:14Z</time>
      </trkpt>
      <trkpt lat="44.36063" lon="5.60546">
        <ele>784</ele>
        <time>2019-03-23T14:15:15Z</time>
      </trkpt>
      <trkpt lat="44.36066" lon="5.60547">
        <ele>784</ele>
        <time>2019-03-23T14:15:16Z</time>
      </trkpt>
      <trkpt lat="44.36069" lon="5.60549">
        <ele>784</ele>
        <time>2019-03-23T14:15:17Z</time>
      </trkpt>
      <trkpt lat="44.36072" lon="5.60551">
        <ele>784</ele>
        <time>2019-03-23T14:15:18Z</time>
      </trkpt>
      <trkpt lat="44.36076" lon="5.60552">
        <ele>784</ele>
        <time>2019-03-23T14:15:19Z</time>
      </trkpt>
      <trkpt lat="44.36079" lon="5.60554">
        <ele>784</ele>
        <time>2019-03-23T14:15:20Z</time>
      </trkpt>
      <trkpt lat="44.36082" lon="5.60556">
        <ele>784</ele>
        <time>2019-03-23T14:15:21Z</time>
      </trkpt>
      <trkpt lat="44.36086" lon="5.60557">
        <ele>784</ele>
        <time>2019-03-23T14:15:22Z</time>
      </trkpt>
      <trkpt lat="44.36089" lon="5.60559">
        <ele>784</ele>
        <time>2019-03-23T14:15:23Z</time>
      </trkpt>
      <trkpt lat="44.36092" lon="5.60561">
        <ele>784</ele>
        <time>2019-03-23T14:15:24Z</time>
      </trkpt>
      <trkpt lat="44.36096" lon="5.60563">
        <ele>784</ele>
        <time>2019-03-23T14:15:25Z</time>
      </trkpt>
      <trkpt lat="44.36099" lon="5.60565">
        <ele>784</ele>
        <time>2019-03-23T14:15:26Z</time>
      </trkpt>
      <trkpt lat="44.36102" lon="5.60567">
        <ele>784</ele>
        <time>2019-03-23T14:15:27Z</time>
      </trkpt>
      <trkpt lat="44.36105" lon="5.60569">
        <ele>784</ele>
        <time>2019-03-23T14:15:28Z</time>
      </trkpt>
      <trkpt lat="44.36108" lon="5.6057">
        <ele>784</ele>
        <time>2019-03-23T14:15:29Z</time>
      </trkpt>
      <trkpt lat="44.36111" lon="5.60572">
        <ele>784</ele>
        <time>2019-03-23T14:15:30Z</time>
      </trkpt>
      <trkpt lat="44.36114" lon="5.60574">
        <ele>784</ele>
        <time>2019-03-23T14:15:31Z</time>
      </trkpt>
      <trkpt lat="44.36118" lon="5.60576">
        <ele>784</ele>
        <time>2019-03-23T14:15:32Z</time>
      </trkpt>
      <trkpt lat="44.36121" lon="5.60577">
        <ele>784</ele>
        <time>2019-03-23T14:15:33Z</time>
      </trkpt>
      <trkpt lat="44.36124" lon="5.60579">
        <ele>785</ele>
        <time>2019-03-23T14:15:34Z</time>
      </trkpt>
      <trkpt lat="44.36128" lon="5.6058">
        <ele>785</ele>
        <time>2019-03-23T14:15:35Z</time>
      </trkpt>
      <trkpt lat="44.36131" lon="5.60582">
        <ele>785</ele>
        <time>2019-03-23T14:15:36Z</time>
      </trkpt>
      <trkpt lat="44.36134" lon="5.60583">
        <ele>786</ele>
        <time>2019-03-23T14:15:37Z</time>
      </trkpt>
      <trkpt lat="44.36137" lon="5.60584">
        <ele>786</ele>
        <time>2019-03-23T14:15:38Z</time>
      </trkpt>
      <trkpt lat="44.3614" lon="5.60586">
        <ele>786</ele>
        <time>2019-03-23T14:15:39Z</time>
      </trkpt>
      <trkpt lat="44.36143" lon="5.60587">
        <ele>786</ele>
        <time>2019-03-23T14:15:40Z</time>
      </trkpt>
      <trkpt lat="44.36147" lon="5.60589">
        <ele>787</ele>
        <time>2019-03-23T14:15:41Z</time>
      </trkpt>
      <trkpt lat="44.3615" lon="5.6059">
        <ele>787</ele>
        <time>2019-03-23T14:15:42Z</time>
      </trkpt>
      <trkpt lat="44.36153" lon="5.60591">
        <ele>787</ele>
        <time>2019-03-23T14:15:43Z</time>
      </trkpt>
      <trkpt lat="44.36156" lon="5.60592">
        <ele>787</ele>
        <time>2019-03-23T14:15:44Z</time>
      </trkpt>
      <trkpt lat="44.36159" lon="5.60593">
        <ele>788</ele>
        <time>2019-03-23T14:15:45Z</time>
      </trkpt>
      <trkpt lat="44.36162" lon="5.60594">
        <ele>788</ele>
        <time>2019-03-23T14:15:46Z</time>
      </trkpt>
      <trkpt lat="44.36166" lon="5.60595">
        <ele>788</ele>
        <time>2019-03-23T14:15:47Z</time>
      </trkpt>
      <trkpt lat="44.36169" lon="5.60596">
        <ele>788</ele>
        <time>2019-03-23T14:15:48Z</time>
      </trkpt>
      <trkpt lat="44.36172" lon="5.60597">
        <ele>788</ele>
        <time>2019-03-23T14:15:49Z</time>
      </trkpt>
      <trkpt lat="44.36175" lon="5.60598">
        <ele>788</ele>
        <time>2019-03-23T14:15:50Z</time>
      </trkpt>
      <trkpt lat="44.36178" lon="5.60599">
        <ele>788</ele>
        <time>2019-03-23T14:15:51Z</time>
      </trkpt>
      <trkpt lat="44.36182" lon="5.60601">
        <ele>788</ele>
        <time>2019-03-23T14:15:52Z</time>
      </trkpt>
      <trkpt lat="44.36184" lon="5.60602">
        <ele>788</ele>
        <time>2019-03-23T14:15:53Z</time>
      </trkpt>
      <trkpt lat="44.36187" lon="5.60604">
        <ele>788</ele>
        <time>2019-03-23T14:15:54Z</time>
      </trkpt>
      <trkpt lat="44.3619" lon="5.60607">
        <ele>788</ele>
        <time>2019-03-23T14:15:55Z</time>
      </trkpt>
      <trkpt lat="44.36192" lon="5.60609">
        <ele>788</ele>
        <time>2019-03-23T14:15:56Z</time>
      </trkpt>
      <trkpt lat="44.36195" lon="5.60612">
        <ele>788</ele>
        <time>2019-03-23T14:15:57Z</time>
      </trkpt>
      <trkpt lat="44.36198" lon="5.60614">
        <ele>788</ele>
        <time>2019-03-23T14:15:58Z</time>
      </trkpt>
      <trkpt lat="44.36201" lon="5.60617">
        <ele>788</ele>
        <time>2019-03-23T14:15:59Z</time>
      </trkpt>
      <trkpt lat="44.36203" lon="5.60619">
        <ele>788</ele>
        <time>2019-03-23T14:16:00Z</time>
      </trkpt>
      <trkpt lat="44.36206" lon="5.60623">
        <ele>789</ele>
        <time>2019-03-23T14:16:01Z</time>
      </trkpt>
      <trkpt lat="44.36208" lon="5.60626">
        <ele>789</ele>
        <time>2019-03-23T14:16:02Z</time>
      </trkpt>
      <trkpt lat="44.3621" lon="5.60629">
        <ele>789</ele>
        <time>2019-03-23T14:16:03Z</time>
      </trkpt>
      <trkpt lat="44.36212" lon="5.60633">
        <ele>789</ele>
        <time>2019-03-23T14:16:04Z</time>
      </trkpt>
      <trkpt lat="44.36214" lon="5.60636">
        <ele>789</ele>
        <time>2019-03-23T14:16:05Z</time>
      </trkpt>
      <trkpt lat="44.36216" lon="5.60639">
        <ele>789</ele>
        <time>2019-03-23T14:16:06Z</time>
      </trkpt>
      <trkpt lat="44.36219" lon="5.60643">
        <ele>789</ele>
        <time>2019-03-23T14:16:07Z</time>
      </trkpt>
      <trkpt lat="44.36221" lon="5.60647">
        <ele>789</ele>
        <time>2019-03-23T14:16:08Z</time>
      </trkpt>
      <trkpt lat="44.36223" lon="5.6065">
        <ele>789</ele>
        <time>2019-03-23T14:16:09Z</time>
      </trkpt>
      <trkpt lat="44.36224" lon="5.60654">
        <ele>789</ele>
        <time>2019-03-23T14:16:10Z</time>
      </trkpt>
      <trkpt lat="44.36227" lon="5.60657">
        <ele>789</ele>
        <time>2019-03-23T14:16:11Z</time>
      </trkpt>
      <trkpt lat="44.36229" lon="5.60661">
        <ele>789</ele>
        <time>2019-03-23T14:16:12Z</time>
      </trkpt>
      <trkpt lat="44.36231" lon="5.60664">
        <ele>789</ele>
        <time>2019-03-23T14:16:13Z</time>
      </trkpt>
      <trkpt lat="44.36234" lon="5.60666">
        <ele>789</ele>
        <time>2019-03-23T14:16:14Z</time>
      </trkpt>
      <trkpt lat="44.36237" lon="5.60669">
        <ele>789</ele>
        <time>2019-03-23T14:16:15Z</time>
      </trkpt>
      <trkpt lat="44.36239" lon="5.60672">
        <ele>789</ele>
        <time>2019-03-23T14:16:16Z</time>
      </trkpt>
      <trkpt lat="44.36242" lon="5.60675">
        <ele>789</ele>
        <time>2019-03-23T14:16:17Z</time>
      </trkpt>
      <trkpt lat="44.36244" lon="5.60679">
        <ele>789</ele>
        <time>2019-03-23T14:16:18Z</time>
      </trkpt>
      <trkpt lat="44.36247" lon="5.60682">
        <ele>789</ele>
        <time>2019-03-23T14:16:19Z</time>
      </trkpt>
      <trkpt lat="44.3625" lon="5.60686">
        <ele>789</ele>
        <time>2019-03-23T14:16:20Z</time>
      </trkpt>
      <trkpt lat="44.36253" lon="5.60689">
        <ele>789</ele>
        <time>2019-03-23T14:16:21Z</time>
      </trkpt>
      <trkpt lat="44.36256" lon="5.60693">
        <ele>789</ele>
        <time>2019-03-23T14:16:22Z</time>
      </trkpt>
      <trkpt lat="44.36259" lon="5.60696">
        <ele>789</ele>
        <time>2019-03-23T14:16:23Z</time>
      </trkpt>
      <trkpt lat="44.36262" lon="5.60699">
        <ele>789</ele>
        <time>2019-03-23T14:16:24Z</time>
      </trkpt>
      <trkpt lat="44.36266" lon="5.60702">
        <ele>789</ele>
        <time>2019-03-23T14:16:25Z</time>
      </trkpt>
      <trkpt lat="44.3627" lon="5.60706">
        <ele>789</ele>
        <time>2019-03-23T14:16:26Z</time>
      </trkpt>
      <trkpt lat="44.36273" lon="5.60709">
        <ele>789</ele>
        <time>2019-03-23T14:16:27Z</time>
      </trkpt>
      <trkpt lat="44.36276" lon="5.60713">
        <ele>789</ele>
        <time>2019-03-23T14:16:28Z</time>
      </trkpt>
      <trkpt lat="44.3628" lon="5.60716">
        <ele>789</ele>
        <time>2019-03-23T14:16:29Z</time>
      </trkpt>
      <trkpt lat="44.36283" lon="5.60719">
        <ele>789</ele>
        <time>2019-03-23T14:16:30Z</time>
      </trkpt>
      <trkpt lat="44.36286" lon="5.60723">
        <ele>789</ele>
        <time>2019-03-23T14:16:31Z</time>
      </trkpt>
      <trkpt lat="44.36289" lon="5.60726">
        <ele>789</ele>
        <time>2019-03-23T14:16:32Z</time>
      </trkpt>
      <trkpt lat="44.36293" lon="5.6073">
        <ele>789</ele>
        <time>2019-03-23T14:16:33Z</time>
      </trkpt>
      <trkpt lat="44.36296" lon="5.60733">
        <ele>789</ele>
        <time>2019-03-23T14:16:34Z</time>
      </trkpt>
      <trkpt lat="44.363" lon="5.60736">
        <ele>789</ele>
        <time>2019-03-23T14:16:35Z</time>
      </trkpt>
      <trkpt lat="44.36303" lon="5.6074">
        <ele>789</ele>
        <time>2019-03-23T14:16:36Z</time>
      </trkpt>
      <trkpt lat="44.36306" lon="5.60744">
        <ele>790</ele>
        <time>2019-03-23T14:16:37Z</time>
      </trkpt>
      <trkpt lat="44.36309" lon="5.60747">
        <ele>790</ele>
        <time>2019-03-23T14:16:38Z</time>
      </trkpt>
      <trkpt lat="44.36312" lon="5.60751">
        <ele>790</ele>
        <time>2019-03-23T14:16:39Z</time>
      </trkpt>
      <trkpt lat="44.36315" lon="5.60755">
        <ele>790</ele>
        <time>2019-03-23T14:16:40Z</time>
      </trkpt>
      <trkpt lat="44.36318" lon="5.60759">
        <ele>790</ele>
        <time>2019-03-23T14:16:41Z</time>
      </trkpt>
      <trkpt lat="44.36321" lon="5.60763">
        <ele>790</ele>
        <time>2019-03-23T14:16:42Z</time>
      </trkpt>
      <trkpt lat="44.36324" lon="5.60767">
        <ele>790</ele>
        <time>2019-03-23T14:16:43Z</time>
      </trkpt>
      <trkpt lat="44.36326" lon="5.60772">
        <ele>790</ele>
        <time>2019-03-23T14:16:44Z</time>
      </trkpt>
      <trkpt lat="44.36328" lon="5.60776">
        <ele>790</ele>
        <time>2019-03-23T14:16:45Z</time>
      </trkpt>
      <trkpt lat="44.3633" lon="5.60781">
        <ele>790</ele>
        <time>2019-03-23T14:16:46Z</time>
      </trkpt>
      <trkpt lat="44.36332" lon="5.60785">
        <ele>790</ele>
        <time>2019-03-23T14:16:47Z</time>
      </trkpt>
      <trkpt lat="44.36335" lon="5.6079">
        <ele>790</ele>
        <time>2019-03-23T14:16:48Z</time>
      </trkpt>
      <trkpt lat="44.36337" lon="5.60794">
        <ele>790</ele>
        <time>2019-03-23T14:16:49Z</time>
      </trkpt>
      <trkpt lat="44.36339" lon="5.60799">
        <ele>790</ele>
        <time>2019-03-23T14:16:50Z</time>
      </trkpt>
      <trkpt lat="44.36341" lon="5.60804">
        <ele>790</ele>
        <time>2019-03-23T14:16:51Z</time>
      </trkpt>
      <trkpt lat="44.36343" lon="5.60808">
        <ele>790</ele>
        <time>2019-03-23T14:16:52Z</time>
      </trkpt>
      <trkpt lat="44.36345" lon="5.60813">
        <ele>790</ele>
        <time>2019-03-23T14:16:53Z</time>
      </trkpt>
      <trkpt lat="44.36348" lon="5.60817">
        <ele>790</ele>
        <time>2019-03-23T14:16:54Z</time>
      </trkpt>
      <trkpt lat="44.3635" lon="5.60821">
        <ele>790</ele>
        <time>2019-03-23T14:16:55Z</time>
      </trkpt>
      <trkpt lat="44.36352" lon="5.60826">
        <ele>790</ele>
        <time>2019-03-23T14:16:56Z</time>
      </trkpt>
      <trkpt lat="44.36354" lon="5.6083">
        <ele>790</ele>
        <time>2019-03-23T14:16:57Z</time>
      </trkpt>
      <trkpt lat="44.36356" lon="5.60834">
        <ele>790</ele>
        <time>2019-03-23T14:16:58Z</time>
      </trkpt>
      <trkpt lat="44.36359" lon="5.60839">
        <ele>790</ele>
        <time>2019-03-23T14:16:59Z</time>
      </trkpt>
      <trkpt lat="44.36361" lon="5.60843">
        <ele>790</ele>
        <time>2019-03-23T14:17:00Z</time>
      </trkpt>
      <trkpt lat="44.36364" lon="5.60847">
        <ele>790</ele>
        <time>2019-03-23T14:17:01Z</time>
      </trkpt>
      <trkpt lat="44.36366" lon="5.60851">
        <ele>790</ele>
        <time>2019-03-23T14:17:02Z</time>
      </trkpt>
      <trkpt lat="44.36369" lon="5.60855">
        <ele>790</ele>
        <time>2019-03-23T14:17:03Z</time>
      </trkpt>
      <trkpt lat="44.36371" lon="5.60858">
        <ele>790</ele>
        <time>2019-03-23T14:17:04Z</time>
      </trkpt>
      <trkpt lat="44.36374" lon="5.60862">
        <ele>790</ele>
        <time>2019-03-23T14:17:05Z</time>
      </trkpt>
      <trkpt lat="44.36377" lon="5.60866">
        <ele>790</ele>
        <time>2019-03-23T14:17:06Z</time>
      </trkpt>
      <trkpt lat="44.3638" lon="5.60869">
        <ele>790</ele>
        <time>2019-03-23T14:17:07Z</time>
      </trkpt>
      <trkpt lat="44.36382" lon="5.60873">
        <ele>790</ele>
        <time>2019-03-23T14:17:08Z</time>
      </trkpt>
      <trkpt lat="44.36385" lon="5.60877">
        <ele>790</ele>
        <time>2019-03-23T14:17:09Z</time>
      </trkpt>
      <trkpt lat="44.36388" lon="5.6088">
        <ele>791</ele>
        <time>2019-03-23T14:17:10Z</time>
      </trkpt>
      <trkpt lat="44.3639" lon="5.60884">
        <ele>791</ele>
        <time>2019-03-23T14:17:11Z</time>
      </trkpt>
      <trkpt lat="44.36393" lon="5.60888">
        <ele>791</ele>
        <time>2019-03-23T14:17:12Z</time>
      </trkpt>
      <trkpt lat="44.36395" lon="5.60891">
        <ele>791</ele>
        <time>2019-03-23T14:17:13Z</time>
      </trkpt>
      <trkpt lat="44.36397" lon="5.60895">
        <ele>791</ele>
        <time>2019-03-23T14:17:14Z</time>
      </trkpt>
      <trkpt lat="44.36399" lon="5.60899">
        <ele>791</ele>
        <time>2019-03-23T14:17:15Z</time>
      </trkpt>
      <trkpt lat="44.36402" lon="5.60903">
        <ele>792</ele>
        <time>2019-03-23T14:17:16Z</time>
      </trkpt>
      <trkpt lat="44.36404" lon="5.60907">
        <ele>792</ele>
        <time>2019-03-23T14:17:17Z</time>
      </trkpt>
      <trkpt lat="44.36407" lon="5.6091">
        <ele>792</ele>
        <time>2019-03-23T14:17:18Z</time>
      </trkpt>
      <trkpt lat="44.36409" lon="5.60914">
        <ele>792</ele>
        <time>2019-03-23T14:17:19Z</time>
      </trkpt>
      <trkpt lat="44.36411" lon="5.60918">
        <ele>792</ele>
        <time>2019-03-23T14:17:20Z</time>
      </trkpt>
      <trkpt lat="44.36414" lon="5.60921">
        <ele>792</ele>
        <time>2019-03-23T14:17:21Z</time>
      </trkpt>
      <trkpt lat="44.36416" lon="5.60925">
        <ele>792</ele>
        <time>2019-03-23T14:17:22Z</time>
      </trkpt>
      <trkpt lat="44.36419" lon="5.60929">
        <ele>792</ele>
        <time>2019-03-23T14:17:23Z</time>
      </trkpt>
      <trkpt lat="44.3642" lon="5.60933">
        <ele>792</ele>
        <time>2019-03-23T14:17:24Z</time>
      </trkpt>
      <trkpt lat="44.36422" lon="5.60936">
        <ele>793</ele>
        <time>2019-03-23T14:17:25Z</time>
      </trkpt>
      <trkpt lat="44.36425" lon="5.6094">
        <ele>793</ele>
        <time>2019-03-23T14:17:26Z</time>
      </trkpt>
      <trkpt lat="44.36427" lon="5.60944">
        <ele>793</ele>
        <time>2019-03-23T14:17:27Z</time>
      </trkpt>
      <trkpt lat="44.36428" lon="5.60948">
        <ele>793</ele>
        <time>2019-03-23T14:17:28Z</time>
      </trkpt>
      <trkpt lat="44.3643" lon="5.60952">
        <ele>793</ele>
        <time>2019-03-23T14:17:29Z</time>
      </trkpt>
      <trkpt lat="44.36433" lon="5.60955">
        <ele>793</ele>
        <time>2019-03-23T14:17:30Z</time>
      </trkpt>
      <trkpt lat="44.36435" lon="5.60959">
        <ele>793</ele>
        <time>2019-03-23T14:17:31Z</time>
      </trkpt>
      <trkpt lat="44.36437" lon="5.60962">
        <ele>793</ele>
        <time>2019-03-23T14:17:32Z</time>
      </trkpt>
      <trkpt lat="44.36439" lon="5.60966">
        <ele>793</ele>
        <time>2019-03-23T14:17:33Z</time>
      </trkpt>
      <trkpt lat="44.36441" lon="5.6097">
        <ele>793</ele>
        <time>2019-03-23T14:17:34Z</time>
      </trkpt>
      <trkpt lat="44.36443" lon="5.60974">
        <ele>793</ele>
        <time>2019-03-23T14:17:35Z</time>
      </trkpt>
      <trkpt lat="44.36445" lon="5.60978">
        <ele>793</ele>
        <time>2019-03-23T14:17:36Z</time>
      </trkpt>
      <trkpt lat="44.36447" lon="5.60982">
        <ele>793</ele>
        <time>2019-03-23T14:17:37Z</time>
      </trkpt>
      <trkpt lat="44.36449" lon="5.60986">
        <ele>793</ele>
        <time>2019-03-23T14:17:38Z</time>
      </trkpt>
      <trkpt lat="44.36451" lon="5.6099">
        <ele>793</ele>
        <time>2019-03-23T14:17:39Z</time>
      </trkpt>
      <trkpt lat="44.36452" lon="5.60994">
        <ele>793</ele>
        <time>2019-03-23T14:17:40Z</time>
      </trkpt>
      <trkpt lat="44.36454" lon="5.60998">
        <ele>793</ele>
        <time>2019-03-23T14:17:41Z</time>
      </trkpt>
      <trkpt lat="44.36456" lon="5.61002">
        <ele>793</ele>
        <time>2019-03-23T14:17:42Z</time>
      </trkpt>
      <trkpt lat="44.36458" lon="5.61006">
        <ele>793</ele>
        <time>2019-03-23T14:17:43Z</time>
      </trkpt>
      <trkpt lat="44.3646" lon="5.61011">
        <ele>793</ele>
        <time>2019-03-23T14:17:44Z</time>
      </trkpt>
      <trkpt lat="44.36462" lon="5.61015">
        <ele>794</ele>
        <time>2019-03-23T14:17:45Z</time>
      </trkpt>
      <trkpt lat="44.36464" lon="5.61019">
        <ele>794</ele>
        <time>2019-03-23T14:17:46Z</time>
      </trkpt>
      <trkpt lat="44.36466" lon="5.61023">
        <ele>794</ele>
        <time>2019-03-23T14:17:47Z</time>
      </trkpt>
      <trkpt lat="44.36467" lon="5.61027">
        <ele>794</ele>
        <time>2019-03-23T14:17:48Z</time>
      </trkpt>
      <trkpt lat="44.36469" lon="5.61032">
        <ele>794</ele>
        <time>2019-03-23T14:17:49Z</time>
      </trkpt>
      <trkpt lat="44.36471" lon="5.61036">
        <ele>795</ele>
        <time>2019-03-23T14:17:50Z</time>
      </trkpt>
      <trkpt lat="44.36472" lon="5.61041">
        <ele>795</ele>
        <time>2019-03-23T14:17:51Z</time>
      </trkpt>
      <trkpt lat="44.36474" lon="5.61045">
        <ele>795</ele>
        <time>2019-03-23T14:17:52Z</time>
      </trkpt>
      <trkpt lat="44.36476" lon="5.61049">
        <ele>795</ele>
        <time>2019-03-23T14:17:53Z</time>
      </trkpt>
      <trkpt lat="44.36478" lon="5.61054">
        <ele>795</ele>
        <time>2019-03-23T14:17:54Z</time>
      </trkpt>
      <trkpt lat="44.36479" lon="5.61058">
        <ele>796</ele>
        <time>2019-03-23T14:17:55Z</time>
      </trkpt>
      <trkpt lat="44.36481" lon="5.61063">
        <ele>796</ele>
        <time>2019-03-23T14:17:56Z</time>
      </trkpt>
      <trkpt lat="44.36482" lon="5.61067">
        <ele>796</ele>
        <time>2019-03-23T14:17:57Z</time>
      </trkpt>
      <trkpt lat="44.36484" lon="5.61072">
        <ele>796</ele>
        <time>2019-03-23T14:17:58Z</time>
      </trkpt>
      <trkpt lat="44.36486" lon="5.61076">
        <ele>796</ele>
        <time>2019-03-23T14:17:59Z</time>
      </trkpt>
      <trkpt lat="44.36488" lon="5.61081">
        <ele>796</ele>
        <time>2019-03-23T14:18:00Z</time>
      </trkpt>
      <trkpt lat="44.3649" lon="5.61085">
        <ele>796</ele>
        <time>2019-03-23T14:18:01Z</time>
      </trkpt>
      <trkpt lat="44.36492" lon="5.61089">
        <ele>796</ele>
        <time>2019-03-23T14:18:02Z</time>
      </trkpt>
      <trkpt lat="44.36494" lon="5.61094">
        <ele>797</ele>
        <time>2019-03-23T14:18:03Z</time>
      </trkpt>
      <trkpt lat="44.36495" lon="5.61098">
        <ele>797</ele>
        <time>2019-03-23T14:18:04Z</time>
      </trkpt>
      <trkpt lat="44.36497" lon="5.61103">
        <ele>797</ele>
        <time>2019-03-23T14:18:05Z</time>
      </trkpt>
      <trkpt lat="44.36499" lon="5.61108">
        <ele>797</ele>
        <time>2019-03-23T14:18:06Z</time>
      </trkpt>
      <trkpt lat="44.36501" lon="5.61112">
        <ele>797</ele>
        <time>2019-03-23T14:18:07Z</time>
      </trkpt>
      <trkpt lat="44.36502" lon="5.61117">
        <ele>797</ele>
        <time>2019-03-23T14:18:08Z</time>
      </trkpt>
      <trkpt lat="44.36504" lon="5.61122">
        <ele>797</ele>
        <time>2019-03-23T14:18:09Z</time>
      </trkpt>
      <trkpt lat="44.36505" lon="5.61127">
        <ele>798</ele>
        <time>2019-03-23T14:18:10Z</time>
      </trkpt>
      <trkpt lat="44.36507" lon="5.61131">
        <ele>798</ele>
        <time>2019-03-23T14:18:11Z</time>
      </trkpt>
      <trkpt lat="44.36509" lon="5.61135">
        <ele>798</ele>
        <time>2019-03-23T14:18:12Z</time>
      </trkpt>
      <trkpt lat="44.36511" lon="5.6114">
        <ele>798</ele>
        <time>2019-03-23T14:18:13Z</time>
      </trkpt>
      <trkpt lat="44.36514" lon="5.61143">
        <ele>798</ele>
        <time>2019-03-23T14:18:14Z</time>
      </trkpt>
      <trkpt lat="44.36516" lon="5.61147">
        <ele>798</ele>
        <time>2019-03-23T14:18:15Z</time>
      </trkpt>
      <trkpt lat="44.36519" lon="5.61151">
        <ele>798</ele>
        <time>2019-03-23T14:18:16Z</time>
      </trkpt>
      <trkpt lat="44.36522" lon="5.61154">
        <ele>798</ele>
        <time>2019-03-23T14:18:17Z</time>
      </trkpt>
      <trkpt lat="44.36525" lon="5.61157">
        <ele>799</ele>
        <time>2019-03-23T14:18:18Z</time>
      </trkpt>
      <trkpt lat="44.36528" lon="5.6116">
        <ele>799</ele>
        <time>2019-03-23T14:18:19Z</time>
      </trkpt>
      <trkpt lat="44.36531" lon="5.61163">
        <ele>799</ele>
        <time>2019-03-23T14:18:20Z</time>
      </trkpt>
      <trkpt lat="44.36534" lon="5.61166">
        <ele>799</ele>
        <time>2019-03-23T14:18:21Z</time>
      </trkpt>
      <trkpt lat="44.36538" lon="5.61168">
        <ele>799</ele>
        <time>2019-03-23T14:18:22Z</time>
      </trkpt>
      <trkpt lat="44.36541" lon="5.6117">
        <ele>800</ele>
        <time>2019-03-23T14:18:23Z</time>
      </trkpt>
      <trkpt lat="44.36545" lon="5.61171">
        <ele>800</ele>
        <time>2019-03-23T14:18:24Z</time>
      </trkpt>
      <trkpt lat="44.36548" lon="5.61173">
        <ele>800</ele>
        <time>2019-03-23T14:18:25Z</time>
      </trkpt>
      <trkpt lat="44.36553" lon="5.61175">
        <ele>801</ele>
        <time>2019-03-23T14:18:26Z</time>
      </trkpt>
      <trkpt lat="44.36557" lon="5.61176">
        <ele>802</ele>
        <time>2019-03-23T14:18:27Z</time>
      </trkpt>
      <trkpt lat="44.36561" lon="5.61178">
        <ele>803</ele>
        <time>2019-03-23T14:18:28Z</time>
      </trkpt>
      <trkpt lat="44.36564" lon="5.61179">
        <ele>804</ele>
        <time>2019-03-23T14:18:29Z</time>
      </trkpt>
      <trkpt lat="44.36567" lon="5.6118">
        <ele>805</ele>
        <time>2019-03-23T14:18:30Z</time>
      </trkpt>
      <trkpt lat="44.3657" lon="5.61182">
        <ele>805</ele>
        <time>2019-03-23T14:18:31Z</time>
      </trkpt>
      <trkpt lat="44.36573" lon="5.61183">
        <ele>806</ele>
        <time>2019-03-23T14:18:32Z</time>
      </trkpt>
      <trkpt lat="44.36576" lon="5.61184">
        <ele>806</ele>
        <time>2019-03-23T14:18:33Z</time>
      </trkpt>
      <trkpt lat="44.3658" lon="5.61185">
        <ele>807</ele>
        <time>2019-03-23T14:18:34Z</time>
      </trkpt>
      <trkpt lat="44.36583" lon="5.61186">
        <ele>807</ele>
        <time>2019-03-23T14:18:35Z</time>
      </trkpt>
      <trkpt lat="44.36586" lon="5.61187">
        <ele>808</ele>
        <time>2019-03-23T14:18:36Z</time>
      </trkpt>
      <trkpt lat="44.36588" lon="5.61188">
        <ele>808</ele>
        <time>2019-03-23T14:18:37Z</time>
      </trkpt>
      <trkpt lat="44.36591" lon="5.61188">
        <ele>809</ele>
        <time>2019-03-23T14:18:38Z</time>
      </trkpt>
      <trkpt lat="44.36593" lon="5.61189">
        <ele>809</ele>
        <time>2019-03-23T14:18:39Z</time>
      </trkpt>
      <trkpt lat="44.36596" lon="5.6119">
        <ele>810</ele>
        <time>2019-03-23T14:18:40Z</time>
      </trkpt>
      <trkpt lat="44.36599" lon="5.6119">
        <ele>810</ele>
        <time>2019-03-23T14:18:41Z</time>
      </trkpt>
      <trkpt lat="44.36601" lon="5.61192">
        <ele>811</ele>
        <time>2019-03-23T14:18:42Z</time>
      </trkpt>
      <trkpt lat="44.36604" lon="5.61193">
        <ele>812</ele>
        <time>2019-03-23T14:18:43Z</time>
      </trkpt>
      <trkpt lat="44.36607" lon="5.61194">
        <ele>812</ele>
        <time>2019-03-23T14:18:44Z</time>
      </trkpt>
      <trkpt lat="44.3661" lon="5.61195">
        <ele>812</ele>
        <time>2019-03-23T14:18:45Z</time>
      </trkpt>
      <trkpt lat="44.36612" lon="5.61195">
        <ele>812</ele>
        <time>2019-03-23T14:18:46Z</time>
      </trkpt>
      <trkpt lat="44.36616" lon="5.61196">
        <ele>813</ele>
        <time>2019-03-23T14:18:47Z</time>
      </trkpt>
      <trkpt lat="44.36619" lon="5.61197">
        <ele>813</ele>
        <time>2019-03-23T14:18:48Z</time>
      </trkpt>
      <trkpt lat="44.36622" lon="5.61198">
        <ele>813</ele>
        <time>2019-03-23T14:18:49Z</time>
      </trkpt>
      <trkpt lat="44.36624" lon="5.61199">
        <ele>813</ele>
        <time>2019-03-23T14:18:50Z</time>
      </trkpt>
      <trkpt lat="44.36627" lon="5.612">
        <ele>814</ele>
        <time>2019-03-23T14:18:51Z</time>
      </trkpt>
      <trkpt lat="44.3663" lon="5.61201">
        <ele>814</ele>
        <time>2019-03-23T14:18:52Z</time>
      </trkpt>
      <trkpt lat="44.36633" lon="5.61202">
        <ele>814</ele>
        <time>2019-03-23T14:18:53Z</time>
      </trkpt>
      <trkpt lat="44.36636" lon="5.61203">
        <ele>814</ele>
        <time>2019-03-23T14:18:54Z</time>
      </trkpt>
      <trkpt lat="44.36638" lon="5.61204">
        <ele>815</ele>
        <time>2019-03-23T14:18:55Z</time>
      </trkpt>
      <trkpt lat="44.36641" lon="5.61204">
        <ele>815</ele>
        <time>2019-03-23T14:18:56Z</time>
      </trkpt>
      <trkpt lat="44.36644" lon="5.61205">
        <ele>815</ele>
        <time>2019-03-23T14:18:57Z</time>
      </trkpt>
      <trkpt lat="44.36647" lon="5.61206">
        <ele>815</ele>
        <time>2019-03-23T14:18:58Z</time>
      </trkpt>
      <trkpt lat="44.3665" lon="5.61207">
        <ele>815</ele>
        <time>2019-03-23T14:18:59Z</time>
      </trkpt>
      <trkpt lat="44.36652" lon="5.61209">
        <ele>815</ele>
        <time>2019-03-23T14:19:00Z</time>
      </trkpt>
      <trkpt lat="44.36655" lon="5.6121">
        <ele>815</ele>
        <time>2019-03-23T14:19:01Z</time>
      </trkpt>
      <trkpt lat="44.36657" lon="5.61211">
        <ele>815</ele>
        <time>2019-03-23T14:19:02Z</time>
      </trkpt>
      <trkpt lat="44.3666" lon="5.61212">
        <ele>815</ele>
        <time>2019-03-23T14:19:03Z</time>
      </trkpt>
      <trkpt lat="44.36663" lon="5.61213">
        <ele>815</ele>
        <time>2019-03-23T14:19:04Z</time>
      </trkpt>
      <trkpt lat="44.36666" lon="5.61214">
        <ele>815</ele>
        <time>2019-03-23T14:19:05Z</time>
      </trkpt>
      <trkpt lat="44.36668" lon="5.61216">
        <ele>815</ele>
        <time>2019-03-23T14:19:06Z</time>
      </trkpt>
      <trkpt lat="44.3667" lon="5.61217">
        <ele>816</ele>
        <time>2019-03-23T14:19:07Z</time>
      </trkpt>
      <trkpt lat="44.36672" lon="5.61219">
        <ele>816</ele>
        <time>2019-03-23T14:19:08Z</time>
      </trkpt>
      <trkpt lat="44.36675" lon="5.61221">
        <ele>816</ele>
        <time>2019-03-23T14:19:09Z</time>
      </trkpt>
      <trkpt lat="44.36677" lon="5.61223">
        <ele>816</ele>
        <time>2019-03-23T14:19:10Z</time>
      </trkpt>
      <trkpt lat="44.36679" lon="5.61224">
        <ele>816</ele>
        <time>2019-03-23T14:19:11Z</time>
      </trkpt>
      <trkpt lat="44.36681" lon="5.61226">
        <ele>816</ele>
        <time>2019-03-23T14:19:12Z</time>
      </trkpt>
      <trkpt lat="44.36684" lon="5.61228">
        <ele>816</ele>
        <time>2019-03-23T14:19:13Z</time>
      </trkpt>
      <trkpt lat="44.36686" lon="5.6123">
        <ele>816</ele>
        <time>2019-03-23T14:19:14Z</time>
      </trkpt>
      <trkpt lat="44.36688" lon="5.61232">
        <ele>816</ele>
        <time>2019-03-23T14:19:15Z</time>
      </trkpt>
      <trkpt lat="44.3669" lon="5.61235">
        <ele>816</ele>
        <time>2019-03-23T14:19:16Z</time>
      </trkpt>
      <trkpt lat="44.36692" lon="5.61237">
        <ele>816</ele>
        <time>2019-03-23T14:19:17Z</time>
      </trkpt>
      <trkpt lat="44.36693" lon="5.6124">
        <ele>816</ele>
        <time>2019-03-23T14:19:18Z</time>
      </trkpt>
      <trkpt lat="44.36695" lon="5.61243">
        <ele>816</ele>
        <time>2019-03-23T14:19:19Z</time>
      </trkpt>
      <trkpt lat="44.36696" lon="5.61246">
        <ele>816</ele>
        <time>2019-03-23T14:19:20Z</time>
      </trkpt>
      <trkpt lat="44.36698" lon="5.61249">
        <ele>816</ele>
        <time>2019-03-23T14:19:21Z</time>
      </trkpt>
      <trkpt lat="44.36699" lon="5.61252">
        <ele>816</ele>
        <time>2019-03-23T14:19:22Z</time>
      </trkpt>
      <trkpt lat="44.36701" lon="5.61255">
        <ele>817</ele>
        <time>2019-03-23T14:19:23Z</time>
      </trkpt>
      <trkpt lat="44.36702" lon="5.61259">
        <ele>817</ele>
        <time>2019-03-23T14:19:24Z</time>
      </trkpt>
      <trkpt lat="44.36703" lon="5.61262">
        <ele>818</ele>
        <time>2019-03-23T14:19:25Z</time>
      </trkpt>
      <trkpt lat="44.36704" lon="5.61265">
        <ele>818</ele>
        <time>2019-03-23T14:19:26Z</time>
      </trkpt>
      <trkpt lat="44.36705" lon="5.61267">
        <ele>819</ele>
        <time>2019-03-23T14:19:27Z</time>
      </trkpt>
      <trkpt lat="44.36707" lon="5.6127">
        <ele>819</ele>
        <time>2019-03-23T14:19:28Z</time>
      </trkpt>
      <trkpt lat="44.36708" lon="5.61273">
        <ele>820</ele>
        <time>2019-03-23T14:19:29Z</time>
      </trkpt>
      <trkpt lat="44.36709" lon="5.61275">
        <ele>820</ele>
        <time>2019-03-23T14:19:30Z</time>
      </trkpt>
      <trkpt lat="44.36711" lon="5.61278">
        <ele>820</ele>
        <time>2019-03-23T14:19:31Z</time>
      </trkpt>
      <trkpt lat="44.36713" lon="5.61281">
        <ele>821</ele>
        <time>2019-03-23T14:19:32Z</time>
      </trkpt>
      <trkpt lat="44.36714" lon="5.61283">
        <ele>821</ele>
        <time>2019-03-23T14:19:33Z</time>
      </trkpt>
      <trkpt lat="44.36716" lon="5.61286">
        <ele>821</ele>
        <time>2019-03-23T14:19:34Z</time>
      </trkpt>
      <trkpt lat="44.36718" lon="5.61288">
        <ele>822</ele>
        <time>2019-03-23T14:19:35Z</time>
      </trkpt>
      <trkpt lat="44.3672" lon="5.61291">
        <ele>822</ele>
        <time>2019-03-23T14:19:36Z</time>
      </trkpt>
      <trkpt lat="44.36722" lon="5.61293">
        <ele>822</ele>
        <time>2019-03-23T14:19:37Z</time>
      </trkpt>
      <trkpt lat="44.36724" lon="5.61296">
        <ele>823</ele>
        <time>2019-03-23T14:19:38Z</time>
      </trkpt>
      <trkpt lat="44.36726" lon="5.61298">
        <ele>823</ele>
        <time>2019-03-23T14:19:39Z</time>
      </trkpt>
      <trkpt lat="44.36728" lon="5.61301">
        <ele>824</ele>
        <time>2019-03-23T14:19:40Z</time>
      </trkpt>
      <trkpt lat="44.3673" lon="5.61303">
        <ele>824</ele>
        <time>2019-03-23T14:19:41Z</time>
      </trkpt>
      <trkpt lat="44.36732" lon="5.61305">
        <ele>824</ele>
        <time>2019-03-23T14:19:42Z</time>
      </trkpt>
      <trkpt lat="44.36734" lon="5.61307">
        <ele>825</ele>
        <time>2019-03-23T14:19:43Z</time>
      </trkpt>
      <trkpt lat="44.36736" lon="5.61309">
        <ele>825</ele>
        <time>2019-03-23T14:19:44Z</time>
      </trkpt>
      <trkpt lat="44.36738" lon="5.61311">
        <ele>825</ele>
        <time>2019-03-23T14:19:45Z</time>
      </trkpt>
      <trkpt lat="44.3674" lon="5.61312">
        <ele>825</ele>
        <time>2019-03-23T14:19:46Z</time>
      </trkpt>
      <trkpt lat="44.36742" lon="5.61314">
        <ele>825</ele>
        <time>2019-03-23T14:19:47Z</time>
      </trkpt>
      <trkpt lat="44.36744" lon="5.61315">
        <ele>825</ele>
        <time>2019-03-23T14:19:48Z</time>
      </trkpt>
      <trkpt lat="44.36745" lon="5.61317">
        <ele>825</ele>
        <time>2019-03-23T14:19:49Z</time>
      </trkpt>
      <trkpt lat="44.36747" lon="5.61319">
        <ele>825</ele>
        <time>2019-03-23T14:19:50Z</time>
      </trkpt>
      <trkpt lat="44.36749" lon="5.61321">
        <ele>825</ele>
        <time>2019-03-23T14:19:51Z</time>
      </trkpt>
      <trkpt lat="44.3675" lon="5.61323">
        <ele>826</ele>
        <time>2019-03-23T14:19:52Z</time>
      </trkpt>
      <trkpt lat="44.36752" lon="5.61324">
        <ele>826</ele>
        <time>2019-03-23T14:19:53Z</time>
      </trkpt>
      <trkpt lat="44.36754" lon="5.61326">
        <ele>826</ele>
        <time>2019-03-23T14:19:54Z</time>
      </trkpt>
      <trkpt lat="44.36756" lon="5.61328">
        <ele>826</ele>
        <time>2019-03-23T14:19:55Z</time>
      </trkpt>
      <trkpt lat="44.36758" lon="5.6133">
        <ele>827</ele>
        <time>2019-03-23T14:19:56Z</time>
      </trkpt>
      <trkpt lat="44.3676" lon="5.61332">
        <ele>827</ele>
        <time>2019-03-23T14:19:57Z</time>
      </trkpt>
      <trkpt lat="44.36761" lon="5.61335">
        <ele>827</ele>
        <time>2019-03-23T14:19:58Z</time>
      </trkpt>
      <trkpt lat="44.36763" lon="5.61337">
        <ele>827</ele>
        <time>2019-03-23T14:19:59Z</time>
      </trkpt>
      <trkpt lat="44.36765" lon="5.61339">
        <ele>827</ele>
        <time>2019-03-23T14:20:00Z</time>
      </trkpt>
      <trkpt lat="44.36767" lon="5.61341">
        <ele>827</ele>
        <time>2019-03-23T14:20:01Z</time>
      </trkpt>
      <trkpt lat="44.36768" lon="5.61344">
        <ele>828</ele>
        <time>2019-03-23T14:20:02Z</time>
      </trkpt>
      <trkpt lat="44.3677" lon="5.61346">
        <ele>828</ele>
        <time>2019-03-23T14:20:03Z</time>
      </trkpt>
      <trkpt lat="44.36772" lon="5.61349">
        <ele>828</ele>
        <time>2019-03-23T14:20:04Z</time>
      </trkpt>
      <trkpt lat="44.36774" lon="5.61351">
        <ele>828</ele>
        <time>2019-03-23T14:20:05Z</time>
      </trkpt>
      <trkpt lat="44.36775" lon="5.61353">
        <ele>828</ele>
        <time>2019-03-23T14:20:06Z</time>
      </trkpt>
      <trkpt lat="44.36777" lon="5.61355">
        <ele>829</ele>
        <time>2019-03-23T14:20:07Z</time>
      </trkpt>
      <trkpt lat="44.36778" lon="5.61357">
        <ele>829</ele>
        <time>2019-03-23T14:20:08Z</time>
      </trkpt>
      <trkpt lat="44.3678" lon="5.6136">
        <ele>829</ele>
        <time>2019-03-23T14:20:09Z</time>
      </trkpt>
      <trkpt lat="44.36781" lon="5.61363">
        <ele>829</ele>
        <time>2019-03-23T14:20:10Z</time>
      </trkpt>
      <trkpt lat="44.36782" lon="5.61365">
        <ele>830</ele>
        <time>2019-03-23T14:20:11Z</time>
      </trkpt>
      <trkpt lat="44.36784" lon="5.61368">
        <ele>830</ele>
        <time>2019-03-23T14:20:12Z</time>
      </trkpt>
      <trkpt lat="44.36785" lon="5.61371">
        <ele>830</ele>
        <time>2019-03-23T14:20:13Z</time>
      </trkpt>
      <trkpt lat="44.36787" lon="5.61373">
        <ele>830</ele>
        <time>2019-03-23T14:20:14Z</time>
      </trkpt>
      <trkpt lat="44.36788" lon="5.61376">
        <ele>831</ele>
        <time>2019-03-23T14:20:15Z</time>
      </trkpt>
      <trkpt lat="44.3679" lon="5.61378">
        <ele>831</ele>
        <time>2019-03-23T14:20:16Z</time>
      </trkpt>
      <trkpt lat="44.36791" lon="5.61381">
        <ele>831</ele>
        <time>2019-03-23T14:20:17Z</time>
      </trkpt>
      <trkpt lat="44.36793" lon="5.61383">
        <ele>831</ele>
        <time>2019-03-23T14:20:18Z</time>
      </trkpt>
      <trkpt lat="44.36794" lon="5.61386">
        <ele>832</ele>
        <time>2019-03-23T14:20:19Z</time>
      </trkpt>
      <trkpt lat="44.36796" lon="5.61388">
        <ele>832</ele>
        <time>2019-03-23T14:20:20Z</time>
      </trkpt>
      <trkpt lat="44.36797" lon="5.61391">
        <ele>832</ele>
        <time>2019-03-23T14:20:21Z</time>
      </trkpt>
      <trkpt lat="44.36798" lon="5.61393">
        <ele>832</ele>
        <time>2019-03-23T14:20:22Z</time>
      </trkpt>
      <trkpt lat="44.368" lon="5.61396">
        <ele>832</ele>
        <time>2019-03-23T14:20:23Z</time>
      </trkpt>
      <trkpt lat="44.36801" lon="5.61399">
        <ele>833</ele>
        <time>2019-03-23T14:20:24Z</time>
      </trkpt>
      <trkpt lat="44.36803" lon="5.61402">
        <ele>833</ele>
        <time>2019-03-23T14:20:25Z</time>
      </trkpt>
      <trkpt lat="44.36804" lon="5.61405">
        <ele>833</ele>
        <time>2019-03-23T14:20:26Z</time>
      </trkpt>
      <trkpt lat="44.36805" lon="5.61408">
        <ele>833</ele>
        <time>2019-03-23T14:20:27Z</time>
      </trkpt>
      <trkpt lat="44.36806" lon="5.61411">
        <ele>833</ele>
        <time>2019-03-23T14:20:28Z</time>
      </trkpt>
      <trkpt lat="44.36807" lon="5.61414">
        <ele>833</ele>
        <time>2019-03-23T14:20:29Z</time>
      </trkpt>
      <trkpt lat="44.36808" lon="5.61417">
        <ele>834</ele>
        <time>2019-03-23T14:20:30Z</time>
      </trkpt>
      <trkpt lat="44.36809" lon="5.61421">
        <ele>834</ele>
        <time>2019-03-23T14:20:31Z</time>
      </trkpt>
      <trkpt lat="44.36811" lon="5.61424">
        <ele>834</ele>
        <time>2019-03-23T14:20:32Z</time>
      </trkpt>
      <trkpt lat="44.36812" lon="5.61427">
        <ele>834</ele>
        <time>2019-03-23T14:20:33Z</time>
      </trkpt>
      <trkpt lat="44.36813" lon="5.6143">
        <ele>834</ele>
        <time>2019-03-23T14:20:34Z</time>
      </trkpt>
      <trkpt lat="44.36814" lon="5.61433">
        <ele>835</ele>
        <time>2019-03-23T14:20:35Z</time>
      </trkpt>
      <trkpt lat="44.36815" lon="5.61437">
        <ele>835</ele>
        <time>2019-03-23T14:20:36Z</time>
      </trkpt>
      <trkpt lat="44.36816" lon="5.6144">
        <ele>835</ele>
        <time>2019-03-23T14:20:37Z</time>
      </trkpt>
      <trkpt lat="44.36816" lon="5.61444">
        <ele>835</ele>
        <time>2019-03-23T14:20:38Z</time>
      </trkpt>
      <trkpt lat="44.36817" lon="5.61447">
        <ele>836</ele>
        <time>2019-03-23T14:20:39Z</time>
      </trkpt>
      <trkpt lat="44.36818" lon="5.6145">
        <ele>836</ele>
        <time>2019-03-23T14:20:40Z</time>
      </trkpt>
      <trkpt lat="44.36819" lon="5.61454">
        <ele>836</ele>
        <time>2019-03-23T14:20:41Z</time>
      </trkpt>
      <trkpt lat="44.36821" lon="5.61457">
        <ele>836</ele>
        <time>2019-03-23T14:20:42Z</time>
      </trkpt>
      <trkpt lat="44.36822" lon="5.6146">
        <ele>837</ele>
        <time>2019-03-23T14:20:43Z</time>
      </trkpt>
      <trkpt lat="44.36824" lon="5.61463">
        <ele>837</ele>
        <time>2019-03-23T14:20:44Z</time>
      </trkpt>
      <trkpt lat="44.36825" lon="5.61466">
        <ele>837</ele>
        <time>2019-03-23T14:20:45Z</time>
      </trkpt>
      <trkpt lat="44.36827" lon="5.61468">
        <ele>837</ele>
        <time>2019-03-23T14:20:46Z</time>
      </trkpt>
      <trkpt lat="44.3683" lon="5.6147">
        <ele>838</ele>
        <time>2019-03-23T14:20:47Z</time>
      </trkpt>
      <trkpt lat="44.36832" lon="5.61472">
        <ele>838</ele>
        <time>2019-03-23T14:20:48Z</time>
      </trkpt>
      <trkpt lat="44.36834" lon="5.61473">
        <ele>838</ele>
        <time>2019-03-23T14:20:49Z</time>
      </trkpt>
      <trkpt lat="44.36837" lon="5.61475">
        <ele>838</ele>
        <time>2019-03-23T14:20:50Z</time>
      </trkpt>
      <trkpt lat="44.36839" lon="5.61476">
        <ele>838</ele>
        <time>2019-03-23T14:20:51Z</time>
      </trkpt>
      <trkpt lat="44.36842" lon="5.61477">
        <ele>838</ele>
        <time>2019-03-23T14:20:52Z</time>
      </trkpt>
      <trkpt lat="44.36844" lon="5.61478">
        <ele>838</ele>
        <time>2019-03-23T14:20:53Z</time>
      </trkpt>
      <trkpt lat="44.36847" lon="5.6148">
        <ele>838</ele>
        <time>2019-03-23T14:20:54Z</time>
      </trkpt>
      <trkpt lat="44.36849" lon="5.61481">
        <ele>839</ele>
        <time>2019-03-23T14:20:55Z</time>
      </trkpt>
      <trkpt lat="44.36852" lon="5.61482">
        <ele>839</ele>
        <time>2019-03-23T14:20:56Z</time>
      </trkpt>
      <trkpt lat="44.36854" lon="5.61484">
        <ele>839</ele>
        <time>2019-03-23T14:20:57Z</time>
      </trkpt>
      <trkpt lat="44.36856" lon="5.61485">
        <ele>839</ele>
        <time>2019-03-23T14:20:58Z</time>
      </trkpt>
      <trkpt lat="44.36858" lon="5.61486">
        <ele>839</ele>
        <time>2019-03-23T14:20:59Z</time>
      </trkpt>
      <trkpt lat="44.36861" lon="5.61488">
        <ele>839</ele>
        <time>2019-03-23T14:21:00Z</time>
      </trkpt>
      <trkpt lat="44.36862" lon="5.6149">
        <ele>840</ele>
        <time>2019-03-23T14:21:01Z</time>
      </trkpt>
      <trkpt lat="44.36864" lon="5.61492">
        <ele>840</ele>
        <time>2019-03-23T14:21:02Z</time>
      </trkpt>
      <trkpt lat="44.36866" lon="5.61493">
        <ele>840</ele>
        <time>2019-03-23T14:21:03Z</time>
      </trkpt>
      <trkpt lat="44.36868" lon="5.61495">
        <ele>840</ele>
        <time>2019-03-23T14:21:04Z</time>
      </trkpt>
      <trkpt lat="44.3687" lon="5.61497">
        <ele>840</ele>
        <time>2019-03-23T14:21:05Z</time>
      </trkpt>
      <trkpt lat="44.36872" lon="5.61499">
        <ele>841</ele>
        <time>2019-03-23T14:21:06Z</time>
      </trkpt>
      <trkpt lat="44.36874" lon="5.61501">
        <ele>841</ele>
        <time>2019-03-23T14:21:07Z</time>
      </trkpt>
      <trkpt lat="44.36876" lon="5.61503">
        <ele>841</ele>
        <time>2019-03-23T14:21:08Z</time>
      </trkpt>
      <trkpt lat="44.36878" lon="5.61505">
        <ele>841</ele>
        <time>2019-03-23T14:21:09Z</time>
      </trkpt>
      <trkpt lat="44.3688" lon="5.61507">
        <ele>842</ele>
        <time>2019-03-23T14:21:10Z</time>
      </trkpt>
      <trkpt lat="44.36883" lon="5.61509">
        <ele>842</ele>
        <time>2019-03-23T14:21:11Z</time>
      </trkpt>
      <trkpt lat="44.36885" lon="5.6151">
        <ele>842</ele>
        <time>2019-03-23T14:21:12Z</time>
      </trkpt>
      <trkpt lat="44.36888" lon="5.61512">
        <ele>843</ele>
        <time>2019-03-23T14:21:13Z</time>
      </trkpt>
      <trkpt lat="44.3689" lon="5.61513">
        <ele>843</ele>
        <time>2019-03-23T14:21:14Z</time>
      </trkpt>
      <trkpt lat="44.36893" lon="5.61514">
        <ele>843</ele>
        <time>2019-03-23T14:21:15Z</time>
      </trkpt>
      <trkpt lat="44.36895" lon="5.61515">
        <ele>843</ele>
        <time>2019-03-23T14:21:16Z</time>
      </trkpt>
      <trkpt lat="44.36898" lon="5.61515">
        <ele>844</ele>
        <time>2019-03-23T14:21:17Z</time>
      </trkpt>
      <trkpt lat="44.369" lon="5.61515">
        <ele>844</ele>
        <time>2019-03-23T14:21:18Z</time>
      </trkpt>
      <trkpt lat="44.36903" lon="5.61515">
        <ele>844</ele>
        <time>2019-03-23T14:21:19Z</time>
      </trkpt>
      <trkpt lat="44.36905" lon="5.61515">
        <ele>844</ele>
        <time>2019-03-23T14:21:20Z</time>
      </trkpt>
      <trkpt lat="44.36907" lon="5.61515">
        <ele>845</ele>
        <time>2019-03-23T14:21:21Z</time>
      </trkpt>
      <trkpt lat="44.36909" lon="5.61514">
        <ele>845</ele>
        <time>2019-03-23T14:21:22Z</time>
      </trkpt>
      <trkpt lat="44.36911" lon="5.61514">
        <ele>845</ele>
        <time>2019-03-23T14:21:23Z</time>
      </trkpt>
      <trkpt lat="44.36914" lon="5.61513">
        <ele>845</ele>
        <time>2019-03-23T14:21:24Z</time>
      </trkpt>
      <trkpt lat="44.36916" lon="5.61511">
        <ele>845</ele>
        <time>2019-03-23T14:21:25Z</time>
      </trkpt>
      <trkpt lat="44.36919" lon="5.6151">
        <ele>845</ele>
        <time>2019-03-23T14:21:26Z</time>
      </trkpt>
      <trkpt lat="44.36921" lon="5.61509">
        <ele>845</ele>
        <time>2019-03-23T14:21:27Z</time>
      </trkpt>
      <trkpt lat="44.36923" lon="5.61508">
        <ele>845</ele>
        <time>2019-03-23T14:21:28Z</time>
      </trkpt>
      <trkpt lat="44.36925" lon="5.61508">
        <ele>845</ele>
        <time>2019-03-23T14:21:29Z</time>
      </trkpt>
      <trkpt lat="44.36927" lon="5.61506">
        <ele>846</ele>
        <time>2019-03-23T14:21:30Z</time>
      </trkpt>
      <trkpt lat="44.3693" lon="5.61505">
        <ele>846</ele>
        <time>2019-03-23T14:21:31Z</time>
      </trkpt>
      <trkpt lat="44.36932" lon="5.61505">
        <ele>846</ele>
        <time>2019-03-23T14:21:32Z</time>
      </trkpt>
      <trkpt lat="44.36934" lon="5.61504">
        <ele>846</ele>
        <time>2019-03-23T14:21:33Z</time>
      </trkpt>
      <trkpt lat="44.36937" lon="5.61503">
        <ele>846</ele>
        <time>2019-03-23T14:21:34Z</time>
      </trkpt>
      <trkpt lat="44.36939" lon="5.61503">
        <ele>846</ele>
        <time>2019-03-23T14:21:35Z</time>
      </trkpt>
      <trkpt lat="44.36942" lon="5.61502">
        <ele>846</ele>
        <time>2019-03-23T14:21:36Z</time>
      </trkpt>
      <trkpt lat="44.36944" lon="5.61502">
        <ele>846</ele>
        <time>2019-03-23T14:21:37Z</time>
      </trkpt>
      <trkpt lat="44.36946" lon="5.61501">
        <ele>847</ele>
        <time>2019-03-23T14:21:38Z</time>
      </trkpt>
      <trkpt lat="44.36949" lon="5.61501">
        <ele>847</ele>
        <time>2019-03-23T14:21:39Z</time>
      </trkpt>
      <trkpt lat="44.36951" lon="5.61501">
        <ele>847</ele>
        <time>2019-03-23T14:21:40Z</time>
      </trkpt>
      <trkpt lat="44.36954" lon="5.61501">
        <ele>847</ele>
        <time>2019-03-23T14:21:41Z</time>
      </trkpt>
      <trkpt lat="44.36956" lon="5.61501">
        <ele>847</ele>
        <time>2019-03-23T14:21:42Z</time>
      </trkpt>
      <trkpt lat="44.36959" lon="5.61501">
        <ele>847</ele>
        <time>2019-03-23T14:21:43Z</time>
      </trkpt>
      <trkpt lat="44.36961" lon="5.61501">
        <ele>848</ele>
        <time>2019-03-23T14:21:44Z</time>
      </trkpt>
      <trkpt lat="44.36964" lon="5.61501">
        <ele>848</ele>
        <time>2019-03-23T14:21:45Z</time>
      </trkpt>
      <trkpt lat="44.36966" lon="5.61501">
        <ele>848</ele>
        <time>2019-03-23T14:21:46Z</time>
      </trkpt>
      <trkpt lat="44.36969" lon="5.61501">
        <ele>849</ele>
        <time>2019-03-23T14:21:47Z</time>
      </trkpt>
      <trkpt lat="44.36972" lon="5.615">
        <ele>849</ele>
        <time>2019-03-23T14:21:48Z</time>
      </trkpt>
      <trkpt lat="44.36975" lon="5.615">
        <ele>849</ele>
        <time>2019-03-23T14:21:49Z</time>
      </trkpt>
      <trkpt lat="44.36978" lon="5.61499">
        <ele>850</ele>
        <time>2019-03-23T14:21:50Z</time>
      </trkpt>
      <trkpt lat="44.36981" lon="5.61499">
        <ele>850</ele>
        <time>2019-03-23T14:21:51Z</time>
      </trkpt>
      <trkpt lat="44.36984" lon="5.61498">
        <ele>850</ele>
        <time>2019-03-23T14:21:52Z</time>
      </trkpt>
      <trkpt lat="44.36987" lon="5.61498">
        <ele>850</ele>
        <time>2019-03-23T14:21:53Z</time>
      </trkpt>
      <trkpt lat="44.3699" lon="5.61498">
        <ele>850</ele>
        <time>2019-03-23T14:21:54Z</time>
      </trkpt>
      <trkpt lat="44.36993" lon="5.61498">
        <ele>850</ele>
        <time>2019-03-23T14:21:55Z</time>
      </trkpt>
      <trkpt lat="44.36996" lon="5.61497">
        <ele>850</ele>
        <time>2019-03-23T14:21:56Z</time>
      </trkpt>
      <trkpt lat="44.36999" lon="5.61497">
        <ele>850</ele>
        <time>2019-03-23T14:21:57Z</time>
      </trkpt>
      <trkpt lat="44.37002" lon="5.61496">
        <ele>850</ele>
        <time>2019-03-23T14:21:58Z</time>
      </trkpt>
      <trkpt lat="44.37005" lon="5.61496">
        <ele>851</ele>
        <time>2019-03-23T14:21:59Z</time>
      </trkpt>
      <trkpt lat="44.37008" lon="5.61496">
        <ele>851</ele>
        <time>2019-03-23T14:22:00Z</time>
      </trkpt>
      <trkpt lat="44.37011" lon="5.61495">
        <ele>851</ele>
        <time>2019-03-23T14:22:01Z</time>
      </trkpt>
      <trkpt lat="44.37014" lon="5.61495">
        <ele>851</ele>
        <time>2019-03-23T14:22:02Z</time>
      </trkpt>
      <trkpt lat="44.37017" lon="5.61494">
        <ele>851</ele>
        <time>2019-03-23T14:22:03Z</time>
      </trkpt>
      <trkpt lat="44.3702" lon="5.61493">
        <ele>851</ele>
        <time>2019-03-23T14:22:04Z</time>
      </trkpt>
      <trkpt lat="44.37023" lon="5.61493">
        <ele>852</ele>
        <time>2019-03-23T14:22:05Z</time>
      </trkpt>
      <trkpt lat="44.37025" lon="5.61493">
        <ele>852</ele>
        <time>2019-03-23T14:22:06Z</time>
      </trkpt>
      <trkpt lat="44.37028" lon="5.61492">
        <ele>852</ele>
        <time>2019-03-23T14:22:07Z</time>
      </trkpt>
      <trkpt lat="44.37031" lon="5.61491">
        <ele>852</ele>
        <time>2019-03-23T14:22:08Z</time>
      </trkpt>
      <trkpt lat="44.37034" lon="5.61491">
        <ele>852</ele>
        <time>2019-03-23T14:22:09Z</time>
      </trkpt>
      <trkpt lat="44.37037" lon="5.61491">
        <ele>853</ele>
        <time>2019-03-23T14:22:10Z</time>
      </trkpt>
      <trkpt lat="44.37039" lon="5.6149">
        <ele>853</ele>
        <time>2019-03-23T14:22:11Z</time>
      </trkpt>
      <trkpt lat="44.37042" lon="5.61489">
        <ele>853</ele>
        <time>2019-03-23T14:22:12Z</time>
      </trkpt>
      <trkpt lat="44.37045" lon="5.61488">
        <ele>853</ele>
        <time>2019-03-23T14:22:13Z</time>
      </trkpt>
      <trkpt lat="44.37047" lon="5.61488">
        <ele>853</ele>
        <time>2019-03-23T14:22:14Z</time>
      </trkpt>
      <trkpt lat="44.3705" lon="5.61487">
        <ele>853</ele>
        <time>2019-03-23T14:22:15Z</time>
      </trkpt>
      <trkpt lat="44.37052" lon="5.61487">
        <ele>853</ele>
        <time>2019-03-23T14:22:16Z</time>
      </trkpt>
      <trkpt lat="44.37056" lon="5.61485">
        <ele>853</ele>
        <time>2019-03-23T14:22:17Z</time>
      </trkpt>
      <trkpt lat="44.37059" lon="5.61484">
        <ele>854</ele>
        <time>2019-03-23T14:22:18Z</time>
      </trkpt>
      <trkpt lat="44.37062" lon="5.61483">
        <ele>854</ele>
        <time>2019-03-23T14:22:19Z</time>
      </trkpt>
      <trkpt lat="44.37065" lon="5.61482">
        <ele>854</ele>
        <time>2019-03-23T14:22:20Z</time>
      </trkpt>
      <trkpt lat="44.37068" lon="5.61481">
        <ele>854</ele>
        <time>2019-03-23T14:22:21Z</time>
      </trkpt>
      <trkpt lat="44.37071" lon="5.61479">
        <ele>854</ele>
        <time>2019-03-23T14:22:22Z</time>
      </trkpt>
      <trkpt lat="44.37074" lon="5.61478">
        <ele>854</ele>
        <time>2019-03-23T14:22:23Z</time>
      </trkpt>
      <trkpt lat="44.37078" lon="5.61477">
        <ele>854</ele>
        <time>2019-03-23T14:22:24Z</time>
      </trkpt>
      <trkpt lat="44.37081" lon="5.61475">
        <ele>854</ele>
        <time>2019-03-23T14:22:25Z</time>
      </trkpt>
      <trkpt lat="44.37084" lon="5.61474">
        <ele>854</ele>
        <time>2019-03-23T14:22:26Z</time>
      </trkpt>
      <trkpt lat="44.37088" lon="5.61472">
        <ele>854</ele>
        <time>2019-03-23T14:22:27Z</time>
      </trkpt>
      <trkpt lat="44.37092" lon="5.61471">
        <ele>854</ele>
        <time>2019-03-23T14:22:28Z</time>
      </trkpt>
      <trkpt lat="44.37095" lon="5.61469">
        <ele>854</ele>
        <time>2019-03-23T14:22:29Z</time>
      </trkpt>
      <trkpt lat="44.37099" lon="5.61468">
        <ele>854</ele>
        <time>2019-03-23T14:22:30Z</time>
      </trkpt>
      <trkpt lat="44.37101" lon="5.61466">
        <ele>854</ele>
        <time>2019-03-23T14:22:31Z</time>
      </trkpt>
      <trkpt lat="44.37104" lon="5.61464">
        <ele>854</ele>
        <time>2019-03-23T14:22:32Z</time>
      </trkpt>
      <trkpt lat="44.37107" lon="5.61462">
        <ele>854</ele>
        <time>2019-03-23T14:22:33Z</time>
      </trkpt>
      <trkpt lat="44.37111" lon="5.61459">
        <ele>854</ele>
        <time>2019-03-23T14:22:34Z</time>
      </trkpt>
      <trkpt lat="44.37114" lon="5.61457">
        <ele>854</ele>
        <time>2019-03-23T14:22:35Z</time>
      </trkpt>
      <trkpt lat="44.37118" lon="5.61455">
        <ele>855</ele>
        <time>2019-03-23T14:22:36Z</time>
      </trkpt>
      <trkpt lat="44.37121" lon="5.61453">
        <ele>855</ele>
        <time>2019-03-23T14:22:37Z</time>
      </trkpt>
      <trkpt lat="44.37123" lon="5.61451">
        <ele>855</ele>
        <time>2019-03-23T14:22:38Z</time>
      </trkpt>
      <trkpt lat="44.37127" lon="5.61449">
        <ele>855</ele>
        <time>2019-03-23T14:22:39Z</time>
      </trkpt>
      <trkpt lat="44.37131" lon="5.61447">
        <ele>855</ele>
        <time>2019-03-23T14:22:40Z</time>
      </trkpt>
      <trkpt lat="44.37133" lon="5.61444">
        <ele>855</ele>
        <time>2019-03-23T14:22:41Z</time>
      </trkpt>
      <trkpt lat="44.37136" lon="5.61442">
        <ele>855</ele>
        <time>2019-03-23T14:22:42Z</time>
      </trkpt>
      <trkpt lat="44.37139" lon="5.6144">
        <ele>856</ele>
        <time>2019-03-23T14:22:43Z</time>
      </trkpt>
      <trkpt lat="44.37143" lon="5.61438">
        <ele>856</ele>
        <time>2019-03-23T14:22:44Z</time>
      </trkpt>
      <trkpt lat="44.37146" lon="5.61436">
        <ele>856</ele>
        <time>2019-03-23T14:22:45Z</time>
      </trkpt>
      <trkpt lat="44.37149" lon="5.61434">
        <ele>856</ele>
        <time>2019-03-23T14:22:46Z</time>
      </trkpt>
      <trkpt lat="44.37152" lon="5.61432">
        <ele>856</ele>
        <time>2019-03-23T14:22:47Z</time>
      </trkpt>
      <trkpt lat="44.37155" lon="5.61429">
        <ele>856</ele>
        <time>2019-03-23T14:22:48Z</time>
      </trkpt>
      <trkpt lat="44.37157" lon="5.61426">
        <ele>857</ele>
        <time>2019-03-23T14:22:49Z</time>
      </trkpt>
      <trkpt lat="44.3716" lon="5.61424">
        <ele>857</ele>
        <time>2019-03-23T14:22:50Z</time>
      </trkpt>
      <trkpt lat="44.37163" lon="5.6142">
        <ele>857</ele>
        <time>2019-03-23T14:22:51Z</time>
      </trkpt>
      <trkpt lat="44.37166" lon="5.61418">
        <ele>857</ele>
        <time>2019-03-23T14:22:52Z</time>
      </trkpt>
      <trkpt lat="44.37169" lon="5.61415">
        <ele>857</ele>
        <time>2019-03-23T14:22:53Z</time>
      </trkpt>
      <trkpt lat="44.37171" lon="5.61413">
        <ele>857</ele>
        <time>2019-03-23T14:22:54Z</time>
      </trkpt>
      <trkpt lat="44.37174" lon="5.61411">
        <ele>858</ele>
        <time>2019-03-23T14:22:55Z</time>
      </trkpt>
      <trkpt lat="44.37178" lon="5.61408">
        <ele>858</ele>
        <time>2019-03-23T14:22:56Z</time>
      </trkpt>
      <trkpt lat="44.3718" lon="5.61405">
        <ele>858</ele>
        <time>2019-03-23T14:22:57Z</time>
      </trkpt>
      <trkpt lat="44.37184" lon="5.61402">
        <ele>858</ele>
        <time>2019-03-23T14:22:58Z</time>
      </trkpt>
      <trkpt lat="44.37187" lon="5.614">
        <ele>858</ele>
        <time>2019-03-23T14:22:59Z</time>
      </trkpt>
      <trkpt lat="44.3719" lon="5.61398">
        <ele>858</ele>
        <time>2019-03-23T14:23:00Z</time>
      </trkpt>
      <trkpt lat="44.37193" lon="5.61395">
        <ele>858</ele>
        <time>2019-03-23T14:23:01Z</time>
      </trkpt>
      <trkpt lat="44.37196" lon="5.61393">
        <ele>859</ele>
        <time>2019-03-23T14:23:02Z</time>
      </trkpt>
      <trkpt lat="44.37199" lon="5.61391">
        <ele>859</ele>
        <time>2019-03-23T14:23:03Z</time>
      </trkpt>
      <trkpt lat="44.37203" lon="5.6139">
        <ele>859</ele>
        <time>2019-03-23T14:23:04Z</time>
      </trkpt>
      <trkpt lat="44.37206" lon="5.61388">
        <ele>859</ele>
        <time>2019-03-23T14:23:05Z</time>
      </trkpt>
      <trkpt lat="44.3721" lon="5.61387">
        <ele>859</ele>
        <time>2019-03-23T14:23:06Z</time>
      </trkpt>
      <trkpt lat="44.37214" lon="5.61387">
        <ele>859</ele>
        <time>2019-03-23T14:23:07Z</time>
      </trkpt>
      <trkpt lat="44.37217" lon="5.61387">
        <ele>859</ele>
        <time>2019-03-23T14:23:08Z</time>
      </trkpt>
      <trkpt lat="44.3722" lon="5.61387">
        <ele>859</ele>
        <time>2019-03-23T14:23:09Z</time>
      </trkpt>
      <trkpt lat="44.37224" lon="5.61388">
        <ele>860</ele>
        <time>2019-03-23T14:23:10Z</time>
      </trkpt>
      <trkpt lat="44.37228" lon="5.61389">
        <ele>860</ele>
        <time>2019-03-23T14:23:11Z</time>
      </trkpt>
      <trkpt lat="44.37232" lon="5.6139">
        <ele>860</ele>
        <time>2019-03-23T14:23:12Z</time>
      </trkpt>
      <trkpt lat="44.37236" lon="5.61392">
        <ele>860</ele>
        <time>2019-03-23T14:23:13Z</time>
      </trkpt>
      <trkpt lat="44.37239" lon="5.61393">
        <ele>861</ele>
        <time>2019-03-23T14:23:14Z</time>
      </trkpt>
      <trkpt lat="44.37243" lon="5.61393">
        <ele>861</ele>
        <time>2019-03-23T14:23:15Z</time>
      </trkpt>
      <trkpt lat="44.37247" lon="5.61394">
        <ele>861</ele>
        <time>2019-03-23T14:23:16Z</time>
      </trkpt>
      <trkpt lat="44.37251" lon="5.61394">
        <ele>861</ele>
        <time>2019-03-23T14:23:17Z</time>
      </trkpt>
      <trkpt lat="44.37255" lon="5.61394">
        <ele>861</ele>
        <time>2019-03-23T14:23:18Z</time>
      </trkpt>
      <trkpt lat="44.37259" lon="5.61395">
        <ele>861</ele>
        <time>2019-03-23T14:23:19Z</time>
      </trkpt>
      <trkpt lat="44.37264" lon="5.61394">
        <ele>861</ele>
        <time>2019-03-23T14:23:20Z</time>
      </trkpt>
      <trkpt lat="44.37268" lon="5.61394">
        <ele>861</ele>
        <time>2019-03-23T14:23:21Z</time>
      </trkpt>
      <trkpt lat="44.37272" lon="5.61394">
        <ele>862</ele>
        <time>2019-03-23T14:23:22Z</time>
      </trkpt>
      <trkpt lat="44.37276" lon="5.61394">
        <ele>862</ele>
        <time>2019-03-23T14:23:23Z</time>
      </trkpt>
      <trkpt lat="44.3728" lon="5.61393">
        <ele>862</ele>
        <time>2019-03-23T14:23:24Z</time>
      </trkpt>
      <trkpt lat="44.37284" lon="5.61393">
        <ele>862</ele>
        <time>2019-03-23T14:23:25Z</time>
      </trkpt>
      <trkpt lat="44.37288" lon="5.61393">
        <ele>863</ele>
        <time>2019-03-23T14:23:26Z</time>
      </trkpt>
      <trkpt lat="44.37292" lon="5.61392">
        <ele>863</ele>
        <time>2019-03-23T14:23:27Z</time>
      </trkpt>
      <trkpt lat="44.37296" lon="5.61392">
        <ele>863</ele>
        <time>2019-03-23T14:23:28Z</time>
      </trkpt>
      <trkpt lat="44.373" lon="5.61392">
        <ele>863</ele>
        <time>2019-03-23T14:23:29Z</time>
      </trkpt>
      <trkpt lat="44.37304" lon="5.61391">
        <ele>863</ele>
        <time>2019-03-23T14:23:30Z</time>
      </trkpt>
      <trkpt lat="44.37308" lon="5.61391">
        <ele>863</ele>
        <time>2019-03-23T14:23:31Z</time>
      </trkpt>
      <trkpt lat="44.37312" lon="5.6139">
        <ele>863</ele>
        <time>2019-03-23T14:23:32Z</time>
      </trkpt>
      <trkpt lat="44.37316" lon="5.61389">
        <ele>864</ele>
        <time>2019-03-23T14:23:33Z</time>
      </trkpt>
      <trkpt lat="44.3732" lon="5.61387">
        <ele>864</ele>
        <time>2019-03-23T14:23:34Z</time>
      </trkpt>
      <trkpt lat="44.37324" lon="5.61386">
        <ele>864</ele>
        <time>2019-03-23T14:23:35Z</time>
      </trkpt>
      <trkpt lat="44.37328" lon="5.61385">
        <ele>864</ele>
        <time>2019-03-23T14:23:36Z</time>
      </trkpt>
      <trkpt lat="44.37332" lon="5.61383">
        <ele>864</ele>
        <time>2019-03-23T14:23:37Z</time>
      </trkpt>
      <trkpt lat="44.37336" lon="5.61382">
        <ele>864</ele>
        <time>2019-03-23T14:23:38Z</time>
      </trkpt>
      <trkpt lat="44.37339" lon="5.6138">
        <ele>864</ele>
        <time>2019-03-23T14:23:39Z</time>
      </trkpt>
      <trkpt lat="44.37343" lon="5.61378">
        <ele>864</ele>
        <time>2019-03-23T14:23:40Z</time>
      </trkpt>
      <trkpt lat="44.37347" lon="5.61376">
        <ele>864</ele>
        <time>2019-03-23T14:23:41Z</time>
      </trkpt>
      <trkpt lat="44.3735" lon="5.61375">
        <ele>864</ele>
        <time>2019-03-23T14:23:42Z</time>
      </trkpt>
      <trkpt lat="44.37354" lon="5.61372">
        <ele>864</ele>
        <time>2019-03-23T14:23:43Z</time>
      </trkpt>
      <trkpt lat="44.37357" lon="5.6137">
        <ele>864</ele>
        <time>2019-03-23T14:23:44Z</time>
      </trkpt>
      <trkpt lat="44.37361" lon="5.61368">
        <ele>864</ele>
        <time>2019-03-23T14:23:45Z</time>
      </trkpt>
      <trkpt lat="44.37365" lon="5.61366">
        <ele>864</ele>
        <time>2019-03-23T14:23:46Z</time>
      </trkpt>
      <trkpt lat="44.37369" lon="5.61364">
        <ele>864</ele>
        <time>2019-03-23T14:23:47Z</time>
      </trkpt>
      <trkpt lat="44.37373" lon="5.61363">
        <ele>864</ele>
        <time>2019-03-23T14:23:48Z</time>
      </trkpt>
      <trkpt lat="44.37376" lon="5.61361">
        <ele>864</ele>
        <time>2019-03-23T14:23:49Z</time>
      </trkpt>
      <trkpt lat="44.37381" lon="5.6136">
        <ele>864</ele>
        <time>2019-03-23T14:23:50Z</time>
      </trkpt>
      <trkpt lat="44.37385" lon="5.61358">
        <ele>864</ele>
        <time>2019-03-23T14:23:51Z</time>
      </trkpt>
      <trkpt lat="44.37389" lon="5.61358">
        <ele>865</ele>
        <time>2019-03-23T14:23:52Z</time>
      </trkpt>
      <trkpt lat="44.37393" lon="5.61358">
        <ele>865</ele>
        <time>2019-03-23T14:23:53Z</time>
      </trkpt>
      <trkpt lat="44.37397" lon="5.61359">
        <ele>865</ele>
        <time>2019-03-23T14:23:54Z</time>
      </trkpt>
      <trkpt lat="44.37401" lon="5.6136">
        <ele>865</ele>
        <time>2019-03-23T14:23:55Z</time>
      </trkpt>
      <trkpt lat="44.37405" lon="5.61361">
        <ele>865</ele>
        <time>2019-03-23T14:23:56Z</time>
      </trkpt>
      <trkpt lat="44.3741" lon="5.61361">
        <ele>866</ele>
        <time>2019-03-23T14:23:57Z</time>
      </trkpt>
      <trkpt lat="44.37414" lon="5.61362">
        <ele>866</ele>
        <time>2019-03-23T14:23:58Z</time>
      </trkpt>
      <trkpt lat="44.37419" lon="5.61363">
        <ele>866</ele>
        <time>2019-03-23T14:23:59Z</time>
      </trkpt>
      <trkpt lat="44.37423" lon="5.61364">
        <ele>866</ele>
        <time>2019-03-23T14:24:00Z</time>
      </trkpt>
      <trkpt lat="44.37428" lon="5.61363">
        <ele>867</ele>
        <time>2019-03-23T14:24:01Z</time>
      </trkpt>
      <trkpt lat="44.37431" lon="5.61362">
        <ele>867</ele>
        <time>2019-03-23T14:24:02Z</time>
      </trkpt>
      <trkpt lat="44.37435" lon="5.61361">
        <ele>867</ele>
        <time>2019-03-23T14:24:03Z</time>
      </trkpt>
      <trkpt lat="44.37439" lon="5.61359">
        <ele>867</ele>
        <time>2019-03-23T14:24:04Z</time>
      </trkpt>
      <trkpt lat="44.37443" lon="5.61357">
        <ele>867</ele>
        <time>2019-03-23T14:24:05Z</time>
      </trkpt>
      <trkpt lat="44.37446" lon="5.61354">
        <ele>867</ele>
        <time>2019-03-23T14:24:06Z</time>
      </trkpt>
      <trkpt lat="44.37449" lon="5.61352">
        <ele>867</ele>
        <time>2019-03-23T14:24:07Z</time>
      </trkpt>
      <trkpt lat="44.37452" lon="5.61349">
        <ele>867</ele>
        <time>2019-03-23T14:24:08Z</time>
      </trkpt>
      <trkpt lat="44.37454" lon="5.61346">
        <ele>868</ele>
        <time>2019-03-23T14:24:09Z</time>
      </trkpt>
      <trkpt lat="44.37457" lon="5.61344">
        <ele>868</ele>
        <time>2019-03-23T14:24:10Z</time>
      </trkpt>
      <trkpt lat="44.3746" lon="5.61341">
        <ele>868</ele>
        <time>2019-03-23T14:24:11Z</time>
      </trkpt>
      <trkpt lat="44.37462" lon="5.61339">
        <ele>868</ele>
        <time>2019-03-23T14:24:12Z</time>
      </trkpt>
      <trkpt lat="44.37465" lon="5.61337">
        <ele>868</ele>
        <time>2019-03-23T14:24:13Z</time>
      </trkpt>
      <trkpt lat="44.37467" lon="5.61335">
        <ele>869</ele>
        <time>2019-03-23T14:24:14Z</time>
      </trkpt>
      <trkpt lat="44.37469" lon="5.61334">
        <ele>869</ele>
        <time>2019-03-23T14:24:15Z</time>
      </trkpt>
      <trkpt lat="44.37472" lon="5.61332">
        <ele>869</ele>
        <time>2019-03-23T14:24:16Z</time>
      </trkpt>
      <trkpt lat="44.37475" lon="5.61332">
        <ele>870</ele>
        <time>2019-03-23T14:24:17Z</time>
      </trkpt>
      <trkpt lat="44.37478" lon="5.61331">
        <ele>870</ele>
        <time>2019-03-23T14:24:18Z</time>
      </trkpt>
      <trkpt lat="44.37482" lon="5.61329">
        <ele>871</ele>
        <time>2019-03-23T14:24:19Z</time>
      </trkpt>
      <trkpt lat="44.37484" lon="5.61328">
        <ele>871</ele>
        <time>2019-03-23T14:24:20Z</time>
      </trkpt>
      <trkpt lat="44.37487" lon="5.61327">
        <ele>871</ele>
        <time>2019-03-23T14:24:21Z</time>
      </trkpt>
      <trkpt lat="44.3749" lon="5.61326">
        <ele>872</ele>
        <time>2019-03-23T14:24:22Z</time>
      </trkpt>
      <trkpt lat="44.37492" lon="5.61324">
        <ele>872</ele>
        <time>2019-03-23T14:24:23Z</time>
      </trkpt>
      <trkpt lat="44.37494" lon="5.61322">
        <ele>872</ele>
        <time>2019-03-23T14:24:24Z</time>
      </trkpt>
      <trkpt lat="44.37495" lon="5.61319">
        <ele>872</ele>
        <time>2019-03-23T14:24:25Z</time>
      </trkpt>
      <trkpt lat="44.37498" lon="5.61317">
        <ele>872</ele>
        <time>2019-03-23T14:24:26Z</time>
      </trkpt>
      <trkpt lat="44.375" lon="5.61315">
        <ele>872</ele>
        <time>2019-03-23T14:24:27Z</time>
      </trkpt>
      <trkpt lat="44.37502" lon="5.61312">
        <ele>872</ele>
        <time>2019-03-23T14:24:28Z</time>
      </trkpt>
      <trkpt lat="44.37504" lon="5.6131">
        <ele>872</ele>
        <time>2019-03-23T14:24:29Z</time>
      </trkpt>
      <trkpt lat="44.37507" lon="5.61308">
        <ele>872</ele>
        <time>2019-03-23T14:24:30Z</time>
      </trkpt>
      <trkpt lat="44.37509" lon="5.61306">
        <ele>872</ele>
        <time>2019-03-23T14:24:31Z</time>
      </trkpt>
      <trkpt lat="44.37511" lon="5.61303">
        <ele>872</ele>
        <time>2019-03-23T14:24:32Z</time>
      </trkpt>
      <trkpt lat="44.37513" lon="5.613">
        <ele>873</ele>
        <time>2019-03-23T14:24:33Z</time>
      </trkpt>
      <trkpt lat="44.37515" lon="5.61297">
        <ele>873</ele>
        <time>2019-03-23T14:24:34Z</time>
      </trkpt>
      <trkpt lat="44.37518" lon="5.61294">
        <ele>873</ele>
        <time>2019-03-23T14:24:35Z</time>
      </trkpt>
      <trkpt lat="44.3752" lon="5.61291">
        <ele>873</ele>
        <time>2019-03-23T14:24:36Z</time>
      </trkpt>
      <trkpt lat="44.37522" lon="5.61289">
        <ele>874</ele>
        <time>2019-03-23T14:24:37Z</time>
      </trkpt>
      <trkpt lat="44.37524" lon="5.61286">
        <ele>874</ele>
        <time>2019-03-23T14:24:38Z</time>
      </trkpt>
      <trkpt lat="44.37526" lon="5.61283">
        <ele>874</ele>
        <time>2019-03-23T14:24:39Z</time>
      </trkpt>
      <trkpt lat="44.37527" lon="5.61281">
        <ele>874</ele>
        <time>2019-03-23T14:24:40Z</time>
      </trkpt>
      <trkpt lat="44.37529" lon="5.61278">
        <ele>874</ele>
        <time>2019-03-23T14:24:41Z</time>
      </trkpt>
      <trkpt lat="44.37531" lon="5.61275">
        <ele>874</ele>
        <time>2019-03-23T14:24:42Z</time>
      </trkpt>
      <trkpt lat="44.37532" lon="5.61272">
        <ele>874</ele>
        <time>2019-03-23T14:24:43Z</time>
      </trkpt>
      <trkpt lat="44.37534" lon="5.61269">
        <ele>874</ele>
        <time>2019-03-23T14:24:44Z</time>
      </trkpt>
      <trkpt lat="44.37535" lon="5.61266">
        <ele>874</ele>
        <time>2019-03-23T14:24:45Z</time>
      </trkpt>
      <trkpt lat="44.37537" lon="5.61263">
        <ele>874</ele>
        <time>2019-03-23T14:24:46Z</time>
      </trkpt>
      <trkpt lat="44.37538" lon="5.6126">
        <ele>874</ele>
        <time>2019-03-23T14:24:47Z</time>
      </trkpt>
      <trkpt lat="44.37539" lon="5.61257">
        <ele>874</ele>
        <time>2019-03-23T14:24:48Z</time>
      </trkpt>
      <trkpt lat="44.37541" lon="5.61254">
        <ele>874</ele>
        <time>2019-03-23T14:24:49Z</time>
      </trkpt>
      <trkpt lat="44.37542" lon="5.61251">
        <ele>874</ele>
        <time>2019-03-23T14:24:50Z</time>
      </trkpt>
      <trkpt lat="44.37543" lon="5.61248">
        <ele>874</ele>
        <time>2019-03-23T14:24:51Z</time>
      </trkpt>
      <trkpt lat="44.37545" lon="5.61245">
        <ele>874</ele>
        <time>2019-03-23T14:24:52Z</time>
      </trkpt>
      <trkpt lat="44.37547" lon="5.61242">
        <ele>875</ele>
        <time>2019-03-23T14:24:53Z</time>
      </trkpt>
      <trkpt lat="44.37548" lon="5.61239">
        <ele>875</ele>
        <time>2019-03-23T14:24:54Z</time>
      </trkpt>
      <trkpt lat="44.37549" lon="5.61236">
        <ele>875</ele>
        <time>2019-03-23T14:24:55Z</time>
      </trkpt>
      <trkpt lat="44.37551" lon="5.61233">
        <ele>875</ele>
        <time>2019-03-23T14:24:56Z</time>
      </trkpt>
      <trkpt lat="44.37552" lon="5.6123">
        <ele>875</ele>
        <time>2019-03-23T14:24:57Z</time>
      </trkpt>
      <trkpt lat="44.37553" lon="5.61227">
        <ele>876</ele>
        <time>2019-03-23T14:24:58Z</time>
      </trkpt>
      <trkpt lat="44.37554" lon="5.61224">
        <ele>876</ele>
        <time>2019-03-23T14:24:59Z</time>
      </trkpt>
      <trkpt lat="44.37555" lon="5.61221">
        <ele>876</ele>
        <time>2019-03-23T14:25:00Z</time>
      </trkpt>
      <trkpt lat="44.37557" lon="5.61219">
        <ele>876</ele>
        <time>2019-03-23T14:25:01Z</time>
      </trkpt>
      <trkpt lat="44.37558" lon="5.61216">
        <ele>877</ele>
        <time>2019-03-23T14:25:02Z</time>
      </trkpt>
      <trkpt lat="44.3756" lon="5.61213">
        <ele>877</ele>
        <time>2019-03-23T14:25:03Z</time>
      </trkpt>
      <trkpt lat="44.37561" lon="5.6121">
        <ele>877</ele>
        <time>2019-03-23T14:25:04Z</time>
      </trkpt>
      <trkpt lat="44.37562" lon="5.61207">
        <ele>877</ele>
        <time>2019-03-23T14:25:05Z</time>
      </trkpt>
      <trkpt lat="44.37563" lon="5.61204">
        <ele>877</ele>
        <time>2019-03-23T14:25:06Z</time>
      </trkpt>
      <trkpt lat="44.37565" lon="5.61201">
        <ele>877</ele>
        <time>2019-03-23T14:25:07Z</time>
      </trkpt>
      <trkpt lat="44.37566" lon="5.61198">
        <ele>878</ele>
        <time>2019-03-23T14:25:08Z</time>
      </trkpt>
      <trkpt lat="44.37567" lon="5.61196">
        <ele>878</ele>
        <time>2019-03-23T14:25:09Z</time>
      </trkpt>
      <trkpt lat="44.37569" lon="5.61193">
        <ele>878</ele>
        <time>2019-03-23T14:25:10Z</time>
      </trkpt>
      <trkpt lat="44.3757" lon="5.6119">
        <ele>878</ele>
        <time>2019-03-23T14:25:11Z</time>
      </trkpt>
      <trkpt lat="44.37571" lon="5.61187">
        <ele>878</ele>
        <time>2019-03-23T14:25:12Z</time>
      </trkpt>
      <trkpt lat="44.37573" lon="5.61184">
        <ele>878</ele>
        <time>2019-03-23T14:25:13Z</time>
      </trkpt>
      <trkpt lat="44.37574" lon="5.61181">
        <ele>879</ele>
        <time>2019-03-23T14:25:14Z</time>
      </trkpt>
      <trkpt lat="44.37575" lon="5.61178">
        <ele>879</ele>
        <time>2019-03-23T14:25:15Z</time>
      </trkpt>
      <trkpt lat="44.37577" lon="5.61176">
        <ele>879</ele>
        <time>2019-03-23T14:25:16Z</time>
      </trkpt>
      <trkpt lat="44.37579" lon="5.61173">
        <ele>879</ele>
        <time>2019-03-23T14:25:17Z</time>
      </trkpt>
      <trkpt lat="44.3758" lon="5.6117">
        <ele>879</ele>
        <time>2019-03-23T14:25:18Z</time>
      </trkpt>
      <trkpt lat="44.37581" lon="5.61167">
        <ele>879</ele>
        <time>2019-03-23T14:25:19Z</time>
      </trkpt>
      <trkpt lat="44.37583" lon="5.61164">
        <ele>879</ele>
        <time>2019-03-23T14:25:20Z</time>
      </trkpt>
      <trkpt lat="44.37584" lon="5.6116">
        <ele>879</ele>
        <time>2019-03-23T14:25:21Z</time>
      </trkpt>
      <trkpt lat="44.37585" lon="5.61158">
        <ele>879</ele>
        <time>2019-03-23T14:25:22Z</time>
      </trkpt>
      <trkpt lat="44.37587" lon="5.61155">
        <ele>879</ele>
        <time>2019-03-23T14:25:23Z</time>
      </trkpt>
      <trkpt lat="44.37588" lon="5.61152">
        <ele>880</ele>
        <time>2019-03-23T14:25:24Z</time>
      </trkpt>
      <trkpt lat="44.3759" lon="5.6115">
        <ele>880</ele>
        <time>2019-03-23T14:25:25Z</time>
      </trkpt>
      <trkpt lat="44.37591" lon="5.61147">
        <ele>880</ele>
        <time>2019-03-23T14:25:26Z</time>
      </trkpt>
      <trkpt lat="44.37592" lon="5.61144">
        <ele>880</ele>
        <time>2019-03-23T14:25:27Z</time>
      </trkpt>
      <trkpt lat="44.37593" lon="5.61141">
        <ele>880</ele>
        <time>2019-03-23T14:25:28Z</time>
      </trkpt>
      <trkpt lat="44.37595" lon="5.61139">
        <ele>880</ele>
        <time>2019-03-23T14:25:29Z</time>
      </trkpt>
      <trkpt lat="44.37597" lon="5.61136">
        <ele>880</ele>
        <time>2019-03-23T14:25:30Z</time>
      </trkpt>
      <trkpt lat="44.37598" lon="5.61134">
        <ele>880</ele>
        <time>2019-03-23T14:25:31Z</time>
      </trkpt>
      <trkpt lat="44.376" lon="5.61131">
        <ele>880</ele>
        <time>2019-03-23T14:25:32Z</time>
      </trkpt>
      <trkpt lat="44.37601" lon="5.61128">
        <ele>880</ele>
        <time>2019-03-23T14:25:33Z</time>
      </trkpt>
      <trkpt lat="44.37603" lon="5.61125">
        <ele>881</ele>
        <time>2019-03-23T14:25:34Z</time>
      </trkpt>
      <trkpt lat="44.37604" lon="5.61122">
        <ele>881</ele>
        <time>2019-03-23T14:25:35Z</time>
      </trkpt>
      <trkpt lat="44.37606" lon="5.61119">
        <ele>881</ele>
        <time>2019-03-23T14:25:36Z</time>
      </trkpt>
      <trkpt lat="44.37607" lon="5.61116">
        <ele>881</ele>
        <time>2019-03-23T14:25:37Z</time>
      </trkpt>
      <trkpt lat="44.37609" lon="5.61112">
        <ele>881</ele>
        <time>2019-03-23T14:25:38Z</time>
      </trkpt>
      <trkpt lat="44.3761" lon="5.61109">
        <ele>881</ele>
        <time>2019-03-23T14:25:39Z</time>
      </trkpt>
      <trkpt lat="44.37611" lon="5.61106">
        <ele>881</ele>
        <time>2019-03-23T14:25:40Z</time>
      </trkpt>
      <trkpt lat="44.37613" lon="5.61103">
        <ele>881</ele>
        <time>2019-03-23T14:25:41Z</time>
      </trkpt>
      <trkpt lat="44.37614" lon="5.611">
        <ele>881</ele>
        <time>2019-03-23T14:25:42Z</time>
      </trkpt>
      <trkpt lat="44.37615" lon="5.61097">
        <ele>881</ele>
        <time>2019-03-23T14:25:43Z</time>
      </trkpt>
      <trkpt lat="44.37616" lon="5.61094">
        <ele>881</ele>
        <time>2019-03-23T14:25:44Z</time>
      </trkpt>
      <trkpt lat="44.37618" lon="5.61091">
        <ele>881</ele>
        <time>2019-03-23T14:25:45Z</time>
      </trkpt>
      <trkpt lat="44.37619" lon="5.61088">
        <ele>881</ele>
        <time>2019-03-23T14:25:46Z</time>
      </trkpt>
      <trkpt lat="44.3762" lon="5.61085">
        <ele>881</ele>
        <time>2019-03-23T14:25:47Z</time>
      </trkpt>
      <trkpt lat="44.37621" lon="5.61082">
        <ele>881</ele>
        <time>2019-03-23T14:25:48Z</time>
      </trkpt>
      <trkpt lat="44.37623" lon="5.61079">
        <ele>881</ele>
        <time>2019-03-23T14:25:49Z</time>
      </trkpt>
      <trkpt lat="44.37624" lon="5.61076">
        <ele>882</ele>
        <time>2019-03-23T14:25:50Z</time>
      </trkpt>
      <trkpt lat="44.37626" lon="5.61073">
        <ele>882</ele>
        <time>2019-03-23T14:25:51Z</time>
      </trkpt>
      <trkpt lat="44.37627" lon="5.6107">
        <ele>882</ele>
        <time>2019-03-23T14:25:52Z</time>
      </trkpt>
      <trkpt lat="44.37628" lon="5.61068">
        <ele>882</ele>
        <time>2019-03-23T14:25:53Z</time>
      </trkpt>
      <trkpt lat="44.37629" lon="5.61065">
        <ele>883</ele>
        <time>2019-03-23T14:25:54Z</time>
      </trkpt>
      <trkpt lat="44.37631" lon="5.61062">
        <ele>883</ele>
        <time>2019-03-23T14:25:55Z</time>
      </trkpt>
      <trkpt lat="44.37632" lon="5.6106">
        <ele>883</ele>
        <time>2019-03-23T14:25:56Z</time>
      </trkpt>
      <trkpt lat="44.37634" lon="5.61057">
        <ele>883</ele>
        <time>2019-03-23T14:25:57Z</time>
      </trkpt>
      <trkpt lat="44.37635" lon="5.61054">
        <ele>884</ele>
        <time>2019-03-23T14:25:58Z</time>
      </trkpt>
      <trkpt lat="44.37637" lon="5.61052">
        <ele>884</ele>
        <time>2019-03-23T14:25:59Z</time>
      </trkpt>
      <trkpt lat="44.37638" lon="5.61049">
        <ele>884</ele>
        <time>2019-03-23T14:26:00Z</time>
      </trkpt>
      <trkpt lat="44.3764" lon="5.61047">
        <ele>884</ele>
        <time>2019-03-23T14:26:01Z</time>
      </trkpt>
      <trkpt lat="44.37642" lon="5.61045">
        <ele>884</ele>
        <time>2019-03-23T14:26:02Z</time>
      </trkpt>
      <trkpt lat="44.37644" lon="5.61043">
        <ele>885</ele>
        <time>2019-03-23T14:26:03Z</time>
      </trkpt>
      <trkpt lat="44.37645" lon="5.61041">
        <ele>885</ele>
        <time>2019-03-23T14:26:04Z</time>
      </trkpt>
      <trkpt lat="44.37647" lon="5.61038">
        <ele>885</ele>
        <time>2019-03-23T14:26:05Z</time>
      </trkpt>
      <trkpt lat="44.37649" lon="5.61036">
        <ele>886</ele>
        <time>2019-03-23T14:26:06Z</time>
      </trkpt>
      <trkpt lat="44.37651" lon="5.61034">
        <ele>886</ele>
        <time>2019-03-23T14:26:07Z</time>
      </trkpt>
      <trkpt lat="44.37652" lon="5.61032">
        <ele>887</ele>
        <time>2019-03-23T14:26:08Z</time>
      </trkpt>
      <trkpt lat="44.37654" lon="5.61029">
        <ele>887</ele>
        <time>2019-03-23T14:26:09Z</time>
      </trkpt>
      <trkpt lat="44.37656" lon="5.61027">
        <ele>887</ele>
        <time>2019-03-23T14:26:10Z</time>
      </trkpt>
      <trkpt lat="44.37658" lon="5.61025">
        <ele>888</ele>
        <time>2019-03-23T14:26:11Z</time>
      </trkpt>
      <trkpt lat="44.37659" lon="5.61022">
        <ele>889</ele>
        <time>2019-03-23T14:26:12Z</time>
      </trkpt>
      <trkpt lat="44.37661" lon="5.6102">
        <ele>889</ele>
        <time>2019-03-23T14:26:13Z</time>
      </trkpt>
      <trkpt lat="44.37663" lon="5.61018">
        <ele>890</ele>
        <time>2019-03-23T14:26:14Z</time>
      </trkpt>
      <trkpt lat="44.37664" lon="5.61016">
        <ele>890</ele>
        <time>2019-03-23T14:26:15Z</time>
      </trkpt>
      <trkpt lat="44.37666" lon="5.61013">
        <ele>891</ele>
        <time>2019-03-23T14:26:16Z</time>
      </trkpt>
      <trkpt lat="44.37668" lon="5.61011">
        <ele>891</ele>
        <time>2019-03-23T14:26:17Z</time>
      </trkpt>
      <trkpt lat="44.3767" lon="5.61009">
        <ele>891</ele>
        <time>2019-03-23T14:26:18Z</time>
      </trkpt>
      <trkpt lat="44.37672" lon="5.61007">
        <ele>891</ele>
        <time>2019-03-23T14:26:19Z</time>
      </trkpt>
      <trkpt lat="44.37674" lon="5.61005">
        <ele>892</ele>
        <time>2019-03-23T14:26:20Z</time>
      </trkpt>
      <trkpt lat="44.37676" lon="5.61003">
        <ele>892</ele>
        <time>2019-03-23T14:26:21Z</time>
      </trkpt>
      <trkpt lat="44.37678" lon="5.61001">
        <ele>892</ele>
        <time>2019-03-23T14:26:22Z</time>
      </trkpt>
      <trkpt lat="44.3768" lon="5.60999">
        <ele>892</ele>
        <time>2019-03-23T14:26:23Z</time>
      </trkpt>
      <trkpt lat="44.37682" lon="5.60997">
        <ele>892</ele>
        <time>2019-03-23T14:26:24Z</time>
      </trkpt>
      <trkpt lat="44.37684" lon="5.60995">
        <ele>893</ele>
        <time>2019-03-23T14:26:25Z</time>
      </trkpt>
      <trkpt lat="44.37686" lon="5.60993">
        <ele>893</ele>
        <time>2019-03-23T14:26:26Z</time>
      </trkpt>
      <trkpt lat="44.37688" lon="5.60991">
        <ele>893</ele>
        <time>2019-03-23T14:26:27Z</time>
      </trkpt>
      <trkpt lat="44.3769" lon="5.60989">
        <ele>893</ele>
        <time>2019-03-23T14:26:28Z</time>
      </trkpt>
      <trkpt lat="44.37692" lon="5.60987">
        <ele>894</ele>
        <time>2019-03-23T14:26:29Z</time>
      </trkpt>
      <trkpt lat="44.37694" lon="5.60984">
        <ele>894</ele>
        <time>2019-03-23T14:26:30Z</time>
      </trkpt>
      <trkpt lat="44.37696" lon="5.60982">
        <ele>894</ele>
        <time>2019-03-23T14:26:31Z</time>
      </trkpt>
      <trkpt lat="44.37698" lon="5.6098">
        <ele>894</ele>
        <time>2019-03-23T14:26:32Z</time>
      </trkpt>
      <trkpt lat="44.37699" lon="5.60977">
        <ele>895</ele>
        <time>2019-03-23T14:26:33Z</time>
      </trkpt>
      <trkpt lat="44.37701" lon="5.60975">
        <ele>895</ele>
        <time>2019-03-23T14:26:34Z</time>
      </trkpt>
      <trkpt lat="44.37702" lon="5.60973">
        <ele>895</ele>
        <time>2019-03-23T14:26:35Z</time>
      </trkpt>
      <trkpt lat="44.37704" lon="5.6097">
        <ele>895</ele>
        <time>2019-03-23T14:26:36Z</time>
      </trkpt>
      <trkpt lat="44.37705" lon="5.60968">
        <ele>895</ele>
        <time>2019-03-23T14:26:37Z</time>
      </trkpt>
      <trkpt lat="44.37707" lon="5.60965">
        <ele>895</ele>
        <time>2019-03-23T14:26:38Z</time>
      </trkpt>
      <trkpt lat="44.37709" lon="5.60962">
        <ele>895</ele>
        <time>2019-03-23T14:26:39Z</time>
      </trkpt>
      <trkpt lat="44.3771" lon="5.60959">
        <ele>895</ele>
        <time>2019-03-23T14:26:40Z</time>
      </trkpt>
      <trkpt lat="44.37712" lon="5.60956">
        <ele>895</ele>
        <time>2019-03-23T14:26:41Z</time>
      </trkpt>
      <trkpt lat="44.37714" lon="5.60953">
        <ele>895</ele>
        <time>2019-03-23T14:26:42Z</time>
      </trkpt>
      <trkpt lat="44.37715" lon="5.60951">
        <ele>895</ele>
        <time>2019-03-23T14:26:43Z</time>
      </trkpt>
      <trkpt lat="44.37717" lon="5.60948">
        <ele>895</ele>
        <time>2019-03-23T14:26:44Z</time>
      </trkpt>
      <trkpt lat="44.3772" lon="5.60945">
        <ele>895</ele>
        <time>2019-03-23T14:26:45Z</time>
      </trkpt>
      <trkpt lat="44.37722" lon="5.60943">
        <ele>895</ele>
        <time>2019-03-23T14:26:46Z</time>
      </trkpt>
      <trkpt lat="44.37725" lon="5.60941">
        <ele>895</ele>
        <time>2019-03-23T14:26:47Z</time>
      </trkpt>
      <trkpt lat="44.37727" lon="5.60939">
        <ele>896</ele>
        <time>2019-03-23T14:26:48Z</time>
      </trkpt>
      <trkpt lat="44.3773" lon="5.60938">
        <ele>896</ele>
        <time>2019-03-23T14:26:49Z</time>
      </trkpt>
      <trkpt lat="44.37732" lon="5.60937">
        <ele>896</ele>
        <time>2019-03-23T14:26:50Z</time>
      </trkpt>
      <trkpt lat="44.37735" lon="5.60936">
        <ele>897</ele>
        <time>2019-03-23T14:26:51Z</time>
      </trkpt>
      <trkpt lat="44.37738" lon="5.60937">
        <ele>897</ele>
        <time>2019-03-23T14:26:52Z</time>
      </trkpt>
      <trkpt lat="44.3774" lon="5.60938">
        <ele>897</ele>
        <time>2019-03-23T14:26:53Z</time>
      </trkpt>
      <trkpt lat="44.37743" lon="5.60939">
        <ele>897</ele>
        <time>2019-03-23T14:26:54Z</time>
      </trkpt>
      <trkpt lat="44.37746" lon="5.60941">
        <ele>898</ele>
        <time>2019-03-23T14:26:55Z</time>
      </trkpt>
      <trkpt lat="44.37748" lon="5.60943">
        <ele>898</ele>
        <time>2019-03-23T14:26:56Z</time>
      </trkpt>
      <trkpt lat="44.37751" lon="5.60946">
        <ele>898</ele>
        <time>2019-03-23T14:26:57Z</time>
      </trkpt>
      <trkpt lat="44.37752" lon="5.6095">
        <ele>898</ele>
        <time>2019-03-23T14:26:58Z</time>
      </trkpt>
      <trkpt lat="44.37753" lon="5.60954">
        <ele>899</ele>
        <time>2019-03-23T14:26:59Z</time>
      </trkpt>
      <trkpt lat="44.37754" lon="5.60957">
        <ele>899</ele>
        <time>2019-03-23T14:27:00Z</time>
      </trkpt>
      <trkpt lat="44.37755" lon="5.60962">
        <ele>899</ele>
        <time>2019-03-23T14:27:01Z</time>
      </trkpt>
      <trkpt lat="44.37756" lon="5.60966">
        <ele>899</ele>
        <time>2019-03-23T14:27:02Z</time>
      </trkpt>
      <trkpt lat="44.37755" lon="5.6097">
        <ele>899</ele>
        <time>2019-03-23T14:27:03Z</time>
      </trkpt>
      <trkpt lat="44.37755" lon="5.60975">
        <ele>899</ele>
        <time>2019-03-23T14:27:04Z</time>
      </trkpt>
      <trkpt lat="44.37754" lon="5.60979">
        <ele>899</ele>
        <time>2019-03-23T14:27:05Z</time>
      </trkpt>
      <trkpt lat="44.37752" lon="5.60983">
        <ele>899</ele>
        <time>2019-03-23T14:27:06Z</time>
      </trkpt>
      <trkpt lat="44.3775" lon="5.60987">
        <ele>899</ele>
        <time>2019-03-23T14:27:07Z</time>
      </trkpt>
      <trkpt lat="44.37748" lon="5.6099">
        <ele>899</ele>
        <time>2019-03-23T14:27:08Z</time>
      </trkpt>
      <trkpt lat="44.37746" lon="5.60994">
        <ele>899</ele>
        <time>2019-03-23T14:27:09Z</time>
      </trkpt>
      <trkpt lat="44.37743" lon="5.60997">
        <ele>899</ele>
        <time>2019-03-23T14:27:10Z</time>
      </trkpt>
      <trkpt lat="44.3774" lon="5.61001">
        <ele>899</ele>
        <time>2019-03-23T14:27:11Z</time>
      </trkpt>
      <trkpt lat="44.37738" lon="5.61004">
        <ele>899</ele>
        <time>2019-03-23T14:27:12Z</time>
      </trkpt>
      <trkpt lat="44.37736" lon="5.61007">
        <ele>899</ele>
        <time>2019-03-23T14:27:13Z</time>
      </trkpt>
      <trkpt lat="44.37733" lon="5.61011">
        <ele>899</ele>
        <time>2019-03-23T14:27:14Z</time>
      </trkpt>
      <trkpt lat="44.37732" lon="5.61015">
        <ele>899</ele>
        <time>2019-03-23T14:27:15Z</time>
      </trkpt>
      <trkpt lat="44.37729" lon="5.61019">
        <ele>899</ele>
        <time>2019-03-23T14:27:16Z</time>
      </trkpt>
      <trkpt lat="44.37727" lon="5.61023">
        <ele>899</ele>
        <time>2019-03-23T14:27:17Z</time>
      </trkpt>
      <trkpt lat="44.37725" lon="5.61026">
        <ele>899</ele>
        <time>2019-03-23T14:27:18Z</time>
      </trkpt>
      <trkpt lat="44.37723" lon="5.61031">
        <ele>899</ele>
        <time>2019-03-23T14:27:19Z</time>
      </trkpt>
      <trkpt lat="44.37721" lon="5.61035">
        <ele>899</ele>
        <time>2019-03-23T14:27:20Z</time>
      </trkpt>
      <trkpt lat="44.37719" lon="5.61039">
        <ele>899</ele>
        <time>2019-03-23T14:27:21Z</time>
      </trkpt>
      <trkpt lat="44.37718" lon="5.61044">
        <ele>899</ele>
        <time>2019-03-23T14:27:22Z</time>
      </trkpt>
      <trkpt lat="44.37716" lon="5.6105">
        <ele>899</ele>
        <time>2019-03-23T14:27:23Z</time>
      </trkpt>
      <trkpt lat="44.37715" lon="5.61054">
        <ele>899</ele>
        <time>2019-03-23T14:27:24Z</time>
      </trkpt>
      <trkpt lat="44.37714" lon="5.61059">
        <ele>899</ele>
        <time>2019-03-23T14:27:25Z</time>
      </trkpt>
      <trkpt lat="44.37712" lon="5.61063">
        <ele>899</ele>
        <time>2019-03-23T14:27:26Z</time>
      </trkpt>
      <trkpt lat="44.37711" lon="5.61067">
        <ele>899</ele>
        <time>2019-03-23T14:27:27Z</time>
      </trkpt>
      <trkpt lat="44.3771" lon="5.61072">
        <ele>899</ele>
        <time>2019-03-23T14:27:28Z</time>
      </trkpt>
      <trkpt lat="44.37709" lon="5.61076">
        <ele>899</ele>
        <time>2019-03-23T14:27:29Z</time>
      </trkpt>
      <trkpt lat="44.37708" lon="5.6108">
        <ele>899</ele>
        <time>2019-03-23T14:27:30Z</time>
      </trkpt>
      <trkpt lat="44.37706" lon="5.61085">
        <ele>899</ele>
        <time>2019-03-23T14:27:31Z</time>
      </trkpt>
      <trkpt lat="44.37705" lon="5.61089">
        <ele>899</ele>
        <time>2019-03-23T14:27:32Z</time>
      </trkpt>
      <trkpt lat="44.37704" lon="5.61093">
        <ele>899</ele>
        <time>2019-03-23T14:27:33Z</time>
      </trkpt>
      <trkpt lat="44.37703" lon="5.61096">
        <ele>900</ele>
        <time>2019-03-23T14:27:34Z</time>
      </trkpt>
      <trkpt lat="44.37701" lon="5.611">
        <ele>900</ele>
        <time>2019-03-23T14:27:35Z</time>
      </trkpt>
      <trkpt lat="44.37699" lon="5.61104">
        <ele>900</ele>
        <time>2019-03-23T14:27:36Z</time>
      </trkpt>
      <trkpt lat="44.37698" lon="5.61107">
        <ele>900</ele>
        <time>2019-03-23T14:27:37Z</time>
      </trkpt>
      <trkpt lat="44.37696" lon="5.61111">
        <ele>901</ele>
        <time>2019-03-23T14:27:38Z</time>
      </trkpt>
      <trkpt lat="44.37694" lon="5.61115">
        <ele>901</ele>
        <time>2019-03-23T14:27:39Z</time>
      </trkpt>
      <trkpt lat="44.37692" lon="5.61118">
        <ele>901</ele>
        <time>2019-03-23T14:27:40Z</time>
      </trkpt>
      <trkpt lat="44.3769" lon="5.61121">
        <ele>901</ele>
        <time>2019-03-23T14:27:41Z</time>
      </trkpt>
      <trkpt lat="44.37688" lon="5.61124">
        <ele>901</ele>
        <time>2019-03-23T14:27:42Z</time>
      </trkpt>
      <trkpt lat="44.37686" lon="5.61127">
        <ele>901</ele>
        <time>2019-03-23T14:27:43Z</time>
      </trkpt>
      <trkpt lat="44.37684" lon="5.61131">
        <ele>901</ele>
        <time>2019-03-23T14:27:44Z</time>
      </trkpt>
      <trkpt lat="44.37682" lon="5.61134">
        <ele>901</ele>
        <time>2019-03-23T14:27:45Z</time>
      </trkpt>
      <trkpt lat="44.3768" lon="5.61137">
        <ele>901</ele>
        <time>2019-03-23T14:27:46Z</time>
      </trkpt>
      <trkpt lat="44.37678" lon="5.61141">
        <ele>901</ele>
        <time>2019-03-23T14:27:47Z</time>
      </trkpt>
      <trkpt lat="44.37676" lon="5.61145">
        <ele>901</ele>
        <time>2019-03-23T14:27:48Z</time>
      </trkpt>
      <trkpt lat="44.37675" lon="5.61149">
        <ele>901</ele>
        <time>2019-03-23T14:27:49Z</time>
      </trkpt>
      <trkpt lat="44.37673" lon="5.61153">
        <ele>901</ele>
        <time>2019-03-23T14:27:50Z</time>
      </trkpt>
      <trkpt lat="44.37671" lon="5.61157">
        <ele>901</ele>
        <time>2019-03-23T14:27:51Z</time>
      </trkpt>
      <trkpt lat="44.3767" lon="5.61161">
        <ele>901</ele>
        <time>2019-03-23T14:27:52Z</time>
      </trkpt>
      <trkpt lat="44.37669" lon="5.61165">
        <ele>902</ele>
        <time>2019-03-23T14:27:53Z</time>
      </trkpt>
      <trkpt lat="44.37667" lon="5.61169">
        <ele>902</ele>
        <time>2019-03-23T14:27:54Z</time>
      </trkpt>
      <trkpt lat="44.37666" lon="5.61173">
        <ele>902</ele>
        <time>2019-03-23T14:27:55Z</time>
      </trkpt>
      <trkpt lat="44.37666" lon="5.61177">
        <ele>903</ele>
        <time>2019-03-23T14:27:56Z</time>
      </trkpt>
      <trkpt lat="44.37665" lon="5.61181">
        <ele>903</ele>
        <time>2019-03-23T14:27:57Z</time>
      </trkpt>
      <trkpt lat="44.37664" lon="5.61185">
        <ele>903</ele>
        <time>2019-03-23T14:27:58Z</time>
      </trkpt>
      <trkpt lat="44.37664" lon="5.61189">
        <ele>904</ele>
        <time>2019-03-23T14:27:59Z</time>
      </trkpt>
      <trkpt lat="44.37664" lon="5.61193">
        <ele>904</ele>
        <time>2019-03-23T14:28:00Z</time>
      </trkpt>
      <trkpt lat="44.37663" lon="5.61197">
        <ele>904</ele>
        <time>2019-03-23T14:28:01Z</time>
      </trkpt>
      <trkpt lat="44.37663" lon="5.612">
        <ele>905</ele>
        <time>2019-03-23T14:28:02Z</time>
      </trkpt>
      <trkpt lat="44.37662" lon="5.61204">
        <ele>905</ele>
        <time>2019-03-23T14:28:03Z</time>
      </trkpt>
      <trkpt lat="44.37661" lon="5.61207">
        <ele>905</ele>
        <time>2019-03-23T14:28:04Z</time>
      </trkpt>
      <trkpt lat="44.37661" lon="5.6121">
        <ele>906</ele>
        <time>2019-03-23T14:28:05Z</time>
      </trkpt>
      <trkpt lat="44.3766" lon="5.61214">
        <ele>906</ele>
        <time>2019-03-23T14:28:06Z</time>
      </trkpt>
      <trkpt lat="44.37659" lon="5.61217">
        <ele>906</ele>
        <time>2019-03-23T14:28:07Z</time>
      </trkpt>
      <trkpt lat="44.37658" lon="5.61221">
        <ele>906</ele>
        <time>2019-03-23T14:28:08Z</time>
      </trkpt>
      <trkpt lat="44.37658" lon="5.61224">
        <ele>907</ele>
        <time>2019-03-23T14:28:09Z</time>
      </trkpt>
      <trkpt lat="44.37657" lon="5.61228">
        <ele>907</ele>
        <time>2019-03-23T14:28:10Z</time>
      </trkpt>
      <trkpt lat="44.37656" lon="5.61231">
        <ele>907</ele>
        <time>2019-03-23T14:28:11Z</time>
      </trkpt>
      <trkpt lat="44.37655" lon="5.61235">
        <ele>908</ele>
        <time>2019-03-23T14:28:12Z</time>
      </trkpt>
      <trkpt lat="44.37654" lon="5.61238">
        <ele>908</ele>
        <time>2019-03-23T14:28:13Z</time>
      </trkpt>
      <trkpt lat="44.37653" lon="5.61241">
        <ele>909</ele>
        <time>2019-03-23T14:28:14Z</time>
      </trkpt>
      <trkpt lat="44.37653" lon="5.61245">
        <ele>909</ele>
        <time>2019-03-23T14:28:15Z</time>
      </trkpt>
      <trkpt lat="44.37651" lon="5.61248">
        <ele>910</ele>
        <time>2019-03-23T14:28:16Z</time>
      </trkpt>
      <trkpt lat="44.3765" lon="5.61251">
        <ele>910</ele>
        <time>2019-03-23T14:28:17Z</time>
      </trkpt>
      <trkpt lat="44.37648" lon="5.61254">
        <ele>910</ele>
        <time>2019-03-23T14:28:18Z</time>
      </trkpt>
      <trkpt lat="44.37647" lon="5.61257">
        <ele>911</ele>
        <time>2019-03-23T14:28:19Z</time>
      </trkpt>
      <trkpt lat="44.37645" lon="5.61259">
        <ele>911</ele>
        <time>2019-03-23T14:28:20Z</time>
      </trkpt>
      <trkpt lat="44.37644" lon="5.61262">
        <ele>911</ele>
        <time>2019-03-23T14:28:21Z</time>
      </trkpt>
      <trkpt lat="44.37643" lon="5.61265">
        <ele>911</ele>
        <time>2019-03-23T14:28:22Z</time>
      </trkpt>
      <trkpt lat="44.37641" lon="5.61268">
        <ele>912</ele>
        <time>2019-03-23T14:28:23Z</time>
      </trkpt>
      <trkpt lat="44.3764" lon="5.61271">
        <ele>912</ele>
        <time>2019-03-23T14:28:24Z</time>
      </trkpt>
      <trkpt lat="44.37638" lon="5.61274">
        <ele>912</ele>
        <time>2019-03-23T14:28:25Z</time>
      </trkpt>
      <trkpt lat="44.37637" lon="5.61276">
        <ele>912</ele>
        <time>2019-03-23T14:28:26Z</time>
      </trkpt>
      <trkpt lat="44.37635" lon="5.61279">
        <ele>913</ele>
        <time>2019-03-23T14:28:27Z</time>
      </trkpt>
      <trkpt lat="44.37634" lon="5.61283">
        <ele>913</ele>
        <time>2019-03-23T14:28:28Z</time>
      </trkpt>
      <trkpt lat="44.37633" lon="5.61286">
        <ele>914</ele>
        <time>2019-03-23T14:28:29Z</time>
      </trkpt>
      <trkpt lat="44.37632" lon="5.61289">
        <ele>914</ele>
        <time>2019-03-23T14:28:30Z</time>
      </trkpt>
      <trkpt lat="44.3763" lon="5.61293">
        <ele>914</ele>
        <time>2019-03-23T14:28:31Z</time>
      </trkpt>
      <trkpt lat="44.37629" lon="5.61296">
        <ele>915</ele>
        <time>2019-03-23T14:28:32Z</time>
      </trkpt>
      <trkpt lat="44.37628" lon="5.61299">
        <ele>915</ele>
        <time>2019-03-23T14:28:33Z</time>
      </trkpt>
      <trkpt lat="44.37627" lon="5.61302">
        <ele>916</ele>
        <time>2019-03-23T14:28:34Z</time>
      </trkpt>
      <trkpt lat="44.37626" lon="5.61306">
        <ele>916</ele>
        <time>2019-03-23T14:28:35Z</time>
      </trkpt>
      <trkpt lat="44.37624" lon="5.61308">
        <ele>916</ele>
        <time>2019-03-23T14:28:36Z</time>
      </trkpt>
      <trkpt lat="44.37624" lon="5.61311">
        <ele>917</ele>
        <time>2019-03-23T14:28:37Z</time>
      </trkpt>
      <trkpt lat="44.37622" lon="5.61315">
        <ele>917</ele>
        <time>2019-03-23T14:28:38Z</time>
      </trkpt>
      <trkpt lat="44.37622" lon="5.61318">
        <ele>917</ele>
        <time>2019-03-23T14:28:39Z</time>
      </trkpt>
      <trkpt lat="44.37621" lon="5.61321">
        <ele>917</ele>
        <time>2019-03-23T14:28:40Z</time>
      </trkpt>
      <trkpt lat="44.3762" lon="5.61324">
        <ele>917</ele>
        <time>2019-03-23T14:28:41Z</time>
      </trkpt>
      <trkpt lat="44.37619" lon="5.61327">
        <ele>917</ele>
        <time>2019-03-23T14:28:42Z</time>
      </trkpt>
      <trkpt lat="44.37618" lon="5.6133">
        <ele>917</ele>
        <time>2019-03-23T14:28:43Z</time>
      </trkpt>
      <trkpt lat="44.37617" lon="5.61333">
        <ele>917</ele>
        <time>2019-03-23T14:28:44Z</time>
      </trkpt>
      <trkpt lat="44.37616" lon="5.61337">
        <ele>917</ele>
        <time>2019-03-23T14:28:45Z</time>
      </trkpt>
      <trkpt lat="44.37616" lon="5.6134">
        <ele>917</ele>
        <time>2019-03-23T14:28:46Z</time>
      </trkpt>
      <trkpt lat="44.37614" lon="5.61343">
        <ele>917</ele>
        <time>2019-03-23T14:28:47Z</time>
      </trkpt>
      <trkpt lat="44.37614" lon="5.61346">
        <ele>917</ele>
        <time>2019-03-23T14:28:48Z</time>
      </trkpt>
      <trkpt lat="44.37613" lon="5.6135">
        <ele>917</ele>
        <time>2019-03-23T14:28:49Z</time>
      </trkpt>
      <trkpt lat="44.37612" lon="5.61353">
        <ele>917</ele>
        <time>2019-03-23T14:28:50Z</time>
      </trkpt>
      <trkpt lat="44.37611" lon="5.61357">
        <ele>917</ele>
        <time>2019-03-23T14:28:51Z</time>
      </trkpt>
      <trkpt lat="44.37609" lon="5.6136">
        <ele>917</ele>
        <time>2019-03-23T14:28:52Z</time>
      </trkpt>
      <trkpt lat="44.37608" lon="5.61364">
        <ele>917</ele>
        <time>2019-03-23T14:28:53Z</time>
      </trkpt>
      <trkpt lat="44.37607" lon="5.61367">
        <ele>917</ele>
        <time>2019-03-23T14:28:54Z</time>
      </trkpt>
      <trkpt lat="44.37607" lon="5.61371">
        <ele>917</ele>
        <time>2019-03-23T14:28:55Z</time>
      </trkpt>
      <trkpt lat="44.37606" lon="5.61375">
        <ele>917</ele>
        <time>2019-03-23T14:28:56Z</time>
      </trkpt>
      <trkpt lat="44.37606" lon="5.61378">
        <ele>917</ele>
        <time>2019-03-23T14:28:57Z</time>
      </trkpt>
      <trkpt lat="44.37606" lon="5.61382">
        <ele>917</ele>
        <time>2019-03-23T14:28:58Z</time>
      </trkpt>
      <trkpt lat="44.37606" lon="5.61386">
        <ele>917</ele>
        <time>2019-03-23T14:28:59Z</time>
      </trkpt>
      <trkpt lat="44.37605" lon="5.6139">
        <ele>917</ele>
        <time>2019-03-23T14:29:00Z</time>
      </trkpt>
      <trkpt lat="44.37606" lon="5.61394">
        <ele>917</ele>
        <time>2019-03-23T14:29:01Z</time>
      </trkpt>
      <trkpt lat="44.37606" lon="5.61398">
        <ele>917</ele>
        <time>2019-03-23T14:29:02Z</time>
      </trkpt>
      <trkpt lat="44.37607" lon="5.61401">
        <ele>917</ele>
        <time>2019-03-23T14:29:03Z</time>
      </trkpt>
      <trkpt lat="44.37608" lon="5.61404">
        <ele>918</ele>
        <time>2019-03-23T14:29:04Z</time>
      </trkpt>
      <trkpt lat="44.3761" lon="5.61407">
        <ele>918</ele>
        <time>2019-03-23T14:29:05Z</time>
      </trkpt>
      <trkpt lat="44.37611" lon="5.6141">
        <ele>918</ele>
        <time>2019-03-23T14:29:06Z</time>
      </trkpt>
      <trkpt lat="44.37612" lon="5.61412">
        <ele>919</ele>
        <time>2019-03-23T14:29:07Z</time>
      </trkpt>
      <trkpt lat="44.37613" lon="5.61415">
        <ele>919</ele>
        <time>2019-03-23T14:29:08Z</time>
      </trkpt>
      <trkpt lat="44.37613" lon="5.61417">
        <ele>919</ele>
        <time>2019-03-23T14:29:09Z</time>
      </trkpt>
      <trkpt lat="44.37614" lon="5.6142">
        <ele>920</ele>
        <time>2019-03-23T14:29:10Z</time>
      </trkpt>
      <trkpt lat="44.37616" lon="5.61423">
        <ele>920</ele>
        <time>2019-03-23T14:29:11Z</time>
      </trkpt>
      <trkpt lat="44.37617" lon="5.61425">
        <ele>920</ele>
        <time>2019-03-23T14:29:12Z</time>
      </trkpt>
      <trkpt lat="44.37618" lon="5.61428">
        <ele>921</ele>
        <time>2019-03-23T14:29:13Z</time>
      </trkpt>
      <trkpt lat="44.37619" lon="5.61431">
        <ele>921</ele>
        <time>2019-03-23T14:29:14Z</time>
      </trkpt>
      <trkpt lat="44.3762" lon="5.61434">
        <ele>921</ele>
        <time>2019-03-23T14:29:15Z</time>
      </trkpt>
      <trkpt lat="44.37621" lon="5.61437">
        <ele>922</ele>
        <time>2019-03-23T14:29:16Z</time>
      </trkpt>
      <trkpt lat="44.37622" lon="5.61439">
        <ele>922</ele>
        <time>2019-03-23T14:29:17Z</time>
      </trkpt>
      <trkpt lat="44.37623" lon="5.61442">
        <ele>922</ele>
        <time>2019-03-23T14:29:18Z</time>
      </trkpt>
      <trkpt lat="44.37624" lon="5.61445">
        <ele>923</ele>
        <time>2019-03-23T14:29:19Z</time>
      </trkpt>
      <trkpt lat="44.37625" lon="5.61447">
        <ele>923</ele>
        <time>2019-03-23T14:29:20Z</time>
      </trkpt>
      <trkpt lat="44.37627" lon="5.6145">
        <ele>923</ele>
        <time>2019-03-23T14:29:21Z</time>
      </trkpt>
      <trkpt lat="44.37628" lon="5.61452">
        <ele>924</ele>
        <time>2019-03-23T14:29:22Z</time>
      </trkpt>
      <trkpt lat="44.37629" lon="5.61455">
        <ele>924</ele>
        <time>2019-03-23T14:29:23Z</time>
      </trkpt>
      <trkpt lat="44.3763" lon="5.61457">
        <ele>924</ele>
        <time>2019-03-23T14:29:24Z</time>
      </trkpt>
      <trkpt lat="44.37631" lon="5.6146">
        <ele>924</ele>
        <time>2019-03-23T14:29:25Z</time>
      </trkpt>
      <trkpt lat="44.37632" lon="5.61463">
        <ele>925</ele>
        <time>2019-03-23T14:29:26Z</time>
      </trkpt>
      <trkpt lat="44.37633" lon="5.61466">
        <ele>925</ele>
        <time>2019-03-23T14:29:27Z</time>
      </trkpt>
      <trkpt lat="44.37634" lon="5.61468">
        <ele>925</ele>
        <time>2019-03-23T14:29:28Z</time>
      </trkpt>
      <trkpt lat="44.37635" lon="5.6147">
        <ele>925</ele>
        <time>2019-03-23T14:29:29Z</time>
      </trkpt>
      <trkpt lat="44.37636" lon="5.61473">
        <ele>925</ele>
        <time>2019-03-23T14:29:30Z</time>
      </trkpt>
      <trkpt lat="44.37637" lon="5.61476">
        <ele>926</ele>
        <time>2019-03-23T14:29:31Z</time>
      </trkpt>
      <trkpt lat="44.37638" lon="5.61478">
        <ele>926</ele>
        <time>2019-03-23T14:29:32Z</time>
      </trkpt>
      <trkpt lat="44.37639" lon="5.6148">
        <ele>926</ele>
        <time>2019-03-23T14:29:33Z</time>
      </trkpt>
      <trkpt lat="44.3764" lon="5.61483">
        <ele>926</ele>
        <time>2019-03-23T14:29:34Z</time>
      </trkpt>
      <trkpt lat="44.3764" lon="5.61486">
        <ele>926</ele>
        <time>2019-03-23T14:29:35Z</time>
      </trkpt>
      <trkpt lat="44.37641" lon="5.61488">
        <ele>927</ele>
        <time>2019-03-23T14:29:36Z</time>
      </trkpt>
      <trkpt lat="44.37642" lon="5.61491">
        <ele>927</ele>
        <time>2019-03-23T14:29:37Z</time>
      </trkpt>
      <trkpt lat="44.37643" lon="5.61494">
        <ele>927</ele>
        <time>2019-03-23T14:29:38Z</time>
      </trkpt>
      <trkpt lat="44.37643" lon="5.61496">
        <ele>927</ele>
        <time>2019-03-23T14:29:39Z</time>
      </trkpt>
      <trkpt lat="44.37644" lon="5.61499">
        <ele>927</ele>
        <time>2019-03-23T14:29:40Z</time>
      </trkpt>
      <trkpt lat="44.37645" lon="5.61502">
        <ele>928</ele>
        <time>2019-03-23T14:29:41Z</time>
      </trkpt>
      <trkpt lat="44.37646" lon="5.61504">
        <ele>928</ele>
        <time>2019-03-23T14:29:42Z</time>
      </trkpt>
      <trkpt lat="44.37647" lon="5.61507">
        <ele>928</ele>
        <time>2019-03-23T14:29:43Z</time>
      </trkpt>
      <trkpt lat="44.37648" lon="5.6151">
        <ele>928</ele>
        <time>2019-03-23T14:29:44Z</time>
      </trkpt>
      <trkpt lat="44.37649" lon="5.61513">
        <ele>928</ele>
        <time>2019-03-23T14:29:45Z</time>
      </trkpt>
      <trkpt lat="44.3765" lon="5.61516">
        <ele>928</ele>
        <time>2019-03-23T14:29:46Z</time>
      </trkpt>
      <trkpt lat="44.37651" lon="5.61518">
        <ele>928</ele>
        <time>2019-03-23T14:29:47Z</time>
      </trkpt>
      <trkpt lat="44.37651" lon="5.61521">
        <ele>928</ele>
        <time>2019-03-23T14:29:48Z</time>
      </trkpt>
      <trkpt lat="44.37653" lon="5.61524">
        <ele>928</ele>
        <time>2019-03-23T14:29:49Z</time>
      </trkpt>
      <trkpt lat="44.37654" lon="5.61527">
        <ele>928</ele>
        <time>2019-03-23T14:29:50Z</time>
      </trkpt>
      <trkpt lat="44.37655" lon="5.61529">
        <ele>929</ele>
        <time>2019-03-23T14:29:51Z</time>
      </trkpt>
      <trkpt lat="44.37657" lon="5.61532">
        <ele>929</ele>
        <time>2019-03-23T14:29:52Z</time>
      </trkpt>
      <trkpt lat="44.37659" lon="5.61534">
        <ele>930</ele>
        <time>2019-03-23T14:29:53Z</time>
      </trkpt>
      <trkpt lat="44.37663" lon="5.61535">
        <ele>930</ele>
        <time>2019-03-23T14:29:54Z</time>
      </trkpt>
      <trkpt lat="44.37665" lon="5.61537">
        <ele>931</ele>
        <time>2019-03-23T14:29:55Z</time>
      </trkpt>
      <trkpt lat="44.37668" lon="5.61538">
        <ele>932</ele>
        <time>2019-03-23T14:29:56Z</time>
      </trkpt>
      <trkpt lat="44.3767" lon="5.61538">
        <ele>932</ele>
        <time>2019-03-23T14:29:57Z</time>
      </trkpt>
      <trkpt lat="44.37672" lon="5.61538">
        <ele>932</ele>
        <time>2019-03-23T14:29:58Z</time>
      </trkpt>
      <trkpt lat="44.37675" lon="5.61537">
        <ele>933</ele>
        <time>2019-03-23T14:29:59Z</time>
      </trkpt>
      <trkpt lat="44.37677" lon="5.61536">
        <ele>933</ele>
        <time>2019-03-23T14:30:00Z</time>
      </trkpt>
      <trkpt lat="44.3768" lon="5.61535">
        <ele>933</ele>
        <time>2019-03-23T14:30:01Z</time>
      </trkpt>
      <trkpt lat="44.37682" lon="5.61534">
        <ele>933</ele>
        <time>2019-03-23T14:30:02Z</time>
      </trkpt>
      <trkpt lat="44.37685" lon="5.61533">
        <ele>934</ele>
        <time>2019-03-23T14:30:03Z</time>
      </trkpt>
      <trkpt lat="44.37687" lon="5.61532">
        <ele>934</ele>
        <time>2019-03-23T14:30:04Z</time>
      </trkpt>
      <trkpt lat="44.37689" lon="5.6153">
        <ele>934</ele>
        <time>2019-03-23T14:30:05Z</time>
      </trkpt>
      <trkpt lat="44.37692" lon="5.61529">
        <ele>934</ele>
        <time>2019-03-23T14:30:06Z</time>
      </trkpt>
      <trkpt lat="44.37694" lon="5.61528">
        <ele>934</ele>
        <time>2019-03-23T14:30:07Z</time>
      </trkpt>
      <trkpt lat="44.37697" lon="5.61527">
        <ele>934</ele>
        <time>2019-03-23T14:30:08Z</time>
      </trkpt>
      <trkpt lat="44.37699" lon="5.61526">
        <ele>935</ele>
        <time>2019-03-23T14:30:09Z</time>
      </trkpt>
      <trkpt lat="44.37702" lon="5.61525">
        <ele>935</ele>
        <time>2019-03-23T14:30:10Z</time>
      </trkpt>
      <trkpt lat="44.37704" lon="5.61524">
        <ele>935</ele>
        <time>2019-03-23T14:30:11Z</time>
      </trkpt>
      <trkpt lat="44.37707" lon="5.61523">
        <ele>935</ele>
        <time>2019-03-23T14:30:12Z</time>
      </trkpt>
      <trkpt lat="44.3771" lon="5.61521">
        <ele>935</ele>
        <time>2019-03-23T14:30:13Z</time>
      </trkpt>
      <trkpt lat="44.37712" lon="5.6152">
        <ele>935</ele>
        <time>2019-03-23T14:30:14Z</time>
      </trkpt>
      <trkpt lat="44.37715" lon="5.61519">
        <ele>935</ele>
        <time>2019-03-23T14:30:15Z</time>
      </trkpt>
      <trkpt lat="44.37718" lon="5.61518">
        <ele>935</ele>
        <time>2019-03-23T14:30:16Z</time>
      </trkpt>
      <trkpt lat="44.3772" lon="5.61517">
        <ele>935</ele>
        <time>2019-03-23T14:30:17Z</time>
      </trkpt>
      <trkpt lat="44.37723" lon="5.61515">
        <ele>935</ele>
        <time>2019-03-23T14:30:18Z</time>
      </trkpt>
      <trkpt lat="44.37726" lon="5.61514">
        <ele>935</ele>
        <time>2019-03-23T14:30:19Z</time>
      </trkpt>
      <trkpt lat="44.37729" lon="5.61512">
        <ele>935</ele>
        <time>2019-03-23T14:30:20Z</time>
      </trkpt>
      <trkpt lat="44.37732" lon="5.61511">
        <ele>935</ele>
        <time>2019-03-23T14:30:21Z</time>
      </trkpt>
      <trkpt lat="44.37735" lon="5.6151">
        <ele>936</ele>
        <time>2019-03-23T14:30:22Z</time>
      </trkpt>
      <trkpt lat="44.37737" lon="5.61509">
        <ele>936</ele>
        <time>2019-03-23T14:30:23Z</time>
      </trkpt>
      <trkpt lat="44.3774" lon="5.61507">
        <ele>936</ele>
        <time>2019-03-23T14:30:24Z</time>
      </trkpt>
      <trkpt lat="44.37743" lon="5.61506">
        <ele>936</ele>
        <time>2019-03-23T14:30:25Z</time>
      </trkpt>
      <trkpt lat="44.37746" lon="5.61505">
        <ele>936</ele>
        <time>2019-03-23T14:30:26Z</time>
      </trkpt>
      <trkpt lat="44.37749" lon="5.61503">
        <ele>936</ele>
        <time>2019-03-23T14:30:27Z</time>
      </trkpt>
      <trkpt lat="44.37752" lon="5.61501">
        <ele>936</ele>
        <time>2019-03-23T14:30:28Z</time>
      </trkpt>
      <trkpt lat="44.37755" lon="5.615">
        <ele>937</ele>
        <time>2019-03-23T14:30:29Z</time>
      </trkpt>
      <trkpt lat="44.37758" lon="5.61498">
        <ele>937</ele>
        <time>2019-03-23T14:30:30Z</time>
      </trkpt>
      <trkpt lat="44.37761" lon="5.61496">
        <ele>937</ele>
        <time>2019-03-23T14:30:31Z</time>
      </trkpt>
      <trkpt lat="44.37764" lon="5.61493">
        <ele>937</ele>
        <time>2019-03-23T14:30:32Z</time>
      </trkpt>
      <trkpt lat="44.37766" lon="5.61491">
        <ele>937</ele>
        <time>2019-03-23T14:30:33Z</time>
      </trkpt>
      <trkpt lat="44.37769" lon="5.61489">
        <ele>937</ele>
        <time>2019-03-23T14:30:34Z</time>
      </trkpt>
      <trkpt lat="44.37772" lon="5.61487">
        <ele>937</ele>
        <time>2019-03-23T14:30:35Z</time>
      </trkpt>
      <trkpt lat="44.37775" lon="5.61484">
        <ele>937</ele>
        <time>2019-03-23T14:30:36Z</time>
      </trkpt>
      <trkpt lat="44.37777" lon="5.61482">
        <ele>938</ele>
        <time>2019-03-23T14:30:37Z</time>
      </trkpt>
      <trkpt lat="44.3778" lon="5.61481">
        <ele>938</ele>
        <time>2019-03-23T14:30:38Z</time>
      </trkpt>
      <trkpt lat="44.37783" lon="5.61479">
        <ele>938</ele>
        <time>2019-03-23T14:30:39Z</time>
      </trkpt>
      <trkpt lat="44.37785" lon="5.61476">
        <ele>938</ele>
        <time>2019-03-23T14:30:40Z</time>
      </trkpt>
      <trkpt lat="44.37788" lon="5.61474">
        <ele>938</ele>
        <time>2019-03-23T14:30:41Z</time>
      </trkpt>
      <trkpt lat="44.37791" lon="5.61472">
        <ele>938</ele>
        <time>2019-03-23T14:30:42Z</time>
      </trkpt>
      <trkpt lat="44.37793" lon="5.6147">
        <ele>939</ele>
        <time>2019-03-23T14:30:43Z</time>
      </trkpt>
      <trkpt lat="44.37796" lon="5.61468">
        <ele>939</ele>
        <time>2019-03-23T14:30:44Z</time>
      </trkpt>
      <trkpt lat="44.37799" lon="5.61466">
        <ele>939</ele>
        <time>2019-03-23T14:30:45Z</time>
      </trkpt>
      <trkpt lat="44.37801" lon="5.61464">
        <ele>939</ele>
        <time>2019-03-23T14:30:46Z</time>
      </trkpt>
      <trkpt lat="44.37804" lon="5.61462">
        <ele>939</ele>
        <time>2019-03-23T14:30:47Z</time>
      </trkpt>
      <trkpt lat="44.37806" lon="5.6146">
        <ele>940</ele>
        <time>2019-03-23T14:30:48Z</time>
      </trkpt>
      <trkpt lat="44.37809" lon="5.61459">
        <ele>940</ele>
        <time>2019-03-23T14:30:49Z</time>
      </trkpt>
      <trkpt lat="44.37811" lon="5.61457">
        <ele>940</ele>
        <time>2019-03-23T14:30:50Z</time>
      </trkpt>
      <trkpt lat="44.37814" lon="5.61455">
        <ele>940</ele>
        <time>2019-03-23T14:30:51Z</time>
      </trkpt>
      <trkpt lat="44.37816" lon="5.61453">
        <ele>941</ele>
        <time>2019-03-23T14:30:52Z</time>
      </trkpt>
      <trkpt lat="44.37818" lon="5.61452">
        <ele>941</ele>
        <time>2019-03-23T14:30:53Z</time>
      </trkpt>
      <trkpt lat="44.37821" lon="5.6145">
        <ele>941</ele>
        <time>2019-03-23T14:30:54Z</time>
      </trkpt>
      <trkpt lat="44.37823" lon="5.61448">
        <ele>941</ele>
        <time>2019-03-23T14:30:55Z</time>
      </trkpt>
      <trkpt lat="44.37826" lon="5.61447">
        <ele>942</ele>
        <time>2019-03-23T14:30:56Z</time>
      </trkpt>
      <trkpt lat="44.37828" lon="5.61445">
        <ele>942</ele>
        <time>2019-03-23T14:30:57Z</time>
      </trkpt>
      <trkpt lat="44.37831" lon="5.61444">
        <ele>942</ele>
        <time>2019-03-23T14:30:58Z</time>
      </trkpt>
      <trkpt lat="44.37834" lon="5.61442">
        <ele>942</ele>
        <time>2019-03-23T14:30:59Z</time>
      </trkpt>
      <trkpt lat="44.37836" lon="5.61441">
        <ele>943</ele>
        <time>2019-03-23T14:31:00Z</time>
      </trkpt>
      <trkpt lat="44.37839" lon="5.61439">
        <ele>943</ele>
        <time>2019-03-23T14:31:01Z</time>
      </trkpt>
      <trkpt lat="44.37842" lon="5.61438">
        <ele>943</ele>
        <time>2019-03-23T14:31:02Z</time>
      </trkpt>
      <trkpt lat="44.37844" lon="5.61436">
        <ele>943</ele>
        <time>2019-03-23T14:31:03Z</time>
      </trkpt>
      <trkpt lat="44.37847" lon="5.61434">
        <ele>944</ele>
        <time>2019-03-23T14:31:04Z</time>
      </trkpt>
      <trkpt lat="44.3785" lon="5.61432">
        <ele>944</ele>
        <time>2019-03-23T14:31:05Z</time>
      </trkpt>
      <trkpt lat="44.37852" lon="5.61429">
        <ele>944</ele>
        <time>2019-03-23T14:31:06Z</time>
      </trkpt>
      <trkpt lat="44.37855" lon="5.61427">
        <ele>944</ele>
        <time>2019-03-23T14:31:07Z</time>
      </trkpt>
      <trkpt lat="44.37858" lon="5.61424">
        <ele>944</ele>
        <time>2019-03-23T14:31:08Z</time>
      </trkpt>
      <trkpt lat="44.3786" lon="5.61421">
        <ele>944</ele>
        <time>2019-03-23T14:31:09Z</time>
      </trkpt>
      <trkpt lat="44.37863" lon="5.61419">
        <ele>945</ele>
        <time>2019-03-23T14:31:10Z</time>
      </trkpt>
      <trkpt lat="44.37866" lon="5.61416">
        <ele>945</ele>
        <time>2019-03-23T14:31:11Z</time>
      </trkpt>
      <trkpt lat="44.37868" lon="5.61413">
        <ele>945</ele>
        <time>2019-03-23T14:31:12Z</time>
      </trkpt>
      <trkpt lat="44.37871" lon="5.6141">
        <ele>945</ele>
        <time>2019-03-23T14:31:13Z</time>
      </trkpt>
      <trkpt lat="44.37873" lon="5.61408">
        <ele>946</ele>
        <time>2019-03-23T14:31:14Z</time>
      </trkpt>
      <trkpt lat="44.37876" lon="5.61405">
        <ele>946</ele>
        <time>2019-03-23T14:31:15Z</time>
      </trkpt>
      <trkpt lat="44.37878" lon="5.61402">
        <ele>946</ele>
        <time>2019-03-23T14:31:16Z</time>
      </trkpt>
      <trkpt lat="44.3788" lon="5.61399">
        <ele>946</ele>
        <time>2019-03-23T14:31:17Z</time>
      </trkpt>
      <trkpt lat="44.37883" lon="5.61396">
        <ele>947</ele>
        <time>2019-03-23T14:31:18Z</time>
      </trkpt>
      <trkpt lat="44.37885" lon="5.61393">
        <ele>947</ele>
        <time>2019-03-23T14:31:19Z</time>
      </trkpt>
      <trkpt lat="44.37888" lon="5.6139">
        <ele>947</ele>
        <time>2019-03-23T14:31:20Z</time>
      </trkpt>
      <trkpt lat="44.3789" lon="5.61387">
        <ele>947</ele>
        <time>2019-03-23T14:31:21Z</time>
      </trkpt>
      <trkpt lat="44.37892" lon="5.61384">
        <ele>948</ele>
        <time>2019-03-23T14:31:22Z</time>
      </trkpt>
      <trkpt lat="44.37894" lon="5.61381">
        <ele>948</ele>
        <time>2019-03-23T14:31:23Z</time>
      </trkpt>
      <trkpt lat="44.37897" lon="5.61379">
        <ele>948</ele>
        <time>2019-03-23T14:31:24Z</time>
      </trkpt>
      <trkpt lat="44.37899" lon="5.61376">
        <ele>949</ele>
        <time>2019-03-23T14:31:25Z</time>
      </trkpt>
      <trkpt lat="44.37902" lon="5.61373">
        <ele>949</ele>
        <time>2019-03-23T14:31:26Z</time>
      </trkpt>
      <trkpt lat="44.37904" lon="5.6137">
        <ele>949</ele>
        <time>2019-03-23T14:31:27Z</time>
      </trkpt>
      <trkpt lat="44.37906" lon="5.61367">
        <ele>949</ele>
        <time>2019-03-23T14:31:28Z</time>
      </trkpt>
      <trkpt lat="44.37909" lon="5.61364">
        <ele>950</ele>
        <time>2019-03-23T14:31:29Z</time>
      </trkpt>
      <trkpt lat="44.37911" lon="5.61362">
        <ele>950</ele>
        <time>2019-03-23T14:31:30Z</time>
      </trkpt>
      <trkpt lat="44.37914" lon="5.61358">
        <ele>950</ele>
        <time>2019-03-23T14:31:31Z</time>
      </trkpt>
      <trkpt lat="44.37916" lon="5.61355">
        <ele>950</ele>
        <time>2019-03-23T14:31:32Z</time>
      </trkpt>
      <trkpt lat="44.37919" lon="5.61353">
        <ele>951</ele>
        <time>2019-03-23T14:31:33Z</time>
      </trkpt>
      <trkpt lat="44.37922" lon="5.6135">
        <ele>951</ele>
        <time>2019-03-23T14:31:34Z</time>
      </trkpt>
      <trkpt lat="44.37924" lon="5.61348">
        <ele>951</ele>
        <time>2019-03-23T14:31:35Z</time>
      </trkpt>
      <trkpt lat="44.37926" lon="5.61345">
        <ele>951</ele>
        <time>2019-03-23T14:31:36Z</time>
      </trkpt>
      <trkpt lat="44.37929" lon="5.61343">
        <ele>952</ele>
        <time>2019-03-23T14:31:37Z</time>
      </trkpt>
      <trkpt lat="44.37931" lon="5.61341">
        <ele>952</ele>
        <time>2019-03-23T14:31:38Z</time>
      </trkpt>
      <trkpt lat="44.37934" lon="5.61338">
        <ele>952</ele>
        <time>2019-03-23T14:31:39Z</time>
      </trkpt>
      <trkpt lat="44.37937" lon="5.61336">
        <ele>952</ele>
        <time>2019-03-23T14:31:40Z</time>
      </trkpt>
      <trkpt lat="44.37939" lon="5.61334">
        <ele>953</ele>
        <time>2019-03-23T14:31:41Z</time>
      </trkpt>
      <trkpt lat="44.37942" lon="5.61331">
        <ele>953</ele>
        <time>2019-03-23T14:31:42Z</time>
      </trkpt>
      <trkpt lat="44.37945" lon="5.61329">
        <ele>953</ele>
        <time>2019-03-23T14:31:43Z</time>
      </trkpt>
      <trkpt lat="44.37947" lon="5.61326">
        <ele>953</ele>
        <time>2019-03-23T14:31:44Z</time>
      </trkpt>
      <trkpt lat="44.3795" lon="5.61323">
        <ele>953</ele>
        <time>2019-03-23T14:31:45Z</time>
      </trkpt>
      <trkpt lat="44.37952" lon="5.61321">
        <ele>953</ele>
        <time>2019-03-23T14:31:46Z</time>
      </trkpt>
      <trkpt lat="44.37955" lon="5.61318">
        <ele>954</ele>
        <time>2019-03-23T14:31:47Z</time>
      </trkpt>
      <trkpt lat="44.37958" lon="5.61316">
        <ele>954</ele>
        <time>2019-03-23T14:31:48Z</time>
      </trkpt>
      <trkpt lat="44.3796" lon="5.61313">
        <ele>954</ele>
        <time>2019-03-23T14:31:49Z</time>
      </trkpt>
      <trkpt lat="44.37963" lon="5.61311">
        <ele>954</ele>
        <time>2019-03-23T14:31:50Z</time>
      </trkpt>
      <trkpt lat="44.37965" lon="5.61308">
        <ele>954</ele>
        <time>2019-03-23T14:31:51Z</time>
      </trkpt>
      <trkpt lat="44.37968" lon="5.61306">
        <ele>955</ele>
        <time>2019-03-23T14:31:52Z</time>
      </trkpt>
      <trkpt lat="44.3797" lon="5.61304">
        <ele>955</ele>
        <time>2019-03-23T14:31:53Z</time>
      </trkpt>
      <trkpt lat="44.37973" lon="5.61301">
        <ele>955</ele>
        <time>2019-03-23T14:31:54Z</time>
      </trkpt>
      <trkpt lat="44.37975" lon="5.61299">
        <ele>955</ele>
        <time>2019-03-23T14:31:55Z</time>
      </trkpt>
      <trkpt lat="44.37978" lon="5.61296">
        <ele>955</ele>
        <time>2019-03-23T14:31:56Z</time>
      </trkpt>
      <trkpt lat="44.3798" lon="5.61294">
        <ele>955</ele>
        <time>2019-03-23T14:31:57Z</time>
      </trkpt>
      <trkpt lat="44.37982" lon="5.61291">
        <ele>956</ele>
        <time>2019-03-23T14:31:58Z</time>
      </trkpt>
      <trkpt lat="44.37985" lon="5.61289">
        <ele>956</ele>
        <time>2019-03-23T14:31:59Z</time>
      </trkpt>
      <trkpt lat="44.37987" lon="5.61287">
        <ele>956</ele>
        <time>2019-03-23T14:32:00Z</time>
      </trkpt>
      <trkpt lat="44.3799" lon="5.61284">
        <ele>956</ele>
        <time>2019-03-23T14:32:01Z</time>
      </trkpt>
      <trkpt lat="44.37992" lon="5.61282">
        <ele>957</ele>
        <time>2019-03-23T14:32:02Z</time>
      </trkpt>
      <trkpt lat="44.37995" lon="5.6128">
        <ele>957</ele>
        <time>2019-03-23T14:32:03Z</time>
      </trkpt>
      <trkpt lat="44.37997" lon="5.61277">
        <ele>957</ele>
        <time>2019-03-23T14:32:04Z</time>
      </trkpt>
      <trkpt lat="44.37999" lon="5.61275">
        <ele>957</ele>
        <time>2019-03-23T14:32:05Z</time>
      </trkpt>
      <trkpt lat="44.38002" lon="5.61273">
        <ele>957</ele>
        <time>2019-03-23T14:32:06Z</time>
      </trkpt>
      <trkpt lat="44.38004" lon="5.61271">
        <ele>957</ele>
        <time>2019-03-23T14:32:07Z</time>
      </trkpt>
      <trkpt lat="44.38007" lon="5.61269">
        <ele>958</ele>
        <time>2019-03-23T14:32:08Z</time>
      </trkpt>
      <trkpt lat="44.38009" lon="5.61266">
        <ele>958</ele>
        <time>2019-03-23T14:32:09Z</time>
      </trkpt>
      <trkpt lat="44.38012" lon="5.61264">
        <ele>958</ele>
        <time>2019-03-23T14:32:10Z</time>
      </trkpt>
      <trkpt lat="44.38014" lon="5.61262">
        <ele>958</ele>
        <time>2019-03-23T14:32:11Z</time>
      </trkpt>
      <trkpt lat="44.38017" lon="5.6126">
        <ele>958</ele>
        <time>2019-03-23T14:32:12Z</time>
      </trkpt>
      <trkpt lat="44.38019" lon="5.61258">
        <ele>958</ele>
        <time>2019-03-23T14:32:13Z</time>
      </trkpt>
      <trkpt lat="44.38021" lon="5.61256">
        <ele>958</ele>
        <time>2019-03-23T14:32:14Z</time>
      </trkpt>
      <trkpt lat="44.38024" lon="5.61253">
        <ele>959</ele>
        <time>2019-03-23T14:32:15Z</time>
      </trkpt>
      <trkpt lat="44.38026" lon="5.61252">
        <ele>959</ele>
        <time>2019-03-23T14:32:16Z</time>
      </trkpt>
      <trkpt lat="44.38028" lon="5.6125">
        <ele>959</ele>
        <time>2019-03-23T14:32:17Z</time>
      </trkpt>
      <trkpt lat="44.38031" lon="5.61248">
        <ele>959</ele>
        <time>2019-03-23T14:32:18Z</time>
      </trkpt>
      <trkpt lat="44.38033" lon="5.61246">
        <ele>959</ele>
        <time>2019-03-23T14:32:19Z</time>
      </trkpt>
      <trkpt lat="44.38035" lon="5.61244">
        <ele>960</ele>
        <time>2019-03-23T14:32:20Z</time>
      </trkpt>
      <trkpt lat="44.38037" lon="5.61242">
        <ele>960</ele>
        <time>2019-03-23T14:32:21Z</time>
      </trkpt>
      <trkpt lat="44.38039" lon="5.6124">
        <ele>960</ele>
        <time>2019-03-23T14:32:22Z</time>
      </trkpt>
      <trkpt lat="44.38042" lon="5.61238">
        <ele>960</ele>
        <time>2019-03-23T14:32:23Z</time>
      </trkpt>
      <trkpt lat="44.38044" lon="5.61237">
        <ele>960</ele>
        <time>2019-03-23T14:32:24Z</time>
      </trkpt>
      <trkpt lat="44.38047" lon="5.61236">
        <ele>961</ele>
        <time>2019-03-23T14:32:25Z</time>
      </trkpt>
      <trkpt lat="44.38049" lon="5.61236">
        <ele>961</ele>
        <time>2019-03-23T14:32:26Z</time>
      </trkpt>
      <trkpt lat="44.38051" lon="5.61235">
        <ele>961</ele>
        <time>2019-03-23T14:32:27Z</time>
      </trkpt>
      <trkpt lat="44.38054" lon="5.61233">
        <ele>961</ele>
        <time>2019-03-23T14:32:28Z</time>
      </trkpt>
      <trkpt lat="44.38056" lon="5.61232">
        <ele>961</ele>
        <time>2019-03-23T14:32:29Z</time>
      </trkpt>
      <trkpt lat="44.38059" lon="5.61231">
        <ele>962</ele>
        <time>2019-03-23T14:32:30Z</time>
      </trkpt>
      <trkpt lat="44.38061" lon="5.6123">
        <ele>962</ele>
        <time>2019-03-23T14:32:31Z</time>
      </trkpt>
      <trkpt lat="44.38064" lon="5.61228">
        <ele>962</ele>
        <time>2019-03-23T14:32:32Z</time>
      </trkpt>
      <trkpt lat="44.38066" lon="5.61227">
        <ele>962</ele>
        <time>2019-03-23T14:32:33Z</time>
      </trkpt>
      <trkpt lat="44.38069" lon="5.61226">
        <ele>962</ele>
        <time>2019-03-23T14:32:34Z</time>
      </trkpt>
      <trkpt lat="44.38071" lon="5.61224">
        <ele>962</ele>
        <time>2019-03-23T14:32:35Z</time>
      </trkpt>
      <trkpt lat="44.38074" lon="5.61223">
        <ele>962</ele>
        <time>2019-03-23T14:32:36Z</time>
      </trkpt>
      <trkpt lat="44.38076" lon="5.61222">
        <ele>963</ele>
        <time>2019-03-23T14:32:37Z</time>
      </trkpt>
      <trkpt lat="44.38079" lon="5.6122">
        <ele>963</ele>
        <time>2019-03-23T14:32:38Z</time>
      </trkpt>
      <trkpt lat="44.38082" lon="5.61219">
        <ele>963</ele>
        <time>2019-03-23T14:32:39Z</time>
      </trkpt>
      <trkpt lat="44.38084" lon="5.61217">
        <ele>963</ele>
        <time>2019-03-23T14:32:40Z</time>
      </trkpt>
      <trkpt lat="44.38087" lon="5.61216">
        <ele>963</ele>
        <time>2019-03-23T14:32:41Z</time>
      </trkpt>
      <trkpt lat="44.3809" lon="5.61215">
        <ele>963</ele>
        <time>2019-03-23T14:32:42Z</time>
      </trkpt>
      <trkpt lat="44.38092" lon="5.61214">
        <ele>963</ele>
        <time>2019-03-23T14:32:43Z</time>
      </trkpt>
      <trkpt lat="44.38094" lon="5.61212">
        <ele>963</ele>
        <time>2019-03-23T14:32:44Z</time>
      </trkpt>
      <trkpt lat="44.38097" lon="5.61211">
        <ele>963</ele>
        <time>2019-03-23T14:32:45Z</time>
      </trkpt>
      <trkpt lat="44.381" lon="5.61209">
        <ele>963</ele>
        <time>2019-03-23T14:32:46Z</time>
      </trkpt>
      <trkpt lat="44.38102" lon="5.61208">
        <ele>963</ele>
        <time>2019-03-23T14:32:47Z</time>
      </trkpt>
      <trkpt lat="44.38105" lon="5.61207">
        <ele>963</ele>
        <time>2019-03-23T14:32:48Z</time>
      </trkpt>
      <trkpt lat="44.38108" lon="5.61206">
        <ele>963</ele>
        <time>2019-03-23T14:32:49Z</time>
      </trkpt>
      <trkpt lat="44.3811" lon="5.61205">
        <ele>963</ele>
        <time>2019-03-23T14:32:50Z</time>
      </trkpt>
      <trkpt lat="44.38113" lon="5.61203">
        <ele>963</ele>
        <time>2019-03-23T14:32:51Z</time>
      </trkpt>
      <trkpt lat="44.38116" lon="5.61203">
        <ele>963</ele>
        <time>2019-03-23T14:32:52Z</time>
      </trkpt>
      <trkpt lat="44.38119" lon="5.61201">
        <ele>963</ele>
        <time>2019-03-23T14:32:53Z</time>
      </trkpt>
      <trkpt lat="44.38122" lon="5.612">
        <ele>963</ele>
        <time>2019-03-23T14:32:54Z</time>
      </trkpt>
      <trkpt lat="44.38125" lon="5.61198">
        <ele>963</ele>
        <time>2019-03-23T14:32:55Z</time>
      </trkpt>
      <trkpt lat="44.38128" lon="5.61197">
        <ele>963</ele>
        <time>2019-03-23T14:32:56Z</time>
      </trkpt>
      <trkpt lat="44.38131" lon="5.61196">
        <ele>963</ele>
        <time>2019-03-23T14:32:57Z</time>
      </trkpt>
      <trkpt lat="44.38134" lon="5.61195">
        <ele>963</ele>
        <time>2019-03-23T14:32:58Z</time>
      </trkpt>
      <trkpt lat="44.38137" lon="5.61193">
        <ele>963</ele>
        <time>2019-03-23T14:32:59Z</time>
      </trkpt>
      <trkpt lat="44.3814" lon="5.61192">
        <ele>963</ele>
        <time>2019-03-23T14:33:00Z</time>
      </trkpt>
      <trkpt lat="44.38143" lon="5.6119">
        <ele>963</ele>
        <time>2019-03-23T14:33:01Z</time>
      </trkpt>
      <trkpt lat="44.38146" lon="5.61189">
        <ele>963</ele>
        <time>2019-03-23T14:33:02Z</time>
      </trkpt>
      <trkpt lat="44.38149" lon="5.61188">
        <ele>963</ele>
        <time>2019-03-23T14:33:03Z</time>
      </trkpt>
      <trkpt lat="44.38152" lon="5.61186">
        <ele>963</ele>
        <time>2019-03-23T14:33:04Z</time>
      </trkpt>
      <trkpt lat="44.38155" lon="5.61185">
        <ele>963</ele>
        <time>2019-03-23T14:33:05Z</time>
      </trkpt>
      <trkpt lat="44.38158" lon="5.61183">
        <ele>963</ele>
        <time>2019-03-23T14:33:06Z</time>
      </trkpt>
      <trkpt lat="44.38161" lon="5.61182">
        <ele>963</ele>
        <time>2019-03-23T14:33:07Z</time>
      </trkpt>
      <trkpt lat="44.38165" lon="5.61181">
        <ele>963</ele>
        <time>2019-03-23T14:33:08Z</time>
      </trkpt>
      <trkpt lat="44.38168" lon="5.6118">
        <ele>963</ele>
        <time>2019-03-23T14:33:09Z</time>
      </trkpt>
      <trkpt lat="44.38171" lon="5.61178">
        <ele>963</ele>
        <time>2019-03-23T14:33:10Z</time>
      </trkpt>
      <trkpt lat="44.38175" lon="5.61177">
        <ele>963</ele>
        <time>2019-03-23T14:33:11Z</time>
      </trkpt>
      <trkpt lat="44.38179" lon="5.61176">
        <ele>963</ele>
        <time>2019-03-23T14:33:12Z</time>
      </trkpt>
      <trkpt lat="44.38182" lon="5.61175">
        <ele>963</ele>
        <time>2019-03-23T14:33:13Z</time>
      </trkpt>
      <trkpt lat="44.38186" lon="5.61174">
        <ele>963</ele>
        <time>2019-03-23T14:33:14Z</time>
      </trkpt>
      <trkpt lat="44.3819" lon="5.61172">
        <ele>963</ele>
        <time>2019-03-23T14:33:15Z</time>
      </trkpt>
      <trkpt lat="44.38195" lon="5.61171">
        <ele>963</ele>
        <time>2019-03-23T14:33:16Z</time>
      </trkpt>
      <trkpt lat="44.38199" lon="5.6117">
        <ele>963</ele>
        <time>2019-03-23T14:33:17Z</time>
      </trkpt>
      <trkpt lat="44.38203" lon="5.61169">
        <ele>963</ele>
        <time>2019-03-23T14:33:18Z</time>
      </trkpt>
      <trkpt lat="44.38207" lon="5.61167">
        <ele>963</ele>
        <time>2019-03-23T14:33:19Z</time>
      </trkpt>
      <trkpt lat="44.38212" lon="5.61166">
        <ele>963</ele>
        <time>2019-03-23T14:33:20Z</time>
      </trkpt>
      <trkpt lat="44.38216" lon="5.61165">
        <ele>963</ele>
        <time>2019-03-23T14:33:21Z</time>
      </trkpt>
      <trkpt lat="44.38221" lon="5.61164">
        <ele>963</ele>
        <time>2019-03-23T14:33:22Z</time>
      </trkpt>
      <trkpt lat="44.38226" lon="5.61162">
        <ele>963</ele>
        <time>2019-03-23T14:33:23Z</time>
      </trkpt>
      <trkpt lat="44.3823" lon="5.61161">
        <ele>963</ele>
        <time>2019-03-23T14:33:24Z</time>
      </trkpt>
      <trkpt lat="44.38235" lon="5.61159">
        <ele>963</ele>
        <time>2019-03-23T14:33:25Z</time>
      </trkpt>
      <trkpt lat="44.3824" lon="5.61157">
        <ele>963</ele>
        <time>2019-03-23T14:33:26Z</time>
      </trkpt>
      <trkpt lat="44.38244" lon="5.61156">
        <ele>963</ele>
        <time>2019-03-23T14:33:27Z</time>
      </trkpt>
      <trkpt lat="44.38249" lon="5.61154">
        <ele>963</ele>
        <time>2019-03-23T14:33:28Z</time>
      </trkpt>
      <trkpt lat="44.38254" lon="5.61152">
        <ele>963</ele>
        <time>2019-03-23T14:33:29Z</time>
      </trkpt>
      <trkpt lat="44.38259" lon="5.61149">
        <ele>963</ele>
        <time>2019-03-23T14:33:30Z</time>
      </trkpt>
      <trkpt lat="44.38263" lon="5.61147">
        <ele>963</ele>
        <time>2019-03-23T14:33:31Z</time>
      </trkpt>
      <trkpt lat="44.38268" lon="5.61144">
        <ele>963</ele>
        <time>2019-03-23T14:33:32Z</time>
      </trkpt>
      <trkpt lat="44.38272" lon="5.61142">
        <ele>963</ele>
        <time>2019-03-23T14:33:33Z</time>
      </trkpt>
      <trkpt lat="44.38276" lon="5.61139">
        <ele>963</ele>
        <time>2019-03-23T14:33:34Z</time>
      </trkpt>
      <trkpt lat="44.38281" lon="5.61136">
        <ele>963</ele>
        <time>2019-03-23T14:33:35Z</time>
      </trkpt>
      <trkpt lat="44.38285" lon="5.61133">
        <ele>963</ele>
        <time>2019-03-23T14:33:36Z</time>
      </trkpt>
      <trkpt lat="44.38289" lon="5.61131">
        <ele>963</ele>
        <time>2019-03-23T14:33:37Z</time>
      </trkpt>
      <trkpt lat="44.38294" lon="5.61128">
        <ele>963</ele>
        <time>2019-03-23T14:33:38Z</time>
      </trkpt>
      <trkpt lat="44.38298" lon="5.61125">
        <ele>963</ele>
        <time>2019-03-23T14:33:39Z</time>
      </trkpt>
      <trkpt lat="44.38302" lon="5.61122">
        <ele>963</ele>
        <time>2019-03-23T14:33:40Z</time>
      </trkpt>
      <trkpt lat="44.38307" lon="5.61119">
        <ele>963</ele>
        <time>2019-03-23T14:33:41Z</time>
      </trkpt>
      <trkpt lat="44.38311" lon="5.61116">
        <ele>963</ele>
        <time>2019-03-23T14:33:42Z</time>
      </trkpt>
      <trkpt lat="44.38316" lon="5.61112">
        <ele>963</ele>
        <time>2019-03-23T14:33:43Z</time>
      </trkpt>
      <trkpt lat="44.38321" lon="5.61109">
        <ele>963</ele>
        <time>2019-03-23T14:33:44Z</time>
      </trkpt>
      <trkpt lat="44.38325" lon="5.61106">
        <ele>963</ele>
        <time>2019-03-23T14:33:45Z</time>
      </trkpt>
      <trkpt lat="44.3833" lon="5.61103">
        <ele>962</ele>
        <time>2019-03-23T14:33:46Z</time>
      </trkpt>
      <trkpt lat="44.38335" lon="5.611">
        <ele>962</ele>
        <time>2019-03-23T14:33:47Z</time>
      </trkpt>
      <trkpt lat="44.3834" lon="5.61097">
        <ele>962</ele>
        <time>2019-03-23T14:33:48Z</time>
      </trkpt>
      <trkpt lat="44.38345" lon="5.61094">
        <ele>962</ele>
        <time>2019-03-23T14:33:49Z</time>
      </trkpt>
      <trkpt lat="44.3835" lon="5.61091">
        <ele>962</ele>
        <time>2019-03-23T14:33:50Z</time>
      </trkpt>
      <trkpt lat="44.38355" lon="5.61088">
        <ele>961</ele>
        <time>2019-03-23T14:33:51Z</time>
      </trkpt>
      <trkpt lat="44.3836" lon="5.61085">
        <ele>961</ele>
        <time>2019-03-23T14:33:52Z</time>
      </trkpt>
      <trkpt lat="44.38365" lon="5.61083">
        <ele>961</ele>
        <time>2019-03-23T14:33:53Z</time>
      </trkpt>
      <trkpt lat="44.38371" lon="5.61081">
        <ele>961</ele>
        <time>2019-03-23T14:33:54Z</time>
      </trkpt>
      <trkpt lat="44.38376" lon="5.61079">
        <ele>961</ele>
        <time>2019-03-23T14:33:55Z</time>
      </trkpt>
      <trkpt lat="44.38381" lon="5.61078">
        <ele>961</ele>
        <time>2019-03-23T14:33:56Z</time>
      </trkpt>
      <trkpt lat="44.38386" lon="5.61077">
        <ele>961</ele>
        <time>2019-03-23T14:33:57Z</time>
      </trkpt>
      <trkpt lat="44.38391" lon="5.61076">
        <ele>961</ele>
        <time>2019-03-23T14:33:58Z</time>
      </trkpt>
      <trkpt lat="44.38396" lon="5.61075">
        <ele>961</ele>
        <time>2019-03-23T14:33:59Z</time>
      </trkpt>
      <trkpt lat="44.38402" lon="5.61076">
        <ele>961</ele>
        <time>2019-03-23T14:34:00Z</time>
      </trkpt>
      <trkpt lat="44.38408" lon="5.61076">
        <ele>961</ele>
        <time>2019-03-23T14:34:01Z</time>
      </trkpt>
      <trkpt lat="44.38413" lon="5.61077">
        <ele>961</ele>
        <time>2019-03-23T14:34:02Z</time>
      </trkpt>
      <trkpt lat="44.38419" lon="5.61079">
        <ele>961</ele>
        <time>2019-03-23T14:34:03Z</time>
      </trkpt>
      <trkpt lat="44.38424" lon="5.61081">
        <ele>960</ele>
        <time>2019-03-23T14:34:04Z</time>
      </trkpt>
      <trkpt lat="44.3843" lon="5.61082">
        <ele>960</ele>
        <time>2019-03-23T14:34:05Z</time>
      </trkpt>
      <trkpt lat="44.38436" lon="5.61084">
        <ele>960</ele>
        <time>2019-03-23T14:34:06Z</time>
      </trkpt>
      <trkpt lat="44.38442" lon="5.61084">
        <ele>960</ele>
        <time>2019-03-23T14:34:07Z</time>
      </trkpt>
      <trkpt lat="44.38449" lon="5.61084">
        <ele>959</ele>
        <time>2019-03-23T14:34:08Z</time>
      </trkpt>
      <trkpt lat="44.38456" lon="5.61083">
        <ele>959</ele>
        <time>2019-03-23T14:34:09Z</time>
      </trkpt>
      <trkpt lat="44.38464" lon="5.61082">
        <ele>959</ele>
        <time>2019-03-23T14:34:10Z</time>
      </trkpt>
      <trkpt lat="44.38472" lon="5.61081">
        <ele>958</ele>
        <time>2019-03-23T14:34:11Z</time>
      </trkpt>
      <trkpt lat="44.3848" lon="5.6108">
        <ele>958</ele>
        <time>2019-03-23T14:34:12Z</time>
      </trkpt>
      <trkpt lat="44.38489" lon="5.61079">
        <ele>958</ele>
        <time>2019-03-23T14:34:13Z</time>
      </trkpt>
      <trkpt lat="44.38497" lon="5.61078">
        <ele>958</ele>
        <time>2019-03-23T14:34:14Z</time>
      </trkpt>
      <trkpt lat="44.38505" lon="5.61076">
        <ele>958</ele>
        <time>2019-03-23T14:34:15Z</time>
      </trkpt>
      <trkpt lat="44.38513" lon="5.61075">
        <ele>958</ele>
        <time>2019-03-23T14:34:16Z</time>
      </trkpt>
      <trkpt lat="44.38521" lon="5.61073">
        <ele>958</ele>
        <time>2019-03-23T14:34:17Z</time>
      </trkpt>
      <trkpt lat="44.38529" lon="5.61071">
        <ele>958</ele>
        <time>2019-03-23T14:34:18Z</time>
      </trkpt>
      <trkpt lat="44.38536" lon="5.61069">
        <ele>958</ele>
        <time>2019-03-23T14:34:19Z</time>
      </trkpt>
      <trkpt lat="44.38543" lon="5.61066">
        <ele>958</ele>
        <time>2019-03-23T14:34:20Z</time>
      </trkpt>
      <trkpt lat="44.38549" lon="5.61064">
        <ele>958</ele>
        <time>2019-03-23T14:34:21Z</time>
      </trkpt>
      <trkpt lat="44.38555" lon="5.61061">
        <ele>958</ele>
        <time>2019-03-23T14:34:22Z</time>
      </trkpt>
      <trkpt lat="44.38561" lon="5.61059">
        <ele>958</ele>
        <time>2019-03-23T14:34:23Z</time>
      </trkpt>
      <trkpt lat="44.38567" lon="5.61056">
        <ele>958</ele>
        <time>2019-03-23T14:34:24Z</time>
      </trkpt>
      <trkpt lat="44.38572" lon="5.61053">
        <ele>958</ele>
        <time>2019-03-23T14:34:25Z</time>
      </trkpt>
      <trkpt lat="44.38578" lon="5.6105">
        <ele>958</ele>
        <time>2019-03-23T14:34:26Z</time>
      </trkpt>
      <trkpt lat="44.38583" lon="5.61048">
        <ele>958</ele>
        <time>2019-03-23T14:34:27Z</time>
      </trkpt>
      <trkpt lat="44.38588" lon="5.61047">
        <ele>958</ele>
        <time>2019-03-23T14:34:28Z</time>
      </trkpt>
      <trkpt lat="44.38593" lon="5.61046">
        <ele>958</ele>
        <time>2019-03-23T14:34:29Z</time>
      </trkpt>
      <trkpt lat="44.38597" lon="5.61046">
        <ele>958</ele>
        <time>2019-03-23T14:34:30Z</time>
      </trkpt>
      <trkpt lat="44.38601" lon="5.61046">
        <ele>958</ele>
        <time>2019-03-23T14:34:31Z</time>
      </trkpt>
      <trkpt lat="44.38605" lon="5.61046">
        <ele>958</ele>
        <time>2019-03-23T14:34:32Z</time>
      </trkpt>
      <trkpt lat="44.38609" lon="5.61046">
        <ele>958</ele>
        <time>2019-03-23T14:34:33Z</time>
      </trkpt>
      <trkpt lat="44.38612" lon="5.61046">
        <ele>958</ele>
        <time>2019-03-23T14:34:34Z</time>
      </trkpt>
      <trkpt lat="44.38615" lon="5.61046">
        <ele>958</ele>
        <time>2019-03-23T14:34:35Z</time>
      </trkpt>
      <trkpt lat="44.38619" lon="5.61047">
        <ele>958</ele>
        <time>2019-03-23T14:34:36Z</time>
      </trkpt>
      <trkpt lat="44.38622" lon="5.61047">
        <ele>958</ele>
        <time>2019-03-23T14:34:37Z</time>
      </trkpt>
      <trkpt lat="44.38625" lon="5.61047">
        <ele>958</ele>
        <time>2019-03-23T14:34:38Z</time>
      </trkpt>
      <trkpt lat="44.38628" lon="5.61048">
        <ele>958</ele>
        <time>2019-03-23T14:34:39Z</time>
      </trkpt>
      <trkpt lat="44.38631" lon="5.61048">
        <ele>958</ele>
        <time>2019-03-23T14:34:40Z</time>
      </trkpt>
      <trkpt lat="44.38635" lon="5.61049">
        <ele>958</ele>
        <time>2019-03-23T14:34:41Z</time>
      </trkpt>
      <trkpt lat="44.38638" lon="5.61049">
        <ele>958</ele>
        <time>2019-03-23T14:34:42Z</time>
      </trkpt>
      <trkpt lat="44.38642" lon="5.61049">
        <ele>958</ele>
        <time>2019-03-23T14:34:43Z</time>
      </trkpt>
      <trkpt lat="44.38646" lon="5.61049">
        <ele>958</ele>
        <time>2019-03-23T14:34:44Z</time>
      </trkpt>
      <trkpt lat="44.38649" lon="5.61049">
        <ele>958</ele>
        <time>2019-03-23T14:34:45Z</time>
      </trkpt>
      <trkpt lat="44.38653" lon="5.61048">
        <ele>958</ele>
        <time>2019-03-23T14:34:46Z</time>
      </trkpt>
      <trkpt lat="44.38657" lon="5.61048">
        <ele>958</ele>
        <time>2019-03-23T14:34:47Z</time>
      </trkpt>
      <trkpt lat="44.3866" lon="5.61047">
        <ele>959</ele>
        <time>2019-03-23T14:34:48Z</time>
      </trkpt>
      <trkpt lat="44.38664" lon="5.61047">
        <ele>959</ele>
        <time>2019-03-23T14:34:49Z</time>
      </trkpt>
      <trkpt lat="44.38668" lon="5.61046">
        <ele>959</ele>
        <time>2019-03-23T14:34:50Z</time>
      </trkpt>
      <trkpt lat="44.38671" lon="5.61046">
        <ele>959</ele>
        <time>2019-03-23T14:34:51Z</time>
      </trkpt>
      <trkpt lat="44.38674" lon="5.61046">
        <ele>959</ele>
        <time>2019-03-23T14:34:52Z</time>
      </trkpt>
      <trkpt lat="44.38678" lon="5.61045">
        <ele>959</ele>
        <time>2019-03-23T14:34:53Z</time>
      </trkpt>
      <trkpt lat="44.38681" lon="5.61045">
        <ele>959</ele>
        <time>2019-03-23T14:34:54Z</time>
      </trkpt>
      <trkpt lat="44.38684" lon="5.61045">
        <ele>959</ele>
        <time>2019-03-23T14:34:55Z</time>
      </trkpt>
      <trkpt lat="44.38687" lon="5.61045">
        <ele>959</ele>
        <time>2019-03-23T14:34:56Z</time>
      </trkpt>
      <trkpt lat="44.38691" lon="5.61045">
        <ele>959</ele>
        <time>2019-03-23T14:34:57Z</time>
      </trkpt>
      <trkpt lat="44.38694" lon="5.61045">
        <ele>959</ele>
        <time>2019-03-23T14:34:58Z</time>
      </trkpt>
      <trkpt lat="44.38697" lon="5.61046">
        <ele>959</ele>
        <time>2019-03-23T14:34:59Z</time>
      </trkpt>
      <trkpt lat="44.387" lon="5.61046">
        <ele>960</ele>
        <time>2019-03-23T14:35:00Z</time>
      </trkpt>
      <trkpt lat="44.38704" lon="5.61046">
        <ele>960</ele>
        <time>2019-03-23T14:35:01Z</time>
      </trkpt>
      <trkpt lat="44.38707" lon="5.61047">
        <ele>960</ele>
        <time>2019-03-23T14:35:02Z</time>
      </trkpt>
      <trkpt lat="44.38711" lon="5.61047">
        <ele>960</ele>
        <time>2019-03-23T14:35:03Z</time>
      </trkpt>
      <trkpt lat="44.38715" lon="5.61047">
        <ele>960</ele>
        <time>2019-03-23T14:35:04Z</time>
      </trkpt>
      <trkpt lat="44.38718" lon="5.61047">
        <ele>960</ele>
        <time>2019-03-23T14:35:05Z</time>
      </trkpt>
      <trkpt lat="44.38722" lon="5.61046">
        <ele>960</ele>
        <time>2019-03-23T14:35:06Z</time>
      </trkpt>
      <trkpt lat="44.38726" lon="5.61046">
        <ele>961</ele>
        <time>2019-03-23T14:35:07Z</time>
      </trkpt>
      <trkpt lat="44.3873" lon="5.61046">
        <ele>961</ele>
        <time>2019-03-23T14:35:08Z</time>
      </trkpt>
      <trkpt lat="44.38734" lon="5.61046">
        <ele>961</ele>
        <time>2019-03-23T14:35:09Z</time>
      </trkpt>
      <trkpt lat="44.38737" lon="5.61046">
        <ele>961</ele>
        <time>2019-03-23T14:35:10Z</time>
      </trkpt>
      <trkpt lat="44.38742" lon="5.61045">
        <ele>961</ele>
        <time>2019-03-23T14:35:11Z</time>
      </trkpt>
      <trkpt lat="44.38746" lon="5.61045">
        <ele>961</ele>
        <time>2019-03-23T14:35:12Z</time>
      </trkpt>
      <trkpt lat="44.38749" lon="5.61045">
        <ele>961</ele>
        <time>2019-03-23T14:35:13Z</time>
      </trkpt>
      <trkpt lat="44.38753" lon="5.61045">
        <ele>961</ele>
        <time>2019-03-23T14:35:14Z</time>
      </trkpt>
      <trkpt lat="44.38758" lon="5.61045">
        <ele>961</ele>
        <time>2019-03-23T14:35:15Z</time>
      </trkpt>
      <trkpt lat="44.38762" lon="5.61044">
        <ele>961</ele>
        <time>2019-03-23T14:35:16Z</time>
      </trkpt>
      <trkpt lat="44.38767" lon="5.61043">
        <ele>961</ele>
        <time>2019-03-23T14:35:17Z</time>
      </trkpt>
      <trkpt lat="44.38772" lon="5.61042">
        <ele>961</ele>
        <time>2019-03-23T14:35:18Z</time>
      </trkpt>
      <trkpt lat="44.38777" lon="5.61041">
        <ele>961</ele>
        <time>2019-03-23T14:35:19Z</time>
      </trkpt>
      <trkpt lat="44.38782" lon="5.61041">
        <ele>961</ele>
        <time>2019-03-23T14:35:20Z</time>
      </trkpt>
      <trkpt lat="44.38787" lon="5.6104">
        <ele>961</ele>
        <time>2019-03-23T14:35:21Z</time>
      </trkpt>
      <trkpt lat="44.38793" lon="5.6104">
        <ele>961</ele>
        <time>2019-03-23T14:35:22Z</time>
      </trkpt>
      <trkpt lat="44.38798" lon="5.61039">
        <ele>961</ele>
        <time>2019-03-23T14:35:23Z</time>
      </trkpt>
      <trkpt lat="44.38803" lon="5.6104">
        <ele>961</ele>
        <time>2019-03-23T14:35:24Z</time>
      </trkpt>
      <trkpt lat="44.38809" lon="5.61041">
        <ele>961</ele>
        <time>2019-03-23T14:35:25Z</time>
      </trkpt>
      <trkpt lat="44.38816" lon="5.61044">
        <ele>961</ele>
        <time>2019-03-23T14:35:26Z</time>
      </trkpt>
      <trkpt lat="44.38821" lon="5.61047">
        <ele>961</ele>
        <time>2019-03-23T14:35:27Z</time>
      </trkpt>
      <trkpt lat="44.38827" lon="5.61052">
        <ele>961</ele>
        <time>2019-03-23T14:35:28Z</time>
      </trkpt>
      <trkpt lat="44.38832" lon="5.61058">
        <ele>961</ele>
        <time>2019-03-23T14:35:29Z</time>
      </trkpt>
      <trkpt lat="44.38837" lon="5.61064">
        <ele>961</ele>
        <time>2019-03-23T14:35:30Z</time>
      </trkpt>
      <trkpt lat="44.38841" lon="5.6107">
        <ele>961</ele>
        <time>2019-03-23T14:35:31Z</time>
      </trkpt>
      <trkpt lat="44.38846" lon="5.61075">
        <ele>961</ele>
        <time>2019-03-23T14:35:32Z</time>
      </trkpt>
      <trkpt lat="44.3885" lon="5.61079">
        <ele>961</ele>
        <time>2019-03-23T14:35:33Z</time>
      </trkpt>
      <trkpt lat="44.38856" lon="5.61082">
        <ele>961</ele>
        <time>2019-03-23T14:35:34Z</time>
      </trkpt>
      <trkpt lat="44.38862" lon="5.61083">
        <ele>961</ele>
        <time>2019-03-23T14:35:35Z</time>
      </trkpt>
      <trkpt lat="44.38868" lon="5.61082">
        <ele>961</ele>
        <time>2019-03-23T14:35:36Z</time>
      </trkpt>
      <trkpt lat="44.38873" lon="5.6108">
        <ele>961</ele>
        <time>2019-03-23T14:35:37Z</time>
      </trkpt>
      <trkpt lat="44.38878" lon="5.61077">
        <ele>962</ele>
        <time>2019-03-23T14:35:38Z</time>
      </trkpt>
      <trkpt lat="44.38883" lon="5.61074">
        <ele>962</ele>
        <time>2019-03-23T14:35:39Z</time>
      </trkpt>
      <trkpt lat="44.38887" lon="5.6107">
        <ele>963</ele>
        <time>2019-03-23T14:35:40Z</time>
      </trkpt>
      <trkpt lat="44.38891" lon="5.61066">
        <ele>963</ele>
        <time>2019-03-23T14:35:41Z</time>
      </trkpt>
      <trkpt lat="44.38895" lon="5.61063">
        <ele>963</ele>
        <time>2019-03-23T14:35:42Z</time>
      </trkpt>
      <trkpt lat="44.38898" lon="5.6106">
        <ele>964</ele>
        <time>2019-03-23T14:35:43Z</time>
      </trkpt>
      <trkpt lat="44.38901" lon="5.61056">
        <ele>964</ele>
        <time>2019-03-23T14:35:44Z</time>
      </trkpt>
      <trkpt lat="44.38904" lon="5.61053">
        <ele>964</ele>
        <time>2019-03-23T14:35:45Z</time>
      </trkpt>
      <trkpt lat="44.38907" lon="5.61051">
        <ele>965</ele>
        <time>2019-03-23T14:35:46Z</time>
      </trkpt>
      <trkpt lat="44.3891" lon="5.61048">
        <ele>965</ele>
        <time>2019-03-23T14:35:47Z</time>
      </trkpt>
      <trkpt lat="44.38913" lon="5.61045">
        <ele>965</ele>
        <time>2019-03-23T14:35:48Z</time>
      </trkpt>
      <trkpt lat="44.38916" lon="5.61043">
        <ele>966</ele>
        <time>2019-03-23T14:35:49Z</time>
      </trkpt>
      <trkpt lat="44.38919" lon="5.61041">
        <ele>966</ele>
        <time>2019-03-23T14:35:50Z</time>
      </trkpt>
      <trkpt lat="44.38923" lon="5.6104">
        <ele>966</ele>
        <time>2019-03-23T14:35:51Z</time>
      </trkpt>
      <trkpt lat="44.38927" lon="5.61038">
        <ele>967</ele>
        <time>2019-03-23T14:35:52Z</time>
      </trkpt>
      <trkpt lat="44.38931" lon="5.61037">
        <ele>968</ele>
        <time>2019-03-23T14:35:53Z</time>
      </trkpt>
      <trkpt lat="44.38935" lon="5.61035">
        <ele>968</ele>
        <time>2019-03-23T14:35:54Z</time>
      </trkpt>
      <trkpt lat="44.38938" lon="5.61033">
        <ele>969</ele>
        <time>2019-03-23T14:35:55Z</time>
      </trkpt>
      <trkpt lat="44.38942" lon="5.61032">
        <ele>969</ele>
        <time>2019-03-23T14:35:56Z</time>
      </trkpt>
      <trkpt lat="44.38945" lon="5.6103">
        <ele>970</ele>
        <time>2019-03-23T14:35:57Z</time>
      </trkpt>
      <trkpt lat="44.38947" lon="5.61028">
        <ele>970</ele>
        <time>2019-03-23T14:35:58Z</time>
      </trkpt>
      <trkpt lat="44.3895" lon="5.61026">
        <ele>970</ele>
        <time>2019-03-23T14:35:59Z</time>
      </trkpt>
      <trkpt lat="44.38953" lon="5.61024">
        <ele>970</ele>
        <time>2019-03-23T14:36:00Z</time>
      </trkpt>
      <trkpt lat="44.38957" lon="5.61023">
        <ele>971</ele>
        <time>2019-03-23T14:36:01Z</time>
      </trkpt>
      <trkpt lat="44.3896" lon="5.61021">
        <ele>971</ele>
        <time>2019-03-23T14:36:02Z</time>
      </trkpt>
      <trkpt lat="44.38963" lon="5.61019">
        <ele>971</ele>
        <time>2019-03-23T14:36:03Z</time>
      </trkpt>
      <trkpt lat="44.38966" lon="5.61017">
        <ele>971</ele>
        <time>2019-03-23T14:36:04Z</time>
      </trkpt>
      <trkpt lat="44.38969" lon="5.61015">
        <ele>972</ele>
        <time>2019-03-23T14:36:05Z</time>
      </trkpt>
      <trkpt lat="44.38973" lon="5.61012">
        <ele>972</ele>
        <time>2019-03-23T14:36:06Z</time>
      </trkpt>
      <trkpt lat="44.38977" lon="5.61011">
        <ele>972</ele>
        <time>2019-03-23T14:36:07Z</time>
      </trkpt>
      <trkpt lat="44.3898" lon="5.61009">
        <ele>972</ele>
        <time>2019-03-23T14:36:08Z</time>
      </trkpt>
      <trkpt lat="44.38984" lon="5.61008">
        <ele>972</ele>
        <time>2019-03-23T14:36:09Z</time>
      </trkpt>
      <trkpt lat="44.38987" lon="5.61008">
        <ele>972</ele>
        <time>2019-03-23T14:36:10Z</time>
      </trkpt>
      <trkpt lat="44.38991" lon="5.61007">
        <ele>972</ele>
        <time>2019-03-23T14:36:11Z</time>
      </trkpt>
      <trkpt lat="44.38995" lon="5.61006">
        <ele>973</ele>
        <time>2019-03-23T14:36:12Z</time>
      </trkpt>
      <trkpt lat="44.38998" lon="5.61006">
        <ele>973</ele>
        <time>2019-03-23T14:36:13Z</time>
      </trkpt>
      <trkpt lat="44.39002" lon="5.61006">
        <ele>973</ele>
        <time>2019-03-23T14:36:14Z</time>
      </trkpt>
      <trkpt lat="44.39005" lon="5.61006">
        <ele>973</ele>
        <time>2019-03-23T14:36:15Z</time>
      </trkpt>
      <trkpt lat="44.39009" lon="5.61006">
        <ele>973</ele>
        <time>2019-03-23T14:36:16Z</time>
      </trkpt>
      <trkpt lat="44.39012" lon="5.61006">
        <ele>973</ele>
        <time>2019-03-23T14:36:17Z</time>
      </trkpt>
      <trkpt lat="44.39016" lon="5.61007">
        <ele>974</ele>
        <time>2019-03-23T14:36:18Z</time>
      </trkpt>
      <trkpt lat="44.39019" lon="5.61007">
        <ele>974</ele>
        <time>2019-03-23T14:36:19Z</time>
      </trkpt>
      <trkpt lat="44.39023" lon="5.61008">
        <ele>974</ele>
        <time>2019-03-23T14:36:20Z</time>
      </trkpt>
      <trkpt lat="44.39027" lon="5.61008">
        <ele>974</ele>
        <time>2019-03-23T14:36:21Z</time>
      </trkpt>
      <trkpt lat="44.39032" lon="5.61009">
        <ele>974</ele>
        <time>2019-03-23T14:36:22Z</time>
      </trkpt>
      <trkpt lat="44.39036" lon="5.6101">
        <ele>974</ele>
        <time>2019-03-23T14:36:23Z</time>
      </trkpt>
      <trkpt lat="44.39041" lon="5.6101">
        <ele>974</ele>
        <time>2019-03-23T14:36:24Z</time>
      </trkpt>
      <trkpt lat="44.39045" lon="5.61011">
        <ele>975</ele>
        <time>2019-03-23T14:36:25Z</time>
      </trkpt>
      <trkpt lat="44.3905" lon="5.61012">
        <ele>975</ele>
        <time>2019-03-23T14:36:26Z</time>
      </trkpt>
      <trkpt lat="44.39055" lon="5.61014">
        <ele>975</ele>
        <time>2019-03-23T14:36:27Z</time>
      </trkpt>
      <trkpt lat="44.3906" lon="5.61015">
        <ele>975</ele>
        <time>2019-03-23T14:36:28Z</time>
      </trkpt>
      <trkpt lat="44.39064" lon="5.61016">
        <ele>975</ele>
        <time>2019-03-23T14:36:29Z</time>
      </trkpt>
      <trkpt lat="44.39069" lon="5.61018">
        <ele>975</ele>
        <time>2019-03-23T14:36:30Z</time>
      </trkpt>
      <trkpt lat="44.39075" lon="5.6102">
        <ele>975</ele>
        <time>2019-03-23T14:36:31Z</time>
      </trkpt>
      <trkpt lat="44.3908" lon="5.61021">
        <ele>975</ele>
        <time>2019-03-23T14:36:32Z</time>
      </trkpt>
      <trkpt lat="44.39086" lon="5.61022">
        <ele>975</ele>
        <time>2019-03-23T14:36:33Z</time>
      </trkpt>
      <trkpt lat="44.39092" lon="5.61023">
        <ele>975</ele>
        <time>2019-03-23T14:36:34Z</time>
      </trkpt>
      <trkpt lat="44.39097" lon="5.61024">
        <ele>975</ele>
        <time>2019-03-23T14:36:35Z</time>
      </trkpt>
      <trkpt lat="44.39103" lon="5.61025">
        <ele>975</ele>
        <time>2019-03-23T14:36:36Z</time>
      </trkpt>
      <trkpt lat="44.39109" lon="5.61025">
        <ele>975</ele>
        <time>2019-03-23T14:36:37Z</time>
      </trkpt>
      <trkpt lat="44.39115" lon="5.61026">
        <ele>975</ele>
        <time>2019-03-23T14:36:38Z</time>
      </trkpt>
      <trkpt lat="44.39122" lon="5.61027">
        <ele>975</ele>
        <time>2019-03-23T14:36:39Z</time>
      </trkpt>
      <trkpt lat="44.39128" lon="5.61028">
        <ele>975</ele>
        <time>2019-03-23T14:36:40Z</time>
      </trkpt>
      <trkpt lat="44.39135" lon="5.61029">
        <ele>975</ele>
        <time>2019-03-23T14:36:41Z</time>
      </trkpt>
      <trkpt lat="44.39142" lon="5.6103">
        <ele>975</ele>
        <time>2019-03-23T14:36:42Z</time>
      </trkpt>
      <trkpt lat="44.39149" lon="5.61031">
        <ele>975</ele>
        <time>2019-03-23T14:36:43Z</time>
      </trkpt>
      <trkpt lat="44.39155" lon="5.61032">
        <ele>975</ele>
        <time>2019-03-23T14:36:44Z</time>
      </trkpt>
      <trkpt lat="44.39161" lon="5.61032">
        <ele>975</ele>
        <time>2019-03-23T14:36:45Z</time>
      </trkpt>
      <trkpt lat="44.39167" lon="5.61033">
        <ele>975</ele>
        <time>2019-03-23T14:36:46Z</time>
      </trkpt>
      <trkpt lat="44.39174" lon="5.61034">
        <ele>975</ele>
        <time>2019-03-23T14:36:47Z</time>
      </trkpt>
      <trkpt lat="44.39179" lon="5.61035">
        <ele>975</ele>
        <time>2019-03-23T14:36:48Z</time>
      </trkpt>
      <trkpt lat="44.39185" lon="5.61036">
        <ele>975</ele>
        <time>2019-03-23T14:36:49Z</time>
      </trkpt>
      <trkpt lat="44.39191" lon="5.61038">
        <ele>975</ele>
        <time>2019-03-23T14:36:50Z</time>
      </trkpt>
      <trkpt lat="44.39196" lon="5.6104">
        <ele>975</ele>
        <time>2019-03-23T14:36:51Z</time>
      </trkpt>
      <trkpt lat="44.39202" lon="5.61041">
        <ele>975</ele>
        <time>2019-03-23T14:36:52Z</time>
      </trkpt>
      <trkpt lat="44.39208" lon="5.61042">
        <ele>975</ele>
        <time>2019-03-23T14:36:53Z</time>
      </trkpt>
      <trkpt lat="44.39214" lon="5.61043">
        <ele>975</ele>
        <time>2019-03-23T14:36:54Z</time>
      </trkpt>
      <trkpt lat="44.39221" lon="5.61044">
        <ele>975</ele>
        <time>2019-03-23T14:36:55Z</time>
      </trkpt>
      <trkpt lat="44.39227" lon="5.61045">
        <ele>975</ele>
        <time>2019-03-23T14:36:56Z</time>
      </trkpt>
      <trkpt lat="44.39234" lon="5.61045">
        <ele>975</ele>
        <time>2019-03-23T14:36:57Z</time>
      </trkpt>
      <trkpt lat="44.39241" lon="5.61046">
        <ele>975</ele>
        <time>2019-03-23T14:36:58Z</time>
      </trkpt>
      <trkpt lat="44.39248" lon="5.61047">
        <ele>975</ele>
        <time>2019-03-23T14:36:59Z</time>
      </trkpt>
      <trkpt lat="44.39255" lon="5.61047">
        <ele>975</ele>
        <time>2019-03-23T14:37:00Z</time>
      </trkpt>
      <trkpt lat="44.39263" lon="5.61047">
        <ele>975</ele>
        <time>2019-03-23T14:37:01Z</time>
      </trkpt>
      <trkpt lat="44.3927" lon="5.61046">
        <ele>975</ele>
        <time>2019-03-23T14:37:02Z</time>
      </trkpt>
      <trkpt lat="44.39278" lon="5.61045">
        <ele>975</ele>
        <time>2019-03-23T14:37:03Z</time>
      </trkpt>
      <trkpt lat="44.39285" lon="5.61044">
        <ele>975</ele>
        <time>2019-03-23T14:37:04Z</time>
      </trkpt>
      <trkpt lat="44.39293" lon="5.61043">
        <ele>975</ele>
        <time>2019-03-23T14:37:05Z</time>
      </trkpt>
      <trkpt lat="44.393" lon="5.61042">
        <ele>975</ele>
        <time>2019-03-23T14:37:06Z</time>
      </trkpt>
      <trkpt lat="44.39308" lon="5.61041">
        <ele>975</ele>
        <time>2019-03-23T14:37:07Z</time>
      </trkpt>
      <trkpt lat="44.39315" lon="5.6104">
        <ele>974</ele>
        <time>2019-03-23T14:37:08Z</time>
      </trkpt>
      <trkpt lat="44.39323" lon="5.61039">
        <ele>974</ele>
        <time>2019-03-23T14:37:09Z</time>
      </trkpt>
      <trkpt lat="44.3933" lon="5.61038">
        <ele>974</ele>
        <time>2019-03-23T14:37:10Z</time>
      </trkpt>
      <trkpt lat="44.39338" lon="5.61037">
        <ele>974</ele>
        <time>2019-03-23T14:37:11Z</time>
      </trkpt>
      <trkpt lat="44.39345" lon="5.61035">
        <ele>974</ele>
        <time>2019-03-23T14:37:12Z</time>
      </trkpt>
      <trkpt lat="44.39352" lon="5.61033">
        <ele>974</ele>
        <time>2019-03-23T14:37:13Z</time>
      </trkpt>
      <trkpt lat="44.39359" lon="5.6103">
        <ele>974</ele>
        <time>2019-03-23T14:37:14Z</time>
      </trkpt>
      <trkpt lat="44.39366" lon="5.61028">
        <ele>974</ele>
        <time>2019-03-23T14:37:15Z</time>
      </trkpt>
      <trkpt lat="44.39372" lon="5.61025">
        <ele>974</ele>
        <time>2019-03-23T14:37:16Z</time>
      </trkpt>
      <trkpt lat="44.39379" lon="5.61021">
        <ele>974</ele>
        <time>2019-03-23T14:37:17Z</time>
      </trkpt>
      <trkpt lat="44.39385" lon="5.61018">
        <ele>974</ele>
        <time>2019-03-23T14:37:18Z</time>
      </trkpt>
      <trkpt lat="44.39391" lon="5.61014">
        <ele>974</ele>
        <time>2019-03-23T14:37:19Z</time>
      </trkpt>
      <trkpt lat="44.39397" lon="5.6101">
        <ele>974</ele>
        <time>2019-03-23T14:37:20Z</time>
      </trkpt>
      <trkpt lat="44.39403" lon="5.61006">
        <ele>974</ele>
        <time>2019-03-23T14:37:21Z</time>
      </trkpt>
      <trkpt lat="44.39409" lon="5.61003">
        <ele>974</ele>
        <time>2019-03-23T14:37:22Z</time>
      </trkpt>
      <trkpt lat="44.39415" lon="5.60999">
        <ele>974</ele>
        <time>2019-03-23T14:37:23Z</time>
      </trkpt>
      <trkpt lat="44.39421" lon="5.60996">
        <ele>974</ele>
        <time>2019-03-23T14:37:24Z</time>
      </trkpt>
      <trkpt lat="44.39426" lon="5.60993">
        <ele>974</ele>
        <time>2019-03-23T14:37:25Z</time>
      </trkpt>
      <trkpt lat="44.39432" lon="5.60989">
        <ele>974</ele>
        <time>2019-03-23T14:37:26Z</time>
      </trkpt>
      <trkpt lat="44.39437" lon="5.60986">
        <ele>974</ele>
        <time>2019-03-23T14:37:27Z</time>
      </trkpt>
      <trkpt lat="44.39442" lon="5.60983">
        <ele>974</ele>
        <time>2019-03-23T14:37:28Z</time>
      </trkpt>
      <trkpt lat="44.39448" lon="5.6098">
        <ele>974</ele>
        <time>2019-03-23T14:37:29Z</time>
      </trkpt>
      <trkpt lat="44.39453" lon="5.60978">
        <ele>974</ele>
        <time>2019-03-23T14:37:30Z</time>
      </trkpt>
      <trkpt lat="44.39458" lon="5.60976">
        <ele>974</ele>
        <time>2019-03-23T14:37:31Z</time>
      </trkpt>
      <trkpt lat="44.39463" lon="5.60974">
        <ele>974</ele>
        <time>2019-03-23T14:37:32Z</time>
      </trkpt>
      <trkpt lat="44.39468" lon="5.60972">
        <ele>974</ele>
        <time>2019-03-23T14:37:33Z</time>
      </trkpt>
      <trkpt lat="44.39473" lon="5.60971">
        <ele>974</ele>
        <time>2019-03-23T14:37:34Z</time>
      </trkpt>
      <trkpt lat="44.39478" lon="5.60969">
        <ele>974</ele>
        <time>2019-03-23T14:37:35Z</time>
      </trkpt>
      <trkpt lat="44.39482" lon="5.60968">
        <ele>974</ele>
        <time>2019-03-23T14:37:36Z</time>
      </trkpt>
      <trkpt lat="44.39487" lon="5.60967">
        <ele>974</ele>
        <time>2019-03-23T14:37:37Z</time>
      </trkpt>
      <trkpt lat="44.39492" lon="5.60965">
        <ele>974</ele>
        <time>2019-03-23T14:37:38Z</time>
      </trkpt>
      <trkpt lat="44.39496" lon="5.60963">
        <ele>974</ele>
        <time>2019-03-23T14:37:39Z</time>
      </trkpt>
      <trkpt lat="44.39501" lon="5.60961">
        <ele>974</ele>
        <time>2019-03-23T14:37:40Z</time>
      </trkpt>
      <trkpt lat="44.39505" lon="5.60959">
        <ele>974</ele>
        <time>2019-03-23T14:37:41Z</time>
      </trkpt>
      <trkpt lat="44.3951" lon="5.60957">
        <ele>974</ele>
        <time>2019-03-23T14:37:42Z</time>
      </trkpt>
      <trkpt lat="44.39514" lon="5.60955">
        <ele>974</ele>
        <time>2019-03-23T14:37:43Z</time>
      </trkpt>
      <trkpt lat="44.39518" lon="5.60953">
        <ele>974</ele>
        <time>2019-03-23T14:37:44Z</time>
      </trkpt>
      <trkpt lat="44.39522" lon="5.6095">
        <ele>974</ele>
        <time>2019-03-23T14:37:45Z</time>
      </trkpt>
      <trkpt lat="44.39526" lon="5.60948">
        <ele>974</ele>
        <time>2019-03-23T14:37:46Z</time>
      </trkpt>
      <trkpt lat="44.3953" lon="5.60946">
        <ele>974</ele>
        <time>2019-03-23T14:37:47Z</time>
      </trkpt>
      <trkpt lat="44.39534" lon="5.60944">
        <ele>974</ele>
        <time>2019-03-23T14:37:48Z</time>
      </trkpt>
      <trkpt lat="44.39537" lon="5.60942">
        <ele>974</ele>
        <time>2019-03-23T14:37:49Z</time>
      </trkpt>
      <trkpt lat="44.39541" lon="5.6094">
        <ele>974</ele>
        <time>2019-03-23T14:37:50Z</time>
      </trkpt>
      <trkpt lat="44.39545" lon="5.60938">
        <ele>974</ele>
        <time>2019-03-23T14:37:51Z</time>
      </trkpt>
      <trkpt lat="44.39549" lon="5.60936">
        <ele>974</ele>
        <time>2019-03-23T14:37:52Z</time>
      </trkpt>
      <trkpt lat="44.39553" lon="5.60934">
        <ele>975</ele>
        <time>2019-03-23T14:37:53Z</time>
      </trkpt>
      <trkpt lat="44.39556" lon="5.60933">
        <ele>975</ele>
        <time>2019-03-23T14:37:54Z</time>
      </trkpt>
      <trkpt lat="44.3956" lon="5.60932">
        <ele>975</ele>
        <time>2019-03-23T14:37:55Z</time>
      </trkpt>
      <trkpt lat="44.39563" lon="5.60932">
        <ele>975</ele>
        <time>2019-03-23T14:37:56Z</time>
      </trkpt>
      <trkpt lat="44.39567" lon="5.60931">
        <ele>975</ele>
        <time>2019-03-23T14:37:57Z</time>
      </trkpt>
      <trkpt lat="44.39571" lon="5.60931">
        <ele>976</ele>
        <time>2019-03-23T14:37:58Z</time>
      </trkpt>
      <trkpt lat="44.39574" lon="5.6093">
        <ele>976</ele>
        <time>2019-03-23T14:37:59Z</time>
      </trkpt>
      <trkpt lat="44.39577" lon="5.6093">
        <ele>976</ele>
        <time>2019-03-23T14:38:00Z</time>
      </trkpt>
      <trkpt lat="44.39581" lon="5.6093">
        <ele>976</ele>
        <time>2019-03-23T14:38:01Z</time>
      </trkpt>
      <trkpt lat="44.39584" lon="5.60931">
        <ele>976</ele>
        <time>2019-03-23T14:38:02Z</time>
      </trkpt>
      <trkpt lat="44.39588" lon="5.60931">
        <ele>977</ele>
        <time>2019-03-23T14:38:03Z</time>
      </trkpt>
      <trkpt lat="44.39591" lon="5.60931">
        <ele>978</ele>
        <time>2019-03-23T14:38:04Z</time>
      </trkpt>
      <trkpt lat="44.39594" lon="5.60931">
        <ele>979</ele>
        <time>2019-03-23T14:38:05Z</time>
      </trkpt>
      <trkpt lat="44.39597" lon="5.60931">
        <ele>979</ele>
        <time>2019-03-23T14:38:06Z</time>
      </trkpt>
      <trkpt lat="44.39601" lon="5.60931">
        <ele>980</ele>
        <time>2019-03-23T14:38:07Z</time>
      </trkpt>
      <trkpt lat="44.39604" lon="5.60931">
        <ele>981</ele>
        <time>2019-03-23T14:38:08Z</time>
      </trkpt>
      <trkpt lat="44.39607" lon="5.60931">
        <ele>981</ele>
        <time>2019-03-23T14:38:09Z</time>
      </trkpt>
      <trkpt lat="44.3961" lon="5.60932">
        <ele>982</ele>
        <time>2019-03-23T14:38:10Z</time>
      </trkpt>
      <trkpt lat="44.39613" lon="5.60932">
        <ele>982</ele>
        <time>2019-03-23T14:38:11Z</time>
      </trkpt>
      <trkpt lat="44.39617" lon="5.60931">
        <ele>982</ele>
        <time>2019-03-23T14:38:12Z</time>
      </trkpt>
      <trkpt lat="44.3962" lon="5.60931">
        <ele>983</ele>
        <time>2019-03-23T14:38:13Z</time>
      </trkpt>
      <trkpt lat="44.39622" lon="5.6093">
        <ele>983</ele>
        <time>2019-03-23T14:38:14Z</time>
      </trkpt>
      <trkpt lat="44.39626" lon="5.6093">
        <ele>983</ele>
        <time>2019-03-23T14:38:15Z</time>
      </trkpt>
      <trkpt lat="44.39628" lon="5.60929">
        <ele>983</ele>
        <time>2019-03-23T14:38:16Z</time>
      </trkpt>
      <trkpt lat="44.39631" lon="5.60928">
        <ele>983</ele>
        <time>2019-03-23T14:38:17Z</time>
      </trkpt>
      <trkpt lat="44.39633" lon="5.60927">
        <ele>983</ele>
        <time>2019-03-23T14:38:18Z</time>
      </trkpt>
      <trkpt lat="44.39636" lon="5.60925">
        <ele>983</ele>
        <time>2019-03-23T14:38:19Z</time>
      </trkpt>
      <trkpt lat="44.39638" lon="5.60924">
        <ele>983</ele>
        <time>2019-03-23T14:38:20Z</time>
      </trkpt>
      <trkpt lat="44.3964" lon="5.60922">
        <ele>983</ele>
        <time>2019-03-23T14:38:21Z</time>
      </trkpt>
      <trkpt lat="44.39643" lon="5.60921">
        <ele>983</ele>
        <time>2019-03-23T14:38:22Z</time>
      </trkpt>
      <trkpt lat="44.39645" lon="5.6092">
        <ele>983</ele>
        <time>2019-03-23T14:38:23Z</time>
      </trkpt>
      <trkpt lat="44.39648" lon="5.60919">
        <ele>983</ele>
        <time>2019-03-23T14:38:24Z</time>
      </trkpt>
      <trkpt lat="44.3965" lon="5.60917">
        <ele>983</ele>
        <time>2019-03-23T14:38:25Z</time>
      </trkpt>
      <trkpt lat="44.39653" lon="5.60916">
        <ele>983</ele>
        <time>2019-03-23T14:38:26Z</time>
      </trkpt>
      <trkpt lat="44.39655" lon="5.60915">
        <ele>983</ele>
        <time>2019-03-23T14:38:27Z</time>
      </trkpt>
      <trkpt lat="44.39658" lon="5.60913">
        <ele>983</ele>
        <time>2019-03-23T14:38:28Z</time>
      </trkpt>
      <trkpt lat="44.39661" lon="5.60912">
        <ele>984</ele>
        <time>2019-03-23T14:38:29Z</time>
      </trkpt>
      <trkpt lat="44.39663" lon="5.6091">
        <ele>984</ele>
        <time>2019-03-23T14:38:30Z</time>
      </trkpt>
      <trkpt lat="44.39666" lon="5.60909">
        <ele>984</ele>
        <time>2019-03-23T14:38:31Z</time>
      </trkpt>
      <trkpt lat="44.39668" lon="5.60908">
        <ele>984</ele>
        <time>2019-03-23T14:38:32Z</time>
      </trkpt>
      <trkpt lat="44.39671" lon="5.60907">
        <ele>984</ele>
        <time>2019-03-23T14:38:33Z</time>
      </trkpt>
      <trkpt lat="44.39674" lon="5.60906">
        <ele>985</ele>
        <time>2019-03-23T14:38:34Z</time>
      </trkpt>
      <trkpt lat="44.39676" lon="5.60904">
        <ele>985</ele>
        <time>2019-03-23T14:38:35Z</time>
      </trkpt>
      <trkpt lat="44.39679" lon="5.60903">
        <ele>985</ele>
        <time>2019-03-23T14:38:36Z</time>
      </trkpt>
      <trkpt lat="44.39681" lon="5.60901">
        <ele>985</ele>
        <time>2019-03-23T14:38:37Z</time>
      </trkpt>
      <trkpt lat="44.39684" lon="5.609">
        <ele>985</ele>
        <time>2019-03-23T14:38:38Z</time>
      </trkpt>
      <trkpt lat="44.39686" lon="5.60898">
        <ele>985</ele>
        <time>2019-03-23T14:38:39Z</time>
      </trkpt>
      <trkpt lat="44.39689" lon="5.60897">
        <ele>985</ele>
        <time>2019-03-23T14:38:40Z</time>
      </trkpt>
      <trkpt lat="44.39691" lon="5.60895">
        <ele>985</ele>
        <time>2019-03-23T14:38:41Z</time>
      </trkpt>
      <trkpt lat="44.39694" lon="5.60893">
        <ele>985</ele>
        <time>2019-03-23T14:38:42Z</time>
      </trkpt>
      <trkpt lat="44.39696" lon="5.60892">
        <ele>985</ele>
        <time>2019-03-23T14:38:43Z</time>
      </trkpt>
      <trkpt lat="44.39699" lon="5.6089">
        <ele>985</ele>
        <time>2019-03-23T14:38:44Z</time>
      </trkpt>
      <trkpt lat="44.39701" lon="5.60889">
        <ele>985</ele>
        <time>2019-03-23T14:38:45Z</time>
      </trkpt>
      <trkpt lat="44.39703" lon="5.60887">
        <ele>985</ele>
        <time>2019-03-23T14:38:46Z</time>
      </trkpt>
      <trkpt lat="44.39706" lon="5.60885">
        <ele>985</ele>
        <time>2019-03-23T14:38:47Z</time>
      </trkpt>
      <trkpt lat="44.39709" lon="5.60884">
        <ele>985</ele>
        <time>2019-03-23T14:38:48Z</time>
      </trkpt>
      <trkpt lat="44.39711" lon="5.60882">
        <ele>985</ele>
        <time>2019-03-23T14:38:49Z</time>
      </trkpt>
      <trkpt lat="44.39714" lon="5.6088">
        <ele>985</ele>
        <time>2019-03-23T14:38:50Z</time>
      </trkpt>
      <trkpt lat="44.39716" lon="5.60878">
        <ele>985</ele>
        <time>2019-03-23T14:38:51Z</time>
      </trkpt>
      <trkpt lat="44.39718" lon="5.60875">
        <ele>986</ele>
        <time>2019-03-23T14:38:52Z</time>
      </trkpt>
      <trkpt lat="44.39721" lon="5.60873">
        <ele>986</ele>
        <time>2019-03-23T14:38:53Z</time>
      </trkpt>
      <trkpt lat="44.39723" lon="5.60871">
        <ele>986</ele>
        <time>2019-03-23T14:38:54Z</time>
      </trkpt>
      <trkpt lat="44.39725" lon="5.60869">
        <ele>986</ele>
        <time>2019-03-23T14:38:55Z</time>
      </trkpt>
      <trkpt lat="44.39728" lon="5.60866">
        <ele>986</ele>
        <time>2019-03-23T14:38:56Z</time>
      </trkpt>
      <trkpt lat="44.3973" lon="5.60864">
        <ele>986</ele>
        <time>2019-03-23T14:38:57Z</time>
      </trkpt>
      <trkpt lat="44.39732" lon="5.60862">
        <ele>986</ele>
        <time>2019-03-23T14:38:58Z</time>
      </trkpt>
      <trkpt lat="44.39735" lon="5.6086">
        <ele>987</ele>
        <time>2019-03-23T14:38:59Z</time>
      </trkpt>
      <trkpt lat="44.39737" lon="5.60858">
        <ele>987</ele>
        <time>2019-03-23T14:39:00Z</time>
      </trkpt>
      <trkpt lat="44.39739" lon="5.60856">
        <ele>987</ele>
        <time>2019-03-23T14:39:01Z</time>
      </trkpt>
      <trkpt lat="44.39741" lon="5.60853">
        <ele>987</ele>
        <time>2019-03-23T14:39:02Z</time>
      </trkpt>
      <trkpt lat="44.39743" lon="5.60851">
        <ele>987</ele>
        <time>2019-03-23T14:39:03Z</time>
      </trkpt>
      <trkpt lat="44.39746" lon="5.6085">
        <ele>987</ele>
        <time>2019-03-23T14:39:04Z</time>
      </trkpt>
      <trkpt lat="44.39748" lon="5.60848">
        <ele>988</ele>
        <time>2019-03-23T14:39:05Z</time>
      </trkpt>
      <trkpt lat="44.39751" lon="5.60847">
        <ele>988</ele>
        <time>2019-03-23T14:39:06Z</time>
      </trkpt>
      <trkpt lat="44.39753" lon="5.60845">
        <ele>988</ele>
        <time>2019-03-23T14:39:07Z</time>
      </trkpt>
      <trkpt lat="44.39756" lon="5.60844">
        <ele>988</ele>
        <time>2019-03-23T14:39:08Z</time>
      </trkpt>
      <trkpt lat="44.39759" lon="5.60842">
        <ele>988</ele>
        <time>2019-03-23T14:39:09Z</time>
      </trkpt>
      <trkpt lat="44.39761" lon="5.60842">
        <ele>988</ele>
        <time>2019-03-23T14:39:10Z</time>
      </trkpt>
      <trkpt lat="44.39764" lon="5.60841">
        <ele>988</ele>
        <time>2019-03-23T14:39:11Z</time>
      </trkpt>
      <trkpt lat="44.39766" lon="5.6084">
        <ele>988</ele>
        <time>2019-03-23T14:39:12Z</time>
      </trkpt>
      <trkpt lat="44.39769" lon="5.6084">
        <ele>989</ele>
        <time>2019-03-23T14:39:13Z</time>
      </trkpt>
      <trkpt lat="44.39772" lon="5.6084">
        <ele>989</ele>
        <time>2019-03-23T14:39:14Z</time>
      </trkpt>
      <trkpt lat="44.39775" lon="5.60839">
        <ele>989</ele>
        <time>2019-03-23T14:39:15Z</time>
      </trkpt>
      <trkpt lat="44.39778" lon="5.60836">
        <ele>989</ele>
        <time>2019-03-23T14:39:16Z</time>
      </trkpt>
      <trkpt lat="44.3978" lon="5.60836">
        <ele>990</ele>
        <time>2019-03-23T14:39:17Z</time>
      </trkpt>
      <trkpt lat="44.39782" lon="5.60835">
        <ele>991</ele>
        <time>2019-03-23T14:39:18Z</time>
      </trkpt>
      <trkpt lat="44.39785" lon="5.60835">
        <ele>991</ele>
        <time>2019-03-23T14:39:19Z</time>
      </trkpt>
      <trkpt lat="44.39788" lon="5.60835">
        <ele>992</ele>
        <time>2019-03-23T14:39:20Z</time>
      </trkpt>
      <trkpt lat="44.3979" lon="5.60834">
        <ele>992</ele>
        <time>2019-03-23T14:39:21Z</time>
      </trkpt>
      <trkpt lat="44.39793" lon="5.60833">
        <ele>993</ele>
        <time>2019-03-23T14:39:22Z</time>
      </trkpt>
      <trkpt lat="44.39796" lon="5.60833">
        <ele>993</ele>
        <time>2019-03-23T14:39:23Z</time>
      </trkpt>
      <trkpt lat="44.39799" lon="5.60833">
        <ele>994</ele>
        <time>2019-03-23T14:39:24Z</time>
      </trkpt>
      <trkpt lat="44.39801" lon="5.60833">
        <ele>994</ele>
        <time>2019-03-23T14:39:25Z</time>
      </trkpt>
      <trkpt lat="44.39803" lon="5.60834">
        <ele>995</ele>
        <time>2019-03-23T14:39:26Z</time>
      </trkpt>
      <trkpt lat="44.39806" lon="5.60833">
        <ele>995</ele>
        <time>2019-03-23T14:39:27Z</time>
      </trkpt>
      <trkpt lat="44.39808" lon="5.60833">
        <ele>995</ele>
        <time>2019-03-23T14:39:28Z</time>
      </trkpt>
      <trkpt lat="44.39811" lon="5.60833">
        <ele>995</ele>
        <time>2019-03-23T14:39:29Z</time>
      </trkpt>
      <trkpt lat="44.39814" lon="5.60833">
        <ele>995</ele>
        <time>2019-03-23T14:39:30Z</time>
      </trkpt>
      <trkpt lat="44.39816" lon="5.60834">
        <ele>995</ele>
        <time>2019-03-23T14:39:31Z</time>
      </trkpt>
      <trkpt lat="44.39819" lon="5.60834">
        <ele>995</ele>
        <time>2019-03-23T14:39:32Z</time>
      </trkpt>
      <trkpt lat="44.39822" lon="5.60834">
        <ele>995</ele>
        <time>2019-03-23T14:39:33Z</time>
      </trkpt>
      <trkpt lat="44.39824" lon="5.60834">
        <ele>995</ele>
        <time>2019-03-23T14:39:34Z</time>
      </trkpt>
      <trkpt lat="44.39827" lon="5.60834">
        <ele>995</ele>
        <time>2019-03-23T14:39:35Z</time>
      </trkpt>
      <trkpt lat="44.3983" lon="5.60834">
        <ele>995</ele>
        <time>2019-03-23T14:39:36Z</time>
      </trkpt>
      <trkpt lat="44.39832" lon="5.60835">
        <ele>995</ele>
        <time>2019-03-23T14:39:37Z</time>
      </trkpt>
      <trkpt lat="44.39836" lon="5.60835">
        <ele>995</ele>
        <time>2019-03-23T14:39:38Z</time>
      </trkpt>
      <trkpt lat="44.39839" lon="5.60836">
        <ele>995</ele>
        <time>2019-03-23T14:39:39Z</time>
      </trkpt>
      <trkpt lat="44.39842" lon="5.60837">
        <ele>995</ele>
        <time>2019-03-23T14:39:40Z</time>
      </trkpt>
      <trkpt lat="44.39845" lon="5.60837">
        <ele>996</ele>
        <time>2019-03-23T14:39:41Z</time>
      </trkpt>
      <trkpt lat="44.39847" lon="5.60838">
        <ele>996</ele>
        <time>2019-03-23T14:39:42Z</time>
      </trkpt>
      <trkpt lat="44.3985" lon="5.60839">
        <ele>997</ele>
        <time>2019-03-23T14:39:43Z</time>
      </trkpt>
      <trkpt lat="44.39853" lon="5.6084">
        <ele>997</ele>
        <time>2019-03-23T14:39:44Z</time>
      </trkpt>
      <trkpt lat="44.39855" lon="5.60841">
        <ele>997</ele>
        <time>2019-03-23T14:39:45Z</time>
      </trkpt>
      <trkpt lat="44.39857" lon="5.60842">
        <ele>997</ele>
        <time>2019-03-23T14:39:46Z</time>
      </trkpt>
      <trkpt lat="44.39859" lon="5.60843">
        <ele>998</ele>
        <time>2019-03-23T14:39:47Z</time>
      </trkpt>
      <trkpt lat="44.39862" lon="5.60844">
        <ele>998</ele>
        <time>2019-03-23T14:39:48Z</time>
      </trkpt>
      <trkpt lat="44.39864" lon="5.60846">
        <ele>998</ele>
        <time>2019-03-23T14:39:49Z</time>
      </trkpt>
      <trkpt lat="44.39866" lon="5.60848">
        <ele>998</ele>
        <time>2019-03-23T14:39:50Z</time>
      </trkpt>
      <trkpt lat="44.39868" lon="5.60849">
        <ele>999</ele>
        <time>2019-03-23T14:39:51Z</time>
      </trkpt>
      <trkpt lat="44.3987" lon="5.60851">
        <ele>999</ele>
        <time>2019-03-23T14:39:52Z</time>
      </trkpt>
      <trkpt lat="44.39873" lon="5.60852">
        <ele>1000</ele>
        <time>2019-03-23T14:39:53Z</time>
      </trkpt>
      <trkpt lat="44.39876" lon="5.60853">
        <ele>1000</ele>
        <time>2019-03-23T14:39:54Z</time>
      </trkpt>
      <trkpt lat="44.39879" lon="5.60855">
        <ele>1001</ele>
        <time>2019-03-23T14:39:55Z</time>
      </trkpt>
      <trkpt lat="44.39881" lon="5.60855">
        <ele>1002</ele>
        <time>2019-03-23T14:39:56Z</time>
      </trkpt>
      <trkpt lat="44.39884" lon="5.60856">
        <ele>1002</ele>
        <time>2019-03-23T14:39:57Z</time>
      </trkpt>
      <trkpt lat="44.39887" lon="5.60856">
        <ele>1003</ele>
        <time>2019-03-23T14:39:58Z</time>
      </trkpt>
      <trkpt lat="44.3989" lon="5.60856">
        <ele>1003</ele>
        <time>2019-03-23T14:39:59Z</time>
      </trkpt>
      <trkpt lat="44.39892" lon="5.60856">
        <ele>1004</ele>
        <time>2019-03-23T14:40:00Z</time>
      </trkpt>
      <trkpt lat="44.39895" lon="5.60856">
        <ele>1004</ele>
        <time>2019-03-23T14:40:01Z</time>
      </trkpt>
      <trkpt lat="44.39898" lon="5.60855">
        <ele>1005</ele>
        <time>2019-03-23T14:40:02Z</time>
      </trkpt>
      <trkpt lat="44.399" lon="5.60853">
        <ele>1005</ele>
        <time>2019-03-23T14:40:03Z</time>
      </trkpt>
      <trkpt lat="44.39902" lon="5.60852">
        <ele>1006</ele>
        <time>2019-03-23T14:40:04Z</time>
      </trkpt>
      <trkpt lat="44.39905" lon="5.60851">
        <ele>1006</ele>
        <time>2019-03-23T14:40:05Z</time>
      </trkpt>
      <trkpt lat="44.39906" lon="5.60849">
        <ele>1006</ele>
        <time>2019-03-23T14:40:06Z</time>
      </trkpt>
      <trkpt lat="44.39908" lon="5.60848">
        <ele>1007</ele>
        <time>2019-03-23T14:40:07Z</time>
      </trkpt>
      <trkpt lat="44.3991" lon="5.60846">
        <ele>1007</ele>
        <time>2019-03-23T14:40:08Z</time>
      </trkpt>
      <trkpt lat="44.39912" lon="5.60845">
        <ele>1007</ele>
        <time>2019-03-23T14:40:09Z</time>
      </trkpt>
      <trkpt lat="44.39914" lon="5.60845">
        <ele>1007</ele>
        <time>2019-03-23T14:40:10Z</time>
      </trkpt>
      <trkpt lat="44.39915" lon="5.60843">
        <ele>1007</ele>
        <time>2019-03-23T14:40:11Z</time>
      </trkpt>
      <trkpt lat="44.39917" lon="5.60842">
        <ele>1007</ele>
        <time>2019-03-23T14:40:12Z</time>
      </trkpt>
      <trkpt lat="44.39919" lon="5.60841">
        <ele>1007</ele>
        <time>2019-03-23T14:40:13Z</time>
      </trkpt>
      <trkpt lat="44.3992" lon="5.6084">
        <ele>1007</ele>
        <time>2019-03-23T14:40:14Z</time>
      </trkpt>
      <trkpt lat="44.39922" lon="5.60838">
        <ele>1007</ele>
        <time>2019-03-23T14:40:15Z</time>
      </trkpt>
      <trkpt lat="44.39924" lon="5.60837">
        <ele>1007</ele>
        <time>2019-03-23T14:40:16Z</time>
      </trkpt>
      <trkpt lat="44.39926" lon="5.60835">
        <ele>1007</ele>
        <time>2019-03-23T14:40:17Z</time>
      </trkpt>
      <trkpt lat="44.39928" lon="5.60834">
        <ele>1007</ele>
        <time>2019-03-23T14:40:18Z</time>
      </trkpt>
      <trkpt lat="44.3993" lon="5.60832">
        <ele>1007</ele>
        <time>2019-03-23T14:40:19Z</time>
      </trkpt>
      <trkpt lat="44.39932" lon="5.6083">
        <ele>1007</ele>
        <time>2019-03-23T14:40:20Z</time>
      </trkpt>
      <trkpt lat="44.39935" lon="5.60828">
        <ele>1007</ele>
        <time>2019-03-23T14:40:21Z</time>
      </trkpt>
      <trkpt lat="44.39937" lon="5.60826">
        <ele>1007</ele>
        <time>2019-03-23T14:40:22Z</time>
      </trkpt>
      <trkpt lat="44.39941" lon="5.60824">
        <ele>1007</ele>
        <time>2019-03-23T14:40:23Z</time>
      </trkpt>
      <trkpt lat="44.39943" lon="5.60822">
        <ele>1007</ele>
        <time>2019-03-23T14:40:24Z</time>
      </trkpt>
      <trkpt lat="44.39946" lon="5.60819">
        <ele>1007</ele>
        <time>2019-03-23T14:40:25Z</time>
      </trkpt>
      <trkpt lat="44.39948" lon="5.60817">
        <ele>1007</ele>
        <time>2019-03-23T14:40:26Z</time>
      </trkpt>
      <trkpt lat="44.3995" lon="5.60815">
        <ele>1007</ele>
        <time>2019-03-23T14:40:27Z</time>
      </trkpt>
      <trkpt lat="44.39952" lon="5.60813">
        <ele>1007</ele>
        <time>2019-03-23T14:40:28Z</time>
      </trkpt>
      <trkpt lat="44.39954" lon="5.60811">
        <ele>1007</ele>
        <time>2019-03-23T14:40:29Z</time>
      </trkpt>
      <trkpt lat="44.39957" lon="5.60809">
        <ele>1007</ele>
        <time>2019-03-23T14:40:30Z</time>
      </trkpt>
      <trkpt lat="44.39959" lon="5.60807">
        <ele>1007</ele>
        <time>2019-03-23T14:40:31Z</time>
      </trkpt>
      <trkpt lat="44.39962" lon="5.60805">
        <ele>1007</ele>
        <time>2019-03-23T14:40:32Z</time>
      </trkpt>
      <trkpt lat="44.39964" lon="5.60802">
        <ele>1007</ele>
        <time>2019-03-23T14:40:33Z</time>
      </trkpt>
      <trkpt lat="44.39965" lon="5.608">
        <ele>1007</ele>
        <time>2019-03-23T14:40:34Z</time>
      </trkpt>
      <trkpt lat="44.39967" lon="5.60797">
        <ele>1007</ele>
        <time>2019-03-23T14:40:35Z</time>
      </trkpt>
      <trkpt lat="44.3997" lon="5.60795">
        <ele>1007</ele>
        <time>2019-03-23T14:40:36Z</time>
      </trkpt>
      <trkpt lat="44.39971" lon="5.60792">
        <ele>1007</ele>
        <time>2019-03-23T14:40:37Z</time>
      </trkpt>
      <trkpt lat="44.39973" lon="5.6079">
        <ele>1007</ele>
        <time>2019-03-23T14:40:38Z</time>
      </trkpt>
      <trkpt lat="44.39976" lon="5.60788">
        <ele>1007</ele>
        <time>2019-03-23T14:40:39Z</time>
      </trkpt>
      <trkpt lat="44.39978" lon="5.60785">
        <ele>1007</ele>
        <time>2019-03-23T14:40:40Z</time>
      </trkpt>
      <trkpt lat="44.3998" lon="5.60781">
        <ele>1007</ele>
        <time>2019-03-23T14:40:41Z</time>
      </trkpt>
      <trkpt lat="44.39982" lon="5.60778">
        <ele>1007</ele>
        <time>2019-03-23T14:40:42Z</time>
      </trkpt>
      <trkpt lat="44.39985" lon="5.60776">
        <ele>1007</ele>
        <time>2019-03-23T14:40:43Z</time>
      </trkpt>
      <trkpt lat="44.39986" lon="5.60774">
        <ele>1007</ele>
        <time>2019-03-23T14:40:44Z</time>
      </trkpt>
      <trkpt lat="44.39987" lon="5.60773">
        <ele>1007</ele>
        <time>2019-03-23T14:40:46Z</time>
      </trkpt>
      <trkpt lat="44.39986" lon="5.60771">
        <ele>1007</ele>
        <time>2019-03-23T14:40:53Z</time>
      </trkpt>
      <trkpt lat="44.39986" lon="5.6077">
        <ele>1007</ele>
        <time>2019-03-23T14:40:57Z</time>
      </trkpt>
      <trkpt lat="44.39986" lon="5.60768">
        <ele>1007</ele>
        <time>2019-03-23T14:41:02Z</time>
      </trkpt>
      <trkpt lat="44.39986" lon="5.60767">
        <ele>1007</ele>
        <time>2019-03-23T14:41:09Z</time>
      </trkpt>
      <trkpt lat="44.39986" lon="5.60765">
        <ele>1007</ele>
        <time>2019-03-23T14:41:14Z</time>
      </trkpt>
      <trkpt lat="44.39986" lon="5.60764">
        <ele>1007</ele>
        <time>2019-03-23T14:41:22Z</time>
      </trkpt>
      <trkpt lat="44.39986" lon="5.60765">
        <ele>1008</ele>
        <time>2019-03-23T14:41:34Z</time>
      </trkpt>
      <trkpt lat="44.39986" lon="5.60767">
        <ele>1009</ele>
        <time>2019-03-23T14:41:57Z</time>
      </trkpt>
      <trkpt lat="44.39986" lon="5.60768">
        <ele>1009</ele>
        <time>2019-03-23T14:42:05Z</time>
      </trkpt>
      <trkpt lat="44.39985" lon="5.60769">
        <ele>1011</ele>
        <time>2019-03-23T14:43:24Z</time>
      </trkpt>
      <trkpt lat="44.39985" lon="5.60767">
        <ele>1012</ele>
        <time>2019-03-23T14:43:42Z</time>
      </trkpt>
      <trkpt lat="44.39985" lon="5.60766">
        <ele>1012</ele>
        <time>2019-03-23T14:43:58Z</time>
      </trkpt>
      <trkpt lat="44.39985" lon="5.60764">
        <ele>1013</ele>
        <time>2019-03-23T14:44:08Z</time>
      </trkpt>
      <trkpt lat="44.39984" lon="5.60763">
        <ele>1014</ele>
        <time>2019-03-23T14:46:02Z</time>
      </trkpt>
      <trkpt lat="44.39983" lon="5.60761">
        <ele>1014</ele>
        <time>2019-03-23T14:46:09Z</time>
      </trkpt>
      <trkpt lat="44.39983" lon="5.6076">
        <ele>1014</ele>
        <time>2019-03-23T14:46:13Z</time>
      </trkpt>
      <trkpt lat="44.39982" lon="5.60758">
        <ele>1014</ele>
        <time>2019-03-23T14:46:20Z</time>
      </trkpt>
      <trkpt lat="44.39983" lon="5.6076">
        <ele>1014</ele>
        <time>2019-03-23T14:46:49Z</time>
      </trkpt>
      <trkpt lat="44.39982" lon="5.60758">
        <ele>1014</ele>
        <time>2019-03-23T14:46:56Z</time>
      </trkpt>
      <trkpt lat="44.39983" lon="5.6076">
        <ele>1014</ele>
        <time>2019-03-23T14:47:28Z</time>
      </trkpt>
      <trkpt lat="44.39983" lon="5.60761">
        <ele>1015</ele>
        <time>2019-03-23T14:47:39Z</time>
      </trkpt>
      <trkpt lat="44.39984" lon="5.60763">
        <ele>1016</ele>
        <time>2019-03-23T14:48:03Z</time>
      </trkpt>
      <trkpt lat="44.39985" lon="5.60763">
        <ele>1016</ele>
        <time>2019-03-23T14:48:13Z</time>
      </trkpt>
      <trkpt lat="44.39986" lon="5.60761">
        <ele>1017</ele>
        <time>2019-03-23T14:48:19Z</time>
      </trkpt>
      <trkpt lat="44.39987" lon="5.60762">
        <ele>1018</ele>
        <time>2019-03-23T14:48:30Z</time>
      </trkpt>
      <trkpt lat="44.39986" lon="5.60764">
        <ele>1018</ele>
        <time>2019-03-23T14:49:05Z</time>
      </trkpt>
      <trkpt lat="44.39985" lon="5.60764">
        <ele>1018</ele>
        <time>2019-03-23T14:49:31Z</time>
      </trkpt>
      <trkpt lat="44.39984" lon="5.60764">
        <ele>1018</ele>
        <time>2019-03-23T14:49:44Z</time>
      </trkpt>
      <trkpt lat="44.39986" lon="5.60763">
        <ele>1018</ele>
        <time>2019-03-23T14:50:02Z</time>
      </trkpt>
      <trkpt lat="44.39987" lon="5.60763">
        <ele>1018</ele>
        <time>2019-03-23T14:50:03Z</time>
      </trkpt>
      <trkpt lat="44.39989" lon="5.60762">
        <ele>1018</ele>
        <time>2019-03-23T14:50:04Z</time>
      </trkpt>
      <trkpt lat="44.39991" lon="5.60761">
        <ele>1018</ele>
        <time>2019-03-23T14:50:05Z</time>
      </trkpt>
      <trkpt lat="44.39994" lon="5.60759">
        <ele>1018</ele>
        <time>2019-03-23T14:50:06Z</time>
      </trkpt>
      <trkpt lat="44.39996" lon="5.60758">
        <ele>1018</ele>
        <time>2019-03-23T14:50:07Z</time>
      </trkpt>
      <trkpt lat="44.4" lon="5.60756">
        <ele>1018</ele>
        <time>2019-03-23T14:50:08Z</time>
      </trkpt>
      <trkpt lat="44.40004" lon="5.60754">
        <ele>1018</ele>
        <time>2019-03-23T14:50:09Z</time>
      </trkpt>
      <trkpt lat="44.40008" lon="5.60753">
        <ele>1017</ele>
        <time>2019-03-23T14:50:10Z</time>
      </trkpt>
      <trkpt lat="44.40012" lon="5.60754">
        <ele>1017</ele>
        <time>2019-03-23T14:50:11Z</time>
      </trkpt>
      <trkpt lat="44.40016" lon="5.60756">
        <ele>1017</ele>
        <time>2019-03-23T14:50:12Z</time>
      </trkpt>
      <trkpt lat="44.4002" lon="5.60757">
        <ele>1016</ele>
        <time>2019-03-23T14:50:13Z</time>
      </trkpt>
      <trkpt lat="44.40025" lon="5.6076">
        <ele>1015</ele>
        <time>2019-03-23T14:50:14Z</time>
      </trkpt>
      <trkpt lat="44.4003" lon="5.60763">
        <ele>1014</ele>
        <time>2019-03-23T14:50:15Z</time>
      </trkpt>
      <trkpt lat="44.40034" lon="5.60767">
        <ele>1014</ele>
        <time>2019-03-23T14:50:16Z</time>
      </trkpt>
      <trkpt lat="44.40039" lon="5.60771">
        <ele>1013</ele>
        <time>2019-03-23T14:50:17Z</time>
      </trkpt>
      <trkpt lat="44.40044" lon="5.60777">
        <ele>1012</ele>
        <time>2019-03-23T14:50:18Z</time>
      </trkpt>
      <trkpt lat="44.40049" lon="5.60784">
        <ele>1011</ele>
        <time>2019-03-23T14:50:19Z</time>
      </trkpt>
      <trkpt lat="44.40054" lon="5.60793">
        <ele>1011</ele>
        <time>2019-03-23T14:50:20Z</time>
      </trkpt>
      <trkpt lat="44.40057" lon="5.60803">
        <ele>1010</ele>
        <time>2019-03-23T14:50:21Z</time>
      </trkpt>
      <trkpt lat="44.4006" lon="5.60813">
        <ele>1009</ele>
        <time>2019-03-23T14:50:22Z</time>
      </trkpt>
      <trkpt lat="44.40063" lon="5.60824">
        <ele>1008</ele>
        <time>2019-03-23T14:50:23Z</time>
      </trkpt>
      <trkpt lat="44.40065" lon="5.60835">
        <ele>1007</ele>
        <time>2019-03-23T14:50:24Z</time>
      </trkpt>
      <trkpt lat="44.40068" lon="5.60847">
        <ele>1006</ele>
        <time>2019-03-23T14:50:25Z</time>
      </trkpt>
      <trkpt lat="44.40071" lon="5.60858">
        <ele>1005</ele>
        <time>2019-03-23T14:50:26Z</time>
      </trkpt>
      <trkpt lat="44.40073" lon="5.60869">
        <ele>1004</ele>
        <time>2019-03-23T14:50:27Z</time>
      </trkpt>
      <trkpt lat="44.40076" lon="5.60881">
        <ele>1003</ele>
        <time>2019-03-23T14:50:28Z</time>
      </trkpt>
      <trkpt lat="44.4008" lon="5.60893">
        <ele>1003</ele>
        <time>2019-03-23T14:50:29Z</time>
      </trkpt>
      <trkpt lat="44.40082" lon="5.60905">
        <ele>1002</ele>
        <time>2019-03-23T14:50:30Z</time>
      </trkpt>
      <trkpt lat="44.40084" lon="5.60917">
        <ele>1001</ele>
        <time>2019-03-23T14:50:31Z</time>
      </trkpt>
      <trkpt lat="44.40087" lon="5.60929">
        <ele>1000</ele>
        <time>2019-03-23T14:50:32Z</time>
      </trkpt>
      <trkpt lat="44.40089" lon="5.60941">
        <ele>1000</ele>
        <time>2019-03-23T14:50:33Z</time>
      </trkpt>
      <trkpt lat="44.40092" lon="5.60952">
        <ele>999</ele>
        <time>2019-03-23T14:50:34Z</time>
      </trkpt>
      <trkpt lat="44.40096" lon="5.60962">
        <ele>998</ele>
        <time>2019-03-23T14:50:35Z</time>
      </trkpt>
      <trkpt lat="44.40102" lon="5.60971">
        <ele>997</ele>
        <time>2019-03-23T14:50:36Z</time>
      </trkpt>
      <trkpt lat="44.40108" lon="5.60979">
        <ele>996</ele>
        <time>2019-03-23T14:50:37Z</time>
      </trkpt>
      <trkpt lat="44.40115" lon="5.60985">
        <ele>995</ele>
        <time>2019-03-23T14:50:38Z</time>
      </trkpt>
      <trkpt lat="44.40121" lon="5.6099">
        <ele>994</ele>
        <time>2019-03-23T14:50:39Z</time>
      </trkpt>
      <trkpt lat="44.40128" lon="5.60994">
        <ele>994</ele>
        <time>2019-03-23T14:50:40Z</time>
      </trkpt>
      <trkpt lat="44.40136" lon="5.60999">
        <ele>993</ele>
        <time>2019-03-23T14:50:41Z</time>
      </trkpt>
      <trkpt lat="44.40143" lon="5.61004">
        <ele>992</ele>
        <time>2019-03-23T14:50:42Z</time>
      </trkpt>
      <trkpt lat="44.4015" lon="5.6101">
        <ele>991</ele>
        <time>2019-03-23T14:50:43Z</time>
      </trkpt>
      <trkpt lat="44.40156" lon="5.61016">
        <ele>990</ele>
        <time>2019-03-23T14:50:44Z</time>
      </trkpt>
      <trkpt lat="44.40162" lon="5.61024">
        <ele>989</ele>
        <time>2019-03-23T14:50:45Z</time>
      </trkpt>
      <trkpt lat="44.40167" lon="5.61032">
        <ele>988</ele>
        <time>2019-03-23T14:50:46Z</time>
      </trkpt>
      <trkpt lat="44.4017" lon="5.61042">
        <ele>987</ele>
        <time>2019-03-23T14:50:47Z</time>
      </trkpt>
      <trkpt lat="44.40172" lon="5.61051">
        <ele>987</ele>
        <time>2019-03-23T14:50:48Z</time>
      </trkpt>
      <trkpt lat="44.40176" lon="5.61057">
        <ele>986</ele>
        <time>2019-03-23T14:50:49Z</time>
      </trkpt>
      <trkpt lat="44.40181" lon="5.61061">
        <ele>986</ele>
        <time>2019-03-23T14:50:50Z</time>
      </trkpt>
      <trkpt lat="44.40187" lon="5.61062">
        <ele>985</ele>
        <time>2019-03-23T14:50:51Z</time>
      </trkpt>
      <trkpt lat="44.40193" lon="5.61062">
        <ele>984</ele>
        <time>2019-03-23T14:50:52Z</time>
      </trkpt>
      <trkpt lat="44.40199" lon="5.61061">
        <ele>984</ele>
        <time>2019-03-23T14:50:53Z</time>
      </trkpt>
      <trkpt lat="44.40205" lon="5.6106">
        <ele>984</ele>
        <time>2019-03-23T14:50:54Z</time>
      </trkpt>
      <trkpt lat="44.4021" lon="5.6106">
        <ele>983</ele>
        <time>2019-03-23T14:50:55Z</time>
      </trkpt>
      <trkpt lat="44.40217" lon="5.61059">
        <ele>983</ele>
        <time>2019-03-23T14:50:56Z</time>
      </trkpt>
      <trkpt lat="44.40224" lon="5.6106">
        <ele>983</ele>
        <time>2019-03-23T14:50:57Z</time>
      </trkpt>
      <trkpt lat="44.40231" lon="5.61061">
        <ele>982</ele>
        <time>2019-03-23T14:50:58Z</time>
      </trkpt>
      <trkpt lat="44.40237" lon="5.61064">
        <ele>982</ele>
        <time>2019-03-23T14:50:59Z</time>
      </trkpt>
      <trkpt lat="44.40245" lon="5.61067">
        <ele>981</ele>
        <time>2019-03-23T14:51:00Z</time>
      </trkpt>
      <trkpt lat="44.40252" lon="5.61071">
        <ele>980</ele>
        <time>2019-03-23T14:51:01Z</time>
      </trkpt>
      <trkpt lat="44.40259" lon="5.61075">
        <ele>980</ele>
        <time>2019-03-23T14:51:02Z</time>
      </trkpt>
      <trkpt lat="44.40266" lon="5.61079">
        <ele>979</ele>
        <time>2019-03-23T14:51:03Z</time>
      </trkpt>
      <trkpt lat="44.40274" lon="5.61084">
        <ele>978</ele>
        <time>2019-03-23T14:51:04Z</time>
      </trkpt>
      <trkpt lat="44.40281" lon="5.6109">
        <ele>977</ele>
        <time>2019-03-23T14:51:05Z</time>
      </trkpt>
      <trkpt lat="44.40287" lon="5.61097">
        <ele>976</ele>
        <time>2019-03-23T14:51:06Z</time>
      </trkpt>
      <trkpt lat="44.40294" lon="5.61105">
        <ele>976</ele>
        <time>2019-03-23T14:51:07Z</time>
      </trkpt>
      <trkpt lat="44.40302" lon="5.61112">
        <ele>975</ele>
        <time>2019-03-23T14:51:08Z</time>
      </trkpt>
      <trkpt lat="44.4031" lon="5.61117">
        <ele>974</ele>
        <time>2019-03-23T14:51:09Z</time>
      </trkpt>
      <trkpt lat="44.40318" lon="5.61119">
        <ele>974</ele>
        <time>2019-03-23T14:51:10Z</time>
      </trkpt>
      <trkpt lat="44.40327" lon="5.61119">
        <ele>973</ele>
        <time>2019-03-23T14:51:11Z</time>
      </trkpt>
      <trkpt lat="44.40335" lon="5.61118">
        <ele>973</ele>
        <time>2019-03-23T14:51:12Z</time>
      </trkpt>
      <trkpt lat="44.40342" lon="5.61119">
        <ele>973</ele>
        <time>2019-03-23T14:51:13Z</time>
      </trkpt>
      <trkpt lat="44.40349" lon="5.61122">
        <ele>972</ele>
        <time>2019-03-23T14:51:14Z</time>
      </trkpt>
      <trkpt lat="44.40355" lon="5.61127">
        <ele>972</ele>
        <time>2019-03-23T14:51:15Z</time>
      </trkpt>
      <trkpt lat="44.40361" lon="5.61133">
        <ele>971</ele>
        <time>2019-03-23T14:51:16Z</time>
      </trkpt>
      <trkpt lat="44.40368" lon="5.6114">
        <ele>970</ele>
        <time>2019-03-23T14:51:17Z</time>
      </trkpt>
      <trkpt lat="44.40373" lon="5.61148">
        <ele>970</ele>
        <time>2019-03-23T14:51:18Z</time>
      </trkpt>
      <trkpt lat="44.40378" lon="5.61156">
        <ele>969</ele>
        <time>2019-03-23T14:51:19Z</time>
      </trkpt>
      <trkpt lat="44.40382" lon="5.61163">
        <ele>968</ele>
        <time>2019-03-23T14:51:20Z</time>
      </trkpt>
      <trkpt lat="44.40386" lon="5.6117">
        <ele>968</ele>
        <time>2019-03-23T14:51:21Z</time>
      </trkpt>
      <trkpt lat="44.40391" lon="5.61175">
        <ele>967</ele>
        <time>2019-03-23T14:51:22Z</time>
      </trkpt>
      <trkpt lat="44.40397" lon="5.61178">
        <ele>966</ele>
        <time>2019-03-23T14:51:23Z</time>
      </trkpt>
      <trkpt lat="44.40403" lon="5.61176">
        <ele>966</ele>
        <time>2019-03-23T14:51:24Z</time>
      </trkpt>
      <trkpt lat="44.40408" lon="5.61172">
        <ele>965</ele>
        <time>2019-03-23T14:51:25Z</time>
      </trkpt>
      <trkpt lat="44.40412" lon="5.61166">
        <ele>964</ele>
        <time>2019-03-23T14:51:26Z</time>
      </trkpt>
      <trkpt lat="44.40415" lon="5.6116">
        <ele>964</ele>
        <time>2019-03-23T14:51:27Z</time>
      </trkpt>
      <trkpt lat="44.40418" lon="5.61153">
        <ele>963</ele>
        <time>2019-03-23T14:51:28Z</time>
      </trkpt>
      <trkpt lat="44.40421" lon="5.61146">
        <ele>963</ele>
        <time>2019-03-23T14:51:29Z</time>
      </trkpt>
      <trkpt lat="44.40423" lon="5.61138">
        <ele>962</ele>
        <time>2019-03-23T14:51:30Z</time>
      </trkpt>
      <trkpt lat="44.40424" lon="5.6113">
        <ele>962</ele>
        <time>2019-03-23T14:51:31Z</time>
      </trkpt>
      <trkpt lat="44.40426" lon="5.61121">
        <ele>961</ele>
        <time>2019-03-23T14:51:32Z</time>
      </trkpt>
      <trkpt lat="44.40427" lon="5.61111">
        <ele>960</ele>
        <time>2019-03-23T14:51:33Z</time>
      </trkpt>
      <trkpt lat="44.40428" lon="5.61102">
        <ele>960</ele>
        <time>2019-03-23T14:51:34Z</time>
      </trkpt>
      <trkpt lat="44.40428" lon="5.61093">
        <ele>959</ele>
        <time>2019-03-23T14:51:35Z</time>
      </trkpt>
      <trkpt lat="44.40427" lon="5.61084">
        <ele>959</ele>
        <time>2019-03-23T14:51:36Z</time>
      </trkpt>
      <trkpt lat="44.40425" lon="5.61075">
        <ele>958</ele>
        <time>2019-03-23T14:51:37Z</time>
      </trkpt>
      <trkpt lat="44.40421" lon="5.61067">
        <ele>958</ele>
        <time>2019-03-23T14:51:38Z</time>
      </trkpt>
      <trkpt lat="44.40415" lon="5.61061">
        <ele>958</ele>
        <time>2019-03-23T14:51:39Z</time>
      </trkpt>
      <trkpt lat="44.40408" lon="5.61058">
        <ele>957</ele>
        <time>2019-03-23T14:51:40Z</time>
      </trkpt>
      <trkpt lat="44.40403" lon="5.61055">
        <ele>956</ele>
        <time>2019-03-23T14:51:41Z</time>
      </trkpt>
      <trkpt lat="44.40398" lon="5.61051">
        <ele>956</ele>
        <time>2019-03-23T14:51:42Z</time>
      </trkpt>
      <trkpt lat="44.40395" lon="5.61045">
        <ele>955</ele>
        <time>2019-03-23T14:51:43Z</time>
      </trkpt>
      <trkpt lat="44.40393" lon="5.61037">
        <ele>954</ele>
        <time>2019-03-23T14:51:44Z</time>
      </trkpt>
      <trkpt lat="44.40394" lon="5.6103">
        <ele>953</ele>
        <time>2019-03-23T14:51:45Z</time>
      </trkpt>
      <trkpt lat="44.40395" lon="5.61022">
        <ele>953</ele>
        <time>2019-03-23T14:51:46Z</time>
      </trkpt>
      <trkpt lat="44.40398" lon="5.61014">
        <ele>952</ele>
        <time>2019-03-23T14:51:47Z</time>
      </trkpt>
      <trkpt lat="44.40401" lon="5.61006">
        <ele>951</ele>
        <time>2019-03-23T14:51:48Z</time>
      </trkpt>
      <trkpt lat="44.40405" lon="5.60998">
        <ele>951</ele>
        <time>2019-03-23T14:51:49Z</time>
      </trkpt>
      <trkpt lat="44.40408" lon="5.60989">
        <ele>950</ele>
        <time>2019-03-23T14:51:50Z</time>
      </trkpt>
      <trkpt lat="44.40411" lon="5.6098">
        <ele>949</ele>
        <time>2019-03-23T14:51:51Z</time>
      </trkpt>
      <trkpt lat="44.40412" lon="5.60969">
        <ele>949</ele>
        <time>2019-03-23T14:51:52Z</time>
      </trkpt>
      <trkpt lat="44.40413" lon="5.60959">
        <ele>948</ele>
        <time>2019-03-23T14:51:53Z</time>
      </trkpt>
      <trkpt lat="44.40411" lon="5.6095">
        <ele>948</ele>
        <time>2019-03-23T14:51:54Z</time>
      </trkpt>
      <trkpt lat="44.40409" lon="5.60943">
        <ele>948</ele>
        <time>2019-03-23T14:51:55Z</time>
      </trkpt>
      <trkpt lat="44.40408" lon="5.60936">
        <ele>947</ele>
        <time>2019-03-23T14:51:56Z</time>
      </trkpt>
      <trkpt lat="44.40409" lon="5.60929">
        <ele>947</ele>
        <time>2019-03-23T14:51:57Z</time>
      </trkpt>
      <trkpt lat="44.40412" lon="5.60924">
        <ele>946</ele>
        <time>2019-03-23T14:51:58Z</time>
      </trkpt>
      <trkpt lat="44.40416" lon="5.60922">
        <ele>945</ele>
        <time>2019-03-23T14:51:59Z</time>
      </trkpt>
      <trkpt lat="44.4042" lon="5.60924">
        <ele>945</ele>
        <time>2019-03-23T14:52:00Z</time>
      </trkpt>
      <trkpt lat="44.40424" lon="5.60928">
        <ele>945</ele>
        <time>2019-03-23T14:52:01Z</time>
      </trkpt>
      <trkpt lat="44.40427" lon="5.60933">
        <ele>944</ele>
        <time>2019-03-23T14:52:02Z</time>
      </trkpt>
      <trkpt lat="44.40429" lon="5.6094">
        <ele>944</ele>
        <time>2019-03-23T14:52:03Z</time>
      </trkpt>
      <trkpt lat="44.4043" lon="5.60948">
        <ele>944</ele>
        <time>2019-03-23T14:52:04Z</time>
      </trkpt>
      <trkpt lat="44.4043" lon="5.60956">
        <ele>943</ele>
        <time>2019-03-23T14:52:05Z</time>
      </trkpt>
      <trkpt lat="44.40429" lon="5.60965">
        <ele>943</ele>
        <time>2019-03-23T14:52:06Z</time>
      </trkpt>
      <trkpt lat="44.40429" lon="5.60973">
        <ele>942</ele>
        <time>2019-03-23T14:52:07Z</time>
      </trkpt>
      <trkpt lat="44.40431" lon="5.60981">
        <ele>942</ele>
        <time>2019-03-23T14:52:08Z</time>
      </trkpt>
      <trkpt lat="44.40433" lon="5.60988">
        <ele>942</ele>
        <time>2019-03-23T14:52:09Z</time>
      </trkpt>
      <trkpt lat="44.40438" lon="5.60991">
        <ele>942</ele>
        <time>2019-03-23T14:52:10Z</time>
      </trkpt>
      <trkpt lat="44.40444" lon="5.60992">
        <ele>941</ele>
        <time>2019-03-23T14:52:11Z</time>
      </trkpt>
      <trkpt lat="44.40451" lon="5.60992">
        <ele>941</ele>
        <time>2019-03-23T14:52:12Z</time>
      </trkpt>
      <trkpt lat="44.40457" lon="5.60991">
        <ele>940</ele>
        <time>2019-03-23T14:52:13Z</time>
      </trkpt>
      <trkpt lat="44.40465" lon="5.6099">
        <ele>940</ele>
        <time>2019-03-23T14:52:14Z</time>
      </trkpt>
      <trkpt lat="44.40472" lon="5.6099">
        <ele>939</ele>
        <time>2019-03-23T14:52:15Z</time>
      </trkpt>
      <trkpt lat="44.4048" lon="5.6099">
        <ele>938</ele>
        <time>2019-03-23T14:52:16Z</time>
      </trkpt>
      <trkpt lat="44.40487" lon="5.6099">
        <ele>938</ele>
        <time>2019-03-23T14:52:17Z</time>
      </trkpt>
      <trkpt lat="44.40494" lon="5.60992">
        <ele>938</ele>
        <time>2019-03-23T14:52:18Z</time>
      </trkpt>
      <trkpt lat="44.40501" lon="5.60996">
        <ele>937</ele>
        <time>2019-03-23T14:52:19Z</time>
      </trkpt>
      <trkpt lat="44.40507" lon="5.61">
        <ele>937</ele>
        <time>2019-03-23T14:52:20Z</time>
      </trkpt>
      <trkpt lat="44.40513" lon="5.61006">
        <ele>936</ele>
        <time>2019-03-23T14:52:21Z</time>
      </trkpt>
      <trkpt lat="44.40518" lon="5.61013">
        <ele>935</ele>
        <time>2019-03-23T14:52:22Z</time>
      </trkpt>
      <trkpt lat="44.40523" lon="5.61021">
        <ele>935</ele>
        <time>2019-03-23T14:52:23Z</time>
      </trkpt>
      <trkpt lat="44.40526" lon="5.6103">
        <ele>934</ele>
        <time>2019-03-23T14:52:24Z</time>
      </trkpt>
      <trkpt lat="44.4053" lon="5.61039">
        <ele>934</ele>
        <time>2019-03-23T14:52:25Z</time>
      </trkpt>
      <trkpt lat="44.40533" lon="5.61048">
        <ele>933</ele>
        <time>2019-03-23T14:52:26Z</time>
      </trkpt>
      <trkpt lat="44.40537" lon="5.61056">
        <ele>932</ele>
        <time>2019-03-23T14:52:27Z</time>
      </trkpt>
      <trkpt lat="44.40541" lon="5.61064">
        <ele>932</ele>
        <time>2019-03-23T14:52:28Z</time>
      </trkpt>
      <trkpt lat="44.40545" lon="5.61073">
        <ele>931</ele>
        <time>2019-03-23T14:52:29Z</time>
      </trkpt>
      <trkpt lat="44.40548" lon="5.61082">
        <ele>931</ele>
        <time>2019-03-23T14:52:30Z</time>
      </trkpt>
      <trkpt lat="44.40551" lon="5.6109">
        <ele>930</ele>
        <time>2019-03-23T14:52:31Z</time>
      </trkpt>
      <trkpt lat="44.40555" lon="5.611">
        <ele>930</ele>
        <time>2019-03-23T14:52:32Z</time>
      </trkpt>
      <trkpt lat="44.40559" lon="5.6111">
        <ele>929</ele>
        <time>2019-03-23T14:52:33Z</time>
      </trkpt>
      <trkpt lat="44.40562" lon="5.61121">
        <ele>929</ele>
        <time>2019-03-23T14:52:34Z</time>
      </trkpt>
      <trkpt lat="44.40566" lon="5.61131">
        <ele>928</ele>
        <time>2019-03-23T14:52:35Z</time>
      </trkpt>
      <trkpt lat="44.40569" lon="5.61143">
        <ele>928</ele>
        <time>2019-03-23T14:52:36Z</time>
      </trkpt>
      <trkpt lat="44.40572" lon="5.61154">
        <ele>927</ele>
        <time>2019-03-23T14:52:37Z</time>
      </trkpt>
      <trkpt lat="44.40574" lon="5.61166">
        <ele>927</ele>
        <time>2019-03-23T14:52:38Z</time>
      </trkpt>
      <trkpt lat="44.40577" lon="5.61178">
        <ele>926</ele>
        <time>2019-03-23T14:52:39Z</time>
      </trkpt>
      <trkpt lat="44.40578" lon="5.61191">
        <ele>925</ele>
        <time>2019-03-23T14:52:40Z</time>
      </trkpt>
      <trkpt lat="44.4058" lon="5.61203">
        <ele>924</ele>
        <time>2019-03-23T14:52:41Z</time>
      </trkpt>
      <trkpt lat="44.40582" lon="5.61214">
        <ele>924</ele>
        <time>2019-03-23T14:52:42Z</time>
      </trkpt>
      <trkpt lat="44.40585" lon="5.61224">
        <ele>923</ele>
        <time>2019-03-23T14:52:43Z</time>
      </trkpt>
      <trkpt lat="44.4059" lon="5.61233">
        <ele>922</ele>
        <time>2019-03-23T14:52:44Z</time>
      </trkpt>
      <trkpt lat="44.40596" lon="5.61239">
        <ele>922</ele>
        <time>2019-03-23T14:52:45Z</time>
      </trkpt>
      <trkpt lat="44.40602" lon="5.61244">
        <ele>921</ele>
        <time>2019-03-23T14:52:46Z</time>
      </trkpt>
      <trkpt lat="44.40609" lon="5.61246">
        <ele>921</ele>
        <time>2019-03-23T14:52:47Z</time>
      </trkpt>
      <trkpt lat="44.40617" lon="5.61248">
        <ele>920</ele>
        <time>2019-03-23T14:52:48Z</time>
      </trkpt>
      <trkpt lat="44.40624" lon="5.61248">
        <ele>920</ele>
        <time>2019-03-23T14:52:49Z</time>
      </trkpt>
      <trkpt lat="44.40632" lon="5.61247">
        <ele>919</ele>
        <time>2019-03-23T14:52:50Z</time>
      </trkpt>
      <trkpt lat="44.40639" lon="5.61246">
        <ele>919</ele>
        <time>2019-03-23T14:52:51Z</time>
      </trkpt>
      <trkpt lat="44.40646" lon="5.61244">
        <ele>918</ele>
        <time>2019-03-23T14:52:52Z</time>
      </trkpt>
      <trkpt lat="44.40653" lon="5.61242">
        <ele>918</ele>
        <time>2019-03-23T14:52:53Z</time>
      </trkpt>
      <trkpt lat="44.4066" lon="5.6124">
        <ele>917</ele>
        <time>2019-03-23T14:52:54Z</time>
      </trkpt>
      <trkpt lat="44.40667" lon="5.61237">
        <ele>916</ele>
        <time>2019-03-23T14:52:55Z</time>
      </trkpt>
      <trkpt lat="44.40674" lon="5.61234">
        <ele>916</ele>
        <time>2019-03-23T14:52:56Z</time>
      </trkpt>
      <trkpt lat="44.40681" lon="5.6123">
        <ele>915</ele>
        <time>2019-03-23T14:52:57Z</time>
      </trkpt>
      <trkpt lat="44.40688" lon="5.61225">
        <ele>914</ele>
        <time>2019-03-23T14:52:58Z</time>
      </trkpt>
      <trkpt lat="44.40696" lon="5.6122">
        <ele>914</ele>
        <time>2019-03-23T14:52:59Z</time>
      </trkpt>
      <trkpt lat="44.40703" lon="5.61215">
        <ele>913</ele>
        <time>2019-03-23T14:53:00Z</time>
      </trkpt>
      <trkpt lat="44.40711" lon="5.6121">
        <ele>912</ele>
        <time>2019-03-23T14:53:01Z</time>
      </trkpt>
      <trkpt lat="44.40719" lon="5.61207">
        <ele>912</ele>
        <time>2019-03-23T14:53:02Z</time>
      </trkpt>
      <trkpt lat="44.40727" lon="5.61205">
        <ele>911</ele>
        <time>2019-03-23T14:53:03Z</time>
      </trkpt>
      <trkpt lat="44.40735" lon="5.61205">
        <ele>911</ele>
        <time>2019-03-23T14:53:04Z</time>
      </trkpt>
      <trkpt lat="44.40743" lon="5.61206">
        <ele>910</ele>
        <time>2019-03-23T14:53:05Z</time>
      </trkpt>
      <trkpt lat="44.40751" lon="5.61205">
        <ele>910</ele>
        <time>2019-03-23T14:53:06Z</time>
      </trkpt>
      <trkpt lat="44.40759" lon="5.61205">
        <ele>910</ele>
        <time>2019-03-23T14:53:07Z</time>
      </trkpt>
      <trkpt lat="44.40767" lon="5.61204">
        <ele>909</ele>
        <time>2019-03-23T14:53:08Z</time>
      </trkpt>
      <trkpt lat="44.40774" lon="5.61203">
        <ele>909</ele>
        <time>2019-03-23T14:53:09Z</time>
      </trkpt>
      <trkpt lat="44.40782" lon="5.61202">
        <ele>908</ele>
        <time>2019-03-23T14:53:10Z</time>
      </trkpt>
      <trkpt lat="44.40789" lon="5.61201">
        <ele>907</ele>
        <time>2019-03-23T14:53:11Z</time>
      </trkpt>
      <trkpt lat="44.40797" lon="5.61199">
        <ele>907</ele>
        <time>2019-03-23T14:53:12Z</time>
      </trkpt>
      <trkpt lat="44.40804" lon="5.61197">
        <ele>906</ele>
        <time>2019-03-23T14:53:13Z</time>
      </trkpt>
      <trkpt lat="44.40812" lon="5.61194">
        <ele>905</ele>
        <time>2019-03-23T14:53:14Z</time>
      </trkpt>
      <trkpt lat="44.4082" lon="5.61192">
        <ele>905</ele>
        <time>2019-03-23T14:53:15Z</time>
      </trkpt>
      <trkpt lat="44.40828" lon="5.61189">
        <ele>904</ele>
        <time>2019-03-23T14:53:16Z</time>
      </trkpt>
      <trkpt lat="44.40835" lon="5.61188">
        <ele>904</ele>
        <time>2019-03-23T14:53:17Z</time>
      </trkpt>
      <trkpt lat="44.40842" lon="5.61187">
        <ele>903</ele>
        <time>2019-03-23T14:53:18Z</time>
      </trkpt>
      <trkpt lat="44.40848" lon="5.61186">
        <ele>903</ele>
        <time>2019-03-23T14:53:19Z</time>
      </trkpt>
      <trkpt lat="44.40854" lon="5.61187">
        <ele>902</ele>
        <time>2019-03-23T14:53:20Z</time>
      </trkpt>
      <trkpt lat="44.4086" lon="5.61189">
        <ele>902</ele>
        <time>2019-03-23T14:53:21Z</time>
      </trkpt>
      <trkpt lat="44.40865" lon="5.61192">
        <ele>901</ele>
        <time>2019-03-23T14:53:22Z</time>
      </trkpt>
      <trkpt lat="44.40871" lon="5.61196">
        <ele>901</ele>
        <time>2019-03-23T14:53:23Z</time>
      </trkpt>
      <trkpt lat="44.40876" lon="5.61199">
        <ele>900</ele>
        <time>2019-03-23T14:53:24Z</time>
      </trkpt>
      <trkpt lat="44.40882" lon="5.61202">
        <ele>900</ele>
        <time>2019-03-23T14:53:25Z</time>
      </trkpt>
      <trkpt lat="44.40888" lon="5.61203">
        <ele>899</ele>
        <time>2019-03-23T14:53:26Z</time>
      </trkpt>
      <trkpt lat="44.40894" lon="5.61204">
        <ele>898</ele>
        <time>2019-03-23T14:53:27Z</time>
      </trkpt>
      <trkpt lat="44.40901" lon="5.61203">
        <ele>898</ele>
        <time>2019-03-23T14:53:28Z</time>
      </trkpt>
      <trkpt lat="44.40907" lon="5.61202">
        <ele>897</ele>
        <time>2019-03-23T14:53:29Z</time>
      </trkpt>
      <trkpt lat="44.40913" lon="5.61201">
        <ele>896</ele>
        <time>2019-03-23T14:53:30Z</time>
      </trkpt>
      <trkpt lat="44.4092" lon="5.61199">
        <ele>896</ele>
        <time>2019-03-23T14:53:31Z</time>
      </trkpt>
      <trkpt lat="44.40927" lon="5.61197">
        <ele>895</ele>
        <time>2019-03-23T14:53:32Z</time>
      </trkpt>
      <trkpt lat="44.40934" lon="5.61195">
        <ele>894</ele>
        <time>2019-03-23T14:53:33Z</time>
      </trkpt>
      <trkpt lat="44.4094" lon="5.61194">
        <ele>894</ele>
        <time>2019-03-23T14:53:34Z</time>
      </trkpt>
      <trkpt lat="44.40947" lon="5.61192">
        <ele>893</ele>
        <time>2019-03-23T14:53:35Z</time>
      </trkpt>
      <trkpt lat="44.40955" lon="5.6119">
        <ele>893</ele>
        <time>2019-03-23T14:53:36Z</time>
      </trkpt>
      <trkpt lat="44.40961" lon="5.61189">
        <ele>892</ele>
        <time>2019-03-23T14:53:37Z</time>
      </trkpt>
      <trkpt lat="44.40968" lon="5.61188">
        <ele>892</ele>
        <time>2019-03-23T14:53:38Z</time>
      </trkpt>
      <trkpt lat="44.40975" lon="5.61188">
        <ele>891</ele>
        <time>2019-03-23T14:53:39Z</time>
      </trkpt>
      <trkpt lat="44.40982" lon="5.61188">
        <ele>890</ele>
        <time>2019-03-23T14:53:40Z</time>
      </trkpt>
      <trkpt lat="44.40989" lon="5.61187">
        <ele>890</ele>
        <time>2019-03-23T14:53:41Z</time>
      </trkpt>
      <trkpt lat="44.40996" lon="5.61187">
        <ele>889</ele>
        <time>2019-03-23T14:53:42Z</time>
      </trkpt>
      <trkpt lat="44.41003" lon="5.61186">
        <ele>888</ele>
        <time>2019-03-23T14:53:43Z</time>
      </trkpt>
      <trkpt lat="44.41011" lon="5.61186">
        <ele>888</ele>
        <time>2019-03-23T14:53:44Z</time>
      </trkpt>
      <trkpt lat="44.41019" lon="5.61185">
        <ele>887</ele>
        <time>2019-03-23T14:53:45Z</time>
      </trkpt>
      <trkpt lat="44.41026" lon="5.61184">
        <ele>886</ele>
        <time>2019-03-23T14:53:46Z</time>
      </trkpt>
      <trkpt lat="44.41034" lon="5.61183">
        <ele>886</ele>
        <time>2019-03-23T14:53:47Z</time>
      </trkpt>
      <trkpt lat="44.41041" lon="5.61181">
        <ele>885</ele>
        <time>2019-03-23T14:53:48Z</time>
      </trkpt>
      <trkpt lat="44.41049" lon="5.61179">
        <ele>884</ele>
        <time>2019-03-23T14:53:49Z</time>
      </trkpt>
      <trkpt lat="44.41057" lon="5.61176">
        <ele>884</ele>
        <time>2019-03-23T14:53:50Z</time>
      </trkpt>
      <trkpt lat="44.41064" lon="5.61171">
        <ele>883</ele>
        <time>2019-03-23T14:53:51Z</time>
      </trkpt>
      <trkpt lat="44.41071" lon="5.61167">
        <ele>883</ele>
        <time>2019-03-23T14:53:52Z</time>
      </trkpt>
      <trkpt lat="44.41078" lon="5.61162">
        <ele>883</ele>
        <time>2019-03-23T14:53:53Z</time>
      </trkpt>
      <trkpt lat="44.41084" lon="5.61156">
        <ele>882</ele>
        <time>2019-03-23T14:53:54Z</time>
      </trkpt>
      <trkpt lat="44.41089" lon="5.6115">
        <ele>882</ele>
        <time>2019-03-23T14:53:55Z</time>
      </trkpt>
      <trkpt lat="44.41095" lon="5.61143">
        <ele>882</ele>
        <time>2019-03-23T14:53:56Z</time>
      </trkpt>
      <trkpt lat="44.41099" lon="5.61135">
        <ele>881</ele>
        <time>2019-03-23T14:53:57Z</time>
      </trkpt>
      <trkpt lat="44.41103" lon="5.61126">
        <ele>881</ele>
        <time>2019-03-23T14:53:58Z</time>
      </trkpt>
      <trkpt lat="44.41107" lon="5.61116">
        <ele>881</ele>
        <time>2019-03-23T14:53:59Z</time>
      </trkpt>
      <trkpt lat="44.4111" lon="5.61105">
        <ele>881</ele>
        <time>2019-03-23T14:54:00Z</time>
      </trkpt>
      <trkpt lat="44.41113" lon="5.61094">
        <ele>880</ele>
        <time>2019-03-23T14:54:01Z</time>
      </trkpt>
      <trkpt lat="44.41115" lon="5.61083">
        <ele>880</ele>
        <time>2019-03-23T14:54:02Z</time>
      </trkpt>
      <trkpt lat="44.41117" lon="5.61071">
        <ele>879</ele>
        <time>2019-03-23T14:54:03Z</time>
      </trkpt>
      <trkpt lat="44.41118" lon="5.61061">
        <ele>879</ele>
        <time>2019-03-23T14:54:04Z</time>
      </trkpt>
      <trkpt lat="44.41119" lon="5.6105">
        <ele>878</ele>
        <time>2019-03-23T14:54:05Z</time>
      </trkpt>
      <trkpt lat="44.4112" lon="5.6104">
        <ele>877</ele>
        <time>2019-03-23T14:54:06Z</time>
      </trkpt>
      <trkpt lat="44.41121" lon="5.6103">
        <ele>877</ele>
        <time>2019-03-23T14:54:07Z</time>
      </trkpt>
      <trkpt lat="44.41122" lon="5.6102">
        <ele>876</ele>
        <time>2019-03-23T14:54:08Z</time>
      </trkpt>
      <trkpt lat="44.41122" lon="5.6101">
        <ele>875</ele>
        <time>2019-03-23T14:54:09Z</time>
      </trkpt>
      <trkpt lat="44.41123" lon="5.60999">
        <ele>875</ele>
        <time>2019-03-23T14:54:10Z</time>
      </trkpt>
      <trkpt lat="44.41124" lon="5.60989">
        <ele>874</ele>
        <time>2019-03-23T14:54:11Z</time>
      </trkpt>
      <trkpt lat="44.41124" lon="5.60979">
        <ele>873</ele>
        <time>2019-03-23T14:54:12Z</time>
      </trkpt>
      <trkpt lat="44.41125" lon="5.60968">
        <ele>873</ele>
        <time>2019-03-23T14:54:13Z</time>
      </trkpt>
      <trkpt lat="44.41126" lon="5.60957">
        <ele>872</ele>
        <time>2019-03-23T14:54:14Z</time>
      </trkpt>
      <trkpt lat="44.41128" lon="5.60947">
        <ele>871</ele>
        <time>2019-03-23T14:54:15Z</time>
      </trkpt>
      <trkpt lat="44.4113" lon="5.60936">
        <ele>871</ele>
        <time>2019-03-23T14:54:16Z</time>
      </trkpt>
      <trkpt lat="44.41132" lon="5.60926">
        <ele>870</ele>
        <time>2019-03-23T14:54:17Z</time>
      </trkpt>
      <trkpt lat="44.41135" lon="5.60916">
        <ele>869</ele>
        <time>2019-03-23T14:54:18Z</time>
      </trkpt>
      <trkpt lat="44.41137" lon="5.60906">
        <ele>868</ele>
        <time>2019-03-23T14:54:19Z</time>
      </trkpt>
      <trkpt lat="44.4114" lon="5.60897">
        <ele>868</ele>
        <time>2019-03-23T14:54:20Z</time>
      </trkpt>
      <trkpt lat="44.41143" lon="5.60888">
        <ele>867</ele>
        <time>2019-03-23T14:54:21Z</time>
      </trkpt>
      <trkpt lat="44.41146" lon="5.60878">
        <ele>866</ele>
        <time>2019-03-23T14:54:22Z</time>
      </trkpt>
      <trkpt lat="44.4115" lon="5.60868">
        <ele>866</ele>
        <time>2019-03-23T14:54:23Z</time>
      </trkpt>
      <trkpt lat="44.41154" lon="5.60858">
        <ele>865</ele>
        <time>2019-03-23T14:54:24Z</time>
      </trkpt>
      <trkpt lat="44.41158" lon="5.60848">
        <ele>864</ele>
        <time>2019-03-23T14:54:25Z</time>
      </trkpt>
      <trkpt lat="44.41162" lon="5.60839">
        <ele>864</ele>
        <time>2019-03-23T14:54:26Z</time>
      </trkpt>
      <trkpt lat="44.41166" lon="5.6083">
        <ele>863</ele>
        <time>2019-03-23T14:54:27Z</time>
      </trkpt>
      <trkpt lat="44.41171" lon="5.60821">
        <ele>862</ele>
        <time>2019-03-23T14:54:28Z</time>
      </trkpt>
      <trkpt lat="44.41176" lon="5.60813">
        <ele>861</ele>
        <time>2019-03-23T14:54:29Z</time>
      </trkpt>
      <trkpt lat="44.41181" lon="5.60804">
        <ele>861</ele>
        <time>2019-03-23T14:54:30Z</time>
      </trkpt>
      <trkpt lat="44.41185" lon="5.60794">
        <ele>860</ele>
        <time>2019-03-23T14:54:31Z</time>
      </trkpt>
      <trkpt lat="44.41189" lon="5.60785">
        <ele>859</ele>
        <time>2019-03-23T14:54:32Z</time>
      </trkpt>
      <trkpt lat="44.41193" lon="5.60776">
        <ele>859</ele>
        <time>2019-03-23T14:54:33Z</time>
      </trkpt>
      <trkpt lat="44.41196" lon="5.60766">
        <ele>858</ele>
        <time>2019-03-23T14:54:34Z</time>
      </trkpt>
      <trkpt lat="44.41198" lon="5.60756">
        <ele>858</ele>
        <time>2019-03-23T14:54:35Z</time>
      </trkpt>
      <trkpt lat="44.41199" lon="5.60747">
        <ele>857</ele>
        <time>2019-03-23T14:54:36Z</time>
      </trkpt>
      <trkpt lat="44.412" lon="5.60737">
        <ele>856</ele>
        <time>2019-03-23T14:54:37Z</time>
      </trkpt>
      <trkpt lat="44.412" lon="5.60728">
        <ele>856</ele>
        <time>2019-03-23T14:54:38Z</time>
      </trkpt>
      <trkpt lat="44.41197" lon="5.60719">
        <ele>855</ele>
        <time>2019-03-23T14:54:39Z</time>
      </trkpt>
      <trkpt lat="44.41194" lon="5.60711">
        <ele>854</ele>
        <time>2019-03-23T14:54:40Z</time>
      </trkpt>
      <trkpt lat="44.41189" lon="5.60704">
        <ele>853</ele>
        <time>2019-03-23T14:54:41Z</time>
      </trkpt>
      <trkpt lat="44.41183" lon="5.60698">
        <ele>853</ele>
        <time>2019-03-23T14:54:42Z</time>
      </trkpt>
      <trkpt lat="44.41176" lon="5.60692">
        <ele>852</ele>
        <time>2019-03-23T14:54:43Z</time>
      </trkpt>
      <trkpt lat="44.41169" lon="5.60688">
        <ele>851</ele>
        <time>2019-03-23T14:54:44Z</time>
      </trkpt>
      <trkpt lat="44.41163" lon="5.60684">
        <ele>850</ele>
        <time>2019-03-23T14:54:45Z</time>
      </trkpt>
      <trkpt lat="44.41156" lon="5.6068">
        <ele>850</ele>
        <time>2019-03-23T14:54:46Z</time>
      </trkpt>
      <trkpt lat="44.41148" lon="5.60677">
        <ele>849</ele>
        <time>2019-03-23T14:54:47Z</time>
      </trkpt>
      <trkpt lat="44.4114" lon="5.60675">
        <ele>848</ele>
        <time>2019-03-23T14:54:48Z</time>
      </trkpt>
      <trkpt lat="44.41133" lon="5.60672">
        <ele>848</ele>
        <time>2019-03-23T14:54:49Z</time>
      </trkpt>
      <trkpt lat="44.41125" lon="5.6067">
        <ele>847</ele>
        <time>2019-03-23T14:54:50Z</time>
      </trkpt>
      <trkpt lat="44.41118" lon="5.60668">
        <ele>846</ele>
        <time>2019-03-23T14:54:51Z</time>
      </trkpt>
      <trkpt lat="44.41111" lon="5.60665">
        <ele>846</ele>
        <time>2019-03-23T14:54:52Z</time>
      </trkpt>
      <trkpt lat="44.41103" lon="5.60664">
        <ele>845</ele>
        <time>2019-03-23T14:54:53Z</time>
      </trkpt>
      <trkpt lat="44.41095" lon="5.60663">
        <ele>845</ele>
        <time>2019-03-23T14:54:54Z</time>
      </trkpt>
      <trkpt lat="44.41087" lon="5.60662">
        <ele>845</ele>
        <time>2019-03-23T14:54:55Z</time>
      </trkpt>
      <trkpt lat="44.4108" lon="5.60661">
        <ele>844</ele>
        <time>2019-03-23T14:54:56Z</time>
      </trkpt>
      <trkpt lat="44.41073" lon="5.60659">
        <ele>844</ele>
        <time>2019-03-23T14:54:57Z</time>
      </trkpt>
      <trkpt lat="44.41067" lon="5.60654">
        <ele>844</ele>
        <time>2019-03-23T14:54:58Z</time>
      </trkpt>
      <trkpt lat="44.41063" lon="5.60647">
        <ele>844</ele>
        <time>2019-03-23T14:54:59Z</time>
      </trkpt>
      <trkpt lat="44.41061" lon="5.60639">
        <ele>843</ele>
        <time>2019-03-23T14:55:00Z</time>
      </trkpt>
      <trkpt lat="44.41061" lon="5.60631">
        <ele>843</ele>
        <time>2019-03-23T14:55:01Z</time>
      </trkpt>
      <trkpt lat="44.41064" lon="5.60624">
        <ele>843</ele>
        <time>2019-03-23T14:55:02Z</time>
      </trkpt>
      <trkpt lat="44.41069" lon="5.6062">
        <ele>842</ele>
        <time>2019-03-23T14:55:03Z</time>
      </trkpt>
      <trkpt lat="44.41075" lon="5.60618">
        <ele>842</ele>
        <time>2019-03-23T14:55:04Z</time>
      </trkpt>
      <trkpt lat="44.41082" lon="5.6062">
        <ele>842</ele>
        <time>2019-03-23T14:55:05Z</time>
      </trkpt>
      <trkpt lat="44.41088" lon="5.60623">
        <ele>842</ele>
        <time>2019-03-23T14:55:06Z</time>
      </trkpt>
      <trkpt lat="44.41094" lon="5.60627">
        <ele>842</ele>
        <time>2019-03-23T14:55:07Z</time>
      </trkpt>
      <trkpt lat="44.411" lon="5.60631">
        <ele>842</ele>
        <time>2019-03-23T14:55:08Z</time>
      </trkpt>
      <trkpt lat="44.41106" lon="5.60634">
        <ele>842</ele>
        <time>2019-03-23T14:55:09Z</time>
      </trkpt>
      <trkpt lat="44.41113" lon="5.60637">
        <ele>842</ele>
        <time>2019-03-23T14:55:10Z</time>
      </trkpt>
      <trkpt lat="44.41119" lon="5.6064">
        <ele>841</ele>
        <time>2019-03-23T14:55:11Z</time>
      </trkpt>
      <trkpt lat="44.41125" lon="5.60642">
        <ele>841</ele>
        <time>2019-03-23T14:55:12Z</time>
      </trkpt>
      <trkpt lat="44.41132" lon="5.60644">
        <ele>841</ele>
        <time>2019-03-23T14:55:13Z</time>
      </trkpt>
      <trkpt lat="44.41138" lon="5.60646">
        <ele>841</ele>
        <time>2019-03-23T14:55:14Z</time>
      </trkpt>
      <trkpt lat="44.41144" lon="5.60648">
        <ele>841</ele>
        <time>2019-03-23T14:55:15Z</time>
      </trkpt>
      <trkpt lat="44.41151" lon="5.6065">
        <ele>841</ele>
        <time>2019-03-23T14:55:16Z</time>
      </trkpt>
      <trkpt lat="44.41157" lon="5.60652">
        <ele>841</ele>
        <time>2019-03-23T14:55:17Z</time>
      </trkpt>
      <trkpt lat="44.41163" lon="5.60653">
        <ele>841</ele>
        <time>2019-03-23T14:55:18Z</time>
      </trkpt>
      <trkpt lat="44.4117" lon="5.60654">
        <ele>841</ele>
        <time>2019-03-23T14:55:19Z</time>
      </trkpt>
      <trkpt lat="44.41177" lon="5.60655">
        <ele>841</ele>
        <time>2019-03-23T14:55:20Z</time>
      </trkpt>
      <trkpt lat="44.41184" lon="5.60656">
        <ele>841</ele>
        <time>2019-03-23T14:55:21Z</time>
      </trkpt>
      <trkpt lat="44.41192" lon="5.60657">
        <ele>840</ele>
        <time>2019-03-23T14:55:22Z</time>
      </trkpt>
      <trkpt lat="44.41199" lon="5.60658">
        <ele>840</ele>
        <time>2019-03-23T14:55:23Z</time>
      </trkpt>
      <trkpt lat="44.41207" lon="5.60659">
        <ele>840</ele>
        <time>2019-03-23T14:55:24Z</time>
      </trkpt>
      <trkpt lat="44.41216" lon="5.6066">
        <ele>839</ele>
        <time>2019-03-23T14:55:25Z</time>
      </trkpt>
      <trkpt lat="44.41224" lon="5.60662">
        <ele>839</ele>
        <time>2019-03-23T14:55:26Z</time>
      </trkpt>
      <trkpt lat="44.41233" lon="5.60663">
        <ele>839</ele>
        <time>2019-03-23T14:55:27Z</time>
      </trkpt>
      <trkpt lat="44.41242" lon="5.60664">
        <ele>838</ele>
        <time>2019-03-23T14:55:28Z</time>
      </trkpt>
      <trkpt lat="44.41251" lon="5.60665">
        <ele>838</ele>
        <time>2019-03-23T14:55:29Z</time>
      </trkpt>
      <trkpt lat="44.4126" lon="5.60666">
        <ele>837</ele>
        <time>2019-03-23T14:55:30Z</time>
      </trkpt>
      <trkpt lat="44.4127" lon="5.60667">
        <ele>836</ele>
        <time>2019-03-23T14:55:31Z</time>
      </trkpt>
      <trkpt lat="44.4128" lon="5.60668">
        <ele>836</ele>
        <time>2019-03-23T14:55:32Z</time>
      </trkpt>
      <trkpt lat="44.4129" lon="5.60669">
        <ele>835</ele>
        <time>2019-03-23T14:55:33Z</time>
      </trkpt>
      <trkpt lat="44.41299" lon="5.6067">
        <ele>835</ele>
        <time>2019-03-23T14:55:34Z</time>
      </trkpt>
      <trkpt lat="44.41309" lon="5.60672">
        <ele>834</ele>
        <time>2019-03-23T14:55:35Z</time>
      </trkpt>
      <trkpt lat="44.41319" lon="5.60675">
        <ele>834</ele>
        <time>2019-03-23T14:55:36Z</time>
      </trkpt>
      <trkpt lat="44.41328" lon="5.60678">
        <ele>833</ele>
        <time>2019-03-23T14:55:37Z</time>
      </trkpt>
      <trkpt lat="44.41336" lon="5.60682">
        <ele>833</ele>
        <time>2019-03-23T14:55:38Z</time>
      </trkpt>
      <trkpt lat="44.41343" lon="5.60685">
        <ele>832</ele>
        <time>2019-03-23T14:55:39Z</time>
      </trkpt>
      <trkpt lat="44.41349" lon="5.60688">
        <ele>832</ele>
        <time>2019-03-23T14:55:40Z</time>
      </trkpt>
      <trkpt lat="44.41354" lon="5.60692">
        <ele>831</ele>
        <time>2019-03-23T14:55:41Z</time>
      </trkpt>
      <trkpt lat="44.41359" lon="5.60697">
        <ele>831</ele>
        <time>2019-03-23T14:55:42Z</time>
      </trkpt>
      <trkpt lat="44.41365" lon="5.60703">
        <ele>831</ele>
        <time>2019-03-23T14:55:43Z</time>
      </trkpt>
      <trkpt lat="44.41369" lon="5.60709">
        <ele>830</ele>
        <time>2019-03-23T14:55:44Z</time>
      </trkpt>
      <trkpt lat="44.41374" lon="5.60717">
        <ele>830</ele>
        <time>2019-03-23T14:55:45Z</time>
      </trkpt>
      <trkpt lat="44.41378" lon="5.60726">
        <ele>829</ele>
        <time>2019-03-23T14:55:46Z</time>
      </trkpt>
      <trkpt lat="44.41382" lon="5.60736">
        <ele>829</ele>
        <time>2019-03-23T14:55:47Z</time>
      </trkpt>
      <trkpt lat="44.41385" lon="5.60745">
        <ele>828</ele>
        <time>2019-03-23T14:55:48Z</time>
      </trkpt>
      <trkpt lat="44.41388" lon="5.60754">
        <ele>827</ele>
        <time>2019-03-23T14:55:49Z</time>
      </trkpt>
      <trkpt lat="44.41391" lon="5.60763">
        <ele>827</ele>
        <time>2019-03-23T14:55:50Z</time>
      </trkpt>
      <trkpt lat="44.41394" lon="5.60772">
        <ele>826</ele>
        <time>2019-03-23T14:55:51Z</time>
      </trkpt>
      <trkpt lat="44.41397" lon="5.60781">
        <ele>826</ele>
        <time>2019-03-23T14:55:52Z</time>
      </trkpt>
      <trkpt lat="44.41401" lon="5.6079">
        <ele>825</ele>
        <time>2019-03-23T14:55:53Z</time>
      </trkpt>
      <trkpt lat="44.41404" lon="5.60799">
        <ele>824</ele>
        <time>2019-03-23T14:55:54Z</time>
      </trkpt>
      <trkpt lat="44.41407" lon="5.60809">
        <ele>824</ele>
        <time>2019-03-23T14:55:55Z</time>
      </trkpt>
      <trkpt lat="44.4141" lon="5.6082">
        <ele>823</ele>
        <time>2019-03-23T14:55:56Z</time>
      </trkpt>
      <trkpt lat="44.41412" lon="5.60831">
        <ele>823</ele>
        <time>2019-03-23T14:55:57Z</time>
      </trkpt>
      <trkpt lat="44.41415" lon="5.60842">
        <ele>822</ele>
        <time>2019-03-23T14:55:58Z</time>
      </trkpt>
      <trkpt lat="44.41417" lon="5.60853">
        <ele>822</ele>
        <time>2019-03-23T14:55:59Z</time>
      </trkpt>
      <trkpt lat="44.41418" lon="5.60864">
        <ele>822</ele>
        <time>2019-03-23T14:56:00Z</time>
      </trkpt>
      <trkpt lat="44.4142" lon="5.60875">
        <ele>821</ele>
        <time>2019-03-23T14:56:01Z</time>
      </trkpt>
      <trkpt lat="44.41422" lon="5.60886">
        <ele>821</ele>
        <time>2019-03-23T14:56:02Z</time>
      </trkpt>
      <trkpt lat="44.41423" lon="5.60897">
        <ele>821</ele>
        <time>2019-03-23T14:56:03Z</time>
      </trkpt>
      <trkpt lat="44.41425" lon="5.60909">
        <ele>821</ele>
        <time>2019-03-23T14:56:04Z</time>
      </trkpt>
      <trkpt lat="44.41427" lon="5.6092">
        <ele>821</ele>
        <time>2019-03-23T14:56:05Z</time>
      </trkpt>
      <trkpt lat="44.41428" lon="5.60931">
        <ele>821</ele>
        <time>2019-03-23T14:56:06Z</time>
      </trkpt>
      <trkpt lat="44.4143" lon="5.60941">
        <ele>821</ele>
        <time>2019-03-23T14:56:07Z</time>
      </trkpt>
      <trkpt lat="44.41432" lon="5.60952">
        <ele>821</ele>
        <time>2019-03-23T14:56:08Z</time>
      </trkpt>
      <trkpt lat="44.41433" lon="5.60963">
        <ele>821</ele>
        <time>2019-03-23T14:56:09Z</time>
      </trkpt>
      <trkpt lat="44.41435" lon="5.60973">
        <ele>820</ele>
        <time>2019-03-23T14:56:10Z</time>
      </trkpt>
      <trkpt lat="44.41436" lon="5.60984">
        <ele>820</ele>
        <time>2019-03-23T14:56:11Z</time>
      </trkpt>
      <trkpt lat="44.41437" lon="5.60994">
        <ele>820</ele>
        <time>2019-03-23T14:56:12Z</time>
      </trkpt>
      <trkpt lat="44.41438" lon="5.61005">
        <ele>820</ele>
        <time>2019-03-23T14:56:13Z</time>
      </trkpt>
      <trkpt lat="44.41437" lon="5.61016">
        <ele>820</ele>
        <time>2019-03-23T14:56:14Z</time>
      </trkpt>
      <trkpt lat="44.41436" lon="5.61026">
        <ele>820</ele>
        <time>2019-03-23T14:56:15Z</time>
      </trkpt>
      <trkpt lat="44.41434" lon="5.61037">
        <ele>819</ele>
        <time>2019-03-23T14:56:16Z</time>
      </trkpt>
      <trkpt lat="44.41433" lon="5.61047">
        <ele>819</ele>
        <time>2019-03-23T14:56:17Z</time>
      </trkpt>
      <trkpt lat="44.41432" lon="5.61058">
        <ele>819</ele>
        <time>2019-03-23T14:56:18Z</time>
      </trkpt>
      <trkpt lat="44.41431" lon="5.61068">
        <ele>819</ele>
        <time>2019-03-23T14:56:19Z</time>
      </trkpt>
      <trkpt lat="44.4143" lon="5.61079">
        <ele>818</ele>
        <time>2019-03-23T14:56:20Z</time>
      </trkpt>
      <trkpt lat="44.41429" lon="5.61089">
        <ele>818</ele>
        <time>2019-03-23T14:56:21Z</time>
      </trkpt>
      <trkpt lat="44.41429" lon="5.611">
        <ele>818</ele>
        <time>2019-03-23T14:56:22Z</time>
      </trkpt>
      <trkpt lat="44.41431" lon="5.6111">
        <ele>818</ele>
        <time>2019-03-23T14:56:23Z</time>
      </trkpt>
      <trkpt lat="44.41433" lon="5.61119">
        <ele>818</ele>
        <time>2019-03-23T14:56:24Z</time>
      </trkpt>
      <trkpt lat="44.41437" lon="5.61128">
        <ele>818</ele>
        <time>2019-03-23T14:56:25Z</time>
      </trkpt>
      <trkpt lat="44.41441" lon="5.61135">
        <ele>818</ele>
        <time>2019-03-23T14:56:26Z</time>
      </trkpt>
      <trkpt lat="44.41446" lon="5.61142">
        <ele>818</ele>
        <time>2019-03-23T14:56:27Z</time>
      </trkpt>
      <trkpt lat="44.41451" lon="5.61147">
        <ele>818</ele>
        <time>2019-03-23T14:56:28Z</time>
      </trkpt>
      <trkpt lat="44.41457" lon="5.6115">
        <ele>818</ele>
        <time>2019-03-23T14:56:29Z</time>
      </trkpt>
      <trkpt lat="44.41463" lon="5.61153">
        <ele>818</ele>
        <time>2019-03-23T14:56:30Z</time>
      </trkpt>
      <trkpt lat="44.41469" lon="5.61154">
        <ele>818</ele>
        <time>2019-03-23T14:56:31Z</time>
      </trkpt>
      <trkpt lat="44.41475" lon="5.61155">
        <ele>818</ele>
        <time>2019-03-23T14:56:32Z</time>
      </trkpt>
      <trkpt lat="44.4148" lon="5.61156">
        <ele>818</ele>
        <time>2019-03-23T14:56:33Z</time>
      </trkpt>
      <trkpt lat="44.41485" lon="5.61157">
        <ele>818</ele>
        <time>2019-03-23T14:56:34Z</time>
      </trkpt>
      <trkpt lat="44.4149" lon="5.61157">
        <ele>818</ele>
        <time>2019-03-23T14:56:35Z</time>
      </trkpt>
      <trkpt lat="44.41494" lon="5.61157">
        <ele>818</ele>
        <time>2019-03-23T14:56:36Z</time>
      </trkpt>
      <trkpt lat="44.41499" lon="5.61157">
        <ele>818</ele>
        <time>2019-03-23T14:56:37Z</time>
      </trkpt>
      <trkpt lat="44.41503" lon="5.61157">
        <ele>818</ele>
        <time>2019-03-23T14:56:38Z</time>
      </trkpt>
      <trkpt lat="44.41508" lon="5.61157">
        <ele>818</ele>
        <time>2019-03-23T14:56:39Z</time>
      </trkpt>
      <trkpt lat="44.41512" lon="5.61156">
        <ele>818</ele>
        <time>2019-03-23T14:56:40Z</time>
      </trkpt>
      <trkpt lat="44.41516" lon="5.61155">
        <ele>818</ele>
        <time>2019-03-23T14:56:41Z</time>
      </trkpt>
      <trkpt lat="44.4152" lon="5.61154">
        <ele>818</ele>
        <time>2019-03-23T14:56:42Z</time>
      </trkpt>
      <trkpt lat="44.41523" lon="5.61153">
        <ele>818</ele>
        <time>2019-03-23T14:56:43Z</time>
      </trkpt>
      <trkpt lat="44.41526" lon="5.61152">
        <ele>818</ele>
        <time>2019-03-23T14:56:44Z</time>
      </trkpt>
      <trkpt lat="44.41529" lon="5.61151">
        <ele>818</ele>
        <time>2019-03-23T14:56:45Z</time>
      </trkpt>
      <trkpt lat="44.41532" lon="5.61149">
        <ele>818</ele>
        <time>2019-03-23T14:56:46Z</time>
      </trkpt>
      <trkpt lat="44.41535" lon="5.61147">
        <ele>818</ele>
        <time>2019-03-23T14:56:47Z</time>
      </trkpt>
      <trkpt lat="44.41537" lon="5.61145">
        <ele>818</ele>
        <time>2019-03-23T14:56:48Z</time>
      </trkpt>
      <trkpt lat="44.4154" lon="5.61143">
        <ele>818</ele>
        <time>2019-03-23T14:56:49Z</time>
      </trkpt>
      <trkpt lat="44.41543" lon="5.61142">
        <ele>818</ele>
        <time>2019-03-23T14:56:50Z</time>
      </trkpt>
      <trkpt lat="44.41545" lon="5.61141">
        <ele>818</ele>
        <time>2019-03-23T14:56:51Z</time>
      </trkpt>
      <trkpt lat="44.41548" lon="5.6114">
        <ele>818</ele>
        <time>2019-03-23T14:56:52Z</time>
      </trkpt>
      <trkpt lat="44.41551" lon="5.61139">
        <ele>818</ele>
        <time>2019-03-23T14:56:53Z</time>
      </trkpt>
      <trkpt lat="44.41553" lon="5.61139">
        <ele>818</ele>
        <time>2019-03-23T14:56:54Z</time>
      </trkpt>
      <trkpt lat="44.41556" lon="5.61139">
        <ele>818</ele>
        <time>2019-03-23T14:56:55Z</time>
      </trkpt>
      <trkpt lat="44.41559" lon="5.6114">
        <ele>818</ele>
        <time>2019-03-23T14:56:56Z</time>
      </trkpt>
      <trkpt lat="44.41561" lon="5.61142">
        <ele>818</ele>
        <time>2019-03-23T14:56:57Z</time>
      </trkpt>
      <trkpt lat="44.41563" lon="5.61145">
        <ele>818</ele>
        <time>2019-03-23T14:56:58Z</time>
      </trkpt>
      <trkpt lat="44.41564" lon="5.6115">
        <ele>818</ele>
        <time>2019-03-23T14:56:59Z</time>
      </trkpt>
      <trkpt lat="44.41563" lon="5.61155">
        <ele>818</ele>
        <time>2019-03-23T14:57:00Z</time>
      </trkpt>
      <trkpt lat="44.41562" lon="5.61161">
        <ele>818</ele>
        <time>2019-03-23T14:57:01Z</time>
      </trkpt>
      <trkpt lat="44.41562" lon="5.61167">
        <ele>818</ele>
        <time>2019-03-23T14:57:02Z</time>
      </trkpt>
      <trkpt lat="44.41561" lon="5.61174">
        <ele>818</ele>
        <time>2019-03-23T14:57:03Z</time>
      </trkpt>
      <trkpt lat="44.4156" lon="5.61182">
        <ele>818</ele>
        <time>2019-03-23T14:57:04Z</time>
      </trkpt>
      <trkpt lat="44.4156" lon="5.61189">
        <ele>818</ele>
        <time>2019-03-23T14:57:05Z</time>
      </trkpt>
      <trkpt lat="44.41559" lon="5.61197">
        <ele>818</ele>
        <time>2019-03-23T14:57:06Z</time>
      </trkpt>
      <trkpt lat="44.41558" lon="5.61204">
        <ele>818</ele>
        <time>2019-03-23T14:57:07Z</time>
      </trkpt>
      <trkpt lat="44.41557" lon="5.61212">
        <ele>818</ele>
        <time>2019-03-23T14:57:08Z</time>
      </trkpt>
      <trkpt lat="44.41556" lon="5.61221">
        <ele>818</ele>
        <time>2019-03-23T14:57:09Z</time>
      </trkpt>
      <trkpt lat="44.41555" lon="5.61229">
        <ele>818</ele>
        <time>2019-03-23T14:57:10Z</time>
      </trkpt>
      <trkpt lat="44.41554" lon="5.61237">
        <ele>818</ele>
        <time>2019-03-23T14:57:11Z</time>
      </trkpt>
      <trkpt lat="44.41553" lon="5.61246">
        <ele>818</ele>
        <time>2019-03-23T14:57:12Z</time>
      </trkpt>
      <trkpt lat="44.41552" lon="5.61255">
        <ele>818</ele>
        <time>2019-03-23T14:57:13Z</time>
      </trkpt>
      <trkpt lat="44.41552" lon="5.61264">
        <ele>818</ele>
        <time>2019-03-23T14:57:14Z</time>
      </trkpt>
      <trkpt lat="44.41552" lon="5.61273">
        <ele>818</ele>
        <time>2019-03-23T14:57:15Z</time>
      </trkpt>
      <trkpt lat="44.41552" lon="5.61282">
        <ele>818</ele>
        <time>2019-03-23T14:57:16Z</time>
      </trkpt>
      <trkpt lat="44.41552" lon="5.61291">
        <ele>818</ele>
        <time>2019-03-23T14:57:17Z</time>
      </trkpt>
      <trkpt lat="44.41553" lon="5.613">
        <ele>818</ele>
        <time>2019-03-23T14:57:18Z</time>
      </trkpt>
      <trkpt lat="44.41554" lon="5.61309">
        <ele>818</ele>
        <time>2019-03-23T14:57:19Z</time>
      </trkpt>
      <trkpt lat="44.41555" lon="5.61318">
        <ele>818</ele>
        <time>2019-03-23T14:57:20Z</time>
      </trkpt>
      <trkpt lat="44.41557" lon="5.61328">
        <ele>818</ele>
        <time>2019-03-23T14:57:21Z</time>
      </trkpt>
      <trkpt lat="44.41558" lon="5.61337">
        <ele>818</ele>
        <time>2019-03-23T14:57:22Z</time>
      </trkpt>
      <trkpt lat="44.41559" lon="5.61347">
        <ele>818</ele>
        <time>2019-03-23T14:57:23Z</time>
      </trkpt>
      <trkpt lat="44.41561" lon="5.61356">
        <ele>818</ele>
        <time>2019-03-23T14:57:24Z</time>
      </trkpt>
      <trkpt lat="44.41563" lon="5.61367">
        <ele>818</ele>
        <time>2019-03-23T14:57:25Z</time>
      </trkpt>
      <trkpt lat="44.41564" lon="5.61377">
        <ele>818</ele>
        <time>2019-03-23T14:57:26Z</time>
      </trkpt>
      <trkpt lat="44.41565" lon="5.61387">
        <ele>818</ele>
        <time>2019-03-23T14:57:27Z</time>
      </trkpt>
      <trkpt lat="44.41567" lon="5.61397">
        <ele>818</ele>
        <time>2019-03-23T14:57:28Z</time>
      </trkpt>
      <trkpt lat="44.41568" lon="5.61407">
        <ele>818</ele>
        <time>2019-03-23T14:57:29Z</time>
      </trkpt>
      <trkpt lat="44.4157" lon="5.61417">
        <ele>817</ele>
        <time>2019-03-23T14:57:30Z</time>
      </trkpt>
      <trkpt lat="44.41571" lon="5.61426">
        <ele>817</ele>
        <time>2019-03-23T14:57:31Z</time>
      </trkpt>
      <trkpt lat="44.41573" lon="5.61436">
        <ele>817</ele>
        <time>2019-03-23T14:57:32Z</time>
      </trkpt>
      <trkpt lat="44.41575" lon="5.61446">
        <ele>817</ele>
        <time>2019-03-23T14:57:33Z</time>
      </trkpt>
      <trkpt lat="44.41577" lon="5.61455">
        <ele>817</ele>
        <time>2019-03-23T14:57:34Z</time>
      </trkpt>
      <trkpt lat="44.41578" lon="5.61465">
        <ele>817</ele>
        <time>2019-03-23T14:57:35Z</time>
      </trkpt>
      <trkpt lat="44.41579" lon="5.61474">
        <ele>817</ele>
        <time>2019-03-23T14:57:36Z</time>
      </trkpt>
      <trkpt lat="44.41581" lon="5.61484">
        <ele>816</ele>
        <time>2019-03-23T14:57:37Z</time>
      </trkpt>
      <trkpt lat="44.41583" lon="5.61493">
        <ele>816</ele>
        <time>2019-03-23T14:57:38Z</time>
      </trkpt>
      <trkpt lat="44.41585" lon="5.61503">
        <ele>816</ele>
        <time>2019-03-23T14:57:40Z</time>
      </trkpt>
      <trkpt lat="44.41587" lon="5.61514">
        <ele>816</ele>
        <time>2019-03-23T14:57:40Z</time>
      </trkpt>
      <trkpt lat="44.41588" lon="5.61524">
        <ele>816</ele>
        <time>2019-03-23T14:57:41Z</time>
      </trkpt>
      <trkpt lat="44.41589" lon="5.61534">
        <ele>816</ele>
        <time>2019-03-23T14:57:42Z</time>
      </trkpt>
      <trkpt lat="44.4159" lon="5.61544">
        <ele>816</ele>
        <time>2019-03-23T14:57:43Z</time>
      </trkpt>
      <trkpt lat="44.41592" lon="5.61554">
        <ele>816</ele>
        <time>2019-03-23T14:57:44Z</time>
      </trkpt>
      <trkpt lat="44.41593" lon="5.61564">
        <ele>815</ele>
        <time>2019-03-23T14:57:45Z</time>
      </trkpt>
      <trkpt lat="44.41595" lon="5.61574">
        <ele>815</ele>
        <time>2019-03-23T14:57:46Z</time>
      </trkpt>
      <trkpt lat="44.41597" lon="5.61584">
        <ele>815</ele>
        <time>2019-03-23T14:57:47Z</time>
      </trkpt>
      <trkpt lat="44.41598" lon="5.61594">
        <ele>815</ele>
        <time>2019-03-23T14:57:48Z</time>
      </trkpt>
      <trkpt lat="44.416" lon="5.61604">
        <ele>815</ele>
        <time>2019-03-23T14:57:49Z</time>
      </trkpt>
      <trkpt lat="44.41601" lon="5.61614">
        <ele>815</ele>
        <time>2019-03-23T14:57:50Z</time>
      </trkpt>
      <trkpt lat="44.41603" lon="5.61624">
        <ele>815</ele>
        <time>2019-03-23T14:57:51Z</time>
      </trkpt>
      <trkpt lat="44.41604" lon="5.61634">
        <ele>814</ele>
        <time>2019-03-23T14:57:52Z</time>
      </trkpt>
      <trkpt lat="44.41606" lon="5.61645">
        <ele>814</ele>
        <time>2019-03-23T14:57:53Z</time>
      </trkpt>
      <trkpt lat="44.41608" lon="5.61655">
        <ele>814</ele>
        <time>2019-03-23T14:57:54Z</time>
      </trkpt>
      <trkpt lat="44.4161" lon="5.61665">
        <ele>814</ele>
        <time>2019-03-23T14:57:55Z</time>
      </trkpt>
      <trkpt lat="44.41611" lon="5.61676">
        <ele>814</ele>
        <time>2019-03-23T14:57:56Z</time>
      </trkpt>
      <trkpt lat="44.41613" lon="5.61687">
        <ele>814</ele>
        <time>2019-03-23T14:57:57Z</time>
      </trkpt>
      <trkpt lat="44.41614" lon="5.61697">
        <ele>814</ele>
        <time>2019-03-23T14:57:58Z</time>
      </trkpt>
      <trkpt lat="44.41615" lon="5.61708">
        <ele>814</ele>
        <time>2019-03-23T14:57:59Z</time>
      </trkpt>
      <trkpt lat="44.41617" lon="5.61718">
        <ele>813</ele>
        <time>2019-03-23T14:58:00Z</time>
      </trkpt>
      <trkpt lat="44.41619" lon="5.61729">
        <ele>813</ele>
        <time>2019-03-23T14:58:01Z</time>
      </trkpt>
      <trkpt lat="44.4162" lon="5.6174">
        <ele>813</ele>
        <time>2019-03-23T14:58:02Z</time>
      </trkpt>
      <trkpt lat="44.41622" lon="5.6175">
        <ele>813</ele>
        <time>2019-03-23T14:58:03Z</time>
      </trkpt>
      <trkpt lat="44.41623" lon="5.61761">
        <ele>813</ele>
        <time>2019-03-23T14:58:04Z</time>
      </trkpt>
      <trkpt lat="44.41625" lon="5.61772">
        <ele>813</ele>
        <time>2019-03-23T14:58:05Z</time>
      </trkpt>
      <trkpt lat="44.41627" lon="5.61783">
        <ele>812</ele>
        <time>2019-03-23T14:58:06Z</time>
      </trkpt>
      <trkpt lat="44.41628" lon="5.61794">
        <ele>812</ele>
        <time>2019-03-23T14:58:07Z</time>
      </trkpt>
      <trkpt lat="44.4163" lon="5.61805">
        <ele>812</ele>
        <time>2019-03-23T14:58:08Z</time>
      </trkpt>
      <trkpt lat="44.41632" lon="5.61816">
        <ele>812</ele>
        <time>2019-03-23T14:58:09Z</time>
      </trkpt>
      <trkpt lat="44.41634" lon="5.61827">
        <ele>812</ele>
        <time>2019-03-23T14:58:10Z</time>
      </trkpt>
      <trkpt lat="44.41635" lon="5.61837">
        <ele>812</ele>
        <time>2019-03-23T14:58:11Z</time>
      </trkpt>
      <trkpt lat="44.41637" lon="5.61848">
        <ele>812</ele>
        <time>2019-03-23T14:58:12Z</time>
      </trkpt>
      <trkpt lat="44.41639" lon="5.61859">
        <ele>812</ele>
        <time>2019-03-23T14:58:13Z</time>
      </trkpt>
      <trkpt lat="44.4164" lon="5.6187">
        <ele>812</ele>
        <time>2019-03-23T14:58:14Z</time>
      </trkpt>
      <trkpt lat="44.41642" lon="5.61881">
        <ele>811</ele>
        <time>2019-03-23T14:58:15Z</time>
      </trkpt>
      <trkpt lat="44.41644" lon="5.61892">
        <ele>811</ele>
        <time>2019-03-23T14:58:16Z</time>
      </trkpt>
      <trkpt lat="44.41645" lon="5.61903">
        <ele>811</ele>
        <time>2019-03-23T14:58:17Z</time>
      </trkpt>
      <trkpt lat="44.41646" lon="5.61915">
        <ele>811</ele>
        <time>2019-03-23T14:58:18Z</time>
      </trkpt>
      <trkpt lat="44.41647" lon="5.61927">
        <ele>811</ele>
        <time>2019-03-23T14:58:19Z</time>
      </trkpt>
      <trkpt lat="44.41646" lon="5.61939">
        <ele>811</ele>
        <time>2019-03-23T14:58:20Z</time>
      </trkpt>
      <trkpt lat="44.41646" lon="5.61952">
        <ele>811</ele>
        <time>2019-03-23T14:58:21Z</time>
      </trkpt>
      <trkpt lat="44.41645" lon="5.61965">
        <ele>810</ele>
        <time>2019-03-23T14:58:22Z</time>
      </trkpt>
      <trkpt lat="44.41643" lon="5.61977">
        <ele>810</ele>
        <time>2019-03-23T14:58:23Z</time>
      </trkpt>
      <trkpt lat="44.4164" lon="5.61989">
        <ele>810</ele>
        <time>2019-03-23T14:58:24Z</time>
      </trkpt>
      <trkpt lat="44.41638" lon="5.62002">
        <ele>810</ele>
        <time>2019-03-23T14:58:25Z</time>
      </trkpt>
      <trkpt lat="44.41636" lon="5.62015">
        <ele>809</ele>
        <time>2019-03-23T14:58:26Z</time>
      </trkpt>
      <trkpt lat="44.41634" lon="5.62027">
        <ele>809</ele>
        <time>2019-03-23T14:58:27Z</time>
      </trkpt>
      <trkpt lat="44.41632" lon="5.6204">
        <ele>809</ele>
        <time>2019-03-23T14:58:28Z</time>
      </trkpt>
      <trkpt lat="44.41631" lon="5.62053">
        <ele>809</ele>
        <time>2019-03-23T14:58:29Z</time>
      </trkpt>
      <trkpt lat="44.41631" lon="5.62066">
        <ele>808</ele>
        <time>2019-03-23T14:58:30Z</time>
      </trkpt>
      <trkpt lat="44.41631" lon="5.62079">
        <ele>808</ele>
        <time>2019-03-23T14:58:31Z</time>
      </trkpt>
      <trkpt lat="44.41631" lon="5.62093">
        <ele>808</ele>
        <time>2019-03-23T14:58:32Z</time>
      </trkpt>
      <trkpt lat="44.41632" lon="5.62107">
        <ele>807</ele>
        <time>2019-03-23T14:58:33Z</time>
      </trkpt>
      <trkpt lat="44.41633" lon="5.6212">
        <ele>807</ele>
        <time>2019-03-23T14:58:34Z</time>
      </trkpt>
      <trkpt lat="44.41634" lon="5.62133">
        <ele>807</ele>
        <time>2019-03-23T14:58:35Z</time>
      </trkpt>
      <trkpt lat="44.41636" lon="5.62147">
        <ele>806</ele>
        <time>2019-03-23T14:58:36Z</time>
      </trkpt>
      <trkpt lat="44.41637" lon="5.6216">
        <ele>806</ele>
        <time>2019-03-23T14:58:37Z</time>
      </trkpt>
      <trkpt lat="44.4164" lon="5.62174">
        <ele>806</ele>
        <time>2019-03-23T14:58:38Z</time>
      </trkpt>
      <trkpt lat="44.41642" lon="5.62187">
        <ele>806</ele>
        <time>2019-03-23T14:58:39Z</time>
      </trkpt>
      <trkpt lat="44.41645" lon="5.622">
        <ele>806</ele>
        <time>2019-03-23T14:58:40Z</time>
      </trkpt>
      <trkpt lat="44.41649" lon="5.62213">
        <ele>806</ele>
        <time>2019-03-23T14:58:41Z</time>
      </trkpt>
      <trkpt lat="44.41653" lon="5.62225">
        <ele>806</ele>
        <time>2019-03-23T14:58:42Z</time>
      </trkpt>
      <trkpt lat="44.41657" lon="5.62237">
        <ele>806</ele>
        <time>2019-03-23T14:58:43Z</time>
      </trkpt>
      <trkpt lat="44.41662" lon="5.62249">
        <ele>806</ele>
        <time>2019-03-23T14:58:44Z</time>
      </trkpt>
      <trkpt lat="44.41666" lon="5.6226">
        <ele>806</ele>
        <time>2019-03-23T14:58:45Z</time>
      </trkpt>
      <trkpt lat="44.41671" lon="5.62272">
        <ele>806</ele>
        <time>2019-03-23T14:58:46Z</time>
      </trkpt>
      <trkpt lat="44.41676" lon="5.62284">
        <ele>805</ele>
        <time>2019-03-23T14:58:47Z</time>
      </trkpt>
      <trkpt lat="44.41681" lon="5.62295">
        <ele>805</ele>
        <time>2019-03-23T14:58:48Z</time>
      </trkpt>
      <trkpt lat="44.41685" lon="5.62307">
        <ele>805</ele>
        <time>2019-03-23T14:58:49Z</time>
      </trkpt>
      <trkpt lat="44.4169" lon="5.62319">
        <ele>805</ele>
        <time>2019-03-23T14:58:50Z</time>
      </trkpt>
      <trkpt lat="44.41695" lon="5.6233">
        <ele>805</ele>
        <time>2019-03-23T14:58:51Z</time>
      </trkpt>
      <trkpt lat="44.417" lon="5.62342">
        <ele>805</ele>
        <time>2019-03-23T14:58:52Z</time>
      </trkpt>
      <trkpt lat="44.41705" lon="5.62354">
        <ele>805</ele>
        <time>2019-03-23T14:58:53Z</time>
      </trkpt>
      <trkpt lat="44.4171" lon="5.62365">
        <ele>805</ele>
        <time>2019-03-23T14:58:54Z</time>
      </trkpt>
      <trkpt lat="44.41715" lon="5.62376">
        <ele>805</ele>
        <time>2019-03-23T14:58:55Z</time>
      </trkpt>
      <trkpt lat="44.4172" lon="5.62388">
        <ele>805</ele>
        <time>2019-03-23T14:58:56Z</time>
      </trkpt>
      <trkpt lat="44.41725" lon="5.62399">
        <ele>805</ele>
        <time>2019-03-23T14:58:57Z</time>
      </trkpt>
      <trkpt lat="44.41729" lon="5.6241">
        <ele>805</ele>
        <time>2019-03-23T14:58:58Z</time>
      </trkpt>
      <trkpt lat="44.41732" lon="5.62423">
        <ele>805</ele>
        <time>2019-03-23T14:58:59Z</time>
      </trkpt>
      <trkpt lat="44.41735" lon="5.62435">
        <ele>805</ele>
        <time>2019-03-23T14:59:00Z</time>
      </trkpt>
      <trkpt lat="44.41737" lon="5.62447">
        <ele>805</ele>
        <time>2019-03-23T14:59:01Z</time>
      </trkpt>
      <trkpt lat="44.41738" lon="5.62459">
        <ele>805</ele>
        <time>2019-03-23T14:59:02Z</time>
      </trkpt>
      <trkpt lat="44.41739" lon="5.62471">
        <ele>805</ele>
        <time>2019-03-23T14:59:03Z</time>
      </trkpt>
      <trkpt lat="44.4174" lon="5.62484">
        <ele>805</ele>
        <time>2019-03-23T14:59:04Z</time>
      </trkpt>
      <trkpt lat="44.41741" lon="5.62496">
        <ele>805</ele>
        <time>2019-03-23T14:59:05Z</time>
      </trkpt>
      <trkpt lat="44.41742" lon="5.62508">
        <ele>805</ele>
        <time>2019-03-23T14:59:06Z</time>
      </trkpt>
      <trkpt lat="44.41743" lon="5.6252">
        <ele>805</ele>
        <time>2019-03-23T14:59:07Z</time>
      </trkpt>
      <trkpt lat="44.41743" lon="5.62532">
        <ele>805</ele>
        <time>2019-03-23T14:59:08Z</time>
      </trkpt>
      <trkpt lat="44.41745" lon="5.62544">
        <ele>805</ele>
        <time>2019-03-23T14:59:09Z</time>
      </trkpt>
      <trkpt lat="44.41745" lon="5.62556">
        <ele>805</ele>
        <time>2019-03-23T14:59:10Z</time>
      </trkpt>
      <trkpt lat="44.41747" lon="5.62568">
        <ele>805</ele>
        <time>2019-03-23T14:59:11Z</time>
      </trkpt>
      <trkpt lat="44.41748" lon="5.6258">
        <ele>805</ele>
        <time>2019-03-23T14:59:12Z</time>
      </trkpt>
      <trkpt lat="44.41749" lon="5.62592">
        <ele>805</ele>
        <time>2019-03-23T14:59:13Z</time>
      </trkpt>
      <trkpt lat="44.4175" lon="5.62604">
        <ele>805</ele>
        <time>2019-03-23T14:59:14Z</time>
      </trkpt>
      <trkpt lat="44.4175" lon="5.62616">
        <ele>805</ele>
        <time>2019-03-23T14:59:15Z</time>
      </trkpt>
      <trkpt lat="44.41752" lon="5.62628">
        <ele>805</ele>
        <time>2019-03-23T14:59:16Z</time>
      </trkpt>
      <trkpt lat="44.41753" lon="5.6264">
        <ele>805</ele>
        <time>2019-03-23T14:59:17Z</time>
      </trkpt>
      <trkpt lat="44.41754" lon="5.62652">
        <ele>805</ele>
        <time>2019-03-23T14:59:18Z</time>
      </trkpt>
      <trkpt lat="44.41755" lon="5.62664">
        <ele>805</ele>
        <time>2019-03-23T14:59:19Z</time>
      </trkpt>
      <trkpt lat="44.41757" lon="5.62676">
        <ele>805</ele>
        <time>2019-03-23T14:59:20Z</time>
      </trkpt>
      <trkpt lat="44.41759" lon="5.62688">
        <ele>805</ele>
        <time>2019-03-23T14:59:21Z</time>
      </trkpt>
      <trkpt lat="44.41761" lon="5.62701">
        <ele>805</ele>
        <time>2019-03-23T14:59:22Z</time>
      </trkpt>
      <trkpt lat="44.41763" lon="5.62713">
        <ele>805</ele>
        <time>2019-03-23T14:59:23Z</time>
      </trkpt>
      <trkpt lat="44.41766" lon="5.62725">
        <ele>805</ele>
        <time>2019-03-23T14:59:24Z</time>
      </trkpt>
      <trkpt lat="44.41769" lon="5.62737">
        <ele>805</ele>
        <time>2019-03-23T14:59:25Z</time>
      </trkpt>
      <trkpt lat="44.41771" lon="5.6275">
        <ele>805</ele>
        <time>2019-03-23T14:59:26Z</time>
      </trkpt>
      <trkpt lat="44.41774" lon="5.62762">
        <ele>805</ele>
        <time>2019-03-23T14:59:27Z</time>
      </trkpt>
      <trkpt lat="44.41777" lon="5.62776">
        <ele>804</ele>
        <time>2019-03-23T14:59:28Z</time>
      </trkpt>
      <trkpt lat="44.41779" lon="5.62788">
        <ele>804</ele>
        <time>2019-03-23T14:59:29Z</time>
      </trkpt>
      <trkpt lat="44.41782" lon="5.62802">
        <ele>804</ele>
        <time>2019-03-23T14:59:30Z</time>
      </trkpt>
      <trkpt lat="44.41785" lon="5.62815">
        <ele>803</ele>
        <time>2019-03-23T14:59:31Z</time>
      </trkpt>
      <trkpt lat="44.41787" lon="5.62828">
        <ele>803</ele>
        <time>2019-03-23T14:59:32Z</time>
      </trkpt>
      <trkpt lat="44.4179" lon="5.62841">
        <ele>803</ele>
        <time>2019-03-23T14:59:33Z</time>
      </trkpt>
      <trkpt lat="44.41792" lon="5.62854">
        <ele>803</ele>
        <time>2019-03-23T14:59:34Z</time>
      </trkpt>
      <trkpt lat="44.41794" lon="5.62867">
        <ele>802</ele>
        <time>2019-03-23T14:59:35Z</time>
      </trkpt>
      <trkpt lat="44.41796" lon="5.6288">
        <ele>802</ele>
        <time>2019-03-23T14:59:36Z</time>
      </trkpt>
      <trkpt lat="44.41798" lon="5.62893">
        <ele>802</ele>
        <time>2019-03-23T14:59:37Z</time>
      </trkpt>
      <trkpt lat="44.418" lon="5.62907">
        <ele>802</ele>
        <time>2019-03-23T14:59:38Z</time>
      </trkpt>
      <trkpt lat="44.41801" lon="5.6292">
        <ele>801</ele>
        <time>2019-03-23T14:59:39Z</time>
      </trkpt>
      <trkpt lat="44.41803" lon="5.62934">
        <ele>801</ele>
        <time>2019-03-23T14:59:40Z</time>
      </trkpt>
      <trkpt lat="44.41805" lon="5.62948">
        <ele>800</ele>
        <time>2019-03-23T14:59:41Z</time>
      </trkpt>
      <trkpt lat="44.41806" lon="5.62962">
        <ele>800</ele>
        <time>2019-03-23T14:59:42Z</time>
      </trkpt>
      <trkpt lat="44.41808" lon="5.62976">
        <ele>800</ele>
        <time>2019-03-23T14:59:43Z</time>
      </trkpt>
      <trkpt lat="44.41809" lon="5.6299">
        <ele>799</ele>
        <time>2019-03-23T14:59:44Z</time>
      </trkpt>
      <trkpt lat="44.4181" lon="5.63004">
        <ele>799</ele>
        <time>2019-03-23T14:59:45Z</time>
      </trkpt>
      <trkpt lat="44.4181" lon="5.63018">
        <ele>799</ele>
        <time>2019-03-23T14:59:46Z</time>
      </trkpt>
      <trkpt lat="44.41811" lon="5.63033">
        <ele>799</ele>
        <time>2019-03-23T14:59:47Z</time>
      </trkpt>
      <trkpt lat="44.41811" lon="5.63048">
        <ele>798</ele>
        <time>2019-03-23T14:59:48Z</time>
      </trkpt>
      <trkpt lat="44.41811" lon="5.63062">
        <ele>798</ele>
        <time>2019-03-23T14:59:49Z</time>
      </trkpt>
      <trkpt lat="44.41811" lon="5.63077">
        <ele>798</ele>
        <time>2019-03-23T14:59:50Z</time>
      </trkpt>
      <trkpt lat="44.4181" lon="5.63092">
        <ele>798</ele>
        <time>2019-03-23T14:59:51Z</time>
      </trkpt>
      <trkpt lat="44.41809" lon="5.63107">
        <ele>797</ele>
        <time>2019-03-23T14:59:52Z</time>
      </trkpt>
      <trkpt lat="44.41808" lon="5.63122">
        <ele>797</ele>
        <time>2019-03-23T14:59:53Z</time>
      </trkpt>
      <trkpt lat="44.41807" lon="5.63137">
        <ele>797</ele>
        <time>2019-03-23T14:59:54Z</time>
      </trkpt>
      <trkpt lat="44.41806" lon="5.63151">
        <ele>796</ele>
        <time>2019-03-23T14:59:55Z</time>
      </trkpt>
      <trkpt lat="44.41805" lon="5.63166">
        <ele>796</ele>
        <time>2019-03-23T14:59:56Z</time>
      </trkpt>
      <trkpt lat="44.41803" lon="5.63181">
        <ele>796</ele>
        <time>2019-03-23T14:59:57Z</time>
      </trkpt>
      <trkpt lat="44.41803" lon="5.63196">
        <ele>795</ele>
        <time>2019-03-23T14:59:58Z</time>
      </trkpt>
      <trkpt lat="44.41801" lon="5.6321">
        <ele>795</ele>
        <time>2019-03-23T14:59:59Z</time>
      </trkpt>
      <trkpt lat="44.41801" lon="5.63225">
        <ele>795</ele>
        <time>2019-03-23T15:00:00Z</time>
      </trkpt>
      <trkpt lat="44.418" lon="5.63239">
        <ele>794</ele>
        <time>2019-03-23T15:00:01Z</time>
      </trkpt>
      <trkpt lat="44.41799" lon="5.63253">
        <ele>794</ele>
        <time>2019-03-23T15:00:02Z</time>
      </trkpt>
      <trkpt lat="44.41798" lon="5.63267">
        <ele>794</ele>
        <time>2019-03-23T15:00:03Z</time>
      </trkpt>
      <trkpt lat="44.41798" lon="5.6328">
        <ele>794</ele>
        <time>2019-03-23T15:00:04Z</time>
      </trkpt>
      <trkpt lat="44.41797" lon="5.63293">
        <ele>793</ele>
        <time>2019-03-23T15:00:05Z</time>
      </trkpt>
      <trkpt lat="44.41797" lon="5.63307">
        <ele>793</ele>
        <time>2019-03-23T15:00:06Z</time>
      </trkpt>
      <trkpt lat="44.41797" lon="5.6332">
        <ele>793</ele>
        <time>2019-03-23T15:00:07Z</time>
      </trkpt>
      <trkpt lat="44.41798" lon="5.63333">
        <ele>793</ele>
        <time>2019-03-23T15:00:08Z</time>
      </trkpt>
      <trkpt lat="44.41799" lon="5.63345">
        <ele>793</ele>
        <time>2019-03-23T15:00:09Z</time>
      </trkpt>
      <trkpt lat="44.418" lon="5.63358">
        <ele>793</ele>
        <time>2019-03-23T15:00:10Z</time>
      </trkpt>
      <trkpt lat="44.41801" lon="5.6337">
        <ele>792</ele>
        <time>2019-03-23T15:00:11Z</time>
      </trkpt>
      <trkpt lat="44.41803" lon="5.63382">
        <ele>792</ele>
        <time>2019-03-23T15:00:12Z</time>
      </trkpt>
      <trkpt lat="44.41805" lon="5.63394">
        <ele>792</ele>
        <time>2019-03-23T15:00:13Z</time>
      </trkpt>
      <trkpt lat="44.41807" lon="5.63406">
        <ele>792</ele>
        <time>2019-03-23T15:00:14Z</time>
      </trkpt>
      <trkpt lat="44.41809" lon="5.63418">
        <ele>792</ele>
        <time>2019-03-23T15:00:15Z</time>
      </trkpt>
      <trkpt lat="44.41811" lon="5.63429">
        <ele>792</ele>
        <time>2019-03-23T15:00:16Z</time>
      </trkpt>
      <trkpt lat="44.41814" lon="5.63441">
        <ele>792</ele>
        <time>2019-03-23T15:00:17Z</time>
      </trkpt>
      <trkpt lat="44.41816" lon="5.63452">
        <ele>792</ele>
        <time>2019-03-23T15:00:18Z</time>
      </trkpt>
      <trkpt lat="44.41819" lon="5.63463">
        <ele>792</ele>
        <time>2019-03-23T15:00:19Z</time>
      </trkpt>
      <trkpt lat="44.41822" lon="5.63475">
        <ele>792</ele>
        <time>2019-03-23T15:00:20Z</time>
      </trkpt>
      <trkpt lat="44.41825" lon="5.63485">
        <ele>792</ele>
        <time>2019-03-23T15:00:21Z</time>
      </trkpt>
      <trkpt lat="44.41828" lon="5.63496">
        <ele>792</ele>
        <time>2019-03-23T15:00:22Z</time>
      </trkpt>
      <trkpt lat="44.41831" lon="5.63507">
        <ele>792</ele>
        <time>2019-03-23T15:00:23Z</time>
      </trkpt>
      <trkpt lat="44.41835" lon="5.63518">
        <ele>792</ele>
        <time>2019-03-23T15:00:24Z</time>
      </trkpt>
      <trkpt lat="44.41837" lon="5.63528">
        <ele>792</ele>
        <time>2019-03-23T15:00:25Z</time>
      </trkpt>
      <trkpt lat="44.4184" lon="5.63539">
        <ele>792</ele>
        <time>2019-03-23T15:00:26Z</time>
      </trkpt>
      <trkpt lat="44.41843" lon="5.63549">
        <ele>792</ele>
        <time>2019-03-23T15:00:27Z</time>
      </trkpt>
      <trkpt lat="44.41846" lon="5.63559">
        <ele>792</ele>
        <time>2019-03-23T15:00:28Z</time>
      </trkpt>
      <trkpt lat="44.41849" lon="5.6357">
        <ele>792</ele>
        <time>2019-03-23T15:00:29Z</time>
      </trkpt>
      <trkpt lat="44.41851" lon="5.63581">
        <ele>791</ele>
        <time>2019-03-23T15:00:30Z</time>
      </trkpt>
      <trkpt lat="44.41854" lon="5.63591">
        <ele>791</ele>
        <time>2019-03-23T15:00:31Z</time>
      </trkpt>
      <trkpt lat="44.41856" lon="5.63602">
        <ele>791</ele>
        <time>2019-03-23T15:00:32Z</time>
      </trkpt>
      <trkpt lat="44.41858" lon="5.63613">
        <ele>791</ele>
        <time>2019-03-23T15:00:33Z</time>
      </trkpt>
      <trkpt lat="44.4186" lon="5.63624">
        <ele>791</ele>
        <time>2019-03-23T15:00:34Z</time>
      </trkpt>
      <trkpt lat="44.41863" lon="5.63635">
        <ele>791</ele>
        <time>2019-03-23T15:00:35Z</time>
      </trkpt>
      <trkpt lat="44.41865" lon="5.63647">
        <ele>791</ele>
        <time>2019-03-23T15:00:36Z</time>
      </trkpt>
      <trkpt lat="44.41867" lon="5.63658">
        <ele>791</ele>
        <time>2019-03-23T15:00:37Z</time>
      </trkpt>
      <trkpt lat="44.41869" lon="5.63669">
        <ele>791</ele>
        <time>2019-03-23T15:00:38Z</time>
      </trkpt>
      <trkpt lat="44.41872" lon="5.6368">
        <ele>791</ele>
        <time>2019-03-23T15:00:39Z</time>
      </trkpt>
      <trkpt lat="44.41874" lon="5.63692">
        <ele>791</ele>
        <time>2019-03-23T15:00:40Z</time>
      </trkpt>
      <trkpt lat="44.41877" lon="5.63702">
        <ele>791</ele>
        <time>2019-03-23T15:00:41Z</time>
      </trkpt>
      <trkpt lat="44.41879" lon="5.63714">
        <ele>791</ele>
        <time>2019-03-23T15:00:42Z</time>
      </trkpt>
      <trkpt lat="44.41881" lon="5.63725">
        <ele>791</ele>
        <time>2019-03-23T15:00:43Z</time>
      </trkpt>
      <trkpt lat="44.41883" lon="5.63736">
        <ele>790</ele>
        <time>2019-03-23T15:00:44Z</time>
      </trkpt>
      <trkpt lat="44.41886" lon="5.63747">
        <ele>790</ele>
        <time>2019-03-23T15:00:45Z</time>
      </trkpt>
      <trkpt lat="44.41888" lon="5.63758">
        <ele>790</ele>
        <time>2019-03-23T15:00:46Z</time>
      </trkpt>
      <trkpt lat="44.41891" lon="5.63769">
        <ele>790</ele>
        <time>2019-03-23T15:00:47Z</time>
      </trkpt>
      <trkpt lat="44.41895" lon="5.6378">
        <ele>790</ele>
        <time>2019-03-23T15:00:48Z</time>
      </trkpt>
      <trkpt lat="44.41898" lon="5.63791">
        <ele>790</ele>
        <time>2019-03-23T15:00:49Z</time>
      </trkpt>
      <trkpt lat="44.41901" lon="5.63802">
        <ele>790</ele>
        <time>2019-03-23T15:00:50Z</time>
      </trkpt>
      <trkpt lat="44.41905" lon="5.63813">
        <ele>790</ele>
        <time>2019-03-23T15:00:51Z</time>
      </trkpt>
      <trkpt lat="44.41909" lon="5.63824">
        <ele>790</ele>
        <time>2019-03-23T15:00:52Z</time>
      </trkpt>
      <trkpt lat="44.41913" lon="5.63835">
        <ele>789</ele>
        <time>2019-03-23T15:00:53Z</time>
      </trkpt>
      <trkpt lat="44.41917" lon="5.63846">
        <ele>789</ele>
        <time>2019-03-23T15:00:54Z</time>
      </trkpt>
      <trkpt lat="44.41921" lon="5.63857">
        <ele>789</ele>
        <time>2019-03-23T15:00:55Z</time>
      </trkpt>
      <trkpt lat="44.41925" lon="5.63868">
        <ele>789</ele>
        <time>2019-03-23T15:00:56Z</time>
      </trkpt>
      <trkpt lat="44.41928" lon="5.63879">
        <ele>789</ele>
        <time>2019-03-23T15:00:57Z</time>
      </trkpt>
      <trkpt lat="44.41932" lon="5.6389">
        <ele>788</ele>
        <time>2019-03-23T15:00:58Z</time>
      </trkpt>
      <trkpt lat="44.41935" lon="5.63901">
        <ele>788</ele>
        <time>2019-03-23T15:00:59Z</time>
      </trkpt>
      <trkpt lat="44.41939" lon="5.63912">
        <ele>788</ele>
        <time>2019-03-23T15:01:00Z</time>
      </trkpt>
      <trkpt lat="44.41942" lon="5.63924">
        <ele>788</ele>
        <time>2019-03-23T15:01:01Z</time>
      </trkpt>
      <trkpt lat="44.41944" lon="5.63937">
        <ele>787</ele>
        <time>2019-03-23T15:01:02Z</time>
      </trkpt>
      <trkpt lat="44.41946" lon="5.63949">
        <ele>787</ele>
        <time>2019-03-23T15:01:03Z</time>
      </trkpt>
      <trkpt lat="44.41947" lon="5.63963">
        <ele>787</ele>
        <time>2019-03-23T15:01:04Z</time>
      </trkpt>
      <trkpt lat="44.41946" lon="5.63976">
        <ele>787</ele>
        <time>2019-03-23T15:01:05Z</time>
      </trkpt>
      <trkpt lat="44.41945" lon="5.63989">
        <ele>786</ele>
        <time>2019-03-23T15:01:06Z</time>
      </trkpt>
      <trkpt lat="44.41943" lon="5.64003">
        <ele>786</ele>
        <time>2019-03-23T15:01:07Z</time>
      </trkpt>
      <trkpt lat="44.41941" lon="5.64016">
        <ele>786</ele>
        <time>2019-03-23T15:01:08Z</time>
      </trkpt>
      <trkpt lat="44.41937" lon="5.64029">
        <ele>785</ele>
        <time>2019-03-23T15:01:09Z</time>
      </trkpt>
      <trkpt lat="44.41933" lon="5.64042">
        <ele>785</ele>
        <time>2019-03-23T15:01:10Z</time>
      </trkpt>
      <trkpt lat="44.41929" lon="5.64054">
        <ele>785</ele>
        <time>2019-03-23T15:01:11Z</time>
      </trkpt>
      <trkpt lat="44.41925" lon="5.64067">
        <ele>784</ele>
        <time>2019-03-23T15:01:12Z</time>
      </trkpt>
      <trkpt lat="44.4192" lon="5.64079">
        <ele>784</ele>
        <time>2019-03-23T15:01:13Z</time>
      </trkpt>
      <trkpt lat="44.41916" lon="5.64092">
        <ele>783</ele>
        <time>2019-03-23T15:01:14Z</time>
      </trkpt>
      <trkpt lat="44.41911" lon="5.64105">
        <ele>783</ele>
        <time>2019-03-23T15:01:15Z</time>
      </trkpt>
      <trkpt lat="44.41908" lon="5.64118">
        <ele>782</ele>
        <time>2019-03-23T15:01:16Z</time>
      </trkpt>
      <trkpt lat="44.41906" lon="5.64133">
        <ele>782</ele>
        <time>2019-03-23T15:01:17Z</time>
      </trkpt>
      <trkpt lat="44.41905" lon="5.64148">
        <ele>781</ele>
        <time>2019-03-23T15:01:18Z</time>
      </trkpt>
      <trkpt lat="44.41905" lon="5.64163">
        <ele>780</ele>
        <time>2019-03-23T15:01:19Z</time>
      </trkpt>
      <trkpt lat="44.41907" lon="5.64178">
        <ele>780</ele>
        <time>2019-03-23T15:01:20Z</time>
      </trkpt>
      <trkpt lat="44.4191" lon="5.64193">
        <ele>779</ele>
        <time>2019-03-23T15:01:21Z</time>
      </trkpt>
      <trkpt lat="44.41914" lon="5.6421">
        <ele>778</ele>
        <time>2019-03-23T15:01:22Z</time>
      </trkpt>
      <trkpt lat="44.41917" lon="5.64226">
        <ele>778</ele>
        <time>2019-03-23T15:01:23Z</time>
      </trkpt>
      <trkpt lat="44.4192" lon="5.64242">
        <ele>777</ele>
        <time>2019-03-23T15:01:24Z</time>
      </trkpt>
      <trkpt lat="44.41923" lon="5.64258">
        <ele>777</ele>
        <time>2019-03-23T15:01:25Z</time>
      </trkpt>
      <trkpt lat="44.41925" lon="5.64275">
        <ele>776</ele>
        <time>2019-03-23T15:01:26Z</time>
      </trkpt>
      <trkpt lat="44.41925" lon="5.64292">
        <ele>776</ele>
        <time>2019-03-23T15:01:27Z</time>
      </trkpt>
      <trkpt lat="44.41924" lon="5.64309">
        <ele>775</ele>
        <time>2019-03-23T15:01:28Z</time>
      </trkpt>
      <trkpt lat="44.41921" lon="5.64326">
        <ele>775</ele>
        <time>2019-03-23T15:01:29Z</time>
      </trkpt>
      <trkpt lat="44.41917" lon="5.64342">
        <ele>774</ele>
        <time>2019-03-23T15:01:30Z</time>
      </trkpt>
      <trkpt lat="44.41911" lon="5.64358">
        <ele>773</ele>
        <time>2019-03-23T15:01:31Z</time>
      </trkpt>
      <trkpt lat="44.41904" lon="5.64372">
        <ele>772</ele>
        <time>2019-03-23T15:01:32Z</time>
      </trkpt>
      <trkpt lat="44.41897" lon="5.64386">
        <ele>772</ele>
        <time>2019-03-23T15:01:33Z</time>
      </trkpt>
      <trkpt lat="44.4189" lon="5.64398">
        <ele>771</ele>
        <time>2019-03-23T15:01:34Z</time>
      </trkpt>
      <trkpt lat="44.41882" lon="5.64411">
        <ele>770</ele>
        <time>2019-03-23T15:01:35Z</time>
      </trkpt>
      <trkpt lat="44.41875" lon="5.64423">
        <ele>770</ele>
        <time>2019-03-23T15:01:36Z</time>
      </trkpt>
      <trkpt lat="44.41868" lon="5.64435">
        <ele>770</ele>
        <time>2019-03-23T15:01:37Z</time>
      </trkpt>
      <trkpt lat="44.41861" lon="5.64446">
        <ele>769</ele>
        <time>2019-03-23T15:01:38Z</time>
      </trkpt>
      <trkpt lat="44.41854" lon="5.64457">
        <ele>769</ele>
        <time>2019-03-23T15:01:39Z</time>
      </trkpt>
      <trkpt lat="44.41848" lon="5.64468">
        <ele>769</ele>
        <time>2019-03-23T15:01:40Z</time>
      </trkpt>
      <trkpt lat="44.41841" lon="5.64479">
        <ele>768</ele>
        <time>2019-03-23T15:01:41Z</time>
      </trkpt>
      <trkpt lat="44.41835" lon="5.6449">
        <ele>768</ele>
        <time>2019-03-23T15:01:42Z</time>
      </trkpt>
      <trkpt lat="44.41828" lon="5.64501">
        <ele>768</ele>
        <time>2019-03-23T15:01:43Z</time>
      </trkpt>
      <trkpt lat="44.41821" lon="5.64511">
        <ele>768</ele>
        <time>2019-03-23T15:01:44Z</time>
      </trkpt>
      <trkpt lat="44.41815" lon="5.64522">
        <ele>767</ele>
        <time>2019-03-23T15:01:45Z</time>
      </trkpt>
      <trkpt lat="44.41809" lon="5.64533">
        <ele>767</ele>
        <time>2019-03-23T15:01:46Z</time>
      </trkpt>
      <trkpt lat="44.41802" lon="5.64543">
        <ele>767</ele>
        <time>2019-03-23T15:01:47Z</time>
      </trkpt>
      <trkpt lat="44.41796" lon="5.64554">
        <ele>766</ele>
        <time>2019-03-23T15:01:48Z</time>
      </trkpt>
      <trkpt lat="44.41789" lon="5.64565">
        <ele>766</ele>
        <time>2019-03-23T15:01:49Z</time>
      </trkpt>
      <trkpt lat="44.41782" lon="5.64575">
        <ele>766</ele>
        <time>2019-03-23T15:01:50Z</time>
      </trkpt>
      <trkpt lat="44.41776" lon="5.64586">
        <ele>765</ele>
        <time>2019-03-23T15:01:51Z</time>
      </trkpt>
      <trkpt lat="44.41769" lon="5.64596">
        <ele>765</ele>
        <time>2019-03-23T15:01:52Z</time>
      </trkpt>
      <trkpt lat="44.41761" lon="5.64606">
        <ele>765</ele>
        <time>2019-03-23T15:01:53Z</time>
      </trkpt>
      <trkpt lat="44.41754" lon="5.64615">
        <ele>764</ele>
        <time>2019-03-23T15:01:54Z</time>
      </trkpt>
      <trkpt lat="44.41747" lon="5.64626">
        <ele>764</ele>
        <time>2019-03-23T15:01:55Z</time>
      </trkpt>
      <trkpt lat="44.4174" lon="5.64636">
        <ele>764</ele>
        <time>2019-03-23T15:01:56Z</time>
      </trkpt>
      <trkpt lat="44.41732" lon="5.64646">
        <ele>764</ele>
        <time>2019-03-23T15:01:57Z</time>
      </trkpt>
      <trkpt lat="44.41726" lon="5.64656">
        <ele>763</ele>
        <time>2019-03-23T15:01:58Z</time>
      </trkpt>
      <trkpt lat="44.41719" lon="5.64667">
        <ele>763</ele>
        <time>2019-03-23T15:01:59Z</time>
      </trkpt>
      <trkpt lat="44.41713" lon="5.64678">
        <ele>763</ele>
        <time>2019-03-23T15:02:00Z</time>
      </trkpt>
      <trkpt lat="44.41706" lon="5.64689">
        <ele>762</ele>
        <time>2019-03-23T15:02:01Z</time>
      </trkpt>
      <trkpt lat="44.417" lon="5.64701">
        <ele>762</ele>
        <time>2019-03-23T15:02:02Z</time>
      </trkpt>
      <trkpt lat="44.41694" lon="5.64712">
        <ele>762</ele>
        <time>2019-03-23T15:02:03Z</time>
      </trkpt>
      <trkpt lat="44.41689" lon="5.64724">
        <ele>761</ele>
        <time>2019-03-23T15:02:04Z</time>
      </trkpt>
      <trkpt lat="44.41683" lon="5.64736">
        <ele>761</ele>
        <time>2019-03-23T15:02:05Z</time>
      </trkpt>
      <trkpt lat="44.41677" lon="5.64748">
        <ele>761</ele>
        <time>2019-03-23T15:02:06Z</time>
      </trkpt>
      <trkpt lat="44.41672" lon="5.64761">
        <ele>760</ele>
        <time>2019-03-23T15:02:07Z</time>
      </trkpt>
      <trkpt lat="44.41667" lon="5.64774">
        <ele>760</ele>
        <time>2019-03-23T15:02:08Z</time>
      </trkpt>
      <trkpt lat="44.41662" lon="5.64786">
        <ele>760</ele>
        <time>2019-03-23T15:02:09Z</time>
      </trkpt>
      <trkpt lat="44.41657" lon="5.64799">
        <ele>760</ele>
        <time>2019-03-23T15:02:10Z</time>
      </trkpt>
      <trkpt lat="44.41652" lon="5.64812">
        <ele>760</ele>
        <time>2019-03-23T15:02:11Z</time>
      </trkpt>
      <trkpt lat="44.41647" lon="5.64824">
        <ele>759</ele>
        <time>2019-03-23T15:02:12Z</time>
      </trkpt>
      <trkpt lat="44.41641" lon="5.64837">
        <ele>759</ele>
        <time>2019-03-23T15:02:13Z</time>
      </trkpt>
      <trkpt lat="44.41636" lon="5.64849">
        <ele>759</ele>
        <time>2019-03-23T15:02:14Z</time>
      </trkpt>
      <trkpt lat="44.4163" lon="5.64861">
        <ele>759</ele>
        <time>2019-03-23T15:02:15Z</time>
      </trkpt>
      <trkpt lat="44.41624" lon="5.64873">
        <ele>758</ele>
        <time>2019-03-23T15:02:16Z</time>
      </trkpt>
      <trkpt lat="44.41619" lon="5.64886">
        <ele>758</ele>
        <time>2019-03-23T15:02:17Z</time>
      </trkpt>
      <trkpt lat="44.41613" lon="5.64898">
        <ele>758</ele>
        <time>2019-03-23T15:02:18Z</time>
      </trkpt>
      <trkpt lat="44.41607" lon="5.6491">
        <ele>758</ele>
        <time>2019-03-23T15:02:19Z</time>
      </trkpt>
      <trkpt lat="44.41602" lon="5.64923">
        <ele>758</ele>
        <time>2019-03-23T15:02:20Z</time>
      </trkpt>
      <trkpt lat="44.41597" lon="5.64936">
        <ele>758</ele>
        <time>2019-03-23T15:02:21Z</time>
      </trkpt>
      <trkpt lat="44.41592" lon="5.6495">
        <ele>758</ele>
        <time>2019-03-23T15:02:22Z</time>
      </trkpt>
      <trkpt lat="44.41588" lon="5.64964">
        <ele>758</ele>
        <time>2019-03-23T15:02:23Z</time>
      </trkpt>
      <trkpt lat="44.41584" lon="5.64978">
        <ele>758</ele>
        <time>2019-03-23T15:02:24Z</time>
      </trkpt>
      <trkpt lat="44.41581" lon="5.64992">
        <ele>758</ele>
        <time>2019-03-23T15:02:25Z</time>
      </trkpt>
      <trkpt lat="44.41579" lon="5.65006">
        <ele>757</ele>
        <time>2019-03-23T15:02:26Z</time>
      </trkpt>
      <trkpt lat="44.41577" lon="5.65021">
        <ele>757</ele>
        <time>2019-03-23T15:02:27Z</time>
      </trkpt>
      <trkpt lat="44.41575" lon="5.65036">
        <ele>757</ele>
        <time>2019-03-23T15:02:28Z</time>
      </trkpt>
      <trkpt lat="44.41574" lon="5.65051">
        <ele>757</ele>
        <time>2019-03-23T15:02:29Z</time>
      </trkpt>
      <trkpt lat="44.41573" lon="5.65066">
        <ele>756</ele>
        <time>2019-03-23T15:02:30Z</time>
      </trkpt>
      <trkpt lat="44.41573" lon="5.65081">
        <ele>756</ele>
        <time>2019-03-23T15:02:31Z</time>
      </trkpt>
      <trkpt lat="44.41572" lon="5.65096">
        <ele>756</ele>
        <time>2019-03-23T15:02:32Z</time>
      </trkpt>
      <trkpt lat="44.41571" lon="5.6511">
        <ele>755</ele>
        <time>2019-03-23T15:02:33Z</time>
      </trkpt>
      <trkpt lat="44.41571" lon="5.65125">
        <ele>755</ele>
        <time>2019-03-23T15:02:34Z</time>
      </trkpt>
      <trkpt lat="44.4157" lon="5.65139">
        <ele>755</ele>
        <time>2019-03-23T15:02:35Z</time>
      </trkpt>
      <trkpt lat="44.4157" lon="5.65154">
        <ele>754</ele>
        <time>2019-03-23T15:02:36Z</time>
      </trkpt>
      <trkpt lat="44.4157" lon="5.65168">
        <ele>754</ele>
        <time>2019-03-23T15:02:37Z</time>
      </trkpt>
      <trkpt lat="44.4157" lon="5.65181">
        <ele>754</ele>
        <time>2019-03-23T15:02:38Z</time>
      </trkpt>
      <trkpt lat="44.41572" lon="5.65196">
        <ele>754</ele>
        <time>2019-03-23T15:02:39Z</time>
      </trkpt>
      <trkpt lat="44.41574" lon="5.65209">
        <ele>753</ele>
        <time>2019-03-23T15:02:40Z</time>
      </trkpt>
      <trkpt lat="44.41579" lon="5.65222">
        <ele>753</ele>
        <time>2019-03-23T15:02:41Z</time>
      </trkpt>
      <trkpt lat="44.41584" lon="5.65234">
        <ele>753</ele>
        <time>2019-03-23T15:02:42Z</time>
      </trkpt>
      <trkpt lat="44.41591" lon="5.65244">
        <ele>753</ele>
        <time>2019-03-23T15:02:43Z</time>
      </trkpt>
      <trkpt lat="44.41599" lon="5.65253">
        <ele>753</ele>
        <time>2019-03-23T15:02:44Z</time>
      </trkpt>
      <trkpt lat="44.41608" lon="5.65261">
        <ele>753</ele>
        <time>2019-03-23T15:02:45Z</time>
      </trkpt>
      <trkpt lat="44.41617" lon="5.65267">
        <ele>753</ele>
        <time>2019-03-23T15:02:46Z</time>
      </trkpt>
      <trkpt lat="44.41626" lon="5.65271">
        <ele>753</ele>
        <time>2019-03-23T15:02:47Z</time>
      </trkpt>
      <trkpt lat="44.41637" lon="5.65273">
        <ele>753</ele>
        <time>2019-03-23T15:02:48Z</time>
      </trkpt>
      <trkpt lat="44.41647" lon="5.65273">
        <ele>753</ele>
        <time>2019-03-23T15:02:49Z</time>
      </trkpt>
      <trkpt lat="44.41658" lon="5.65271">
        <ele>753</ele>
        <time>2019-03-23T15:02:50Z</time>
      </trkpt>
      <trkpt lat="44.41668" lon="5.6527">
        <ele>753</ele>
        <time>2019-03-23T15:02:51Z</time>
      </trkpt>
      <trkpt lat="44.41679" lon="5.65269">
        <ele>752</ele>
        <time>2019-03-23T15:02:52Z</time>
      </trkpt>
      <trkpt lat="44.41689" lon="5.65269">
        <ele>752</ele>
        <time>2019-03-23T15:02:53Z</time>
      </trkpt>
      <trkpt lat="44.417" lon="5.6527">
        <ele>752</ele>
        <time>2019-03-23T15:02:54Z</time>
      </trkpt>
      <trkpt lat="44.4171" lon="5.65274">
        <ele>752</ele>
        <time>2019-03-23T15:02:55Z</time>
      </trkpt>
      <trkpt lat="44.4172" lon="5.6528">
        <ele>751</ele>
        <time>2019-03-23T15:02:56Z</time>
      </trkpt>
      <trkpt lat="44.41728" lon="5.65288">
        <ele>751</ele>
        <time>2019-03-23T15:02:57Z</time>
      </trkpt>
      <trkpt lat="44.41735" lon="5.65298">
        <ele>751</ele>
        <time>2019-03-23T15:02:58Z</time>
      </trkpt>
      <trkpt lat="44.41741" lon="5.65309">
        <ele>751</ele>
        <time>2019-03-23T15:02:59Z</time>
      </trkpt>
      <trkpt lat="44.41745" lon="5.65322">
        <ele>751</ele>
        <time>2019-03-23T15:03:00Z</time>
      </trkpt>
      <trkpt lat="44.41749" lon="5.65335">
        <ele>750</ele>
        <time>2019-03-23T15:03:01Z</time>
      </trkpt>
      <trkpt lat="44.4175" lon="5.65349">
        <ele>750</ele>
        <time>2019-03-23T15:03:02Z</time>
      </trkpt>
      <trkpt lat="44.41752" lon="5.65363">
        <ele>750</ele>
        <time>2019-03-23T15:03:03Z</time>
      </trkpt>
      <trkpt lat="44.41752" lon="5.65377">
        <ele>750</ele>
        <time>2019-03-23T15:03:04Z</time>
      </trkpt>
      <trkpt lat="44.41752" lon="5.65391">
        <ele>750</ele>
        <time>2019-03-23T15:03:05Z</time>
      </trkpt>
      <trkpt lat="44.41752" lon="5.65405">
        <ele>750</ele>
        <time>2019-03-23T15:03:06Z</time>
      </trkpt>
      <trkpt lat="44.4175" lon="5.65418">
        <ele>749</ele>
        <time>2019-03-23T15:03:07Z</time>
      </trkpt>
      <trkpt lat="44.41748" lon="5.65432">
        <ele>749</ele>
        <time>2019-03-23T15:03:08Z</time>
      </trkpt>
      <trkpt lat="44.41745" lon="5.65446">
        <ele>749</ele>
        <time>2019-03-23T15:03:09Z</time>
      </trkpt>
      <trkpt lat="44.41742" lon="5.65459">
        <ele>749</ele>
        <time>2019-03-23T15:03:10Z</time>
      </trkpt>
      <trkpt lat="44.41737" lon="5.65471">
        <ele>749</ele>
        <time>2019-03-23T15:03:11Z</time>
      </trkpt>
      <trkpt lat="44.41733" lon="5.65483">
        <ele>749</ele>
        <time>2019-03-23T15:03:12Z</time>
      </trkpt>
      <trkpt lat="44.41728" lon="5.65495">
        <ele>749</ele>
        <time>2019-03-23T15:03:13Z</time>
      </trkpt>
      <trkpt lat="44.41723" lon="5.65507">
        <ele>749</ele>
        <time>2019-03-23T15:03:14Z</time>
      </trkpt>
      <trkpt lat="44.41719" lon="5.65519">
        <ele>749</ele>
        <time>2019-03-23T15:03:15Z</time>
      </trkpt>
      <trkpt lat="44.41715" lon="5.65531">
        <ele>749</ele>
        <time>2019-03-23T15:03:16Z</time>
      </trkpt>
      <trkpt lat="44.41711" lon="5.65543">
        <ele>749</ele>
        <time>2019-03-23T15:03:17Z</time>
      </trkpt>
      <trkpt lat="44.41708" lon="5.65555">
        <ele>749</ele>
        <time>2019-03-23T15:03:18Z</time>
      </trkpt>
      <trkpt lat="44.41706" lon="5.65568">
        <ele>749</ele>
        <time>2019-03-23T15:03:19Z</time>
      </trkpt>
      <trkpt lat="44.41705" lon="5.65581">
        <ele>748</ele>
        <time>2019-03-23T15:03:20Z</time>
      </trkpt>
      <trkpt lat="44.41704" lon="5.65595">
        <ele>748</ele>
        <time>2019-03-23T15:03:21Z</time>
      </trkpt>
      <trkpt lat="44.41704" lon="5.65608">
        <ele>748</ele>
        <time>2019-03-23T15:03:22Z</time>
      </trkpt>
      <trkpt lat="44.41704" lon="5.65622">
        <ele>748</ele>
        <time>2019-03-23T15:03:23Z</time>
      </trkpt>
      <trkpt lat="44.41704" lon="5.65635">
        <ele>747</ele>
        <time>2019-03-23T15:03:24Z</time>
      </trkpt>
      <trkpt lat="44.41705" lon="5.65648">
        <ele>747</ele>
        <time>2019-03-23T15:03:25Z</time>
      </trkpt>
      <trkpt lat="44.41705" lon="5.65662">
        <ele>747</ele>
        <time>2019-03-23T15:03:26Z</time>
      </trkpt>
      <trkpt lat="44.41706" lon="5.65675">
        <ele>747</ele>
        <time>2019-03-23T15:03:27Z</time>
      </trkpt>
      <trkpt lat="44.41706" lon="5.65689">
        <ele>747</ele>
        <time>2019-03-23T15:03:28Z</time>
      </trkpt>
      <trkpt lat="44.41707" lon="5.65702">
        <ele>747</ele>
        <time>2019-03-23T15:03:29Z</time>
      </trkpt>
      <trkpt lat="44.41708" lon="5.65716">
        <ele>747</ele>
        <time>2019-03-23T15:03:30Z</time>
      </trkpt>
      <trkpt lat="44.41708" lon="5.6573">
        <ele>747</ele>
        <time>2019-03-23T15:03:31Z</time>
      </trkpt>
      <trkpt lat="44.41706" lon="5.65743">
        <ele>747</ele>
        <time>2019-03-23T15:03:32Z</time>
      </trkpt>
      <trkpt lat="44.41704" lon="5.65756">
        <ele>746</ele>
        <time>2019-03-23T15:03:33Z</time>
      </trkpt>
      <trkpt lat="44.41701" lon="5.65768">
        <ele>746</ele>
        <time>2019-03-23T15:03:34Z</time>
      </trkpt>
      <trkpt lat="44.41697" lon="5.65781">
        <ele>746</ele>
        <time>2019-03-23T15:03:35Z</time>
      </trkpt>
      <trkpt lat="44.41692" lon="5.65793">
        <ele>746</ele>
        <time>2019-03-23T15:03:36Z</time>
      </trkpt>
      <trkpt lat="44.41686" lon="5.65805">
        <ele>746</ele>
        <time>2019-03-23T15:03:37Z</time>
      </trkpt>
      <trkpt lat="44.41681" lon="5.65817">
        <ele>746</ele>
        <time>2019-03-23T15:03:38Z</time>
      </trkpt>
      <trkpt lat="44.41676" lon="5.65829">
        <ele>746</ele>
        <time>2019-03-23T15:03:39Z</time>
      </trkpt>
      <trkpt lat="44.41671" lon="5.6584">
        <ele>746</ele>
        <time>2019-03-23T15:03:40Z</time>
      </trkpt>
      <trkpt lat="44.41666" lon="5.65851">
        <ele>746</ele>
        <time>2019-03-23T15:03:41Z</time>
      </trkpt>
      <trkpt lat="44.41661" lon="5.65862">
        <ele>746</ele>
        <time>2019-03-23T15:03:42Z</time>
      </trkpt>
      <trkpt lat="44.41657" lon="5.65873">
        <ele>746</ele>
        <time>2019-03-23T15:03:43Z</time>
      </trkpt>
      <trkpt lat="44.41652" lon="5.65884">
        <ele>746</ele>
        <time>2019-03-23T15:03:44Z</time>
      </trkpt>
      <trkpt lat="44.41648" lon="5.65896">
        <ele>746</ele>
        <time>2019-03-23T15:03:45Z</time>
      </trkpt>
      <trkpt lat="44.41643" lon="5.65907">
        <ele>746</ele>
        <time>2019-03-23T15:03:46Z</time>
      </trkpt>
      <trkpt lat="44.41638" lon="5.65918">
        <ele>746</ele>
        <time>2019-03-23T15:03:47Z</time>
      </trkpt>
      <trkpt lat="44.41634" lon="5.65928">
        <ele>746</ele>
        <time>2019-03-23T15:03:48Z</time>
      </trkpt>
      <trkpt lat="44.41629" lon="5.65939">
        <ele>746</ele>
        <time>2019-03-23T15:03:49Z</time>
      </trkpt>
      <trkpt lat="44.41624" lon="5.65949">
        <ele>746</ele>
        <time>2019-03-23T15:03:50Z</time>
      </trkpt>
      <trkpt lat="44.4162" lon="5.6596">
        <ele>746</ele>
        <time>2019-03-23T15:03:51Z</time>
      </trkpt>
      <trkpt lat="44.41616" lon="5.65972">
        <ele>746</ele>
        <time>2019-03-23T15:03:52Z</time>
      </trkpt>
      <trkpt lat="44.41612" lon="5.65983">
        <ele>746</ele>
        <time>2019-03-23T15:03:53Z</time>
      </trkpt>
      <trkpt lat="44.41608" lon="5.65995">
        <ele>746</ele>
        <time>2019-03-23T15:03:54Z</time>
      </trkpt>
      <trkpt lat="44.41607" lon="5.66007">
        <ele>746</ele>
        <time>2019-03-23T15:03:55Z</time>
      </trkpt>
      <trkpt lat="44.41606" lon="5.6602">
        <ele>746</ele>
        <time>2019-03-23T15:03:56Z</time>
      </trkpt>
      <trkpt lat="44.41607" lon="5.66033">
        <ele>746</ele>
        <time>2019-03-23T15:03:57Z</time>
      </trkpt>
      <trkpt lat="44.41609" lon="5.66046">
        <ele>746</ele>
        <time>2019-03-23T15:03:58Z</time>
      </trkpt>
      <trkpt lat="44.41612" lon="5.66058">
        <ele>746</ele>
        <time>2019-03-23T15:03:59Z</time>
      </trkpt>
      <trkpt lat="44.41617" lon="5.6607">
        <ele>746</ele>
        <time>2019-03-23T15:04:00Z</time>
      </trkpt>
      <trkpt lat="44.41623" lon="5.66081">
        <ele>746</ele>
        <time>2019-03-23T15:04:01Z</time>
      </trkpt>
      <trkpt lat="44.41629" lon="5.66091">
        <ele>745</ele>
        <time>2019-03-23T15:04:02Z</time>
      </trkpt>
      <trkpt lat="44.41637" lon="5.661">
        <ele>745</ele>
        <time>2019-03-23T15:04:03Z</time>
      </trkpt>
      <trkpt lat="44.41645" lon="5.66107">
        <ele>745</ele>
        <time>2019-03-23T15:04:04Z</time>
      </trkpt>
      <trkpt lat="44.41653" lon="5.66115">
        <ele>744</ele>
        <time>2019-03-23T15:04:05Z</time>
      </trkpt>
      <trkpt lat="44.41661" lon="5.66123">
        <ele>744</ele>
        <time>2019-03-23T15:04:06Z</time>
      </trkpt>
      <trkpt lat="44.41668" lon="5.66131">
        <ele>744</ele>
        <time>2019-03-23T15:04:07Z</time>
      </trkpt>
      <trkpt lat="44.41676" lon="5.66141">
        <ele>743</ele>
        <time>2019-03-23T15:04:08Z</time>
      </trkpt>
      <trkpt lat="44.41682" lon="5.66151">
        <ele>743</ele>
        <time>2019-03-23T15:04:09Z</time>
      </trkpt>
      <trkpt lat="44.41689" lon="5.66162">
        <ele>743</ele>
        <time>2019-03-23T15:04:10Z</time>
      </trkpt>
      <trkpt lat="44.41693" lon="5.66175">
        <ele>743</ele>
        <time>2019-03-23T15:04:11Z</time>
      </trkpt>
      <trkpt lat="44.41697" lon="5.66187">
        <ele>743</ele>
        <time>2019-03-23T15:04:12Z</time>
      </trkpt>
      <trkpt lat="44.41699" lon="5.662">
        <ele>743</ele>
        <time>2019-03-23T15:04:13Z</time>
      </trkpt>
      <trkpt lat="44.417" lon="5.66214">
        <ele>743</ele>
        <time>2019-03-23T15:04:14Z</time>
      </trkpt>
      <trkpt lat="44.417" lon="5.66227">
        <ele>743</ele>
        <time>2019-03-23T15:04:15Z</time>
      </trkpt>
      <trkpt lat="44.41699" lon="5.6624">
        <ele>742</ele>
        <time>2019-03-23T15:04:16Z</time>
      </trkpt>
      <trkpt lat="44.41697" lon="5.66253">
        <ele>742</ele>
        <time>2019-03-23T15:04:17Z</time>
      </trkpt>
      <trkpt lat="44.41694" lon="5.66265">
        <ele>742</ele>
        <time>2019-03-23T15:04:18Z</time>
      </trkpt>
      <trkpt lat="44.41691" lon="5.66277">
        <ele>742</ele>
        <time>2019-03-23T15:04:19Z</time>
      </trkpt>
      <trkpt lat="44.41688" lon="5.66288">
        <ele>741</ele>
        <time>2019-03-23T15:04:20Z</time>
      </trkpt>
      <trkpt lat="44.41684" lon="5.66299">
        <ele>741</ele>
        <time>2019-03-23T15:04:21Z</time>
      </trkpt>
      <trkpt lat="44.41679" lon="5.6631">
        <ele>741</ele>
        <time>2019-03-23T15:04:22Z</time>
      </trkpt>
      <trkpt lat="44.41674" lon="5.6632">
        <ele>740</ele>
        <time>2019-03-23T15:04:23Z</time>
      </trkpt>
      <trkpt lat="44.41668" lon="5.6633">
        <ele>740</ele>
        <time>2019-03-23T15:04:24Z</time>
      </trkpt>
      <trkpt lat="44.41662" lon="5.6634">
        <ele>740</ele>
        <time>2019-03-23T15:04:25Z</time>
      </trkpt>
      <trkpt lat="44.41655" lon="5.66349">
        <ele>739</ele>
        <time>2019-03-23T15:04:26Z</time>
      </trkpt>
      <trkpt lat="44.41648" lon="5.66358">
        <ele>739</ele>
        <time>2019-03-23T15:04:27Z</time>
      </trkpt>
      <trkpt lat="44.41642" lon="5.66367">
        <ele>738</ele>
        <time>2019-03-23T15:04:28Z</time>
      </trkpt>
      <trkpt lat="44.41635" lon="5.66376">
        <ele>737</ele>
        <time>2019-03-23T15:04:29Z</time>
      </trkpt>
      <trkpt lat="44.41628" lon="5.66385">
        <ele>737</ele>
        <time>2019-03-23T15:04:30Z</time>
      </trkpt>
      <trkpt lat="44.41622" lon="5.66394">
        <ele>737</ele>
        <time>2019-03-23T15:04:31Z</time>
      </trkpt>
      <trkpt lat="44.41615" lon="5.66403">
        <ele>737</ele>
        <time>2019-03-23T15:04:32Z</time>
      </trkpt>
      <trkpt lat="44.41609" lon="5.66413">
        <ele>737</ele>
        <time>2019-03-23T15:04:33Z</time>
      </trkpt>
      <trkpt lat="44.41605" lon="5.66423">
        <ele>737</ele>
        <time>2019-03-23T15:04:34Z</time>
      </trkpt>
      <trkpt lat="44.41601" lon="5.66434">
        <ele>737</ele>
        <time>2019-03-23T15:04:35Z</time>
      </trkpt>
      <trkpt lat="44.41598" lon="5.66446">
        <ele>737</ele>
        <time>2019-03-23T15:04:36Z</time>
      </trkpt>
      <trkpt lat="44.41595" lon="5.66458">
        <ele>737</ele>
        <time>2019-03-23T15:04:37Z</time>
      </trkpt>
      <trkpt lat="44.41593" lon="5.66469">
        <ele>737</ele>
        <time>2019-03-23T15:04:38Z</time>
      </trkpt>
      <trkpt lat="44.41592" lon="5.66482">
        <ele>736</ele>
        <time>2019-03-23T15:04:39Z</time>
      </trkpt>
      <trkpt lat="44.4159" lon="5.66494">
        <ele>736</ele>
        <time>2019-03-23T15:04:40Z</time>
      </trkpt>
      <trkpt lat="44.4159" lon="5.66507">
        <ele>736</ele>
        <time>2019-03-23T15:04:41Z</time>
      </trkpt>
      <trkpt lat="44.41589" lon="5.66519">
        <ele>736</ele>
        <time>2019-03-23T15:04:42Z</time>
      </trkpt>
      <trkpt lat="44.41589" lon="5.66532">
        <ele>736</ele>
        <time>2019-03-23T15:04:43Z</time>
      </trkpt>
      <trkpt lat="44.41589" lon="5.66544">
        <ele>736</ele>
        <time>2019-03-23T15:04:44Z</time>
      </trkpt>
      <trkpt lat="44.41589" lon="5.66557">
        <ele>736</ele>
        <time>2019-03-23T15:04:45Z</time>
      </trkpt>
      <trkpt lat="44.4159" lon="5.66569">
        <ele>736</ele>
        <time>2019-03-23T15:04:46Z</time>
      </trkpt>
      <trkpt lat="44.4159" lon="5.66581">
        <ele>736</ele>
        <time>2019-03-23T15:04:47Z</time>
      </trkpt>
      <trkpt lat="44.4159" lon="5.66594">
        <ele>735</ele>
        <time>2019-03-23T15:04:48Z</time>
      </trkpt>
      <trkpt lat="44.41591" lon="5.66606">
        <ele>735</ele>
        <time>2019-03-23T15:04:49Z</time>
      </trkpt>
      <trkpt lat="44.41591" lon="5.66619">
        <ele>735</ele>
        <time>2019-03-23T15:04:50Z</time>
      </trkpt>
      <trkpt lat="44.41591" lon="5.66631">
        <ele>735</ele>
        <time>2019-03-23T15:04:51Z</time>
      </trkpt>
      <trkpt lat="44.41591" lon="5.66643">
        <ele>734</ele>
        <time>2019-03-23T15:04:52Z</time>
      </trkpt>
      <trkpt lat="44.41591" lon="5.66655">
        <ele>734</ele>
        <time>2019-03-23T15:04:53Z</time>
      </trkpt>
      <trkpt lat="44.41591" lon="5.66667">
        <ele>734</ele>
        <time>2019-03-23T15:04:54Z</time>
      </trkpt>
      <trkpt lat="44.41591" lon="5.66679">
        <ele>734</ele>
        <time>2019-03-23T15:04:55Z</time>
      </trkpt>
      <trkpt lat="44.41591" lon="5.66691">
        <ele>734</ele>
        <time>2019-03-23T15:04:56Z</time>
      </trkpt>
      <trkpt lat="44.41591" lon="5.66703">
        <ele>733</ele>
        <time>2019-03-23T15:04:57Z</time>
      </trkpt>
      <trkpt lat="44.41591" lon="5.66715">
        <ele>733</ele>
        <time>2019-03-23T15:04:58Z</time>
      </trkpt>
      <trkpt lat="44.41592" lon="5.66727">
        <ele>733</ele>
        <time>2019-03-23T15:04:59Z</time>
      </trkpt>
      <trkpt lat="44.41593" lon="5.6674">
        <ele>733</ele>
        <time>2019-03-23T15:05:00Z</time>
      </trkpt>
      <trkpt lat="44.41596" lon="5.66751">
        <ele>733</ele>
        <time>2019-03-23T15:05:01Z</time>
      </trkpt>
      <trkpt lat="44.41599" lon="5.66763">
        <ele>733</ele>
        <time>2019-03-23T15:05:02Z</time>
      </trkpt>
      <trkpt lat="44.41602" lon="5.66775">
        <ele>732</ele>
        <time>2019-03-23T15:05:03Z</time>
      </trkpt>
      <trkpt lat="44.41605" lon="5.66786">
        <ele>732</ele>
        <time>2019-03-23T15:05:04Z</time>
      </trkpt>
      <trkpt lat="44.41609" lon="5.66798">
        <ele>732</ele>
        <time>2019-03-23T15:05:05Z</time>
      </trkpt>
      <trkpt lat="44.41612" lon="5.6681">
        <ele>732</ele>
        <time>2019-03-23T15:05:06Z</time>
      </trkpt>
      <trkpt lat="44.41616" lon="5.66822">
        <ele>732</ele>
        <time>2019-03-23T15:05:07Z</time>
      </trkpt>
      <trkpt lat="44.41619" lon="5.66833">
        <ele>732</ele>
        <time>2019-03-23T15:05:08Z</time>
      </trkpt>
      <trkpt lat="44.41623" lon="5.66845">
        <ele>732</ele>
        <time>2019-03-23T15:05:09Z</time>
      </trkpt>
      <trkpt lat="44.41626" lon="5.66857">
        <ele>732</ele>
        <time>2019-03-23T15:05:10Z</time>
      </trkpt>
      <trkpt lat="44.4163" lon="5.66869">
        <ele>732</ele>
        <time>2019-03-23T15:05:11Z</time>
      </trkpt>
      <trkpt lat="44.41633" lon="5.66881">
        <ele>732</ele>
        <time>2019-03-23T15:05:12Z</time>
      </trkpt>
      <trkpt lat="44.41636" lon="5.66893">
        <ele>732</ele>
        <time>2019-03-23T15:05:13Z</time>
      </trkpt>
      <trkpt lat="44.41638" lon="5.66905">
        <ele>732</ele>
        <time>2019-03-23T15:05:14Z</time>
      </trkpt>
      <trkpt lat="44.4164" lon="5.66918">
        <ele>732</ele>
        <time>2019-03-23T15:05:15Z</time>
      </trkpt>
      <trkpt lat="44.41641" lon="5.6693">
        <ele>732</ele>
        <time>2019-03-23T15:05:16Z</time>
      </trkpt>
      <trkpt lat="44.41642" lon="5.66943">
        <ele>732</ele>
        <time>2019-03-23T15:05:17Z</time>
      </trkpt>
      <trkpt lat="44.41642" lon="5.66956">
        <ele>732</ele>
        <time>2019-03-23T15:05:18Z</time>
      </trkpt>
      <trkpt lat="44.41642" lon="5.66969">
        <ele>732</ele>
        <time>2019-03-23T15:05:19Z</time>
      </trkpt>
      <trkpt lat="44.4164" lon="5.66981">
        <ele>732</ele>
        <time>2019-03-23T15:05:20Z</time>
      </trkpt>
      <trkpt lat="44.41638" lon="5.66994">
        <ele>732</ele>
        <time>2019-03-23T15:05:21Z</time>
      </trkpt>
      <trkpt lat="44.41635" lon="5.67006">
        <ele>731</ele>
        <time>2019-03-23T15:05:22Z</time>
      </trkpt>
      <trkpt lat="44.41631" lon="5.67018">
        <ele>731</ele>
        <time>2019-03-23T15:05:23Z</time>
      </trkpt>
      <trkpt lat="44.41626" lon="5.67029">
        <ele>731</ele>
        <time>2019-03-23T15:05:24Z</time>
      </trkpt>
      <trkpt lat="44.41621" lon="5.6704">
        <ele>731</ele>
        <time>2019-03-23T15:05:25Z</time>
      </trkpt>
      <trkpt lat="44.41616" lon="5.67052">
        <ele>731</ele>
        <time>2019-03-23T15:05:26Z</time>
      </trkpt>
      <trkpt lat="44.41612" lon="5.67064">
        <ele>731</ele>
        <time>2019-03-23T15:05:27Z</time>
      </trkpt>
      <trkpt lat="44.41607" lon="5.67074">
        <ele>731</ele>
        <time>2019-03-23T15:05:28Z</time>
      </trkpt>
      <trkpt lat="44.41602" lon="5.67086">
        <ele>731</ele>
        <time>2019-03-23T15:05:29Z</time>
      </trkpt>
      <trkpt lat="44.41598" lon="5.67097">
        <ele>731</ele>
        <time>2019-03-23T15:05:30Z</time>
      </trkpt>
      <trkpt lat="44.41593" lon="5.67108">
        <ele>731</ele>
        <time>2019-03-23T15:05:31Z</time>
      </trkpt>
      <trkpt lat="44.41589" lon="5.67119">
        <ele>731</ele>
        <time>2019-03-23T15:05:32Z</time>
      </trkpt>
      <trkpt lat="44.41585" lon="5.6713">
        <ele>731</ele>
        <time>2019-03-23T15:05:33Z</time>
      </trkpt>
      <trkpt lat="44.41581" lon="5.67141">
        <ele>731</ele>
        <time>2019-03-23T15:05:34Z</time>
      </trkpt>
      <trkpt lat="44.41576" lon="5.67153">
        <ele>731</ele>
        <time>2019-03-23T15:05:35Z</time>
      </trkpt>
      <trkpt lat="44.41572" lon="5.67164">
        <ele>731</ele>
        <time>2019-03-23T15:05:36Z</time>
      </trkpt>
      <trkpt lat="44.41568" lon="5.67175">
        <ele>731</ele>
        <time>2019-03-23T15:05:37Z</time>
      </trkpt>
      <trkpt lat="44.41563" lon="5.67187">
        <ele>731</ele>
        <time>2019-03-23T15:05:38Z</time>
      </trkpt>
      <trkpt lat="44.41559" lon="5.67199">
        <ele>730</ele>
        <time>2019-03-23T15:05:39Z</time>
      </trkpt>
      <trkpt lat="44.41555" lon="5.6721">
        <ele>730</ele>
        <time>2019-03-23T15:05:40Z</time>
      </trkpt>
      <trkpt lat="44.41552" lon="5.67223">
        <ele>730</ele>
        <time>2019-03-23T15:05:41Z</time>
      </trkpt>
      <trkpt lat="44.41548" lon="5.67235">
        <ele>729</ele>
        <time>2019-03-23T15:05:42Z</time>
      </trkpt>
      <trkpt lat="44.41545" lon="5.67248">
        <ele>729</ele>
        <time>2019-03-23T15:05:43Z</time>
      </trkpt>
      <trkpt lat="44.41543" lon="5.67261">
        <ele>729</ele>
        <time>2019-03-23T15:05:44Z</time>
      </trkpt>
      <trkpt lat="44.41541" lon="5.67274">
        <ele>728</ele>
        <time>2019-03-23T15:05:45Z</time>
      </trkpt>
      <trkpt lat="44.4154" lon="5.67287">
        <ele>728</ele>
        <time>2019-03-23T15:05:46Z</time>
      </trkpt>
      <trkpt lat="44.41539" lon="5.67301">
        <ele>728</ele>
        <time>2019-03-23T15:05:47Z</time>
      </trkpt>
      <trkpt lat="44.41539" lon="5.67314">
        <ele>727</ele>
        <time>2019-03-23T15:05:48Z</time>
      </trkpt>
      <trkpt lat="44.41539" lon="5.67327">
        <ele>727</ele>
        <time>2019-03-23T15:05:49Z</time>
      </trkpt>
      <trkpt lat="44.41539" lon="5.67341">
        <ele>726</ele>
        <time>2019-03-23T15:05:50Z</time>
      </trkpt>
      <trkpt lat="44.4154" lon="5.67355">
        <ele>726</ele>
        <time>2019-03-23T15:05:51Z</time>
      </trkpt>
      <trkpt lat="44.41541" lon="5.67369">
        <ele>726</ele>
        <time>2019-03-23T15:05:52Z</time>
      </trkpt>
      <trkpt lat="44.41541" lon="5.67383">
        <ele>726</ele>
        <time>2019-03-23T15:05:53Z</time>
      </trkpt>
      <trkpt lat="44.41542" lon="5.67397">
        <ele>725</ele>
        <time>2019-03-23T15:05:54Z</time>
      </trkpt>
      <trkpt lat="44.41542" lon="5.67412">
        <ele>725</ele>
        <time>2019-03-23T15:05:55Z</time>
      </trkpt>
      <trkpt lat="44.41542" lon="5.67426">
        <ele>725</ele>
        <time>2019-03-23T15:05:56Z</time>
      </trkpt>
      <trkpt lat="44.41541" lon="5.6744">
        <ele>724</ele>
        <time>2019-03-23T15:05:57Z</time>
      </trkpt>
      <trkpt lat="44.41539" lon="5.67454">
        <ele>724</ele>
        <time>2019-03-23T15:05:58Z</time>
      </trkpt>
      <trkpt lat="44.41537" lon="5.67467">
        <ele>724</ele>
        <time>2019-03-23T15:05:59Z</time>
      </trkpt>
      <trkpt lat="44.41534" lon="5.67481">
        <ele>723</ele>
        <time>2019-03-23T15:06:00Z</time>
      </trkpt>
      <trkpt lat="44.41531" lon="5.67495">
        <ele>723</ele>
        <time>2019-03-23T15:06:01Z</time>
      </trkpt>
      <trkpt lat="44.41528" lon="5.67508">
        <ele>723</ele>
        <time>2019-03-23T15:06:02Z</time>
      </trkpt>
      <trkpt lat="44.41525" lon="5.67521">
        <ele>723</ele>
        <time>2019-03-23T15:06:03Z</time>
      </trkpt>
      <trkpt lat="44.41522" lon="5.67533">
        <ele>723</ele>
        <time>2019-03-23T15:06:04Z</time>
      </trkpt>
      <trkpt lat="44.41519" lon="5.67546">
        <ele>723</ele>
        <time>2019-03-23T15:06:05Z</time>
      </trkpt>
      <trkpt lat="44.41516" lon="5.67558">
        <ele>723</ele>
        <time>2019-03-23T15:06:06Z</time>
      </trkpt>
      <trkpt lat="44.41513" lon="5.67571">
        <ele>723</ele>
        <time>2019-03-23T15:06:07Z</time>
      </trkpt>
      <trkpt lat="44.41511" lon="5.67584">
        <ele>723</ele>
        <time>2019-03-23T15:06:08Z</time>
      </trkpt>
      <trkpt lat="44.41508" lon="5.67596">
        <ele>723</ele>
        <time>2019-03-23T15:06:09Z</time>
      </trkpt>
      <trkpt lat="44.41506" lon="5.67608">
        <ele>723</ele>
        <time>2019-03-23T15:06:10Z</time>
      </trkpt>
      <trkpt lat="44.41504" lon="5.6762">
        <ele>723</ele>
        <time>2019-03-23T15:06:11Z</time>
      </trkpt>
      <trkpt lat="44.41502" lon="5.67633">
        <ele>723</ele>
        <time>2019-03-23T15:06:12Z</time>
      </trkpt>
      <trkpt lat="44.41501" lon="5.67645">
        <ele>722</ele>
        <time>2019-03-23T15:06:13Z</time>
      </trkpt>
      <trkpt lat="44.415" lon="5.67657">
        <ele>721</ele>
        <time>2019-03-23T15:06:14Z</time>
      </trkpt>
      <trkpt lat="44.41501" lon="5.6767">
        <ele>721</ele>
        <time>2019-03-23T15:06:15Z</time>
      </trkpt>
      <trkpt lat="44.41501" lon="5.67683">
        <ele>720</ele>
        <time>2019-03-23T15:06:16Z</time>
      </trkpt>
      <trkpt lat="44.41501" lon="5.67696">
        <ele>719</ele>
        <time>2019-03-23T15:06:17Z</time>
      </trkpt>
      <trkpt lat="44.41502" lon="5.67709">
        <ele>719</ele>
        <time>2019-03-23T15:06:18Z</time>
      </trkpt>
      <trkpt lat="44.41502" lon="5.67722">
        <ele>719</ele>
        <time>2019-03-23T15:06:19Z</time>
      </trkpt>
      <trkpt lat="44.41502" lon="5.67735">
        <ele>719</ele>
        <time>2019-03-23T15:06:20Z</time>
      </trkpt>
      <trkpt lat="44.41502" lon="5.67749">
        <ele>719</ele>
        <time>2019-03-23T15:06:21Z</time>
      </trkpt>
      <trkpt lat="44.41502" lon="5.67763">
        <ele>719</ele>
        <time>2019-03-23T15:06:22Z</time>
      </trkpt>
      <trkpt lat="44.415" lon="5.67776">
        <ele>719</ele>
        <time>2019-03-23T15:06:23Z</time>
      </trkpt>
      <trkpt lat="44.41499" lon="5.6779">
        <ele>719</ele>
        <time>2019-03-23T15:06:24Z</time>
      </trkpt>
      <trkpt lat="44.41497" lon="5.67803">
        <ele>719</ele>
        <time>2019-03-23T15:06:25Z</time>
      </trkpt>
      <trkpt lat="44.41495" lon="5.67816">
        <ele>719</ele>
        <time>2019-03-23T15:06:26Z</time>
      </trkpt>
      <trkpt lat="44.41493" lon="5.67829">
        <ele>719</ele>
        <time>2019-03-23T15:06:27Z</time>
      </trkpt>
      <trkpt lat="44.41491" lon="5.67842">
        <ele>718</ele>
        <time>2019-03-23T15:06:28Z</time>
      </trkpt>
      <trkpt lat="44.41488" lon="5.67855">
        <ele>718</ele>
        <time>2019-03-23T15:06:29Z</time>
      </trkpt>
      <trkpt lat="44.41484" lon="5.67868">
        <ele>718</ele>
        <time>2019-03-23T15:06:30Z</time>
      </trkpt>
      <trkpt lat="44.41481" lon="5.67881">
        <ele>718</ele>
        <time>2019-03-23T15:06:31Z</time>
      </trkpt>
      <trkpt lat="44.41478" lon="5.67894">
        <ele>718</ele>
        <time>2019-03-23T15:06:32Z</time>
      </trkpt>
      <trkpt lat="44.41475" lon="5.67906">
        <ele>718</ele>
        <time>2019-03-23T15:06:33Z</time>
      </trkpt>
      <trkpt lat="44.41472" lon="5.67919">
        <ele>718</ele>
        <time>2019-03-23T15:06:34Z</time>
      </trkpt>
      <trkpt lat="44.41468" lon="5.67931">
        <ele>718</ele>
        <time>2019-03-23T15:06:35Z</time>
      </trkpt>
      <trkpt lat="44.41466" lon="5.67944">
        <ele>718</ele>
        <time>2019-03-23T15:06:36Z</time>
      </trkpt>
      <trkpt lat="44.41462" lon="5.67956">
        <ele>718</ele>
        <time>2019-03-23T15:06:37Z</time>
      </trkpt>
      <trkpt lat="44.41459" lon="5.67969">
        <ele>718</ele>
        <time>2019-03-23T15:06:38Z</time>
      </trkpt>
      <trkpt lat="44.41457" lon="5.67981">
        <ele>718</ele>
        <time>2019-03-23T15:06:39Z</time>
      </trkpt>
      <trkpt lat="44.41455" lon="5.67993">
        <ele>718</ele>
        <time>2019-03-23T15:06:40Z</time>
      </trkpt>
      <trkpt lat="44.41454" lon="5.68006">
        <ele>718</ele>
        <time>2019-03-23T15:06:41Z</time>
      </trkpt>
      <trkpt lat="44.41454" lon="5.68019">
        <ele>718</ele>
        <time>2019-03-23T15:06:42Z</time>
      </trkpt>
      <trkpt lat="44.41455" lon="5.68031">
        <ele>718</ele>
        <time>2019-03-23T15:06:43Z</time>
      </trkpt>
      <trkpt lat="44.41456" lon="5.68043">
        <ele>718</ele>
        <time>2019-03-23T15:06:44Z</time>
      </trkpt>
      <trkpt lat="44.41457" lon="5.68055">
        <ele>718</ele>
        <time>2019-03-23T15:06:45Z</time>
      </trkpt>
      <trkpt lat="44.41458" lon="5.68068">
        <ele>718</ele>
        <time>2019-03-23T15:06:46Z</time>
      </trkpt>
      <trkpt lat="44.41459" lon="5.6808">
        <ele>718</ele>
        <time>2019-03-23T15:06:47Z</time>
      </trkpt>
      <trkpt lat="44.41459" lon="5.68092">
        <ele>718</ele>
        <time>2019-03-23T15:06:48Z</time>
      </trkpt>
      <trkpt lat="44.4146" lon="5.68104">
        <ele>717</ele>
        <time>2019-03-23T15:06:49Z</time>
      </trkpt>
      <trkpt lat="44.4146" lon="5.68117">
        <ele>717</ele>
        <time>2019-03-23T15:06:50Z</time>
      </trkpt>
      <trkpt lat="44.41459" lon="5.68128">
        <ele>717</ele>
        <time>2019-03-23T15:06:51Z</time>
      </trkpt>
      <trkpt lat="44.41457" lon="5.68141">
        <ele>716</ele>
        <time>2019-03-23T15:06:52Z</time>
      </trkpt>
      <trkpt lat="44.41455" lon="5.68153">
        <ele>716</ele>
        <time>2019-03-23T15:06:53Z</time>
      </trkpt>
      <trkpt lat="44.41453" lon="5.68164">
        <ele>716</ele>
        <time>2019-03-23T15:06:54Z</time>
      </trkpt>
      <trkpt lat="44.41451" lon="5.68176">
        <ele>715</ele>
        <time>2019-03-23T15:06:55Z</time>
      </trkpt>
      <trkpt lat="44.4145" lon="5.68187">
        <ele>715</ele>
        <time>2019-03-23T15:06:56Z</time>
      </trkpt>
      <trkpt lat="44.41449" lon="5.68199">
        <ele>715</ele>
        <time>2019-03-23T15:06:57Z</time>
      </trkpt>
      <trkpt lat="44.41448" lon="5.6821">
        <ele>715</ele>
        <time>2019-03-23T15:06:58Z</time>
      </trkpt>
      <trkpt lat="44.41449" lon="5.68222">
        <ele>715</ele>
        <time>2019-03-23T15:06:59Z</time>
      </trkpt>
      <trkpt lat="44.41451" lon="5.68233">
        <ele>715</ele>
        <time>2019-03-23T15:07:00Z</time>
      </trkpt>
      <trkpt lat="44.41454" lon="5.68244">
        <ele>714</ele>
        <time>2019-03-23T15:07:01Z</time>
      </trkpt>
      <trkpt lat="44.41457" lon="5.68255">
        <ele>714</ele>
        <time>2019-03-23T15:07:02Z</time>
      </trkpt>
      <trkpt lat="44.41459" lon="5.68266">
        <ele>714</ele>
        <time>2019-03-23T15:07:03Z</time>
      </trkpt>
      <trkpt lat="44.41462" lon="5.68277">
        <ele>714</ele>
        <time>2019-03-23T15:07:04Z</time>
      </trkpt>
      <trkpt lat="44.41464" lon="5.68288">
        <ele>714</ele>
        <time>2019-03-23T15:07:05Z</time>
      </trkpt>
      <trkpt lat="44.41467" lon="5.68298">
        <ele>714</ele>
        <time>2019-03-23T15:07:06Z</time>
      </trkpt>
      <trkpt lat="44.4147" lon="5.68309">
        <ele>714</ele>
        <time>2019-03-23T15:07:07Z</time>
      </trkpt>
      <trkpt lat="44.41473" lon="5.6832">
        <ele>714</ele>
        <time>2019-03-23T15:07:08Z</time>
      </trkpt>
      <trkpt lat="44.41476" lon="5.6833">
        <ele>714</ele>
        <time>2019-03-23T15:07:09Z</time>
      </trkpt>
      <trkpt lat="44.41478" lon="5.68341">
        <ele>714</ele>
        <time>2019-03-23T15:07:10Z</time>
      </trkpt>
      <trkpt lat="44.41481" lon="5.68351">
        <ele>714</ele>
        <time>2019-03-23T15:07:11Z</time>
      </trkpt>
      <trkpt lat="44.41484" lon="5.68361">
        <ele>714</ele>
        <time>2019-03-23T15:07:12Z</time>
      </trkpt>
      <trkpt lat="44.41486" lon="5.68372">
        <ele>714</ele>
        <time>2019-03-23T15:07:13Z</time>
      </trkpt>
      <trkpt lat="44.41489" lon="5.68382">
        <ele>714</ele>
        <time>2019-03-23T15:07:14Z</time>
      </trkpt>
      <trkpt lat="44.41492" lon="5.68392">
        <ele>714</ele>
        <time>2019-03-23T15:07:15Z</time>
      </trkpt>
      <trkpt lat="44.41495" lon="5.68402">
        <ele>714</ele>
        <time>2019-03-23T15:07:16Z</time>
      </trkpt>
      <trkpt lat="44.41497" lon="5.68412">
        <ele>714</ele>
        <time>2019-03-23T15:07:17Z</time>
      </trkpt>
      <trkpt lat="44.415" lon="5.68422">
        <ele>714</ele>
        <time>2019-03-23T15:07:18Z</time>
      </trkpt>
      <trkpt lat="44.41503" lon="5.68432">
        <ele>714</ele>
        <time>2019-03-23T15:07:19Z</time>
      </trkpt>
      <trkpt lat="44.41506" lon="5.68443">
        <ele>714</ele>
        <time>2019-03-23T15:07:20Z</time>
      </trkpt>
      <trkpt lat="44.41509" lon="5.68453">
        <ele>714</ele>
        <time>2019-03-23T15:07:21Z</time>
      </trkpt>
      <trkpt lat="44.41513" lon="5.68463">
        <ele>714</ele>
        <time>2019-03-23T15:07:22Z</time>
      </trkpt>
      <trkpt lat="44.41516" lon="5.68474">
        <ele>714</ele>
        <time>2019-03-23T15:07:23Z</time>
      </trkpt>
      <trkpt lat="44.4152" lon="5.68484">
        <ele>714</ele>
        <time>2019-03-23T15:07:24Z</time>
      </trkpt>
      <trkpt lat="44.41525" lon="5.68494">
        <ele>714</ele>
        <time>2019-03-23T15:07:25Z</time>
      </trkpt>
      <trkpt lat="44.41531" lon="5.68503">
        <ele>714</ele>
        <time>2019-03-23T15:07:26Z</time>
      </trkpt>
      <trkpt lat="44.41536" lon="5.68513">
        <ele>714</ele>
        <time>2019-03-23T15:07:27Z</time>
      </trkpt>
      <trkpt lat="44.41541" lon="5.68523">
        <ele>714</ele>
        <time>2019-03-23T15:07:28Z</time>
      </trkpt>
      <trkpt lat="44.41547" lon="5.68533">
        <ele>714</ele>
        <time>2019-03-23T15:07:29Z</time>
      </trkpt>
      <trkpt lat="44.41553" lon="5.68542">
        <ele>713</ele>
        <time>2019-03-23T15:07:30Z</time>
      </trkpt>
      <trkpt lat="44.41559" lon="5.68552">
        <ele>713</ele>
        <time>2019-03-23T15:07:31Z</time>
      </trkpt>
      <trkpt lat="44.41564" lon="5.68562">
        <ele>712</ele>
        <time>2019-03-23T15:07:32Z</time>
      </trkpt>
      <trkpt lat="44.4157" lon="5.68573">
        <ele>712</ele>
        <time>2019-03-23T15:07:33Z</time>
      </trkpt>
      <trkpt lat="44.41575" lon="5.68583">
        <ele>712</ele>
        <time>2019-03-23T15:07:34Z</time>
      </trkpt>
      <trkpt lat="44.4158" lon="5.68594">
        <ele>711</ele>
        <time>2019-03-23T15:07:35Z</time>
      </trkpt>
      <trkpt lat="44.41585" lon="5.68606">
        <ele>711</ele>
        <time>2019-03-23T15:07:36Z</time>
      </trkpt>
      <trkpt lat="44.4159" lon="5.68617">
        <ele>710</ele>
        <time>2019-03-23T15:07:37Z</time>
      </trkpt>
      <trkpt lat="44.41594" lon="5.6863">
        <ele>710</ele>
        <time>2019-03-23T15:07:38Z</time>
      </trkpt>
      <trkpt lat="44.41596" lon="5.68642">
        <ele>709</ele>
        <time>2019-03-23T15:07:39Z</time>
      </trkpt>
      <trkpt lat="44.41599" lon="5.68655">
        <ele>709</ele>
        <time>2019-03-23T15:07:40Z</time>
      </trkpt>
      <trkpt lat="44.416" lon="5.68669">
        <ele>709</ele>
        <time>2019-03-23T15:07:41Z</time>
      </trkpt>
      <trkpt lat="44.41601" lon="5.68682">
        <ele>708</ele>
        <time>2019-03-23T15:07:42Z</time>
      </trkpt>
      <trkpt lat="44.41602" lon="5.68695">
        <ele>708</ele>
        <time>2019-03-23T15:07:43Z</time>
      </trkpt>
      <trkpt lat="44.41602" lon="5.68708">
        <ele>708</ele>
        <time>2019-03-23T15:07:44Z</time>
      </trkpt>
      <trkpt lat="44.41602" lon="5.68721">
        <ele>707</ele>
        <time>2019-03-23T15:07:45Z</time>
      </trkpt>
      <trkpt lat="44.41603" lon="5.68734">
        <ele>707</ele>
        <time>2019-03-23T15:07:46Z</time>
      </trkpt>
      <trkpt lat="44.41604" lon="5.68747">
        <ele>707</ele>
        <time>2019-03-23T15:07:47Z</time>
      </trkpt>
      <trkpt lat="44.41605" lon="5.6876">
        <ele>707</ele>
        <time>2019-03-23T15:07:48Z</time>
      </trkpt>
      <trkpt lat="44.41608" lon="5.68773">
        <ele>706</ele>
        <time>2019-03-23T15:07:49Z</time>
      </trkpt>
      <trkpt lat="44.4161" lon="5.68785">
        <ele>706</ele>
        <time>2019-03-23T15:07:50Z</time>
      </trkpt>
      <trkpt lat="44.41614" lon="5.68797">
        <ele>706</ele>
        <time>2019-03-23T15:07:51Z</time>
      </trkpt>
      <trkpt lat="44.41618" lon="5.6881">
        <ele>706</ele>
        <time>2019-03-23T15:07:52Z</time>
      </trkpt>
      <trkpt lat="44.41622" lon="5.68822">
        <ele>705</ele>
        <time>2019-03-23T15:07:53Z</time>
      </trkpt>
      <trkpt lat="44.41626" lon="5.68834">
        <ele>705</ele>
        <time>2019-03-23T15:07:54Z</time>
      </trkpt>
      <trkpt lat="44.4163" lon="5.68847">
        <ele>705</ele>
        <time>2019-03-23T15:07:55Z</time>
      </trkpt>
      <trkpt lat="44.41634" lon="5.6886">
        <ele>704</ele>
        <time>2019-03-23T15:07:56Z</time>
      </trkpt>
      <trkpt lat="44.41637" lon="5.68874">
        <ele>704</ele>
        <time>2019-03-23T15:07:57Z</time>
      </trkpt>
      <trkpt lat="44.41639" lon="5.68887">
        <ele>704</ele>
        <time>2019-03-23T15:07:58Z</time>
      </trkpt>
      <trkpt lat="44.41642" lon="5.68901">
        <ele>703</ele>
        <time>2019-03-23T15:07:59Z</time>
      </trkpt>
      <trkpt lat="44.41644" lon="5.68914">
        <ele>703</ele>
        <time>2019-03-23T15:08:00Z</time>
      </trkpt>
      <trkpt lat="44.41647" lon="5.68927">
        <ele>703</ele>
        <time>2019-03-23T15:08:01Z</time>
      </trkpt>
      <trkpt lat="44.41648" lon="5.68941">
        <ele>703</ele>
        <time>2019-03-23T15:08:02Z</time>
      </trkpt>
      <trkpt lat="44.4165" lon="5.68954">
        <ele>703</ele>
        <time>2019-03-23T15:08:03Z</time>
      </trkpt>
      <trkpt lat="44.41653" lon="5.68966">
        <ele>703</ele>
        <time>2019-03-23T15:08:04Z</time>
      </trkpt>
      <trkpt lat="44.41655" lon="5.68979">
        <ele>702</ele>
        <time>2019-03-23T15:08:05Z</time>
      </trkpt>
      <trkpt lat="44.41658" lon="5.68991">
        <ele>702</ele>
        <time>2019-03-23T15:08:06Z</time>
      </trkpt>
      <trkpt lat="44.41661" lon="5.69003">
        <ele>702</ele>
        <time>2019-03-23T15:08:07Z</time>
      </trkpt>
      <trkpt lat="44.41665" lon="5.69015">
        <ele>702</ele>
        <time>2019-03-23T15:08:08Z</time>
      </trkpt>
      <trkpt lat="44.41669" lon="5.69027">
        <ele>701</ele>
        <time>2019-03-23T15:08:09Z</time>
      </trkpt>
      <trkpt lat="44.41673" lon="5.69039">
        <ele>701</ele>
        <time>2019-03-23T15:08:10Z</time>
      </trkpt>
      <trkpt lat="44.41676" lon="5.69051">
        <ele>701</ele>
        <time>2019-03-23T15:08:11Z</time>
      </trkpt>
      <trkpt lat="44.4168" lon="5.69063">
        <ele>701</ele>
        <time>2019-03-23T15:08:12Z</time>
      </trkpt>
      <trkpt lat="44.41683" lon="5.69076">
        <ele>701</ele>
        <time>2019-03-23T15:08:13Z</time>
      </trkpt>
      <trkpt lat="44.41685" lon="5.69089">
        <ele>701</ele>
        <time>2019-03-23T15:08:14Z</time>
      </trkpt>
      <trkpt lat="44.41687" lon="5.69101">
        <ele>700</ele>
        <time>2019-03-23T15:08:15Z</time>
      </trkpt>
      <trkpt lat="44.41689" lon="5.69115">
        <ele>700</ele>
        <time>2019-03-23T15:08:16Z</time>
      </trkpt>
      <trkpt lat="44.4169" lon="5.69129">
        <ele>700</ele>
        <time>2019-03-23T15:08:17Z</time>
      </trkpt>
      <trkpt lat="44.41689" lon="5.69142">
        <ele>700</ele>
        <time>2019-03-23T15:08:18Z</time>
      </trkpt>
      <trkpt lat="44.41687" lon="5.69156">
        <ele>700</ele>
        <time>2019-03-23T15:08:19Z</time>
      </trkpt>
      <trkpt lat="44.41684" lon="5.69169">
        <ele>700</ele>
        <time>2019-03-23T15:08:20Z</time>
      </trkpt>
      <trkpt lat="44.41679" lon="5.69182">
        <ele>700</ele>
        <time>2019-03-23T15:08:21Z</time>
      </trkpt>
      <trkpt lat="44.41675" lon="5.69195">
        <ele>700</ele>
        <time>2019-03-23T15:08:22Z</time>
      </trkpt>
      <trkpt lat="44.41671" lon="5.69207">
        <ele>700</ele>
        <time>2019-03-23T15:08:23Z</time>
      </trkpt>
      <trkpt lat="44.41667" lon="5.69219">
        <ele>700</ele>
        <time>2019-03-23T15:08:24Z</time>
      </trkpt>
      <trkpt lat="44.41663" lon="5.69232">
        <ele>700</ele>
        <time>2019-03-23T15:08:25Z</time>
      </trkpt>
      <trkpt lat="44.41661" lon="5.69244">
        <ele>700</ele>
        <time>2019-03-23T15:08:26Z</time>
      </trkpt>
      <trkpt lat="44.41659" lon="5.69256">
        <ele>700</ele>
        <time>2019-03-23T15:08:27Z</time>
      </trkpt>
      <trkpt lat="44.4166" lon="5.69268">
        <ele>700</ele>
        <time>2019-03-23T15:08:28Z</time>
      </trkpt>
      <trkpt lat="44.41664" lon="5.69279">
        <ele>700</ele>
        <time>2019-03-23T15:08:29Z</time>
      </trkpt>
      <trkpt lat="44.41671" lon="5.69288">
        <ele>700</ele>
        <time>2019-03-23T15:08:30Z</time>
      </trkpt>
      <trkpt lat="44.41677" lon="5.69295">
        <ele>700</ele>
        <time>2019-03-23T15:08:31Z</time>
      </trkpt>
      <trkpt lat="44.41685" lon="5.69299">
        <ele>700</ele>
        <time>2019-03-23T15:08:32Z</time>
      </trkpt>
      <trkpt lat="44.41694" lon="5.69302">
        <ele>700</ele>
        <time>2019-03-23T15:08:33Z</time>
      </trkpt>
      <trkpt lat="44.41703" lon="5.69305">
        <ele>700</ele>
        <time>2019-03-23T15:08:34Z</time>
      </trkpt>
      <trkpt lat="44.41713" lon="5.69307">
        <ele>700</ele>
        <time>2019-03-23T15:08:35Z</time>
      </trkpt>
      <trkpt lat="44.41722" lon="5.69309">
        <ele>699</ele>
        <time>2019-03-23T15:08:36Z</time>
      </trkpt>
      <trkpt lat="44.41732" lon="5.69312">
        <ele>699</ele>
        <time>2019-03-23T15:08:37Z</time>
      </trkpt>
      <trkpt lat="44.4174" lon="5.69316">
        <ele>699</ele>
        <time>2019-03-23T15:08:38Z</time>
      </trkpt>
      <trkpt lat="44.41748" lon="5.69321">
        <ele>698</ele>
        <time>2019-03-23T15:08:39Z</time>
      </trkpt>
      <trkpt lat="44.41755" lon="5.69326">
        <ele>698</ele>
        <time>2019-03-23T15:08:40Z</time>
      </trkpt>
      <trkpt lat="44.41763" lon="5.69332">
        <ele>698</ele>
        <time>2019-03-23T15:08:41Z</time>
      </trkpt>
      <trkpt lat="44.4177" lon="5.69338">
        <ele>698</ele>
        <time>2019-03-23T15:08:42Z</time>
      </trkpt>
      <trkpt lat="44.41778" lon="5.69343">
        <ele>698</ele>
        <time>2019-03-23T15:08:43Z</time>
      </trkpt>
      <trkpt lat="44.41786" lon="5.69349">
        <ele>698</ele>
        <time>2019-03-23T15:08:44Z</time>
      </trkpt>
      <trkpt lat="44.41795" lon="5.69355">
        <ele>698</ele>
        <time>2019-03-23T15:08:45Z</time>
      </trkpt>
      <trkpt lat="44.41804" lon="5.6936">
        <ele>698</ele>
        <time>2019-03-23T15:08:46Z</time>
      </trkpt>
      <trkpt lat="44.41812" lon="5.69366">
        <ele>698</ele>
        <time>2019-03-23T15:08:47Z</time>
      </trkpt>
      <trkpt lat="44.4182" lon="5.69372">
        <ele>698</ele>
        <time>2019-03-23T15:08:48Z</time>
      </trkpt>
      <trkpt lat="44.41827" lon="5.69377">
        <ele>698</ele>
        <time>2019-03-23T15:08:49Z</time>
      </trkpt>
      <trkpt lat="44.41835" lon="5.69382">
        <ele>698</ele>
        <time>2019-03-23T15:08:50Z</time>
      </trkpt>
      <trkpt lat="44.41842" lon="5.69387">
        <ele>698</ele>
        <time>2019-03-23T15:08:51Z</time>
      </trkpt>
      <trkpt lat="44.41849" lon="5.69392">
        <ele>698</ele>
        <time>2019-03-23T15:08:52Z</time>
      </trkpt>
      <trkpt lat="44.41856" lon="5.69398">
        <ele>697</ele>
        <time>2019-03-23T15:08:53Z</time>
      </trkpt>
      <trkpt lat="44.41864" lon="5.69403">
        <ele>697</ele>
        <time>2019-03-23T15:08:54Z</time>
      </trkpt>
      <trkpt lat="44.41871" lon="5.69406">
        <ele>696</ele>
        <time>2019-03-23T15:08:55Z</time>
      </trkpt>
      <trkpt lat="44.41878" lon="5.69405">
        <ele>695</ele>
        <time>2019-03-23T15:08:56Z</time>
      </trkpt>
      <trkpt lat="44.41883" lon="5.69401">
        <ele>695</ele>
        <time>2019-03-23T15:08:57Z</time>
      </trkpt>
      <trkpt lat="44.41889" lon="5.69396">
        <ele>694</ele>
        <time>2019-03-23T15:08:58Z</time>
      </trkpt>
      <trkpt lat="44.41894" lon="5.69391">
        <ele>694</ele>
        <time>2019-03-23T15:08:59Z</time>
      </trkpt>
      <trkpt lat="44.419" lon="5.69388">
        <ele>694</ele>
        <time>2019-03-23T15:09:00Z</time>
      </trkpt>
      <trkpt lat="44.41907" lon="5.69387">
        <ele>694</ele>
        <time>2019-03-23T15:09:01Z</time>
      </trkpt>
      <trkpt lat="44.41914" lon="5.6939">
        <ele>694</ele>
        <time>2019-03-23T15:09:02Z</time>
      </trkpt>
      <trkpt lat="44.41919" lon="5.69398">
        <ele>694</ele>
        <time>2019-03-23T15:09:03Z</time>
      </trkpt>
      <trkpt lat="44.41924" lon="5.69406">
        <ele>694</ele>
        <time>2019-03-23T15:09:04Z</time>
      </trkpt>
      <trkpt lat="44.41929" lon="5.69414">
        <ele>694</ele>
        <time>2019-03-23T15:09:05Z</time>
      </trkpt>
      <trkpt lat="44.41935" lon="5.69423">
        <ele>693</ele>
        <time>2019-03-23T15:09:06Z</time>
      </trkpt>
      <trkpt lat="44.41941" lon="5.6943">
        <ele>692</ele>
        <time>2019-03-23T15:09:07Z</time>
      </trkpt>
      <trkpt lat="44.41947" lon="5.69438">
        <ele>691</ele>
        <time>2019-03-23T15:09:08Z</time>
      </trkpt>
      <trkpt lat="44.41953" lon="5.69445">
        <ele>691</ele>
        <time>2019-03-23T15:09:09Z</time>
      </trkpt>
      <trkpt lat="44.41958" lon="5.69453">
        <ele>691</ele>
        <time>2019-03-23T15:09:10Z</time>
      </trkpt>
      <trkpt lat="44.41963" lon="5.69462">
        <ele>690</ele>
        <time>2019-03-23T15:09:11Z</time>
      </trkpt>
      <trkpt lat="44.41969" lon="5.69471">
        <ele>690</ele>
        <time>2019-03-23T15:09:12Z</time>
      </trkpt>
      <trkpt lat="44.41973" lon="5.6948">
        <ele>689</ele>
        <time>2019-03-23T15:09:13Z</time>
      </trkpt>
      <trkpt lat="44.41979" lon="5.69489">
        <ele>688</ele>
        <time>2019-03-23T15:09:14Z</time>
      </trkpt>
      <trkpt lat="44.41984" lon="5.69499">
        <ele>688</ele>
        <time>2019-03-23T15:09:15Z</time>
      </trkpt>
      <trkpt lat="44.41989" lon="5.69509">
        <ele>688</ele>
        <time>2019-03-23T15:09:16Z</time>
      </trkpt>
      <trkpt lat="44.41995" lon="5.69518">
        <ele>687</ele>
        <time>2019-03-23T15:09:17Z</time>
      </trkpt>
      <trkpt lat="44.42" lon="5.69528">
        <ele>687</ele>
        <time>2019-03-23T15:09:18Z</time>
      </trkpt>
      <trkpt lat="44.42004" lon="5.69538">
        <ele>687</ele>
        <time>2019-03-23T15:09:19Z</time>
      </trkpt>
      <trkpt lat="44.42009" lon="5.69549">
        <ele>686</ele>
        <time>2019-03-23T15:09:20Z</time>
      </trkpt>
      <trkpt lat="44.42013" lon="5.6956">
        <ele>686</ele>
        <time>2019-03-23T15:09:21Z</time>
      </trkpt>
      <trkpt lat="44.42017" lon="5.69572">
        <ele>685</ele>
        <time>2019-03-23T15:09:22Z</time>
      </trkpt>
      <trkpt lat="44.42021" lon="5.69584">
        <ele>685</ele>
        <time>2019-03-23T15:09:23Z</time>
      </trkpt>
      <trkpt lat="44.42025" lon="5.69595">
        <ele>685</ele>
        <time>2019-03-23T15:09:24Z</time>
      </trkpt>
      <trkpt lat="44.42029" lon="5.69607">
        <ele>684</ele>
        <time>2019-03-23T15:09:25Z</time>
      </trkpt>
      <trkpt lat="44.42031" lon="5.6962">
        <ele>684</ele>
        <time>2019-03-23T15:09:26Z</time>
      </trkpt>
      <trkpt lat="44.42033" lon="5.69633">
        <ele>683</ele>
        <time>2019-03-23T15:09:27Z</time>
      </trkpt>
      <trkpt lat="44.42034" lon="5.69647">
        <ele>683</ele>
        <time>2019-03-23T15:09:28Z</time>
      </trkpt>
      <trkpt lat="44.42035" lon="5.6966">
        <ele>683</ele>
        <time>2019-03-23T15:09:29Z</time>
      </trkpt>
      <trkpt lat="44.42035" lon="5.69673">
        <ele>682</ele>
        <time>2019-03-23T15:09:30Z</time>
      </trkpt>
      <trkpt lat="44.42036" lon="5.69687">
        <ele>682</ele>
        <time>2019-03-23T15:09:31Z</time>
      </trkpt>
      <trkpt lat="44.42037" lon="5.69701">
        <ele>681</ele>
        <time>2019-03-23T15:09:32Z</time>
      </trkpt>
      <trkpt lat="44.42038" lon="5.69714">
        <ele>681</ele>
        <time>2019-03-23T15:09:33Z</time>
      </trkpt>
      <trkpt lat="44.42039" lon="5.69728">
        <ele>681</ele>
        <time>2019-03-23T15:09:34Z</time>
      </trkpt>
      <trkpt lat="44.42039" lon="5.69742">
        <ele>680</ele>
        <time>2019-03-23T15:09:35Z</time>
      </trkpt>
      <trkpt lat="44.4204" lon="5.69755">
        <ele>680</ele>
        <time>2019-03-23T15:09:36Z</time>
      </trkpt>
      <trkpt lat="44.42041" lon="5.69768">
        <ele>680</ele>
        <time>2019-03-23T15:09:37Z</time>
      </trkpt>
      <trkpt lat="44.42043" lon="5.69781">
        <ele>680</ele>
        <time>2019-03-23T15:09:38Z</time>
      </trkpt>
      <trkpt lat="44.42045" lon="5.69794">
        <ele>680</ele>
        <time>2019-03-23T15:09:39Z</time>
      </trkpt>
      <trkpt lat="44.42049" lon="5.69805">
        <ele>680</ele>
        <time>2019-03-23T15:09:40Z</time>
      </trkpt>
      <trkpt lat="44.42053" lon="5.69816">
        <ele>679</ele>
        <time>2019-03-23T15:09:41Z</time>
      </trkpt>
      <trkpt lat="44.42058" lon="5.69827">
        <ele>679</ele>
        <time>2019-03-23T15:09:42Z</time>
      </trkpt>
      <trkpt lat="44.42064" lon="5.69836">
        <ele>679</ele>
        <time>2019-03-23T15:09:43Z</time>
      </trkpt>
      <trkpt lat="44.4207" lon="5.69846">
        <ele>679</ele>
        <time>2019-03-23T15:09:44Z</time>
      </trkpt>
      <trkpt lat="44.42076" lon="5.69855">
        <ele>679</ele>
        <time>2019-03-23T15:09:45Z</time>
      </trkpt>
      <trkpt lat="44.42081" lon="5.69865">
        <ele>678</ele>
        <time>2019-03-23T15:09:46Z</time>
      </trkpt>
      <trkpt lat="44.42085" lon="5.69876">
        <ele>678</ele>
        <time>2019-03-23T15:09:47Z</time>
      </trkpt>
      <trkpt lat="44.42089" lon="5.69886">
        <ele>678</ele>
        <time>2019-03-23T15:09:48Z</time>
      </trkpt>
      <trkpt lat="44.42092" lon="5.69898">
        <ele>678</ele>
        <time>2019-03-23T15:09:49Z</time>
      </trkpt>
      <trkpt lat="44.42094" lon="5.69909">
        <ele>678</ele>
        <time>2019-03-23T15:09:50Z</time>
      </trkpt>
      <trkpt lat="44.42096" lon="5.6992">
        <ele>678</ele>
        <time>2019-03-23T15:09:51Z</time>
      </trkpt>
      <trkpt lat="44.42098" lon="5.69932">
        <ele>678</ele>
        <time>2019-03-23T15:09:52Z</time>
      </trkpt>
      <trkpt lat="44.42099" lon="5.69943">
        <ele>678</ele>
        <time>2019-03-23T15:09:53Z</time>
      </trkpt>
      <trkpt lat="44.42099" lon="5.69954">
        <ele>678</ele>
        <time>2019-03-23T15:09:54Z</time>
      </trkpt>
      <trkpt lat="44.42099" lon="5.69966">
        <ele>678</ele>
        <time>2019-03-23T15:09:55Z</time>
      </trkpt>
      <trkpt lat="44.42099" lon="5.69977">
        <ele>678</ele>
        <time>2019-03-23T15:09:56Z</time>
      </trkpt>
      <trkpt lat="44.421" lon="5.69988">
        <ele>678</ele>
        <time>2019-03-23T15:09:57Z</time>
      </trkpt>
      <trkpt lat="44.421" lon="5.69999">
        <ele>678</ele>
        <time>2019-03-23T15:09:58Z</time>
      </trkpt>
      <trkpt lat="44.42099" lon="5.7001">
        <ele>678</ele>
        <time>2019-03-23T15:09:59Z</time>
      </trkpt>
      <trkpt lat="44.42099" lon="5.70021">
        <ele>678</ele>
        <time>2019-03-23T15:10:00Z</time>
      </trkpt>
      <trkpt lat="44.42099" lon="5.70033">
        <ele>678</ele>
        <time>2019-03-23T15:10:01Z</time>
      </trkpt>
      <trkpt lat="44.42096" lon="5.70044">
        <ele>678</ele>
        <time>2019-03-23T15:10:02Z</time>
      </trkpt>
      <trkpt lat="44.42094" lon="5.70054">
        <ele>678</ele>
        <time>2019-03-23T15:10:03Z</time>
      </trkpt>
      <trkpt lat="44.42091" lon="5.70065">
        <ele>678</ele>
        <time>2019-03-23T15:10:04Z</time>
      </trkpt>
      <trkpt lat="44.42089" lon="5.70076">
        <ele>678</ele>
        <time>2019-03-23T15:10:05Z</time>
      </trkpt>
      <trkpt lat="44.42086" lon="5.70086">
        <ele>678</ele>
        <time>2019-03-23T15:10:06Z</time>
      </trkpt>
      <trkpt lat="44.42083" lon="5.70097">
        <ele>678</ele>
        <time>2019-03-23T15:10:07Z</time>
      </trkpt>
      <trkpt lat="44.42081" lon="5.70107">
        <ele>677</ele>
        <time>2019-03-23T15:10:08Z</time>
      </trkpt>
      <trkpt lat="44.42081" lon="5.70118">
        <ele>677</ele>
        <time>2019-03-23T15:10:09Z</time>
      </trkpt>
      <trkpt lat="44.4208" lon="5.70129">
        <ele>677</ele>
        <time>2019-03-23T15:10:10Z</time>
      </trkpt>
      <trkpt lat="44.42081" lon="5.70141">
        <ele>677</ele>
        <time>2019-03-23T15:10:11Z</time>
      </trkpt>
      <trkpt lat="44.42081" lon="5.70152">
        <ele>677</ele>
        <time>2019-03-23T15:10:12Z</time>
      </trkpt>
      <trkpt lat="44.42081" lon="5.70163">
        <ele>677</ele>
        <time>2019-03-23T15:10:13Z</time>
      </trkpt>
      <trkpt lat="44.42081" lon="5.70175">
        <ele>677</ele>
        <time>2019-03-23T15:10:14Z</time>
      </trkpt>
      <trkpt lat="44.42081" lon="5.70186">
        <ele>677</ele>
        <time>2019-03-23T15:10:15Z</time>
      </trkpt>
      <trkpt lat="44.42082" lon="5.70197">
        <ele>677</ele>
        <time>2019-03-23T15:10:16Z</time>
      </trkpt>
      <trkpt lat="44.42082" lon="5.70208">
        <ele>677</ele>
        <time>2019-03-23T15:10:17Z</time>
      </trkpt>
      <trkpt lat="44.42084" lon="5.7022">
        <ele>677</ele>
        <time>2019-03-23T15:10:18Z</time>
      </trkpt>
      <trkpt lat="44.42086" lon="5.7023">
        <ele>677</ele>
        <time>2019-03-23T15:10:19Z</time>
      </trkpt>
      <trkpt lat="44.42087" lon="5.70241">
        <ele>677</ele>
        <time>2019-03-23T15:10:20Z</time>
      </trkpt>
      <trkpt lat="44.4209" lon="5.70252">
        <ele>677</ele>
        <time>2019-03-23T15:10:21Z</time>
      </trkpt>
      <trkpt lat="44.42091" lon="5.70263">
        <ele>677</ele>
        <time>2019-03-23T15:10:22Z</time>
      </trkpt>
      <trkpt lat="44.42093" lon="5.70274">
        <ele>677</ele>
        <time>2019-03-23T15:10:23Z</time>
      </trkpt>
      <trkpt lat="44.42095" lon="5.70285">
        <ele>677</ele>
        <time>2019-03-23T15:10:24Z</time>
      </trkpt>
      <trkpt lat="44.42095" lon="5.70295">
        <ele>677</ele>
        <time>2019-03-23T15:10:25Z</time>
      </trkpt>
      <trkpt lat="44.42094" lon="5.70306">
        <ele>677</ele>
        <time>2019-03-23T15:10:26Z</time>
      </trkpt>
      <trkpt lat="44.42094" lon="5.70317">
        <ele>677</ele>
        <time>2019-03-23T15:10:27Z</time>
      </trkpt>
      <trkpt lat="44.42093" lon="5.70327">
        <ele>677</ele>
        <time>2019-03-23T15:10:28Z</time>
      </trkpt>
      <trkpt lat="44.42091" lon="5.70338">
        <ele>677</ele>
        <time>2019-03-23T15:10:29Z</time>
      </trkpt>
      <trkpt lat="44.42091" lon="5.70349">
        <ele>677</ele>
        <time>2019-03-23T15:10:30Z</time>
      </trkpt>
      <trkpt lat="44.4209" lon="5.7036">
        <ele>677</ele>
        <time>2019-03-23T15:10:31Z</time>
      </trkpt>
      <trkpt lat="44.42089" lon="5.7037">
        <ele>677</ele>
        <time>2019-03-23T15:10:32Z</time>
      </trkpt>
      <trkpt lat="44.42089" lon="5.70381">
        <ele>677</ele>
        <time>2019-03-23T15:10:33Z</time>
      </trkpt>
      <trkpt lat="44.42089" lon="5.70392">
        <ele>677</ele>
        <time>2019-03-23T15:10:34Z</time>
      </trkpt>
      <trkpt lat="44.42091" lon="5.70403">
        <ele>677</ele>
        <time>2019-03-23T15:10:35Z</time>
      </trkpt>
      <trkpt lat="44.42091" lon="5.70413">
        <ele>677</ele>
        <time>2019-03-23T15:10:36Z</time>
      </trkpt>
      <trkpt lat="44.42093" lon="5.70424">
        <ele>677</ele>
        <time>2019-03-23T15:10:37Z</time>
      </trkpt>
      <trkpt lat="44.42094" lon="5.70435">
        <ele>677</ele>
        <time>2019-03-23T15:10:38Z</time>
      </trkpt>
      <trkpt lat="44.42096" lon="5.70445">
        <ele>677</ele>
        <time>2019-03-23T15:10:39Z</time>
      </trkpt>
      <trkpt lat="44.42098" lon="5.70455">
        <ele>677</ele>
        <time>2019-03-23T15:10:40Z</time>
      </trkpt>
      <trkpt lat="44.42101" lon="5.70465">
        <ele>677</ele>
        <time>2019-03-23T15:10:41Z</time>
      </trkpt>
      <trkpt lat="44.42104" lon="5.70475">
        <ele>677</ele>
        <time>2019-03-23T15:10:42Z</time>
      </trkpt>
      <trkpt lat="44.42107" lon="5.70485">
        <ele>677</ele>
        <time>2019-03-23T15:10:43Z</time>
      </trkpt>
      <trkpt lat="44.4211" lon="5.70495">
        <ele>677</ele>
        <time>2019-03-23T15:10:44Z</time>
      </trkpt>
      <trkpt lat="44.42113" lon="5.70506">
        <ele>677</ele>
        <time>2019-03-23T15:10:45Z</time>
      </trkpt>
      <trkpt lat="44.42115" lon="5.70516">
        <ele>677</ele>
        <time>2019-03-23T15:10:46Z</time>
      </trkpt>
      <trkpt lat="44.42117" lon="5.70527">
        <ele>677</ele>
        <time>2019-03-23T15:10:47Z</time>
      </trkpt>
      <trkpt lat="44.42118" lon="5.70538">
        <ele>677</ele>
        <time>2019-03-23T15:10:48Z</time>
      </trkpt>
      <trkpt lat="44.42119" lon="5.70549">
        <ele>677</ele>
        <time>2019-03-23T15:10:49Z</time>
      </trkpt>
      <trkpt lat="44.4212" lon="5.7056">
        <ele>677</ele>
        <time>2019-03-23T15:10:50Z</time>
      </trkpt>
      <trkpt lat="44.4212" lon="5.70571">
        <ele>677</ele>
        <time>2019-03-23T15:10:51Z</time>
      </trkpt>
      <trkpt lat="44.42119" lon="5.70582">
        <ele>676</ele>
        <time>2019-03-23T15:10:52Z</time>
      </trkpt>
      <trkpt lat="44.4212" lon="5.70593">
        <ele>676</ele>
        <time>2019-03-23T15:10:53Z</time>
      </trkpt>
      <trkpt lat="44.4212" lon="5.70604">
        <ele>676</ele>
        <time>2019-03-23T15:10:54Z</time>
      </trkpt>
      <trkpt lat="44.42122" lon="5.70615">
        <ele>676</ele>
        <time>2019-03-23T15:10:55Z</time>
      </trkpt>
      <trkpt lat="44.42124" lon="5.70626">
        <ele>676</ele>
        <time>2019-03-23T15:10:56Z</time>
      </trkpt>
      <trkpt lat="44.42126" lon="5.70637">
        <ele>676</ele>
        <time>2019-03-23T15:10:57Z</time>
      </trkpt>
      <trkpt lat="44.42128" lon="5.70648">
        <ele>676</ele>
        <time>2019-03-23T15:10:58Z</time>
      </trkpt>
      <trkpt lat="44.42131" lon="5.70658">
        <ele>675</ele>
        <time>2019-03-23T15:10:59Z</time>
      </trkpt>
      <trkpt lat="44.42134" lon="5.70669">
        <ele>675</ele>
        <time>2019-03-23T15:11:00Z</time>
      </trkpt>
      <trkpt lat="44.42137" lon="5.7068">
        <ele>675</ele>
        <time>2019-03-23T15:11:01Z</time>
      </trkpt>
      <trkpt lat="44.42141" lon="5.70691">
        <ele>675</ele>
        <time>2019-03-23T15:11:02Z</time>
      </trkpt>
      <trkpt lat="44.42145" lon="5.70701">
        <ele>674</ele>
        <time>2019-03-23T15:11:03Z</time>
      </trkpt>
      <trkpt lat="44.4215" lon="5.70711">
        <ele>674</ele>
        <time>2019-03-23T15:11:04Z</time>
      </trkpt>
      <trkpt lat="44.42156" lon="5.7072">
        <ele>674</ele>
        <time>2019-03-23T15:11:05Z</time>
      </trkpt>
      <trkpt lat="44.42162" lon="5.70729">
        <ele>673</ele>
        <time>2019-03-23T15:11:06Z</time>
      </trkpt>
      <trkpt lat="44.42169" lon="5.70739">
        <ele>673</ele>
        <time>2019-03-23T15:11:07Z</time>
      </trkpt>
      <trkpt lat="44.42176" lon="5.70747">
        <ele>672</ele>
        <time>2019-03-23T15:11:08Z</time>
      </trkpt>
      <trkpt lat="44.42184" lon="5.70754">
        <ele>672</ele>
        <time>2019-03-23T15:11:09Z</time>
      </trkpt>
      <trkpt lat="44.42193" lon="5.70762">
        <ele>671</ele>
        <time>2019-03-23T15:11:10Z</time>
      </trkpt>
      <trkpt lat="44.42202" lon="5.70768">
        <ele>671</ele>
        <time>2019-03-23T15:11:11Z</time>
      </trkpt>
      <trkpt lat="44.42212" lon="5.70774">
        <ele>670</ele>
        <time>2019-03-23T15:11:12Z</time>
      </trkpt>
      <trkpt lat="44.42221" lon="5.70779">
        <ele>670</ele>
        <time>2019-03-23T15:11:13Z</time>
      </trkpt>
      <trkpt lat="44.42231" lon="5.70784">
        <ele>669</ele>
        <time>2019-03-23T15:11:14Z</time>
      </trkpt>
      <trkpt lat="44.42242" lon="5.70789">
        <ele>668</ele>
        <time>2019-03-23T15:11:15Z</time>
      </trkpt>
      <trkpt lat="44.42252" lon="5.70795">
        <ele>668</ele>
        <time>2019-03-23T15:11:16Z</time>
      </trkpt>
      <trkpt lat="44.42262" lon="5.70801">
        <ele>667</ele>
        <time>2019-03-23T15:11:17Z</time>
      </trkpt>
      <trkpt lat="44.42272" lon="5.70807">
        <ele>667</ele>
        <time>2019-03-23T15:11:18Z</time>
      </trkpt>
      <trkpt lat="44.42282" lon="5.70813">
        <ele>666</ele>
        <time>2019-03-23T15:11:19Z</time>
      </trkpt>
      <trkpt lat="44.42292" lon="5.70819">
        <ele>666</ele>
        <time>2019-03-23T15:11:20Z</time>
      </trkpt>
      <trkpt lat="44.42301" lon="5.70824">
        <ele>666</ele>
        <time>2019-03-23T15:11:21Z</time>
      </trkpt>
      <trkpt lat="44.4231" lon="5.70829">
        <ele>665</ele>
        <time>2019-03-23T15:11:22Z</time>
      </trkpt>
      <trkpt lat="44.4232" lon="5.70835">
        <ele>665</ele>
        <time>2019-03-23T15:11:23Z</time>
      </trkpt>
      <trkpt lat="44.42329" lon="5.7084">
        <ele>665</ele>
        <time>2019-03-23T15:11:24Z</time>
      </trkpt>
      <trkpt lat="44.42339" lon="5.70845">
        <ele>665</ele>
        <time>2019-03-23T15:11:25Z</time>
      </trkpt>
      <trkpt lat="44.42348" lon="5.7085">
        <ele>665</ele>
        <time>2019-03-23T15:11:26Z</time>
      </trkpt>
      <trkpt lat="44.42357" lon="5.70855">
        <ele>665</ele>
        <time>2019-03-23T15:11:27Z</time>
      </trkpt>
      <trkpt lat="44.42365" lon="5.7086">
        <ele>665</ele>
        <time>2019-03-23T15:11:28Z</time>
      </trkpt>
      <trkpt lat="44.42373" lon="5.70865">
        <ele>665</ele>
        <time>2019-03-23T15:11:29Z</time>
      </trkpt>
      <trkpt lat="44.42383" lon="5.70869">
        <ele>665</ele>
        <time>2019-03-23T15:11:30Z</time>
      </trkpt>
      <trkpt lat="44.4239" lon="5.70873">
        <ele>665</ele>
        <time>2019-03-23T15:11:31Z</time>
      </trkpt>
      <trkpt lat="44.42397" lon="5.70877">
        <ele>665</ele>
        <time>2019-03-23T15:11:32Z</time>
      </trkpt>
      <trkpt lat="44.42404" lon="5.70882">
        <ele>665</ele>
        <time>2019-03-23T15:11:33Z</time>
      </trkpt>
      <trkpt lat="44.42411" lon="5.70886">
        <ele>665</ele>
        <time>2019-03-23T15:11:34Z</time>
      </trkpt>
      <trkpt lat="44.42418" lon="5.7089">
        <ele>665</ele>
        <time>2019-03-23T15:11:35Z</time>
      </trkpt>
      <trkpt lat="44.42425" lon="5.70894">
        <ele>665</ele>
        <time>2019-03-23T15:11:36Z</time>
      </trkpt>
      <trkpt lat="44.42432" lon="5.70899">
        <ele>665</ele>
        <time>2019-03-23T15:11:37Z</time>
      </trkpt>
      <trkpt lat="44.42439" lon="5.70903">
        <ele>665</ele>
        <time>2019-03-23T15:11:38Z</time>
      </trkpt>
      <trkpt lat="44.42445" lon="5.70907">
        <ele>665</ele>
        <time>2019-03-23T15:11:39Z</time>
      </trkpt>
      <trkpt lat="44.42451" lon="5.70912">
        <ele>664</ele>
        <time>2019-03-23T15:11:40Z</time>
      </trkpt>
      <trkpt lat="44.42458" lon="5.70916">
        <ele>664</ele>
        <time>2019-03-23T15:11:41Z</time>
      </trkpt>
      <trkpt lat="44.42465" lon="5.7092">
        <ele>664</ele>
        <time>2019-03-23T15:11:42Z</time>
      </trkpt>
      <trkpt lat="44.42471" lon="5.70923">
        <ele>664</ele>
        <time>2019-03-23T15:11:43Z</time>
      </trkpt>
      <trkpt lat="44.42477" lon="5.70927">
        <ele>664</ele>
        <time>2019-03-23T15:11:44Z</time>
      </trkpt>
      <trkpt lat="44.42483" lon="5.70931">
        <ele>664</ele>
        <time>2019-03-23T15:11:45Z</time>
      </trkpt>
      <trkpt lat="44.42489" lon="5.70934">
        <ele>663</ele>
        <time>2019-03-23T15:11:46Z</time>
      </trkpt>
      <trkpt lat="44.42495" lon="5.70938">
        <ele>663</ele>
        <time>2019-03-23T15:11:47Z</time>
      </trkpt>
      <trkpt lat="44.42503" lon="5.70941">
        <ele>663</ele>
        <time>2019-03-23T15:11:48Z</time>
      </trkpt>
      <trkpt lat="44.42509" lon="5.70944">
        <ele>663</ele>
        <time>2019-03-23T15:11:49Z</time>
      </trkpt>
      <trkpt lat="44.42515" lon="5.70949">
        <ele>663</ele>
        <time>2019-03-23T15:11:50Z</time>
      </trkpt>
      <trkpt lat="44.42521" lon="5.70953">
        <ele>663</ele>
        <time>2019-03-23T15:11:51Z</time>
      </trkpt>
      <trkpt lat="44.42527" lon="5.70957">
        <ele>663</ele>
        <time>2019-03-23T15:11:52Z</time>
      </trkpt>
      <trkpt lat="44.42532" lon="5.70961">
        <ele>663</ele>
        <time>2019-03-23T15:11:53Z</time>
      </trkpt>
      <trkpt lat="44.42539" lon="5.70964">
        <ele>663</ele>
        <time>2019-03-23T15:11:54Z</time>
      </trkpt>
      <trkpt lat="44.42545" lon="5.70968">
        <ele>663</ele>
        <time>2019-03-23T15:11:55Z</time>
      </trkpt>
      <trkpt lat="44.42551" lon="5.70972">
        <ele>663</ele>
        <time>2019-03-23T15:11:56Z</time>
      </trkpt>
      <trkpt lat="44.42557" lon="5.70976">
        <ele>663</ele>
        <time>2019-03-23T15:11:57Z</time>
      </trkpt>
      <trkpt lat="44.42563" lon="5.7098">
        <ele>663</ele>
        <time>2019-03-23T15:11:58Z</time>
      </trkpt>
      <trkpt lat="44.42569" lon="5.70984">
        <ele>663</ele>
        <time>2019-03-23T15:11:59Z</time>
      </trkpt>
      <trkpt lat="44.42574" lon="5.70988">
        <ele>663</ele>
        <time>2019-03-23T15:12:00Z</time>
      </trkpt>
      <trkpt lat="44.4258" lon="5.70992">
        <ele>663</ele>
        <time>2019-03-23T15:12:01Z</time>
      </trkpt>
      <trkpt lat="44.42585" lon="5.70996">
        <ele>663</ele>
        <time>2019-03-23T15:12:02Z</time>
      </trkpt>
      <trkpt lat="44.42589" lon="5.71">
        <ele>663</ele>
        <time>2019-03-23T15:12:03Z</time>
      </trkpt>
      <trkpt lat="44.42591" lon="5.71006">
        <ele>663</ele>
        <time>2019-03-23T15:12:04Z</time>
      </trkpt>
      <trkpt lat="44.42591" lon="5.71012">
        <ele>663</ele>
        <time>2019-03-23T15:12:05Z</time>
      </trkpt>
      <trkpt lat="44.42588" lon="5.71017">
        <ele>663</ele>
        <time>2019-03-23T15:12:06Z</time>
      </trkpt>
      <trkpt lat="44.42583" lon="5.71019">
        <ele>663</ele>
        <time>2019-03-23T15:12:07Z</time>
      </trkpt>
      <trkpt lat="44.42577" lon="5.71019">
        <ele>663</ele>
        <time>2019-03-23T15:12:08Z</time>
      </trkpt>
      <trkpt lat="44.42572" lon="5.71018">
        <ele>663</ele>
        <time>2019-03-23T15:12:09Z</time>
      </trkpt>
      <trkpt lat="44.42566" lon="5.71018">
        <ele>662</ele>
        <time>2019-03-23T15:12:10Z</time>
      </trkpt>
      <trkpt lat="44.4256" lon="5.71018">
        <ele>662</ele>
        <time>2019-03-23T15:12:11Z</time>
      </trkpt>
      <trkpt lat="44.42553" lon="5.71018">
        <ele>662</ele>
        <time>2019-03-23T15:12:12Z</time>
      </trkpt>
      <trkpt lat="44.42547" lon="5.71019">
        <ele>661</ele>
        <time>2019-03-23T15:12:13Z</time>
      </trkpt>
      <trkpt lat="44.42541" lon="5.7102">
        <ele>661</ele>
        <time>2019-03-23T15:12:14Z</time>
      </trkpt>
      <trkpt lat="44.42535" lon="5.71022">
        <ele>661</ele>
        <time>2019-03-23T15:12:15Z</time>
      </trkpt>
      <trkpt lat="44.42529" lon="5.71023">
        <ele>660</ele>
        <time>2019-03-23T15:12:16Z</time>
      </trkpt>
      <trkpt lat="44.42523" lon="5.71025">
        <ele>660</ele>
        <time>2019-03-23T15:12:17Z</time>
      </trkpt>
      <trkpt lat="44.42516" lon="5.71026">
        <ele>660</ele>
        <time>2019-03-23T15:12:18Z</time>
      </trkpt>
      <trkpt lat="44.4251" lon="5.71026">
        <ele>660</ele>
        <time>2019-03-23T15:12:19Z</time>
      </trkpt>
      <trkpt lat="44.42504" lon="5.71026">
        <ele>660</ele>
        <time>2019-03-23T15:12:20Z</time>
      </trkpt>
      <trkpt lat="44.42498" lon="5.71025">
        <ele>660</ele>
        <time>2019-03-23T15:12:21Z</time>
      </trkpt>
      <trkpt lat="44.42492" lon="5.71023">
        <ele>660</ele>
        <time>2019-03-23T15:12:22Z</time>
      </trkpt>
      <trkpt lat="44.42487" lon="5.7102">
        <ele>660</ele>
        <time>2019-03-23T15:12:23Z</time>
      </trkpt>
      <trkpt lat="44.42481" lon="5.71015">
        <ele>660</ele>
        <time>2019-03-23T15:12:24Z</time>
      </trkpt>
      <trkpt lat="44.42476" lon="5.7101">
        <ele>660</ele>
        <time>2019-03-23T15:12:25Z</time>
      </trkpt>
      <trkpt lat="44.4247" lon="5.71005">
        <ele>660</ele>
        <time>2019-03-23T15:12:26Z</time>
      </trkpt>
      <trkpt lat="44.42465" lon="5.70999">
        <ele>659</ele>
        <time>2019-03-23T15:12:27Z</time>
      </trkpt>
      <trkpt lat="44.42459" lon="5.70994">
        <ele>659</ele>
        <time>2019-03-23T15:12:28Z</time>
      </trkpt>
      <trkpt lat="44.42454" lon="5.7099">
        <ele>659</ele>
        <time>2019-03-23T15:12:29Z</time>
      </trkpt>
      <trkpt lat="44.42448" lon="5.70985">
        <ele>658</ele>
        <time>2019-03-23T15:12:30Z</time>
      </trkpt>
      <trkpt lat="44.42442" lon="5.70981">
        <ele>657</ele>
        <time>2019-03-23T15:12:31Z</time>
      </trkpt>
      <trkpt lat="44.42435" lon="5.70977">
        <ele>657</ele>
        <time>2019-03-23T15:12:32Z</time>
      </trkpt>
      <trkpt lat="44.42429" lon="5.70975">
        <ele>657</ele>
        <time>2019-03-23T15:12:33Z</time>
      </trkpt>
      <trkpt lat="44.42423" lon="5.70973">
        <ele>656</ele>
        <time>2019-03-23T15:12:34Z</time>
      </trkpt>
      <trkpt lat="44.42416" lon="5.70972">
        <ele>656</ele>
        <time>2019-03-23T15:12:35Z</time>
      </trkpt>
      <trkpt lat="44.4241" lon="5.70971">
        <ele>655</ele>
        <time>2019-03-23T15:12:36Z</time>
      </trkpt>
      <trkpt lat="44.42403" lon="5.7097">
        <ele>655</ele>
        <time>2019-03-23T15:12:37Z</time>
      </trkpt>
      <trkpt lat="44.42396" lon="5.70971">
        <ele>654</ele>
        <time>2019-03-23T15:12:38Z</time>
      </trkpt>
      <trkpt lat="44.42389" lon="5.70972">
        <ele>654</ele>
        <time>2019-03-23T15:12:39Z</time>
      </trkpt>
      <trkpt lat="44.42381" lon="5.70973">
        <ele>653</ele>
        <time>2019-03-23T15:12:40Z</time>
      </trkpt>
      <trkpt lat="44.42373" lon="5.70974">
        <ele>653</ele>
        <time>2019-03-23T15:12:41Z</time>
      </trkpt>
      <trkpt lat="44.42365" lon="5.70976">
        <ele>653</ele>
        <time>2019-03-23T15:12:42Z</time>
      </trkpt>
      <trkpt lat="44.42357" lon="5.70977">
        <ele>652</ele>
        <time>2019-03-23T15:12:43Z</time>
      </trkpt>
      <trkpt lat="44.42348" lon="5.70978">
        <ele>652</ele>
        <time>2019-03-23T15:12:44Z</time>
      </trkpt>
      <trkpt lat="44.4234" lon="5.7098">
        <ele>651</ele>
        <time>2019-03-23T15:12:45Z</time>
      </trkpt>
      <trkpt lat="44.42331" lon="5.70981">
        <ele>651</ele>
        <time>2019-03-23T15:12:46Z</time>
      </trkpt>
      <trkpt lat="44.42323" lon="5.70983">
        <ele>651</ele>
        <time>2019-03-23T15:12:47Z</time>
      </trkpt>
      <trkpt lat="44.42314" lon="5.70984">
        <ele>650</ele>
        <time>2019-03-23T15:12:48Z</time>
      </trkpt>
      <trkpt lat="44.42306" lon="5.70986">
        <ele>650</ele>
        <time>2019-03-23T15:12:49Z</time>
      </trkpt>
      <trkpt lat="44.42297" lon="5.70988">
        <ele>650</ele>
        <time>2019-03-23T15:12:50Z</time>
      </trkpt>
      <trkpt lat="44.42289" lon="5.70991">
        <ele>649</ele>
        <time>2019-03-23T15:12:51Z</time>
      </trkpt>
      <trkpt lat="44.42281" lon="5.70993">
        <ele>649</ele>
        <time>2019-03-23T15:12:52Z</time>
      </trkpt>
      <trkpt lat="44.42273" lon="5.70996">
        <ele>649</ele>
        <time>2019-03-23T15:12:53Z</time>
      </trkpt>
      <trkpt lat="44.42265" lon="5.70998">
        <ele>649</ele>
        <time>2019-03-23T15:12:54Z</time>
      </trkpt>
      <trkpt lat="44.42257" lon="5.71">
        <ele>649</ele>
        <time>2019-03-23T15:12:55Z</time>
      </trkpt>
      <trkpt lat="44.42248" lon="5.71003">
        <ele>649</ele>
        <time>2019-03-23T15:12:56Z</time>
      </trkpt>
      <trkpt lat="44.4224" lon="5.71005">
        <ele>649</ele>
        <time>2019-03-23T15:12:57Z</time>
      </trkpt>
      <trkpt lat="44.42232" lon="5.71007">
        <ele>649</ele>
        <time>2019-03-23T15:12:58Z</time>
      </trkpt>
      <trkpt lat="44.42224" lon="5.71009">
        <ele>648</ele>
        <time>2019-03-23T15:12:59Z</time>
      </trkpt>
      <trkpt lat="44.42216" lon="5.7101">
        <ele>648</ele>
        <time>2019-03-23T15:13:00Z</time>
      </trkpt>
      <trkpt lat="44.42208" lon="5.71011">
        <ele>648</ele>
        <time>2019-03-23T15:13:01Z</time>
      </trkpt>
      <trkpt lat="44.422" lon="5.71011">
        <ele>648</ele>
        <time>2019-03-23T15:13:02Z</time>
      </trkpt>
      <trkpt lat="44.42192" lon="5.71011">
        <ele>648</ele>
        <time>2019-03-23T15:13:03Z</time>
      </trkpt>
      <trkpt lat="44.42184" lon="5.71011">
        <ele>648</ele>
        <time>2019-03-23T15:13:04Z</time>
      </trkpt>
      <trkpt lat="44.42175" lon="5.71011">
        <ele>648</ele>
        <time>2019-03-23T15:13:05Z</time>
      </trkpt>
      <trkpt lat="44.42167" lon="5.7101">
        <ele>648</ele>
        <time>2019-03-23T15:13:06Z</time>
      </trkpt>
      <trkpt lat="44.42159" lon="5.71009">
        <ele>648</ele>
        <time>2019-03-23T15:13:07Z</time>
      </trkpt>
      <trkpt lat="44.42151" lon="5.71008">
        <ele>648</ele>
        <time>2019-03-23T15:13:08Z</time>
      </trkpt>
      <trkpt lat="44.42143" lon="5.71007">
        <ele>648</ele>
        <time>2019-03-23T15:13:09Z</time>
      </trkpt>
      <trkpt lat="44.42136" lon="5.71007">
        <ele>647</ele>
        <time>2019-03-23T15:13:10Z</time>
      </trkpt>
      <trkpt lat="44.42128" lon="5.71006">
        <ele>647</ele>
        <time>2019-03-23T15:13:11Z</time>
      </trkpt>
      <trkpt lat="44.4212" lon="5.71006">
        <ele>647</ele>
        <time>2019-03-23T15:13:12Z</time>
      </trkpt>
      <trkpt lat="44.42112" lon="5.71006">
        <ele>647</ele>
        <time>2019-03-23T15:13:13Z</time>
      </trkpt>
      <trkpt lat="44.42104" lon="5.71005">
        <ele>647</ele>
        <time>2019-03-23T15:13:14Z</time>
      </trkpt>
      <trkpt lat="44.42097" lon="5.71005">
        <ele>647</ele>
        <time>2019-03-23T15:13:15Z</time>
      </trkpt>
      <trkpt lat="44.42089" lon="5.71004">
        <ele>647</ele>
        <time>2019-03-23T15:13:16Z</time>
      </trkpt>
      <trkpt lat="44.42082" lon="5.71004">
        <ele>647</ele>
        <time>2019-03-23T15:13:17Z</time>
      </trkpt>
      <trkpt lat="44.42075" lon="5.71004">
        <ele>647</ele>
        <time>2019-03-23T15:13:18Z</time>
      </trkpt>
      <trkpt lat="44.42067" lon="5.71003">
        <ele>647</ele>
        <time>2019-03-23T15:13:19Z</time>
      </trkpt>
      <trkpt lat="44.4206" lon="5.71003">
        <ele>647</ele>
        <time>2019-03-23T15:13:20Z</time>
      </trkpt>
      <trkpt lat="44.42054" lon="5.71003">
        <ele>647</ele>
        <time>2019-03-23T15:13:21Z</time>
      </trkpt>
      <trkpt lat="44.42047" lon="5.71003">
        <ele>647</ele>
        <time>2019-03-23T15:13:22Z</time>
      </trkpt>
      <trkpt lat="44.4204" lon="5.71003">
        <ele>647</ele>
        <time>2019-03-23T15:13:23Z</time>
      </trkpt>
      <trkpt lat="44.42033" lon="5.71004">
        <ele>647</ele>
        <time>2019-03-23T15:13:24Z</time>
      </trkpt>
      <trkpt lat="44.42027" lon="5.71005">
        <ele>647</ele>
        <time>2019-03-23T15:13:25Z</time>
      </trkpt>
      <trkpt lat="44.4202" lon="5.71007">
        <ele>647</ele>
        <time>2019-03-23T15:13:26Z</time>
      </trkpt>
      <trkpt lat="44.42013" lon="5.71009">
        <ele>647</ele>
        <time>2019-03-23T15:13:27Z</time>
      </trkpt>
      <trkpt lat="44.42006" lon="5.71011">
        <ele>647</ele>
        <time>2019-03-23T15:13:28Z</time>
      </trkpt>
      <trkpt lat="44.42" lon="5.71014">
        <ele>646</ele>
        <time>2019-03-23T15:13:29Z</time>
      </trkpt>
      <trkpt lat="44.41993" lon="5.71017">
        <ele>646</ele>
        <time>2019-03-23T15:13:30Z</time>
      </trkpt>
      <trkpt lat="44.41986" lon="5.7102">
        <ele>646</ele>
        <time>2019-03-23T15:13:31Z</time>
      </trkpt>
      <trkpt lat="44.4198" lon="5.71024">
        <ele>646</ele>
        <time>2019-03-23T15:13:32Z</time>
      </trkpt>
      <trkpt lat="44.41973" lon="5.71028">
        <ele>646</ele>
        <time>2019-03-23T15:13:33Z</time>
      </trkpt>
      <trkpt lat="44.41967" lon="5.71033">
        <ele>645</ele>
        <time>2019-03-23T15:13:34Z</time>
      </trkpt>
      <trkpt lat="44.41961" lon="5.71037">
        <ele>645</ele>
        <time>2019-03-23T15:13:35Z</time>
      </trkpt>
      <trkpt lat="44.41955" lon="5.71042">
        <ele>645</ele>
        <time>2019-03-23T15:13:36Z</time>
      </trkpt>
      <trkpt lat="44.41949" lon="5.71047">
        <ele>645</ele>
        <time>2019-03-23T15:13:37Z</time>
      </trkpt>
      <trkpt lat="44.41943" lon="5.71053">
        <ele>645</ele>
        <time>2019-03-23T15:13:38Z</time>
      </trkpt>
      <trkpt lat="44.41937" lon="5.71058">
        <ele>645</ele>
        <time>2019-03-23T15:13:39Z</time>
      </trkpt>
      <trkpt lat="44.4193" lon="5.71064">
        <ele>644</ele>
        <time>2019-03-23T15:13:40Z</time>
      </trkpt>
      <trkpt lat="44.41924" lon="5.71069">
        <ele>644</ele>
        <time>2019-03-23T15:13:41Z</time>
      </trkpt>
      <trkpt lat="44.41918" lon="5.71074">
        <ele>644</ele>
        <time>2019-03-23T15:13:42Z</time>
      </trkpt>
      <trkpt lat="44.41912" lon="5.7108">
        <ele>644</ele>
        <time>2019-03-23T15:13:43Z</time>
      </trkpt>
      <trkpt lat="44.41906" lon="5.71085">
        <ele>644</ele>
        <time>2019-03-23T15:13:44Z</time>
      </trkpt>
      <trkpt lat="44.419" lon="5.7109">
        <ele>643</ele>
        <time>2019-03-23T15:13:45Z</time>
      </trkpt>
      <trkpt lat="44.41894" lon="5.71095">
        <ele>643</ele>
        <time>2019-03-23T15:13:46Z</time>
      </trkpt>
      <trkpt lat="44.41888" lon="5.71101">
        <ele>643</ele>
        <time>2019-03-23T15:13:47Z</time>
      </trkpt>
      <trkpt lat="44.41881" lon="5.71107">
        <ele>643</ele>
        <time>2019-03-23T15:13:48Z</time>
      </trkpt>
      <trkpt lat="44.41875" lon="5.71113">
        <ele>643</ele>
        <time>2019-03-23T15:13:49Z</time>
      </trkpt>
      <trkpt lat="44.41869" lon="5.71118">
        <ele>643</ele>
        <time>2019-03-23T15:13:50Z</time>
      </trkpt>
      <trkpt lat="44.41863" lon="5.71124">
        <ele>643</ele>
        <time>2019-03-23T15:13:51Z</time>
      </trkpt>
      <trkpt lat="44.41857" lon="5.71129">
        <ele>643</ele>
        <time>2019-03-23T15:13:52Z</time>
      </trkpt>
      <trkpt lat="44.41851" lon="5.71134">
        <ele>643</ele>
        <time>2019-03-23T15:13:53Z</time>
      </trkpt>
      <trkpt lat="44.41846" lon="5.71139">
        <ele>643</ele>
        <time>2019-03-23T15:13:54Z</time>
      </trkpt>
      <trkpt lat="44.4184" lon="5.71144">
        <ele>643</ele>
        <time>2019-03-23T15:13:55Z</time>
      </trkpt>
      <trkpt lat="44.41834" lon="5.71149">
        <ele>643</ele>
        <time>2019-03-23T15:13:56Z</time>
      </trkpt>
      <trkpt lat="44.41828" lon="5.71155">
        <ele>643</ele>
        <time>2019-03-23T15:13:57Z</time>
      </trkpt>
      <trkpt lat="44.41823" lon="5.7116">
        <ele>643</ele>
        <time>2019-03-23T15:13:58Z</time>
      </trkpt>
      <trkpt lat="44.41817" lon="5.71165">
        <ele>643</ele>
        <time>2019-03-23T15:13:59Z</time>
      </trkpt>
      <trkpt lat="44.41811" lon="5.7117">
        <ele>643</ele>
        <time>2019-03-23T15:14:00Z</time>
      </trkpt>
      <trkpt lat="44.41805" lon="5.71175">
        <ele>643</ele>
        <time>2019-03-23T15:14:01Z</time>
      </trkpt>
      <trkpt lat="44.418" lon="5.7118">
        <ele>643</ele>
        <time>2019-03-23T15:14:02Z</time>
      </trkpt>
      <trkpt lat="44.41794" lon="5.71185">
        <ele>643</ele>
        <time>2019-03-23T15:14:03Z</time>
      </trkpt>
      <trkpt lat="44.41788" lon="5.7119">
        <ele>643</ele>
        <time>2019-03-23T15:14:04Z</time>
      </trkpt>
      <trkpt lat="44.41782" lon="5.71194">
        <ele>643</ele>
        <time>2019-03-23T15:14:05Z</time>
      </trkpt>
      <trkpt lat="44.41776" lon="5.71198">
        <ele>643</ele>
        <time>2019-03-23T15:14:06Z</time>
      </trkpt>
      <trkpt lat="44.41769" lon="5.71202">
        <ele>643</ele>
        <time>2019-03-23T15:14:07Z</time>
      </trkpt>
      <trkpt lat="44.41763" lon="5.71204">
        <ele>643</ele>
        <time>2019-03-23T15:14:08Z</time>
      </trkpt>
      <trkpt lat="44.41757" lon="5.71206">
        <ele>643</ele>
        <time>2019-03-23T15:14:09Z</time>
      </trkpt>
      <trkpt lat="44.41751" lon="5.71207">
        <ele>643</ele>
        <time>2019-03-23T15:14:10Z</time>
      </trkpt>
      <trkpt lat="44.41745" lon="5.71207">
        <ele>643</ele>
        <time>2019-03-23T15:14:11Z</time>
      </trkpt>
      <trkpt lat="44.41739" lon="5.71207">
        <ele>643</ele>
        <time>2019-03-23T15:14:12Z</time>
      </trkpt>
      <trkpt lat="44.41733" lon="5.71206">
        <ele>643</ele>
        <time>2019-03-23T15:14:13Z</time>
      </trkpt>
      <trkpt lat="44.41727" lon="5.71205">
        <ele>643</ele>
        <time>2019-03-23T15:14:14Z</time>
      </trkpt>
      <trkpt lat="44.41721" lon="5.71203">
        <ele>643</ele>
        <time>2019-03-23T15:14:15Z</time>
      </trkpt>
      <trkpt lat="44.41716" lon="5.71201">
        <ele>643</ele>
        <time>2019-03-23T15:14:16Z</time>
      </trkpt>
      <trkpt lat="44.4171" lon="5.71199">
        <ele>643</ele>
        <time>2019-03-23T15:14:17Z</time>
      </trkpt>
      <trkpt lat="44.41704" lon="5.71197">
        <ele>643</ele>
        <time>2019-03-23T15:14:18Z</time>
      </trkpt>
      <trkpt lat="44.41698" lon="5.71195">
        <ele>643</ele>
        <time>2019-03-23T15:14:19Z</time>
      </trkpt>
      <trkpt lat="44.41692" lon="5.71193">
        <ele>643</ele>
        <time>2019-03-23T15:14:20Z</time>
      </trkpt>
      <trkpt lat="44.41686" lon="5.71191">
        <ele>643</ele>
        <time>2019-03-23T15:14:21Z</time>
      </trkpt>
      <trkpt lat="44.4168" lon="5.7119">
        <ele>643</ele>
        <time>2019-03-23T15:14:22Z</time>
      </trkpt>
      <trkpt lat="44.41673" lon="5.71189">
        <ele>643</ele>
        <time>2019-03-23T15:14:23Z</time>
      </trkpt>
      <trkpt lat="44.41666" lon="5.71189">
        <ele>643</ele>
        <time>2019-03-23T15:14:24Z</time>
      </trkpt>
      <trkpt lat="44.4166" lon="5.7119">
        <ele>643</ele>
        <time>2019-03-23T15:14:25Z</time>
      </trkpt>
      <trkpt lat="44.41653" lon="5.7119">
        <ele>643</ele>
        <time>2019-03-23T15:14:26Z</time>
      </trkpt>
      <trkpt lat="44.41646" lon="5.71191">
        <ele>643</ele>
        <time>2019-03-23T15:14:27Z</time>
      </trkpt>
      <trkpt lat="44.41639" lon="5.71192">
        <ele>643</ele>
        <time>2019-03-23T15:14:28Z</time>
      </trkpt>
      <trkpt lat="44.41632" lon="5.71193">
        <ele>643</ele>
        <time>2019-03-23T15:14:29Z</time>
      </trkpt>
      <trkpt lat="44.41626" lon="5.71194">
        <ele>643</ele>
        <time>2019-03-23T15:14:30Z</time>
      </trkpt>
      <trkpt lat="44.41619" lon="5.71195">
        <ele>643</ele>
        <time>2019-03-23T15:14:31Z</time>
      </trkpt>
      <trkpt lat="44.41612" lon="5.71197">
        <ele>643</ele>
        <time>2019-03-23T15:14:32Z</time>
      </trkpt>
      <trkpt lat="44.41605" lon="5.71198">
        <ele>643</ele>
        <time>2019-03-23T15:14:33Z</time>
      </trkpt>
      <trkpt lat="44.41599" lon="5.71199">
        <ele>643</ele>
        <time>2019-03-23T15:14:34Z</time>
      </trkpt>
      <trkpt lat="44.41592" lon="5.712">
        <ele>643</ele>
        <time>2019-03-23T15:14:35Z</time>
      </trkpt>
      <trkpt lat="44.41585" lon="5.71201">
        <ele>643</ele>
        <time>2019-03-23T15:14:36Z</time>
      </trkpt>
      <trkpt lat="44.41579" lon="5.71202">
        <ele>643</ele>
        <time>2019-03-23T15:14:37Z</time>
      </trkpt>
      <trkpt lat="44.41572" lon="5.71203">
        <ele>643</ele>
        <time>2019-03-23T15:14:38Z</time>
      </trkpt>
      <trkpt lat="44.41566" lon="5.71204">
        <ele>643</ele>
        <time>2019-03-23T15:14:39Z</time>
      </trkpt>
      <trkpt lat="44.4156" lon="5.71204">
        <ele>643</ele>
        <time>2019-03-23T15:14:40Z</time>
      </trkpt>
      <trkpt lat="44.41553" lon="5.71205">
        <ele>643</ele>
        <time>2019-03-23T15:14:41Z</time>
      </trkpt>
      <trkpt lat="44.41547" lon="5.71206">
        <ele>643</ele>
        <time>2019-03-23T15:14:42Z</time>
      </trkpt>
      <trkpt lat="44.41541" lon="5.71207">
        <ele>643</ele>
        <time>2019-03-23T15:14:43Z</time>
      </trkpt>
      <trkpt lat="44.41534" lon="5.71208">
        <ele>643</ele>
        <time>2019-03-23T15:14:44Z</time>
      </trkpt>
      <trkpt lat="44.41527" lon="5.71209">
        <ele>643</ele>
        <time>2019-03-23T15:14:45Z</time>
      </trkpt>
      <trkpt lat="44.41521" lon="5.7121">
        <ele>643</ele>
        <time>2019-03-23T15:14:46Z</time>
      </trkpt>
      <trkpt lat="44.41514" lon="5.71211">
        <ele>643</ele>
        <time>2019-03-23T15:14:47Z</time>
      </trkpt>
      <trkpt lat="44.41507" lon="5.71211">
        <ele>643</ele>
        <time>2019-03-23T15:14:48Z</time>
      </trkpt>
      <trkpt lat="44.41501" lon="5.71212">
        <ele>643</ele>
        <time>2019-03-23T15:14:49Z</time>
      </trkpt>
      <trkpt lat="44.41494" lon="5.71213">
        <ele>643</ele>
        <time>2019-03-23T15:14:50Z</time>
      </trkpt>
      <trkpt lat="44.41487" lon="5.71214">
        <ele>643</ele>
        <time>2019-03-23T15:14:51Z</time>
      </trkpt>
      <trkpt lat="44.41481" lon="5.71215">
        <ele>643</ele>
        <time>2019-03-23T15:14:52Z</time>
      </trkpt>
      <trkpt lat="44.41474" lon="5.71216">
        <ele>643</ele>
        <time>2019-03-23T15:14:53Z</time>
      </trkpt>
      <trkpt lat="44.41467" lon="5.71218">
        <ele>643</ele>
        <time>2019-03-23T15:14:54Z</time>
      </trkpt>
      <trkpt lat="44.41461" lon="5.71219">
        <ele>643</ele>
        <time>2019-03-23T15:14:55Z</time>
      </trkpt>
      <trkpt lat="44.41454" lon="5.7122">
        <ele>643</ele>
        <time>2019-03-23T15:14:56Z</time>
      </trkpt>
      <trkpt lat="44.41447" lon="5.71222">
        <ele>643</ele>
        <time>2019-03-23T15:14:57Z</time>
      </trkpt>
      <trkpt lat="44.4144" lon="5.71223">
        <ele>643</ele>
        <time>2019-03-23T15:14:58Z</time>
      </trkpt>
      <trkpt lat="44.41433" lon="5.71225">
        <ele>643</ele>
        <time>2019-03-23T15:14:59Z</time>
      </trkpt>
      <trkpt lat="44.41426" lon="5.71227">
        <ele>643</ele>
        <time>2019-03-23T15:15:00Z</time>
      </trkpt>
      <trkpt lat="44.4142" lon="5.71229">
        <ele>643</ele>
        <time>2019-03-23T15:15:01Z</time>
      </trkpt>
      <trkpt lat="44.41412" lon="5.71231">
        <ele>643</ele>
        <time>2019-03-23T15:15:02Z</time>
      </trkpt>
      <trkpt lat="44.41406" lon="5.71233">
        <ele>643</ele>
        <time>2019-03-23T15:15:03Z</time>
      </trkpt>
      <trkpt lat="44.41399" lon="5.71235">
        <ele>643</ele>
        <time>2019-03-23T15:15:04Z</time>
      </trkpt>
      <trkpt lat="44.41392" lon="5.71237">
        <ele>643</ele>
        <time>2019-03-23T15:15:05Z</time>
      </trkpt>
      <trkpt lat="44.41385" lon="5.71239">
        <ele>643</ele>
        <time>2019-03-23T15:15:06Z</time>
      </trkpt>
      <trkpt lat="44.41378" lon="5.71241">
        <ele>643</ele>
        <time>2019-03-23T15:15:07Z</time>
      </trkpt>
      <trkpt lat="44.41372" lon="5.71243">
        <ele>643</ele>
        <time>2019-03-23T15:15:08Z</time>
      </trkpt>
      <trkpt lat="44.41365" lon="5.71245">
        <ele>643</ele>
        <time>2019-03-23T15:15:09Z</time>
      </trkpt>
      <trkpt lat="44.41359" lon="5.71247">
        <ele>643</ele>
        <time>2019-03-23T15:15:10Z</time>
      </trkpt>
      <trkpt lat="44.41352" lon="5.71249">
        <ele>643</ele>
        <time>2019-03-23T15:15:11Z</time>
      </trkpt>
      <trkpt lat="44.41345" lon="5.71252">
        <ele>643</ele>
        <time>2019-03-23T15:15:12Z</time>
      </trkpt>
      <trkpt lat="44.41339" lon="5.71254">
        <ele>643</ele>
        <time>2019-03-23T15:15:13Z</time>
      </trkpt>
      <trkpt lat="44.41333" lon="5.71257">
        <ele>643</ele>
        <time>2019-03-23T15:15:14Z</time>
      </trkpt>
      <trkpt lat="44.41326" lon="5.71261">
        <ele>643</ele>
        <time>2019-03-23T15:15:15Z</time>
      </trkpt>
      <trkpt lat="44.4132" lon="5.71265">
        <ele>643</ele>
        <time>2019-03-23T15:15:16Z</time>
      </trkpt>
      <trkpt lat="44.41314" lon="5.7127">
        <ele>643</ele>
        <time>2019-03-23T15:15:17Z</time>
      </trkpt>
      <trkpt lat="44.41309" lon="5.71274">
        <ele>643</ele>
        <time>2019-03-23T15:15:18Z</time>
      </trkpt>
      <trkpt lat="44.41302" lon="5.71279">
        <ele>643</ele>
        <time>2019-03-23T15:15:19Z</time>
      </trkpt>
      <trkpt lat="44.41296" lon="5.71284">
        <ele>643</ele>
        <time>2019-03-23T15:15:20Z</time>
      </trkpt>
      <trkpt lat="44.41291" lon="5.71289">
        <ele>643</ele>
        <time>2019-03-23T15:15:21Z</time>
      </trkpt>
      <trkpt lat="44.41285" lon="5.71294">
        <ele>643</ele>
        <time>2019-03-23T15:15:22Z</time>
      </trkpt>
      <trkpt lat="44.41279" lon="5.713">
        <ele>643</ele>
        <time>2019-03-23T15:15:23Z</time>
      </trkpt>
      <trkpt lat="44.41273" lon="5.71304">
        <ele>643</ele>
        <time>2019-03-23T15:15:24Z</time>
      </trkpt>
      <trkpt lat="44.41267" lon="5.71309">
        <ele>643</ele>
        <time>2019-03-23T15:15:25Z</time>
      </trkpt>
      <trkpt lat="44.41262" lon="5.71314">
        <ele>643</ele>
        <time>2019-03-23T15:15:26Z</time>
      </trkpt>
      <trkpt lat="44.41256" lon="5.71319">
        <ele>643</ele>
        <time>2019-03-23T15:15:27Z</time>
      </trkpt>
      <trkpt lat="44.4125" lon="5.71323">
        <ele>643</ele>
        <time>2019-03-23T15:15:28Z</time>
      </trkpt>
      <trkpt lat="44.41244" lon="5.71328">
        <ele>643</ele>
        <time>2019-03-23T15:15:29Z</time>
      </trkpt>
      <trkpt lat="44.41238" lon="5.71333">
        <ele>643</ele>
        <time>2019-03-23T15:15:30Z</time>
      </trkpt>
      <trkpt lat="44.41233" lon="5.71337">
        <ele>643</ele>
        <time>2019-03-23T15:15:31Z</time>
      </trkpt>
      <trkpt lat="44.41227" lon="5.71342">
        <ele>643</ele>
        <time>2019-03-23T15:15:32Z</time>
      </trkpt>
      <trkpt lat="44.41221" lon="5.71347">
        <ele>643</ele>
        <time>2019-03-23T15:15:33Z</time>
      </trkpt>
      <trkpt lat="44.41215" lon="5.71351">
        <ele>643</ele>
        <time>2019-03-23T15:15:34Z</time>
      </trkpt>
      <trkpt lat="44.41209" lon="5.71356">
        <ele>643</ele>
        <time>2019-03-23T15:15:35Z</time>
      </trkpt>
      <trkpt lat="44.41203" lon="5.71361">
        <ele>643</ele>
        <time>2019-03-23T15:15:36Z</time>
      </trkpt>
      <trkpt lat="44.41197" lon="5.71366">
        <ele>643</ele>
        <time>2019-03-23T15:15:37Z</time>
      </trkpt>
      <trkpt lat="44.41191" lon="5.71371">
        <ele>643</ele>
        <time>2019-03-23T15:15:38Z</time>
      </trkpt>
      <trkpt lat="44.41185" lon="5.71375">
        <ele>643</ele>
        <time>2019-03-23T15:15:39Z</time>
      </trkpt>
      <trkpt lat="44.41179" lon="5.7138">
        <ele>643</ele>
        <time>2019-03-23T15:15:40Z</time>
      </trkpt>
      <trkpt lat="44.41173" lon="5.71385">
        <ele>643</ele>
        <time>2019-03-23T15:15:41Z</time>
      </trkpt>
      <trkpt lat="44.41167" lon="5.71389">
        <ele>643</ele>
        <time>2019-03-23T15:15:42Z</time>
      </trkpt>
      <trkpt lat="44.41161" lon="5.71393">
        <ele>643</ele>
        <time>2019-03-23T15:15:43Z</time>
      </trkpt>
      <trkpt lat="44.41155" lon="5.71397">
        <ele>643</ele>
        <time>2019-03-23T15:15:44Z</time>
      </trkpt>
      <trkpt lat="44.41149" lon="5.714">
        <ele>643</ele>
        <time>2019-03-23T15:15:45Z</time>
      </trkpt>
      <trkpt lat="44.41143" lon="5.71403">
        <ele>643</ele>
        <time>2019-03-23T15:15:46Z</time>
      </trkpt>
      <trkpt lat="44.41136" lon="5.71407">
        <ele>643</ele>
        <time>2019-03-23T15:15:47Z</time>
      </trkpt>
      <trkpt lat="44.4113" lon="5.71409">
        <ele>643</ele>
        <time>2019-03-23T15:15:48Z</time>
      </trkpt>
      <trkpt lat="44.41124" lon="5.71412">
        <ele>643</ele>
        <time>2019-03-23T15:15:49Z</time>
      </trkpt>
      <trkpt lat="44.41119" lon="5.71414">
        <ele>643</ele>
        <time>2019-03-23T15:15:50Z</time>
      </trkpt>
      <trkpt lat="44.41113" lon="5.71416">
        <ele>643</ele>
        <time>2019-03-23T15:15:51Z</time>
      </trkpt>
      <trkpt lat="44.41107" lon="5.71419">
        <ele>643</ele>
        <time>2019-03-23T15:15:52Z</time>
      </trkpt>
      <trkpt lat="44.41102" lon="5.71421">
        <ele>643</ele>
        <time>2019-03-23T15:15:53Z</time>
      </trkpt>
      <trkpt lat="44.41096" lon="5.71423">
        <ele>643</ele>
        <time>2019-03-23T15:15:54Z</time>
      </trkpt>
      <trkpt lat="44.41091" lon="5.71425">
        <ele>643</ele>
        <time>2019-03-23T15:15:55Z</time>
      </trkpt>
      <trkpt lat="44.41086" lon="5.71428">
        <ele>643</ele>
        <time>2019-03-23T15:15:56Z</time>
      </trkpt>
      <trkpt lat="44.41081" lon="5.7143">
        <ele>643</ele>
        <time>2019-03-23T15:15:57Z</time>
      </trkpt>
      <trkpt lat="44.41076" lon="5.71432">
        <ele>643</ele>
        <time>2019-03-23T15:15:58Z</time>
      </trkpt>
      <trkpt lat="44.41071" lon="5.71434">
        <ele>643</ele>
        <time>2019-03-23T15:15:59Z</time>
      </trkpt>
      <trkpt lat="44.41066" lon="5.71436">
        <ele>643</ele>
        <time>2019-03-23T15:16:00Z</time>
      </trkpt>
      <trkpt lat="44.41061" lon="5.71439">
        <ele>643</ele>
        <time>2019-03-23T15:16:01Z</time>
      </trkpt>
      <trkpt lat="44.41057" lon="5.71441">
        <ele>643</ele>
        <time>2019-03-23T15:16:02Z</time>
      </trkpt>
      <trkpt lat="44.41052" lon="5.71443">
        <ele>643</ele>
        <time>2019-03-23T15:16:03Z</time>
      </trkpt>
      <trkpt lat="44.41048" lon="5.71445">
        <ele>643</ele>
        <time>2019-03-23T15:16:04Z</time>
      </trkpt>
      <trkpt lat="44.41043" lon="5.71447">
        <ele>644</ele>
        <time>2019-03-23T15:16:05Z</time>
      </trkpt>
      <trkpt lat="44.41039" lon="5.71449">
        <ele>644</ele>
        <time>2019-03-23T15:16:06Z</time>
      </trkpt>
      <trkpt lat="44.41035" lon="5.71451">
        <ele>644</ele>
        <time>2019-03-23T15:16:07Z</time>
      </trkpt>
      <trkpt lat="44.4103" lon="5.71452">
        <ele>644</ele>
        <time>2019-03-23T15:16:08Z</time>
      </trkpt>
      <trkpt lat="44.41026" lon="5.71454">
        <ele>645</ele>
        <time>2019-03-23T15:16:09Z</time>
      </trkpt>
      <trkpt lat="44.41021" lon="5.71455">
        <ele>645</ele>
        <time>2019-03-23T15:16:10Z</time>
      </trkpt>
      <trkpt lat="44.41017" lon="5.71457">
        <ele>645</ele>
        <time>2019-03-23T15:16:11Z</time>
      </trkpt>
      <trkpt lat="44.41013" lon="5.71459">
        <ele>645</ele>
        <time>2019-03-23T15:16:12Z</time>
      </trkpt>
      <trkpt lat="44.41008" lon="5.7146">
        <ele>645</ele>
        <time>2019-03-23T15:16:13Z</time>
      </trkpt>
      <trkpt lat="44.41003" lon="5.71461">
        <ele>645</ele>
        <time>2019-03-23T15:16:14Z</time>
      </trkpt>
      <trkpt lat="44.40998" lon="5.71462">
        <ele>645</ele>
        <time>2019-03-23T15:16:15Z</time>
      </trkpt>
      <trkpt lat="44.40993" lon="5.71464">
        <ele>645</ele>
        <time>2019-03-23T15:16:16Z</time>
      </trkpt>
      <trkpt lat="44.40988" lon="5.71465">
        <ele>645</ele>
        <time>2019-03-23T15:16:17Z</time>
      </trkpt>
      <trkpt lat="44.40982" lon="5.71466">
        <ele>645</ele>
        <time>2019-03-23T15:16:18Z</time>
      </trkpt>
      <trkpt lat="44.40977" lon="5.71468">
        <ele>645</ele>
        <time>2019-03-23T15:16:19Z</time>
      </trkpt>
      <trkpt lat="44.40971" lon="5.71469">
        <ele>645</ele>
        <time>2019-03-23T15:16:20Z</time>
      </trkpt>
      <trkpt lat="44.40964" lon="5.7147">
        <ele>645</ele>
        <time>2019-03-23T15:16:21Z</time>
      </trkpt>
      <trkpt lat="44.40958" lon="5.71472">
        <ele>645</ele>
        <time>2019-03-23T15:16:22Z</time>
      </trkpt>
      <trkpt lat="44.40951" lon="5.71473">
        <ele>645</ele>
        <time>2019-03-23T15:16:23Z</time>
      </trkpt>
      <trkpt lat="44.40944" lon="5.71475">
        <ele>645</ele>
        <time>2019-03-23T15:16:24Z</time>
      </trkpt>
      <trkpt lat="44.40937" lon="5.71476">
        <ele>645</ele>
        <time>2019-03-23T15:16:25Z</time>
      </trkpt>
      <trkpt lat="44.4093" lon="5.71478">
        <ele>645</ele>
        <time>2019-03-23T15:16:26Z</time>
      </trkpt>
      <trkpt lat="44.40923" lon="5.7148">
        <ele>645</ele>
        <time>2019-03-23T15:16:27Z</time>
      </trkpt>
      <trkpt lat="44.40915" lon="5.71482">
        <ele>645</ele>
        <time>2019-03-23T15:16:28Z</time>
      </trkpt>
      <trkpt lat="44.40908" lon="5.71484">
        <ele>645</ele>
        <time>2019-03-23T15:16:29Z</time>
      </trkpt>
      <trkpt lat="44.409" lon="5.71486">
        <ele>645</ele>
        <time>2019-03-23T15:16:30Z</time>
      </trkpt>
      <trkpt lat="44.40892" lon="5.71488">
        <ele>645</ele>
        <time>2019-03-23T15:16:31Z</time>
      </trkpt>
      <trkpt lat="44.40885" lon="5.7149">
        <ele>645</ele>
        <time>2019-03-23T15:16:32Z</time>
      </trkpt>
      <trkpt lat="44.40877" lon="5.71492">
        <ele>645</ele>
        <time>2019-03-23T15:16:33Z</time>
      </trkpt>
      <trkpt lat="44.40869" lon="5.71494">
        <ele>645</ele>
        <time>2019-03-23T15:16:34Z</time>
      </trkpt>
      <trkpt lat="44.40862" lon="5.71496">
        <ele>645</ele>
        <time>2019-03-23T15:16:35Z</time>
      </trkpt>
      <trkpt lat="44.40854" lon="5.71498">
        <ele>645</ele>
        <time>2019-03-23T15:16:36Z</time>
      </trkpt>
      <trkpt lat="44.40847" lon="5.715">
        <ele>645</ele>
        <time>2019-03-23T15:16:37Z</time>
      </trkpt>
      <trkpt lat="44.40839" lon="5.71502">
        <ele>645</ele>
        <time>2019-03-23T15:16:38Z</time>
      </trkpt>
      <trkpt lat="44.40832" lon="5.71503">
        <ele>645</ele>
        <time>2019-03-23T15:16:39Z</time>
      </trkpt>
      <trkpt lat="44.40825" lon="5.71505">
        <ele>645</ele>
        <time>2019-03-23T15:16:40Z</time>
      </trkpt>
      <trkpt lat="44.40818" lon="5.71507">
        <ele>645</ele>
        <time>2019-03-23T15:16:41Z</time>
      </trkpt>
      <trkpt lat="44.40811" lon="5.71508">
        <ele>645</ele>
        <time>2019-03-23T15:16:42Z</time>
      </trkpt>
      <trkpt lat="44.40804" lon="5.7151">
        <ele>645</ele>
        <time>2019-03-23T15:16:43Z</time>
      </trkpt>
      <trkpt lat="44.40798" lon="5.71512">
        <ele>645</ele>
        <time>2019-03-23T15:16:44Z</time>
      </trkpt>
      <trkpt lat="44.40791" lon="5.71514">
        <ele>645</ele>
        <time>2019-03-23T15:16:45Z</time>
      </trkpt>
      <trkpt lat="44.40785" lon="5.71516">
        <ele>645</ele>
        <time>2019-03-23T15:16:46Z</time>
      </trkpt>
      <trkpt lat="44.40778" lon="5.71518">
        <ele>645</ele>
        <time>2019-03-23T15:16:47Z</time>
      </trkpt>
      <trkpt lat="44.40772" lon="5.71521">
        <ele>645</ele>
        <time>2019-03-23T15:16:48Z</time>
      </trkpt>
      <trkpt lat="44.40765" lon="5.71524">
        <ele>645</ele>
        <time>2019-03-23T15:16:49Z</time>
      </trkpt>
      <trkpt lat="44.40759" lon="5.71527">
        <ele>645</ele>
        <time>2019-03-23T15:16:50Z</time>
      </trkpt>
      <trkpt lat="44.40753" lon="5.71531">
        <ele>645</ele>
        <time>2019-03-23T15:16:51Z</time>
      </trkpt>
      <trkpt lat="44.40747" lon="5.71535">
        <ele>645</ele>
        <time>2019-03-23T15:16:52Z</time>
      </trkpt>
      <trkpt lat="44.40742" lon="5.71539">
        <ele>645</ele>
        <time>2019-03-23T15:16:53Z</time>
      </trkpt>
      <trkpt lat="44.40736" lon="5.71543">
        <ele>645</ele>
        <time>2019-03-23T15:16:54Z</time>
      </trkpt>
      <trkpt lat="44.40731" lon="5.71548">
        <ele>645</ele>
        <time>2019-03-23T15:16:55Z</time>
      </trkpt>
      <trkpt lat="44.40727" lon="5.71552">
        <ele>645</ele>
        <time>2019-03-23T15:16:56Z</time>
      </trkpt>
      <trkpt lat="44.40723" lon="5.71557">
        <ele>645</ele>
        <time>2019-03-23T15:16:57Z</time>
      </trkpt>
      <trkpt lat="44.40719" lon="5.71562">
        <ele>645</ele>
        <time>2019-03-23T15:16:58Z</time>
      </trkpt>
      <trkpt lat="44.40714" lon="5.71566">
        <ele>645</ele>
        <time>2019-03-23T15:16:59Z</time>
      </trkpt>
      <trkpt lat="44.4071" lon="5.71571">
        <ele>645</ele>
        <time>2019-03-23T15:17:00Z</time>
      </trkpt>
      <trkpt lat="44.40705" lon="5.71576">
        <ele>645</ele>
        <time>2019-03-23T15:17:01Z</time>
      </trkpt>
      <trkpt lat="44.407" lon="5.71581">
        <ele>645</ele>
        <time>2019-03-23T15:17:02Z</time>
      </trkpt>
      <trkpt lat="44.40695" lon="5.71586">
        <ele>645</ele>
        <time>2019-03-23T15:17:03Z</time>
      </trkpt>
      <trkpt lat="44.40691" lon="5.71591">
        <ele>645</ele>
        <time>2019-03-23T15:17:04Z</time>
      </trkpt>
      <trkpt lat="44.40686" lon="5.71595">
        <ele>645</ele>
        <time>2019-03-23T15:17:05Z</time>
      </trkpt>
      <trkpt lat="44.40682" lon="5.716">
        <ele>645</ele>
        <time>2019-03-23T15:17:06Z</time>
      </trkpt>
      <trkpt lat="44.40677" lon="5.71605">
        <ele>645</ele>
        <time>2019-03-23T15:17:07Z</time>
      </trkpt>
      <trkpt lat="44.40672" lon="5.71611">
        <ele>645</ele>
        <time>2019-03-23T15:17:08Z</time>
      </trkpt>
      <trkpt lat="44.40667" lon="5.71616">
        <ele>645</ele>
        <time>2019-03-23T15:17:09Z</time>
      </trkpt>
      <trkpt lat="44.40662" lon="5.71622">
        <ele>645</ele>
        <time>2019-03-23T15:17:10Z</time>
      </trkpt>
      <trkpt lat="44.40656" lon="5.71628">
        <ele>645</ele>
        <time>2019-03-23T15:17:11Z</time>
      </trkpt>
      <trkpt lat="44.40651" lon="5.71633">
        <ele>645</ele>
        <time>2019-03-23T15:17:12Z</time>
      </trkpt>
      <trkpt lat="44.40645" lon="5.7164">
        <ele>645</ele>
        <time>2019-03-23T15:17:13Z</time>
      </trkpt>
      <trkpt lat="44.40639" lon="5.71646">
        <ele>645</ele>
        <time>2019-03-23T15:17:14Z</time>
      </trkpt>
      <trkpt lat="44.40634" lon="5.71653">
        <ele>645</ele>
        <time>2019-03-23T15:17:15Z</time>
      </trkpt>
      <trkpt lat="44.40628" lon="5.7166">
        <ele>645</ele>
        <time>2019-03-23T15:17:16Z</time>
      </trkpt>
      <trkpt lat="44.40622" lon="5.71666">
        <ele>645</ele>
        <time>2019-03-23T15:17:17Z</time>
      </trkpt>
      <trkpt lat="44.40616" lon="5.71673">
        <ele>645</ele>
        <time>2019-03-23T15:17:18Z</time>
      </trkpt>
      <trkpt lat="44.40611" lon="5.71679">
        <ele>645</ele>
        <time>2019-03-23T15:17:19Z</time>
      </trkpt>
      <trkpt lat="44.40605" lon="5.71686">
        <ele>645</ele>
        <time>2019-03-23T15:17:20Z</time>
      </trkpt>
      <trkpt lat="44.406" lon="5.71692">
        <ele>645</ele>
        <time>2019-03-23T15:17:21Z</time>
      </trkpt>
      <trkpt lat="44.40594" lon="5.71698">
        <ele>645</ele>
        <time>2019-03-23T15:17:22Z</time>
      </trkpt>
      <trkpt lat="44.40589" lon="5.71704">
        <ele>645</ele>
        <time>2019-03-23T15:17:23Z</time>
      </trkpt>
      <trkpt lat="44.40585" lon="5.71711">
        <ele>645</ele>
        <time>2019-03-23T15:17:24Z</time>
      </trkpt>
      <trkpt lat="44.4058" lon="5.71717">
        <ele>645</ele>
        <time>2019-03-23T15:17:25Z</time>
      </trkpt>
      <trkpt lat="44.40575" lon="5.71724">
        <ele>645</ele>
        <time>2019-03-23T15:17:26Z</time>
      </trkpt>
      <trkpt lat="44.4057" lon="5.7173">
        <ele>645</ele>
        <time>2019-03-23T15:17:27Z</time>
      </trkpt>
      <trkpt lat="44.40566" lon="5.71737">
        <ele>645</ele>
        <time>2019-03-23T15:17:28Z</time>
      </trkpt>
      <trkpt lat="44.40562" lon="5.71744">
        <ele>645</ele>
        <time>2019-03-23T15:17:29Z</time>
      </trkpt>
      <trkpt lat="44.40557" lon="5.71751">
        <ele>645</ele>
        <time>2019-03-23T15:17:30Z</time>
      </trkpt>
      <trkpt lat="44.40553" lon="5.71757">
        <ele>645</ele>
        <time>2019-03-23T15:17:31Z</time>
      </trkpt>
      <trkpt lat="44.40549" lon="5.71764">
        <ele>645</ele>
        <time>2019-03-23T15:17:32Z</time>
      </trkpt>
      <trkpt lat="44.40545" lon="5.7177">
        <ele>645</ele>
        <time>2019-03-23T15:17:33Z</time>
      </trkpt>
      <trkpt lat="44.4054" lon="5.71777">
        <ele>645</ele>
        <time>2019-03-23T15:17:34Z</time>
      </trkpt>
      <trkpt lat="44.40536" lon="5.71783">
        <ele>645</ele>
        <time>2019-03-23T15:17:35Z</time>
      </trkpt>
      <trkpt lat="44.40532" lon="5.71789">
        <ele>645</ele>
        <time>2019-03-23T15:17:36Z</time>
      </trkpt>
      <trkpt lat="44.40527" lon="5.71796">
        <ele>645</ele>
        <time>2019-03-23T15:17:37Z</time>
      </trkpt>
      <trkpt lat="44.40522" lon="5.71802">
        <ele>645</ele>
        <time>2019-03-23T15:17:38Z</time>
      </trkpt>
      <trkpt lat="44.40517" lon="5.71809">
        <ele>645</ele>
        <time>2019-03-23T15:17:39Z</time>
      </trkpt>
      <trkpt lat="44.40513" lon="5.71815">
        <ele>645</ele>
        <time>2019-03-23T15:17:40Z</time>
      </trkpt>
      <trkpt lat="44.40508" lon="5.71822">
        <ele>645</ele>
        <time>2019-03-23T15:17:41Z</time>
      </trkpt>
      <trkpt lat="44.40503" lon="5.71828">
        <ele>645</ele>
        <time>2019-03-23T15:17:42Z</time>
      </trkpt>
      <trkpt lat="44.40499" lon="5.71835">
        <ele>645</ele>
        <time>2019-03-23T15:17:43Z</time>
      </trkpt>
      <trkpt lat="44.40494" lon="5.71841">
        <ele>645</ele>
        <time>2019-03-23T15:17:44Z</time>
      </trkpt>
      <trkpt lat="44.4049" lon="5.71848">
        <ele>645</ele>
        <time>2019-03-23T15:17:45Z</time>
      </trkpt>
      <trkpt lat="44.40485" lon="5.71854">
        <ele>645</ele>
        <time>2019-03-23T15:17:46Z</time>
      </trkpt>
      <trkpt lat="44.4048" lon="5.71861">
        <ele>645</ele>
        <time>2019-03-23T15:17:47Z</time>
      </trkpt>
      <trkpt lat="44.40475" lon="5.71868">
        <ele>645</ele>
        <time>2019-03-23T15:17:48Z</time>
      </trkpt>
      <trkpt lat="44.4047" lon="5.71875">
        <ele>645</ele>
        <time>2019-03-23T15:17:49Z</time>
      </trkpt>
      <trkpt lat="44.40465" lon="5.71881">
        <ele>645</ele>
        <time>2019-03-23T15:17:50Z</time>
      </trkpt>
      <trkpt lat="44.40459" lon="5.71887">
        <ele>645</ele>
        <time>2019-03-23T15:17:51Z</time>
      </trkpt>
      <trkpt lat="44.40454" lon="5.71894">
        <ele>645</ele>
        <time>2019-03-23T15:17:52Z</time>
      </trkpt>
      <trkpt lat="44.40448" lon="5.719">
        <ele>645</ele>
        <time>2019-03-23T15:17:53Z</time>
      </trkpt>
      <trkpt lat="44.40442" lon="5.71907">
        <ele>645</ele>
        <time>2019-03-23T15:17:54Z</time>
      </trkpt>
      <trkpt lat="44.40437" lon="5.71913">
        <ele>645</ele>
        <time>2019-03-23T15:17:55Z</time>
      </trkpt>
      <trkpt lat="44.40431" lon="5.71919">
        <ele>644</ele>
        <time>2019-03-23T15:17:56Z</time>
      </trkpt>
      <trkpt lat="44.40425" lon="5.71925">
        <ele>644</ele>
        <time>2019-03-23T15:17:57Z</time>
      </trkpt>
      <trkpt lat="44.40419" lon="5.71932">
        <ele>644</ele>
        <time>2019-03-23T15:17:58Z</time>
      </trkpt>
      <trkpt lat="44.40413" lon="5.71938">
        <ele>644</ele>
        <time>2019-03-23T15:17:59Z</time>
      </trkpt>
      <trkpt lat="44.40406" lon="5.71945">
        <ele>644</ele>
        <time>2019-03-23T15:18:00Z</time>
      </trkpt>
      <trkpt lat="44.404" lon="5.71951">
        <ele>644</ele>
        <time>2019-03-23T15:18:01Z</time>
      </trkpt>
      <trkpt lat="44.40393" lon="5.71957">
        <ele>644</ele>
        <time>2019-03-23T15:18:02Z</time>
      </trkpt>
      <trkpt lat="44.40387" lon="5.71963">
        <ele>644</ele>
        <time>2019-03-23T15:18:03Z</time>
      </trkpt>
      <trkpt lat="44.4038" lon="5.71969">
        <ele>643</ele>
        <time>2019-03-23T15:18:04Z</time>
      </trkpt>
      <trkpt lat="44.40374" lon="5.71976">
        <ele>643</ele>
        <time>2019-03-23T15:18:05Z</time>
      </trkpt>
      <trkpt lat="44.40368" lon="5.71983">
        <ele>643</ele>
        <time>2019-03-23T15:18:06Z</time>
      </trkpt>
      <trkpt lat="44.40363" lon="5.7199">
        <ele>643</ele>
        <time>2019-03-23T15:18:07Z</time>
      </trkpt>
      <trkpt lat="44.40357" lon="5.71997">
        <ele>643</ele>
        <time>2019-03-23T15:18:08Z</time>
      </trkpt>
      <trkpt lat="44.40352" lon="5.72004">
        <ele>643</ele>
        <time>2019-03-23T15:18:09Z</time>
      </trkpt>
      <trkpt lat="44.40346" lon="5.72011">
        <ele>643</ele>
        <time>2019-03-23T15:18:10Z</time>
      </trkpt>
      <trkpt lat="44.40341" lon="5.72017">
        <ele>643</ele>
        <time>2019-03-23T15:18:11Z</time>
      </trkpt>
      <trkpt lat="44.40336" lon="5.72024">
        <ele>643</ele>
        <time>2019-03-23T15:18:12Z</time>
      </trkpt>
      <trkpt lat="44.40331" lon="5.72031">
        <ele>643</ele>
        <time>2019-03-23T15:18:13Z</time>
      </trkpt>
      <trkpt lat="44.40326" lon="5.72038">
        <ele>643</ele>
        <time>2019-03-23T15:18:14Z</time>
      </trkpt>
      <trkpt lat="44.40321" lon="5.72045">
        <ele>643</ele>
        <time>2019-03-23T15:18:15Z</time>
      </trkpt>
      <trkpt lat="44.40316" lon="5.72051">
        <ele>643</ele>
        <time>2019-03-23T15:18:16Z</time>
      </trkpt>
      <trkpt lat="44.40311" lon="5.72057">
        <ele>643</ele>
        <time>2019-03-23T15:18:17Z</time>
      </trkpt>
      <trkpt lat="44.40306" lon="5.72063">
        <ele>643</ele>
        <time>2019-03-23T15:18:18Z</time>
      </trkpt>
      <trkpt lat="44.40302" lon="5.72069">
        <ele>643</ele>
        <time>2019-03-23T15:18:19Z</time>
      </trkpt>
      <trkpt lat="44.40297" lon="5.72075">
        <ele>643</ele>
        <time>2019-03-23T15:18:20Z</time>
      </trkpt>
      <trkpt lat="44.40292" lon="5.72081">
        <ele>643</ele>
        <time>2019-03-23T15:18:21Z</time>
      </trkpt>
      <trkpt lat="44.40287" lon="5.72087">
        <ele>643</ele>
        <time>2019-03-23T15:18:22Z</time>
      </trkpt>
      <trkpt lat="44.40283" lon="5.72093">
        <ele>643</ele>
        <time>2019-03-23T15:18:23Z</time>
      </trkpt>
      <trkpt lat="44.40278" lon="5.72098">
        <ele>643</ele>
        <time>2019-03-23T15:18:24Z</time>
      </trkpt>
      <trkpt lat="44.40273" lon="5.72105">
        <ele>643</ele>
        <time>2019-03-23T15:18:25Z</time>
      </trkpt>
      <trkpt lat="44.40269" lon="5.72111">
        <ele>643</ele>
        <time>2019-03-23T15:18:26Z</time>
      </trkpt>
      <trkpt lat="44.40264" lon="5.72116">
        <ele>643</ele>
        <time>2019-03-23T15:18:27Z</time>
      </trkpt>
      <trkpt lat="44.40259" lon="5.72122">
        <ele>643</ele>
        <time>2019-03-23T15:18:28Z</time>
      </trkpt>
      <trkpt lat="44.40255" lon="5.72128">
        <ele>643</ele>
        <time>2019-03-23T15:18:29Z</time>
      </trkpt>
      <trkpt lat="44.4025" lon="5.72134">
        <ele>643</ele>
        <time>2019-03-23T15:18:30Z</time>
      </trkpt>
      <trkpt lat="44.40245" lon="5.7214">
        <ele>643</ele>
        <time>2019-03-23T15:18:31Z</time>
      </trkpt>
      <trkpt lat="44.4024" lon="5.72146">
        <ele>643</ele>
        <time>2019-03-23T15:18:32Z</time>
      </trkpt>
      <trkpt lat="44.40234" lon="5.72152">
        <ele>643</ele>
        <time>2019-03-23T15:18:33Z</time>
      </trkpt>
      <trkpt lat="44.40229" lon="5.72157">
        <ele>643</ele>
        <time>2019-03-23T15:18:34Z</time>
      </trkpt>
      <trkpt lat="44.40224" lon="5.72163">
        <ele>643</ele>
        <time>2019-03-23T15:18:35Z</time>
      </trkpt>
      <trkpt lat="44.40218" lon="5.72169">
        <ele>643</ele>
        <time>2019-03-23T15:18:36Z</time>
      </trkpt>
      <trkpt lat="44.40213" lon="5.72175">
        <ele>643</ele>
        <time>2019-03-23T15:18:37Z</time>
      </trkpt>
      <trkpt lat="44.40207" lon="5.72181">
        <ele>643</ele>
        <time>2019-03-23T15:18:38Z</time>
      </trkpt>
      <trkpt lat="44.40201" lon="5.72187">
        <ele>643</ele>
        <time>2019-03-23T15:18:39Z</time>
      </trkpt>
      <trkpt lat="44.40195" lon="5.72193">
        <ele>643</ele>
        <time>2019-03-23T15:18:40Z</time>
      </trkpt>
      <trkpt lat="44.40189" lon="5.72199">
        <ele>643</ele>
        <time>2019-03-23T15:18:41Z</time>
      </trkpt>
      <trkpt lat="44.40182" lon="5.72205">
        <ele>643</ele>
        <time>2019-03-23T15:18:42Z</time>
      </trkpt>
      <trkpt lat="44.40176" lon="5.72212">
        <ele>643</ele>
        <time>2019-03-23T15:18:43Z</time>
      </trkpt>
      <trkpt lat="44.4017" lon="5.72218">
        <ele>643</ele>
        <time>2019-03-23T15:18:44Z</time>
      </trkpt>
      <trkpt lat="44.40164" lon="5.72224">
        <ele>643</ele>
        <time>2019-03-23T15:18:45Z</time>
      </trkpt>
      <trkpt lat="44.40158" lon="5.72229">
        <ele>643</ele>
        <time>2019-03-23T15:18:46Z</time>
      </trkpt>
      <trkpt lat="44.40152" lon="5.72235">
        <ele>643</ele>
        <time>2019-03-23T15:18:47Z</time>
      </trkpt>
      <trkpt lat="44.40146" lon="5.72241">
        <ele>643</ele>
        <time>2019-03-23T15:18:48Z</time>
      </trkpt>
      <trkpt lat="44.4014" lon="5.72247">
        <ele>643</ele>
        <time>2019-03-23T15:18:49Z</time>
      </trkpt>
      <trkpt lat="44.40134" lon="5.72253">
        <ele>642</ele>
        <time>2019-03-23T15:18:50Z</time>
      </trkpt>
      <trkpt lat="44.40128" lon="5.72259">
        <ele>642</ele>
        <time>2019-03-23T15:18:51Z</time>
      </trkpt>
      <trkpt lat="44.40121" lon="5.72265">
        <ele>642</ele>
        <time>2019-03-23T15:18:52Z</time>
      </trkpt>
      <trkpt lat="44.40115" lon="5.72271">
        <ele>642</ele>
        <time>2019-03-23T15:18:53Z</time>
      </trkpt>
      <trkpt lat="44.40108" lon="5.72277">
        <ele>642</ele>
        <time>2019-03-23T15:18:54Z</time>
      </trkpt>
      <trkpt lat="44.40102" lon="5.72284">
        <ele>642</ele>
        <time>2019-03-23T15:18:55Z</time>
      </trkpt>
      <trkpt lat="44.40095" lon="5.7229">
        <ele>641</ele>
        <time>2019-03-23T15:18:56Z</time>
      </trkpt>
      <trkpt lat="44.40088" lon="5.72297">
        <ele>641</ele>
        <time>2019-03-23T15:18:57Z</time>
      </trkpt>
      <trkpt lat="44.40081" lon="5.72303">
        <ele>641</ele>
        <time>2019-03-23T15:18:58Z</time>
      </trkpt>
      <trkpt lat="44.40073" lon="5.7231">
        <ele>641</ele>
        <time>2019-03-23T15:18:59Z</time>
      </trkpt>
      <trkpt lat="44.40066" lon="5.72317">
        <ele>640</ele>
        <time>2019-03-23T15:19:00Z</time>
      </trkpt>
      <trkpt lat="44.40059" lon="5.72323">
        <ele>640</ele>
        <time>2019-03-23T15:19:01Z</time>
      </trkpt>
      <trkpt lat="44.40052" lon="5.72329">
        <ele>640</ele>
        <time>2019-03-23T15:19:02Z</time>
      </trkpt>
      <trkpt lat="44.40045" lon="5.72336">
        <ele>640</ele>
        <time>2019-03-23T15:19:03Z</time>
      </trkpt>
      <trkpt lat="44.40039" lon="5.72342">
        <ele>640</ele>
        <time>2019-03-23T15:19:04Z</time>
      </trkpt>
      <trkpt lat="44.40032" lon="5.72349">
        <ele>639</ele>
        <time>2019-03-23T15:19:05Z</time>
      </trkpt>
      <trkpt lat="44.40025" lon="5.72355">
        <ele>639</ele>
        <time>2019-03-23T15:19:06Z</time>
      </trkpt>
      <trkpt lat="44.40019" lon="5.72361">
        <ele>639</ele>
        <time>2019-03-23T15:19:07Z</time>
      </trkpt>
      <trkpt lat="44.40012" lon="5.72367">
        <ele>639</ele>
        <time>2019-03-23T15:19:08Z</time>
      </trkpt>
      <trkpt lat="44.40006" lon="5.72374">
        <ele>638</ele>
        <time>2019-03-23T15:19:09Z</time>
      </trkpt>
      <trkpt lat="44.39999" lon="5.7238">
        <ele>638</ele>
        <time>2019-03-23T15:19:10Z</time>
      </trkpt>
      <trkpt lat="44.39993" lon="5.72387">
        <ele>638</ele>
        <time>2019-03-23T15:19:11Z</time>
      </trkpt>
      <trkpt lat="44.39987" lon="5.72394">
        <ele>637</ele>
        <time>2019-03-23T15:19:12Z</time>
      </trkpt>
      <trkpt lat="44.3998" lon="5.72401">
        <ele>637</ele>
        <time>2019-03-23T15:19:13Z</time>
      </trkpt>
      <trkpt lat="44.39975" lon="5.72409">
        <ele>637</ele>
        <time>2019-03-23T15:19:14Z</time>
      </trkpt>
      <trkpt lat="44.39969" lon="5.72418">
        <ele>637</ele>
        <time>2019-03-23T15:19:15Z</time>
      </trkpt>
      <trkpt lat="44.39963" lon="5.72427">
        <ele>637</ele>
        <time>2019-03-23T15:19:16Z</time>
      </trkpt>
      <trkpt lat="44.39958" lon="5.72436">
        <ele>637</ele>
        <time>2019-03-23T15:19:17Z</time>
      </trkpt>
      <trkpt lat="44.39953" lon="5.72445">
        <ele>637</ele>
        <time>2019-03-23T15:19:18Z</time>
      </trkpt>
      <trkpt lat="44.39948" lon="5.72454">
        <ele>637</ele>
        <time>2019-03-23T15:19:19Z</time>
      </trkpt>
      <trkpt lat="44.39942" lon="5.72463">
        <ele>637</ele>
        <time>2019-03-23T15:19:20Z</time>
      </trkpt>
      <trkpt lat="44.39937" lon="5.72472">
        <ele>637</ele>
        <time>2019-03-23T15:19:21Z</time>
      </trkpt>
      <trkpt lat="44.39932" lon="5.7248">
        <ele>637</ele>
        <time>2019-03-23T15:19:22Z</time>
      </trkpt>
      <trkpt lat="44.39927" lon="5.72489">
        <ele>637</ele>
        <time>2019-03-23T15:19:23Z</time>
      </trkpt>
      <trkpt lat="44.39921" lon="5.72497">
        <ele>637</ele>
        <time>2019-03-23T15:19:24Z</time>
      </trkpt>
      <trkpt lat="44.39916" lon="5.72505">
        <ele>637</ele>
        <time>2019-03-23T15:19:25Z</time>
      </trkpt>
      <trkpt lat="44.39911" lon="5.72513">
        <ele>637</ele>
        <time>2019-03-23T15:19:26Z</time>
      </trkpt>
      <trkpt lat="44.39905" lon="5.72521">
        <ele>637</ele>
        <time>2019-03-23T15:19:27Z</time>
      </trkpt>
      <trkpt lat="44.39899" lon="5.72529">
        <ele>637</ele>
        <time>2019-03-23T15:19:28Z</time>
      </trkpt>
      <trkpt lat="44.39894" lon="5.72536">
        <ele>637</ele>
        <time>2019-03-23T15:19:29Z</time>
      </trkpt>
      <trkpt lat="44.39888" lon="5.72544">
        <ele>637</ele>
        <time>2019-03-23T15:19:30Z</time>
      </trkpt>
      <trkpt lat="44.39882" lon="5.72551">
        <ele>637</ele>
        <time>2019-03-23T15:19:31Z</time>
      </trkpt>
      <trkpt lat="44.39876" lon="5.72558">
        <ele>637</ele>
        <time>2019-03-23T15:19:32Z</time>
      </trkpt>
      <trkpt lat="44.3987" lon="5.72565">
        <ele>637</ele>
        <time>2019-03-23T15:19:33Z</time>
      </trkpt>
      <trkpt lat="44.39865" lon="5.72572">
        <ele>637</ele>
        <time>2019-03-23T15:19:34Z</time>
      </trkpt>
      <trkpt lat="44.39859" lon="5.72579">
        <ele>637</ele>
        <time>2019-03-23T15:19:35Z</time>
      </trkpt>
      <trkpt lat="44.39854" lon="5.72587">
        <ele>637</ele>
        <time>2019-03-23T15:19:36Z</time>
      </trkpt>
      <trkpt lat="44.39848" lon="5.72594">
        <ele>637</ele>
        <time>2019-03-23T15:19:37Z</time>
      </trkpt>
      <trkpt lat="44.39843" lon="5.72602">
        <ele>637</ele>
        <time>2019-03-23T15:19:38Z</time>
      </trkpt>
      <trkpt lat="44.39838" lon="5.7261">
        <ele>637</ele>
        <time>2019-03-23T15:19:39Z</time>
      </trkpt>
      <trkpt lat="44.39833" lon="5.72617">
        <ele>637</ele>
        <time>2019-03-23T15:19:40Z</time>
      </trkpt>
      <trkpt lat="44.39828" lon="5.72625">
        <ele>637</ele>
        <time>2019-03-23T15:19:41Z</time>
      </trkpt>
      <trkpt lat="44.39822" lon="5.72632">
        <ele>637</ele>
        <time>2019-03-23T15:19:42Z</time>
      </trkpt>
      <trkpt lat="44.39817" lon="5.7264">
        <ele>637</ele>
        <time>2019-03-23T15:19:43Z</time>
      </trkpt>
      <trkpt lat="44.39812" lon="5.72647">
        <ele>637</ele>
        <time>2019-03-23T15:19:44Z</time>
      </trkpt>
      <trkpt lat="44.39807" lon="5.72655">
        <ele>637</ele>
        <time>2019-03-23T15:19:45Z</time>
      </trkpt>
      <trkpt lat="44.39801" lon="5.72662">
        <ele>637</ele>
        <time>2019-03-23T15:19:46Z</time>
      </trkpt>
      <trkpt lat="44.39796" lon="5.7267">
        <ele>637</ele>
        <time>2019-03-23T15:19:47Z</time>
      </trkpt>
      <trkpt lat="44.39791" lon="5.72677">
        <ele>637</ele>
        <time>2019-03-23T15:19:48Z</time>
      </trkpt>
      <trkpt lat="44.39785" lon="5.72685">
        <ele>637</ele>
        <time>2019-03-23T15:19:49Z</time>
      </trkpt>
      <trkpt lat="44.3978" lon="5.72692">
        <ele>637</ele>
        <time>2019-03-23T15:19:50Z</time>
      </trkpt>
      <trkpt lat="44.39775" lon="5.72699">
        <ele>637</ele>
        <time>2019-03-23T15:19:51Z</time>
      </trkpt>
      <trkpt lat="44.3977" lon="5.72706">
        <ele>637</ele>
        <time>2019-03-23T15:19:52Z</time>
      </trkpt>
      <trkpt lat="44.39765" lon="5.72714">
        <ele>637</ele>
        <time>2019-03-23T15:19:53Z</time>
      </trkpt>
      <trkpt lat="44.39759" lon="5.7272">
        <ele>637</ele>
        <time>2019-03-23T15:19:54Z</time>
      </trkpt>
      <trkpt lat="44.39754" lon="5.72727">
        <ele>637</ele>
        <time>2019-03-23T15:19:55Z</time>
      </trkpt>
      <trkpt lat="44.39748" lon="5.72734">
        <ele>637</ele>
        <time>2019-03-23T15:19:56Z</time>
      </trkpt>
      <trkpt lat="44.39743" lon="5.72741">
        <ele>637</ele>
        <time>2019-03-23T15:19:57Z</time>
      </trkpt>
      <trkpt lat="44.39738" lon="5.72748">
        <ele>637</ele>
        <time>2019-03-23T15:19:58Z</time>
      </trkpt>
      <trkpt lat="44.39732" lon="5.72754">
        <ele>637</ele>
        <time>2019-03-23T15:19:59Z</time>
      </trkpt>
      <trkpt lat="44.39727" lon="5.7276">
        <ele>637</ele>
        <time>2019-03-23T15:20:00Z</time>
      </trkpt>
      <trkpt lat="44.39721" lon="5.72767">
        <ele>637</ele>
        <time>2019-03-23T15:20:01Z</time>
      </trkpt>
      <trkpt lat="44.39715" lon="5.72774">
        <ele>637</ele>
        <time>2019-03-23T15:20:02Z</time>
      </trkpt>
      <trkpt lat="44.3971" lon="5.72781">
        <ele>637</ele>
        <time>2019-03-23T15:20:03Z</time>
      </trkpt>
      <trkpt lat="44.39705" lon="5.72787">
        <ele>637</ele>
        <time>2019-03-23T15:20:04Z</time>
      </trkpt>
      <trkpt lat="44.39699" lon="5.72794">
        <ele>637</ele>
        <time>2019-03-23T15:20:05Z</time>
      </trkpt>
      <trkpt lat="44.39693" lon="5.728">
        <ele>637</ele>
        <time>2019-03-23T15:20:06Z</time>
      </trkpt>
      <trkpt lat="44.39688" lon="5.72807">
        <ele>637</ele>
        <time>2019-03-23T15:20:07Z</time>
      </trkpt>
      <trkpt lat="44.39682" lon="5.72813">
        <ele>637</ele>
        <time>2019-03-23T15:20:08Z</time>
      </trkpt>
      <trkpt lat="44.39677" lon="5.7282">
        <ele>637</ele>
        <time>2019-03-23T15:20:09Z</time>
      </trkpt>
      <trkpt lat="44.39671" lon="5.72827">
        <ele>637</ele>
        <time>2019-03-23T15:20:10Z</time>
      </trkpt>
      <trkpt lat="44.39666" lon="5.72833">
        <ele>637</ele>
        <time>2019-03-23T15:20:11Z</time>
      </trkpt>
      <trkpt lat="44.3966" lon="5.72839">
        <ele>637</ele>
        <time>2019-03-23T15:20:12Z</time>
      </trkpt>
      <trkpt lat="44.39655" lon="5.72846">
        <ele>637</ele>
        <time>2019-03-23T15:20:13Z</time>
      </trkpt>
      <trkpt lat="44.39649" lon="5.72852">
        <ele>637</ele>
        <time>2019-03-23T15:20:14Z</time>
      </trkpt>
      <trkpt lat="44.39643" lon="5.72858">
        <ele>637</ele>
        <time>2019-03-23T15:20:15Z</time>
      </trkpt>
      <trkpt lat="44.39638" lon="5.72864">
        <ele>637</ele>
        <time>2019-03-23T15:20:16Z</time>
      </trkpt>
      <trkpt lat="44.39632" lon="5.7287">
        <ele>637</ele>
        <time>2019-03-23T15:20:17Z</time>
      </trkpt>
      <trkpt lat="44.39627" lon="5.72877">
        <ele>637</ele>
        <time>2019-03-23T15:20:18Z</time>
      </trkpt>
      <trkpt lat="44.39622" lon="5.72883">
        <ele>637</ele>
        <time>2019-03-23T15:20:19Z</time>
      </trkpt>
      <trkpt lat="44.39616" lon="5.7289">
        <ele>637</ele>
        <time>2019-03-23T15:20:20Z</time>
      </trkpt>
      <trkpt lat="44.39611" lon="5.72896">
        <ele>637</ele>
        <time>2019-03-23T15:20:21Z</time>
      </trkpt>
      <trkpt lat="44.39605" lon="5.72902">
        <ele>637</ele>
        <time>2019-03-23T15:20:22Z</time>
      </trkpt>
      <trkpt lat="44.39599" lon="5.72909">
        <ele>637</ele>
        <time>2019-03-23T15:20:23Z</time>
      </trkpt>
      <trkpt lat="44.39593" lon="5.72915">
        <ele>637</ele>
        <time>2019-03-23T15:20:24Z</time>
      </trkpt>
      <trkpt lat="44.39587" lon="5.72922">
        <ele>637</ele>
        <time>2019-03-23T15:20:25Z</time>
      </trkpt>
      <trkpt lat="44.3958" lon="5.72929">
        <ele>637</ele>
        <time>2019-03-23T15:20:26Z</time>
      </trkpt>
      <trkpt lat="44.39574" lon="5.72935">
        <ele>637</ele>
        <time>2019-03-23T15:20:27Z</time>
      </trkpt>
      <trkpt lat="44.39567" lon="5.72942">
        <ele>637</ele>
        <time>2019-03-23T15:20:28Z</time>
      </trkpt>
      <trkpt lat="44.3956" lon="5.72948">
        <ele>636</ele>
        <time>2019-03-23T15:20:29Z</time>
      </trkpt>
      <trkpt lat="44.39552" lon="5.72955">
        <ele>636</ele>
        <time>2019-03-23T15:20:30Z</time>
      </trkpt>
      <trkpt lat="44.39544" lon="5.7296">
        <ele>636</ele>
        <time>2019-03-23T15:20:31Z</time>
      </trkpt>
      <trkpt lat="44.39536" lon="5.72965">
        <ele>635</ele>
        <time>2019-03-23T15:20:32Z</time>
      </trkpt>
      <trkpt lat="44.39527" lon="5.7297">
        <ele>635</ele>
        <time>2019-03-23T15:20:33Z</time>
      </trkpt>
      <trkpt lat="44.39518" lon="5.72974">
        <ele>635</ele>
        <time>2019-03-23T15:20:34Z</time>
      </trkpt>
      <trkpt lat="44.39508" lon="5.72978">
        <ele>635</ele>
        <time>2019-03-23T15:20:35Z</time>
      </trkpt>
      <trkpt lat="44.395" lon="5.72982">
        <ele>635</ele>
        <time>2019-03-23T15:20:36Z</time>
      </trkpt>
      <trkpt lat="44.39491" lon="5.72984">
        <ele>634</ele>
        <time>2019-03-23T15:20:37Z</time>
      </trkpt>
      <trkpt lat="44.39482" lon="5.72987">
        <ele>634</ele>
        <time>2019-03-23T15:20:38Z</time>
      </trkpt>
      <trkpt lat="44.39473" lon="5.72991">
        <ele>634</ele>
        <time>2019-03-23T15:20:39Z</time>
      </trkpt>
      <trkpt lat="44.39464" lon="5.72996">
        <ele>633</ele>
        <time>2019-03-23T15:20:40Z</time>
      </trkpt>
      <trkpt lat="44.39455" lon="5.73001">
        <ele>633</ele>
        <time>2019-03-23T15:20:41Z</time>
      </trkpt>
      <trkpt lat="44.39447" lon="5.73007">
        <ele>633</ele>
        <time>2019-03-23T15:20:42Z</time>
      </trkpt>
      <trkpt lat="44.39439" lon="5.73013">
        <ele>632</ele>
        <time>2019-03-23T15:20:43Z</time>
      </trkpt>
      <trkpt lat="44.39431" lon="5.73019">
        <ele>632</ele>
        <time>2019-03-23T15:20:44Z</time>
      </trkpt>
      <trkpt lat="44.39423" lon="5.73025">
        <ele>632</ele>
        <time>2019-03-23T15:20:45Z</time>
      </trkpt>
      <trkpt lat="44.39414" lon="5.73031">
        <ele>631</ele>
        <time>2019-03-23T15:20:46Z</time>
      </trkpt>
      <trkpt lat="44.39406" lon="5.73035">
        <ele>631</ele>
        <time>2019-03-23T15:20:47Z</time>
      </trkpt>
      <trkpt lat="44.39397" lon="5.73039">
        <ele>631</ele>
        <time>2019-03-23T15:20:48Z</time>
      </trkpt>
      <trkpt lat="44.39389" lon="5.73043">
        <ele>630</ele>
        <time>2019-03-23T15:20:49Z</time>
      </trkpt>
      <trkpt lat="44.39381" lon="5.73046">
        <ele>630</ele>
        <time>2019-03-23T15:20:50Z</time>
      </trkpt>
      <trkpt lat="44.39372" lon="5.73049">
        <ele>630</ele>
        <time>2019-03-23T15:20:51Z</time>
      </trkpt>
      <trkpt lat="44.39364" lon="5.73052">
        <ele>629</ele>
        <time>2019-03-23T15:20:52Z</time>
      </trkpt>
      <trkpt lat="44.39356" lon="5.73055">
        <ele>629</ele>
        <time>2019-03-23T15:20:53Z</time>
      </trkpt>
      <trkpt lat="44.39347" lon="5.73057">
        <ele>629</ele>
        <time>2019-03-23T15:20:54Z</time>
      </trkpt>
      <trkpt lat="44.39339" lon="5.7306">
        <ele>629</ele>
        <time>2019-03-23T15:20:55Z</time>
      </trkpt>
      <trkpt lat="44.39331" lon="5.73063">
        <ele>629</ele>
        <time>2019-03-23T15:20:56Z</time>
      </trkpt>
      <trkpt lat="44.39323" lon="5.73066">
        <ele>629</ele>
        <time>2019-03-23T15:20:57Z</time>
      </trkpt>
      <trkpt lat="44.39316" lon="5.73069">
        <ele>629</ele>
        <time>2019-03-23T15:20:58Z</time>
      </trkpt>
      <trkpt lat="44.39308" lon="5.73071">
        <ele>629</ele>
        <time>2019-03-23T15:20:59Z</time>
      </trkpt>
      <trkpt lat="44.39301" lon="5.73074">
        <ele>629</ele>
        <time>2019-03-23T15:21:00Z</time>
      </trkpt>
      <trkpt lat="44.39293" lon="5.73077">
        <ele>629</ele>
        <time>2019-03-23T15:21:01Z</time>
      </trkpt>
      <trkpt lat="44.39286" lon="5.7308">
        <ele>629</ele>
        <time>2019-03-23T15:21:02Z</time>
      </trkpt>
      <trkpt lat="44.39279" lon="5.73082">
        <ele>629</ele>
        <time>2019-03-23T15:21:03Z</time>
      </trkpt>
      <trkpt lat="44.39272" lon="5.73084">
        <ele>629</ele>
        <time>2019-03-23T15:21:04Z</time>
      </trkpt>
      <trkpt lat="44.39264" lon="5.73087">
        <ele>629</ele>
        <time>2019-03-23T15:21:05Z</time>
      </trkpt>
      <trkpt lat="44.39257" lon="5.73088">
        <ele>629</ele>
        <time>2019-03-23T15:21:06Z</time>
      </trkpt>
      <trkpt lat="44.3925" lon="5.7309">
        <ele>629</ele>
        <time>2019-03-23T15:21:07Z</time>
      </trkpt>
      <trkpt lat="44.39243" lon="5.73091">
        <ele>629</ele>
        <time>2019-03-23T15:21:08Z</time>
      </trkpt>
      <trkpt lat="44.39236" lon="5.73091">
        <ele>629</ele>
        <time>2019-03-23T15:21:09Z</time>
      </trkpt>
      <trkpt lat="44.39228" lon="5.73091">
        <ele>629</ele>
        <time>2019-03-23T15:21:10Z</time>
      </trkpt>
      <trkpt lat="44.39221" lon="5.73091">
        <ele>629</ele>
        <time>2019-03-23T15:21:11Z</time>
      </trkpt>
      <trkpt lat="44.39214" lon="5.73089">
        <ele>629</ele>
        <time>2019-03-23T15:21:12Z</time>
      </trkpt>
      <trkpt lat="44.39207" lon="5.73087">
        <ele>629</ele>
        <time>2019-03-23T15:21:13Z</time>
      </trkpt>
      <trkpt lat="44.39201" lon="5.73084">
        <ele>629</ele>
        <time>2019-03-23T15:21:14Z</time>
      </trkpt>
      <trkpt lat="44.39194" lon="5.73081">
        <ele>629</ele>
        <time>2019-03-23T15:21:15Z</time>
      </trkpt>
      <trkpt lat="44.39188" lon="5.73077">
        <ele>629</ele>
        <time>2019-03-23T15:21:16Z</time>
      </trkpt>
      <trkpt lat="44.39181" lon="5.73072">
        <ele>629</ele>
        <time>2019-03-23T15:21:17Z</time>
      </trkpt>
      <trkpt lat="44.39175" lon="5.73068">
        <ele>629</ele>
        <time>2019-03-23T15:21:18Z</time>
      </trkpt>
      <trkpt lat="44.39169" lon="5.73063">
        <ele>629</ele>
        <time>2019-03-23T15:21:19Z</time>
      </trkpt>
      <trkpt lat="44.39162" lon="5.73057">
        <ele>629</ele>
        <time>2019-03-23T15:21:20Z</time>
      </trkpt>
      <trkpt lat="44.39156" lon="5.73052">
        <ele>629</ele>
        <time>2019-03-23T15:21:21Z</time>
      </trkpt>
      <trkpt lat="44.3915" lon="5.73045">
        <ele>629</ele>
        <time>2019-03-23T15:21:22Z</time>
      </trkpt>
      <trkpt lat="44.39144" lon="5.73039">
        <ele>629</ele>
        <time>2019-03-23T15:21:23Z</time>
      </trkpt>
      <trkpt lat="44.39138" lon="5.73034">
        <ele>629</ele>
        <time>2019-03-23T15:21:24Z</time>
      </trkpt>
      <trkpt lat="44.39132" lon="5.73028">
        <ele>629</ele>
        <time>2019-03-23T15:21:25Z</time>
      </trkpt>
      <trkpt lat="44.39125" lon="5.73023">
        <ele>628</ele>
        <time>2019-03-23T15:21:26Z</time>
      </trkpt>
      <trkpt lat="44.3912" lon="5.73018">
        <ele>628</ele>
        <time>2019-03-23T15:21:27Z</time>
      </trkpt>
      <trkpt lat="44.39114" lon="5.73013">
        <ele>628</ele>
        <time>2019-03-23T15:21:28Z</time>
      </trkpt>
      <trkpt lat="44.39108" lon="5.73008">
        <ele>628</ele>
        <time>2019-03-23T15:21:29Z</time>
      </trkpt>
      <trkpt lat="44.39102" lon="5.73004">
        <ele>628</ele>
        <time>2019-03-23T15:21:30Z</time>
      </trkpt>
      <trkpt lat="44.39096" lon="5.73001">
        <ele>628</ele>
        <time>2019-03-23T15:21:31Z</time>
      </trkpt>
      <trkpt lat="44.3909" lon="5.72999">
        <ele>628</ele>
        <time>2019-03-23T15:21:32Z</time>
      </trkpt>
      <trkpt lat="44.39084" lon="5.72997">
        <ele>628</ele>
        <time>2019-03-23T15:21:33Z</time>
      </trkpt>
      <trkpt lat="44.39078" lon="5.72996">
        <ele>628</ele>
        <time>2019-03-23T15:21:34Z</time>
      </trkpt>
      <trkpt lat="44.39071" lon="5.72994">
        <ele>628</ele>
        <time>2019-03-23T15:21:35Z</time>
      </trkpt>
      <trkpt lat="44.39065" lon="5.72994">
        <ele>628</ele>
        <time>2019-03-23T15:21:36Z</time>
      </trkpt>
      <trkpt lat="44.39058" lon="5.72993">
        <ele>628</ele>
        <time>2019-03-23T15:21:37Z</time>
      </trkpt>
      <trkpt lat="44.39052" lon="5.72994">
        <ele>628</ele>
        <time>2019-03-23T15:21:38Z</time>
      </trkpt>
      <trkpt lat="44.39045" lon="5.72995">
        <ele>628</ele>
        <time>2019-03-23T15:21:39Z</time>
      </trkpt>
      <trkpt lat="44.39038" lon="5.72996">
        <ele>628</ele>
        <time>2019-03-23T15:21:40Z</time>
      </trkpt>
      <trkpt lat="44.39031" lon="5.72998">
        <ele>628</ele>
        <time>2019-03-23T15:21:41Z</time>
      </trkpt>
      <trkpt lat="44.39024" lon="5.73001">
        <ele>628</ele>
        <time>2019-03-23T15:21:42Z</time>
      </trkpt>
      <trkpt lat="44.39016" lon="5.73004">
        <ele>628</ele>
        <time>2019-03-23T15:21:43Z</time>
      </trkpt>
      <trkpt lat="44.39009" lon="5.73009">
        <ele>627</ele>
        <time>2019-03-23T15:21:44Z</time>
      </trkpt>
      <trkpt lat="44.39002" lon="5.73014">
        <ele>627</ele>
        <time>2019-03-23T15:21:45Z</time>
      </trkpt>
      <trkpt lat="44.38995" lon="5.73019">
        <ele>626</ele>
        <time>2019-03-23T15:21:46Z</time>
      </trkpt>
      <trkpt lat="44.38987" lon="5.73025">
        <ele>626</ele>
        <time>2019-03-23T15:21:47Z</time>
      </trkpt>
      <trkpt lat="44.3898" lon="5.73032">
        <ele>625</ele>
        <time>2019-03-23T15:21:48Z</time>
      </trkpt>
      <trkpt lat="44.38972" lon="5.73038">
        <ele>625</ele>
        <time>2019-03-23T15:21:49Z</time>
      </trkpt>
      <trkpt lat="44.38965" lon="5.73044">
        <ele>624</ele>
        <time>2019-03-23T15:21:50Z</time>
      </trkpt>
      <trkpt lat="44.38957" lon="5.7305">
        <ele>624</ele>
        <time>2019-03-23T15:21:51Z</time>
      </trkpt>
      <trkpt lat="44.3895" lon="5.73057">
        <ele>623</ele>
        <time>2019-03-23T15:21:52Z</time>
      </trkpt>
      <trkpt lat="44.38942" lon="5.73064">
        <ele>622</ele>
        <time>2019-03-23T15:21:53Z</time>
      </trkpt>
      <trkpt lat="44.38935" lon="5.73071">
        <ele>622</ele>
        <time>2019-03-23T15:21:54Z</time>
      </trkpt>
      <trkpt lat="44.38928" lon="5.73078">
        <ele>622</ele>
        <time>2019-03-23T15:21:55Z</time>
      </trkpt>
      <trkpt lat="44.3892" lon="5.73084">
        <ele>622</ele>
        <time>2019-03-23T15:21:56Z</time>
      </trkpt>
      <trkpt lat="44.38913" lon="5.73091">
        <ele>622</ele>
        <time>2019-03-23T15:21:57Z</time>
      </trkpt>
      <trkpt lat="44.38906" lon="5.73097">
        <ele>622</ele>
        <time>2019-03-23T15:21:58Z</time>
      </trkpt>
      <trkpt lat="44.38898" lon="5.73103">
        <ele>622</ele>
        <time>2019-03-23T15:21:59Z</time>
      </trkpt>
      <trkpt lat="44.38891" lon="5.73109">
        <ele>622</ele>
        <time>2019-03-23T15:22:00Z</time>
      </trkpt>
      <trkpt lat="44.38884" lon="5.73114">
        <ele>622</ele>
        <time>2019-03-23T15:22:01Z</time>
      </trkpt>
      <trkpt lat="44.38876" lon="5.73119">
        <ele>622</ele>
        <time>2019-03-23T15:22:02Z</time>
      </trkpt>
      <trkpt lat="44.38869" lon="5.73125">
        <ele>622</ele>
        <time>2019-03-23T15:22:03Z</time>
      </trkpt>
      <trkpt lat="44.38861" lon="5.7313">
        <ele>622</ele>
        <time>2019-03-23T15:22:04Z</time>
      </trkpt>
      <trkpt lat="44.38854" lon="5.73135">
        <ele>622</ele>
        <time>2019-03-23T15:22:05Z</time>
      </trkpt>
      <trkpt lat="44.38846" lon="5.73139">
        <ele>622</ele>
        <time>2019-03-23T15:22:06Z</time>
      </trkpt>
      <trkpt lat="44.38839" lon="5.73144">
        <ele>622</ele>
        <time>2019-03-23T15:22:07Z</time>
      </trkpt>
      <trkpt lat="44.38831" lon="5.73148">
        <ele>622</ele>
        <time>2019-03-23T15:22:08Z</time>
      </trkpt>
      <trkpt lat="44.38824" lon="5.73153">
        <ele>622</ele>
        <time>2019-03-23T15:22:09Z</time>
      </trkpt>
      <trkpt lat="44.38816" lon="5.73158">
        <ele>622</ele>
        <time>2019-03-23T15:22:10Z</time>
      </trkpt>
      <trkpt lat="44.38809" lon="5.73162">
        <ele>622</ele>
        <time>2019-03-23T15:22:11Z</time>
      </trkpt>
      <trkpt lat="44.38801" lon="5.73167">
        <ele>622</ele>
        <time>2019-03-23T15:22:12Z</time>
      </trkpt>
      <trkpt lat="44.38794" lon="5.73171">
        <ele>622</ele>
        <time>2019-03-23T15:22:13Z</time>
      </trkpt>
      <trkpt lat="44.38787" lon="5.73176">
        <ele>622</ele>
        <time>2019-03-23T15:22:14Z</time>
      </trkpt>
      <trkpt lat="44.38779" lon="5.73181">
        <ele>621</ele>
        <time>2019-03-23T15:22:15Z</time>
      </trkpt>
      <trkpt lat="44.38772" lon="5.73187">
        <ele>621</ele>
        <time>2019-03-23T15:22:16Z</time>
      </trkpt>
      <trkpt lat="44.38765" lon="5.73193">
        <ele>621</ele>
        <time>2019-03-23T15:22:17Z</time>
      </trkpt>
      <trkpt lat="44.38758" lon="5.73198">
        <ele>621</ele>
        <time>2019-03-23T15:22:18Z</time>
      </trkpt>
      <trkpt lat="44.38751" lon="5.73204">
        <ele>621</ele>
        <time>2019-03-23T15:22:19Z</time>
      </trkpt>
      <trkpt lat="44.38744" lon="5.73209">
        <ele>621</ele>
        <time>2019-03-23T15:22:20Z</time>
      </trkpt>
      <trkpt lat="44.38738" lon="5.73215">
        <ele>621</ele>
        <time>2019-03-23T15:22:21Z</time>
      </trkpt>
      <trkpt lat="44.38731" lon="5.7322">
        <ele>620</ele>
        <time>2019-03-23T15:22:22Z</time>
      </trkpt>
      <trkpt lat="44.38725" lon="5.73225">
        <ele>620</ele>
        <time>2019-03-23T15:22:23Z</time>
      </trkpt>
      <trkpt lat="44.38717" lon="5.73231">
        <ele>620</ele>
        <time>2019-03-23T15:22:24Z</time>
      </trkpt>
      <trkpt lat="44.3871" lon="5.73237">
        <ele>620</ele>
        <time>2019-03-23T15:22:25Z</time>
      </trkpt>
      <trkpt lat="44.38704" lon="5.73242">
        <ele>620</ele>
        <time>2019-03-23T15:22:26Z</time>
      </trkpt>
      <trkpt lat="44.38697" lon="5.73246">
        <ele>620</ele>
        <time>2019-03-23T15:22:27Z</time>
      </trkpt>
      <trkpt lat="44.3869" lon="5.73251">
        <ele>620</ele>
        <time>2019-03-23T15:22:28Z</time>
      </trkpt>
      <trkpt lat="44.38683" lon="5.73257">
        <ele>620</ele>
        <time>2019-03-23T15:22:29Z</time>
      </trkpt>
      <trkpt lat="44.38676" lon="5.73262">
        <ele>620</ele>
        <time>2019-03-23T15:22:30Z</time>
      </trkpt>
      <trkpt lat="44.38669" lon="5.73267">
        <ele>619</ele>
        <time>2019-03-23T15:22:31Z</time>
      </trkpt>
      <trkpt lat="44.38662" lon="5.73272">
        <ele>619</ele>
        <time>2019-03-23T15:22:32Z</time>
      </trkpt>
      <trkpt lat="44.38655" lon="5.73277">
        <ele>619</ele>
        <time>2019-03-23T15:22:33Z</time>
      </trkpt>
      <trkpt lat="44.38648" lon="5.73283">
        <ele>618</ele>
        <time>2019-03-23T15:22:34Z</time>
      </trkpt>
      <trkpt lat="44.38641" lon="5.73287">
        <ele>618</ele>
        <time>2019-03-23T15:22:35Z</time>
      </trkpt>
      <trkpt lat="44.38634" lon="5.73292">
        <ele>618</ele>
        <time>2019-03-23T15:22:36Z</time>
      </trkpt>
      <trkpt lat="44.38627" lon="5.73296">
        <ele>618</ele>
        <time>2019-03-23T15:22:37Z</time>
      </trkpt>
      <trkpt lat="44.3862" lon="5.73301">
        <ele>618</ele>
        <time>2019-03-23T15:22:38Z</time>
      </trkpt>
      <trkpt lat="44.38613" lon="5.73305">
        <ele>618</ele>
        <time>2019-03-23T15:22:39Z</time>
      </trkpt>
      <trkpt lat="44.38607" lon="5.73309">
        <ele>618</ele>
        <time>2019-03-23T15:22:40Z</time>
      </trkpt>
      <trkpt lat="44.386" lon="5.73313">
        <ele>618</ele>
        <time>2019-03-23T15:22:41Z</time>
      </trkpt>
      <trkpt lat="44.38594" lon="5.73316">
        <ele>617</ele>
        <time>2019-03-23T15:22:42Z</time>
      </trkpt>
      <trkpt lat="44.38588" lon="5.7332">
        <ele>617</ele>
        <time>2019-03-23T15:22:43Z</time>
      </trkpt>
      <trkpt lat="44.38582" lon="5.73324">
        <ele>617</ele>
        <time>2019-03-23T15:22:44Z</time>
      </trkpt>
      <trkpt lat="44.38576" lon="5.73328">
        <ele>617</ele>
        <time>2019-03-23T15:22:45Z</time>
      </trkpt>
      <trkpt lat="44.3857" lon="5.73331">
        <ele>617</ele>
        <time>2019-03-23T15:22:46Z</time>
      </trkpt>
      <trkpt lat="44.38565" lon="5.73334">
        <ele>617</ele>
        <time>2019-03-23T15:22:47Z</time>
      </trkpt>
      <trkpt lat="44.38559" lon="5.73337">
        <ele>617</ele>
        <time>2019-03-23T15:22:48Z</time>
      </trkpt>
      <trkpt lat="44.38554" lon="5.73339">
        <ele>617</ele>
        <time>2019-03-23T15:22:49Z</time>
      </trkpt>
      <trkpt lat="44.38549" lon="5.73342">
        <ele>617</ele>
        <time>2019-03-23T15:22:50Z</time>
      </trkpt>
      <trkpt lat="44.38544" lon="5.73344">
        <ele>617</ele>
        <time>2019-03-23T15:22:51Z</time>
      </trkpt>
      <trkpt lat="44.38538" lon="5.73347">
        <ele>617</ele>
        <time>2019-03-23T15:22:52Z</time>
      </trkpt>
      <trkpt lat="44.38533" lon="5.73347">
        <ele>617</ele>
        <time>2019-03-23T15:22:53Z</time>
      </trkpt>
      <trkpt lat="44.38529" lon="5.73348">
        <ele>617</ele>
        <time>2019-03-23T15:22:54Z</time>
      </trkpt>
      <trkpt lat="44.38524" lon="5.73348">
        <ele>617</ele>
        <time>2019-03-23T15:22:55Z</time>
      </trkpt>
      <trkpt lat="44.38519" lon="5.73348">
        <ele>617</ele>
        <time>2019-03-23T15:22:56Z</time>
      </trkpt>
      <trkpt lat="44.38515" lon="5.73347">
        <ele>617</ele>
        <time>2019-03-23T15:22:57Z</time>
      </trkpt>
      <trkpt lat="44.38511" lon="5.73347">
        <ele>617</ele>
        <time>2019-03-23T15:22:58Z</time>
      </trkpt>
      <trkpt lat="44.38506" lon="5.73347">
        <ele>617</ele>
        <time>2019-03-23T15:22:59Z</time>
      </trkpt>
      <trkpt lat="44.38501" lon="5.73347">
        <ele>617</ele>
        <time>2019-03-23T15:23:00Z</time>
      </trkpt>
      <trkpt lat="44.38497" lon="5.73348">
        <ele>617</ele>
        <time>2019-03-23T15:23:01Z</time>
      </trkpt>
      <trkpt lat="44.38492" lon="5.73348">
        <ele>617</ele>
        <time>2019-03-23T15:23:02Z</time>
      </trkpt>
      <trkpt lat="44.38488" lon="5.7335">
        <ele>618</ele>
        <time>2019-03-23T15:23:03Z</time>
      </trkpt>
      <trkpt lat="44.38483" lon="5.73351">
        <ele>619</ele>
        <time>2019-03-23T15:23:04Z</time>
      </trkpt>
      <trkpt lat="44.38478" lon="5.73354">
        <ele>619</ele>
        <time>2019-03-23T15:23:05Z</time>
      </trkpt>
      <trkpt lat="44.38474" lon="5.73356">
        <ele>620</ele>
        <time>2019-03-23T15:23:06Z</time>
      </trkpt>
      <trkpt lat="44.38469" lon="5.73359">
        <ele>620</ele>
        <time>2019-03-23T15:23:07Z</time>
      </trkpt>
      <trkpt lat="44.38465" lon="5.73363">
        <ele>621</ele>
        <time>2019-03-23T15:23:08Z</time>
      </trkpt>
      <trkpt lat="44.38461" lon="5.73367">
        <ele>622</ele>
        <time>2019-03-23T15:23:09Z</time>
      </trkpt>
      <trkpt lat="44.38458" lon="5.73371">
        <ele>622</ele>
        <time>2019-03-23T15:23:10Z</time>
      </trkpt>
      <trkpt lat="44.38454" lon="5.73375">
        <ele>623</ele>
        <time>2019-03-23T15:23:11Z</time>
      </trkpt>
      <trkpt lat="44.38451" lon="5.73379">
        <ele>624</ele>
        <time>2019-03-23T15:23:12Z</time>
      </trkpt>
      <trkpt lat="44.38448" lon="5.73383">
        <ele>624</ele>
        <time>2019-03-23T15:23:13Z</time>
      </trkpt>
      <trkpt lat="44.38446" lon="5.73388">
        <ele>625</ele>
        <time>2019-03-23T15:23:14Z</time>
      </trkpt>
      <trkpt lat="44.38443" lon="5.73393">
        <ele>626</ele>
        <time>2019-03-23T15:23:15Z</time>
      </trkpt>
      <trkpt lat="44.3844" lon="5.73399">
        <ele>627</ele>
        <time>2019-03-23T15:23:16Z</time>
      </trkpt>
      <trkpt lat="44.38437" lon="5.73405">
        <ele>627</ele>
        <time>2019-03-23T15:23:17Z</time>
      </trkpt>
      <trkpt lat="44.38433" lon="5.7341">
        <ele>628</ele>
        <time>2019-03-23T15:23:18Z</time>
      </trkpt>
      <trkpt lat="44.38429" lon="5.73415">
        <ele>629</ele>
        <time>2019-03-23T15:23:19Z</time>
      </trkpt>
      <trkpt lat="44.38425" lon="5.7342">
        <ele>630</ele>
        <time>2019-03-23T15:23:20Z</time>
      </trkpt>
      <trkpt lat="44.38421" lon="5.73423">
        <ele>630</ele>
        <time>2019-03-23T15:23:21Z</time>
      </trkpt>
      <trkpt lat="44.38417" lon="5.73426">
        <ele>631</ele>
        <time>2019-03-23T15:23:22Z</time>
      </trkpt>
      <trkpt lat="44.38413" lon="5.73428">
        <ele>631</ele>
        <time>2019-03-23T15:23:23Z</time>
      </trkpt>
      <trkpt lat="44.38408" lon="5.73428">
        <ele>632</ele>
        <time>2019-03-23T15:23:24Z</time>
      </trkpt>
      <trkpt lat="44.38403" lon="5.73427">
        <ele>632</ele>
        <time>2019-03-23T15:23:25Z</time>
      </trkpt>
      <trkpt lat="44.38399" lon="5.73425">
        <ele>632</ele>
        <time>2019-03-23T15:23:26Z</time>
      </trkpt>
      <trkpt lat="44.38394" lon="5.73423">
        <ele>632</ele>
        <time>2019-03-23T15:23:27Z</time>
      </trkpt>
      <trkpt lat="44.3839" lon="5.73421">
        <ele>632</ele>
        <time>2019-03-23T15:23:28Z</time>
      </trkpt>
      <trkpt lat="44.38385" lon="5.73419">
        <ele>632</ele>
        <time>2019-03-23T15:23:29Z</time>
      </trkpt>
      <trkpt lat="44.3838" lon="5.73418">
        <ele>632</ele>
        <time>2019-03-23T15:23:30Z</time>
      </trkpt>
      <trkpt lat="44.38375" lon="5.73417">
        <ele>632</ele>
        <time>2019-03-23T15:23:31Z</time>
      </trkpt>
      <trkpt lat="44.38371" lon="5.73416">
        <ele>632</ele>
        <time>2019-03-23T15:23:32Z</time>
      </trkpt>
      <trkpt lat="44.38366" lon="5.73415">
        <ele>632</ele>
        <time>2019-03-23T15:23:33Z</time>
      </trkpt>
      <trkpt lat="44.3836" lon="5.73414">
        <ele>632</ele>
        <time>2019-03-23T15:23:34Z</time>
      </trkpt>
      <trkpt lat="44.38355" lon="5.73413">
        <ele>632</ele>
        <time>2019-03-23T15:23:35Z</time>
      </trkpt>
      <trkpt lat="44.38349" lon="5.73412">
        <ele>632</ele>
        <time>2019-03-23T15:23:36Z</time>
      </trkpt>
      <trkpt lat="44.38344" lon="5.73411">
        <ele>632</ele>
        <time>2019-03-23T15:23:37Z</time>
      </trkpt>
      <trkpt lat="44.38338" lon="5.7341">
        <ele>632</ele>
        <time>2019-03-23T15:23:38Z</time>
      </trkpt>
      <trkpt lat="44.38332" lon="5.73409">
        <ele>632</ele>
        <time>2019-03-23T15:23:39Z</time>
      </trkpt>
      <trkpt lat="44.38326" lon="5.73409">
        <ele>632</ele>
        <time>2019-03-23T15:23:40Z</time>
      </trkpt>
      <trkpt lat="44.3832" lon="5.73408">
        <ele>632</ele>
        <time>2019-03-23T15:23:41Z</time>
      </trkpt>
      <trkpt lat="44.38313" lon="5.73407">
        <ele>632</ele>
        <time>2019-03-23T15:23:42Z</time>
      </trkpt>
      <trkpt lat="44.38307" lon="5.73406">
        <ele>632</ele>
        <time>2019-03-23T15:23:43Z</time>
      </trkpt>
      <trkpt lat="44.383" lon="5.73405">
        <ele>632</ele>
        <time>2019-03-23T15:23:44Z</time>
      </trkpt>
      <trkpt lat="44.38294" lon="5.73404">
        <ele>632</ele>
        <time>2019-03-23T15:23:45Z</time>
      </trkpt>
      <trkpt lat="44.38287" lon="5.73404">
        <ele>632</ele>
        <time>2019-03-23T15:23:46Z</time>
      </trkpt>
      <trkpt lat="44.3828" lon="5.73403">
        <ele>632</ele>
        <time>2019-03-23T15:23:47Z</time>
      </trkpt>
      <trkpt lat="44.38273" lon="5.73401">
        <ele>631</ele>
        <time>2019-03-23T15:23:48Z</time>
      </trkpt>
      <trkpt lat="44.38266" lon="5.734">
        <ele>631</ele>
        <time>2019-03-23T15:23:49Z</time>
      </trkpt>
      <trkpt lat="44.38259" lon="5.73399">
        <ele>631</ele>
        <time>2019-03-23T15:23:50Z</time>
      </trkpt>
      <trkpt lat="44.38252" lon="5.73399">
        <ele>631</ele>
        <time>2019-03-23T15:23:51Z</time>
      </trkpt>
      <trkpt lat="44.38244" lon="5.73398">
        <ele>631</ele>
        <time>2019-03-23T15:23:52Z</time>
      </trkpt>
      <trkpt lat="44.38237" lon="5.73397">
        <ele>630</ele>
        <time>2019-03-23T15:23:53Z</time>
      </trkpt>
      <trkpt lat="44.38229" lon="5.73396">
        <ele>630</ele>
        <time>2019-03-23T15:23:54Z</time>
      </trkpt>
      <trkpt lat="44.38222" lon="5.73394">
        <ele>630</ele>
        <time>2019-03-23T15:23:55Z</time>
      </trkpt>
      <trkpt lat="44.38214" lon="5.73393">
        <ele>630</ele>
        <time>2019-03-23T15:23:56Z</time>
      </trkpt>
      <trkpt lat="44.38206" lon="5.73392">
        <ele>629</ele>
        <time>2019-03-23T15:23:57Z</time>
      </trkpt>
      <trkpt lat="44.38198" lon="5.7339">
        <ele>629</ele>
        <time>2019-03-23T15:23:58Z</time>
      </trkpt>
      <trkpt lat="44.38191" lon="5.73389">
        <ele>629</ele>
        <time>2019-03-23T15:23:59Z</time>
      </trkpt>
      <trkpt lat="44.38183" lon="5.73387">
        <ele>629</ele>
        <time>2019-03-23T15:24:00Z</time>
      </trkpt>
      <trkpt lat="44.38176" lon="5.73386">
        <ele>629</ele>
        <time>2019-03-23T15:24:01Z</time>
      </trkpt>
      <trkpt lat="44.38169" lon="5.73385">
        <ele>629</ele>
        <time>2019-03-23T15:24:02Z</time>
      </trkpt>
      <trkpt lat="44.38161" lon="5.73384">
        <ele>629</ele>
        <time>2019-03-23T15:24:03Z</time>
      </trkpt>
      <trkpt lat="44.38155" lon="5.73382">
        <ele>629</ele>
        <time>2019-03-23T15:24:04Z</time>
      </trkpt>
      <trkpt lat="44.38148" lon="5.73381">
        <ele>628</ele>
        <time>2019-03-23T15:24:05Z</time>
      </trkpt>
      <trkpt lat="44.38141" lon="5.7338">
        <ele>628</ele>
        <time>2019-03-23T15:24:06Z</time>
      </trkpt>
      <trkpt lat="44.38135" lon="5.7338">
        <ele>628</ele>
        <time>2019-03-23T15:24:07Z</time>
      </trkpt>
      <trkpt lat="44.38129" lon="5.73379">
        <ele>628</ele>
        <time>2019-03-23T15:24:08Z</time>
      </trkpt>
      <trkpt lat="44.38123" lon="5.73378">
        <ele>628</ele>
        <time>2019-03-23T15:24:09Z</time>
      </trkpt>
      <trkpt lat="44.38117" lon="5.73377">
        <ele>628</ele>
        <time>2019-03-23T15:24:10Z</time>
      </trkpt>
      <trkpt lat="44.38111" lon="5.73377">
        <ele>628</ele>
        <time>2019-03-23T15:24:11Z</time>
      </trkpt>
      <trkpt lat="44.38105" lon="5.73377">
        <ele>628</ele>
        <time>2019-03-23T15:24:12Z</time>
      </trkpt>
      <trkpt lat="44.38099" lon="5.73376">
        <ele>628</ele>
        <time>2019-03-23T15:24:13Z</time>
      </trkpt>
      <trkpt lat="44.38093" lon="5.73376">
        <ele>628</ele>
        <time>2019-03-23T15:24:14Z</time>
      </trkpt>
      <trkpt lat="44.38087" lon="5.73376">
        <ele>628</ele>
        <time>2019-03-23T15:24:15Z</time>
      </trkpt>
      <trkpt lat="44.38081" lon="5.73375">
        <ele>628</ele>
        <time>2019-03-23T15:24:16Z</time>
      </trkpt>
      <trkpt lat="44.38076" lon="5.73375">
        <ele>628</ele>
        <time>2019-03-23T15:24:17Z</time>
      </trkpt>
      <trkpt lat="44.3807" lon="5.73374">
        <ele>628</ele>
        <time>2019-03-23T15:24:18Z</time>
      </trkpt>
      <trkpt lat="44.38065" lon="5.73373">
        <ele>628</ele>
        <time>2019-03-23T15:24:19Z</time>
      </trkpt>
      <trkpt lat="44.38059" lon="5.73372">
        <ele>628</ele>
        <time>2019-03-23T15:24:20Z</time>
      </trkpt>
      <trkpt lat="44.38054" lon="5.73371">
        <ele>628</ele>
        <time>2019-03-23T15:24:21Z</time>
      </trkpt>
      <trkpt lat="44.38049" lon="5.73369">
        <ele>628</ele>
        <time>2019-03-23T15:24:22Z</time>
      </trkpt>
      <trkpt lat="44.38044" lon="5.73368">
        <ele>628</ele>
        <time>2019-03-23T15:24:23Z</time>
      </trkpt>
      <trkpt lat="44.38039" lon="5.73366">
        <ele>628</ele>
        <time>2019-03-23T15:24:24Z</time>
      </trkpt>
      <trkpt lat="44.38035" lon="5.73365">
        <ele>628</ele>
        <time>2019-03-23T15:24:25Z</time>
      </trkpt>
      <trkpt lat="44.3803" lon="5.73364">
        <ele>628</ele>
        <time>2019-03-23T15:24:26Z</time>
      </trkpt>
      <trkpt lat="44.38025" lon="5.73363">
        <ele>628</ele>
        <time>2019-03-23T15:24:27Z</time>
      </trkpt>
      <trkpt lat="44.3802" lon="5.73362">
        <ele>628</ele>
        <time>2019-03-23T15:24:28Z</time>
      </trkpt>
      <trkpt lat="44.38015" lon="5.73361">
        <ele>628</ele>
        <time>2019-03-23T15:24:29Z</time>
      </trkpt>
      <trkpt lat="44.3801" lon="5.7336">
        <ele>628</ele>
        <time>2019-03-23T15:24:30Z</time>
      </trkpt>
      <trkpt lat="44.38006" lon="5.73359">
        <ele>628</ele>
        <time>2019-03-23T15:24:31Z</time>
      </trkpt>
      <trkpt lat="44.38001" lon="5.73358">
        <ele>628</ele>
        <time>2019-03-23T15:24:32Z</time>
      </trkpt>
      <trkpt lat="44.37996" lon="5.73356">
        <ele>628</ele>
        <time>2019-03-23T15:24:33Z</time>
      </trkpt>
      <trkpt lat="44.37991" lon="5.73355">
        <ele>628</ele>
        <time>2019-03-23T15:24:34Z</time>
      </trkpt>
      <trkpt lat="44.37986" lon="5.73353">
        <ele>628</ele>
        <time>2019-03-23T15:24:35Z</time>
      </trkpt>
      <trkpt lat="44.37981" lon="5.73353">
        <ele>628</ele>
        <time>2019-03-23T15:24:36Z</time>
      </trkpt>
      <trkpt lat="44.37975" lon="5.73352">
        <ele>628</ele>
        <time>2019-03-23T15:24:37Z</time>
      </trkpt>
      <trkpt lat="44.3797" lon="5.7335">
        <ele>628</ele>
        <time>2019-03-23T15:24:38Z</time>
      </trkpt>
      <trkpt lat="44.37965" lon="5.7335">
        <ele>628</ele>
        <time>2019-03-23T15:24:39Z</time>
      </trkpt>
      <trkpt lat="44.37959" lon="5.73352">
        <ele>628</ele>
        <time>2019-03-23T15:24:40Z</time>
      </trkpt>
      <trkpt lat="44.37954" lon="5.73354">
        <ele>628</ele>
        <time>2019-03-23T15:24:41Z</time>
      </trkpt>
      <trkpt lat="44.37948" lon="5.73358">
        <ele>628</ele>
        <time>2019-03-23T15:24:42Z</time>
      </trkpt>
      <trkpt lat="44.37943" lon="5.73362">
        <ele>628</ele>
        <time>2019-03-23T15:24:43Z</time>
      </trkpt>
      <trkpt lat="44.37938" lon="5.73368">
        <ele>628</ele>
        <time>2019-03-23T15:24:44Z</time>
      </trkpt>
      <trkpt lat="44.37932" lon="5.73374">
        <ele>628</ele>
        <time>2019-03-23T15:24:45Z</time>
      </trkpt>
      <trkpt lat="44.37927" lon="5.73381">
        <ele>628</ele>
        <time>2019-03-23T15:24:46Z</time>
      </trkpt>
      <trkpt lat="44.37921" lon="5.73387">
        <ele>628</ele>
        <time>2019-03-23T15:24:47Z</time>
      </trkpt>
      <trkpt lat="44.37915" lon="5.73394">
        <ele>628</ele>
        <time>2019-03-23T15:24:48Z</time>
      </trkpt>
      <trkpt lat="44.37909" lon="5.734">
        <ele>627</ele>
        <time>2019-03-23T15:24:49Z</time>
      </trkpt>
      <trkpt lat="44.37904" lon="5.73407">
        <ele>627</ele>
        <time>2019-03-23T15:24:50Z</time>
      </trkpt>
      <trkpt lat="44.37898" lon="5.73413">
        <ele>627</ele>
        <time>2019-03-23T15:24:51Z</time>
      </trkpt>
      <trkpt lat="44.37893" lon="5.73419">
        <ele>627</ele>
        <time>2019-03-23T15:24:52Z</time>
      </trkpt>
      <trkpt lat="44.37888" lon="5.73425">
        <ele>627</ele>
        <time>2019-03-23T15:24:53Z</time>
      </trkpt>
      <trkpt lat="44.37883" lon="5.73431">
        <ele>626</ele>
        <time>2019-03-23T15:24:54Z</time>
      </trkpt>
      <trkpt lat="44.37877" lon="5.73437">
        <ele>626</ele>
        <time>2019-03-23T15:24:55Z</time>
      </trkpt>
      <trkpt lat="44.37872" lon="5.73443">
        <ele>626</ele>
        <time>2019-03-23T15:24:56Z</time>
      </trkpt>
      <trkpt lat="44.37867" lon="5.73449">
        <ele>626</ele>
        <time>2019-03-23T15:24:57Z</time>
      </trkpt>
      <trkpt lat="44.37861" lon="5.73455">
        <ele>626</ele>
        <time>2019-03-23T15:24:58Z</time>
      </trkpt>
      <trkpt lat="44.37856" lon="5.73461">
        <ele>626</ele>
        <time>2019-03-23T15:24:59Z</time>
      </trkpt>
      <trkpt lat="44.37851" lon="5.73467">
        <ele>626</ele>
        <time>2019-03-23T15:25:00Z</time>
      </trkpt>
      <trkpt lat="44.37846" lon="5.73473">
        <ele>626</ele>
        <time>2019-03-23T15:25:01Z</time>
      </trkpt>
      <trkpt lat="44.37841" lon="5.73479">
        <ele>626</ele>
        <time>2019-03-23T15:25:02Z</time>
      </trkpt>
      <trkpt lat="44.37835" lon="5.73484">
        <ele>625</ele>
        <time>2019-03-23T15:25:03Z</time>
      </trkpt>
      <trkpt lat="44.3783" lon="5.7349">
        <ele>625</ele>
        <time>2019-03-23T15:25:04Z</time>
      </trkpt>
      <trkpt lat="44.37825" lon="5.73496">
        <ele>625</ele>
        <time>2019-03-23T15:25:05Z</time>
      </trkpt>
      <trkpt lat="44.3782" lon="5.73502">
        <ele>625</ele>
        <time>2019-03-23T15:25:06Z</time>
      </trkpt>
      <trkpt lat="44.37815" lon="5.73508">
        <ele>625</ele>
        <time>2019-03-23T15:25:07Z</time>
      </trkpt>
      <trkpt lat="44.37809" lon="5.73514">
        <ele>625</ele>
        <time>2019-03-23T15:25:08Z</time>
      </trkpt>
      <trkpt lat="44.37804" lon="5.7352">
        <ele>625</ele>
        <time>2019-03-23T15:25:09Z</time>
      </trkpt>
      <trkpt lat="44.37799" lon="5.73526">
        <ele>625</ele>
        <time>2019-03-23T15:25:10Z</time>
      </trkpt>
      <trkpt lat="44.37794" lon="5.73532">
        <ele>625</ele>
        <time>2019-03-23T15:25:11Z</time>
      </trkpt>
      <trkpt lat="44.37789" lon="5.73538">
        <ele>625</ele>
        <time>2019-03-23T15:25:12Z</time>
      </trkpt>
      <trkpt lat="44.37783" lon="5.73544">
        <ele>625</ele>
        <time>2019-03-23T15:25:13Z</time>
      </trkpt>
      <trkpt lat="44.37778" lon="5.7355">
        <ele>624</ele>
        <time>2019-03-23T15:25:14Z</time>
      </trkpt>
      <trkpt lat="44.37773" lon="5.73556">
        <ele>624</ele>
        <time>2019-03-23T15:25:15Z</time>
      </trkpt>
      <trkpt lat="44.37768" lon="5.73562">
        <ele>624</ele>
        <time>2019-03-23T15:25:16Z</time>
      </trkpt>
      <trkpt lat="44.37762" lon="5.73568">
        <ele>624</ele>
        <time>2019-03-23T15:25:17Z</time>
      </trkpt>
      <trkpt lat="44.37757" lon="5.73575">
        <ele>624</ele>
        <time>2019-03-23T15:25:18Z</time>
      </trkpt>
      <trkpt lat="44.37752" lon="5.73581">
        <ele>624</ele>
        <time>2019-03-23T15:25:19Z</time>
      </trkpt>
      <trkpt lat="44.37746" lon="5.73587">
        <ele>624</ele>
        <time>2019-03-23T15:25:20Z</time>
      </trkpt>
      <trkpt lat="44.3774" lon="5.73593">
        <ele>624</ele>
        <time>2019-03-23T15:25:21Z</time>
      </trkpt>
      <trkpt lat="44.37735" lon="5.73598">
        <ele>624</ele>
        <time>2019-03-23T15:25:22Z</time>
      </trkpt>
      <trkpt lat="44.37729" lon="5.73603">
        <ele>624</ele>
        <time>2019-03-23T15:25:23Z</time>
      </trkpt>
      <trkpt lat="44.37723" lon="5.73608">
        <ele>624</ele>
        <time>2019-03-23T15:25:24Z</time>
      </trkpt>
      <trkpt lat="44.37717" lon="5.73612">
        <ele>624</ele>
        <time>2019-03-23T15:25:25Z</time>
      </trkpt>
      <trkpt lat="44.37711" lon="5.73616">
        <ele>624</ele>
        <time>2019-03-23T15:25:26Z</time>
      </trkpt>
      <trkpt lat="44.37704" lon="5.73619">
        <ele>624</ele>
        <time>2019-03-23T15:25:27Z</time>
      </trkpt>
      <trkpt lat="44.37698" lon="5.73623">
        <ele>624</ele>
        <time>2019-03-23T15:25:28Z</time>
      </trkpt>
      <trkpt lat="44.37692" lon="5.73626">
        <ele>624</ele>
        <time>2019-03-23T15:25:29Z</time>
      </trkpt>
      <trkpt lat="44.37685" lon="5.7363">
        <ele>624</ele>
        <time>2019-03-23T15:25:30Z</time>
      </trkpt>
      <trkpt lat="44.37679" lon="5.73633">
        <ele>624</ele>
        <time>2019-03-23T15:25:31Z</time>
      </trkpt>
      <trkpt lat="44.37673" lon="5.73636">
        <ele>624</ele>
        <time>2019-03-23T15:25:32Z</time>
      </trkpt>
      <trkpt lat="44.37667" lon="5.73639">
        <ele>624</ele>
        <time>2019-03-23T15:25:33Z</time>
      </trkpt>
      <trkpt lat="44.37661" lon="5.73643">
        <ele>624</ele>
        <time>2019-03-23T15:25:34Z</time>
      </trkpt>
      <trkpt lat="44.37656" lon="5.73646">
        <ele>624</ele>
        <time>2019-03-23T15:25:35Z</time>
      </trkpt>
      <trkpt lat="44.37649" lon="5.7365">
        <ele>624</ele>
        <time>2019-03-23T15:25:36Z</time>
      </trkpt>
      <trkpt lat="44.37643" lon="5.73654">
        <ele>624</ele>
        <time>2019-03-23T15:25:37Z</time>
      </trkpt>
      <trkpt lat="44.37637" lon="5.73658">
        <ele>624</ele>
        <time>2019-03-23T15:25:38Z</time>
      </trkpt>
      <trkpt lat="44.37631" lon="5.73661">
        <ele>624</ele>
        <time>2019-03-23T15:25:39Z</time>
      </trkpt>
      <trkpt lat="44.37624" lon="5.73665">
        <ele>624</ele>
        <time>2019-03-23T15:25:40Z</time>
      </trkpt>
      <trkpt lat="44.37618" lon="5.73669">
        <ele>624</ele>
        <time>2019-03-23T15:25:41Z</time>
      </trkpt>
      <trkpt lat="44.37612" lon="5.73672">
        <ele>624</ele>
        <time>2019-03-23T15:25:42Z</time>
      </trkpt>
      <trkpt lat="44.37606" lon="5.73676">
        <ele>624</ele>
        <time>2019-03-23T15:25:43Z</time>
      </trkpt>
      <trkpt lat="44.376" lon="5.73679">
        <ele>624</ele>
        <time>2019-03-23T15:25:44Z</time>
      </trkpt>
      <trkpt lat="44.37593" lon="5.73683">
        <ele>624</ele>
        <time>2019-03-23T15:25:45Z</time>
      </trkpt>
      <trkpt lat="44.37587" lon="5.73686">
        <ele>624</ele>
        <time>2019-03-23T15:25:46Z</time>
      </trkpt>
      <trkpt lat="44.3758" lon="5.73689">
        <ele>624</ele>
        <time>2019-03-23T15:25:47Z</time>
      </trkpt>
      <trkpt lat="44.37574" lon="5.73691">
        <ele>624</ele>
        <time>2019-03-23T15:25:48Z</time>
      </trkpt>
      <trkpt lat="44.37567" lon="5.73695">
        <ele>624</ele>
        <time>2019-03-23T15:25:49Z</time>
      </trkpt>
      <trkpt lat="44.37561" lon="5.73699">
        <ele>624</ele>
        <time>2019-03-23T15:25:50Z</time>
      </trkpt>
      <trkpt lat="44.37555" lon="5.73705">
        <ele>624</ele>
        <time>2019-03-23T15:25:51Z</time>
      </trkpt>
      <trkpt lat="44.3755" lon="5.73712">
        <ele>624</ele>
        <time>2019-03-23T15:25:52Z</time>
      </trkpt>
      <trkpt lat="44.37545" lon="5.73719">
        <ele>624</ele>
        <time>2019-03-23T15:25:53Z</time>
      </trkpt>
      <trkpt lat="44.37541" lon="5.73727">
        <ele>624</ele>
        <time>2019-03-23T15:25:54Z</time>
      </trkpt>
      <trkpt lat="44.37537" lon="5.73735">
        <ele>624</ele>
        <time>2019-03-23T15:25:55Z</time>
      </trkpt>
      <trkpt lat="44.37533" lon="5.73742">
        <ele>624</ele>
        <time>2019-03-23T15:25:56Z</time>
      </trkpt>
      <trkpt lat="44.37528" lon="5.73748">
        <ele>624</ele>
        <time>2019-03-23T15:25:57Z</time>
      </trkpt>
      <trkpt lat="44.37522" lon="5.73753">
        <ele>624</ele>
        <time>2019-03-23T15:25:58Z</time>
      </trkpt>
      <trkpt lat="44.37515" lon="5.73755">
        <ele>624</ele>
        <time>2019-03-23T15:25:59Z</time>
      </trkpt>
      <trkpt lat="44.37508" lon="5.73756">
        <ele>624</ele>
        <time>2019-03-23T15:26:00Z</time>
      </trkpt>
      <trkpt lat="44.37501" lon="5.73756">
        <ele>624</ele>
        <time>2019-03-23T15:26:01Z</time>
      </trkpt>
      <trkpt lat="44.37494" lon="5.73759">
        <ele>624</ele>
        <time>2019-03-23T15:26:02Z</time>
      </trkpt>
      <trkpt lat="44.37488" lon="5.73765">
        <ele>624</ele>
        <time>2019-03-23T15:26:03Z</time>
      </trkpt>
      <trkpt lat="44.37483" lon="5.73771">
        <ele>624</ele>
        <time>2019-03-23T15:26:04Z</time>
      </trkpt>
      <trkpt lat="44.37478" lon="5.73777">
        <ele>624</ele>
        <time>2019-03-23T15:26:05Z</time>
      </trkpt>
      <trkpt lat="44.37474" lon="5.73784">
        <ele>624</ele>
        <time>2019-03-23T15:26:06Z</time>
      </trkpt>
      <trkpt lat="44.37469" lon="5.73789">
        <ele>624</ele>
        <time>2019-03-23T15:26:07Z</time>
      </trkpt>
      <trkpt lat="44.37463" lon="5.73793">
        <ele>624</ele>
        <time>2019-03-23T15:26:08Z</time>
      </trkpt>
      <trkpt lat="44.37458" lon="5.73796">
        <ele>624</ele>
        <time>2019-03-23T15:26:09Z</time>
      </trkpt>
      <trkpt lat="44.37452" lon="5.73799">
        <ele>624</ele>
        <time>2019-03-23T15:26:10Z</time>
      </trkpt>
      <trkpt lat="44.37446" lon="5.73801">
        <ele>624</ele>
        <time>2019-03-23T15:26:11Z</time>
      </trkpt>
      <trkpt lat="44.3744" lon="5.73804">
        <ele>624</ele>
        <time>2019-03-23T15:26:12Z</time>
      </trkpt>
      <trkpt lat="44.37434" lon="5.73806">
        <ele>624</ele>
        <time>2019-03-23T15:26:13Z</time>
      </trkpt>
      <trkpt lat="44.37428" lon="5.73809">
        <ele>624</ele>
        <time>2019-03-23T15:26:14Z</time>
      </trkpt>
      <trkpt lat="44.37421" lon="5.73812">
        <ele>624</ele>
        <time>2019-03-23T15:26:15Z</time>
      </trkpt>
      <trkpt lat="44.37415" lon="5.73816">
        <ele>624</ele>
        <time>2019-03-23T15:26:16Z</time>
      </trkpt>
      <trkpt lat="44.37409" lon="5.7382">
        <ele>624</ele>
        <time>2019-03-23T15:26:17Z</time>
      </trkpt>
      <trkpt lat="44.37403" lon="5.73824">
        <ele>624</ele>
        <time>2019-03-23T15:26:18Z</time>
      </trkpt>
      <trkpt lat="44.37397" lon="5.73828">
        <ele>624</ele>
        <time>2019-03-23T15:26:19Z</time>
      </trkpt>
      <trkpt lat="44.3739" lon="5.73832">
        <ele>624</ele>
        <time>2019-03-23T15:26:20Z</time>
      </trkpt>
      <trkpt lat="44.37384" lon="5.73836">
        <ele>624</ele>
        <time>2019-03-23T15:26:21Z</time>
      </trkpt>
      <trkpt lat="44.37378" lon="5.7384">
        <ele>624</ele>
        <time>2019-03-23T15:26:22Z</time>
      </trkpt>
      <trkpt lat="44.37372" lon="5.73844">
        <ele>624</ele>
        <time>2019-03-23T15:26:23Z</time>
      </trkpt>
      <trkpt lat="44.37365" lon="5.73848">
        <ele>624</ele>
        <time>2019-03-23T15:26:24Z</time>
      </trkpt>
      <trkpt lat="44.37359" lon="5.73851">
        <ele>624</ele>
        <time>2019-03-23T15:26:25Z</time>
      </trkpt>
      <trkpt lat="44.37352" lon="5.73855">
        <ele>624</ele>
        <time>2019-03-23T15:26:26Z</time>
      </trkpt>
      <trkpt lat="44.37346" lon="5.73858">
        <ele>624</ele>
        <time>2019-03-23T15:26:27Z</time>
      </trkpt>
      <trkpt lat="44.37339" lon="5.73861">
        <ele>624</ele>
        <time>2019-03-23T15:26:28Z</time>
      </trkpt>
      <trkpt lat="44.37333" lon="5.73863">
        <ele>624</ele>
        <time>2019-03-23T15:26:29Z</time>
      </trkpt>
      <trkpt lat="44.37326" lon="5.73866">
        <ele>624</ele>
        <time>2019-03-23T15:26:30Z</time>
      </trkpt>
      <trkpt lat="44.37319" lon="5.73868">
        <ele>624</ele>
        <time>2019-03-23T15:26:31Z</time>
      </trkpt>
      <trkpt lat="44.37312" lon="5.73869">
        <ele>624</ele>
        <time>2019-03-23T15:26:32Z</time>
      </trkpt>
      <trkpt lat="44.37305" lon="5.73871">
        <ele>624</ele>
        <time>2019-03-23T15:26:33Z</time>
      </trkpt>
      <trkpt lat="44.37299" lon="5.73873">
        <ele>624</ele>
        <time>2019-03-23T15:26:34Z</time>
      </trkpt>
      <trkpt lat="44.37291" lon="5.73875">
        <ele>624</ele>
        <time>2019-03-23T15:26:35Z</time>
      </trkpt>
      <trkpt lat="44.37284" lon="5.73876">
        <ele>623</ele>
        <time>2019-03-23T15:26:36Z</time>
      </trkpt>
      <trkpt lat="44.37277" lon="5.73878">
        <ele>623</ele>
        <time>2019-03-23T15:26:37Z</time>
      </trkpt>
      <trkpt lat="44.3727" lon="5.7388">
        <ele>623</ele>
        <time>2019-03-23T15:26:38Z</time>
      </trkpt>
      <trkpt lat="44.37263" lon="5.73883">
        <ele>623</ele>
        <time>2019-03-23T15:26:39Z</time>
      </trkpt>
      <trkpt lat="44.37255" lon="5.73885">
        <ele>623</ele>
        <time>2019-03-23T15:26:40Z</time>
      </trkpt>
      <trkpt lat="44.37248" lon="5.73887">
        <ele>622</ele>
        <time>2019-03-23T15:26:41Z</time>
      </trkpt>
      <trkpt lat="44.37241" lon="5.73889">
        <ele>622</ele>
        <time>2019-03-23T15:26:42Z</time>
      </trkpt>
      <trkpt lat="44.37233" lon="5.73891">
        <ele>622</ele>
        <time>2019-03-23T15:26:43Z</time>
      </trkpt>
      <trkpt lat="44.37225" lon="5.73893">
        <ele>622</ele>
        <time>2019-03-23T15:26:44Z</time>
      </trkpt>
      <trkpt lat="44.37218" lon="5.73895">
        <ele>621</ele>
        <time>2019-03-23T15:26:45Z</time>
      </trkpt>
      <trkpt lat="44.3721" lon="5.73897">
        <ele>621</ele>
        <time>2019-03-23T15:26:46Z</time>
      </trkpt>
      <trkpt lat="44.37202" lon="5.739">
        <ele>621</ele>
        <time>2019-03-23T15:26:47Z</time>
      </trkpt>
      <trkpt lat="44.37195" lon="5.73903">
        <ele>620</ele>
        <time>2019-03-23T15:26:48Z</time>
      </trkpt>
      <trkpt lat="44.37187" lon="5.73907">
        <ele>620</ele>
        <time>2019-03-23T15:26:49Z</time>
      </trkpt>
      <trkpt lat="44.3718" lon="5.73912">
        <ele>619</ele>
        <time>2019-03-23T15:26:50Z</time>
      </trkpt>
      <trkpt lat="44.37174" lon="5.73919">
        <ele>619</ele>
        <time>2019-03-23T15:26:51Z</time>
      </trkpt>
      <trkpt lat="44.37168" lon="5.73927">
        <ele>618</ele>
        <time>2019-03-23T15:26:52Z</time>
      </trkpt>
      <trkpt lat="44.37163" lon="5.73936">
        <ele>618</ele>
        <time>2019-03-23T15:26:53Z</time>
      </trkpt>
      <trkpt lat="44.37159" lon="5.73945">
        <ele>618</ele>
        <time>2019-03-23T15:26:54Z</time>
      </trkpt>
      <trkpt lat="44.37154" lon="5.73953">
        <ele>618</ele>
        <time>2019-03-23T15:26:55Z</time>
      </trkpt>
      <trkpt lat="44.3715" lon="5.73962">
        <ele>618</ele>
        <time>2019-03-23T15:26:56Z</time>
      </trkpt>
      <trkpt lat="44.37146" lon="5.73971">
        <ele>618</ele>
        <time>2019-03-23T15:26:57Z</time>
      </trkpt>
      <trkpt lat="44.37141" lon="5.73979">
        <ele>618</ele>
        <time>2019-03-23T15:26:58Z</time>
      </trkpt>
      <trkpt lat="44.37137" lon="5.73987">
        <ele>617</ele>
        <time>2019-03-23T15:26:59Z</time>
      </trkpt>
      <trkpt lat="44.37133" lon="5.73995">
        <ele>617</ele>
        <time>2019-03-23T15:27:00Z</time>
      </trkpt>
      <trkpt lat="44.37129" lon="5.74004">
        <ele>617</ele>
        <time>2019-03-23T15:27:01Z</time>
      </trkpt>
      <trkpt lat="44.37125" lon="5.74012">
        <ele>617</ele>
        <time>2019-03-23T15:27:02Z</time>
      </trkpt>
      <trkpt lat="44.37121" lon="5.74019">
        <ele>617</ele>
        <time>2019-03-23T15:27:03Z</time>
      </trkpt>
      <trkpt lat="44.37117" lon="5.74027">
        <ele>617</ele>
        <time>2019-03-23T15:27:04Z</time>
      </trkpt>
      <trkpt lat="44.37113" lon="5.74035">
        <ele>617</ele>
        <time>2019-03-23T15:27:05Z</time>
      </trkpt>
      <trkpt lat="44.37109" lon="5.74043">
        <ele>617</ele>
        <time>2019-03-23T15:27:06Z</time>
      </trkpt>
      <trkpt lat="44.37105" lon="5.7405">
        <ele>617</ele>
        <time>2019-03-23T15:27:07Z</time>
      </trkpt>
      <trkpt lat="44.37101" lon="5.74057">
        <ele>617</ele>
        <time>2019-03-23T15:27:08Z</time>
      </trkpt>
      <trkpt lat="44.37097" lon="5.74065">
        <ele>617</ele>
        <time>2019-03-23T15:27:09Z</time>
      </trkpt>
      <trkpt lat="44.37094" lon="5.74072">
        <ele>617</ele>
        <time>2019-03-23T15:27:10Z</time>
      </trkpt>
      <trkpt lat="44.3709" lon="5.7408">
        <ele>617</ele>
        <time>2019-03-23T15:27:11Z</time>
      </trkpt>
      <trkpt lat="44.37086" lon="5.74087">
        <ele>617</ele>
        <time>2019-03-23T15:27:12Z</time>
      </trkpt>
      <trkpt lat="44.37083" lon="5.74094">
        <ele>617</ele>
        <time>2019-03-23T15:27:13Z</time>
      </trkpt>
      <trkpt lat="44.37079" lon="5.74101">
        <ele>617</ele>
        <time>2019-03-23T15:27:14Z</time>
      </trkpt>
      <trkpt lat="44.37075" lon="5.74108">
        <ele>617</ele>
        <time>2019-03-23T15:27:15Z</time>
      </trkpt>
      <trkpt lat="44.37071" lon="5.74116">
        <ele>617</ele>
        <time>2019-03-23T15:27:16Z</time>
      </trkpt>
      <trkpt lat="44.37067" lon="5.74123">
        <ele>617</ele>
        <time>2019-03-23T15:27:17Z</time>
      </trkpt>
      <trkpt lat="44.37064" lon="5.7413">
        <ele>617</ele>
        <time>2019-03-23T15:27:18Z</time>
      </trkpt>
      <trkpt lat="44.37059" lon="5.74138">
        <ele>617</ele>
        <time>2019-03-23T15:27:19Z</time>
      </trkpt>
      <trkpt lat="44.37056" lon="5.74145">
        <ele>617</ele>
        <time>2019-03-23T15:27:20Z</time>
      </trkpt>
      <trkpt lat="44.37051" lon="5.74153">
        <ele>617</ele>
        <time>2019-03-23T15:27:21Z</time>
      </trkpt>
      <trkpt lat="44.37047" lon="5.7416">
        <ele>617</ele>
        <time>2019-03-23T15:27:22Z</time>
      </trkpt>
      <trkpt lat="44.37043" lon="5.74168">
        <ele>617</ele>
        <time>2019-03-23T15:27:23Z</time>
      </trkpt>
      <trkpt lat="44.37038" lon="5.74176">
        <ele>617</ele>
        <time>2019-03-23T15:27:24Z</time>
      </trkpt>
      <trkpt lat="44.37034" lon="5.74184">
        <ele>617</ele>
        <time>2019-03-23T15:27:25Z</time>
      </trkpt>
      <trkpt lat="44.3703" lon="5.74191">
        <ele>617</ele>
        <time>2019-03-23T15:27:26Z</time>
      </trkpt>
      <trkpt lat="44.37025" lon="5.74198">
        <ele>617</ele>
        <time>2019-03-23T15:27:27Z</time>
      </trkpt>
      <trkpt lat="44.3702" lon="5.74206">
        <ele>617</ele>
        <time>2019-03-23T15:27:28Z</time>
      </trkpt>
      <trkpt lat="44.37015" lon="5.74213">
        <ele>617</ele>
        <time>2019-03-23T15:27:29Z</time>
      </trkpt>
      <trkpt lat="44.3701" lon="5.7422">
        <ele>617</ele>
        <time>2019-03-23T15:27:30Z</time>
      </trkpt>
      <trkpt lat="44.37005" lon="5.74227">
        <ele>617</ele>
        <time>2019-03-23T15:27:31Z</time>
      </trkpt>
      <trkpt lat="44.37" lon="5.74232">
        <ele>617</ele>
        <time>2019-03-23T15:27:32Z</time>
      </trkpt>
      <trkpt lat="44.36993" lon="5.74237">
        <ele>617</ele>
        <time>2019-03-23T15:27:33Z</time>
      </trkpt>
      <trkpt lat="44.36987" lon="5.74241">
        <ele>617</ele>
        <time>2019-03-23T15:27:34Z</time>
      </trkpt>
      <trkpt lat="44.36981" lon="5.74245">
        <ele>617</ele>
        <time>2019-03-23T15:27:35Z</time>
      </trkpt>
      <trkpt lat="44.36974" lon="5.74248">
        <ele>617</ele>
        <time>2019-03-23T15:27:36Z</time>
      </trkpt>
      <trkpt lat="44.36967" lon="5.74251">
        <ele>617</ele>
        <time>2019-03-23T15:27:37Z</time>
      </trkpt>
      <trkpt lat="44.3696" lon="5.74254">
        <ele>617</ele>
        <time>2019-03-23T15:27:38Z</time>
      </trkpt>
      <trkpt lat="44.36953" lon="5.74257">
        <ele>617</ele>
        <time>2019-03-23T15:27:39Z</time>
      </trkpt>
      <trkpt lat="44.36946" lon="5.7426">
        <ele>617</ele>
        <time>2019-03-23T15:27:40Z</time>
      </trkpt>
      <trkpt lat="44.36939" lon="5.74263">
        <ele>617</ele>
        <time>2019-03-23T15:27:41Z</time>
      </trkpt>
      <trkpt lat="44.36932" lon="5.74266">
        <ele>617</ele>
        <time>2019-03-23T15:27:42Z</time>
      </trkpt>
      <trkpt lat="44.36924" lon="5.74269">
        <ele>617</ele>
        <time>2019-03-23T15:27:43Z</time>
      </trkpt>
      <trkpt lat="44.36917" lon="5.74272">
        <ele>617</ele>
        <time>2019-03-23T15:27:44Z</time>
      </trkpt>
      <trkpt lat="44.36911" lon="5.74276">
        <ele>617</ele>
        <time>2019-03-23T15:27:45Z</time>
      </trkpt>
      <trkpt lat="44.36903" lon="5.74278">
        <ele>617</ele>
        <time>2019-03-23T15:27:46Z</time>
      </trkpt>
      <trkpt lat="44.36897" lon="5.74281">
        <ele>617</ele>
        <time>2019-03-23T15:27:47Z</time>
      </trkpt>
      <trkpt lat="44.3689" lon="5.74283">
        <ele>617</ele>
        <time>2019-03-23T15:27:48Z</time>
      </trkpt>
      <trkpt lat="44.36883" lon="5.74285">
        <ele>617</ele>
        <time>2019-03-23T15:27:49Z</time>
      </trkpt>
      <trkpt lat="44.36876" lon="5.74287">
        <ele>617</ele>
        <time>2019-03-23T15:27:50Z</time>
      </trkpt>
      <trkpt lat="44.36869" lon="5.74288">
        <ele>617</ele>
        <time>2019-03-23T15:27:51Z</time>
      </trkpt>
      <trkpt lat="44.36862" lon="5.74289">
        <ele>617</ele>
        <time>2019-03-23T15:27:52Z</time>
      </trkpt>
      <trkpt lat="44.36856" lon="5.7429">
        <ele>617</ele>
        <time>2019-03-23T15:27:53Z</time>
      </trkpt>
      <trkpt lat="44.36849" lon="5.74291">
        <ele>617</ele>
        <time>2019-03-23T15:27:54Z</time>
      </trkpt>
      <trkpt lat="44.36843" lon="5.74293">
        <ele>617</ele>
        <time>2019-03-23T15:27:55Z</time>
      </trkpt>
      <trkpt lat="44.36836" lon="5.74295">
        <ele>617</ele>
        <time>2019-03-23T15:27:56Z</time>
      </trkpt>
      <trkpt lat="44.3683" lon="5.74297">
        <ele>617</ele>
        <time>2019-03-23T15:27:57Z</time>
      </trkpt>
      <trkpt lat="44.36823" lon="5.743">
        <ele>617</ele>
        <time>2019-03-23T15:27:58Z</time>
      </trkpt>
      <trkpt lat="44.36817" lon="5.74304">
        <ele>617</ele>
        <time>2019-03-23T15:27:59Z</time>
      </trkpt>
      <trkpt lat="44.36811" lon="5.74309">
        <ele>617</ele>
        <time>2019-03-23T15:28:00Z</time>
      </trkpt>
      <trkpt lat="44.36806" lon="5.74315">
        <ele>617</ele>
        <time>2019-03-23T15:28:01Z</time>
      </trkpt>
      <trkpt lat="44.36801" lon="5.74322">
        <ele>617</ele>
        <time>2019-03-23T15:28:02Z</time>
      </trkpt>
      <trkpt lat="44.36796" lon="5.7433">
        <ele>617</ele>
        <time>2019-03-23T15:28:03Z</time>
      </trkpt>
      <trkpt lat="44.36792" lon="5.74337">
        <ele>617</ele>
        <time>2019-03-23T15:28:04Z</time>
      </trkpt>
      <trkpt lat="44.36788" lon="5.74345">
        <ele>617</ele>
        <time>2019-03-23T15:28:05Z</time>
      </trkpt>
      <trkpt lat="44.36784" lon="5.74353">
        <ele>617</ele>
        <time>2019-03-23T15:28:06Z</time>
      </trkpt>
      <trkpt lat="44.3678" lon="5.74361">
        <ele>617</ele>
        <time>2019-03-23T15:28:07Z</time>
      </trkpt>
      <trkpt lat="44.36776" lon="5.74369">
        <ele>617</ele>
        <time>2019-03-23T15:28:08Z</time>
      </trkpt>
      <trkpt lat="44.36772" lon="5.74377">
        <ele>617</ele>
        <time>2019-03-23T15:28:09Z</time>
      </trkpt>
      <trkpt lat="44.36767" lon="5.74384">
        <ele>617</ele>
        <time>2019-03-23T15:28:10Z</time>
      </trkpt>
      <trkpt lat="44.36762" lon="5.74391">
        <ele>617</ele>
        <time>2019-03-23T15:28:11Z</time>
      </trkpt>
      <trkpt lat="44.36757" lon="5.74398">
        <ele>617</ele>
        <time>2019-03-23T15:28:12Z</time>
      </trkpt>
      <trkpt lat="44.36751" lon="5.74403">
        <ele>617</ele>
        <time>2019-03-23T15:28:13Z</time>
      </trkpt>
      <trkpt lat="44.36745" lon="5.74408">
        <ele>617</ele>
        <time>2019-03-23T15:28:14Z</time>
      </trkpt>
      <trkpt lat="44.36739" lon="5.74412">
        <ele>616</ele>
        <time>2019-03-23T15:28:15Z</time>
      </trkpt>
      <trkpt lat="44.36733" lon="5.74416">
        <ele>616</ele>
        <time>2019-03-23T15:28:16Z</time>
      </trkpt>
      <trkpt lat="44.36726" lon="5.74419">
        <ele>616</ele>
        <time>2019-03-23T15:28:17Z</time>
      </trkpt>
      <trkpt lat="44.3672" lon="5.74423">
        <ele>616</ele>
        <time>2019-03-23T15:28:18Z</time>
      </trkpt>
      <trkpt lat="44.36713" lon="5.74426">
        <ele>616</ele>
        <time>2019-03-23T15:28:19Z</time>
      </trkpt>
      <trkpt lat="44.36707" lon="5.74429">
        <ele>616</ele>
        <time>2019-03-23T15:28:20Z</time>
      </trkpt>
      <trkpt lat="44.367" lon="5.74432">
        <ele>616</ele>
        <time>2019-03-23T15:28:21Z</time>
      </trkpt>
      <trkpt lat="44.36694" lon="5.74436">
        <ele>616</ele>
        <time>2019-03-23T15:28:22Z</time>
      </trkpt>
      <trkpt lat="44.36688" lon="5.74439">
        <ele>616</ele>
        <time>2019-03-23T15:28:23Z</time>
      </trkpt>
      <trkpt lat="44.36682" lon="5.74443">
        <ele>616</ele>
        <time>2019-03-23T15:28:24Z</time>
      </trkpt>
      <trkpt lat="44.36676" lon="5.74447">
        <ele>616</ele>
        <time>2019-03-23T15:28:25Z</time>
      </trkpt>
      <trkpt lat="44.3667" lon="5.74451">
        <ele>616</ele>
        <time>2019-03-23T15:28:26Z</time>
      </trkpt>
      <trkpt lat="44.36664" lon="5.74456">
        <ele>616</ele>
        <time>2019-03-23T15:28:27Z</time>
      </trkpt>
      <trkpt lat="44.36658" lon="5.74461">
        <ele>616</ele>
        <time>2019-03-23T15:28:28Z</time>
      </trkpt>
      <trkpt lat="44.36652" lon="5.74466">
        <ele>616</ele>
        <time>2019-03-23T15:28:29Z</time>
      </trkpt>
      <trkpt lat="44.36647" lon="5.74472">
        <ele>616</ele>
        <time>2019-03-23T15:28:30Z</time>
      </trkpt>
      <trkpt lat="44.36641" lon="5.74477">
        <ele>616</ele>
        <time>2019-03-23T15:28:31Z</time>
      </trkpt>
      <trkpt lat="44.36635" lon="5.74482">
        <ele>616</ele>
        <time>2019-03-23T15:28:32Z</time>
      </trkpt>
      <trkpt lat="44.36629" lon="5.74488">
        <ele>616</ele>
        <time>2019-03-23T15:28:33Z</time>
      </trkpt>
      <trkpt lat="44.36623" lon="5.74494">
        <ele>616</ele>
        <time>2019-03-23T15:28:34Z</time>
      </trkpt>
      <trkpt lat="44.36618" lon="5.74501">
        <ele>616</ele>
        <time>2019-03-23T15:28:35Z</time>
      </trkpt>
      <trkpt lat="44.36612" lon="5.74507">
        <ele>616</ele>
        <time>2019-03-23T15:28:36Z</time>
      </trkpt>
      <trkpt lat="44.36606" lon="5.74513">
        <ele>616</ele>
        <time>2019-03-23T15:28:37Z</time>
      </trkpt>
      <trkpt lat="44.366" lon="5.74519">
        <ele>615</ele>
        <time>2019-03-23T15:28:38Z</time>
      </trkpt>
      <trkpt lat="44.36594" lon="5.74525">
        <ele>615</ele>
        <time>2019-03-23T15:28:39Z</time>
      </trkpt>
      <trkpt lat="44.36589" lon="5.74531">
        <ele>615</ele>
        <time>2019-03-23T15:28:40Z</time>
      </trkpt>
      <trkpt lat="44.36583" lon="5.74537">
        <ele>615</ele>
        <time>2019-03-23T15:28:41Z</time>
      </trkpt>
      <trkpt lat="44.36578" lon="5.74543">
        <ele>615</ele>
        <time>2019-03-23T15:28:42Z</time>
      </trkpt>
      <trkpt lat="44.36572" lon="5.74549">
        <ele>615</ele>
        <time>2019-03-23T15:28:43Z</time>
      </trkpt>
      <trkpt lat="44.36567" lon="5.74555">
        <ele>614</ele>
        <time>2019-03-23T15:28:44Z</time>
      </trkpt>
      <trkpt lat="44.36561" lon="5.74561">
        <ele>614</ele>
        <time>2019-03-23T15:28:45Z</time>
      </trkpt>
      <trkpt lat="44.36555" lon="5.74567">
        <ele>614</ele>
        <time>2019-03-23T15:28:46Z</time>
      </trkpt>
      <trkpt lat="44.3655" lon="5.74573">
        <ele>614</ele>
        <time>2019-03-23T15:28:47Z</time>
      </trkpt>
      <trkpt lat="44.36544" lon="5.74579">
        <ele>614</ele>
        <time>2019-03-23T15:28:48Z</time>
      </trkpt>
      <trkpt lat="44.36539" lon="5.74585">
        <ele>613</ele>
        <time>2019-03-23T15:28:49Z</time>
      </trkpt>
      <trkpt lat="44.36533" lon="5.7459">
        <ele>613</ele>
        <time>2019-03-23T15:28:50Z</time>
      </trkpt>
      <trkpt lat="44.36527" lon="5.74596">
        <ele>613</ele>
        <time>2019-03-23T15:28:51Z</time>
      </trkpt>
      <trkpt lat="44.36521" lon="5.74601">
        <ele>613</ele>
        <time>2019-03-23T15:28:52Z</time>
      </trkpt>
      <trkpt lat="44.36515" lon="5.74606">
        <ele>613</ele>
        <time>2019-03-23T15:28:53Z</time>
      </trkpt>
      <trkpt lat="44.3651" lon="5.74611">
        <ele>612</ele>
        <time>2019-03-23T15:28:54Z</time>
      </trkpt>
      <trkpt lat="44.36504" lon="5.74616">
        <ele>612</ele>
        <time>2019-03-23T15:28:55Z</time>
      </trkpt>
      <trkpt lat="44.36498" lon="5.74621">
        <ele>612</ele>
        <time>2019-03-23T15:28:56Z</time>
      </trkpt>
      <trkpt lat="44.36492" lon="5.74626">
        <ele>612</ele>
        <time>2019-03-23T15:28:57Z</time>
      </trkpt>
      <trkpt lat="44.36486" lon="5.74631">
        <ele>612</ele>
        <time>2019-03-23T15:28:58Z</time>
      </trkpt>
      <trkpt lat="44.36479" lon="5.74635">
        <ele>612</ele>
        <time>2019-03-23T15:28:59Z</time>
      </trkpt>
      <trkpt lat="44.36473" lon="5.7464">
        <ele>612</ele>
        <time>2019-03-23T15:29:00Z</time>
      </trkpt>
      <trkpt lat="44.36466" lon="5.74644">
        <ele>612</ele>
        <time>2019-03-23T15:29:01Z</time>
      </trkpt>
      <trkpt lat="44.3646" lon="5.74648">
        <ele>612</ele>
        <time>2019-03-23T15:29:02Z</time>
      </trkpt>
      <trkpt lat="44.36454" lon="5.74652">
        <ele>612</ele>
        <time>2019-03-23T15:29:03Z</time>
      </trkpt>
      <trkpt lat="44.36448" lon="5.74657">
        <ele>612</ele>
        <time>2019-03-23T15:29:04Z</time>
      </trkpt>
      <trkpt lat="44.36442" lon="5.74661">
        <ele>611</ele>
        <time>2019-03-23T15:29:05Z</time>
      </trkpt>
      <trkpt lat="44.36436" lon="5.74666">
        <ele>611</ele>
        <time>2019-03-23T15:29:06Z</time>
      </trkpt>
      <trkpt lat="44.3643" lon="5.74671">
        <ele>611</ele>
        <time>2019-03-23T15:29:07Z</time>
      </trkpt>
      <trkpt lat="44.36423" lon="5.74675">
        <ele>611</ele>
        <time>2019-03-23T15:29:08Z</time>
      </trkpt>
      <trkpt lat="44.36417" lon="5.74679">
        <ele>611</ele>
        <time>2019-03-23T15:29:09Z</time>
      </trkpt>
      <trkpt lat="44.36411" lon="5.74684">
        <ele>611</ele>
        <time>2019-03-23T15:29:10Z</time>
      </trkpt>
      <trkpt lat="44.36405" lon="5.74688">
        <ele>611</ele>
        <time>2019-03-23T15:29:11Z</time>
      </trkpt>
      <trkpt lat="44.36399" lon="5.74692">
        <ele>611</ele>
        <time>2019-03-23T15:29:12Z</time>
      </trkpt>
      <trkpt lat="44.36393" lon="5.74696">
        <ele>611</ele>
        <time>2019-03-23T15:29:13Z</time>
      </trkpt>
      <trkpt lat="44.36386" lon="5.747">
        <ele>611</ele>
        <time>2019-03-23T15:29:14Z</time>
      </trkpt>
      <trkpt lat="44.3638" lon="5.74705">
        <ele>611</ele>
        <time>2019-03-23T15:29:15Z</time>
      </trkpt>
      <trkpt lat="44.36374" lon="5.74709">
        <ele>611</ele>
        <time>2019-03-23T15:29:16Z</time>
      </trkpt>
      <trkpt lat="44.36367" lon="5.74713">
        <ele>611</ele>
        <time>2019-03-23T15:29:17Z</time>
      </trkpt>
      <trkpt lat="44.36361" lon="5.74717">
        <ele>611</ele>
        <time>2019-03-23T15:29:18Z</time>
      </trkpt>
      <trkpt lat="44.36355" lon="5.74721">
        <ele>611</ele>
        <time>2019-03-23T15:29:19Z</time>
      </trkpt>
      <trkpt lat="44.36349" lon="5.74726">
        <ele>611</ele>
        <time>2019-03-23T15:29:20Z</time>
      </trkpt>
      <trkpt lat="44.36343" lon="5.74731">
        <ele>611</ele>
        <time>2019-03-23T15:29:21Z</time>
      </trkpt>
      <trkpt lat="44.36337" lon="5.74736">
        <ele>611</ele>
        <time>2019-03-23T15:29:22Z</time>
      </trkpt>
      <trkpt lat="44.36331" lon="5.74741">
        <ele>611</ele>
        <time>2019-03-23T15:29:23Z</time>
      </trkpt>
      <trkpt lat="44.36325" lon="5.74747">
        <ele>611</ele>
        <time>2019-03-23T15:29:24Z</time>
      </trkpt>
      <trkpt lat="44.3632" lon="5.74753">
        <ele>611</ele>
        <time>2019-03-23T15:29:25Z</time>
      </trkpt>
      <trkpt lat="44.36314" lon="5.74758">
        <ele>611</ele>
        <time>2019-03-23T15:29:26Z</time>
      </trkpt>
      <trkpt lat="44.36309" lon="5.74764">
        <ele>611</ele>
        <time>2019-03-23T15:29:27Z</time>
      </trkpt>
      <trkpt lat="44.36303" lon="5.74771">
        <ele>611</ele>
        <time>2019-03-23T15:29:28Z</time>
      </trkpt>
      <trkpt lat="44.36298" lon="5.74777">
        <ele>611</ele>
        <time>2019-03-23T15:29:29Z</time>
      </trkpt>
      <trkpt lat="44.36292" lon="5.74784">
        <ele>611</ele>
        <time>2019-03-23T15:29:30Z</time>
      </trkpt>
      <trkpt lat="44.36286" lon="5.7479">
        <ele>611</ele>
        <time>2019-03-23T15:29:31Z</time>
      </trkpt>
      <trkpt lat="44.36281" lon="5.74796">
        <ele>611</ele>
        <time>2019-03-23T15:29:32Z</time>
      </trkpt>
      <trkpt lat="44.36275" lon="5.74803">
        <ele>611</ele>
        <time>2019-03-23T15:29:33Z</time>
      </trkpt>
      <trkpt lat="44.36269" lon="5.74809">
        <ele>611</ele>
        <time>2019-03-23T15:29:34Z</time>
      </trkpt>
      <trkpt lat="44.36264" lon="5.74815">
        <ele>611</ele>
        <time>2019-03-23T15:29:35Z</time>
      </trkpt>
      <trkpt lat="44.36258" lon="5.74821">
        <ele>611</ele>
        <time>2019-03-23T15:29:36Z</time>
      </trkpt>
      <trkpt lat="44.36252" lon="5.74827">
        <ele>611</ele>
        <time>2019-03-23T15:29:37Z</time>
      </trkpt>
      <trkpt lat="44.36246" lon="5.74833">
        <ele>611</ele>
        <time>2019-03-23T15:29:38Z</time>
      </trkpt>
      <trkpt lat="44.36241" lon="5.74838">
        <ele>611</ele>
        <time>2019-03-23T15:29:39Z</time>
      </trkpt>
      <trkpt lat="44.36235" lon="5.74844">
        <ele>611</ele>
        <time>2019-03-23T15:29:40Z</time>
      </trkpt>
      <trkpt lat="44.36229" lon="5.74849">
        <ele>611</ele>
        <time>2019-03-23T15:29:41Z</time>
      </trkpt>
      <trkpt lat="44.36223" lon="5.74855">
        <ele>611</ele>
        <time>2019-03-23T15:29:42Z</time>
      </trkpt>
      <trkpt lat="44.36217" lon="5.74861">
        <ele>611</ele>
        <time>2019-03-23T15:29:43Z</time>
      </trkpt>
      <trkpt lat="44.36212" lon="5.74867">
        <ele>611</ele>
        <time>2019-03-23T15:29:44Z</time>
      </trkpt>
      <trkpt lat="44.36206" lon="5.74873">
        <ele>611</ele>
        <time>2019-03-23T15:29:45Z</time>
      </trkpt>
      <trkpt lat="44.36201" lon="5.74878">
        <ele>611</ele>
        <time>2019-03-23T15:29:46Z</time>
      </trkpt>
      <trkpt lat="44.36196" lon="5.74883">
        <ele>611</ele>
        <time>2019-03-23T15:29:47Z</time>
      </trkpt>
      <trkpt lat="44.3619" lon="5.74888">
        <ele>611</ele>
        <time>2019-03-23T15:29:48Z</time>
      </trkpt>
      <trkpt lat="44.36185" lon="5.74893">
        <ele>611</ele>
        <time>2019-03-23T15:29:49Z</time>
      </trkpt>
      <trkpt lat="44.3618" lon="5.74897">
        <ele>611</ele>
        <time>2019-03-23T15:29:50Z</time>
      </trkpt>
      <trkpt lat="44.36174" lon="5.74902">
        <ele>611</ele>
        <time>2019-03-23T15:29:51Z</time>
      </trkpt>
      <trkpt lat="44.36169" lon="5.74907">
        <ele>611</ele>
        <time>2019-03-23T15:29:52Z</time>
      </trkpt>
      <trkpt lat="44.36163" lon="5.74911">
        <ele>611</ele>
        <time>2019-03-23T15:29:53Z</time>
      </trkpt>
      <trkpt lat="44.36158" lon="5.74916">
        <ele>611</ele>
        <time>2019-03-23T15:29:54Z</time>
      </trkpt>
      <trkpt lat="44.36152" lon="5.74921">
        <ele>611</ele>
        <time>2019-03-23T15:29:55Z</time>
      </trkpt>
      <trkpt lat="44.36146" lon="5.74926">
        <ele>611</ele>
        <time>2019-03-23T15:29:56Z</time>
      </trkpt>
      <trkpt lat="44.36141" lon="5.7493">
        <ele>611</ele>
        <time>2019-03-23T15:29:57Z</time>
      </trkpt>
      <trkpt lat="44.36135" lon="5.74935">
        <ele>611</ele>
        <time>2019-03-23T15:29:58Z</time>
      </trkpt>
      <trkpt lat="44.36129" lon="5.7494">
        <ele>611</ele>
        <time>2019-03-23T15:29:59Z</time>
      </trkpt>
      <trkpt lat="44.36123" lon="5.74945">
        <ele>611</ele>
        <time>2019-03-23T15:30:00Z</time>
      </trkpt>
      <trkpt lat="44.36118" lon="5.7495">
        <ele>611</ele>
        <time>2019-03-23T15:30:01Z</time>
      </trkpt>
      <trkpt lat="44.36112" lon="5.74955">
        <ele>611</ele>
        <time>2019-03-23T15:30:02Z</time>
      </trkpt>
      <trkpt lat="44.36106" lon="5.7496">
        <ele>611</ele>
        <time>2019-03-23T15:30:03Z</time>
      </trkpt>
      <trkpt lat="44.361" lon="5.74964">
        <ele>611</ele>
        <time>2019-03-23T15:30:04Z</time>
      </trkpt>
      <trkpt lat="44.36095" lon="5.74969">
        <ele>611</ele>
        <time>2019-03-23T15:30:05Z</time>
      </trkpt>
      <trkpt lat="44.36089" lon="5.74973">
        <ele>611</ele>
        <time>2019-03-23T15:30:06Z</time>
      </trkpt>
      <trkpt lat="44.36083" lon="5.74978">
        <ele>611</ele>
        <time>2019-03-23T15:30:07Z</time>
      </trkpt>
      <trkpt lat="44.36077" lon="5.74982">
        <ele>611</ele>
        <time>2019-03-23T15:30:08Z</time>
      </trkpt>
      <trkpt lat="44.36071" lon="5.74986">
        <ele>611</ele>
        <time>2019-03-23T15:30:09Z</time>
      </trkpt>
      <trkpt lat="44.36065" lon="5.7499">
        <ele>611</ele>
        <time>2019-03-23T15:30:10Z</time>
      </trkpt>
      <trkpt lat="44.36059" lon="5.74995">
        <ele>611</ele>
        <time>2019-03-23T15:30:11Z</time>
      </trkpt>
      <trkpt lat="44.36053" lon="5.74999">
        <ele>611</ele>
        <time>2019-03-23T15:30:12Z</time>
      </trkpt>
      <trkpt lat="44.36047" lon="5.75003">
        <ele>611</ele>
        <time>2019-03-23T15:30:13Z</time>
      </trkpt>
      <trkpt lat="44.36041" lon="5.75008">
        <ele>611</ele>
        <time>2019-03-23T15:30:14Z</time>
      </trkpt>
      <trkpt lat="44.36034" lon="5.75012">
        <ele>611</ele>
        <time>2019-03-23T15:30:15Z</time>
      </trkpt>
      <trkpt lat="44.36028" lon="5.75016">
        <ele>611</ele>
        <time>2019-03-23T15:30:16Z</time>
      </trkpt>
      <trkpt lat="44.36022" lon="5.7502">
        <ele>611</ele>
        <time>2019-03-23T15:30:17Z</time>
      </trkpt>
      <trkpt lat="44.36015" lon="5.75025">
        <ele>611</ele>
        <time>2019-03-23T15:30:18Z</time>
      </trkpt>
      <trkpt lat="44.36009" lon="5.75029">
        <ele>611</ele>
        <time>2019-03-23T15:30:19Z</time>
      </trkpt>
      <trkpt lat="44.36002" lon="5.75034">
        <ele>611</ele>
        <time>2019-03-23T15:30:20Z</time>
      </trkpt>
      <trkpt lat="44.35996" lon="5.75038">
        <ele>611</ele>
        <time>2019-03-23T15:30:21Z</time>
      </trkpt>
      <trkpt lat="44.35989" lon="5.75043">
        <ele>611</ele>
        <time>2019-03-23T15:30:22Z</time>
      </trkpt>
      <trkpt lat="44.35983" lon="5.75047">
        <ele>611</ele>
        <time>2019-03-23T15:30:23Z</time>
      </trkpt>
      <trkpt lat="44.35976" lon="5.75052">
        <ele>611</ele>
        <time>2019-03-23T15:30:24Z</time>
      </trkpt>
      <trkpt lat="44.3597" lon="5.75057">
        <ele>611</ele>
        <time>2019-03-23T15:30:25Z</time>
      </trkpt>
      <trkpt lat="44.35964" lon="5.75061">
        <ele>611</ele>
        <time>2019-03-23T15:30:26Z</time>
      </trkpt>
      <trkpt lat="44.35957" lon="5.75066">
        <ele>611</ele>
        <time>2019-03-23T15:30:27Z</time>
      </trkpt>
      <trkpt lat="44.35951" lon="5.7507">
        <ele>611</ele>
        <time>2019-03-23T15:30:28Z</time>
      </trkpt>
      <trkpt lat="44.35945" lon="5.75075">
        <ele>611</ele>
        <time>2019-03-23T15:30:29Z</time>
      </trkpt>
      <trkpt lat="44.35939" lon="5.7508">
        <ele>611</ele>
        <time>2019-03-23T15:30:30Z</time>
      </trkpt>
      <trkpt lat="44.35934" lon="5.75085">
        <ele>611</ele>
        <time>2019-03-23T15:30:31Z</time>
      </trkpt>
      <trkpt lat="44.35928" lon="5.7509">
        <ele>611</ele>
        <time>2019-03-23T15:30:32Z</time>
      </trkpt>
      <trkpt lat="44.35922" lon="5.75096">
        <ele>611</ele>
        <time>2019-03-23T15:30:33Z</time>
      </trkpt>
      <trkpt lat="44.35917" lon="5.75101">
        <ele>611</ele>
        <time>2019-03-23T15:30:34Z</time>
      </trkpt>
      <trkpt lat="44.35911" lon="5.75106">
        <ele>611</ele>
        <time>2019-03-23T15:30:35Z</time>
      </trkpt>
      <trkpt lat="44.35906" lon="5.75111">
        <ele>611</ele>
        <time>2019-03-23T15:30:36Z</time>
      </trkpt>
      <trkpt lat="44.359" lon="5.75117">
        <ele>611</ele>
        <time>2019-03-23T15:30:37Z</time>
      </trkpt>
      <trkpt lat="44.35894" lon="5.75123">
        <ele>611</ele>
        <time>2019-03-23T15:30:38Z</time>
      </trkpt>
      <trkpt lat="44.35888" lon="5.75128">
        <ele>611</ele>
        <time>2019-03-23T15:30:39Z</time>
      </trkpt>
      <trkpt lat="44.35881" lon="5.75133">
        <ele>611</ele>
        <time>2019-03-23T15:30:40Z</time>
      </trkpt>
      <trkpt lat="44.35875" lon="5.75138">
        <ele>611</ele>
        <time>2019-03-23T15:30:41Z</time>
      </trkpt>
      <trkpt lat="44.35869" lon="5.75142">
        <ele>611</ele>
        <time>2019-03-23T15:30:42Z</time>
      </trkpt>
      <trkpt lat="44.35862" lon="5.75146">
        <ele>611</ele>
        <time>2019-03-23T15:30:43Z</time>
      </trkpt>
      <trkpt lat="44.35856" lon="5.75151">
        <ele>611</ele>
        <time>2019-03-23T15:30:44Z</time>
      </trkpt>
      <trkpt lat="44.3585" lon="5.75155">
        <ele>611</ele>
        <time>2019-03-23T15:30:45Z</time>
      </trkpt>
      <trkpt lat="44.35844" lon="5.75159">
        <ele>611</ele>
        <time>2019-03-23T15:30:46Z</time>
      </trkpt>
      <trkpt lat="44.35837" lon="5.75163">
        <ele>611</ele>
        <time>2019-03-23T15:30:47Z</time>
      </trkpt>
      <trkpt lat="44.35831" lon="5.75167">
        <ele>611</ele>
        <time>2019-03-23T15:30:48Z</time>
      </trkpt>
      <trkpt lat="44.35825" lon="5.7517">
        <ele>611</ele>
        <time>2019-03-23T15:30:49Z</time>
      </trkpt>
      <trkpt lat="44.35818" lon="5.75174">
        <ele>611</ele>
        <time>2019-03-23T15:30:50Z</time>
      </trkpt>
      <trkpt lat="44.35812" lon="5.75176">
        <ele>611</ele>
        <time>2019-03-23T15:30:51Z</time>
      </trkpt>
      <trkpt lat="44.35805" lon="5.75178">
        <ele>611</ele>
        <time>2019-03-23T15:30:52Z</time>
      </trkpt>
      <trkpt lat="44.35798" lon="5.75179">
        <ele>611</ele>
        <time>2019-03-23T15:30:53Z</time>
      </trkpt>
      <trkpt lat="44.35792" lon="5.7518">
        <ele>611</ele>
        <time>2019-03-23T15:30:54Z</time>
      </trkpt>
      <trkpt lat="44.35785" lon="5.75181">
        <ele>611</ele>
        <time>2019-03-23T15:30:55Z</time>
      </trkpt>
      <trkpt lat="44.35779" lon="5.75183">
        <ele>611</ele>
        <time>2019-03-23T15:30:56Z</time>
      </trkpt>
      <trkpt lat="44.35772" lon="5.75184">
        <ele>611</ele>
        <time>2019-03-23T15:30:57Z</time>
      </trkpt>
      <trkpt lat="44.35765" lon="5.75187">
        <ele>611</ele>
        <time>2019-03-23T15:30:58Z</time>
      </trkpt>
      <trkpt lat="44.35757" lon="5.75189">
        <ele>611</ele>
        <time>2019-03-23T15:30:59Z</time>
      </trkpt>
      <trkpt lat="44.3575" lon="5.75193">
        <ele>611</ele>
        <time>2019-03-23T15:31:00Z</time>
      </trkpt>
      <trkpt lat="44.35743" lon="5.75197">
        <ele>611</ele>
        <time>2019-03-23T15:31:01Z</time>
      </trkpt>
      <trkpt lat="44.35736" lon="5.75202">
        <ele>610</ele>
        <time>2019-03-23T15:31:02Z</time>
      </trkpt>
      <trkpt lat="44.3573" lon="5.75208">
        <ele>610</ele>
        <time>2019-03-23T15:31:03Z</time>
      </trkpt>
      <trkpt lat="44.35724" lon="5.75213">
        <ele>610</ele>
        <time>2019-03-23T15:31:04Z</time>
      </trkpt>
      <trkpt lat="44.35719" lon="5.75219">
        <ele>610</ele>
        <time>2019-03-23T15:31:05Z</time>
      </trkpt>
      <trkpt lat="44.35714" lon="5.75225">
        <ele>610</ele>
        <time>2019-03-23T15:31:06Z</time>
      </trkpt>
      <trkpt lat="44.35709" lon="5.7523">
        <ele>610</ele>
        <time>2019-03-23T15:31:07Z</time>
      </trkpt>
      <trkpt lat="44.35704" lon="5.75236">
        <ele>610</ele>
        <time>2019-03-23T15:31:08Z</time>
      </trkpt>
      <trkpt lat="44.35699" lon="5.75241">
        <ele>610</ele>
        <time>2019-03-23T15:31:09Z</time>
      </trkpt>
      <trkpt lat="44.35694" lon="5.75246">
        <ele>610</ele>
        <time>2019-03-23T15:31:10Z</time>
      </trkpt>
      <trkpt lat="44.35689" lon="5.75251">
        <ele>610</ele>
        <time>2019-03-23T15:31:11Z</time>
      </trkpt>
      <trkpt lat="44.35684" lon="5.75256">
        <ele>610</ele>
        <time>2019-03-23T15:31:12Z</time>
      </trkpt>
      <trkpt lat="44.35678" lon="5.75262">
        <ele>609</ele>
        <time>2019-03-23T15:31:13Z</time>
      </trkpt>
      <trkpt lat="44.35673" lon="5.75267">
        <ele>609</ele>
        <time>2019-03-23T15:31:14Z</time>
      </trkpt>
      <trkpt lat="44.35667" lon="5.75273">
        <ele>609</ele>
        <time>2019-03-23T15:31:15Z</time>
      </trkpt>
      <trkpt lat="44.35662" lon="5.7528">
        <ele>609</ele>
        <time>2019-03-23T15:31:16Z</time>
      </trkpt>
      <trkpt lat="44.35656" lon="5.75285">
        <ele>609</ele>
        <time>2019-03-23T15:31:17Z</time>
      </trkpt>
      <trkpt lat="44.35651" lon="5.75291">
        <ele>609</ele>
        <time>2019-03-23T15:31:18Z</time>
      </trkpt>
      <trkpt lat="44.35646" lon="5.75297">
        <ele>609</ele>
        <time>2019-03-23T15:31:19Z</time>
      </trkpt>
      <trkpt lat="44.3564" lon="5.75304">
        <ele>609</ele>
        <time>2019-03-23T15:31:20Z</time>
      </trkpt>
      <trkpt lat="44.35635" lon="5.7531">
        <ele>608</ele>
        <time>2019-03-23T15:31:21Z</time>
      </trkpt>
      <trkpt lat="44.35629" lon="5.75315">
        <ele>608</ele>
        <time>2019-03-23T15:31:22Z</time>
      </trkpt>
      <trkpt lat="44.35623" lon="5.75321">
        <ele>608</ele>
        <time>2019-03-23T15:31:23Z</time>
      </trkpt>
      <trkpt lat="44.35617" lon="5.75326">
        <ele>608</ele>
        <time>2019-03-23T15:31:24Z</time>
      </trkpt>
      <trkpt lat="44.35611" lon="5.7533">
        <ele>607</ele>
        <time>2019-03-23T15:31:25Z</time>
      </trkpt>
      <trkpt lat="44.35604" lon="5.75335">
        <ele>607</ele>
        <time>2019-03-23T15:31:26Z</time>
      </trkpt>
      <trkpt lat="44.35597" lon="5.75339">
        <ele>606</ele>
        <time>2019-03-23T15:31:27Z</time>
      </trkpt>
      <trkpt lat="44.3559" lon="5.75342">
        <ele>606</ele>
        <time>2019-03-23T15:31:28Z</time>
      </trkpt>
      <trkpt lat="44.35583" lon="5.75345">
        <ele>606</ele>
        <time>2019-03-23T15:31:29Z</time>
      </trkpt>
      <trkpt lat="44.35575" lon="5.75349">
        <ele>605</ele>
        <time>2019-03-23T15:31:30Z</time>
      </trkpt>
      <trkpt lat="44.35568" lon="5.75352">
        <ele>605</ele>
        <time>2019-03-23T15:31:31Z</time>
      </trkpt>
      <trkpt lat="44.35561" lon="5.75356">
        <ele>605</ele>
        <time>2019-03-23T15:31:32Z</time>
      </trkpt>
      <trkpt lat="44.35554" lon="5.75361">
        <ele>604</ele>
        <time>2019-03-23T15:31:33Z</time>
      </trkpt>
      <trkpt lat="44.35547" lon="5.75366">
        <ele>604</ele>
        <time>2019-03-23T15:31:34Z</time>
      </trkpt>
      <trkpt lat="44.3554" lon="5.75372">
        <ele>604</ele>
        <time>2019-03-23T15:31:35Z</time>
      </trkpt>
      <trkpt lat="44.35532" lon="5.75377">
        <ele>603</ele>
        <time>2019-03-23T15:31:36Z</time>
      </trkpt>
      <trkpt lat="44.35525" lon="5.75381">
        <ele>603</ele>
        <time>2019-03-23T15:31:37Z</time>
      </trkpt>
      <trkpt lat="44.35518" lon="5.75386">
        <ele>602</ele>
        <time>2019-03-23T15:31:38Z</time>
      </trkpt>
      <trkpt lat="44.3551" lon="5.75393">
        <ele>602</ele>
        <time>2019-03-23T15:31:39Z</time>
      </trkpt>
      <trkpt lat="44.35502" lon="5.75399">
        <ele>602</ele>
        <time>2019-03-23T15:31:40Z</time>
      </trkpt>
      <trkpt lat="44.35494" lon="5.75405">
        <ele>601</ele>
        <time>2019-03-23T15:31:41Z</time>
      </trkpt>
      <trkpt lat="44.35486" lon="5.75411">
        <ele>601</ele>
        <time>2019-03-23T15:31:42Z</time>
      </trkpt>
      <trkpt lat="44.35478" lon="5.75417">
        <ele>601</ele>
        <time>2019-03-23T15:31:43Z</time>
      </trkpt>
      <trkpt lat="44.3547" lon="5.75423">
        <ele>601</ele>
        <time>2019-03-23T15:31:44Z</time>
      </trkpt>
      <trkpt lat="44.35463" lon="5.75431">
        <ele>601</ele>
        <time>2019-03-23T15:31:45Z</time>
      </trkpt>
      <trkpt lat="44.35456" lon="5.75439">
        <ele>601</ele>
        <time>2019-03-23T15:31:46Z</time>
      </trkpt>
      <trkpt lat="44.35448" lon="5.75447">
        <ele>601</ele>
        <time>2019-03-23T15:31:47Z</time>
      </trkpt>
      <trkpt lat="44.35441" lon="5.75454">
        <ele>601</ele>
        <time>2019-03-23T15:31:48Z</time>
      </trkpt>
      <trkpt lat="44.35434" lon="5.7546">
        <ele>601</ele>
        <time>2019-03-23T15:31:49Z</time>
      </trkpt>
      <trkpt lat="44.35426" lon="5.75466">
        <ele>601</ele>
        <time>2019-03-23T15:31:50Z</time>
      </trkpt>
      <trkpt lat="44.35419" lon="5.75472">
        <ele>601</ele>
        <time>2019-03-23T15:31:51Z</time>
      </trkpt>
      <trkpt lat="44.35412" lon="5.75478">
        <ele>601</ele>
        <time>2019-03-23T15:31:52Z</time>
      </trkpt>
      <trkpt lat="44.35404" lon="5.75483">
        <ele>601</ele>
        <time>2019-03-23T15:31:53Z</time>
      </trkpt>
      <trkpt lat="44.35397" lon="5.75489">
        <ele>601</ele>
        <time>2019-03-23T15:31:54Z</time>
      </trkpt>
      <trkpt lat="44.35389" lon="5.75494">
        <ele>601</ele>
        <time>2019-03-23T15:31:55Z</time>
      </trkpt>
      <trkpt lat="44.35382" lon="5.75499">
        <ele>601</ele>
        <time>2019-03-23T15:31:56Z</time>
      </trkpt>
      <trkpt lat="44.35375" lon="5.75504">
        <ele>601</ele>
        <time>2019-03-23T15:31:57Z</time>
      </trkpt>
      <trkpt lat="44.35368" lon="5.75509">
        <ele>601</ele>
        <time>2019-03-23T15:31:58Z</time>
      </trkpt>
      <trkpt lat="44.35361" lon="5.75513">
        <ele>601</ele>
        <time>2019-03-23T15:31:59Z</time>
      </trkpt>
      <trkpt lat="44.35355" lon="5.75518">
        <ele>601</ele>
        <time>2019-03-23T15:32:00Z</time>
      </trkpt>
      <trkpt lat="44.35348" lon="5.75521">
        <ele>601</ele>
        <time>2019-03-23T15:32:01Z</time>
      </trkpt>
      <trkpt lat="44.35341" lon="5.75525">
        <ele>601</ele>
        <time>2019-03-23T15:32:02Z</time>
      </trkpt>
      <trkpt lat="44.35335" lon="5.75529">
        <ele>601</ele>
        <time>2019-03-23T15:32:03Z</time>
      </trkpt>
      <trkpt lat="44.35328" lon="5.75532">
        <ele>601</ele>
        <time>2019-03-23T15:32:04Z</time>
      </trkpt>
      <trkpt lat="44.35321" lon="5.75535">
        <ele>601</ele>
        <time>2019-03-23T15:32:05Z</time>
      </trkpt>
      <trkpt lat="44.35315" lon="5.75538">
        <ele>601</ele>
        <time>2019-03-23T15:32:06Z</time>
      </trkpt>
      <trkpt lat="44.35308" lon="5.75542">
        <ele>601</ele>
        <time>2019-03-23T15:32:07Z</time>
      </trkpt>
      <trkpt lat="44.35302" lon="5.75546">
        <ele>601</ele>
        <time>2019-03-23T15:32:08Z</time>
      </trkpt>
      <trkpt lat="44.35296" lon="5.75549">
        <ele>601</ele>
        <time>2019-03-23T15:32:09Z</time>
      </trkpt>
      <trkpt lat="44.3529" lon="5.75554">
        <ele>601</ele>
        <time>2019-03-23T15:32:10Z</time>
      </trkpt>
      <trkpt lat="44.35284" lon="5.75558">
        <ele>601</ele>
        <time>2019-03-23T15:32:11Z</time>
      </trkpt>
      <trkpt lat="44.35277" lon="5.75562">
        <ele>601</ele>
        <time>2019-03-23T15:32:12Z</time>
      </trkpt>
      <trkpt lat="44.35271" lon="5.75566">
        <ele>601</ele>
        <time>2019-03-23T15:32:13Z</time>
      </trkpt>
      <trkpt lat="44.35265" lon="5.7557">
        <ele>601</ele>
        <time>2019-03-23T15:32:14Z</time>
      </trkpt>
      <trkpt lat="44.35258" lon="5.75575">
        <ele>601</ele>
        <time>2019-03-23T15:32:15Z</time>
      </trkpt>
      <trkpt lat="44.35252" lon="5.7558">
        <ele>601</ele>
        <time>2019-03-23T15:32:16Z</time>
      </trkpt>
      <trkpt lat="44.35246" lon="5.75584">
        <ele>601</ele>
        <time>2019-03-23T15:32:17Z</time>
      </trkpt>
      <trkpt lat="44.35239" lon="5.75588">
        <ele>601</ele>
        <time>2019-03-23T15:32:18Z</time>
      </trkpt>
      <trkpt lat="44.35233" lon="5.75592">
        <ele>601</ele>
        <time>2019-03-23T15:32:19Z</time>
      </trkpt>
      <trkpt lat="44.35227" lon="5.75596">
        <ele>601</ele>
        <time>2019-03-23T15:32:20Z</time>
      </trkpt>
      <trkpt lat="44.3522" lon="5.75601">
        <ele>601</ele>
        <time>2019-03-23T15:32:21Z</time>
      </trkpt>
      <trkpt lat="44.35214" lon="5.75605">
        <ele>601</ele>
        <time>2019-03-23T15:32:22Z</time>
      </trkpt>
      <trkpt lat="44.35207" lon="5.7561">
        <ele>601</ele>
        <time>2019-03-23T15:32:23Z</time>
      </trkpt>
      <trkpt lat="44.35201" lon="5.75615">
        <ele>601</ele>
        <time>2019-03-23T15:32:24Z</time>
      </trkpt>
      <trkpt lat="44.35195" lon="5.7562">
        <ele>601</ele>
        <time>2019-03-23T15:32:25Z</time>
      </trkpt>
      <trkpt lat="44.35189" lon="5.75625">
        <ele>601</ele>
        <time>2019-03-23T15:32:26Z</time>
      </trkpt>
      <trkpt lat="44.35183" lon="5.75631">
        <ele>601</ele>
        <time>2019-03-23T15:32:27Z</time>
      </trkpt>
      <trkpt lat="44.35177" lon="5.75636">
        <ele>601</ele>
        <time>2019-03-23T15:32:28Z</time>
      </trkpt>
      <trkpt lat="44.35172" lon="5.75641">
        <ele>601</ele>
        <time>2019-03-23T15:32:29Z</time>
      </trkpt>
      <trkpt lat="44.35166" lon="5.75647">
        <ele>601</ele>
        <time>2019-03-23T15:32:30Z</time>
      </trkpt>
      <trkpt lat="44.35161" lon="5.75653">
        <ele>601</ele>
        <time>2019-03-23T15:32:31Z</time>
      </trkpt>
      <trkpt lat="44.35155" lon="5.75659">
        <ele>601</ele>
        <time>2019-03-23T15:32:32Z</time>
      </trkpt>
      <trkpt lat="44.3515" lon="5.75664">
        <ele>601</ele>
        <time>2019-03-23T15:32:33Z</time>
      </trkpt>
      <trkpt lat="44.35145" lon="5.7567">
        <ele>600</ele>
        <time>2019-03-23T15:32:34Z</time>
      </trkpt>
      <trkpt lat="44.35139" lon="5.75675">
        <ele>600</ele>
        <time>2019-03-23T15:32:35Z</time>
      </trkpt>
      <trkpt lat="44.35134" lon="5.75681">
        <ele>600</ele>
        <time>2019-03-23T15:32:36Z</time>
      </trkpt>
      <trkpt lat="44.35129" lon="5.75686">
        <ele>600</ele>
        <time>2019-03-23T15:32:37Z</time>
      </trkpt>
      <trkpt lat="44.35123" lon="5.75691">
        <ele>600</ele>
        <time>2019-03-23T15:32:38Z</time>
      </trkpt>
      <trkpt lat="44.35118" lon="5.75696">
        <ele>600</ele>
        <time>2019-03-23T15:32:39Z</time>
      </trkpt>
      <trkpt lat="44.35112" lon="5.75701">
        <ele>600</ele>
        <time>2019-03-23T15:32:40Z</time>
      </trkpt>
      <trkpt lat="44.35107" lon="5.75706">
        <ele>600</ele>
        <time>2019-03-23T15:32:41Z</time>
      </trkpt>
      <trkpt lat="44.35102" lon="5.75711">
        <ele>600</ele>
        <time>2019-03-23T15:32:42Z</time>
      </trkpt>
      <trkpt lat="44.35096" lon="5.75716">
        <ele>600</ele>
        <time>2019-03-23T15:32:43Z</time>
      </trkpt>
      <trkpt lat="44.35091" lon="5.75721">
        <ele>600</ele>
        <time>2019-03-23T15:32:44Z</time>
      </trkpt>
      <trkpt lat="44.35086" lon="5.75726">
        <ele>600</ele>
        <time>2019-03-23T15:32:45Z</time>
      </trkpt>
      <trkpt lat="44.3508" lon="5.75731">
        <ele>600</ele>
        <time>2019-03-23T15:32:46Z</time>
      </trkpt>
      <trkpt lat="44.35075" lon="5.75737">
        <ele>600</ele>
        <time>2019-03-23T15:32:47Z</time>
      </trkpt>
      <trkpt lat="44.3507" lon="5.75742">
        <ele>600</ele>
        <time>2019-03-23T15:32:48Z</time>
      </trkpt>
      <trkpt lat="44.35065" lon="5.75748">
        <ele>600</ele>
        <time>2019-03-23T15:32:49Z</time>
      </trkpt>
      <trkpt lat="44.3506" lon="5.75754">
        <ele>600</ele>
        <time>2019-03-23T15:32:50Z</time>
      </trkpt>
      <trkpt lat="44.35054" lon="5.75759">
        <ele>600</ele>
        <time>2019-03-23T15:32:51Z</time>
      </trkpt>
      <trkpt lat="44.35049" lon="5.75765">
        <ele>600</ele>
        <time>2019-03-23T15:32:52Z</time>
      </trkpt>
      <trkpt lat="44.35043" lon="5.75769">
        <ele>600</ele>
        <time>2019-03-23T15:32:53Z</time>
      </trkpt>
      <trkpt lat="44.35038" lon="5.75774">
        <ele>600</ele>
        <time>2019-03-23T15:32:54Z</time>
      </trkpt>
      <trkpt lat="44.35032" lon="5.75778">
        <ele>600</ele>
        <time>2019-03-23T15:32:55Z</time>
      </trkpt>
      <trkpt lat="44.35026" lon="5.75783">
        <ele>600</ele>
        <time>2019-03-23T15:32:56Z</time>
      </trkpt>
      <trkpt lat="44.35021" lon="5.75787">
        <ele>600</ele>
        <time>2019-03-23T15:32:57Z</time>
      </trkpt>
      <trkpt lat="44.35015" lon="5.75791">
        <ele>600</ele>
        <time>2019-03-23T15:32:58Z</time>
      </trkpt>
      <trkpt lat="44.35009" lon="5.75796">
        <ele>600</ele>
        <time>2019-03-23T15:32:59Z</time>
      </trkpt>
      <trkpt lat="44.35004" lon="5.758">
        <ele>600</ele>
        <time>2019-03-23T15:33:00Z</time>
      </trkpt>
      <trkpt lat="44.34998" lon="5.75804">
        <ele>600</ele>
        <time>2019-03-23T15:33:01Z</time>
      </trkpt>
      <trkpt lat="44.34992" lon="5.75808">
        <ele>600</ele>
        <time>2019-03-23T15:33:02Z</time>
      </trkpt>
      <trkpt lat="44.34986" lon="5.75812">
        <ele>600</ele>
        <time>2019-03-23T15:33:03Z</time>
      </trkpt>
      <trkpt lat="44.3498" lon="5.75817">
        <ele>600</ele>
        <time>2019-03-23T15:33:04Z</time>
      </trkpt>
      <trkpt lat="44.34974" lon="5.75821">
        <ele>600</ele>
        <time>2019-03-23T15:33:05Z</time>
      </trkpt>
      <trkpt lat="44.34969" lon="5.75826">
        <ele>600</ele>
        <time>2019-03-23T15:33:06Z</time>
      </trkpt>
      <trkpt lat="44.34963" lon="5.75831">
        <ele>599</ele>
        <time>2019-03-23T15:33:07Z</time>
      </trkpt>
      <trkpt lat="44.34957" lon="5.75836">
        <ele>599</ele>
        <time>2019-03-23T15:33:08Z</time>
      </trkpt>
      <trkpt lat="44.34952" lon="5.75841">
        <ele>599</ele>
        <time>2019-03-23T15:33:09Z</time>
      </trkpt>
      <trkpt lat="44.34946" lon="5.75846">
        <ele>599</ele>
        <time>2019-03-23T15:33:10Z</time>
      </trkpt>
      <trkpt lat="44.3494" lon="5.75851">
        <ele>599</ele>
        <time>2019-03-23T15:33:11Z</time>
      </trkpt>
      <trkpt lat="44.34935" lon="5.75856">
        <ele>598</ele>
        <time>2019-03-23T15:33:12Z</time>
      </trkpt>
      <trkpt lat="44.34929" lon="5.75861">
        <ele>598</ele>
        <time>2019-03-23T15:33:13Z</time>
      </trkpt>
      <trkpt lat="44.34924" lon="5.75866">
        <ele>598</ele>
        <time>2019-03-23T15:33:14Z</time>
      </trkpt>
      <trkpt lat="44.34917" lon="5.75871">
        <ele>598</ele>
        <time>2019-03-23T15:33:15Z</time>
      </trkpt>
      <trkpt lat="44.34911" lon="5.75876">
        <ele>598</ele>
        <time>2019-03-23T15:33:16Z</time>
      </trkpt>
      <trkpt lat="44.34905" lon="5.7588">
        <ele>598</ele>
        <time>2019-03-23T15:33:17Z</time>
      </trkpt>
      <trkpt lat="44.34899" lon="5.75884">
        <ele>598</ele>
        <time>2019-03-23T15:33:18Z</time>
      </trkpt>
      <trkpt lat="44.34893" lon="5.75888">
        <ele>598</ele>
        <time>2019-03-23T15:33:19Z</time>
      </trkpt>
      <trkpt lat="44.34887" lon="5.75892">
        <ele>598</ele>
        <time>2019-03-23T15:33:20Z</time>
      </trkpt>
      <trkpt lat="44.3488" lon="5.75897">
        <ele>598</ele>
        <time>2019-03-23T15:33:21Z</time>
      </trkpt>
      <trkpt lat="44.34875" lon="5.75902">
        <ele>598</ele>
        <time>2019-03-23T15:33:22Z</time>
      </trkpt>
      <trkpt lat="44.34869" lon="5.75906">
        <ele>598</ele>
        <time>2019-03-23T15:33:23Z</time>
      </trkpt>
      <trkpt lat="44.34863" lon="5.7591">
        <ele>598</ele>
        <time>2019-03-23T15:33:24Z</time>
      </trkpt>
      <trkpt lat="44.34857" lon="5.75914">
        <ele>598</ele>
        <time>2019-03-23T15:33:25Z</time>
      </trkpt>
      <trkpt lat="44.34852" lon="5.75919">
        <ele>598</ele>
        <time>2019-03-23T15:33:26Z</time>
      </trkpt>
      <trkpt lat="44.34846" lon="5.75924">
        <ele>598</ele>
        <time>2019-03-23T15:33:27Z</time>
      </trkpt>
      <trkpt lat="44.3484" lon="5.75929">
        <ele>598</ele>
        <time>2019-03-23T15:33:28Z</time>
      </trkpt>
      <trkpt lat="44.34835" lon="5.75934">
        <ele>598</ele>
        <time>2019-03-23T15:33:29Z</time>
      </trkpt>
      <trkpt lat="44.3483" lon="5.75939">
        <ele>598</ele>
        <time>2019-03-23T15:33:30Z</time>
      </trkpt>
      <trkpt lat="44.34824" lon="5.75943">
        <ele>598</ele>
        <time>2019-03-23T15:33:31Z</time>
      </trkpt>
      <trkpt lat="44.34819" lon="5.75948">
        <ele>598</ele>
        <time>2019-03-23T15:33:32Z</time>
      </trkpt>
      <trkpt lat="44.34813" lon="5.75952">
        <ele>598</ele>
        <time>2019-03-23T15:33:33Z</time>
      </trkpt>
      <trkpt lat="44.34808" lon="5.75956">
        <ele>598</ele>
        <time>2019-03-23T15:33:34Z</time>
      </trkpt>
      <trkpt lat="44.34802" lon="5.75961">
        <ele>598</ele>
        <time>2019-03-23T15:33:35Z</time>
      </trkpt>
      <trkpt lat="44.34797" lon="5.75965">
        <ele>598</ele>
        <time>2019-03-23T15:33:36Z</time>
      </trkpt>
      <trkpt lat="44.34791" lon="5.75969">
        <ele>598</ele>
        <time>2019-03-23T15:33:37Z</time>
      </trkpt>
      <trkpt lat="44.34785" lon="5.75972">
        <ele>598</ele>
        <time>2019-03-23T15:33:38Z</time>
      </trkpt>
      <trkpt lat="44.3478" lon="5.75975">
        <ele>598</ele>
        <time>2019-03-23T15:33:39Z</time>
      </trkpt>
      <trkpt lat="44.34774" lon="5.75978">
        <ele>598</ele>
        <time>2019-03-23T15:33:40Z</time>
      </trkpt>
      <trkpt lat="44.34768" lon="5.75981">
        <ele>598</ele>
        <time>2019-03-23T15:33:41Z</time>
      </trkpt>
      <trkpt lat="44.34762" lon="5.75984">
        <ele>598</ele>
        <time>2019-03-23T15:33:42Z</time>
      </trkpt>
      <trkpt lat="44.34757" lon="5.75988">
        <ele>598</ele>
        <time>2019-03-23T15:33:43Z</time>
      </trkpt>
      <trkpt lat="44.34752" lon="5.75992">
        <ele>598</ele>
        <time>2019-03-23T15:33:44Z</time>
      </trkpt>
      <trkpt lat="44.34747" lon="5.75996">
        <ele>598</ele>
        <time>2019-03-23T15:33:45Z</time>
      </trkpt>
      <trkpt lat="44.34742" lon="5.76">
        <ele>598</ele>
        <time>2019-03-23T15:33:46Z</time>
      </trkpt>
      <trkpt lat="44.34737" lon="5.76006">
        <ele>598</ele>
        <time>2019-03-23T15:33:47Z</time>
      </trkpt>
      <trkpt lat="44.34732" lon="5.76011">
        <ele>598</ele>
        <time>2019-03-23T15:33:48Z</time>
      </trkpt>
      <trkpt lat="44.34728" lon="5.76016">
        <ele>598</ele>
        <time>2019-03-23T15:33:49Z</time>
      </trkpt>
      <trkpt lat="44.34723" lon="5.76021">
        <ele>598</ele>
        <time>2019-03-23T15:33:50Z</time>
      </trkpt>
      <trkpt lat="44.34719" lon="5.76026">
        <ele>598</ele>
        <time>2019-03-23T15:33:51Z</time>
      </trkpt>
      <trkpt lat="44.34715" lon="5.76031">
        <ele>598</ele>
        <time>2019-03-23T15:33:52Z</time>
      </trkpt>
      <trkpt lat="44.3471" lon="5.76037">
        <ele>598</ele>
        <time>2019-03-23T15:33:53Z</time>
      </trkpt>
      <trkpt lat="44.34705" lon="5.76041">
        <ele>598</ele>
        <time>2019-03-23T15:33:54Z</time>
      </trkpt>
      <trkpt lat="44.34701" lon="5.76045">
        <ele>598</ele>
        <time>2019-03-23T15:33:55Z</time>
      </trkpt>
      <trkpt lat="44.34696" lon="5.76049">
        <ele>598</ele>
        <time>2019-03-23T15:33:56Z</time>
      </trkpt>
      <trkpt lat="44.34691" lon="5.76051">
        <ele>598</ele>
        <time>2019-03-23T15:33:57Z</time>
      </trkpt>
      <trkpt lat="44.34686" lon="5.76053">
        <ele>598</ele>
        <time>2019-03-23T15:33:58Z</time>
      </trkpt>
      <trkpt lat="44.34681" lon="5.76055">
        <ele>598</ele>
        <time>2019-03-23T15:33:59Z</time>
      </trkpt>
      <trkpt lat="44.34677" lon="5.76057">
        <ele>598</ele>
        <time>2019-03-23T15:34:00Z</time>
      </trkpt>
      <trkpt lat="44.34673" lon="5.76059">
        <ele>598</ele>
        <time>2019-03-23T15:34:01Z</time>
      </trkpt>
      <trkpt lat="44.34668" lon="5.76061">
        <ele>598</ele>
        <time>2019-03-23T15:34:02Z</time>
      </trkpt>
      <trkpt lat="44.34663" lon="5.76064">
        <ele>598</ele>
        <time>2019-03-23T15:34:03Z</time>
      </trkpt>
      <trkpt lat="44.34659" lon="5.76066">
        <ele>598</ele>
        <time>2019-03-23T15:34:04Z</time>
      </trkpt>
      <trkpt lat="44.34655" lon="5.76068">
        <ele>598</ele>
        <time>2019-03-23T15:34:05Z</time>
      </trkpt>
      <trkpt lat="44.3465" lon="5.76071">
        <ele>598</ele>
        <time>2019-03-23T15:34:06Z</time>
      </trkpt>
      <trkpt lat="44.34646" lon="5.76073">
        <ele>598</ele>
        <time>2019-03-23T15:34:07Z</time>
      </trkpt>
      <trkpt lat="44.34642" lon="5.76075">
        <ele>598</ele>
        <time>2019-03-23T15:34:08Z</time>
      </trkpt>
      <trkpt lat="44.34637" lon="5.76078">
        <ele>598</ele>
        <time>2019-03-23T15:34:09Z</time>
      </trkpt>
      <trkpt lat="44.34633" lon="5.7608">
        <ele>598</ele>
        <time>2019-03-23T15:34:10Z</time>
      </trkpt>
      <trkpt lat="44.34629" lon="5.76082">
        <ele>598</ele>
        <time>2019-03-23T15:34:11Z</time>
      </trkpt>
      <trkpt lat="44.34624" lon="5.76085">
        <ele>598</ele>
        <time>2019-03-23T15:34:12Z</time>
      </trkpt>
      <trkpt lat="44.3462" lon="5.76087">
        <ele>598</ele>
        <time>2019-03-23T15:34:13Z</time>
      </trkpt>
      <trkpt lat="44.34616" lon="5.76089">
        <ele>598</ele>
        <time>2019-03-23T15:34:14Z</time>
      </trkpt>
      <trkpt lat="44.34613" lon="5.76091">
        <ele>598</ele>
        <time>2019-03-23T15:34:15Z</time>
      </trkpt>
      <trkpt lat="44.34609" lon="5.76093">
        <ele>598</ele>
        <time>2019-03-23T15:34:16Z</time>
      </trkpt>
      <trkpt lat="44.34605" lon="5.76095">
        <ele>598</ele>
        <time>2019-03-23T15:34:17Z</time>
      </trkpt>
      <trkpt lat="44.34602" lon="5.76097">
        <ele>598</ele>
        <time>2019-03-23T15:34:18Z</time>
      </trkpt>
      <trkpt lat="44.34598" lon="5.761">
        <ele>598</ele>
        <time>2019-03-23T15:34:19Z</time>
      </trkpt>
      <trkpt lat="44.34594" lon="5.76103">
        <ele>598</ele>
        <time>2019-03-23T15:34:20Z</time>
      </trkpt>
      <trkpt lat="44.34591" lon="5.76106">
        <ele>598</ele>
        <time>2019-03-23T15:34:21Z</time>
      </trkpt>
      <trkpt lat="44.34587" lon="5.76108">
        <ele>598</ele>
        <time>2019-03-23T15:34:22Z</time>
      </trkpt>
      <trkpt lat="44.34584" lon="5.76111">
        <ele>598</ele>
        <time>2019-03-23T15:34:23Z</time>
      </trkpt>
      <trkpt lat="44.3458" lon="5.76114">
        <ele>598</ele>
        <time>2019-03-23T15:34:24Z</time>
      </trkpt>
      <trkpt lat="44.34577" lon="5.76117">
        <ele>598</ele>
        <time>2019-03-23T15:34:25Z</time>
      </trkpt>
      <trkpt lat="44.34573" lon="5.76119">
        <ele>598</ele>
        <time>2019-03-23T15:34:26Z</time>
      </trkpt>
      <trkpt lat="44.3457" lon="5.76122">
        <ele>598</ele>
        <time>2019-03-23T15:34:27Z</time>
      </trkpt>
      <trkpt lat="44.34567" lon="5.76125">
        <ele>598</ele>
        <time>2019-03-23T15:34:28Z</time>
      </trkpt>
      <trkpt lat="44.34563" lon="5.76127">
        <ele>599</ele>
        <time>2019-03-23T15:34:29Z</time>
      </trkpt>
      <trkpt lat="44.3456" lon="5.76129">
        <ele>599</ele>
        <time>2019-03-23T15:34:30Z</time>
      </trkpt>
      <trkpt lat="44.34556" lon="5.76131">
        <ele>599</ele>
        <time>2019-03-23T15:34:31Z</time>
      </trkpt>
      <trkpt lat="44.34553" lon="5.76133">
        <ele>599</ele>
        <time>2019-03-23T15:34:32Z</time>
      </trkpt>
      <trkpt lat="44.34549" lon="5.76136">
        <ele>599</ele>
        <time>2019-03-23T15:34:33Z</time>
      </trkpt>
      <trkpt lat="44.34546" lon="5.76138">
        <ele>599</ele>
        <time>2019-03-23T15:34:34Z</time>
      </trkpt>
      <trkpt lat="44.34542" lon="5.76141">
        <ele>599</ele>
        <time>2019-03-23T15:34:35Z</time>
      </trkpt>
      <trkpt lat="44.34538" lon="5.76143">
        <ele>599</ele>
        <time>2019-03-23T15:34:36Z</time>
      </trkpt>
      <trkpt lat="44.34534" lon="5.76146">
        <ele>599</ele>
        <time>2019-03-23T15:34:37Z</time>
      </trkpt>
      <trkpt lat="44.3453" lon="5.76149">
        <ele>599</ele>
        <time>2019-03-23T15:34:38Z</time>
      </trkpt>
      <trkpt lat="44.34526" lon="5.76152">
        <ele>599</ele>
        <time>2019-03-23T15:34:39Z</time>
      </trkpt>
      <trkpt lat="44.34522" lon="5.76154">
        <ele>599</ele>
        <time>2019-03-23T15:34:40Z</time>
      </trkpt>
      <trkpt lat="44.34517" lon="5.76157">
        <ele>599</ele>
        <time>2019-03-23T15:34:41Z</time>
      </trkpt>
      <trkpt lat="44.34513" lon="5.76161">
        <ele>599</ele>
        <time>2019-03-23T15:34:42Z</time>
      </trkpt>
      <trkpt lat="44.34509" lon="5.76164">
        <ele>599</ele>
        <time>2019-03-23T15:34:43Z</time>
      </trkpt>
      <trkpt lat="44.34505" lon="5.76168">
        <ele>599</ele>
        <time>2019-03-23T15:34:44Z</time>
      </trkpt>
      <trkpt lat="44.34501" lon="5.76172">
        <ele>599</ele>
        <time>2019-03-23T15:34:45Z</time>
      </trkpt>
      <trkpt lat="44.34497" lon="5.76176">
        <ele>599</ele>
        <time>2019-03-23T15:34:46Z</time>
      </trkpt>
      <trkpt lat="44.34492" lon="5.76181">
        <ele>599</ele>
        <time>2019-03-23T15:34:47Z</time>
      </trkpt>
      <trkpt lat="44.34488" lon="5.76185">
        <ele>599</ele>
        <time>2019-03-23T15:34:48Z</time>
      </trkpt>
      <trkpt lat="44.34484" lon="5.76189">
        <ele>599</ele>
        <time>2019-03-23T15:34:49Z</time>
      </trkpt>
      <trkpt lat="44.34479" lon="5.76193">
        <ele>599</ele>
        <time>2019-03-23T15:34:50Z</time>
      </trkpt>
      <trkpt lat="44.34474" lon="5.76196">
        <ele>599</ele>
        <time>2019-03-23T15:34:51Z</time>
      </trkpt>
      <trkpt lat="44.34468" lon="5.76199">
        <ele>599</ele>
        <time>2019-03-23T15:34:52Z</time>
      </trkpt>
      <trkpt lat="44.34462" lon="5.76202">
        <ele>599</ele>
        <time>2019-03-23T15:34:53Z</time>
      </trkpt>
      <trkpt lat="44.34456" lon="5.76204">
        <ele>599</ele>
        <time>2019-03-23T15:34:54Z</time>
      </trkpt>
      <trkpt lat="44.34449" lon="5.76206">
        <ele>599</ele>
        <time>2019-03-23T15:34:55Z</time>
      </trkpt>
      <trkpt lat="44.34442" lon="5.76208">
        <ele>599</ele>
        <time>2019-03-23T15:34:56Z</time>
      </trkpt>
      <trkpt lat="44.34435" lon="5.7621">
        <ele>599</ele>
        <time>2019-03-23T15:34:57Z</time>
      </trkpt>
      <trkpt lat="44.34428" lon="5.76211">
        <ele>599</ele>
        <time>2019-03-23T15:34:58Z</time>
      </trkpt>
      <trkpt lat="44.3442" lon="5.76212">
        <ele>599</ele>
        <time>2019-03-23T15:34:59Z</time>
      </trkpt>
      <trkpt lat="44.34413" lon="5.76211">
        <ele>599</ele>
        <time>2019-03-23T15:35:00Z</time>
      </trkpt>
      <trkpt lat="44.34406" lon="5.76209">
        <ele>599</ele>
        <time>2019-03-23T15:35:01Z</time>
      </trkpt>
      <trkpt lat="44.34399" lon="5.76207">
        <ele>599</ele>
        <time>2019-03-23T15:35:02Z</time>
      </trkpt>
      <trkpt lat="44.34392" lon="5.76204">
        <ele>599</ele>
        <time>2019-03-23T15:35:03Z</time>
      </trkpt>
      <trkpt lat="44.34385" lon="5.762">
        <ele>599</ele>
        <time>2019-03-23T15:35:04Z</time>
      </trkpt>
      <trkpt lat="44.34377" lon="5.76197">
        <ele>599</ele>
        <time>2019-03-23T15:35:05Z</time>
      </trkpt>
      <trkpt lat="44.34369" lon="5.76193">
        <ele>599</ele>
        <time>2019-03-23T15:35:06Z</time>
      </trkpt>
      <trkpt lat="44.34361" lon="5.76189">
        <ele>599</ele>
        <time>2019-03-23T15:35:07Z</time>
      </trkpt>
      <trkpt lat="44.34353" lon="5.76184">
        <ele>599</ele>
        <time>2019-03-23T15:35:08Z</time>
      </trkpt>
      <trkpt lat="44.34345" lon="5.7618">
        <ele>599</ele>
        <time>2019-03-23T15:35:09Z</time>
      </trkpt>
      <trkpt lat="44.34337" lon="5.76175">
        <ele>599</ele>
        <time>2019-03-23T15:35:10Z</time>
      </trkpt>
      <trkpt lat="44.34329" lon="5.76171">
        <ele>599</ele>
        <time>2019-03-23T15:35:11Z</time>
      </trkpt>
      <trkpt lat="44.34321" lon="5.76167">
        <ele>599</ele>
        <time>2019-03-23T15:35:12Z</time>
      </trkpt>
      <trkpt lat="44.34314" lon="5.76163">
        <ele>598</ele>
        <time>2019-03-23T15:35:13Z</time>
      </trkpt>
      <trkpt lat="44.34306" lon="5.76159">
        <ele>598</ele>
        <time>2019-03-23T15:35:14Z</time>
      </trkpt>
      <trkpt lat="44.34299" lon="5.76156">
        <ele>598</ele>
        <time>2019-03-23T15:35:15Z</time>
      </trkpt>
      <trkpt lat="44.34292" lon="5.76153">
        <ele>598</ele>
        <time>2019-03-23T15:35:16Z</time>
      </trkpt>
      <trkpt lat="44.34285" lon="5.7615">
        <ele>597</ele>
        <time>2019-03-23T15:35:17Z</time>
      </trkpt>
      <trkpt lat="44.34278" lon="5.76147">
        <ele>597</ele>
        <time>2019-03-23T15:35:18Z</time>
      </trkpt>
      <trkpt lat="44.34272" lon="5.76145">
        <ele>597</ele>
        <time>2019-03-23T15:35:19Z</time>
      </trkpt>
      <trkpt lat="44.34265" lon="5.76144">
        <ele>597</ele>
        <time>2019-03-23T15:35:20Z</time>
      </trkpt>
      <trkpt lat="44.34259" lon="5.76143">
        <ele>597</ele>
        <time>2019-03-23T15:35:21Z</time>
      </trkpt>
      <trkpt lat="44.34254" lon="5.76142">
        <ele>597</ele>
        <time>2019-03-23T15:35:22Z</time>
      </trkpt>
      <trkpt lat="44.34248" lon="5.76142">
        <ele>597</ele>
        <time>2019-03-23T15:35:23Z</time>
      </trkpt>
      <trkpt lat="44.34243" lon="5.76143">
        <ele>597</ele>
        <time>2019-03-23T15:35:24Z</time>
      </trkpt>
      <trkpt lat="44.34238" lon="5.76146">
        <ele>597</ele>
        <time>2019-03-23T15:35:25Z</time>
      </trkpt>
      <trkpt lat="44.34233" lon="5.76148">
        <ele>597</ele>
        <time>2019-03-23T15:35:26Z</time>
      </trkpt>
      <trkpt lat="44.34229" lon="5.76152">
        <ele>597</ele>
        <time>2019-03-23T15:35:27Z</time>
      </trkpt>
      <trkpt lat="44.34224" lon="5.76156">
        <ele>597</ele>
        <time>2019-03-23T15:35:28Z</time>
      </trkpt>
      <trkpt lat="44.34219" lon="5.7616">
        <ele>597</ele>
        <time>2019-03-23T15:35:29Z</time>
      </trkpt>
      <trkpt lat="44.34214" lon="5.76165">
        <ele>597</ele>
        <time>2019-03-23T15:35:30Z</time>
      </trkpt>
      <trkpt lat="44.3421" lon="5.76169">
        <ele>597</ele>
        <time>2019-03-23T15:35:31Z</time>
      </trkpt>
      <trkpt lat="44.34205" lon="5.76174">
        <ele>597</ele>
        <time>2019-03-23T15:35:32Z</time>
      </trkpt>
      <trkpt lat="44.342" lon="5.76178">
        <ele>597</ele>
        <time>2019-03-23T15:35:33Z</time>
      </trkpt>
      <trkpt lat="44.34196" lon="5.76183">
        <ele>597</ele>
        <time>2019-03-23T15:35:34Z</time>
      </trkpt>
      <trkpt lat="44.34191" lon="5.76188">
        <ele>597</ele>
        <time>2019-03-23T15:35:35Z</time>
      </trkpt>
      <trkpt lat="44.34187" lon="5.76193">
        <ele>597</ele>
        <time>2019-03-23T15:35:36Z</time>
      </trkpt>
      <trkpt lat="44.34182" lon="5.76199">
        <ele>597</ele>
        <time>2019-03-23T15:35:37Z</time>
      </trkpt>
      <trkpt lat="44.34179" lon="5.76207">
        <ele>597</ele>
        <time>2019-03-23T15:35:38Z</time>
      </trkpt>
      <trkpt lat="44.34177" lon="5.76215">
        <ele>597</ele>
        <time>2019-03-23T15:35:39Z</time>
      </trkpt>
      <trkpt lat="44.34174" lon="5.76223">
        <ele>597</ele>
        <time>2019-03-23T15:35:40Z</time>
      </trkpt>
      <trkpt lat="44.34171" lon="5.76233">
        <ele>597</ele>
        <time>2019-03-23T15:35:41Z</time>
      </trkpt>
      <trkpt lat="44.34168" lon="5.76242">
        <ele>597</ele>
        <time>2019-03-23T15:35:42Z</time>
      </trkpt>
      <trkpt lat="44.34165" lon="5.76253">
        <ele>597</ele>
        <time>2019-03-23T15:35:43Z</time>
      </trkpt>
      <trkpt lat="44.34162" lon="5.76263">
        <ele>597</ele>
        <time>2019-03-23T15:35:44Z</time>
      </trkpt>
      <trkpt lat="44.34159" lon="5.76273">
        <ele>597</ele>
        <time>2019-03-23T15:35:45Z</time>
      </trkpt>
      <trkpt lat="44.34157" lon="5.76283">
        <ele>597</ele>
        <time>2019-03-23T15:35:46Z</time>
      </trkpt>
      <trkpt lat="44.34154" lon="5.76292">
        <ele>597</ele>
        <time>2019-03-23T15:35:47Z</time>
      </trkpt>
      <trkpt lat="44.34151" lon="5.76301">
        <ele>597</ele>
        <time>2019-03-23T15:35:48Z</time>
      </trkpt>
      <trkpt lat="44.34149" lon="5.7631">
        <ele>597</ele>
        <time>2019-03-23T15:35:49Z</time>
      </trkpt>
      <trkpt lat="44.34146" lon="5.76319">
        <ele>597</ele>
        <time>2019-03-23T15:35:50Z</time>
      </trkpt>
      <trkpt lat="44.34144" lon="5.76328">
        <ele>597</ele>
        <time>2019-03-23T15:35:51Z</time>
      </trkpt>
      <trkpt lat="44.34142" lon="5.76336">
        <ele>597</ele>
        <time>2019-03-23T15:35:52Z</time>
      </trkpt>
      <trkpt lat="44.34139" lon="5.76343">
        <ele>597</ele>
        <time>2019-03-23T15:35:53Z</time>
      </trkpt>
      <trkpt lat="44.34135" lon="5.76348">
        <ele>597</ele>
        <time>2019-03-23T15:35:54Z</time>
      </trkpt>
      <trkpt lat="44.34129" lon="5.76352">
        <ele>597</ele>
        <time>2019-03-23T15:35:55Z</time>
      </trkpt>
      <trkpt lat="44.34124" lon="5.76356">
        <ele>597</ele>
        <time>2019-03-23T15:35:56Z</time>
      </trkpt>
      <trkpt lat="44.34119" lon="5.7636">
        <ele>597</ele>
        <time>2019-03-23T15:35:57Z</time>
      </trkpt>
      <trkpt lat="44.34116" lon="5.76366">
        <ele>597</ele>
        <time>2019-03-23T15:35:58Z</time>
      </trkpt>
      <trkpt lat="44.34114" lon="5.76373">
        <ele>597</ele>
        <time>2019-03-23T15:35:59Z</time>
      </trkpt>
      <trkpt lat="44.34114" lon="5.76381">
        <ele>597</ele>
        <time>2019-03-23T15:36:00Z</time>
      </trkpt>
      <trkpt lat="44.34113" lon="5.76389">
        <ele>597</ele>
        <time>2019-03-23T15:36:01Z</time>
      </trkpt>
      <trkpt lat="44.34112" lon="5.76397">
        <ele>597</ele>
        <time>2019-03-23T15:36:02Z</time>
      </trkpt>
      <trkpt lat="44.3411" lon="5.76405">
        <ele>597</ele>
        <time>2019-03-23T15:36:03Z</time>
      </trkpt>
      <trkpt lat="44.34108" lon="5.76413">
        <ele>597</ele>
        <time>2019-03-23T15:36:04Z</time>
      </trkpt>
      <trkpt lat="44.34105" lon="5.7642">
        <ele>597</ele>
        <time>2019-03-23T15:36:05Z</time>
      </trkpt>
      <trkpt lat="44.34102" lon="5.76427">
        <ele>597</ele>
        <time>2019-03-23T15:36:06Z</time>
      </trkpt>
      <trkpt lat="44.34098" lon="5.76434">
        <ele>597</ele>
        <time>2019-03-23T15:36:07Z</time>
      </trkpt>
      <trkpt lat="44.34095" lon="5.76442">
        <ele>597</ele>
        <time>2019-03-23T15:36:08Z</time>
      </trkpt>
      <trkpt lat="44.34091" lon="5.76449">
        <ele>597</ele>
        <time>2019-03-23T15:36:09Z</time>
      </trkpt>
      <trkpt lat="44.34087" lon="5.76455">
        <ele>597</ele>
        <time>2019-03-23T15:36:10Z</time>
      </trkpt>
      <trkpt lat="44.34084" lon="5.76462">
        <ele>597</ele>
        <time>2019-03-23T15:36:11Z</time>
      </trkpt>
      <trkpt lat="44.34081" lon="5.76469">
        <ele>597</ele>
        <time>2019-03-23T15:36:12Z</time>
      </trkpt>
      <trkpt lat="44.34077" lon="5.76475">
        <ele>597</ele>
        <time>2019-03-23T15:36:13Z</time>
      </trkpt>
      <trkpt lat="44.34074" lon="5.76482">
        <ele>597</ele>
        <time>2019-03-23T15:36:14Z</time>
      </trkpt>
      <trkpt lat="44.3407" lon="5.76488">
        <ele>597</ele>
        <time>2019-03-23T15:36:15Z</time>
      </trkpt>
      <trkpt lat="44.34067" lon="5.76495">
        <ele>597</ele>
        <time>2019-03-23T15:36:16Z</time>
      </trkpt>
      <trkpt lat="44.34063" lon="5.76501">
        <ele>597</ele>
        <time>2019-03-23T15:36:17Z</time>
      </trkpt>
      <trkpt lat="44.3406" lon="5.76508">
        <ele>597</ele>
        <time>2019-03-23T15:36:18Z</time>
      </trkpt>
      <trkpt lat="44.34056" lon="5.76515">
        <ele>597</ele>
        <time>2019-03-23T15:36:19Z</time>
      </trkpt>
      <trkpt lat="44.34053" lon="5.76521">
        <ele>597</ele>
        <time>2019-03-23T15:36:20Z</time>
      </trkpt>
      <trkpt lat="44.3405" lon="5.76528">
        <ele>597</ele>
        <time>2019-03-23T15:36:21Z</time>
      </trkpt>
      <trkpt lat="44.34046" lon="5.76534">
        <ele>597</ele>
        <time>2019-03-23T15:36:22Z</time>
      </trkpt>
      <trkpt lat="44.34042" lon="5.76541">
        <ele>596</ele>
        <time>2019-03-23T15:36:23Z</time>
      </trkpt>
      <trkpt lat="44.34039" lon="5.76548">
        <ele>596</ele>
        <time>2019-03-23T15:36:24Z</time>
      </trkpt>
      <trkpt lat="44.34035" lon="5.76555">
        <ele>596</ele>
        <time>2019-03-23T15:36:25Z</time>
      </trkpt>
      <trkpt lat="44.34032" lon="5.76562">
        <ele>596</ele>
        <time>2019-03-23T15:36:26Z</time>
      </trkpt>
      <trkpt lat="44.34031" lon="5.7657">
        <ele>596</ele>
        <time>2019-03-23T15:36:27Z</time>
      </trkpt>
      <trkpt lat="44.3403" lon="5.76578">
        <ele>596</ele>
        <time>2019-03-23T15:36:28Z</time>
      </trkpt>
      <trkpt lat="44.34031" lon="5.76586">
        <ele>595</ele>
        <time>2019-03-23T15:36:29Z</time>
      </trkpt>
      <trkpt lat="44.34033" lon="5.76594">
        <ele>595</ele>
        <time>2019-03-23T15:36:30Z</time>
      </trkpt>
      <trkpt lat="44.34035" lon="5.76602">
        <ele>595</ele>
        <time>2019-03-23T15:36:31Z</time>
      </trkpt>
      <trkpt lat="44.34037" lon="5.7661">
        <ele>595</ele>
        <time>2019-03-23T15:36:32Z</time>
      </trkpt>
      <trkpt lat="44.3404" lon="5.76618">
        <ele>595</ele>
        <time>2019-03-23T15:36:33Z</time>
      </trkpt>
      <trkpt lat="44.34043" lon="5.76626">
        <ele>595</ele>
        <time>2019-03-23T15:36:34Z</time>
      </trkpt>
      <trkpt lat="44.34046" lon="5.76633">
        <ele>595</ele>
        <time>2019-03-23T15:36:35Z</time>
      </trkpt>
      <trkpt lat="44.3405" lon="5.7664">
        <ele>595</ele>
        <time>2019-03-23T15:36:36Z</time>
      </trkpt>
      <trkpt lat="44.34054" lon="5.76647">
        <ele>594</ele>
        <time>2019-03-23T15:36:37Z</time>
      </trkpt>
      <trkpt lat="44.34057" lon="5.76655">
        <ele>594</ele>
        <time>2019-03-23T15:36:38Z</time>
      </trkpt>
      <trkpt lat="44.34059" lon="5.76663">
        <ele>594</ele>
        <time>2019-03-23T15:36:39Z</time>
      </trkpt>
      <trkpt lat="44.34058" lon="5.76672">
        <ele>594</ele>
        <time>2019-03-23T15:36:40Z</time>
      </trkpt>
      <trkpt lat="44.34053" lon="5.76678">
        <ele>593</ele>
        <time>2019-03-23T15:36:41Z</time>
      </trkpt>
      <trkpt lat="44.34047" lon="5.76681">
        <ele>593</ele>
        <time>2019-03-23T15:36:42Z</time>
      </trkpt>
      <trkpt lat="44.3404" lon="5.76684">
        <ele>592</ele>
        <time>2019-03-23T15:36:43Z</time>
      </trkpt>
      <trkpt lat="44.34034" lon="5.76687">
        <ele>592</ele>
        <time>2019-03-23T15:36:44Z</time>
      </trkpt>
      <trkpt lat="44.34028" lon="5.76691">
        <ele>592</ele>
        <time>2019-03-23T15:36:45Z</time>
      </trkpt>
      <trkpt lat="44.34022" lon="5.76696">
        <ele>592</ele>
        <time>2019-03-23T15:36:46Z</time>
      </trkpt>
      <trkpt lat="44.34018" lon="5.76702">
        <ele>592</ele>
        <time>2019-03-23T15:36:47Z</time>
      </trkpt>
      <trkpt lat="44.34014" lon="5.76709">
        <ele>592</ele>
        <time>2019-03-23T15:36:48Z</time>
      </trkpt>
      <trkpt lat="44.34012" lon="5.76717">
        <ele>592</ele>
        <time>2019-03-23T15:36:49Z</time>
      </trkpt>
      <trkpt lat="44.34011" lon="5.76724">
        <ele>592</ele>
        <time>2019-03-23T15:36:50Z</time>
      </trkpt>
      <trkpt lat="44.34011" lon="5.76732">
        <ele>592</ele>
        <time>2019-03-23T15:36:51Z</time>
      </trkpt>
      <trkpt lat="44.34012" lon="5.7674">
        <ele>592</ele>
        <time>2019-03-23T15:36:52Z</time>
      </trkpt>
      <trkpt lat="44.34013" lon="5.76748">
        <ele>592</ele>
        <time>2019-03-23T15:36:53Z</time>
      </trkpt>
      <trkpt lat="44.34014" lon="5.76755">
        <ele>592</ele>
        <time>2019-03-23T15:36:54Z</time>
      </trkpt>
      <trkpt lat="44.34015" lon="5.76763">
        <ele>592</ele>
        <time>2019-03-23T15:36:55Z</time>
      </trkpt>
      <trkpt lat="44.34016" lon="5.7677">
        <ele>592</ele>
        <time>2019-03-23T15:36:56Z</time>
      </trkpt>
      <trkpt lat="44.34017" lon="5.76778">
        <ele>592</ele>
        <time>2019-03-23T15:36:57Z</time>
      </trkpt>
      <trkpt lat="44.34018" lon="5.76785">
        <ele>592</ele>
        <time>2019-03-23T15:36:58Z</time>
      </trkpt>
      <trkpt lat="44.3402" lon="5.76792">
        <ele>592</ele>
        <time>2019-03-23T15:36:59Z</time>
      </trkpt>
      <trkpt lat="44.3402" lon="5.768">
        <ele>592</ele>
        <time>2019-03-23T15:37:00Z</time>
      </trkpt>
      <trkpt lat="44.34021" lon="5.76807">
        <ele>592</ele>
        <time>2019-03-23T15:37:01Z</time>
      </trkpt>
      <trkpt lat="44.34021" lon="5.76815">
        <ele>592</ele>
        <time>2019-03-23T15:37:02Z</time>
      </trkpt>
      <trkpt lat="44.34022" lon="5.76822">
        <ele>592</ele>
        <time>2019-03-23T15:37:03Z</time>
      </trkpt>
      <trkpt lat="44.34022" lon="5.76829">
        <ele>592</ele>
        <time>2019-03-23T15:37:04Z</time>
      </trkpt>
      <trkpt lat="44.34021" lon="5.76836">
        <ele>592</ele>
        <time>2019-03-23T15:37:05Z</time>
      </trkpt>
      <trkpt lat="44.3402" lon="5.76842">
        <ele>592</ele>
        <time>2019-03-23T15:37:06Z</time>
      </trkpt>
      <trkpt lat="44.34018" lon="5.76849">
        <ele>593</ele>
        <time>2019-03-23T15:37:07Z</time>
      </trkpt>
      <trkpt lat="44.34017" lon="5.76855">
        <ele>593</ele>
        <time>2019-03-23T15:37:08Z</time>
      </trkpt>
      <trkpt lat="44.34015" lon="5.76861">
        <ele>593</ele>
        <time>2019-03-23T15:37:09Z</time>
      </trkpt>
      <trkpt lat="44.34013" lon="5.76867">
        <ele>594</ele>
        <time>2019-03-23T15:37:10Z</time>
      </trkpt>
      <trkpt lat="44.34012" lon="5.76874">
        <ele>594</ele>
        <time>2019-03-23T15:37:11Z</time>
      </trkpt>
      <trkpt lat="44.3401" lon="5.7688">
        <ele>594</ele>
        <time>2019-03-23T15:37:12Z</time>
      </trkpt>
      <trkpt lat="44.34008" lon="5.76886">
        <ele>594</ele>
        <time>2019-03-23T15:37:13Z</time>
      </trkpt>
      <trkpt lat="44.34007" lon="5.76893">
        <ele>594</ele>
        <time>2019-03-23T15:37:14Z</time>
      </trkpt>
      <trkpt lat="44.34006" lon="5.76899">
        <ele>594</ele>
        <time>2019-03-23T15:37:15Z</time>
      </trkpt>
      <trkpt lat="44.34005" lon="5.76905">
        <ele>595</ele>
        <time>2019-03-23T15:37:16Z</time>
      </trkpt>
      <trkpt lat="44.34003" lon="5.76912">
        <ele>595</ele>
        <time>2019-03-23T15:37:17Z</time>
      </trkpt>
      <trkpt lat="44.34002" lon="5.76919">
        <ele>595</ele>
        <time>2019-03-23T15:37:18Z</time>
      </trkpt>
      <trkpt lat="44.34001" lon="5.76925">
        <ele>595</ele>
        <time>2019-03-23T15:37:19Z</time>
      </trkpt>
      <trkpt lat="44.34" lon="5.76932">
        <ele>595</ele>
        <time>2019-03-23T15:37:20Z</time>
      </trkpt>
      <trkpt lat="44.33999" lon="5.76938">
        <ele>595</ele>
        <time>2019-03-23T15:37:21Z</time>
      </trkpt>
      <trkpt lat="44.33998" lon="5.76945">
        <ele>595</ele>
        <time>2019-03-23T15:37:22Z</time>
      </trkpt>
      <trkpt lat="44.33997" lon="5.76951">
        <ele>595</ele>
        <time>2019-03-23T15:37:23Z</time>
      </trkpt>
      <trkpt lat="44.33996" lon="5.76958">
        <ele>596</ele>
        <time>2019-03-23T15:37:24Z</time>
      </trkpt>
      <trkpt lat="44.33995" lon="5.76964">
        <ele>596</ele>
        <time>2019-03-23T15:37:25Z</time>
      </trkpt>
      <trkpt lat="44.33995" lon="5.76969">
        <ele>596</ele>
        <time>2019-03-23T15:37:26Z</time>
      </trkpt>
      <trkpt lat="44.33994" lon="5.76975">
        <ele>596</ele>
        <time>2019-03-23T15:37:27Z</time>
      </trkpt>
      <trkpt lat="44.33993" lon="5.76981">
        <ele>596</ele>
        <time>2019-03-23T15:37:28Z</time>
      </trkpt>
      <trkpt lat="44.33992" lon="5.76987">
        <ele>596</ele>
        <time>2019-03-23T15:37:29Z</time>
      </trkpt>
      <trkpt lat="44.33991" lon="5.76992">
        <ele>596</ele>
        <time>2019-03-23T15:37:30Z</time>
      </trkpt>
      <trkpt lat="44.3399" lon="5.76998">
        <ele>596</ele>
        <time>2019-03-23T15:37:31Z</time>
      </trkpt>
      <trkpt lat="44.3399" lon="5.77003">
        <ele>596</ele>
        <time>2019-03-23T15:37:32Z</time>
      </trkpt>
      <trkpt lat="44.33989" lon="5.77008">
        <ele>597</ele>
        <time>2019-03-23T15:37:33Z</time>
      </trkpt>
      <trkpt lat="44.33989" lon="5.77013">
        <ele>597</ele>
        <time>2019-03-23T15:37:34Z</time>
      </trkpt>
      <trkpt lat="44.33988" lon="5.77017">
        <ele>597</ele>
        <time>2019-03-23T15:37:35Z</time>
      </trkpt>
      <trkpt lat="44.33987" lon="5.77021">
        <ele>597</ele>
        <time>2019-03-23T15:37:36Z</time>
      </trkpt>
      <trkpt lat="44.33986" lon="5.77025">
        <ele>597</ele>
        <time>2019-03-23T15:37:37Z</time>
      </trkpt>
      <trkpt lat="44.33987" lon="5.77029">
        <ele>597</ele>
        <time>2019-03-23T15:37:38Z</time>
      </trkpt>
      <trkpt lat="44.33986" lon="5.77033">
        <ele>597</ele>
        <time>2019-03-23T15:37:39Z</time>
      </trkpt>
      <trkpt lat="44.33986" lon="5.77037">
        <ele>597</ele>
        <time>2019-03-23T15:37:40Z</time>
      </trkpt>
      <trkpt lat="44.33986" lon="5.7704">
        <ele>597</ele>
        <time>2019-03-23T15:37:41Z</time>
      </trkpt>
      <trkpt lat="44.33985" lon="5.77044">
        <ele>597</ele>
        <time>2019-03-23T15:37:42Z</time>
      </trkpt>
      <trkpt lat="44.33984" lon="5.77049">
        <ele>597</ele>
        <time>2019-03-23T15:37:43Z</time>
      </trkpt>
      <trkpt lat="44.33983" lon="5.77053">
        <ele>597</ele>
        <time>2019-03-23T15:37:44Z</time>
      </trkpt>
      <trkpt lat="44.33983" lon="5.77057">
        <ele>597</ele>
        <time>2019-03-23T15:37:45Z</time>
      </trkpt>
      <trkpt lat="44.33983" lon="5.77061">
        <ele>597</ele>
        <time>2019-03-23T15:37:46Z</time>
      </trkpt>
      <trkpt lat="44.33983" lon="5.77066">
        <ele>597</ele>
        <time>2019-03-23T15:37:47Z</time>
      </trkpt>
      <trkpt lat="44.33982" lon="5.7707">
        <ele>597</ele>
        <time>2019-03-23T15:37:48Z</time>
      </trkpt>
      <trkpt lat="44.33981" lon="5.77074">
        <ele>597</ele>
        <time>2019-03-23T15:37:49Z</time>
      </trkpt>
      <trkpt lat="44.33981" lon="5.77079">
        <ele>598</ele>
        <time>2019-03-23T15:37:50Z</time>
      </trkpt>
      <trkpt lat="44.3398" lon="5.77083">
        <ele>598</ele>
        <time>2019-03-23T15:37:51Z</time>
      </trkpt>
      <trkpt lat="44.3398" lon="5.77088">
        <ele>598</ele>
        <time>2019-03-23T15:37:52Z</time>
      </trkpt>
      <trkpt lat="44.33979" lon="5.77093">
        <ele>598</ele>
        <time>2019-03-23T15:37:53Z</time>
      </trkpt>
      <trkpt lat="44.33978" lon="5.77098">
        <ele>599</ele>
        <time>2019-03-23T15:37:54Z</time>
      </trkpt>
      <trkpt lat="44.33978" lon="5.77102">
        <ele>599</ele>
        <time>2019-03-23T15:37:55Z</time>
      </trkpt>
      <trkpt lat="44.33977" lon="5.77106">
        <ele>599</ele>
        <time>2019-03-23T15:37:56Z</time>
      </trkpt>
      <trkpt lat="44.33977" lon="5.77109">
        <ele>599</ele>
        <time>2019-03-23T15:37:57Z</time>
      </trkpt>
      <trkpt lat="44.33977" lon="5.77113">
        <ele>599</ele>
        <time>2019-03-23T15:37:58Z</time>
      </trkpt>
      <trkpt lat="44.33977" lon="5.77116">
        <ele>600</ele>
        <time>2019-03-23T15:37:59Z</time>
      </trkpt>
      <trkpt lat="44.33977" lon="5.7712">
        <ele>600</ele>
        <time>2019-03-23T15:38:00Z</time>
      </trkpt>
      <trkpt lat="44.33978" lon="5.77123">
        <ele>600</ele>
        <time>2019-03-23T15:38:01Z</time>
      </trkpt>
      <trkpt lat="44.33978" lon="5.77126">
        <ele>600</ele>
        <time>2019-03-23T15:38:02Z</time>
      </trkpt>
      <trkpt lat="44.33977" lon="5.77129">
        <ele>601</ele>
        <time>2019-03-23T15:38:03Z</time>
      </trkpt>
      <trkpt lat="44.33977" lon="5.77132">
        <ele>601</ele>
        <time>2019-03-23T15:38:04Z</time>
      </trkpt>
      <trkpt lat="44.33977" lon="5.77135">
        <ele>601</ele>
        <time>2019-03-23T15:38:05Z</time>
      </trkpt>
      <trkpt lat="44.33976" lon="5.77139">
        <ele>601</ele>
        <time>2019-03-23T15:38:06Z</time>
      </trkpt>
      <trkpt lat="44.33976" lon="5.77142">
        <ele>601</ele>
        <time>2019-03-23T15:38:07Z</time>
      </trkpt>
      <trkpt lat="44.33977" lon="5.77145">
        <ele>601</ele>
        <time>2019-03-23T15:38:08Z</time>
      </trkpt>
      <trkpt lat="44.33977" lon="5.77149">
        <ele>602</ele>
        <time>2019-03-23T15:38:09Z</time>
      </trkpt>
      <trkpt lat="44.33977" lon="5.77152">
        <ele>602</ele>
        <time>2019-03-23T15:38:10Z</time>
      </trkpt>
      <trkpt lat="44.33977" lon="5.77155">
        <ele>602</ele>
        <time>2019-03-23T15:38:11Z</time>
      </trkpt>
      <trkpt lat="44.33977" lon="5.77159">
        <ele>602</ele>
        <time>2019-03-23T15:38:12Z</time>
      </trkpt>
      <trkpt lat="44.33977" lon="5.77162">
        <ele>603</ele>
        <time>2019-03-23T15:38:13Z</time>
      </trkpt>
      <trkpt lat="44.33977" lon="5.77165">
        <ele>603</ele>
        <time>2019-03-23T15:38:14Z</time>
      </trkpt>
      <trkpt lat="44.33977" lon="5.77168">
        <ele>603</ele>
        <time>2019-03-23T15:38:15Z</time>
      </trkpt>
      <trkpt lat="44.33977" lon="5.77172">
        <ele>603</ele>
        <time>2019-03-23T15:38:16Z</time>
      </trkpt>
      <trkpt lat="44.33977" lon="5.77175">
        <ele>604</ele>
        <time>2019-03-23T15:38:17Z</time>
      </trkpt>
      <trkpt lat="44.33977" lon="5.77178">
        <ele>604</ele>
        <time>2019-03-23T15:38:18Z</time>
      </trkpt>
      <trkpt lat="44.33977" lon="5.77181">
        <ele>604</ele>
        <time>2019-03-23T15:38:19Z</time>
      </trkpt>
      <trkpt lat="44.33977" lon="5.77184">
        <ele>604</ele>
        <time>2019-03-23T15:38:20Z</time>
      </trkpt>
      <trkpt lat="44.33978" lon="5.77188">
        <ele>605</ele>
        <time>2019-03-23T15:38:21Z</time>
      </trkpt>
      <trkpt lat="44.33978" lon="5.77191">
        <ele>605</ele>
        <time>2019-03-23T15:38:22Z</time>
      </trkpt>
      <trkpt lat="44.33978" lon="5.77195">
        <ele>605</ele>
        <time>2019-03-23T15:38:23Z</time>
      </trkpt>
      <trkpt lat="44.33978" lon="5.77198">
        <ele>606</ele>
        <time>2019-03-23T15:38:24Z</time>
      </trkpt>
      <trkpt lat="44.33979" lon="5.77202">
        <ele>606</ele>
        <time>2019-03-23T15:38:25Z</time>
      </trkpt>
      <trkpt lat="44.33979" lon="5.77206">
        <ele>606</ele>
        <time>2019-03-23T15:38:26Z</time>
      </trkpt>
      <trkpt lat="44.33979" lon="5.77209">
        <ele>607</ele>
        <time>2019-03-23T15:38:27Z</time>
      </trkpt>
      <trkpt lat="44.3398" lon="5.77213">
        <ele>607</ele>
        <time>2019-03-23T15:38:28Z</time>
      </trkpt>
      <trkpt lat="44.3398" lon="5.77216">
        <ele>608</ele>
        <time>2019-03-23T15:38:29Z</time>
      </trkpt>
      <trkpt lat="44.33981" lon="5.7722">
        <ele>608</ele>
        <time>2019-03-23T15:38:30Z</time>
      </trkpt>
      <trkpt lat="44.33981" lon="5.77223">
        <ele>609</ele>
        <time>2019-03-23T15:38:31Z</time>
      </trkpt>
      <trkpt lat="44.33981" lon="5.77227">
        <ele>609</ele>
        <time>2019-03-23T15:38:32Z</time>
      </trkpt>
      <trkpt lat="44.33981" lon="5.7723">
        <ele>609</ele>
        <time>2019-03-23T15:38:33Z</time>
      </trkpt>
      <trkpt lat="44.33981" lon="5.77234">
        <ele>610</ele>
        <time>2019-03-23T15:38:34Z</time>
      </trkpt>
      <trkpt lat="44.33981" lon="5.77237">
        <ele>610</ele>
        <time>2019-03-23T15:38:35Z</time>
      </trkpt>
      <trkpt lat="44.33981" lon="5.7724">
        <ele>611</ele>
        <time>2019-03-23T15:38:36Z</time>
      </trkpt>
      <trkpt lat="44.33981" lon="5.77244">
        <ele>611</ele>
        <time>2019-03-23T15:38:37Z</time>
      </trkpt>
      <trkpt lat="44.33981" lon="5.77247">
        <ele>611</ele>
        <time>2019-03-23T15:38:38Z</time>
      </trkpt>
      <trkpt lat="44.33981" lon="5.7725">
        <ele>611</ele>
        <time>2019-03-23T15:38:39Z</time>
      </trkpt>
      <trkpt lat="44.3398" lon="5.77254">
        <ele>612</ele>
        <time>2019-03-23T15:38:40Z</time>
      </trkpt>
      <trkpt lat="44.3398" lon="5.77257">
        <ele>612</ele>
        <time>2019-03-23T15:38:41Z</time>
      </trkpt>
      <trkpt lat="44.3398" lon="5.77261">
        <ele>612</ele>
        <time>2019-03-23T15:38:42Z</time>
      </trkpt>
      <trkpt lat="44.3398" lon="5.77264">
        <ele>612</ele>
        <time>2019-03-23T15:38:43Z</time>
      </trkpt>
      <trkpt lat="44.3398" lon="5.77268">
        <ele>613</ele>
        <time>2019-03-23T15:38:44Z</time>
      </trkpt>
      <trkpt lat="44.3398" lon="5.77271">
        <ele>613</ele>
        <time>2019-03-23T15:38:45Z</time>
      </trkpt>
      <trkpt lat="44.33981" lon="5.77275">
        <ele>613</ele>
        <time>2019-03-23T15:38:46Z</time>
      </trkpt>
      <trkpt lat="44.33981" lon="5.77278">
        <ele>613</ele>
        <time>2019-03-23T15:38:47Z</time>
      </trkpt>
      <trkpt lat="44.33981" lon="5.77281">
        <ele>613</ele>
        <time>2019-03-23T15:38:48Z</time>
      </trkpt>
      <trkpt lat="44.33982" lon="5.77285">
        <ele>613</ele>
        <time>2019-03-23T15:38:49Z</time>
      </trkpt>
      <trkpt lat="44.33982" lon="5.77288">
        <ele>614</ele>
        <time>2019-03-23T15:38:50Z</time>
      </trkpt>
      <trkpt lat="44.33983" lon="5.77291">
        <ele>614</ele>
        <time>2019-03-23T15:38:51Z</time>
      </trkpt>
      <trkpt lat="44.33984" lon="5.77294">
        <ele>614</ele>
        <time>2019-03-23T15:38:52Z</time>
      </trkpt>
      <trkpt lat="44.33984" lon="5.77298">
        <ele>614</ele>
        <time>2019-03-23T15:38:53Z</time>
      </trkpt>
      <trkpt lat="44.33985" lon="5.77301">
        <ele>614</ele>
        <time>2019-03-23T15:38:54Z</time>
      </trkpt>
      <trkpt lat="44.33986" lon="5.77304">
        <ele>614</ele>
        <time>2019-03-23T15:38:55Z</time>
      </trkpt>
      <trkpt lat="44.33986" lon="5.77308">
        <ele>615</ele>
        <time>2019-03-23T15:38:56Z</time>
      </trkpt>
      <trkpt lat="44.33987" lon="5.77311">
        <ele>615</ele>
        <time>2019-03-23T15:38:57Z</time>
      </trkpt>
      <trkpt lat="44.33987" lon="5.77315">
        <ele>615</ele>
        <time>2019-03-23T15:38:58Z</time>
      </trkpt>
      <trkpt lat="44.33987" lon="5.77318">
        <ele>615</ele>
        <time>2019-03-23T15:38:59Z</time>
      </trkpt>
      <trkpt lat="44.33987" lon="5.77322">
        <ele>615</ele>
        <time>2019-03-23T15:39:00Z</time>
      </trkpt>
      <trkpt lat="44.33987" lon="5.77325">
        <ele>616</ele>
        <time>2019-03-23T15:39:01Z</time>
      </trkpt>
      <trkpt lat="44.33987" lon="5.77328">
        <ele>616</ele>
        <time>2019-03-23T15:39:02Z</time>
      </trkpt>
      <trkpt lat="44.33987" lon="5.77332">
        <ele>616</ele>
        <time>2019-03-23T15:39:03Z</time>
      </trkpt>
      <trkpt lat="44.33987" lon="5.77335">
        <ele>616</ele>
        <time>2019-03-23T15:39:04Z</time>
      </trkpt>
      <trkpt lat="44.33987" lon="5.77339">
        <ele>616</ele>
        <time>2019-03-23T15:39:05Z</time>
      </trkpt>
      <trkpt lat="44.33987" lon="5.77343">
        <ele>616</ele>
        <time>2019-03-23T15:39:06Z</time>
      </trkpt>
      <trkpt lat="44.33987" lon="5.77346">
        <ele>617</ele>
        <time>2019-03-23T15:39:07Z</time>
      </trkpt>
      <trkpt lat="44.33986" lon="5.7735">
        <ele>617</ele>
        <time>2019-03-23T15:39:08Z</time>
      </trkpt>
      <trkpt lat="44.33985" lon="5.77353">
        <ele>617</ele>
        <time>2019-03-23T15:39:09Z</time>
      </trkpt>
      <trkpt lat="44.33985" lon="5.77356">
        <ele>617</ele>
        <time>2019-03-23T15:39:10Z</time>
      </trkpt>
      <trkpt lat="44.33984" lon="5.7736">
        <ele>617</ele>
        <time>2019-03-23T15:39:11Z</time>
      </trkpt>
      <trkpt lat="44.33984" lon="5.77364">
        <ele>617</ele>
        <time>2019-03-23T15:39:12Z</time>
      </trkpt>
      <trkpt lat="44.33983" lon="5.77367">
        <ele>617</ele>
        <time>2019-03-23T15:39:13Z</time>
      </trkpt>
      <trkpt lat="44.33983" lon="5.77371">
        <ele>617</ele>
        <time>2019-03-23T15:39:14Z</time>
      </trkpt>
      <trkpt lat="44.33982" lon="5.77375">
        <ele>617</ele>
        <time>2019-03-23T15:39:15Z</time>
      </trkpt>
      <trkpt lat="44.33981" lon="5.77378">
        <ele>617</ele>
        <time>2019-03-23T15:39:16Z</time>
      </trkpt>
      <trkpt lat="44.33981" lon="5.77381">
        <ele>618</ele>
        <time>2019-03-23T15:39:17Z</time>
      </trkpt>
      <trkpt lat="44.33981" lon="5.77384">
        <ele>618</ele>
        <time>2019-03-23T15:39:18Z</time>
      </trkpt>
      <trkpt lat="44.3398" lon="5.77388">
        <ele>618</ele>
        <time>2019-03-23T15:39:19Z</time>
      </trkpt>
      <trkpt lat="44.3398" lon="5.77391">
        <ele>618</ele>
        <time>2019-03-23T15:39:20Z</time>
      </trkpt>
      <trkpt lat="44.33979" lon="5.77394">
        <ele>618</ele>
        <time>2019-03-23T15:39:21Z</time>
      </trkpt>
      <trkpt lat="44.33979" lon="5.77398">
        <ele>618</ele>
        <time>2019-03-23T15:39:22Z</time>
      </trkpt>
      <trkpt lat="44.33979" lon="5.77402">
        <ele>618</ele>
        <time>2019-03-23T15:39:23Z</time>
      </trkpt>
      <trkpt lat="44.33979" lon="5.77406">
        <ele>618</ele>
        <time>2019-03-23T15:39:24Z</time>
      </trkpt>
      <trkpt lat="44.3398" lon="5.77409">
        <ele>618</ele>
        <time>2019-03-23T15:39:25Z</time>
      </trkpt>
      <trkpt lat="44.33981" lon="5.77413">
        <ele>618</ele>
        <time>2019-03-23T15:39:26Z</time>
      </trkpt>
      <trkpt lat="44.33982" lon="5.77416">
        <ele>619</ele>
        <time>2019-03-23T15:39:27Z</time>
      </trkpt>
      <trkpt lat="44.33983" lon="5.7742">
        <ele>619</ele>
        <time>2019-03-23T15:39:28Z</time>
      </trkpt>
      <trkpt lat="44.33984" lon="5.77423">
        <ele>619</ele>
        <time>2019-03-23T15:39:29Z</time>
      </trkpt>
      <trkpt lat="44.33985" lon="5.77426">
        <ele>619</ele>
        <time>2019-03-23T15:39:30Z</time>
      </trkpt>
      <trkpt lat="44.33986" lon="5.7743">
        <ele>619</ele>
        <time>2019-03-23T15:39:31Z</time>
      </trkpt>
      <trkpt lat="44.33987" lon="5.77433">
        <ele>619</ele>
        <time>2019-03-23T15:39:32Z</time>
      </trkpt>
      <trkpt lat="44.33987" lon="5.77437">
        <ele>619</ele>
        <time>2019-03-23T15:39:33Z</time>
      </trkpt>
      <trkpt lat="44.33988" lon="5.7744">
        <ele>619</ele>
        <time>2019-03-23T15:39:34Z</time>
      </trkpt>
      <trkpt lat="44.33989" lon="5.77443">
        <ele>619</ele>
        <time>2019-03-23T15:39:35Z</time>
      </trkpt>
      <trkpt lat="44.3399" lon="5.77447">
        <ele>620</ele>
        <time>2019-03-23T15:39:36Z</time>
      </trkpt>
      <trkpt lat="44.33991" lon="5.77449">
        <ele>620</ele>
        <time>2019-03-23T15:39:37Z</time>
      </trkpt>
      <trkpt lat="44.33992" lon="5.77452">
        <ele>620</ele>
        <time>2019-03-23T15:39:38Z</time>
      </trkpt>
      <trkpt lat="44.33993" lon="5.77455">
        <ele>620</ele>
        <time>2019-03-23T15:39:39Z</time>
      </trkpt>
      <trkpt lat="44.33994" lon="5.77458">
        <ele>620</ele>
        <time>2019-03-23T15:39:40Z</time>
      </trkpt>
      <trkpt lat="44.33995" lon="5.77461">
        <ele>620</ele>
        <time>2019-03-23T15:39:41Z</time>
      </trkpt>
      <trkpt lat="44.33996" lon="5.77464">
        <ele>620</ele>
        <time>2019-03-23T15:39:42Z</time>
      </trkpt>
      <trkpt lat="44.33997" lon="5.77467">
        <ele>620</ele>
        <time>2019-03-23T15:39:43Z</time>
      </trkpt>
      <trkpt lat="44.33998" lon="5.7747">
        <ele>620</ele>
        <time>2019-03-23T15:39:44Z</time>
      </trkpt>
      <trkpt lat="44.34" lon="5.77473">
        <ele>621</ele>
        <time>2019-03-23T15:39:45Z</time>
      </trkpt>
      <trkpt lat="44.34001" lon="5.77477">
        <ele>621</ele>
        <time>2019-03-23T15:39:46Z</time>
      </trkpt>
      <trkpt lat="44.34002" lon="5.7748">
        <ele>621</ele>
        <time>2019-03-23T15:39:47Z</time>
      </trkpt>
      <trkpt lat="44.34003" lon="5.77483">
        <ele>621</ele>
        <time>2019-03-23T15:39:48Z</time>
      </trkpt>
      <trkpt lat="44.34004" lon="5.77487">
        <ele>621</ele>
        <time>2019-03-23T15:39:49Z</time>
      </trkpt>
      <trkpt lat="44.34005" lon="5.7749">
        <ele>621</ele>
        <time>2019-03-23T15:39:50Z</time>
      </trkpt>
      <trkpt lat="44.34006" lon="5.77493">
        <ele>622</ele>
        <time>2019-03-23T15:39:51Z</time>
      </trkpt>
      <trkpt lat="44.34007" lon="5.77496">
        <ele>622</ele>
        <time>2019-03-23T15:39:52Z</time>
      </trkpt>
      <trkpt lat="44.34008" lon="5.77499">
        <ele>622</ele>
        <time>2019-03-23T15:39:53Z</time>
      </trkpt>
      <trkpt lat="44.34008" lon="5.77503">
        <ele>622</ele>
        <time>2019-03-23T15:39:54Z</time>
      </trkpt>
      <trkpt lat="44.34009" lon="5.77507">
        <ele>622</ele>
        <time>2019-03-23T15:39:55Z</time>
      </trkpt>
      <trkpt lat="44.34009" lon="5.77512">
        <ele>622</ele>
        <time>2019-03-23T15:39:56Z</time>
      </trkpt>
      <trkpt lat="44.34008" lon="5.77517">
        <ele>622</ele>
        <time>2019-03-23T15:39:57Z</time>
      </trkpt>
      <trkpt lat="44.34008" lon="5.77522">
        <ele>622</ele>
        <time>2019-03-23T15:39:58Z</time>
      </trkpt>
      <trkpt lat="44.34006" lon="5.77528">
        <ele>622</ele>
        <time>2019-03-23T15:39:59Z</time>
      </trkpt>
      <trkpt lat="44.34005" lon="5.77533">
        <ele>623</ele>
        <time>2019-03-23T15:40:00Z</time>
      </trkpt>
      <trkpt lat="44.34002" lon="5.77538">
        <ele>623</ele>
        <time>2019-03-23T15:40:01Z</time>
      </trkpt>
      <trkpt lat="44.34" lon="5.77544">
        <ele>623</ele>
        <time>2019-03-23T15:40:02Z</time>
      </trkpt>
      <trkpt lat="44.33997" lon="5.7755">
        <ele>623</ele>
        <time>2019-03-23T15:40:03Z</time>
      </trkpt>
      <trkpt lat="44.33995" lon="5.77556">
        <ele>623</ele>
        <time>2019-03-23T15:40:04Z</time>
      </trkpt>
      <trkpt lat="44.33992" lon="5.77562">
        <ele>623</ele>
        <time>2019-03-23T15:40:05Z</time>
      </trkpt>
      <trkpt lat="44.3399" lon="5.77569">
        <ele>623</ele>
        <time>2019-03-23T15:40:06Z</time>
      </trkpt>
      <trkpt lat="44.33987" lon="5.77576">
        <ele>623</ele>
        <time>2019-03-23T15:40:07Z</time>
      </trkpt>
      <trkpt lat="44.33984" lon="5.77583">
        <ele>623</ele>
        <time>2019-03-23T15:40:08Z</time>
      </trkpt>
      <trkpt lat="44.33981" lon="5.77591">
        <ele>623</ele>
        <time>2019-03-23T15:40:09Z</time>
      </trkpt>
      <trkpt lat="44.33977" lon="5.77598">
        <ele>623</ele>
        <time>2019-03-23T15:40:10Z</time>
      </trkpt>
      <trkpt lat="44.33973" lon="5.77605">
        <ele>623</ele>
        <time>2019-03-23T15:40:11Z</time>
      </trkpt>
      <trkpt lat="44.33968" lon="5.77612">
        <ele>623</ele>
        <time>2019-03-23T15:40:12Z</time>
      </trkpt>
      <trkpt lat="44.33963" lon="5.77618">
        <ele>623</ele>
        <time>2019-03-23T15:40:13Z</time>
      </trkpt>
      <trkpt lat="44.33958" lon="5.77625">
        <ele>623</ele>
        <time>2019-03-23T15:40:14Z</time>
      </trkpt>
      <trkpt lat="44.33953" lon="5.77631">
        <ele>623</ele>
        <time>2019-03-23T15:40:15Z</time>
      </trkpt>
      <trkpt lat="44.33947" lon="5.77637">
        <ele>623</ele>
        <time>2019-03-23T15:40:16Z</time>
      </trkpt>
      <trkpt lat="44.3394" lon="5.77642">
        <ele>623</ele>
        <time>2019-03-23T15:40:17Z</time>
      </trkpt>
      <trkpt lat="44.33933" lon="5.77647">
        <ele>623</ele>
        <time>2019-03-23T15:40:18Z</time>
      </trkpt>
      <trkpt lat="44.33926" lon="5.77651">
        <ele>623</ele>
        <time>2019-03-23T15:40:19Z</time>
      </trkpt>
      <trkpt lat="44.33919" lon="5.77656">
        <ele>622</ele>
        <time>2019-03-23T15:40:20Z</time>
      </trkpt>
      <trkpt lat="44.33911" lon="5.77659">
        <ele>622</ele>
        <time>2019-03-23T15:40:21Z</time>
      </trkpt>
      <trkpt lat="44.33904" lon="5.77661">
        <ele>622</ele>
        <time>2019-03-23T15:40:22Z</time>
      </trkpt>
      <trkpt lat="44.33896" lon="5.77661">
        <ele>621</ele>
        <time>2019-03-23T15:40:23Z</time>
      </trkpt>
      <trkpt lat="44.33888" lon="5.77661">
        <ele>621</ele>
        <time>2019-03-23T15:40:24Z</time>
      </trkpt>
      <trkpt lat="44.33881" lon="5.7766">
        <ele>620</ele>
        <time>2019-03-23T15:40:25Z</time>
      </trkpt>
      <trkpt lat="44.33873" lon="5.77657">
        <ele>620</ele>
        <time>2019-03-23T15:40:26Z</time>
      </trkpt>
      <trkpt lat="44.33866" lon="5.77654">
        <ele>620</ele>
        <time>2019-03-23T15:40:27Z</time>
      </trkpt>
      <trkpt lat="44.3386" lon="5.77649">
        <ele>620</ele>
        <time>2019-03-23T15:40:28Z</time>
      </trkpt>
      <trkpt lat="44.33853" lon="5.77644">
        <ele>620</ele>
        <time>2019-03-23T15:40:29Z</time>
      </trkpt>
      <trkpt lat="44.33847" lon="5.77638">
        <ele>620</ele>
        <time>2019-03-23T15:40:30Z</time>
      </trkpt>
      <trkpt lat="44.33841" lon="5.77631">
        <ele>620</ele>
        <time>2019-03-23T15:40:31Z</time>
      </trkpt>
      <trkpt lat="44.33835" lon="5.77624">
        <ele>619</ele>
        <time>2019-03-23T15:40:32Z</time>
      </trkpt>
      <trkpt lat="44.33829" lon="5.77616">
        <ele>619</ele>
        <time>2019-03-23T15:40:33Z</time>
      </trkpt>
      <trkpt lat="44.33823" lon="5.77609">
        <ele>619</ele>
        <time>2019-03-23T15:40:34Z</time>
      </trkpt>
      <trkpt lat="44.33817" lon="5.77602">
        <ele>618</ele>
        <time>2019-03-23T15:40:35Z</time>
      </trkpt>
      <trkpt lat="44.33811" lon="5.77596">
        <ele>618</ele>
        <time>2019-03-23T15:40:36Z</time>
      </trkpt>
      <trkpt lat="44.33804" lon="5.7759">
        <ele>617</ele>
        <time>2019-03-23T15:40:37Z</time>
      </trkpt>
      <trkpt lat="44.33797" lon="5.77585">
        <ele>617</ele>
        <time>2019-03-23T15:40:38Z</time>
      </trkpt>
      <trkpt lat="44.3379" lon="5.7758">
        <ele>616</ele>
        <time>2019-03-23T15:40:39Z</time>
      </trkpt>
      <trkpt lat="44.33783" lon="5.77576">
        <ele>616</ele>
        <time>2019-03-23T15:40:40Z</time>
      </trkpt>
      <trkpt lat="44.33775" lon="5.77571">
        <ele>616</ele>
        <time>2019-03-23T15:40:41Z</time>
      </trkpt>
      <trkpt lat="44.33768" lon="5.77565">
        <ele>615</ele>
        <time>2019-03-23T15:40:42Z</time>
      </trkpt>
      <trkpt lat="44.3376" lon="5.7756">
        <ele>614</ele>
        <time>2019-03-23T15:40:43Z</time>
      </trkpt>
      <trkpt lat="44.33752" lon="5.77554">
        <ele>614</ele>
        <time>2019-03-23T15:40:44Z</time>
      </trkpt>
      <trkpt lat="44.33743" lon="5.77549">
        <ele>613</ele>
        <time>2019-03-23T15:40:45Z</time>
      </trkpt>
      <trkpt lat="44.33734" lon="5.77543">
        <ele>612</ele>
        <time>2019-03-23T15:40:46Z</time>
      </trkpt>
      <trkpt lat="44.33724" lon="5.77537">
        <ele>611</ele>
        <time>2019-03-23T15:40:47Z</time>
      </trkpt>
      <trkpt lat="44.33713" lon="5.77532">
        <ele>610</ele>
        <time>2019-03-23T15:40:48Z</time>
      </trkpt>
      <trkpt lat="44.33702" lon="5.77529">
        <ele>609</ele>
        <time>2019-03-23T15:40:49Z</time>
      </trkpt>
      <trkpt lat="44.33691" lon="5.77525">
        <ele>608</ele>
        <time>2019-03-23T15:40:50Z</time>
      </trkpt>
      <trkpt lat="44.3368" lon="5.77522">
        <ele>608</ele>
        <time>2019-03-23T15:40:51Z</time>
      </trkpt>
      <trkpt lat="44.33669" lon="5.77518">
        <ele>607</ele>
        <time>2019-03-23T15:40:52Z</time>
      </trkpt>
      <trkpt lat="44.33659" lon="5.77513">
        <ele>606</ele>
        <time>2019-03-23T15:40:53Z</time>
      </trkpt>
      <trkpt lat="44.33649" lon="5.77509">
        <ele>605</ele>
        <time>2019-03-23T15:40:54Z</time>
      </trkpt>
      <trkpt lat="44.33639" lon="5.77505">
        <ele>605</ele>
        <time>2019-03-23T15:40:55Z</time>
      </trkpt>
      <trkpt lat="44.3363" lon="5.77502">
        <ele>604</ele>
        <time>2019-03-23T15:40:56Z</time>
      </trkpt>
      <trkpt lat="44.33622" lon="5.775">
        <ele>604</ele>
        <time>2019-03-23T15:40:57Z</time>
      </trkpt>
      <trkpt lat="44.33614" lon="5.775">
        <ele>603</ele>
        <time>2019-03-23T15:40:58Z</time>
      </trkpt>
      <trkpt lat="44.33607" lon="5.77503">
        <ele>603</ele>
        <time>2019-03-23T15:40:59Z</time>
      </trkpt>
      <trkpt lat="44.33601" lon="5.77509">
        <ele>602</ele>
        <time>2019-03-23T15:41:00Z</time>
      </trkpt>
      <trkpt lat="44.33596" lon="5.77517">
        <ele>601</ele>
        <time>2019-03-23T15:41:01Z</time>
      </trkpt>
      <trkpt lat="44.3359" lon="5.77525">
        <ele>600</ele>
        <time>2019-03-23T15:41:02Z</time>
      </trkpt>
      <trkpt lat="44.33583" lon="5.77531">
        <ele>599</ele>
        <time>2019-03-23T15:41:03Z</time>
      </trkpt>
      <trkpt lat="44.33574" lon="5.77535">
        <ele>598</ele>
        <time>2019-03-23T15:41:04Z</time>
      </trkpt>
      <trkpt lat="44.33566" lon="5.77538">
        <ele>597</ele>
        <time>2019-03-23T15:41:05Z</time>
      </trkpt>
      <trkpt lat="44.33556" lon="5.77536">
        <ele>597</ele>
        <time>2019-03-23T15:41:06Z</time>
      </trkpt>
      <trkpt lat="44.33547" lon="5.77535">
        <ele>596</ele>
        <time>2019-03-23T15:41:07Z</time>
      </trkpt>
      <trkpt lat="44.33537" lon="5.77533">
        <ele>596</ele>
        <time>2019-03-23T15:41:08Z</time>
      </trkpt>
      <trkpt lat="44.33527" lon="5.7753">
        <ele>595</ele>
        <time>2019-03-23T15:41:09Z</time>
      </trkpt>
      <trkpt lat="44.33516" lon="5.77527">
        <ele>595</ele>
        <time>2019-03-23T15:41:10Z</time>
      </trkpt>
      <trkpt lat="44.33506" lon="5.77525">
        <ele>595</ele>
        <time>2019-03-23T15:41:11Z</time>
      </trkpt>
      <trkpt lat="44.33496" lon="5.77523">
        <ele>594</ele>
        <time>2019-03-23T15:41:12Z</time>
      </trkpt>
      <trkpt lat="44.33486" lon="5.77521">
        <ele>594</ele>
        <time>2019-03-23T15:41:13Z</time>
      </trkpt>
      <trkpt lat="44.33477" lon="5.77519">
        <ele>594</ele>
        <time>2019-03-23T15:41:14Z</time>
      </trkpt>
      <trkpt lat="44.33467" lon="5.77517">
        <ele>594</ele>
        <time>2019-03-23T15:41:15Z</time>
      </trkpt>
      <trkpt lat="44.33458" lon="5.77515">
        <ele>594</ele>
        <time>2019-03-23T15:41:16Z</time>
      </trkpt>
      <trkpt lat="44.3345" lon="5.77512">
        <ele>594</ele>
        <time>2019-03-23T15:41:17Z</time>
      </trkpt>
      <trkpt lat="44.33441" lon="5.7751">
        <ele>594</ele>
        <time>2019-03-23T15:41:18Z</time>
      </trkpt>
      <trkpt lat="44.33433" lon="5.77508">
        <ele>594</ele>
        <time>2019-03-23T15:41:19Z</time>
      </trkpt>
      <trkpt lat="44.33425" lon="5.77507">
        <ele>594</ele>
        <time>2019-03-23T15:41:20Z</time>
      </trkpt>
      <trkpt lat="44.33418" lon="5.77505">
        <ele>594</ele>
        <time>2019-03-23T15:41:21Z</time>
      </trkpt>
      <trkpt lat="44.3341" lon="5.77504">
        <ele>594</ele>
        <time>2019-03-23T15:41:22Z</time>
      </trkpt>
      <trkpt lat="44.33403" lon="5.77502">
        <ele>594</ele>
        <time>2019-03-23T15:41:23Z</time>
      </trkpt>
      <trkpt lat="44.33396" lon="5.77502">
        <ele>594</ele>
        <time>2019-03-23T15:41:24Z</time>
      </trkpt>
      <trkpt lat="44.3339" lon="5.77501">
        <ele>594</ele>
        <time>2019-03-23T15:41:25Z</time>
      </trkpt>
      <trkpt lat="44.33383" lon="5.775">
        <ele>594</ele>
        <time>2019-03-23T15:41:26Z</time>
      </trkpt>
      <trkpt lat="44.33376" lon="5.775">
        <ele>594</ele>
        <time>2019-03-23T15:41:27Z</time>
      </trkpt>
      <trkpt lat="44.33368" lon="5.775">
        <ele>594</ele>
        <time>2019-03-23T15:41:28Z</time>
      </trkpt>
      <trkpt lat="44.33361" lon="5.77501">
        <ele>594</ele>
        <time>2019-03-23T15:41:29Z</time>
      </trkpt>
      <trkpt lat="44.33354" lon="5.775">
        <ele>594</ele>
        <time>2019-03-23T15:41:30Z</time>
      </trkpt>
      <trkpt lat="44.33347" lon="5.775">
        <ele>594</ele>
        <time>2019-03-23T15:41:31Z</time>
      </trkpt>
      <trkpt lat="44.33339" lon="5.775">
        <ele>594</ele>
        <time>2019-03-23T15:41:32Z</time>
      </trkpt>
      <trkpt lat="44.33332" lon="5.775">
        <ele>594</ele>
        <time>2019-03-23T15:41:33Z</time>
      </trkpt>
      <trkpt lat="44.33324" lon="5.775">
        <ele>594</ele>
        <time>2019-03-23T15:41:34Z</time>
      </trkpt>
      <trkpt lat="44.33317" lon="5.775">
        <ele>594</ele>
        <time>2019-03-23T15:41:35Z</time>
      </trkpt>
      <trkpt lat="44.33309" lon="5.77499">
        <ele>594</ele>
        <time>2019-03-23T15:41:36Z</time>
      </trkpt>
      <trkpt lat="44.33301" lon="5.77499">
        <ele>594</ele>
        <time>2019-03-23T15:41:37Z</time>
      </trkpt>
      <trkpt lat="44.33293" lon="5.77498">
        <ele>594</ele>
        <time>2019-03-23T15:41:38Z</time>
      </trkpt>
      <trkpt lat="44.33285" lon="5.77498">
        <ele>594</ele>
        <time>2019-03-23T15:41:39Z</time>
      </trkpt>
      <trkpt lat="44.33277" lon="5.77498">
        <ele>594</ele>
        <time>2019-03-23T15:41:40Z</time>
      </trkpt>
      <trkpt lat="44.33269" lon="5.77499">
        <ele>594</ele>
        <time>2019-03-23T15:41:41Z</time>
      </trkpt>
      <trkpt lat="44.33262" lon="5.77499">
        <ele>594</ele>
        <time>2019-03-23T15:41:42Z</time>
      </trkpt>
      <trkpt lat="44.33255" lon="5.775">
        <ele>594</ele>
        <time>2019-03-23T15:41:43Z</time>
      </trkpt>
      <trkpt lat="44.33247" lon="5.77501">
        <ele>594</ele>
        <time>2019-03-23T15:41:44Z</time>
      </trkpt>
      <trkpt lat="44.33241" lon="5.77503">
        <ele>594</ele>
        <time>2019-03-23T15:41:45Z</time>
      </trkpt>
      <trkpt lat="44.33234" lon="5.77504">
        <ele>594</ele>
        <time>2019-03-23T15:41:46Z</time>
      </trkpt>
      <trkpt lat="44.33228" lon="5.77506">
        <ele>594</ele>
        <time>2019-03-23T15:41:47Z</time>
      </trkpt>
      <trkpt lat="44.33222" lon="5.77509">
        <ele>594</ele>
        <time>2019-03-23T15:41:48Z</time>
      </trkpt>
      <trkpt lat="44.33217" lon="5.77513">
        <ele>594</ele>
        <time>2019-03-23T15:41:49Z</time>
      </trkpt>
      <trkpt lat="44.33211" lon="5.77517">
        <ele>594</ele>
        <time>2019-03-23T15:41:50Z</time>
      </trkpt>
      <trkpt lat="44.33206" lon="5.77522">
        <ele>594</ele>
        <time>2019-03-23T15:41:51Z</time>
      </trkpt>
      <trkpt lat="44.33202" lon="5.77528">
        <ele>594</ele>
        <time>2019-03-23T15:41:52Z</time>
      </trkpt>
      <trkpt lat="44.33198" lon="5.77533">
        <ele>594</ele>
        <time>2019-03-23T15:41:53Z</time>
      </trkpt>
      <trkpt lat="44.33194" lon="5.77538">
        <ele>594</ele>
        <time>2019-03-23T15:41:54Z</time>
      </trkpt>
      <trkpt lat="44.3319" lon="5.77543">
        <ele>594</ele>
        <time>2019-03-23T15:41:55Z</time>
      </trkpt>
      <trkpt lat="44.33186" lon="5.77547">
        <ele>594</ele>
        <time>2019-03-23T15:41:56Z</time>
      </trkpt>
      <trkpt lat="44.33182" lon="5.77551">
        <ele>593</ele>
        <time>2019-03-23T15:41:57Z</time>
      </trkpt>
      <trkpt lat="44.33177" lon="5.77554">
        <ele>593</ele>
        <time>2019-03-23T15:41:58Z</time>
      </trkpt>
      <trkpt lat="44.33173" lon="5.77558">
        <ele>593</ele>
        <time>2019-03-23T15:41:59Z</time>
      </trkpt>
      <trkpt lat="44.33169" lon="5.77561">
        <ele>593</ele>
        <time>2019-03-23T15:42:00Z</time>
      </trkpt>
      <trkpt lat="44.33164" lon="5.77564">
        <ele>593</ele>
        <time>2019-03-23T15:42:01Z</time>
      </trkpt>
      <trkpt lat="44.3316" lon="5.77566">
        <ele>593</ele>
        <time>2019-03-23T15:42:02Z</time>
      </trkpt>
      <trkpt lat="44.33155" lon="5.77569">
        <ele>593</ele>
        <time>2019-03-23T15:42:03Z</time>
      </trkpt>
      <trkpt lat="44.3315" lon="5.77573">
        <ele>593</ele>
        <time>2019-03-23T15:42:04Z</time>
      </trkpt>
      <trkpt lat="44.33145" lon="5.77576">
        <ele>593</ele>
        <time>2019-03-23T15:42:05Z</time>
      </trkpt>
      <trkpt lat="44.3314" lon="5.77579">
        <ele>593</ele>
        <time>2019-03-23T15:42:06Z</time>
      </trkpt>
      <trkpt lat="44.33135" lon="5.77583">
        <ele>593</ele>
        <time>2019-03-23T15:42:07Z</time>
      </trkpt>
      <trkpt lat="44.33129" lon="5.77586">
        <ele>593</ele>
        <time>2019-03-23T15:42:08Z</time>
      </trkpt>
      <trkpt lat="44.33124" lon="5.77589">
        <ele>593</ele>
        <time>2019-03-23T15:42:09Z</time>
      </trkpt>
      <trkpt lat="44.33118" lon="5.77591">
        <ele>592</ele>
        <time>2019-03-23T15:42:10Z</time>
      </trkpt>
      <trkpt lat="44.33112" lon="5.77592">
        <ele>592</ele>
        <time>2019-03-23T15:42:11Z</time>
      </trkpt>
      <trkpt lat="44.33106" lon="5.77593">
        <ele>592</ele>
        <time>2019-03-23T15:42:12Z</time>
      </trkpt>
      <trkpt lat="44.331" lon="5.77594">
        <ele>592</ele>
        <time>2019-03-23T15:42:13Z</time>
      </trkpt>
      <trkpt lat="44.33094" lon="5.77593">
        <ele>592</ele>
        <time>2019-03-23T15:42:14Z</time>
      </trkpt>
      <trkpt lat="44.33088" lon="5.77593">
        <ele>592</ele>
        <time>2019-03-23T15:42:15Z</time>
      </trkpt>
      <trkpt lat="44.33082" lon="5.77593">
        <ele>592</ele>
        <time>2019-03-23T15:42:16Z</time>
      </trkpt>
      <trkpt lat="44.33076" lon="5.77593">
        <ele>591</ele>
        <time>2019-03-23T15:42:17Z</time>
      </trkpt>
      <trkpt lat="44.3307" lon="5.77593">
        <ele>591</ele>
        <time>2019-03-23T15:42:18Z</time>
      </trkpt>
      <trkpt lat="44.33064" lon="5.77592">
        <ele>591</ele>
        <time>2019-03-23T15:42:19Z</time>
      </trkpt>
      <trkpt lat="44.33058" lon="5.77592">
        <ele>591</ele>
        <time>2019-03-23T15:42:20Z</time>
      </trkpt>
      <trkpt lat="44.33052" lon="5.77592">
        <ele>591</ele>
        <time>2019-03-23T15:42:21Z</time>
      </trkpt>
      <trkpt lat="44.33047" lon="5.77592">
        <ele>591</ele>
        <time>2019-03-23T15:42:22Z</time>
      </trkpt>
      <trkpt lat="44.33041" lon="5.77592">
        <ele>591</ele>
        <time>2019-03-23T15:42:23Z</time>
      </trkpt>
      <trkpt lat="44.33036" lon="5.77593">
        <ele>591</ele>
        <time>2019-03-23T15:42:24Z</time>
      </trkpt>
      <trkpt lat="44.3303" lon="5.77593">
        <ele>591</ele>
        <time>2019-03-23T15:42:25Z</time>
      </trkpt>
      <trkpt lat="44.33025" lon="5.77593">
        <ele>591</ele>
        <time>2019-03-23T15:42:26Z</time>
      </trkpt>
      <trkpt lat="44.3302" lon="5.77594">
        <ele>591</ele>
        <time>2019-03-23T15:42:27Z</time>
      </trkpt>
      <trkpt lat="44.33015" lon="5.77594">
        <ele>591</ele>
        <time>2019-03-23T15:42:28Z</time>
      </trkpt>
      <trkpt lat="44.3301" lon="5.77594">
        <ele>591</ele>
        <time>2019-03-23T15:42:29Z</time>
      </trkpt>
      <trkpt lat="44.33005" lon="5.77595">
        <ele>591</ele>
        <time>2019-03-23T15:42:30Z</time>
      </trkpt>
      <trkpt lat="44.33" lon="5.77595">
        <ele>591</ele>
        <time>2019-03-23T15:42:31Z</time>
      </trkpt>
      <trkpt lat="44.32996" lon="5.77596">
        <ele>591</ele>
        <time>2019-03-23T15:42:32Z</time>
      </trkpt>
      <trkpt lat="44.32991" lon="5.77596">
        <ele>591</ele>
        <time>2019-03-23T15:42:33Z</time>
      </trkpt>
      <trkpt lat="44.32986" lon="5.77596">
        <ele>591</ele>
        <time>2019-03-23T15:42:34Z</time>
      </trkpt>
      <trkpt lat="44.32981" lon="5.77596">
        <ele>591</ele>
        <time>2019-03-23T15:42:35Z</time>
      </trkpt>
      <trkpt lat="44.32977" lon="5.77596">
        <ele>591</ele>
        <time>2019-03-23T15:42:36Z</time>
      </trkpt>
      <trkpt lat="44.32972" lon="5.77596">
        <ele>591</ele>
        <time>2019-03-23T15:42:37Z</time>
      </trkpt>
      <trkpt lat="44.32967" lon="5.77596">
        <ele>591</ele>
        <time>2019-03-23T15:42:38Z</time>
      </trkpt>
      <trkpt lat="44.32962" lon="5.77596">
        <ele>591</ele>
        <time>2019-03-23T15:42:39Z</time>
      </trkpt>
      <trkpt lat="44.32957" lon="5.77596">
        <ele>591</ele>
        <time>2019-03-23T15:42:40Z</time>
      </trkpt>
      <trkpt lat="44.32952" lon="5.77596">
        <ele>591</ele>
        <time>2019-03-23T15:42:41Z</time>
      </trkpt>
      <trkpt lat="44.32946" lon="5.77596">
        <ele>591</ele>
        <time>2019-03-23T15:42:42Z</time>
      </trkpt>
      <trkpt lat="44.32941" lon="5.77596">
        <ele>591</ele>
        <time>2019-03-23T15:42:43Z</time>
      </trkpt>
      <trkpt lat="44.32936" lon="5.77595">
        <ele>591</ele>
        <time>2019-03-23T15:42:44Z</time>
      </trkpt>
      <trkpt lat="44.32932" lon="5.77595">
        <ele>591</ele>
        <time>2019-03-23T15:42:45Z</time>
      </trkpt>
      <trkpt lat="44.32927" lon="5.77595">
        <ele>591</ele>
        <time>2019-03-23T15:42:46Z</time>
      </trkpt>
      <trkpt lat="44.32921" lon="5.77595">
        <ele>591</ele>
        <time>2019-03-23T15:42:47Z</time>
      </trkpt>
      <trkpt lat="44.32917" lon="5.77595">
        <ele>591</ele>
        <time>2019-03-23T15:42:48Z</time>
      </trkpt>
      <trkpt lat="44.32912" lon="5.77594">
        <ele>591</ele>
        <time>2019-03-23T15:42:49Z</time>
      </trkpt>
      <trkpt lat="44.32906" lon="5.77594">
        <ele>591</ele>
        <time>2019-03-23T15:42:50Z</time>
      </trkpt>
      <trkpt lat="44.32901" lon="5.77594">
        <ele>591</ele>
        <time>2019-03-23T15:42:51Z</time>
      </trkpt>
      <trkpt lat="44.32896" lon="5.77593">
        <ele>591</ele>
        <time>2019-03-23T15:42:52Z</time>
      </trkpt>
      <trkpt lat="44.32891" lon="5.77593">
        <ele>591</ele>
        <time>2019-03-23T15:42:53Z</time>
      </trkpt>
      <trkpt lat="44.32886" lon="5.77592">
        <ele>591</ele>
        <time>2019-03-23T15:42:54Z</time>
      </trkpt>
      <trkpt lat="44.32881" lon="5.77592">
        <ele>591</ele>
        <time>2019-03-23T15:42:55Z</time>
      </trkpt>
      <trkpt lat="44.32876" lon="5.77591">
        <ele>591</ele>
        <time>2019-03-23T15:42:56Z</time>
      </trkpt>
      <trkpt lat="44.32871" lon="5.77591">
        <ele>591</ele>
        <time>2019-03-23T15:42:57Z</time>
      </trkpt>
      <trkpt lat="44.32866" lon="5.7759">
        <ele>591</ele>
        <time>2019-03-23T15:42:58Z</time>
      </trkpt>
      <trkpt lat="44.32861" lon="5.7759">
        <ele>591</ele>
        <time>2019-03-23T15:42:59Z</time>
      </trkpt>
      <trkpt lat="44.32856" lon="5.7759">
        <ele>591</ele>
        <time>2019-03-23T15:43:00Z</time>
      </trkpt>
      <trkpt lat="44.32851" lon="5.7759">
        <ele>591</ele>
        <time>2019-03-23T15:43:01Z</time>
      </trkpt>
      <trkpt lat="44.32846" lon="5.77589">
        <ele>591</ele>
        <time>2019-03-23T15:43:02Z</time>
      </trkpt>
      <trkpt lat="44.32841" lon="5.77589">
        <ele>591</ele>
        <time>2019-03-23T15:43:03Z</time>
      </trkpt>
      <trkpt lat="44.32836" lon="5.77589">
        <ele>591</ele>
        <time>2019-03-23T15:43:04Z</time>
      </trkpt>
      <trkpt lat="44.32831" lon="5.77588">
        <ele>591</ele>
        <time>2019-03-23T15:43:05Z</time>
      </trkpt>
      <trkpt lat="44.32826" lon="5.77587">
        <ele>591</ele>
        <time>2019-03-23T15:43:06Z</time>
      </trkpt>
      <trkpt lat="44.32822" lon="5.77586">
        <ele>591</ele>
        <time>2019-03-23T15:43:07Z</time>
      </trkpt>
      <trkpt lat="44.32817" lon="5.77584">
        <ele>591</ele>
        <time>2019-03-23T15:43:08Z</time>
      </trkpt>
      <trkpt lat="44.32812" lon="5.77582">
        <ele>591</ele>
        <time>2019-03-23T15:43:09Z</time>
      </trkpt>
      <trkpt lat="44.32807" lon="5.77579">
        <ele>591</ele>
        <time>2019-03-23T15:43:10Z</time>
      </trkpt>
      <trkpt lat="44.32803" lon="5.77577">
        <ele>591</ele>
        <time>2019-03-23T15:43:11Z</time>
      </trkpt>
      <trkpt lat="44.32798" lon="5.77575">
        <ele>591</ele>
        <time>2019-03-23T15:43:12Z</time>
      </trkpt>
      <trkpt lat="44.32793" lon="5.77574">
        <ele>591</ele>
        <time>2019-03-23T15:43:13Z</time>
      </trkpt>
      <trkpt lat="44.32788" lon="5.77572">
        <ele>591</ele>
        <time>2019-03-23T15:43:14Z</time>
      </trkpt>
      <trkpt lat="44.32784" lon="5.77572">
        <ele>591</ele>
        <time>2019-03-23T15:43:15Z</time>
      </trkpt>
      <trkpt lat="44.32779" lon="5.77572">
        <ele>591</ele>
        <time>2019-03-23T15:43:16Z</time>
      </trkpt>
      <trkpt lat="44.32775" lon="5.77573">
        <ele>591</ele>
        <time>2019-03-23T15:43:17Z</time>
      </trkpt>
      <trkpt lat="44.32771" lon="5.77574">
        <ele>591</ele>
        <time>2019-03-23T15:43:18Z</time>
      </trkpt>
      <trkpt lat="44.32766" lon="5.77575">
        <ele>591</ele>
        <time>2019-03-23T15:43:19Z</time>
      </trkpt>
      <trkpt lat="44.32761" lon="5.77576">
        <ele>591</ele>
        <time>2019-03-23T15:43:20Z</time>
      </trkpt>
      <trkpt lat="44.32757" lon="5.77578">
        <ele>591</ele>
        <time>2019-03-23T15:43:21Z</time>
      </trkpt>
      <trkpt lat="44.32752" lon="5.7758">
        <ele>591</ele>
        <time>2019-03-23T15:43:22Z</time>
      </trkpt>
      <trkpt lat="44.32747" lon="5.77581">
        <ele>591</ele>
        <time>2019-03-23T15:43:23Z</time>
      </trkpt>
      <trkpt lat="44.32742" lon="5.77583">
        <ele>591</ele>
        <time>2019-03-23T15:43:24Z</time>
      </trkpt>
      <trkpt lat="44.32737" lon="5.77585">
        <ele>591</ele>
        <time>2019-03-23T15:43:25Z</time>
      </trkpt>
      <trkpt lat="44.32732" lon="5.77587">
        <ele>591</ele>
        <time>2019-03-23T15:43:26Z</time>
      </trkpt>
      <trkpt lat="44.32726" lon="5.77589">
        <ele>591</ele>
        <time>2019-03-23T15:43:27Z</time>
      </trkpt>
      <trkpt lat="44.32721" lon="5.77591">
        <ele>591</ele>
        <time>2019-03-23T15:43:28Z</time>
      </trkpt>
      <trkpt lat="44.32715" lon="5.77593">
        <ele>591</ele>
        <time>2019-03-23T15:43:29Z</time>
      </trkpt>
      <trkpt lat="44.3271" lon="5.77594">
        <ele>591</ele>
        <time>2019-03-23T15:43:30Z</time>
      </trkpt>
      <trkpt lat="44.32705" lon="5.77596">
        <ele>591</ele>
        <time>2019-03-23T15:43:31Z</time>
      </trkpt>
      <trkpt lat="44.32699" lon="5.77598">
        <ele>591</ele>
        <time>2019-03-23T15:43:32Z</time>
      </trkpt>
      <trkpt lat="44.32694" lon="5.77601">
        <ele>591</ele>
        <time>2019-03-23T15:43:33Z</time>
      </trkpt>
      <trkpt lat="44.32689" lon="5.77604">
        <ele>591</ele>
        <time>2019-03-23T15:43:34Z</time>
      </trkpt>
      <trkpt lat="44.32684" lon="5.77609">
        <ele>591</ele>
        <time>2019-03-23T15:43:35Z</time>
      </trkpt>
      <trkpt lat="44.3268" lon="5.77615">
        <ele>591</ele>
        <time>2019-03-23T15:43:36Z</time>
      </trkpt>
      <trkpt lat="44.32678" lon="5.77622">
        <ele>591</ele>
        <time>2019-03-23T15:43:37Z</time>
      </trkpt>
      <trkpt lat="44.32676" lon="5.77629">
        <ele>591</ele>
        <time>2019-03-23T15:43:38Z</time>
      </trkpt>
      <trkpt lat="44.32674" lon="5.77636">
        <ele>591</ele>
        <time>2019-03-23T15:43:39Z</time>
      </trkpt>
      <trkpt lat="44.32671" lon="5.77643">
        <ele>591</ele>
        <time>2019-03-23T15:43:40Z</time>
      </trkpt>
      <trkpt lat="44.32669" lon="5.7765">
        <ele>591</ele>
        <time>2019-03-23T15:43:41Z</time>
      </trkpt>
      <trkpt lat="44.32668" lon="5.77658">
        <ele>591</ele>
        <time>2019-03-23T15:43:42Z</time>
      </trkpt>
      <trkpt lat="44.32666" lon="5.77665">
        <ele>591</ele>
        <time>2019-03-23T15:43:43Z</time>
      </trkpt>
      <trkpt lat="44.32664" lon="5.77673">
        <ele>591</ele>
        <time>2019-03-23T15:43:44Z</time>
      </trkpt>
      <trkpt lat="44.32662" lon="5.7768">
        <ele>591</ele>
        <time>2019-03-23T15:43:45Z</time>
      </trkpt>
      <trkpt lat="44.3266" lon="5.77688">
        <ele>591</ele>
        <time>2019-03-23T15:43:46Z</time>
      </trkpt>
      <trkpt lat="44.32658" lon="5.77695">
        <ele>591</ele>
        <time>2019-03-23T15:43:47Z</time>
      </trkpt>
      <trkpt lat="44.32656" lon="5.77702">
        <ele>591</ele>
        <time>2019-03-23T15:43:48Z</time>
      </trkpt>
      <trkpt lat="44.32653" lon="5.77709">
        <ele>592</ele>
        <time>2019-03-23T15:43:49Z</time>
      </trkpt>
      <trkpt lat="44.3265" lon="5.77716">
        <ele>592</ele>
        <time>2019-03-23T15:43:50Z</time>
      </trkpt>
      <trkpt lat="44.32647" lon="5.77723">
        <ele>592</ele>
        <time>2019-03-23T15:43:51Z</time>
      </trkpt>
      <trkpt lat="44.32643" lon="5.7773">
        <ele>592</ele>
        <time>2019-03-23T15:43:52Z</time>
      </trkpt>
      <trkpt lat="44.3264" lon="5.77736">
        <ele>592</ele>
        <time>2019-03-23T15:43:53Z</time>
      </trkpt>
      <trkpt lat="44.32636" lon="5.77742">
        <ele>592</ele>
        <time>2019-03-23T15:43:54Z</time>
      </trkpt>
      <trkpt lat="44.32633" lon="5.77749">
        <ele>592</ele>
        <time>2019-03-23T15:43:55Z</time>
      </trkpt>
      <trkpt lat="44.32629" lon="5.77755">
        <ele>592</ele>
        <time>2019-03-23T15:43:56Z</time>
      </trkpt>
      <trkpt lat="44.32625" lon="5.77761">
        <ele>592</ele>
        <time>2019-03-23T15:43:57Z</time>
      </trkpt>
      <trkpt lat="44.32621" lon="5.77767">
        <ele>592</ele>
        <time>2019-03-23T15:43:58Z</time>
      </trkpt>
      <trkpt lat="44.32617" lon="5.77772">
        <ele>592</ele>
        <time>2019-03-23T15:43:59Z</time>
      </trkpt>
      <trkpt lat="44.32612" lon="5.77777">
        <ele>592</ele>
        <time>2019-03-23T15:44:00Z</time>
      </trkpt>
      <trkpt lat="44.32608" lon="5.77782">
        <ele>592</ele>
        <time>2019-03-23T15:44:01Z</time>
      </trkpt>
      <trkpt lat="44.32603" lon="5.77787">
        <ele>592</ele>
        <time>2019-03-23T15:44:02Z</time>
      </trkpt>
      <trkpt lat="44.32598" lon="5.77791">
        <ele>592</ele>
        <time>2019-03-23T15:44:03Z</time>
      </trkpt>
      <trkpt lat="44.32593" lon="5.77795">
        <ele>592</ele>
        <time>2019-03-23T15:44:04Z</time>
      </trkpt>
      <trkpt lat="44.32588" lon="5.77799">
        <ele>592</ele>
        <time>2019-03-23T15:44:05Z</time>
      </trkpt>
      <trkpt lat="44.32583" lon="5.77803">
        <ele>592</ele>
        <time>2019-03-23T15:44:06Z</time>
      </trkpt>
      <trkpt lat="44.32578" lon="5.77807">
        <ele>592</ele>
        <time>2019-03-23T15:44:07Z</time>
      </trkpt>
      <trkpt lat="44.32573" lon="5.77811">
        <ele>592</ele>
        <time>2019-03-23T15:44:08Z</time>
      </trkpt>
      <trkpt lat="44.32569" lon="5.77814">
        <ele>592</ele>
        <time>2019-03-23T15:44:09Z</time>
      </trkpt>
      <trkpt lat="44.32564" lon="5.77818">
        <ele>592</ele>
        <time>2019-03-23T15:44:10Z</time>
      </trkpt>
      <trkpt lat="44.32559" lon="5.77822">
        <ele>592</ele>
        <time>2019-03-23T15:44:11Z</time>
      </trkpt>
      <trkpt lat="44.32555" lon="5.77826">
        <ele>592</ele>
        <time>2019-03-23T15:44:12Z</time>
      </trkpt>
      <trkpt lat="44.3255" lon="5.7783">
        <ele>592</ele>
        <time>2019-03-23T15:44:13Z</time>
      </trkpt>
      <trkpt lat="44.32545" lon="5.77834">
        <ele>592</ele>
        <time>2019-03-23T15:44:14Z</time>
      </trkpt>
      <trkpt lat="44.32541" lon="5.77838">
        <ele>593</ele>
        <time>2019-03-23T15:44:15Z</time>
      </trkpt>
      <trkpt lat="44.32537" lon="5.77843">
        <ele>593</ele>
        <time>2019-03-23T15:44:16Z</time>
      </trkpt>
      <trkpt lat="44.32532" lon="5.77847">
        <ele>593</ele>
        <time>2019-03-23T15:44:17Z</time>
      </trkpt>
      <trkpt lat="44.32528" lon="5.77851">
        <ele>593</ele>
        <time>2019-03-23T15:44:18Z</time>
      </trkpt>
      <trkpt lat="44.32523" lon="5.77855">
        <ele>593</ele>
        <time>2019-03-23T15:44:19Z</time>
      </trkpt>
      <trkpt lat="44.32519" lon="5.77859">
        <ele>593</ele>
        <time>2019-03-23T15:44:20Z</time>
      </trkpt>
      <trkpt lat="44.32515" lon="5.77863">
        <ele>593</ele>
        <time>2019-03-23T15:44:21Z</time>
      </trkpt>
      <trkpt lat="44.3251" lon="5.77867">
        <ele>593</ele>
        <time>2019-03-23T15:44:22Z</time>
      </trkpt>
      <trkpt lat="44.32506" lon="5.77871">
        <ele>593</ele>
        <time>2019-03-23T15:44:23Z</time>
      </trkpt>
      <trkpt lat="44.32501" lon="5.77875">
        <ele>593</ele>
        <time>2019-03-23T15:44:24Z</time>
      </trkpt>
      <trkpt lat="44.32497" lon="5.77879">
        <ele>593</ele>
        <time>2019-03-23T15:44:25Z</time>
      </trkpt>
      <trkpt lat="44.32492" lon="5.77884">
        <ele>593</ele>
        <time>2019-03-23T15:44:26Z</time>
      </trkpt>
      <trkpt lat="44.32487" lon="5.77888">
        <ele>593</ele>
        <time>2019-03-23T15:44:27Z</time>
      </trkpt>
      <trkpt lat="44.32483" lon="5.77892">
        <ele>593</ele>
        <time>2019-03-23T15:44:28Z</time>
      </trkpt>
      <trkpt lat="44.32478" lon="5.77896">
        <ele>593</ele>
        <time>2019-03-23T15:44:29Z</time>
      </trkpt>
      <trkpt lat="44.32473" lon="5.779">
        <ele>593</ele>
        <time>2019-03-23T15:44:30Z</time>
      </trkpt>
      <trkpt lat="44.32469" lon="5.77904">
        <ele>593</ele>
        <time>2019-03-23T15:44:31Z</time>
      </trkpt>
      <trkpt lat="44.32464" lon="5.77908">
        <ele>593</ele>
        <time>2019-03-23T15:44:32Z</time>
      </trkpt>
      <trkpt lat="44.32459" lon="5.77912">
        <ele>593</ele>
        <time>2019-03-23T15:44:33Z</time>
      </trkpt>
      <trkpt lat="44.32455" lon="5.77915">
        <ele>593</ele>
        <time>2019-03-23T15:44:34Z</time>
      </trkpt>
      <trkpt lat="44.3245" lon="5.77919">
        <ele>593</ele>
        <time>2019-03-23T15:44:35Z</time>
      </trkpt>
      <trkpt lat="44.32445" lon="5.77922">
        <ele>593</ele>
        <time>2019-03-23T15:44:36Z</time>
      </trkpt>
      <trkpt lat="44.32441" lon="5.77925">
        <ele>593</ele>
        <time>2019-03-23T15:44:37Z</time>
      </trkpt>
      <trkpt lat="44.32436" lon="5.77929">
        <ele>593</ele>
        <time>2019-03-23T15:44:38Z</time>
      </trkpt>
      <trkpt lat="44.32431" lon="5.77932">
        <ele>593</ele>
        <time>2019-03-23T15:44:39Z</time>
      </trkpt>
      <trkpt lat="44.32426" lon="5.77935">
        <ele>593</ele>
        <time>2019-03-23T15:44:40Z</time>
      </trkpt>
      <trkpt lat="44.32421" lon="5.77938">
        <ele>593</ele>
        <time>2019-03-23T15:44:41Z</time>
      </trkpt>
      <trkpt lat="44.32417" lon="5.77941">
        <ele>593</ele>
        <time>2019-03-23T15:44:42Z</time>
      </trkpt>
      <trkpt lat="44.32412" lon="5.77943">
        <ele>593</ele>
        <time>2019-03-23T15:44:43Z</time>
      </trkpt>
      <trkpt lat="44.32407" lon="5.77946">
        <ele>593</ele>
        <time>2019-03-23T15:44:44Z</time>
      </trkpt>
      <trkpt lat="44.32402" lon="5.77949">
        <ele>593</ele>
        <time>2019-03-23T15:44:45Z</time>
      </trkpt>
      <trkpt lat="44.32398" lon="5.77952">
        <ele>593</ele>
        <time>2019-03-23T15:44:46Z</time>
      </trkpt>
      <trkpt lat="44.32393" lon="5.77955">
        <ele>593</ele>
        <time>2019-03-23T15:44:47Z</time>
      </trkpt>
      <trkpt lat="44.32388" lon="5.77957">
        <ele>593</ele>
        <time>2019-03-23T15:44:48Z</time>
      </trkpt>
      <trkpt lat="44.32383" lon="5.7796">
        <ele>593</ele>
        <time>2019-03-23T15:44:49Z</time>
      </trkpt>
      <trkpt lat="44.32378" lon="5.77963">
        <ele>593</ele>
        <time>2019-03-23T15:44:50Z</time>
      </trkpt>
      <trkpt lat="44.32373" lon="5.77966">
        <ele>593</ele>
        <time>2019-03-23T15:44:51Z</time>
      </trkpt>
      <trkpt lat="44.32368" lon="5.77969">
        <ele>593</ele>
        <time>2019-03-23T15:44:52Z</time>
      </trkpt>
      <trkpt lat="44.32364" lon="5.77972">
        <ele>594</ele>
        <time>2019-03-23T15:44:53Z</time>
      </trkpt>
      <trkpt lat="44.32359" lon="5.77975">
        <ele>594</ele>
        <time>2019-03-23T15:44:54Z</time>
      </trkpt>
      <trkpt lat="44.32354" lon="5.77978">
        <ele>594</ele>
        <time>2019-03-23T15:44:55Z</time>
      </trkpt>
      <trkpt lat="44.32349" lon="5.77981">
        <ele>594</ele>
        <time>2019-03-23T15:44:56Z</time>
      </trkpt>
      <trkpt lat="44.32344" lon="5.77984">
        <ele>594</ele>
        <time>2019-03-23T15:44:57Z</time>
      </trkpt>
      <trkpt lat="44.32339" lon="5.77986">
        <ele>594</ele>
        <time>2019-03-23T15:44:58Z</time>
      </trkpt>
      <trkpt lat="44.32335" lon="5.77989">
        <ele>594</ele>
        <time>2019-03-23T15:44:59Z</time>
      </trkpt>
      <trkpt lat="44.3233" lon="5.77992">
        <ele>594</ele>
        <time>2019-03-23T15:45:00Z</time>
      </trkpt>
      <trkpt lat="44.32325" lon="5.77995">
        <ele>594</ele>
        <time>2019-03-23T15:45:01Z</time>
      </trkpt>
      <trkpt lat="44.32321" lon="5.77998">
        <ele>594</ele>
        <time>2019-03-23T15:45:02Z</time>
      </trkpt>
      <trkpt lat="44.32316" lon="5.78001">
        <ele>594</ele>
        <time>2019-03-23T15:45:03Z</time>
      </trkpt>
      <trkpt lat="44.32312" lon="5.78004">
        <ele>595</ele>
        <time>2019-03-23T15:45:04Z</time>
      </trkpt>
      <trkpt lat="44.32307" lon="5.78007">
        <ele>595</ele>
        <time>2019-03-23T15:45:05Z</time>
      </trkpt>
      <trkpt lat="44.32303" lon="5.78009">
        <ele>595</ele>
        <time>2019-03-23T15:45:06Z</time>
      </trkpt>
      <trkpt lat="44.32298" lon="5.78012">
        <ele>595</ele>
        <time>2019-03-23T15:45:07Z</time>
      </trkpt>
      <trkpt lat="44.32294" lon="5.78015">
        <ele>595</ele>
        <time>2019-03-23T15:45:08Z</time>
      </trkpt>
      <trkpt lat="44.32289" lon="5.78018">
        <ele>595</ele>
        <time>2019-03-23T15:45:09Z</time>
      </trkpt>
      <trkpt lat="44.32285" lon="5.7802">
        <ele>595</ele>
        <time>2019-03-23T15:45:10Z</time>
      </trkpt>
      <trkpt lat="44.3228" lon="5.78023">
        <ele>595</ele>
        <time>2019-03-23T15:45:11Z</time>
      </trkpt>
      <trkpt lat="44.32276" lon="5.78026">
        <ele>595</ele>
        <time>2019-03-23T15:45:12Z</time>
      </trkpt>
      <trkpt lat="44.32271" lon="5.78028">
        <ele>596</ele>
        <time>2019-03-23T15:45:13Z</time>
      </trkpt>
      <trkpt lat="44.32267" lon="5.78031">
        <ele>596</ele>
        <time>2019-03-23T15:45:14Z</time>
      </trkpt>
      <trkpt lat="44.32262" lon="5.78034">
        <ele>596</ele>
        <time>2019-03-23T15:45:15Z</time>
      </trkpt>
      <trkpt lat="44.32258" lon="5.78037">
        <ele>596</ele>
        <time>2019-03-23T15:45:16Z</time>
      </trkpt>
      <trkpt lat="44.32254" lon="5.7804">
        <ele>596</ele>
        <time>2019-03-23T15:45:17Z</time>
      </trkpt>
      <trkpt lat="44.32249" lon="5.78042">
        <ele>596</ele>
        <time>2019-03-23T15:45:18Z</time>
      </trkpt>
      <trkpt lat="44.32244" lon="5.78045">
        <ele>596</ele>
        <time>2019-03-23T15:45:19Z</time>
      </trkpt>
      <trkpt lat="44.3224" lon="5.78048">
        <ele>596</ele>
        <time>2019-03-23T15:45:20Z</time>
      </trkpt>
      <trkpt lat="44.32235" lon="5.7805">
        <ele>596</ele>
        <time>2019-03-23T15:45:21Z</time>
      </trkpt>
      <trkpt lat="44.3223" lon="5.78053">
        <ele>596</ele>
        <time>2019-03-23T15:45:22Z</time>
      </trkpt>
      <trkpt lat="44.32226" lon="5.78056">
        <ele>596</ele>
        <time>2019-03-23T15:45:23Z</time>
      </trkpt>
      <trkpt lat="44.32221" lon="5.78059">
        <ele>596</ele>
        <time>2019-03-23T15:45:24Z</time>
      </trkpt>
      <trkpt lat="44.32216" lon="5.78062">
        <ele>596</ele>
        <time>2019-03-23T15:45:25Z</time>
      </trkpt>
      <trkpt lat="44.32212" lon="5.78065">
        <ele>596</ele>
        <time>2019-03-23T15:45:26Z</time>
      </trkpt>
      <trkpt lat="44.32207" lon="5.78068">
        <ele>596</ele>
        <time>2019-03-23T15:45:27Z</time>
      </trkpt>
      <trkpt lat="44.32202" lon="5.78071">
        <ele>596</ele>
        <time>2019-03-23T15:45:28Z</time>
      </trkpt>
      <trkpt lat="44.32197" lon="5.78074">
        <ele>596</ele>
        <time>2019-03-23T15:45:29Z</time>
      </trkpt>
      <trkpt lat="44.32192" lon="5.78077">
        <ele>596</ele>
        <time>2019-03-23T15:45:30Z</time>
      </trkpt>
      <trkpt lat="44.32187" lon="5.7808">
        <ele>596</ele>
        <time>2019-03-23T15:45:31Z</time>
      </trkpt>
      <trkpt lat="44.32182" lon="5.78084">
        <ele>596</ele>
        <time>2019-03-23T15:45:32Z</time>
      </trkpt>
      <trkpt lat="44.32178" lon="5.78088">
        <ele>596</ele>
        <time>2019-03-23T15:45:33Z</time>
      </trkpt>
      <trkpt lat="44.32173" lon="5.78091">
        <ele>596</ele>
        <time>2019-03-23T15:45:34Z</time>
      </trkpt>
      <trkpt lat="44.32168" lon="5.78095">
        <ele>596</ele>
        <time>2019-03-23T15:45:35Z</time>
      </trkpt>
      <trkpt lat="44.32163" lon="5.78099">
        <ele>596</ele>
        <time>2019-03-23T15:45:36Z</time>
      </trkpt>
      <trkpt lat="44.32159" lon="5.78103">
        <ele>596</ele>
        <time>2019-03-23T15:45:37Z</time>
      </trkpt>
      <trkpt lat="44.32154" lon="5.78108">
        <ele>596</ele>
        <time>2019-03-23T15:45:38Z</time>
      </trkpt>
      <trkpt lat="44.3215" lon="5.78112">
        <ele>596</ele>
        <time>2019-03-23T15:45:39Z</time>
      </trkpt>
      <trkpt lat="44.32145" lon="5.78117">
        <ele>596</ele>
        <time>2019-03-23T15:45:40Z</time>
      </trkpt>
      <trkpt lat="44.3214" lon="5.78122">
        <ele>596</ele>
        <time>2019-03-23T15:45:41Z</time>
      </trkpt>
      <trkpt lat="44.32136" lon="5.78127">
        <ele>596</ele>
        <time>2019-03-23T15:45:42Z</time>
      </trkpt>
      <trkpt lat="44.32131" lon="5.78131">
        <ele>596</ele>
        <time>2019-03-23T15:45:43Z</time>
      </trkpt>
      <trkpt lat="44.32126" lon="5.78136">
        <ele>596</ele>
        <time>2019-03-23T15:45:44Z</time>
      </trkpt>
      <trkpt lat="44.32122" lon="5.78141">
        <ele>596</ele>
        <time>2019-03-23T15:45:45Z</time>
      </trkpt>
      <trkpt lat="44.32117" lon="5.78145">
        <ele>596</ele>
        <time>2019-03-23T15:45:46Z</time>
      </trkpt>
      <trkpt lat="44.32112" lon="5.7815">
        <ele>596</ele>
        <time>2019-03-23T15:45:47Z</time>
      </trkpt>
      <trkpt lat="44.32107" lon="5.78155">
        <ele>596</ele>
        <time>2019-03-23T15:45:48Z</time>
      </trkpt>
      <trkpt lat="44.32102" lon="5.7816">
        <ele>596</ele>
        <time>2019-03-23T15:45:49Z</time>
      </trkpt>
      <trkpt lat="44.32097" lon="5.78165">
        <ele>596</ele>
        <time>2019-03-23T15:45:50Z</time>
      </trkpt>
      <trkpt lat="44.32093" lon="5.7817">
        <ele>596</ele>
        <time>2019-03-23T15:45:51Z</time>
      </trkpt>
      <trkpt lat="44.32088" lon="5.78175">
        <ele>596</ele>
        <time>2019-03-23T15:45:52Z</time>
      </trkpt>
      <trkpt lat="44.32083" lon="5.7818">
        <ele>596</ele>
        <time>2019-03-23T15:45:53Z</time>
      </trkpt>
      <trkpt lat="44.32078" lon="5.78185">
        <ele>596</ele>
        <time>2019-03-23T15:45:54Z</time>
      </trkpt>
      <trkpt lat="44.32073" lon="5.7819">
        <ele>596</ele>
        <time>2019-03-23T15:45:55Z</time>
      </trkpt>
      <trkpt lat="44.32068" lon="5.78196">
        <ele>596</ele>
        <time>2019-03-23T15:45:56Z</time>
      </trkpt>
      <trkpt lat="44.32063" lon="5.78201">
        <ele>596</ele>
        <time>2019-03-23T15:45:57Z</time>
      </trkpt>
      <trkpt lat="44.32058" lon="5.78207">
        <ele>596</ele>
        <time>2019-03-23T15:45:58Z</time>
      </trkpt>
      <trkpt lat="44.32052" lon="5.78213">
        <ele>596</ele>
        <time>2019-03-23T15:45:59Z</time>
      </trkpt>
      <trkpt lat="44.32047" lon="5.78219">
        <ele>596</ele>
        <time>2019-03-23T15:46:00Z</time>
      </trkpt>
      <trkpt lat="44.32042" lon="5.78225">
        <ele>596</ele>
        <time>2019-03-23T15:46:01Z</time>
      </trkpt>
      <trkpt lat="44.32036" lon="5.7823">
        <ele>596</ele>
        <time>2019-03-23T15:46:02Z</time>
      </trkpt>
      <trkpt lat="44.32031" lon="5.78236">
        <ele>596</ele>
        <time>2019-03-23T15:46:03Z</time>
      </trkpt>
      <trkpt lat="44.32026" lon="5.78242">
        <ele>596</ele>
        <time>2019-03-23T15:46:04Z</time>
      </trkpt>
      <trkpt lat="44.32021" lon="5.78247">
        <ele>596</ele>
        <time>2019-03-23T15:46:05Z</time>
      </trkpt>
      <trkpt lat="44.32016" lon="5.78252">
        <ele>596</ele>
        <time>2019-03-23T15:46:06Z</time>
      </trkpt>
      <trkpt lat="44.32011" lon="5.78257">
        <ele>596</ele>
        <time>2019-03-23T15:46:07Z</time>
      </trkpt>
      <trkpt lat="44.32006" lon="5.78261">
        <ele>596</ele>
        <time>2019-03-23T15:46:08Z</time>
      </trkpt>
      <trkpt lat="44.32001" lon="5.78265">
        <ele>596</ele>
        <time>2019-03-23T15:46:09Z</time>
      </trkpt>
      <trkpt lat="44.31997" lon="5.7827">
        <ele>597</ele>
        <time>2019-03-23T15:46:10Z</time>
      </trkpt>
      <trkpt lat="44.31992" lon="5.78274">
        <ele>597</ele>
        <time>2019-03-23T15:46:11Z</time>
      </trkpt>
      <trkpt lat="44.31987" lon="5.78278">
        <ele>597</ele>
        <time>2019-03-23T15:46:12Z</time>
      </trkpt>
      <trkpt lat="44.31982" lon="5.78283">
        <ele>597</ele>
        <time>2019-03-23T15:46:13Z</time>
      </trkpt>
      <trkpt lat="44.31977" lon="5.78287">
        <ele>597</ele>
        <time>2019-03-23T15:46:14Z</time>
      </trkpt>
      <trkpt lat="44.31973" lon="5.78291">
        <ele>598</ele>
        <time>2019-03-23T15:46:15Z</time>
      </trkpt>
      <trkpt lat="44.31968" lon="5.78294">
        <ele>598</ele>
        <time>2019-03-23T15:46:16Z</time>
      </trkpt>
      <trkpt lat="44.31964" lon="5.78297">
        <ele>598</ele>
        <time>2019-03-23T15:46:17Z</time>
      </trkpt>
      <trkpt lat="44.31959" lon="5.783">
        <ele>598</ele>
        <time>2019-03-23T15:46:18Z</time>
      </trkpt>
      <trkpt lat="44.31953" lon="5.78303">
        <ele>598</ele>
        <time>2019-03-23T15:46:19Z</time>
      </trkpt>
      <trkpt lat="44.31948" lon="5.78307">
        <ele>598</ele>
        <time>2019-03-23T15:46:20Z</time>
      </trkpt>
      <trkpt lat="44.31942" lon="5.78309">
        <ele>598</ele>
        <time>2019-03-23T15:46:21Z</time>
      </trkpt>
      <trkpt lat="44.31936" lon="5.78311">
        <ele>598</ele>
        <time>2019-03-23T15:46:22Z</time>
      </trkpt>
      <trkpt lat="44.31929" lon="5.78312">
        <ele>598</ele>
        <time>2019-03-23T15:46:23Z</time>
      </trkpt>
      <trkpt lat="44.31921" lon="5.78312">
        <ele>598</ele>
        <time>2019-03-23T15:46:24Z</time>
      </trkpt>
      <trkpt lat="44.31913" lon="5.78312">
        <ele>598</ele>
        <time>2019-03-23T15:46:25Z</time>
      </trkpt>
      <trkpt lat="44.31905" lon="5.78309">
        <ele>598</ele>
        <time>2019-03-23T15:46:26Z</time>
      </trkpt>
      <trkpt lat="44.31898" lon="5.78303">
        <ele>598</ele>
        <time>2019-03-23T15:46:27Z</time>
      </trkpt>
      <trkpt lat="44.3189" lon="5.78299">
        <ele>598</ele>
        <time>2019-03-23T15:46:28Z</time>
      </trkpt>
      <trkpt lat="44.31883" lon="5.78295">
        <ele>598</ele>
        <time>2019-03-23T15:46:29Z</time>
      </trkpt>
      <trkpt lat="44.31876" lon="5.78292">
        <ele>598</ele>
        <time>2019-03-23T15:46:30Z</time>
      </trkpt>
      <trkpt lat="44.31867" lon="5.78288">
        <ele>598</ele>
        <time>2019-03-23T15:46:31Z</time>
      </trkpt>
      <trkpt lat="44.31858" lon="5.78284">
        <ele>598</ele>
        <time>2019-03-23T15:46:32Z</time>
      </trkpt>
      <trkpt lat="44.31849" lon="5.7828">
        <ele>597</ele>
        <time>2019-03-23T15:46:33Z</time>
      </trkpt>
      <trkpt lat="44.31841" lon="5.78276">
        <ele>597</ele>
        <time>2019-03-23T15:46:34Z</time>
      </trkpt>
      <trkpt lat="44.31833" lon="5.78272">
        <ele>596</ele>
        <time>2019-03-23T15:46:35Z</time>
      </trkpt>
      <trkpt lat="44.31825" lon="5.7827">
        <ele>596</ele>
        <time>2019-03-23T15:46:36Z</time>
      </trkpt>
      <trkpt lat="44.31818" lon="5.78276">
        <ele>595</ele>
        <time>2019-03-23T15:46:37Z</time>
      </trkpt>
      <trkpt lat="44.31813" lon="5.78284">
        <ele>595</ele>
        <time>2019-03-23T15:46:38Z</time>
      </trkpt>
      <trkpt lat="44.3181" lon="5.78293">
        <ele>595</ele>
        <time>2019-03-23T15:46:39Z</time>
      </trkpt>
      <trkpt lat="44.31809" lon="5.78301">
        <ele>594</ele>
        <time>2019-03-23T15:46:40Z</time>
      </trkpt>
      <trkpt lat="44.31808" lon="5.7831">
        <ele>594</ele>
        <time>2019-03-23T15:46:41Z</time>
      </trkpt>
      <trkpt lat="44.31809" lon="5.78318">
        <ele>594</ele>
        <time>2019-03-23T15:46:42Z</time>
      </trkpt>
      <trkpt lat="44.3181" lon="5.78325">
        <ele>594</ele>
        <time>2019-03-23T15:46:43Z</time>
      </trkpt>
      <trkpt lat="44.31811" lon="5.78332">
        <ele>594</ele>
        <time>2019-03-23T15:46:44Z</time>
      </trkpt>
      <trkpt lat="44.31811" lon="5.78339">
        <ele>594</ele>
        <time>2019-03-23T15:46:45Z</time>
      </trkpt>
      <trkpt lat="44.31811" lon="5.78346">
        <ele>594</ele>
        <time>2019-03-23T15:46:46Z</time>
      </trkpt>
      <trkpt lat="44.3181" lon="5.78352">
        <ele>594</ele>
        <time>2019-03-23T15:46:47Z</time>
      </trkpt>
      <trkpt lat="44.31808" lon="5.78358">
        <ele>594</ele>
        <time>2019-03-23T15:46:48Z</time>
      </trkpt>
      <trkpt lat="44.31807" lon="5.78363">
        <ele>594</ele>
        <time>2019-03-23T15:46:49Z</time>
      </trkpt>
      <trkpt lat="44.31805" lon="5.78368">
        <ele>594</ele>
        <time>2019-03-23T15:46:50Z</time>
      </trkpt>
      <trkpt lat="44.31804" lon="5.78374">
        <ele>594</ele>
        <time>2019-03-23T15:46:51Z</time>
      </trkpt>
      <trkpt lat="44.31801" lon="5.78379">
        <ele>594</ele>
        <time>2019-03-23T15:46:52Z</time>
      </trkpt>
      <trkpt lat="44.31798" lon="5.78384">
        <ele>594</ele>
        <time>2019-03-23T15:46:53Z</time>
      </trkpt>
      <trkpt lat="44.31796" lon="5.78389">
        <ele>594</ele>
        <time>2019-03-23T15:46:54Z</time>
      </trkpt>
      <trkpt lat="44.31795" lon="5.78393">
        <ele>594</ele>
        <time>2019-03-23T15:46:55Z</time>
      </trkpt>
      <trkpt lat="44.31793" lon="5.78398">
        <ele>594</ele>
        <time>2019-03-23T15:46:56Z</time>
      </trkpt>
      <trkpt lat="44.31791" lon="5.78402">
        <ele>594</ele>
        <time>2019-03-23T15:46:57Z</time>
      </trkpt>
      <trkpt lat="44.31789" lon="5.78407">
        <ele>594</ele>
        <time>2019-03-23T15:46:58Z</time>
      </trkpt>
      <trkpt lat="44.31786" lon="5.78411">
        <ele>594</ele>
        <time>2019-03-23T15:46:59Z</time>
      </trkpt>
      <trkpt lat="44.31784" lon="5.78416">
        <ele>594</ele>
        <time>2019-03-23T15:47:00Z</time>
      </trkpt>
      <trkpt lat="44.31781" lon="5.7842">
        <ele>594</ele>
        <time>2019-03-23T15:47:01Z</time>
      </trkpt>
      <trkpt lat="44.31779" lon="5.78424">
        <ele>594</ele>
        <time>2019-03-23T15:47:02Z</time>
      </trkpt>
      <trkpt lat="44.31776" lon="5.78429">
        <ele>594</ele>
        <time>2019-03-23T15:47:03Z</time>
      </trkpt>
      <trkpt lat="44.31773" lon="5.78434">
        <ele>594</ele>
        <time>2019-03-23T15:47:04Z</time>
      </trkpt>
      <trkpt lat="44.3177" lon="5.78439">
        <ele>594</ele>
        <time>2019-03-23T15:47:05Z</time>
      </trkpt>
      <trkpt lat="44.31767" lon="5.78444">
        <ele>594</ele>
        <time>2019-03-23T15:47:06Z</time>
      </trkpt>
      <trkpt lat="44.31764" lon="5.78451">
        <ele>594</ele>
        <time>2019-03-23T15:47:07Z</time>
      </trkpt>
      <trkpt lat="44.31761" lon="5.78457">
        <ele>594</ele>
        <time>2019-03-23T15:47:08Z</time>
      </trkpt>
      <trkpt lat="44.31758" lon="5.78463">
        <ele>594</ele>
        <time>2019-03-23T15:47:09Z</time>
      </trkpt>
      <trkpt lat="44.31754" lon="5.7847">
        <ele>594</ele>
        <time>2019-03-23T15:47:10Z</time>
      </trkpt>
      <trkpt lat="44.3175" lon="5.78476">
        <ele>594</ele>
        <time>2019-03-23T15:47:11Z</time>
      </trkpt>
      <trkpt lat="44.31747" lon="5.78483">
        <ele>594</ele>
        <time>2019-03-23T15:47:12Z</time>
      </trkpt>
      <trkpt lat="44.31742" lon="5.78489">
        <ele>594</ele>
        <time>2019-03-23T15:47:13Z</time>
      </trkpt>
      <trkpt lat="44.31737" lon="5.78495">
        <ele>594</ele>
        <time>2019-03-23T15:47:14Z</time>
      </trkpt>
      <trkpt lat="44.31732" lon="5.785">
        <ele>594</ele>
        <time>2019-03-23T15:47:15Z</time>
      </trkpt>
      <trkpt lat="44.31726" lon="5.78504">
        <ele>594</ele>
        <time>2019-03-23T15:47:16Z</time>
      </trkpt>
      <trkpt lat="44.31721" lon="5.78507">
        <ele>594</ele>
        <time>2019-03-23T15:47:17Z</time>
      </trkpt>
      <trkpt lat="44.31715" lon="5.7851">
        <ele>594</ele>
        <time>2019-03-23T15:47:18Z</time>
      </trkpt>
      <trkpt lat="44.31709" lon="5.78512">
        <ele>594</ele>
        <time>2019-03-23T15:47:19Z</time>
      </trkpt>
      <trkpt lat="44.31704" lon="5.78515">
        <ele>594</ele>
        <time>2019-03-23T15:47:20Z</time>
      </trkpt>
      <trkpt lat="44.31699" lon="5.78518">
        <ele>594</ele>
        <time>2019-03-23T15:47:21Z</time>
      </trkpt>
      <trkpt lat="44.31694" lon="5.78519">
        <ele>594</ele>
        <time>2019-03-23T15:47:22Z</time>
      </trkpt>
      <trkpt lat="44.31689" lon="5.78521">
        <ele>594</ele>
        <time>2019-03-23T15:47:23Z</time>
      </trkpt>
      <trkpt lat="44.31684" lon="5.78523">
        <ele>594</ele>
        <time>2019-03-23T15:47:24Z</time>
      </trkpt>
      <trkpt lat="44.3168" lon="5.78526">
        <ele>594</ele>
        <time>2019-03-23T15:47:25Z</time>
      </trkpt>
      <trkpt lat="44.31675" lon="5.78528">
        <ele>594</ele>
        <time>2019-03-23T15:47:26Z</time>
      </trkpt>
      <trkpt lat="44.31671" lon="5.78529">
        <ele>594</ele>
        <time>2019-03-23T15:47:27Z</time>
      </trkpt>
      <trkpt lat="44.31667" lon="5.78531">
        <ele>594</ele>
        <time>2019-03-23T15:47:28Z</time>
      </trkpt>
      <trkpt lat="44.31663" lon="5.78532">
        <ele>594</ele>
        <time>2019-03-23T15:47:29Z</time>
      </trkpt>
      <trkpt lat="44.31658" lon="5.78534">
        <ele>594</ele>
        <time>2019-03-23T15:47:30Z</time>
      </trkpt>
      <trkpt lat="44.31654" lon="5.78535">
        <ele>594</ele>
        <time>2019-03-23T15:47:31Z</time>
      </trkpt>
      <trkpt lat="44.3165" lon="5.78537">
        <ele>594</ele>
        <time>2019-03-23T15:47:32Z</time>
      </trkpt>
      <trkpt lat="44.31646" lon="5.7854">
        <ele>594</ele>
        <time>2019-03-23T15:47:33Z</time>
      </trkpt>
      <trkpt lat="44.31641" lon="5.78541">
        <ele>595</ele>
        <time>2019-03-23T15:47:34Z</time>
      </trkpt>
      <trkpt lat="44.31637" lon="5.78543">
        <ele>595</ele>
        <time>2019-03-23T15:47:35Z</time>
      </trkpt>
      <trkpt lat="44.31633" lon="5.78545">
        <ele>595</ele>
        <time>2019-03-23T15:47:36Z</time>
      </trkpt>
      <trkpt lat="44.3163" lon="5.78546">
        <ele>595</ele>
        <time>2019-03-23T15:47:37Z</time>
      </trkpt>
      <trkpt lat="44.31626" lon="5.78547">
        <ele>596</ele>
        <time>2019-03-23T15:47:38Z</time>
      </trkpt>
      <trkpt lat="44.31622" lon="5.78549">
        <ele>596</ele>
        <time>2019-03-23T15:47:39Z</time>
      </trkpt>
      <trkpt lat="44.31619" lon="5.78551">
        <ele>596</ele>
        <time>2019-03-23T15:47:40Z</time>
      </trkpt>
      <trkpt lat="44.31615" lon="5.78553">
        <ele>596</ele>
        <time>2019-03-23T15:47:41Z</time>
      </trkpt>
      <trkpt lat="44.31612" lon="5.78556">
        <ele>596</ele>
        <time>2019-03-23T15:47:42Z</time>
      </trkpt>
      <trkpt lat="44.31609" lon="5.78558">
        <ele>596</ele>
        <time>2019-03-23T15:47:43Z</time>
      </trkpt>
      <trkpt lat="44.31606" lon="5.78561">
        <ele>596</ele>
        <time>2019-03-23T15:47:44Z</time>
      </trkpt>
      <trkpt lat="44.31604" lon="5.78565">
        <ele>596</ele>
        <time>2019-03-23T15:47:45Z</time>
      </trkpt>
      <trkpt lat="44.31601" lon="5.78569">
        <ele>596</ele>
        <time>2019-03-23T15:47:46Z</time>
      </trkpt>
      <trkpt lat="44.31599" lon="5.78573">
        <ele>596</ele>
        <time>2019-03-23T15:47:47Z</time>
      </trkpt>
      <trkpt lat="44.31597" lon="5.78577">
        <ele>596</ele>
        <time>2019-03-23T15:47:48Z</time>
      </trkpt>
      <trkpt lat="44.31596" lon="5.78582">
        <ele>596</ele>
        <time>2019-03-23T15:47:49Z</time>
      </trkpt>
      <trkpt lat="44.31595" lon="5.78587">
        <ele>596</ele>
        <time>2019-03-23T15:47:50Z</time>
      </trkpt>
      <trkpt lat="44.31594" lon="5.78592">
        <ele>596</ele>
        <time>2019-03-23T15:47:51Z</time>
      </trkpt>
      <trkpt lat="44.31593" lon="5.78596">
        <ele>596</ele>
        <time>2019-03-23T15:47:52Z</time>
      </trkpt>
      <trkpt lat="44.31593" lon="5.78601">
        <ele>596</ele>
        <time>2019-03-23T15:47:53Z</time>
      </trkpt>
      <trkpt lat="44.31593" lon="5.78607">
        <ele>596</ele>
        <time>2019-03-23T15:47:54Z</time>
      </trkpt>
      <trkpt lat="44.31593" lon="5.78613">
        <ele>596</ele>
        <time>2019-03-23T15:47:55Z</time>
      </trkpt>
      <trkpt lat="44.31594" lon="5.78619">
        <ele>596</ele>
        <time>2019-03-23T15:47:56Z</time>
      </trkpt>
      <trkpt lat="44.31594" lon="5.78626">
        <ele>596</ele>
        <time>2019-03-23T15:47:57Z</time>
      </trkpt>
      <trkpt lat="44.31595" lon="5.78634">
        <ele>596</ele>
        <time>2019-03-23T15:47:58Z</time>
      </trkpt>
      <trkpt lat="44.31596" lon="5.78642">
        <ele>596</ele>
        <time>2019-03-23T15:47:59Z</time>
      </trkpt>
      <trkpt lat="44.31596" lon="5.7865">
        <ele>596</ele>
        <time>2019-03-23T15:48:00Z</time>
      </trkpt>
      <trkpt lat="44.31596" lon="5.78659">
        <ele>596</ele>
        <time>2019-03-23T15:48:01Z</time>
      </trkpt>
      <trkpt lat="44.31596" lon="5.78668">
        <ele>596</ele>
        <time>2019-03-23T15:48:02Z</time>
      </trkpt>
      <trkpt lat="44.31596" lon="5.78678">
        <ele>596</ele>
        <time>2019-03-23T15:48:03Z</time>
      </trkpt>
      <trkpt lat="44.31596" lon="5.78688">
        <ele>596</ele>
        <time>2019-03-23T15:48:04Z</time>
      </trkpt>
      <trkpt lat="44.31596" lon="5.78698">
        <ele>596</ele>
        <time>2019-03-23T15:48:05Z</time>
      </trkpt>
      <trkpt lat="44.31596" lon="5.78708">
        <ele>596</ele>
        <time>2019-03-23T15:48:06Z</time>
      </trkpt>
      <trkpt lat="44.31595" lon="5.78719">
        <ele>596</ele>
        <time>2019-03-23T15:48:07Z</time>
      </trkpt>
      <trkpt lat="44.31594" lon="5.7873">
        <ele>596</ele>
        <time>2019-03-23T15:48:08Z</time>
      </trkpt>
      <trkpt lat="44.31593" lon="5.78742">
        <ele>596</ele>
        <time>2019-03-23T15:48:09Z</time>
      </trkpt>
      <trkpt lat="44.31593" lon="5.78754">
        <ele>595</ele>
        <time>2019-03-23T15:48:10Z</time>
      </trkpt>
      <trkpt lat="44.31593" lon="5.78767">
        <ele>595</ele>
        <time>2019-03-23T15:48:11Z</time>
      </trkpt>
      <trkpt lat="44.31592" lon="5.7878">
        <ele>594</ele>
        <time>2019-03-23T15:48:12Z</time>
      </trkpt>
      <trkpt lat="44.31591" lon="5.78794">
        <ele>594</ele>
        <time>2019-03-23T15:48:13Z</time>
      </trkpt>
      <trkpt lat="44.3159" lon="5.78808">
        <ele>593</ele>
        <time>2019-03-23T15:48:14Z</time>
      </trkpt>
      <trkpt lat="44.31588" lon="5.78823">
        <ele>592</ele>
        <time>2019-03-23T15:48:15Z</time>
      </trkpt>
      <trkpt lat="44.31587" lon="5.78838">
        <ele>591</ele>
        <time>2019-03-23T15:48:16Z</time>
      </trkpt>
      <trkpt lat="44.31585" lon="5.78853">
        <ele>591</ele>
        <time>2019-03-23T15:48:17Z</time>
      </trkpt>
      <trkpt lat="44.31583" lon="5.78869">
        <ele>590</ele>
        <time>2019-03-23T15:48:18Z</time>
      </trkpt>
      <trkpt lat="44.31581" lon="5.78885">
        <ele>589</ele>
        <time>2019-03-23T15:48:19Z</time>
      </trkpt>
      <trkpt lat="44.31579" lon="5.78901">
        <ele>588</ele>
        <time>2019-03-23T15:48:20Z</time>
      </trkpt>
      <trkpt lat="44.31578" lon="5.78916">
        <ele>587</ele>
        <time>2019-03-23T15:48:21Z</time>
      </trkpt>
      <trkpt lat="44.31575" lon="5.78932">
        <ele>587</ele>
        <time>2019-03-23T15:48:22Z</time>
      </trkpt>
      <trkpt lat="44.31574" lon="5.78947">
        <ele>586</ele>
        <time>2019-03-23T15:48:23Z</time>
      </trkpt>
      <trkpt lat="44.31572" lon="5.78962">
        <ele>586</ele>
        <time>2019-03-23T15:48:24Z</time>
      </trkpt>
      <trkpt lat="44.31569" lon="5.78977">
        <ele>585</ele>
        <time>2019-03-23T15:48:25Z</time>
      </trkpt>
      <trkpt lat="44.31567" lon="5.78992">
        <ele>585</ele>
        <time>2019-03-23T15:48:26Z</time>
      </trkpt>
      <trkpt lat="44.31564" lon="5.79005">
        <ele>584</ele>
        <time>2019-03-23T15:48:27Z</time>
      </trkpt>
      <trkpt lat="44.3156" lon="5.79018">
        <ele>584</ele>
        <time>2019-03-23T15:48:28Z</time>
      </trkpt>
      <trkpt lat="44.31555" lon="5.79031">
        <ele>584</ele>
        <time>2019-03-23T15:48:29Z</time>
      </trkpt>
      <trkpt lat="44.31551" lon="5.79043">
        <ele>584</ele>
        <time>2019-03-23T15:48:30Z</time>
      </trkpt>
      <trkpt lat="44.31546" lon="5.79056">
        <ele>584</ele>
        <time>2019-03-23T15:48:31Z</time>
      </trkpt>
      <trkpt lat="44.31542" lon="5.79068">
        <ele>584</ele>
        <time>2019-03-23T15:48:32Z</time>
      </trkpt>
      <trkpt lat="44.31538" lon="5.79079">
        <ele>584</ele>
        <time>2019-03-23T15:48:33Z</time>
      </trkpt>
      <trkpt lat="44.31534" lon="5.7909">
        <ele>584</ele>
        <time>2019-03-23T15:48:34Z</time>
      </trkpt>
      <trkpt lat="44.3153" lon="5.79101">
        <ele>584</ele>
        <time>2019-03-23T15:48:35Z</time>
      </trkpt>
      <trkpt lat="44.31527" lon="5.79111">
        <ele>584</ele>
        <time>2019-03-23T15:48:36Z</time>
      </trkpt>
      <trkpt lat="44.31524" lon="5.79121">
        <ele>584</ele>
        <time>2019-03-23T15:48:37Z</time>
      </trkpt>
      <trkpt lat="44.31521" lon="5.79131">
        <ele>583</ele>
        <time>2019-03-23T15:48:38Z</time>
      </trkpt>
      <trkpt lat="44.31518" lon="5.79141">
        <ele>583</ele>
        <time>2019-03-23T15:48:39Z</time>
      </trkpt>
      <trkpt lat="44.31515" lon="5.7915">
        <ele>582</ele>
        <time>2019-03-23T15:48:40Z</time>
      </trkpt>
      <trkpt lat="44.31512" lon="5.79159">
        <ele>582</ele>
        <time>2019-03-23T15:48:41Z</time>
      </trkpt>
      <trkpt lat="44.31509" lon="5.79168">
        <ele>582</ele>
        <time>2019-03-23T15:48:42Z</time>
      </trkpt>
      <trkpt lat="44.31507" lon="5.79176">
        <ele>582</ele>
        <time>2019-03-23T15:48:43Z</time>
      </trkpt>
      <trkpt lat="44.31504" lon="5.79183">
        <ele>582</ele>
        <time>2019-03-23T15:48:44Z</time>
      </trkpt>
      <trkpt lat="44.315" lon="5.7919">
        <ele>582</ele>
        <time>2019-03-23T15:48:45Z</time>
      </trkpt>
      <trkpt lat="44.31497" lon="5.79197">
        <ele>582</ele>
        <time>2019-03-23T15:48:46Z</time>
      </trkpt>
      <trkpt lat="44.31493" lon="5.79203">
        <ele>582</ele>
        <time>2019-03-23T15:48:47Z</time>
      </trkpt>
      <trkpt lat="44.3149" lon="5.79209">
        <ele>582</ele>
        <time>2019-03-23T15:48:48Z</time>
      </trkpt>
      <trkpt lat="44.31487" lon="5.79214">
        <ele>582</ele>
        <time>2019-03-23T15:48:49Z</time>
      </trkpt>
      <trkpt lat="44.31483" lon="5.7922">
        <ele>582</ele>
        <time>2019-03-23T15:48:50Z</time>
      </trkpt>
      <trkpt lat="44.3148" lon="5.79226">
        <ele>582</ele>
        <time>2019-03-23T15:48:51Z</time>
      </trkpt>
      <trkpt lat="44.31478" lon="5.79233">
        <ele>582</ele>
        <time>2019-03-23T15:48:52Z</time>
      </trkpt>
      <trkpt lat="44.31476" lon="5.79239">
        <ele>582</ele>
        <time>2019-03-23T15:48:53Z</time>
      </trkpt>
      <trkpt lat="44.31473" lon="5.79246">
        <ele>582</ele>
        <time>2019-03-23T15:48:54Z</time>
      </trkpt>
      <trkpt lat="44.31471" lon="5.79253">
        <ele>582</ele>
        <time>2019-03-23T15:48:55Z</time>
      </trkpt>
      <trkpt lat="44.31469" lon="5.7926">
        <ele>582</ele>
        <time>2019-03-23T15:48:56Z</time>
      </trkpt>
      <trkpt lat="44.31467" lon="5.79267">
        <ele>582</ele>
        <time>2019-03-23T15:48:57Z</time>
      </trkpt>
      <trkpt lat="44.31466" lon="5.79273">
        <ele>582</ele>
        <time>2019-03-23T15:48:58Z</time>
      </trkpt>
      <trkpt lat="44.31465" lon="5.7928">
        <ele>582</ele>
        <time>2019-03-23T15:48:59Z</time>
      </trkpt>
      <trkpt lat="44.31464" lon="5.79286">
        <ele>583</ele>
        <time>2019-03-23T15:49:00Z</time>
      </trkpt>
      <trkpt lat="44.31462" lon="5.79293">
        <ele>583</ele>
        <time>2019-03-23T15:49:01Z</time>
      </trkpt>
      <trkpt lat="44.31461" lon="5.79299">
        <ele>583</ele>
        <time>2019-03-23T15:49:02Z</time>
      </trkpt>
      <trkpt lat="44.3146" lon="5.79306">
        <ele>583</ele>
        <time>2019-03-23T15:49:03Z</time>
      </trkpt>
      <trkpt lat="44.31459" lon="5.79312">
        <ele>584</ele>
        <time>2019-03-23T15:49:04Z</time>
      </trkpt>
      <trkpt lat="44.31458" lon="5.79319">
        <ele>584</ele>
        <time>2019-03-23T15:49:05Z</time>
      </trkpt>
      <trkpt lat="44.31457" lon="5.79324">
        <ele>584</ele>
        <time>2019-03-23T15:49:06Z</time>
      </trkpt>
      <trkpt lat="44.31456" lon="5.7933">
        <ele>585</ele>
        <time>2019-03-23T15:49:07Z</time>
      </trkpt>
      <trkpt lat="44.31456" lon="5.79335">
        <ele>585</ele>
        <time>2019-03-23T15:49:08Z</time>
      </trkpt>
      <trkpt lat="44.31456" lon="5.79341">
        <ele>585</ele>
        <time>2019-03-23T15:49:09Z</time>
      </trkpt>
      <trkpt lat="44.31456" lon="5.79346">
        <ele>586</ele>
        <time>2019-03-23T15:49:10Z</time>
      </trkpt>
      <trkpt lat="44.31456" lon="5.79352">
        <ele>586</ele>
        <time>2019-03-23T15:49:11Z</time>
      </trkpt>
      <trkpt lat="44.31456" lon="5.79357">
        <ele>586</ele>
        <time>2019-03-23T15:49:12Z</time>
      </trkpt>
      <trkpt lat="44.31456" lon="5.79362">
        <ele>586</ele>
        <time>2019-03-23T15:49:13Z</time>
      </trkpt>
      <trkpt lat="44.31456" lon="5.79367">
        <ele>586</ele>
        <time>2019-03-23T15:49:14Z</time>
      </trkpt>
      <trkpt lat="44.31457" lon="5.79373">
        <ele>586</ele>
        <time>2019-03-23T15:49:15Z</time>
      </trkpt>
      <trkpt lat="44.31457" lon="5.79378">
        <ele>586</ele>
        <time>2019-03-23T15:49:16Z</time>
      </trkpt>
      <trkpt lat="44.31458" lon="5.79383">
        <ele>587</ele>
        <time>2019-03-23T15:49:17Z</time>
      </trkpt>
      <trkpt lat="44.31458" lon="5.79388">
        <ele>587</ele>
        <time>2019-03-23T15:49:18Z</time>
      </trkpt>
      <trkpt lat="44.31459" lon="5.79393">
        <ele>587</ele>
        <time>2019-03-23T15:49:19Z</time>
      </trkpt>
      <trkpt lat="44.31459" lon="5.79397">
        <ele>587</ele>
        <time>2019-03-23T15:49:20Z</time>
      </trkpt>
      <trkpt lat="44.31459" lon="5.79402">
        <ele>587</ele>
        <time>2019-03-23T15:49:21Z</time>
      </trkpt>
      <trkpt lat="44.3146" lon="5.79406">
        <ele>587</ele>
        <time>2019-03-23T15:49:22Z</time>
      </trkpt>
      <trkpt lat="44.3146" lon="5.79411">
        <ele>587</ele>
        <time>2019-03-23T15:49:23Z</time>
      </trkpt>
      <trkpt lat="44.31461" lon="5.79415">
        <ele>587</ele>
        <time>2019-03-23T15:49:24Z</time>
      </trkpt>
      <trkpt lat="44.31461" lon="5.7942">
        <ele>588</ele>
        <time>2019-03-23T15:49:25Z</time>
      </trkpt>
      <trkpt lat="44.31461" lon="5.79424">
        <ele>588</ele>
        <time>2019-03-23T15:49:26Z</time>
      </trkpt>
      <trkpt lat="44.31461" lon="5.79428">
        <ele>588</ele>
        <time>2019-03-23T15:49:27Z</time>
      </trkpt>
      <trkpt lat="44.31461" lon="5.79432">
        <ele>588</ele>
        <time>2019-03-23T15:49:28Z</time>
      </trkpt>
      <trkpt lat="44.31461" lon="5.79436">
        <ele>589</ele>
        <time>2019-03-23T15:49:29Z</time>
      </trkpt>
      <trkpt lat="44.3146" lon="5.7944">
        <ele>589</ele>
        <time>2019-03-23T15:49:30Z</time>
      </trkpt>
      <trkpt lat="44.3146" lon="5.79444">
        <ele>589</ele>
        <time>2019-03-23T15:49:31Z</time>
      </trkpt>
      <trkpt lat="44.3146" lon="5.79448">
        <ele>589</ele>
        <time>2019-03-23T15:49:32Z</time>
      </trkpt>
      <trkpt lat="44.31459" lon="5.79452">
        <ele>590</ele>
        <time>2019-03-23T15:49:33Z</time>
      </trkpt>
      <trkpt lat="44.31459" lon="5.79456">
        <ele>590</ele>
        <time>2019-03-23T15:49:34Z</time>
      </trkpt>
      <trkpt lat="44.31458" lon="5.79459">
        <ele>590</ele>
        <time>2019-03-23T15:49:35Z</time>
      </trkpt>
      <trkpt lat="44.31458" lon="5.79463">
        <ele>590</ele>
        <time>2019-03-23T15:49:36Z</time>
      </trkpt>
      <trkpt lat="44.31457" lon="5.79467">
        <ele>590</ele>
        <time>2019-03-23T15:49:37Z</time>
      </trkpt>
      <trkpt lat="44.31456" lon="5.79471">
        <ele>590</ele>
        <time>2019-03-23T15:49:38Z</time>
      </trkpt>
      <trkpt lat="44.31456" lon="5.79474">
        <ele>591</ele>
        <time>2019-03-23T15:49:39Z</time>
      </trkpt>
      <trkpt lat="44.31455" lon="5.79478">
        <ele>591</ele>
        <time>2019-03-23T15:49:40Z</time>
      </trkpt>
      <trkpt lat="44.31454" lon="5.79482">
        <ele>591</ele>
        <time>2019-03-23T15:49:41Z</time>
      </trkpt>
      <trkpt lat="44.31454" lon="5.79486">
        <ele>591</ele>
        <time>2019-03-23T15:49:42Z</time>
      </trkpt>
      <trkpt lat="44.31453" lon="5.79489">
        <ele>592</ele>
        <time>2019-03-23T15:49:43Z</time>
      </trkpt>
      <trkpt lat="44.31452" lon="5.79493">
        <ele>592</ele>
        <time>2019-03-23T15:49:44Z</time>
      </trkpt>
      <trkpt lat="44.31451" lon="5.79496">
        <ele>592</ele>
        <time>2019-03-23T15:49:45Z</time>
      </trkpt>
      <trkpt lat="44.3145" lon="5.795">
        <ele>592</ele>
        <time>2019-03-23T15:49:46Z</time>
      </trkpt>
      <trkpt lat="44.31449" lon="5.79503">
        <ele>592</ele>
        <time>2019-03-23T15:49:47Z</time>
      </trkpt>
      <trkpt lat="44.31448" lon="5.79507">
        <ele>593</ele>
        <time>2019-03-23T15:49:48Z</time>
      </trkpt>
      <trkpt lat="44.31447" lon="5.7951">
        <ele>593</ele>
        <time>2019-03-23T15:49:49Z</time>
      </trkpt>
      <trkpt lat="44.31446" lon="5.79514">
        <ele>593</ele>
        <time>2019-03-23T15:49:50Z</time>
      </trkpt>
      <trkpt lat="44.31445" lon="5.79517">
        <ele>593</ele>
        <time>2019-03-23T15:49:51Z</time>
      </trkpt>
      <trkpt lat="44.31444" lon="5.79521">
        <ele>593</ele>
        <time>2019-03-23T15:49:52Z</time>
      </trkpt>
      <trkpt lat="44.31443" lon="5.79524">
        <ele>594</ele>
        <time>2019-03-23T15:49:53Z</time>
      </trkpt>
      <trkpt lat="44.31442" lon="5.79527">
        <ele>594</ele>
        <time>2019-03-23T15:49:54Z</time>
      </trkpt>
      <trkpt lat="44.31441" lon="5.7953">
        <ele>594</ele>
        <time>2019-03-23T15:49:55Z</time>
      </trkpt>
      <trkpt lat="44.3144" lon="5.79533">
        <ele>594</ele>
        <time>2019-03-23T15:49:56Z</time>
      </trkpt>
      <trkpt lat="44.31438" lon="5.79537">
        <ele>594</ele>
        <time>2019-03-23T15:49:57Z</time>
      </trkpt>
      <trkpt lat="44.31437" lon="5.7954">
        <ele>594</ele>
        <time>2019-03-23T15:49:58Z</time>
      </trkpt>
      <trkpt lat="44.31436" lon="5.79544">
        <ele>594</ele>
        <time>2019-03-23T15:49:59Z</time>
      </trkpt>
      <trkpt lat="44.31435" lon="5.79548">
        <ele>594</ele>
        <time>2019-03-23T15:50:00Z</time>
      </trkpt>
      <trkpt lat="44.31434" lon="5.79551">
        <ele>594</ele>
        <time>2019-03-23T15:50:01Z</time>
      </trkpt>
      <trkpt lat="44.31433" lon="5.79555">
        <ele>595</ele>
        <time>2019-03-23T15:50:02Z</time>
      </trkpt>
      <trkpt lat="44.31432" lon="5.79558">
        <ele>595</ele>
        <time>2019-03-23T15:50:03Z</time>
      </trkpt>
      <trkpt lat="44.31431" lon="5.79561">
        <ele>595</ele>
        <time>2019-03-23T15:50:04Z</time>
      </trkpt>
      <trkpt lat="44.3143" lon="5.79565">
        <ele>595</ele>
        <time>2019-03-23T15:50:05Z</time>
      </trkpt>
      <trkpt lat="44.31429" lon="5.79568">
        <ele>595</ele>
        <time>2019-03-23T15:50:06Z</time>
      </trkpt>
      <trkpt lat="44.31428" lon="5.79572">
        <ele>595</ele>
        <time>2019-03-23T15:50:07Z</time>
      </trkpt>
      <trkpt lat="44.31427" lon="5.79575">
        <ele>595</ele>
        <time>2019-03-23T15:50:08Z</time>
      </trkpt>
      <trkpt lat="44.31426" lon="5.79578">
        <ele>595</ele>
        <time>2019-03-23T15:50:09Z</time>
      </trkpt>
      <trkpt lat="44.31425" lon="5.79582">
        <ele>596</ele>
        <time>2019-03-23T15:50:10Z</time>
      </trkpt>
      <trkpt lat="44.31424" lon="5.79585">
        <ele>596</ele>
        <time>2019-03-23T15:50:11Z</time>
      </trkpt>
      <trkpt lat="44.31424" lon="5.79589">
        <ele>596</ele>
        <time>2019-03-23T15:50:12Z</time>
      </trkpt>
      <trkpt lat="44.31423" lon="5.79592">
        <ele>596</ele>
        <time>2019-03-23T15:50:13Z</time>
      </trkpt>
      <trkpt lat="44.31422" lon="5.79595">
        <ele>596</ele>
        <time>2019-03-23T15:50:14Z</time>
      </trkpt>
      <trkpt lat="44.31421" lon="5.79598">
        <ele>596</ele>
        <time>2019-03-23T15:50:15Z</time>
      </trkpt>
      <trkpt lat="44.31421" lon="5.79602">
        <ele>596</ele>
        <time>2019-03-23T15:50:16Z</time>
      </trkpt>
      <trkpt lat="44.3142" lon="5.79605">
        <ele>596</ele>
        <time>2019-03-23T15:50:17Z</time>
      </trkpt>
      <trkpt lat="44.31419" lon="5.79609">
        <ele>597</ele>
        <time>2019-03-23T15:50:18Z</time>
      </trkpt>
      <trkpt lat="44.31418" lon="5.79612">
        <ele>597</ele>
        <time>2019-03-23T15:50:19Z</time>
      </trkpt>
      <trkpt lat="44.31417" lon="5.79616">
        <ele>598</ele>
        <time>2019-03-23T15:50:20Z</time>
      </trkpt>
      <trkpt lat="44.31416" lon="5.79619">
        <ele>598</ele>
        <time>2019-03-23T15:50:21Z</time>
      </trkpt>
      <trkpt lat="44.31415" lon="5.79623">
        <ele>598</ele>
        <time>2019-03-23T15:50:22Z</time>
      </trkpt>
      <trkpt lat="44.31414" lon="5.79627">
        <ele>598</ele>
        <time>2019-03-23T15:50:23Z</time>
      </trkpt>
      <trkpt lat="44.31414" lon="5.7963">
        <ele>598</ele>
        <time>2019-03-23T15:50:24Z</time>
      </trkpt>
      <trkpt lat="44.31412" lon="5.79634">
        <ele>599</ele>
        <time>2019-03-23T15:50:25Z</time>
      </trkpt>
      <trkpt lat="44.31411" lon="5.79637">
        <ele>599</ele>
        <time>2019-03-23T15:50:26Z</time>
      </trkpt>
      <trkpt lat="44.31411" lon="5.79641">
        <ele>599</ele>
        <time>2019-03-23T15:50:27Z</time>
      </trkpt>
      <trkpt lat="44.31411" lon="5.79645">
        <ele>599</ele>
        <time>2019-03-23T15:50:28Z</time>
      </trkpt>
      <trkpt lat="44.3141" lon="5.79648">
        <ele>600</ele>
        <time>2019-03-23T15:50:29Z</time>
      </trkpt>
      <trkpt lat="44.31409" lon="5.79652">
        <ele>600</ele>
        <time>2019-03-23T15:50:30Z</time>
      </trkpt>
      <trkpt lat="44.31408" lon="5.79656">
        <ele>600</ele>
        <time>2019-03-23T15:50:31Z</time>
      </trkpt>
      <trkpt lat="44.31406" lon="5.7966">
        <ele>600</ele>
        <time>2019-03-23T15:50:32Z</time>
      </trkpt>
      <trkpt lat="44.31405" lon="5.79664">
        <ele>601</ele>
        <time>2019-03-23T15:50:33Z</time>
      </trkpt>
      <trkpt lat="44.31404" lon="5.79667">
        <ele>601</ele>
        <time>2019-03-23T15:50:34Z</time>
      </trkpt>
      <trkpt lat="44.31403" lon="5.79671">
        <ele>601</ele>
        <time>2019-03-23T15:50:35Z</time>
      </trkpt>
      <trkpt lat="44.31402" lon="5.79674">
        <ele>601</ele>
        <time>2019-03-23T15:50:36Z</time>
      </trkpt>
      <trkpt lat="44.31401" lon="5.79678">
        <ele>601</ele>
        <time>2019-03-23T15:50:37Z</time>
      </trkpt>
      <trkpt lat="44.31401" lon="5.79682">
        <ele>602</ele>
        <time>2019-03-23T15:50:38Z</time>
      </trkpt>
      <trkpt lat="44.314" lon="5.79686">
        <ele>602</ele>
        <time>2019-03-23T15:50:39Z</time>
      </trkpt>
      <trkpt lat="44.31399" lon="5.7969">
        <ele>602</ele>
        <time>2019-03-23T15:50:40Z</time>
      </trkpt>
      <trkpt lat="44.31398" lon="5.79694">
        <ele>603</ele>
        <time>2019-03-23T15:50:41Z</time>
      </trkpt>
      <trkpt lat="44.31398" lon="5.79697">
        <ele>603</ele>
        <time>2019-03-23T15:50:42Z</time>
      </trkpt>
      <trkpt lat="44.31397" lon="5.79701">
        <ele>603</ele>
        <time>2019-03-23T15:50:43Z</time>
      </trkpt>
      <trkpt lat="44.31396" lon="5.79705">
        <ele>603</ele>
        <time>2019-03-23T15:50:44Z</time>
      </trkpt>
      <trkpt lat="44.31395" lon="5.79708">
        <ele>604</ele>
        <time>2019-03-23T15:50:45Z</time>
      </trkpt>
      <trkpt lat="44.31393" lon="5.79713">
        <ele>604</ele>
        <time>2019-03-23T15:50:46Z</time>
      </trkpt>
      <trkpt lat="44.31392" lon="5.79716">
        <ele>604</ele>
        <time>2019-03-23T15:50:47Z</time>
      </trkpt>
      <trkpt lat="44.3139" lon="5.7972">
        <ele>604</ele>
        <time>2019-03-23T15:50:48Z</time>
      </trkpt>
      <trkpt lat="44.31388" lon="5.79724">
        <ele>605</ele>
        <time>2019-03-23T15:50:49Z</time>
      </trkpt>
      <trkpt lat="44.31386" lon="5.79728">
        <ele>605</ele>
        <time>2019-03-23T15:50:50Z</time>
      </trkpt>
      <trkpt lat="44.31384" lon="5.79733">
        <ele>605</ele>
        <time>2019-03-23T15:50:51Z</time>
      </trkpt>
      <trkpt lat="44.31382" lon="5.79738">
        <ele>605</ele>
        <time>2019-03-23T15:50:52Z</time>
      </trkpt>
      <trkpt lat="44.31379" lon="5.79742">
        <ele>605</ele>
        <time>2019-03-23T15:50:53Z</time>
      </trkpt>
      <trkpt lat="44.31377" lon="5.79747">
        <ele>605</ele>
        <time>2019-03-23T15:50:54Z</time>
      </trkpt>
      <trkpt lat="44.31374" lon="5.79752">
        <ele>605</ele>
        <time>2019-03-23T15:50:55Z</time>
      </trkpt>
      <trkpt lat="44.3137" lon="5.79757">
        <ele>605</ele>
        <time>2019-03-23T15:50:56Z</time>
      </trkpt>
      <trkpt lat="44.31367" lon="5.79762">
        <ele>605</ele>
        <time>2019-03-23T15:50:57Z</time>
      </trkpt>
      <trkpt lat="44.31364" lon="5.79767">
        <ele>605</ele>
        <time>2019-03-23T15:50:58Z</time>
      </trkpt>
      <trkpt lat="44.3136" lon="5.79773">
        <ele>605</ele>
        <time>2019-03-23T15:50:59Z</time>
      </trkpt>
      <trkpt lat="44.31357" lon="5.79778">
        <ele>605</ele>
        <time>2019-03-23T15:51:00Z</time>
      </trkpt>
      <trkpt lat="44.31354" lon="5.79784">
        <ele>605</ele>
        <time>2019-03-23T15:51:01Z</time>
      </trkpt>
      <trkpt lat="44.31351" lon="5.79789">
        <ele>605</ele>
        <time>2019-03-23T15:51:02Z</time>
      </trkpt>
      <trkpt lat="44.31348" lon="5.79795">
        <ele>605</ele>
        <time>2019-03-23T15:51:03Z</time>
      </trkpt>
      <trkpt lat="44.31345" lon="5.798">
        <ele>605</ele>
        <time>2019-03-23T15:51:04Z</time>
      </trkpt>
      <trkpt lat="44.31342" lon="5.79806">
        <ele>605</ele>
        <time>2019-03-23T15:51:05Z</time>
      </trkpt>
      <trkpt lat="44.31339" lon="5.79811">
        <ele>605</ele>
        <time>2019-03-23T15:51:06Z</time>
      </trkpt>
      <trkpt lat="44.31335" lon="5.79816">
        <ele>605</ele>
        <time>2019-03-23T15:51:07Z</time>
      </trkpt>
      <trkpt lat="44.31331" lon="5.79822">
        <ele>605</ele>
        <time>2019-03-23T15:51:08Z</time>
      </trkpt>
      <trkpt lat="44.31327" lon="5.79827">
        <ele>605</ele>
        <time>2019-03-23T15:51:09Z</time>
      </trkpt>
      <trkpt lat="44.31324" lon="5.79833">
        <ele>605</ele>
        <time>2019-03-23T15:51:10Z</time>
      </trkpt>
      <trkpt lat="44.3132" lon="5.79839">
        <ele>605</ele>
        <time>2019-03-23T15:51:11Z</time>
      </trkpt>
      <trkpt lat="44.31316" lon="5.79845">
        <ele>605</ele>
        <time>2019-03-23T15:51:12Z</time>
      </trkpt>
      <trkpt lat="44.31313" lon="5.7985">
        <ele>605</ele>
        <time>2019-03-23T15:51:13Z</time>
      </trkpt>
      <trkpt lat="44.31309" lon="5.79856">
        <ele>605</ele>
        <time>2019-03-23T15:51:14Z</time>
      </trkpt>
      <trkpt lat="44.31305" lon="5.79861">
        <ele>605</ele>
        <time>2019-03-23T15:51:15Z</time>
      </trkpt>
      <trkpt lat="44.31302" lon="5.79867">
        <ele>605</ele>
        <time>2019-03-23T15:51:16Z</time>
      </trkpt>
      <trkpt lat="44.31298" lon="5.79872">
        <ele>605</ele>
        <time>2019-03-23T15:51:17Z</time>
      </trkpt>
      <trkpt lat="44.31295" lon="5.79878">
        <ele>606</ele>
        <time>2019-03-23T15:51:18Z</time>
      </trkpt>
      <trkpt lat="44.31291" lon="5.79883">
        <ele>606</ele>
        <time>2019-03-23T15:51:19Z</time>
      </trkpt>
      <trkpt lat="44.31288" lon="5.79888">
        <ele>606</ele>
        <time>2019-03-23T15:51:20Z</time>
      </trkpt>
      <trkpt lat="44.31284" lon="5.79893">
        <ele>606</ele>
        <time>2019-03-23T15:51:21Z</time>
      </trkpt>
      <trkpt lat="44.3128" lon="5.79898">
        <ele>606</ele>
        <time>2019-03-23T15:51:22Z</time>
      </trkpt>
      <trkpt lat="44.31276" lon="5.79903">
        <ele>607</ele>
        <time>2019-03-23T15:51:23Z</time>
      </trkpt>
      <trkpt lat="44.31273" lon="5.79907">
        <ele>607</ele>
        <time>2019-03-23T15:51:24Z</time>
      </trkpt>
      <trkpt lat="44.31269" lon="5.79912">
        <ele>607</ele>
        <time>2019-03-23T15:51:25Z</time>
      </trkpt>
      <trkpt lat="44.31266" lon="5.79916">
        <ele>607</ele>
        <time>2019-03-23T15:51:26Z</time>
      </trkpt>
      <trkpt lat="44.31262" lon="5.79921">
        <ele>608</ele>
        <time>2019-03-23T15:51:27Z</time>
      </trkpt>
      <trkpt lat="44.31259" lon="5.79926">
        <ele>608</ele>
        <time>2019-03-23T15:51:28Z</time>
      </trkpt>
      <trkpt lat="44.31255" lon="5.79931">
        <ele>608</ele>
        <time>2019-03-23T15:51:29Z</time>
      </trkpt>
      <trkpt lat="44.31252" lon="5.79935">
        <ele>609</ele>
        <time>2019-03-23T15:51:30Z</time>
      </trkpt>
      <trkpt lat="44.31248" lon="5.7994">
        <ele>609</ele>
        <time>2019-03-23T15:51:31Z</time>
      </trkpt>
      <trkpt lat="44.31245" lon="5.79944">
        <ele>609</ele>
        <time>2019-03-23T15:51:32Z</time>
      </trkpt>
      <trkpt lat="44.31242" lon="5.79949">
        <ele>610</ele>
        <time>2019-03-23T15:51:33Z</time>
      </trkpt>
      <trkpt lat="44.31239" lon="5.79954">
        <ele>610</ele>
        <time>2019-03-23T15:51:34Z</time>
      </trkpt>
      <trkpt lat="44.31236" lon="5.7996">
        <ele>610</ele>
        <time>2019-03-23T15:51:35Z</time>
      </trkpt>
      <trkpt lat="44.31232" lon="5.79967">
        <ele>610</ele>
        <time>2019-03-23T15:51:36Z</time>
      </trkpt>
      <trkpt lat="44.3123" lon="5.79975">
        <ele>610</ele>
        <time>2019-03-23T15:51:37Z</time>
      </trkpt>
      <trkpt lat="44.31229" lon="5.79983">
        <ele>610</ele>
        <time>2019-03-23T15:51:38Z</time>
      </trkpt>
      <trkpt lat="44.31228" lon="5.7999">
        <ele>610</ele>
        <time>2019-03-23T15:51:39Z</time>
      </trkpt>
      <trkpt lat="44.31227" lon="5.79998">
        <ele>610</ele>
        <time>2019-03-23T15:51:40Z</time>
      </trkpt>
      <trkpt lat="44.31226" lon="5.80005">
        <ele>610</ele>
        <time>2019-03-23T15:51:41Z</time>
      </trkpt>
      <trkpt lat="44.31226" lon="5.80012">
        <ele>610</ele>
        <time>2019-03-23T15:51:42Z</time>
      </trkpt>
      <trkpt lat="44.31226" lon="5.80019">
        <ele>610</ele>
        <time>2019-03-23T15:51:43Z</time>
      </trkpt>
      <trkpt lat="44.31226" lon="5.80026">
        <ele>610</ele>
        <time>2019-03-23T15:51:44Z</time>
      </trkpt>
      <trkpt lat="44.31225" lon="5.80032">
        <ele>610</ele>
        <time>2019-03-23T15:51:45Z</time>
      </trkpt>
      <trkpt lat="44.31224" lon="5.80038">
        <ele>610</ele>
        <time>2019-03-23T15:51:46Z</time>
      </trkpt>
      <trkpt lat="44.31224" lon="5.80045">
        <ele>610</ele>
        <time>2019-03-23T15:51:47Z</time>
      </trkpt>
      <trkpt lat="44.31222" lon="5.80051">
        <ele>610</ele>
        <time>2019-03-23T15:51:48Z</time>
      </trkpt>
      <trkpt lat="44.31221" lon="5.80056">
        <ele>610</ele>
        <time>2019-03-23T15:51:49Z</time>
      </trkpt>
      <trkpt lat="44.31219" lon="5.80062">
        <ele>610</ele>
        <time>2019-03-23T15:51:50Z</time>
      </trkpt>
      <trkpt lat="44.31217" lon="5.80067">
        <ele>610</ele>
        <time>2019-03-23T15:51:51Z</time>
      </trkpt>
      <trkpt lat="44.31214" lon="5.80073">
        <ele>610</ele>
        <time>2019-03-23T15:51:52Z</time>
      </trkpt>
      <trkpt lat="44.31211" lon="5.80078">
        <ele>610</ele>
        <time>2019-03-23T15:51:53Z</time>
      </trkpt>
      <trkpt lat="44.31208" lon="5.80083">
        <ele>610</ele>
        <time>2019-03-23T15:51:54Z</time>
      </trkpt>
      <trkpt lat="44.31204" lon="5.80088">
        <ele>610</ele>
        <time>2019-03-23T15:51:55Z</time>
      </trkpt>
      <trkpt lat="44.31201" lon="5.80093">
        <ele>610</ele>
        <time>2019-03-23T15:51:56Z</time>
      </trkpt>
      <trkpt lat="44.31198" lon="5.80097">
        <ele>610</ele>
        <time>2019-03-23T15:51:57Z</time>
      </trkpt>
      <trkpt lat="44.31195" lon="5.80102">
        <ele>610</ele>
        <time>2019-03-23T15:51:58Z</time>
      </trkpt>
      <trkpt lat="44.31192" lon="5.80106">
        <ele>610</ele>
        <time>2019-03-23T15:51:59Z</time>
      </trkpt>
      <trkpt lat="44.31189" lon="5.80112">
        <ele>610</ele>
        <time>2019-03-23T15:52:00Z</time>
      </trkpt>
      <trkpt lat="44.31187" lon="5.80118">
        <ele>610</ele>
        <time>2019-03-23T15:52:01Z</time>
      </trkpt>
      <trkpt lat="44.31184" lon="5.80124">
        <ele>610</ele>
        <time>2019-03-23T15:52:02Z</time>
      </trkpt>
      <trkpt lat="44.31182" lon="5.8013">
        <ele>610</ele>
        <time>2019-03-23T15:52:03Z</time>
      </trkpt>
      <trkpt lat="44.31181" lon="5.80136">
        <ele>610</ele>
        <time>2019-03-23T15:52:04Z</time>
      </trkpt>
      <trkpt lat="44.31179" lon="5.80142">
        <ele>610</ele>
        <time>2019-03-23T15:52:05Z</time>
      </trkpt>
      <trkpt lat="44.31177" lon="5.80148">
        <ele>610</ele>
        <time>2019-03-23T15:52:06Z</time>
      </trkpt>
      <trkpt lat="44.31176" lon="5.80154">
        <ele>610</ele>
        <time>2019-03-23T15:52:07Z</time>
      </trkpt>
      <trkpt lat="44.31175" lon="5.8016">
        <ele>610</ele>
        <time>2019-03-23T15:52:08Z</time>
      </trkpt>
      <trkpt lat="44.31173" lon="5.80165">
        <ele>610</ele>
        <time>2019-03-23T15:52:09Z</time>
      </trkpt>
      <trkpt lat="44.31172" lon="5.8017">
        <ele>610</ele>
        <time>2019-03-23T15:52:10Z</time>
      </trkpt>
      <trkpt lat="44.3117" lon="5.80175">
        <ele>610</ele>
        <time>2019-03-23T15:52:11Z</time>
      </trkpt>
      <trkpt lat="44.31168" lon="5.8018">
        <ele>610</ele>
        <time>2019-03-23T15:52:12Z</time>
      </trkpt>
      <trkpt lat="44.31167" lon="5.80185">
        <ele>610</ele>
        <time>2019-03-23T15:52:13Z</time>
      </trkpt>
      <trkpt lat="44.31165" lon="5.8019">
        <ele>610</ele>
        <time>2019-03-23T15:52:14Z</time>
      </trkpt>
      <trkpt lat="44.31163" lon="5.80194">
        <ele>610</ele>
        <time>2019-03-23T15:52:15Z</time>
      </trkpt>
      <trkpt lat="44.31162" lon="5.80199">
        <ele>611</ele>
        <time>2019-03-23T15:52:16Z</time>
      </trkpt>
      <trkpt lat="44.3116" lon="5.80203">
        <ele>611</ele>
        <time>2019-03-23T15:52:17Z</time>
      </trkpt>
      <trkpt lat="44.31158" lon="5.80207">
        <ele>611</ele>
        <time>2019-03-23T15:52:18Z</time>
      </trkpt>
      <trkpt lat="44.31156" lon="5.80212">
        <ele>611</ele>
        <time>2019-03-23T15:52:19Z</time>
      </trkpt>
      <trkpt lat="44.31154" lon="5.80216">
        <ele>612</ele>
        <time>2019-03-23T15:52:20Z</time>
      </trkpt>
      <trkpt lat="44.31152" lon="5.8022">
        <ele>612</ele>
        <time>2019-03-23T15:52:21Z</time>
      </trkpt>
      <trkpt lat="44.3115" lon="5.80224">
        <ele>612</ele>
        <time>2019-03-23T15:52:22Z</time>
      </trkpt>
      <trkpt lat="44.31149" lon="5.80228">
        <ele>612</ele>
        <time>2019-03-23T15:52:23Z</time>
      </trkpt>
      <trkpt lat="44.31147" lon="5.80232">
        <ele>613</ele>
        <time>2019-03-23T15:52:24Z</time>
      </trkpt>
      <trkpt lat="44.31144" lon="5.80236">
        <ele>613</ele>
        <time>2019-03-23T15:52:25Z</time>
      </trkpt>
      <trkpt lat="44.31142" lon="5.8024">
        <ele>613</ele>
        <time>2019-03-23T15:52:26Z</time>
      </trkpt>
      <trkpt lat="44.3114" lon="5.80244">
        <ele>613</ele>
        <time>2019-03-23T15:52:27Z</time>
      </trkpt>
      <trkpt lat="44.31138" lon="5.80248">
        <ele>613</ele>
        <time>2019-03-23T15:52:28Z</time>
      </trkpt>
      <trkpt lat="44.31136" lon="5.80253">
        <ele>613</ele>
        <time>2019-03-23T15:52:29Z</time>
      </trkpt>
      <trkpt lat="44.31134" lon="5.80257">
        <ele>613</ele>
        <time>2019-03-23T15:52:30Z</time>
      </trkpt>
      <trkpt lat="44.31132" lon="5.80262">
        <ele>613</ele>
        <time>2019-03-23T15:52:31Z</time>
      </trkpt>
      <trkpt lat="44.31129" lon="5.80266">
        <ele>613</ele>
        <time>2019-03-23T15:52:32Z</time>
      </trkpt>
      <trkpt lat="44.31127" lon="5.80271">
        <ele>613</ele>
        <time>2019-03-23T15:52:33Z</time>
      </trkpt>
      <trkpt lat="44.31125" lon="5.80276">
        <ele>613</ele>
        <time>2019-03-23T15:52:34Z</time>
      </trkpt>
      <trkpt lat="44.31123" lon="5.80281">
        <ele>613</ele>
        <time>2019-03-23T15:52:35Z</time>
      </trkpt>
      <trkpt lat="44.31121" lon="5.80286">
        <ele>613</ele>
        <time>2019-03-23T15:52:36Z</time>
      </trkpt>
      <trkpt lat="44.31119" lon="5.80292">
        <ele>613</ele>
        <time>2019-03-23T15:52:37Z</time>
      </trkpt>
      <trkpt lat="44.31117" lon="5.80297">
        <ele>613</ele>
        <time>2019-03-23T15:52:38Z</time>
      </trkpt>
      <trkpt lat="44.31116" lon="5.80302">
        <ele>613</ele>
        <time>2019-03-23T15:52:39Z</time>
      </trkpt>
      <trkpt lat="44.31114" lon="5.80307">
        <ele>613</ele>
        <time>2019-03-23T15:52:40Z</time>
      </trkpt>
      <trkpt lat="44.31113" lon="5.80312">
        <ele>613</ele>
        <time>2019-03-23T15:52:41Z</time>
      </trkpt>
      <trkpt lat="44.31113" lon="5.80318">
        <ele>614</ele>
        <time>2019-03-23T15:52:42Z</time>
      </trkpt>
      <trkpt lat="44.31112" lon="5.80324">
        <ele>614</ele>
        <time>2019-03-23T15:52:43Z</time>
      </trkpt>
      <trkpt lat="44.31112" lon="5.8033">
        <ele>614</ele>
        <time>2019-03-23T15:52:44Z</time>
      </trkpt>
      <trkpt lat="44.31113" lon="5.80336">
        <ele>614</ele>
        <time>2019-03-23T15:52:45Z</time>
      </trkpt>
      <trkpt lat="44.31113" lon="5.80342">
        <ele>614</ele>
        <time>2019-03-23T15:52:46Z</time>
      </trkpt>
      <trkpt lat="44.31113" lon="5.80348">
        <ele>614</ele>
        <time>2019-03-23T15:52:47Z</time>
      </trkpt>
      <trkpt lat="44.31113" lon="5.80354">
        <ele>614</ele>
        <time>2019-03-23T15:52:48Z</time>
      </trkpt>
      <trkpt lat="44.31114" lon="5.8036">
        <ele>614</ele>
        <time>2019-03-23T15:52:49Z</time>
      </trkpt>
      <trkpt lat="44.31114" lon="5.80367">
        <ele>614</ele>
        <time>2019-03-23T15:52:50Z</time>
      </trkpt>
      <trkpt lat="44.31114" lon="5.80373">
        <ele>615</ele>
        <time>2019-03-23T15:52:51Z</time>
      </trkpt>
      <trkpt lat="44.31115" lon="5.80379">
        <ele>615</ele>
        <time>2019-03-23T15:52:52Z</time>
      </trkpt>
      <trkpt lat="44.31115" lon="5.80385">
        <ele>615</ele>
        <time>2019-03-23T15:52:53Z</time>
      </trkpt>
      <trkpt lat="44.31115" lon="5.80392">
        <ele>615</ele>
        <time>2019-03-23T15:52:54Z</time>
      </trkpt>
      <trkpt lat="44.31115" lon="5.80398">
        <ele>615</ele>
        <time>2019-03-23T15:52:55Z</time>
      </trkpt>
      <trkpt lat="44.31115" lon="5.80404">
        <ele>615</ele>
        <time>2019-03-23T15:52:56Z</time>
      </trkpt>
      <trkpt lat="44.31116" lon="5.80411">
        <ele>616</ele>
        <time>2019-03-23T15:52:57Z</time>
      </trkpt>
      <trkpt lat="44.31116" lon="5.80417">
        <ele>616</ele>
        <time>2019-03-23T15:52:58Z</time>
      </trkpt>
      <trkpt lat="44.31117" lon="5.80423">
        <ele>616</ele>
        <time>2019-03-23T15:52:59Z</time>
      </trkpt>
      <trkpt lat="44.31118" lon="5.80429">
        <ele>616</ele>
        <time>2019-03-23T15:53:00Z</time>
      </trkpt>
      <trkpt lat="44.31118" lon="5.80435">
        <ele>616</ele>
        <time>2019-03-23T15:53:01Z</time>
      </trkpt>
      <trkpt lat="44.31119" lon="5.80441">
        <ele>616</ele>
        <time>2019-03-23T15:53:02Z</time>
      </trkpt>
      <trkpt lat="44.31119" lon="5.80448">
        <ele>616</ele>
        <time>2019-03-23T15:53:03Z</time>
      </trkpt>
      <trkpt lat="44.31119" lon="5.80454">
        <ele>616</ele>
        <time>2019-03-23T15:53:04Z</time>
      </trkpt>
      <trkpt lat="44.31119" lon="5.80461">
        <ele>617</ele>
        <time>2019-03-23T15:53:05Z</time>
      </trkpt>
      <trkpt lat="44.31118" lon="5.80468">
        <ele>617</ele>
        <time>2019-03-23T15:53:06Z</time>
      </trkpt>
      <trkpt lat="44.31117" lon="5.80475">
        <ele>617</ele>
        <time>2019-03-23T15:53:07Z</time>
      </trkpt>
      <trkpt lat="44.31115" lon="5.80481">
        <ele>617</ele>
        <time>2019-03-23T15:53:08Z</time>
      </trkpt>
      <trkpt lat="44.31114" lon="5.80488">
        <ele>617</ele>
        <time>2019-03-23T15:53:09Z</time>
      </trkpt>
      <trkpt lat="44.31112" lon="5.80495">
        <ele>617</ele>
        <time>2019-03-23T15:53:10Z</time>
      </trkpt>
      <trkpt lat="44.3111" lon="5.80503">
        <ele>617</ele>
        <time>2019-03-23T15:53:11Z</time>
      </trkpt>
      <trkpt lat="44.31108" lon="5.8051">
        <ele>617</ele>
        <time>2019-03-23T15:53:12Z</time>
      </trkpt>
      <trkpt lat="44.31106" lon="5.80518">
        <ele>617</ele>
        <time>2019-03-23T15:53:13Z</time>
      </trkpt>
      <trkpt lat="44.31104" lon="5.80526">
        <ele>617</ele>
        <time>2019-03-23T15:53:14Z</time>
      </trkpt>
      <trkpt lat="44.31102" lon="5.80534">
        <ele>617</ele>
        <time>2019-03-23T15:53:15Z</time>
      </trkpt>
      <trkpt lat="44.311" lon="5.80541">
        <ele>617</ele>
        <time>2019-03-23T15:53:16Z</time>
      </trkpt>
      <trkpt lat="44.31099" lon="5.80549">
        <ele>617</ele>
        <time>2019-03-23T15:53:17Z</time>
      </trkpt>
      <trkpt lat="44.31097" lon="5.80556">
        <ele>617</ele>
        <time>2019-03-23T15:53:18Z</time>
      </trkpt>
      <trkpt lat="44.31095" lon="5.80563">
        <ele>617</ele>
        <time>2019-03-23T15:53:19Z</time>
      </trkpt>
      <trkpt lat="44.31093" lon="5.80571">
        <ele>617</ele>
        <time>2019-03-23T15:53:20Z</time>
      </trkpt>
      <trkpt lat="44.31091" lon="5.80578">
        <ele>617</ele>
        <time>2019-03-23T15:53:21Z</time>
      </trkpt>
      <trkpt lat="44.31089" lon="5.80584">
        <ele>617</ele>
        <time>2019-03-23T15:53:22Z</time>
      </trkpt>
      <trkpt lat="44.31088" lon="5.80591">
        <ele>617</ele>
        <time>2019-03-23T15:53:23Z</time>
      </trkpt>
      <trkpt lat="44.31086" lon="5.80598">
        <ele>617</ele>
        <time>2019-03-23T15:53:24Z</time>
      </trkpt>
      <trkpt lat="44.31085" lon="5.80605">
        <ele>617</ele>
        <time>2019-03-23T15:53:25Z</time>
      </trkpt>
      <trkpt lat="44.31083" lon="5.80611">
        <ele>617</ele>
        <time>2019-03-23T15:53:26Z</time>
      </trkpt>
      <trkpt lat="44.31081" lon="5.80618">
        <ele>617</ele>
        <time>2019-03-23T15:53:27Z</time>
      </trkpt>
      <trkpt lat="44.31079" lon="5.80624">
        <ele>617</ele>
        <time>2019-03-23T15:53:28Z</time>
      </trkpt>
      <trkpt lat="44.31078" lon="5.80631">
        <ele>617</ele>
        <time>2019-03-23T15:53:29Z</time>
      </trkpt>
      <trkpt lat="44.31076" lon="5.80637">
        <ele>617</ele>
        <time>2019-03-23T15:53:30Z</time>
      </trkpt>
      <trkpt lat="44.31074" lon="5.80644">
        <ele>617</ele>
        <time>2019-03-23T15:53:31Z</time>
      </trkpt>
      <trkpt lat="44.31072" lon="5.80651">
        <ele>617</ele>
        <time>2019-03-23T15:53:32Z</time>
      </trkpt>
      <trkpt lat="44.3107" lon="5.80657">
        <ele>617</ele>
        <time>2019-03-23T15:53:33Z</time>
      </trkpt>
      <trkpt lat="44.31068" lon="5.80664">
        <ele>617</ele>
        <time>2019-03-23T15:53:34Z</time>
      </trkpt>
      <trkpt lat="44.31066" lon="5.8067">
        <ele>617</ele>
        <time>2019-03-23T15:53:35Z</time>
      </trkpt>
      <trkpt lat="44.31065" lon="5.80677">
        <ele>617</ele>
        <time>2019-03-23T15:53:36Z</time>
      </trkpt>
      <trkpt lat="44.31063" lon="5.80684">
        <ele>617</ele>
        <time>2019-03-23T15:53:37Z</time>
      </trkpt>
      <trkpt lat="44.31062" lon="5.8069">
        <ele>617</ele>
        <time>2019-03-23T15:53:38Z</time>
      </trkpt>
      <trkpt lat="44.3106" lon="5.80697">
        <ele>617</ele>
        <time>2019-03-23T15:53:39Z</time>
      </trkpt>
      <trkpt lat="44.31058" lon="5.80704">
        <ele>617</ele>
        <time>2019-03-23T15:53:40Z</time>
      </trkpt>
      <trkpt lat="44.31055" lon="5.80712">
        <ele>617</ele>
        <time>2019-03-23T15:53:41Z</time>
      </trkpt>
      <trkpt lat="44.31053" lon="5.8072">
        <ele>617</ele>
        <time>2019-03-23T15:53:42Z</time>
      </trkpt>
      <trkpt lat="44.3105" lon="5.80728">
        <ele>617</ele>
        <time>2019-03-23T15:53:43Z</time>
      </trkpt>
      <trkpt lat="44.31047" lon="5.80737">
        <ele>617</ele>
        <time>2019-03-23T15:53:44Z</time>
      </trkpt>
      <trkpt lat="44.31045" lon="5.80746">
        <ele>617</ele>
        <time>2019-03-23T15:53:45Z</time>
      </trkpt>
      <trkpt lat="44.31042" lon="5.80754">
        <ele>617</ele>
        <time>2019-03-23T15:53:46Z</time>
      </trkpt>
      <trkpt lat="44.31038" lon="5.80763">
        <ele>617</ele>
        <time>2019-03-23T15:53:47Z</time>
      </trkpt>
      <trkpt lat="44.31034" lon="5.80771">
        <ele>617</ele>
        <time>2019-03-23T15:53:48Z</time>
      </trkpt>
      <trkpt lat="44.31031" lon="5.80781">
        <ele>617</ele>
        <time>2019-03-23T15:53:49Z</time>
      </trkpt>
      <trkpt lat="44.31028" lon="5.8079">
        <ele>617</ele>
        <time>2019-03-23T15:53:50Z</time>
      </trkpt>
      <trkpt lat="44.31024" lon="5.80799">
        <ele>617</ele>
        <time>2019-03-23T15:53:51Z</time>
      </trkpt>
      <trkpt lat="44.31019" lon="5.80808">
        <ele>617</ele>
        <time>2019-03-23T15:53:52Z</time>
      </trkpt>
      <trkpt lat="44.31015" lon="5.80818">
        <ele>617</ele>
        <time>2019-03-23T15:53:53Z</time>
      </trkpt>
      <trkpt lat="44.3101" lon="5.80828">
        <ele>617</ele>
        <time>2019-03-23T15:53:54Z</time>
      </trkpt>
      <trkpt lat="44.31007" lon="5.80838">
        <ele>617</ele>
        <time>2019-03-23T15:53:55Z</time>
      </trkpt>
      <trkpt lat="44.31005" lon="5.80849">
        <ele>617</ele>
        <time>2019-03-23T15:53:56Z</time>
      </trkpt>
      <trkpt lat="44.31003" lon="5.8086">
        <ele>617</ele>
        <time>2019-03-23T15:53:57Z</time>
      </trkpt>
      <trkpt lat="44.31002" lon="5.8087">
        <ele>617</ele>
        <time>2019-03-23T15:53:58Z</time>
      </trkpt>
      <trkpt lat="44.31001" lon="5.80881">
        <ele>617</ele>
        <time>2019-03-23T15:53:59Z</time>
      </trkpt>
      <trkpt lat="44.31" lon="5.80891">
        <ele>617</ele>
        <time>2019-03-23T15:54:00Z</time>
      </trkpt>
      <trkpt lat="44.30997" lon="5.80901">
        <ele>617</ele>
        <time>2019-03-23T15:54:01Z</time>
      </trkpt>
      <trkpt lat="44.30994" lon="5.80911">
        <ele>617</ele>
        <time>2019-03-23T15:54:02Z</time>
      </trkpt>
      <trkpt lat="44.30991" lon="5.80921">
        <ele>617</ele>
        <time>2019-03-23T15:54:03Z</time>
      </trkpt>
      <trkpt lat="44.30988" lon="5.8093">
        <ele>617</ele>
        <time>2019-03-23T15:54:04Z</time>
      </trkpt>
      <trkpt lat="44.30985" lon="5.8094">
        <ele>617</ele>
        <time>2019-03-23T15:54:05Z</time>
      </trkpt>
      <trkpt lat="44.30981" lon="5.80949">
        <ele>616</ele>
        <time>2019-03-23T15:54:06Z</time>
      </trkpt>
      <trkpt lat="44.30976" lon="5.80959">
        <ele>616</ele>
        <time>2019-03-23T15:54:07Z</time>
      </trkpt>
      <trkpt lat="44.30971" lon="5.80968">
        <ele>615</ele>
        <time>2019-03-23T15:54:08Z</time>
      </trkpt>
      <trkpt lat="44.30966" lon="5.80977">
        <ele>615</ele>
        <time>2019-03-23T15:54:09Z</time>
      </trkpt>
      <trkpt lat="44.3096" lon="5.80986">
        <ele>614</ele>
        <time>2019-03-23T15:54:10Z</time>
      </trkpt>
      <trkpt lat="44.30955" lon="5.80996">
        <ele>613</ele>
        <time>2019-03-23T15:54:11Z</time>
      </trkpt>
      <trkpt lat="44.3095" lon="5.81005">
        <ele>612</ele>
        <time>2019-03-23T15:54:12Z</time>
      </trkpt>
      <trkpt lat="44.30944" lon="5.81015">
        <ele>612</ele>
        <time>2019-03-23T15:54:13Z</time>
      </trkpt>
      <trkpt lat="44.30939" lon="5.81025">
        <ele>611</ele>
        <time>2019-03-23T15:54:14Z</time>
      </trkpt>
      <trkpt lat="44.30935" lon="5.81035">
        <ele>611</ele>
        <time>2019-03-23T15:54:15Z</time>
      </trkpt>
      <trkpt lat="44.3093" lon="5.81045">
        <ele>610</ele>
        <time>2019-03-23T15:54:16Z</time>
      </trkpt>
      <trkpt lat="44.30927" lon="5.81055">
        <ele>610</ele>
        <time>2019-03-23T15:54:17Z</time>
      </trkpt>
      <trkpt lat="44.30924" lon="5.81065">
        <ele>610</ele>
        <time>2019-03-23T15:54:18Z</time>
      </trkpt>
      <trkpt lat="44.30921" lon="5.81075">
        <ele>610</ele>
        <time>2019-03-23T15:54:19Z</time>
      </trkpt>
      <trkpt lat="44.30918" lon="5.81085">
        <ele>610</ele>
        <time>2019-03-23T15:54:20Z</time>
      </trkpt>
      <trkpt lat="44.30916" lon="5.81095">
        <ele>610</ele>
        <time>2019-03-23T15:54:21Z</time>
      </trkpt>
      <trkpt lat="44.30913" lon="5.81104">
        <ele>610</ele>
        <time>2019-03-23T15:54:22Z</time>
      </trkpt>
      <trkpt lat="44.30911" lon="5.81114">
        <ele>610</ele>
        <time>2019-03-23T15:54:23Z</time>
      </trkpt>
      <trkpt lat="44.30909" lon="5.81123">
        <ele>610</ele>
        <time>2019-03-23T15:54:24Z</time>
      </trkpt>
      <trkpt lat="44.30907" lon="5.81132">
        <ele>610</ele>
        <time>2019-03-23T15:54:25Z</time>
      </trkpt>
      <trkpt lat="44.30905" lon="5.81141">
        <ele>610</ele>
        <time>2019-03-23T15:54:26Z</time>
      </trkpt>
      <trkpt lat="44.30902" lon="5.81149">
        <ele>610</ele>
        <time>2019-03-23T15:54:27Z</time>
      </trkpt>
      <trkpt lat="44.309" lon="5.81157">
        <ele>610</ele>
        <time>2019-03-23T15:54:28Z</time>
      </trkpt>
      <trkpt lat="44.30898" lon="5.81166">
        <ele>610</ele>
        <time>2019-03-23T15:54:29Z</time>
      </trkpt>
      <trkpt lat="44.30895" lon="5.81173">
        <ele>610</ele>
        <time>2019-03-23T15:54:30Z</time>
      </trkpt>
      <trkpt lat="44.30893" lon="5.81181">
        <ele>610</ele>
        <time>2019-03-23T15:54:31Z</time>
      </trkpt>
      <trkpt lat="44.30891" lon="5.81189">
        <ele>610</ele>
        <time>2019-03-23T15:54:32Z</time>
      </trkpt>
      <trkpt lat="44.30889" lon="5.81197">
        <ele>610</ele>
        <time>2019-03-23T15:54:33Z</time>
      </trkpt>
      <trkpt lat="44.30887" lon="5.81206">
        <ele>610</ele>
        <time>2019-03-23T15:54:34Z</time>
      </trkpt>
      <trkpt lat="44.30884" lon="5.81214">
        <ele>610</ele>
        <time>2019-03-23T15:54:35Z</time>
      </trkpt>
      <trkpt lat="44.30883" lon="5.81223">
        <ele>610</ele>
        <time>2019-03-23T15:54:36Z</time>
      </trkpt>
      <trkpt lat="44.30881" lon="5.81231">
        <ele>610</ele>
        <time>2019-03-23T15:54:37Z</time>
      </trkpt>
      <trkpt lat="44.30879" lon="5.81239">
        <ele>610</ele>
        <time>2019-03-23T15:54:38Z</time>
      </trkpt>
      <trkpt lat="44.30876" lon="5.81247">
        <ele>610</ele>
        <time>2019-03-23T15:54:39Z</time>
      </trkpt>
      <trkpt lat="44.30873" lon="5.81254">
        <ele>610</ele>
        <time>2019-03-23T15:54:40Z</time>
      </trkpt>
      <trkpt lat="44.30871" lon="5.81262">
        <ele>610</ele>
        <time>2019-03-23T15:54:41Z</time>
      </trkpt>
      <trkpt lat="44.30869" lon="5.8127">
        <ele>610</ele>
        <time>2019-03-23T15:54:42Z</time>
      </trkpt>
      <trkpt lat="44.30866" lon="5.81278">
        <ele>610</ele>
        <time>2019-03-23T15:54:43Z</time>
      </trkpt>
      <trkpt lat="44.30864" lon="5.81286">
        <ele>610</ele>
        <time>2019-03-23T15:54:44Z</time>
      </trkpt>
      <trkpt lat="44.30862" lon="5.81294">
        <ele>610</ele>
        <time>2019-03-23T15:54:45Z</time>
      </trkpt>
      <trkpt lat="44.30859" lon="5.81303">
        <ele>610</ele>
        <time>2019-03-23T15:54:46Z</time>
      </trkpt>
      <trkpt lat="44.30857" lon="5.81312">
        <ele>609</ele>
        <time>2019-03-23T15:54:47Z</time>
      </trkpt>
      <trkpt lat="44.30854" lon="5.8132">
        <ele>609</ele>
        <time>2019-03-23T15:54:48Z</time>
      </trkpt>
      <trkpt lat="44.30851" lon="5.81328">
        <ele>608</ele>
        <time>2019-03-23T15:54:49Z</time>
      </trkpt>
      <trkpt lat="44.30847" lon="5.81338">
        <ele>608</ele>
        <time>2019-03-23T15:54:50Z</time>
      </trkpt>
      <trkpt lat="44.30844" lon="5.81347">
        <ele>608</ele>
        <time>2019-03-23T15:54:51Z</time>
      </trkpt>
      <trkpt lat="44.30842" lon="5.81357">
        <ele>607</ele>
        <time>2019-03-23T15:54:52Z</time>
      </trkpt>
      <trkpt lat="44.3084" lon="5.81367">
        <ele>607</ele>
        <time>2019-03-23T15:54:53Z</time>
      </trkpt>
      <trkpt lat="44.30839" lon="5.81379">
        <ele>607</ele>
        <time>2019-03-23T15:54:54Z</time>
      </trkpt>
      <trkpt lat="44.30838" lon="5.8139">
        <ele>606</ele>
        <time>2019-03-23T15:54:55Z</time>
      </trkpt>
      <trkpt lat="44.30837" lon="5.81401">
        <ele>605</ele>
        <time>2019-03-23T15:54:56Z</time>
      </trkpt>
      <trkpt lat="44.30835" lon="5.81413">
        <ele>605</ele>
        <time>2019-03-23T15:54:57Z</time>
      </trkpt>
      <trkpt lat="44.30834" lon="5.81426">
        <ele>604</ele>
        <time>2019-03-23T15:54:58Z</time>
      </trkpt>
      <trkpt lat="44.30832" lon="5.81439">
        <ele>604</ele>
        <time>2019-03-23T15:54:59Z</time>
      </trkpt>
      <trkpt lat="44.3083" lon="5.81452">
        <ele>603</ele>
        <time>2019-03-23T15:55:00Z</time>
      </trkpt>
      <trkpt lat="44.30828" lon="5.81465">
        <ele>602</ele>
        <time>2019-03-23T15:55:01Z</time>
      </trkpt>
      <trkpt lat="44.30825" lon="5.81479">
        <ele>602</ele>
        <time>2019-03-23T15:55:02Z</time>
      </trkpt>
      <trkpt lat="44.30822" lon="5.81491">
        <ele>601</ele>
        <time>2019-03-23T15:55:03Z</time>
      </trkpt>
      <trkpt lat="44.3082" lon="5.81503">
        <ele>600</ele>
        <time>2019-03-23T15:55:04Z</time>
      </trkpt>
      <trkpt lat="44.30817" lon="5.81516">
        <ele>600</ele>
        <time>2019-03-23T15:55:05Z</time>
      </trkpt>
      <trkpt lat="44.30815" lon="5.81529">
        <ele>599</ele>
        <time>2019-03-23T15:55:06Z</time>
      </trkpt>
      <trkpt lat="44.30812" lon="5.81542">
        <ele>598</ele>
        <time>2019-03-23T15:55:07Z</time>
      </trkpt>
      <trkpt lat="44.3081" lon="5.81556">
        <ele>597</ele>
        <time>2019-03-23T15:55:08Z</time>
      </trkpt>
      <trkpt lat="44.30809" lon="5.8157">
        <ele>597</ele>
        <time>2019-03-23T15:55:09Z</time>
      </trkpt>
      <trkpt lat="44.30807" lon="5.81583">
        <ele>596</ele>
        <time>2019-03-23T15:55:10Z</time>
      </trkpt>
      <trkpt lat="44.30806" lon="5.81596">
        <ele>595</ele>
        <time>2019-03-23T15:55:11Z</time>
      </trkpt>
      <trkpt lat="44.30804" lon="5.8161">
        <ele>594</ele>
        <time>2019-03-23T15:55:12Z</time>
      </trkpt>
      <trkpt lat="44.30802" lon="5.81623">
        <ele>594</ele>
        <time>2019-03-23T15:55:13Z</time>
      </trkpt>
      <trkpt lat="44.308" lon="5.81636">
        <ele>593</ele>
        <time>2019-03-23T15:55:14Z</time>
      </trkpt>
      <trkpt lat="44.30798" lon="5.8165">
        <ele>592</ele>
        <time>2019-03-23T15:55:15Z</time>
      </trkpt>
      <trkpt lat="44.30795" lon="5.81663">
        <ele>591</ele>
        <time>2019-03-23T15:55:16Z</time>
      </trkpt>
      <trkpt lat="44.30792" lon="5.81676">
        <ele>591</ele>
        <time>2019-03-23T15:55:17Z</time>
      </trkpt>
      <trkpt lat="44.30788" lon="5.8169">
        <ele>590</ele>
        <time>2019-03-23T15:55:18Z</time>
      </trkpt>
      <trkpt lat="44.30784" lon="5.81702">
        <ele>589</ele>
        <time>2019-03-23T15:55:19Z</time>
      </trkpt>
      <trkpt lat="44.30779" lon="5.81715">
        <ele>589</ele>
        <time>2019-03-23T15:55:20Z</time>
      </trkpt>
      <trkpt lat="44.30775" lon="5.81728">
        <ele>588</ele>
        <time>2019-03-23T15:55:21Z</time>
      </trkpt>
      <trkpt lat="44.3077" lon="5.8174">
        <ele>587</ele>
        <time>2019-03-23T15:55:22Z</time>
      </trkpt>
      <trkpt lat="44.30766" lon="5.81752">
        <ele>586</ele>
        <time>2019-03-23T15:55:23Z</time>
      </trkpt>
      <trkpt lat="44.30762" lon="5.81765">
        <ele>586</ele>
        <time>2019-03-23T15:55:24Z</time>
      </trkpt>
      <trkpt lat="44.30758" lon="5.81777">
        <ele>585</ele>
        <time>2019-03-23T15:55:25Z</time>
      </trkpt>
      <trkpt lat="44.30754" lon="5.81789">
        <ele>584</ele>
        <time>2019-03-23T15:55:26Z</time>
      </trkpt>
      <trkpt lat="44.30751" lon="5.81801">
        <ele>584</ele>
        <time>2019-03-23T15:55:27Z</time>
      </trkpt>
      <trkpt lat="44.30747" lon="5.81814">
        <ele>583</ele>
        <time>2019-03-23T15:55:28Z</time>
      </trkpt>
      <trkpt lat="44.30743" lon="5.81827">
        <ele>583</ele>
        <time>2019-03-23T15:55:29Z</time>
      </trkpt>
      <trkpt lat="44.3074" lon="5.8184">
        <ele>582</ele>
        <time>2019-03-23T15:55:30Z</time>
      </trkpt>
      <trkpt lat="44.30736" lon="5.81853">
        <ele>581</ele>
        <time>2019-03-23T15:55:31Z</time>
      </trkpt>
      <trkpt lat="44.30733" lon="5.81867">
        <ele>580</ele>
        <time>2019-03-23T15:55:32Z</time>
      </trkpt>
      <trkpt lat="44.30731" lon="5.81879">
        <ele>580</ele>
        <time>2019-03-23T15:55:33Z</time>
      </trkpt>
      <trkpt lat="44.30728" lon="5.81892">
        <ele>579</ele>
        <time>2019-03-23T15:55:34Z</time>
      </trkpt>
      <trkpt lat="44.30725" lon="5.81905">
        <ele>578</ele>
        <time>2019-03-23T15:55:35Z</time>
      </trkpt>
      <trkpt lat="44.30722" lon="5.81918">
        <ele>577</ele>
        <time>2019-03-23T15:55:36Z</time>
      </trkpt>
      <trkpt lat="44.30719" lon="5.8193">
        <ele>576</ele>
        <time>2019-03-23T15:55:37Z</time>
      </trkpt>
      <trkpt lat="44.30717" lon="5.81943">
        <ele>576</ele>
        <time>2019-03-23T15:55:38Z</time>
      </trkpt>
      <trkpt lat="44.30714" lon="5.81955">
        <ele>575</ele>
        <time>2019-03-23T15:55:39Z</time>
      </trkpt>
      <trkpt lat="44.30712" lon="5.81967">
        <ele>574</ele>
        <time>2019-03-23T15:55:40Z</time>
      </trkpt>
      <trkpt lat="44.30709" lon="5.81978">
        <ele>573</ele>
        <time>2019-03-23T15:55:41Z</time>
      </trkpt>
      <trkpt lat="44.30708" lon="5.8199">
        <ele>573</ele>
        <time>2019-03-23T15:55:42Z</time>
      </trkpt>
      <trkpt lat="44.30706" lon="5.82001">
        <ele>572</ele>
        <time>2019-03-23T15:55:43Z</time>
      </trkpt>
      <trkpt lat="44.30705" lon="5.82013">
        <ele>571</ele>
        <time>2019-03-23T15:55:44Z</time>
      </trkpt>
      <trkpt lat="44.30704" lon="5.82025">
        <ele>570</ele>
        <time>2019-03-23T15:55:45Z</time>
      </trkpt>
      <trkpt lat="44.30704" lon="5.82035">
        <ele>569</ele>
        <time>2019-03-23T15:55:46Z</time>
      </trkpt>
      <trkpt lat="44.30704" lon="5.82047">
        <ele>568</ele>
        <time>2019-03-23T15:55:47Z</time>
      </trkpt>
      <trkpt lat="44.30705" lon="5.82058">
        <ele>567</ele>
        <time>2019-03-23T15:55:48Z</time>
      </trkpt>
      <trkpt lat="44.30706" lon="5.82069">
        <ele>566</ele>
        <time>2019-03-23T15:55:49Z</time>
      </trkpt>
      <trkpt lat="44.30708" lon="5.8208">
        <ele>565</ele>
        <time>2019-03-23T15:55:50Z</time>
      </trkpt>
      <trkpt lat="44.3071" lon="5.82091">
        <ele>564</ele>
        <time>2019-03-23T15:55:51Z</time>
      </trkpt>
      <trkpt lat="44.30712" lon="5.82101">
        <ele>563</ele>
        <time>2019-03-23T15:55:52Z</time>
      </trkpt>
      <trkpt lat="44.30714" lon="5.82112">
        <ele>563</ele>
        <time>2019-03-23T15:55:53Z</time>
      </trkpt>
      <trkpt lat="44.30714" lon="5.82123">
        <ele>562</ele>
        <time>2019-03-23T15:55:54Z</time>
      </trkpt>
      <trkpt lat="44.30714" lon="5.82134">
        <ele>561</ele>
        <time>2019-03-23T15:55:55Z</time>
      </trkpt>
      <trkpt lat="44.30713" lon="5.82144">
        <ele>561</ele>
        <time>2019-03-23T15:55:56Z</time>
      </trkpt>
      <trkpt lat="44.30711" lon="5.82153">
        <ele>560</ele>
        <time>2019-03-23T15:55:57Z</time>
      </trkpt>
      <trkpt lat="44.30709" lon="5.82163">
        <ele>560</ele>
        <time>2019-03-23T15:55:58Z</time>
      </trkpt>
      <trkpt lat="44.30706" lon="5.82171">
        <ele>559</ele>
        <time>2019-03-23T15:55:59Z</time>
      </trkpt>
      <trkpt lat="44.30703" lon="5.82179">
        <ele>559</ele>
        <time>2019-03-23T15:56:00Z</time>
      </trkpt>
      <trkpt lat="44.30701" lon="5.82187">
        <ele>559</ele>
        <time>2019-03-23T15:56:01Z</time>
      </trkpt>
      <trkpt lat="44.30698" lon="5.82193">
        <ele>558</ele>
        <time>2019-03-23T15:56:02Z</time>
      </trkpt>
      <trkpt lat="44.30695" lon="5.82198">
        <ele>558</ele>
        <time>2019-03-23T15:56:03Z</time>
      </trkpt>
      <trkpt lat="44.30692" lon="5.82203">
        <ele>558</ele>
        <time>2019-03-23T15:56:04Z</time>
      </trkpt>
      <trkpt lat="44.30689" lon="5.82206">
        <ele>558</ele>
        <time>2019-03-23T15:56:05Z</time>
      </trkpt>
      <trkpt lat="44.30687" lon="5.8221">
        <ele>558</ele>
        <time>2019-03-23T15:56:06Z</time>
      </trkpt>
      <trkpt lat="44.30685" lon="5.82213">
        <ele>557</ele>
        <time>2019-03-23T15:56:07Z</time>
      </trkpt>
      <trkpt lat="44.30682" lon="5.82216">
        <ele>557</ele>
        <time>2019-03-23T15:56:08Z</time>
      </trkpt>
      <trkpt lat="44.30681" lon="5.8222">
        <ele>557</ele>
        <time>2019-03-23T15:56:09Z</time>
      </trkpt>
      <trkpt lat="44.30681" lon="5.82223">
        <ele>557</ele>
        <time>2019-03-23T15:56:10Z</time>
      </trkpt>
      <trkpt lat="44.3068" lon="5.82226">
        <ele>557</ele>
        <time>2019-03-23T15:56:11Z</time>
      </trkpt>
      <trkpt lat="44.30681" lon="5.82229">
        <ele>557</ele>
        <time>2019-03-23T15:56:12Z</time>
      </trkpt>
      <trkpt lat="44.30683" lon="5.82232">
        <ele>557</ele>
        <time>2019-03-23T15:56:13Z</time>
      </trkpt>
      <trkpt lat="44.30685" lon="5.82234">
        <ele>557</ele>
        <time>2019-03-23T15:56:14Z</time>
      </trkpt>
      <trkpt lat="44.30688" lon="5.82236">
        <ele>557</ele>
        <time>2019-03-23T15:56:15Z</time>
      </trkpt>
      <trkpt lat="44.30691" lon="5.82238">
        <ele>557</ele>
        <time>2019-03-23T15:56:16Z</time>
      </trkpt>
      <trkpt lat="44.30694" lon="5.82239">
        <ele>557</ele>
        <time>2019-03-23T15:56:17Z</time>
      </trkpt>
      <trkpt lat="44.30697" lon="5.82238">
        <ele>557</ele>
        <time>2019-03-23T15:56:18Z</time>
      </trkpt>
      <trkpt lat="44.307" lon="5.82235">
        <ele>557</ele>
        <time>2019-03-23T15:56:19Z</time>
      </trkpt>
      <trkpt lat="44.30703" lon="5.82232">
        <ele>557</ele>
        <time>2019-03-23T15:56:20Z</time>
      </trkpt>
      <trkpt lat="44.30705" lon="5.82227">
        <ele>557</ele>
        <time>2019-03-23T15:56:21Z</time>
      </trkpt>
      <trkpt lat="44.30708" lon="5.82222">
        <ele>557</ele>
        <time>2019-03-23T15:56:22Z</time>
      </trkpt>
      <trkpt lat="44.30711" lon="5.82216">
        <ele>557</ele>
        <time>2019-03-23T15:56:23Z</time>
      </trkpt>
      <trkpt lat="44.30714" lon="5.8221">
        <ele>556</ele>
        <time>2019-03-23T15:56:24Z</time>
      </trkpt>
      <trkpt lat="44.30716" lon="5.82204">
        <ele>556</ele>
        <time>2019-03-23T15:56:25Z</time>
      </trkpt>
      <trkpt lat="44.30719" lon="5.82198">
        <ele>556</ele>
        <time>2019-03-23T15:56:26Z</time>
      </trkpt>
      <trkpt lat="44.30722" lon="5.82192">
        <ele>556</ele>
        <time>2019-03-23T15:56:27Z</time>
      </trkpt>
      <trkpt lat="44.30725" lon="5.82185">
        <ele>556</ele>
        <time>2019-03-23T15:56:28Z</time>
      </trkpt>
      <trkpt lat="44.30727" lon="5.82177">
        <ele>556</ele>
        <time>2019-03-23T15:56:29Z</time>
      </trkpt>
      <trkpt lat="44.3073" lon="5.8217">
        <ele>556</ele>
        <time>2019-03-23T15:56:30Z</time>
      </trkpt>
      <trkpt lat="44.30732" lon="5.82162">
        <ele>556</ele>
        <time>2019-03-23T15:56:31Z</time>
      </trkpt>
      <trkpt lat="44.30735" lon="5.82153">
        <ele>556</ele>
        <time>2019-03-23T15:56:32Z</time>
      </trkpt>
      <trkpt lat="44.30738" lon="5.82145">
        <ele>556</ele>
        <time>2019-03-23T15:56:33Z</time>
      </trkpt>
      <trkpt lat="44.3074" lon="5.82137">
        <ele>556</ele>
        <time>2019-03-23T15:56:34Z</time>
      </trkpt>
      <trkpt lat="44.30743" lon="5.82129">
        <ele>555</ele>
        <time>2019-03-23T15:56:35Z</time>
      </trkpt>
      <trkpt lat="44.30746" lon="5.82121">
        <ele>555</ele>
        <time>2019-03-23T15:56:36Z</time>
      </trkpt>
      <trkpt lat="44.3075" lon="5.82112">
        <ele>555</ele>
        <time>2019-03-23T15:56:37Z</time>
      </trkpt>
      <trkpt lat="44.30753" lon="5.82105">
        <ele>555</ele>
        <time>2019-03-23T15:56:38Z</time>
      </trkpt>
      <trkpt lat="44.30758" lon="5.82098">
        <ele>555</ele>
        <time>2019-03-23T15:56:39Z</time>
      </trkpt>
      <trkpt lat="44.30764" lon="5.82093">
        <ele>555</ele>
        <time>2019-03-23T15:56:40Z</time>
      </trkpt>
      <trkpt lat="44.30769" lon="5.82088">
        <ele>555</ele>
        <time>2019-03-23T15:56:41Z</time>
      </trkpt>
      <trkpt lat="44.30775" lon="5.82084">
        <ele>555</ele>
        <time>2019-03-23T15:56:42Z</time>
      </trkpt>
      <trkpt lat="44.3078" lon="5.8208">
        <ele>555</ele>
        <time>2019-03-23T15:56:43Z</time>
      </trkpt>
      <trkpt lat="44.30785" lon="5.82078">
        <ele>555</ele>
        <time>2019-03-23T15:56:44Z</time>
      </trkpt>
      <trkpt lat="44.30791" lon="5.82077">
        <ele>555</ele>
        <time>2019-03-23T15:56:45Z</time>
      </trkpt>
      <trkpt lat="44.30797" lon="5.82075">
        <ele>555</ele>
        <time>2019-03-23T15:56:46Z</time>
      </trkpt>
      <trkpt lat="44.30803" lon="5.82074">
        <ele>555</ele>
        <time>2019-03-23T15:56:47Z</time>
      </trkpt>
      <trkpt lat="44.30808" lon="5.82073">
        <ele>555</ele>
        <time>2019-03-23T15:56:48Z</time>
      </trkpt>
      <trkpt lat="44.30814" lon="5.82072">
        <ele>555</ele>
        <time>2019-03-23T15:56:49Z</time>
      </trkpt>
      <trkpt lat="44.3082" lon="5.8207">
        <ele>555</ele>
        <time>2019-03-23T15:56:50Z</time>
      </trkpt>
      <trkpt lat="44.30826" lon="5.82069">
        <ele>555</ele>
        <time>2019-03-23T15:56:51Z</time>
      </trkpt>
      <trkpt lat="44.30832" lon="5.82068">
        <ele>555</ele>
        <time>2019-03-23T15:56:52Z</time>
      </trkpt>
      <trkpt lat="44.30838" lon="5.82066">
        <ele>555</ele>
        <time>2019-03-23T15:56:53Z</time>
      </trkpt>
      <trkpt lat="44.30844" lon="5.82064">
        <ele>555</ele>
        <time>2019-03-23T15:56:54Z</time>
      </trkpt>
      <trkpt lat="44.30851" lon="5.82062">
        <ele>555</ele>
        <time>2019-03-23T15:56:55Z</time>
      </trkpt>
      <trkpt lat="44.30857" lon="5.8206">
        <ele>555</ele>
        <time>2019-03-23T15:56:56Z</time>
      </trkpt>
      <trkpt lat="44.30863" lon="5.82058">
        <ele>555</ele>
        <time>2019-03-23T15:56:57Z</time>
      </trkpt>
      <trkpt lat="44.3087" lon="5.82056">
        <ele>555</ele>
        <time>2019-03-23T15:56:58Z</time>
      </trkpt>
      <trkpt lat="44.30876" lon="5.82053">
        <ele>554</ele>
        <time>2019-03-23T15:56:59Z</time>
      </trkpt>
      <trkpt lat="44.30883" lon="5.82051">
        <ele>554</ele>
        <time>2019-03-23T15:57:00Z</time>
      </trkpt>
      <trkpt lat="44.3089" lon="5.82049">
        <ele>554</ele>
        <time>2019-03-23T15:57:01Z</time>
      </trkpt>
      <trkpt lat="44.30897" lon="5.82046">
        <ele>553</ele>
        <time>2019-03-23T15:57:02Z</time>
      </trkpt>
      <trkpt lat="44.30904" lon="5.82044">
        <ele>553</ele>
        <time>2019-03-23T15:57:03Z</time>
      </trkpt>
      <trkpt lat="44.30912" lon="5.82043">
        <ele>553</ele>
        <time>2019-03-23T15:57:04Z</time>
      </trkpt>
      <trkpt lat="44.3092" lon="5.82043">
        <ele>553</ele>
        <time>2019-03-23T15:57:05Z</time>
      </trkpt>
      <trkpt lat="44.30928" lon="5.82043">
        <ele>552</ele>
        <time>2019-03-23T15:57:06Z</time>
      </trkpt>
      <trkpt lat="44.30936" lon="5.82044">
        <ele>552</ele>
        <time>2019-03-23T15:57:07Z</time>
      </trkpt>
      <trkpt lat="44.30944" lon="5.82046">
        <ele>552</ele>
        <time>2019-03-23T15:57:08Z</time>
      </trkpt>
      <trkpt lat="44.30951" lon="5.82048">
        <ele>552</ele>
        <time>2019-03-23T15:57:09Z</time>
      </trkpt>
      <trkpt lat="44.30958" lon="5.82052">
        <ele>552</ele>
        <time>2019-03-23T15:57:10Z</time>
      </trkpt>
      <trkpt lat="44.30965" lon="5.82056">
        <ele>552</ele>
        <time>2019-03-23T15:57:11Z</time>
      </trkpt>
      <trkpt lat="44.30973" lon="5.82061">
        <ele>552</ele>
        <time>2019-03-23T15:57:12Z</time>
      </trkpt>
      <trkpt lat="44.30979" lon="5.82065">
        <ele>552</ele>
        <time>2019-03-23T15:57:13Z</time>
      </trkpt>
      <trkpt lat="44.30986" lon="5.82071">
        <ele>552</ele>
        <time>2019-03-23T15:57:14Z</time>
      </trkpt>
      <trkpt lat="44.30992" lon="5.82077">
        <ele>552</ele>
        <time>2019-03-23T15:57:15Z</time>
      </trkpt>
      <trkpt lat="44.30998" lon="5.82083">
        <ele>552</ele>
        <time>2019-03-23T15:57:16Z</time>
      </trkpt>
      <trkpt lat="44.31003" lon="5.8209">
        <ele>552</ele>
        <time>2019-03-23T15:57:17Z</time>
      </trkpt>
      <trkpt lat="44.31009" lon="5.82096">
        <ele>552</ele>
        <time>2019-03-23T15:57:18Z</time>
      </trkpt>
      <trkpt lat="44.31014" lon="5.82103">
        <ele>552</ele>
        <time>2019-03-23T15:57:19Z</time>
      </trkpt>
      <trkpt lat="44.31019" lon="5.82109">
        <ele>552</ele>
        <time>2019-03-23T15:57:20Z</time>
      </trkpt>
      <trkpt lat="44.31024" lon="5.82116">
        <ele>552</ele>
        <time>2019-03-23T15:57:21Z</time>
      </trkpt>
      <trkpt lat="44.31029" lon="5.82123">
        <ele>552</ele>
        <time>2019-03-23T15:57:22Z</time>
      </trkpt>
      <trkpt lat="44.31034" lon="5.82129">
        <ele>552</ele>
        <time>2019-03-23T15:57:23Z</time>
      </trkpt>
      <trkpt lat="44.31039" lon="5.82135">
        <ele>552</ele>
        <time>2019-03-23T15:57:24Z</time>
      </trkpt>
      <trkpt lat="44.31044" lon="5.82141">
        <ele>552</ele>
        <time>2019-03-23T15:57:25Z</time>
      </trkpt>
      <trkpt lat="44.31049" lon="5.82147">
        <ele>552</ele>
        <time>2019-03-23T15:57:26Z</time>
      </trkpt>
      <trkpt lat="44.31053" lon="5.82153">
        <ele>552</ele>
        <time>2019-03-23T15:57:27Z</time>
      </trkpt>
      <trkpt lat="44.31058" lon="5.82159">
        <ele>552</ele>
        <time>2019-03-23T15:57:28Z</time>
      </trkpt>
      <trkpt lat="44.31062" lon="5.82165">
        <ele>552</ele>
        <time>2019-03-23T15:57:29Z</time>
      </trkpt>
      <trkpt lat="44.31067" lon="5.8217">
        <ele>552</ele>
        <time>2019-03-23T15:57:30Z</time>
      </trkpt>
      <trkpt lat="44.31073" lon="5.82175">
        <ele>552</ele>
        <time>2019-03-23T15:57:31Z</time>
      </trkpt>
      <trkpt lat="44.31077" lon="5.82181">
        <ele>552</ele>
        <time>2019-03-23T15:57:32Z</time>
      </trkpt>
      <trkpt lat="44.31081" lon="5.82187">
        <ele>552</ele>
        <time>2019-03-23T15:57:33Z</time>
      </trkpt>
      <trkpt lat="44.31085" lon="5.82194">
        <ele>552</ele>
        <time>2019-03-23T15:57:34Z</time>
      </trkpt>
      <trkpt lat="44.3109" lon="5.82199">
        <ele>552</ele>
        <time>2019-03-23T15:57:35Z</time>
      </trkpt>
      <trkpt lat="44.31094" lon="5.82205">
        <ele>552</ele>
        <time>2019-03-23T15:57:36Z</time>
      </trkpt>
      <trkpt lat="44.31098" lon="5.82211">
        <ele>552</ele>
        <time>2019-03-23T15:57:37Z</time>
      </trkpt>
      <trkpt lat="44.31102" lon="5.82217">
        <ele>552</ele>
        <time>2019-03-23T15:57:38Z</time>
      </trkpt>
      <trkpt lat="44.31106" lon="5.82222">
        <ele>552</ele>
        <time>2019-03-23T15:57:39Z</time>
      </trkpt>
      <trkpt lat="44.3111" lon="5.82227">
        <ele>552</ele>
        <time>2019-03-23T15:57:40Z</time>
      </trkpt>
      <trkpt lat="44.31114" lon="5.82233">
        <ele>552</ele>
        <time>2019-03-23T15:57:41Z</time>
      </trkpt>
      <trkpt lat="44.31118" lon="5.82238">
        <ele>552</ele>
        <time>2019-03-23T15:57:42Z</time>
      </trkpt>
      <trkpt lat="44.31121" lon="5.82243">
        <ele>552</ele>
        <time>2019-03-23T15:57:43Z</time>
      </trkpt>
      <trkpt lat="44.31125" lon="5.82248">
        <ele>552</ele>
        <time>2019-03-23T15:57:44Z</time>
      </trkpt>
      <trkpt lat="44.31128" lon="5.82252">
        <ele>552</ele>
        <time>2019-03-23T15:57:45Z</time>
      </trkpt>
      <trkpt lat="44.31131" lon="5.82256">
        <ele>552</ele>
        <time>2019-03-23T15:57:46Z</time>
      </trkpt>
      <trkpt lat="44.31135" lon="5.8226">
        <ele>552</ele>
        <time>2019-03-23T15:57:47Z</time>
      </trkpt>
      <trkpt lat="44.31138" lon="5.82263">
        <ele>552</ele>
        <time>2019-03-23T15:57:48Z</time>
      </trkpt>
      <trkpt lat="44.31142" lon="5.82267">
        <ele>552</ele>
        <time>2019-03-23T15:57:49Z</time>
      </trkpt>
      <trkpt lat="44.31145" lon="5.82271">
        <ele>552</ele>
        <time>2019-03-23T15:57:50Z</time>
      </trkpt>
      <trkpt lat="44.31149" lon="5.82275">
        <ele>552</ele>
        <time>2019-03-23T15:57:51Z</time>
      </trkpt>
      <trkpt lat="44.31151" lon="5.82279">
        <ele>552</ele>
        <time>2019-03-23T15:57:52Z</time>
      </trkpt>
      <trkpt lat="44.31152" lon="5.82284">
        <ele>552</ele>
        <time>2019-03-23T15:57:53Z</time>
      </trkpt>
      <trkpt lat="44.31153" lon="5.8229">
        <ele>552</ele>
        <time>2019-03-23T15:57:54Z</time>
      </trkpt>
      <trkpt lat="44.31152" lon="5.82295">
        <ele>552</ele>
        <time>2019-03-23T15:57:55Z</time>
      </trkpt>
      <trkpt lat="44.31151" lon="5.823">
        <ele>552</ele>
        <time>2019-03-23T15:57:56Z</time>
      </trkpt>
      <trkpt lat="44.31148" lon="5.82305">
        <ele>552</ele>
        <time>2019-03-23T15:57:57Z</time>
      </trkpt>
      <trkpt lat="44.31144" lon="5.82309">
        <ele>552</ele>
        <time>2019-03-23T15:57:58Z</time>
      </trkpt>
      <trkpt lat="44.31141" lon="5.82314">
        <ele>552</ele>
        <time>2019-03-23T15:57:59Z</time>
      </trkpt>
      <trkpt lat="44.31137" lon="5.82319">
        <ele>552</ele>
        <time>2019-03-23T15:58:00Z</time>
      </trkpt>
      <trkpt lat="44.31134" lon="5.82324">
        <ele>552</ele>
        <time>2019-03-23T15:58:01Z</time>
      </trkpt>
      <trkpt lat="44.31131" lon="5.82329">
        <ele>552</ele>
        <time>2019-03-23T15:58:02Z</time>
      </trkpt>
      <trkpt lat="44.31127" lon="5.82334">
        <ele>552</ele>
        <time>2019-03-23T15:58:03Z</time>
      </trkpt>
      <trkpt lat="44.31123" lon="5.82339">
        <ele>552</ele>
        <time>2019-03-23T15:58:04Z</time>
      </trkpt>
      <trkpt lat="44.3112" lon="5.82344">
        <ele>552</ele>
        <time>2019-03-23T15:58:05Z</time>
      </trkpt>
      <trkpt lat="44.31116" lon="5.8235">
        <ele>552</ele>
        <time>2019-03-23T15:58:06Z</time>
      </trkpt>
      <trkpt lat="44.31113" lon="5.82356">
        <ele>552</ele>
        <time>2019-03-23T15:58:07Z</time>
      </trkpt>
      <trkpt lat="44.3111" lon="5.82363">
        <ele>552</ele>
        <time>2019-03-23T15:58:08Z</time>
      </trkpt>
      <trkpt lat="44.31108" lon="5.8237">
        <ele>552</ele>
        <time>2019-03-23T15:58:09Z</time>
      </trkpt>
      <trkpt lat="44.31107" lon="5.82376">
        <ele>552</ele>
        <time>2019-03-23T15:58:10Z</time>
      </trkpt>
      <trkpt lat="44.31107" lon="5.82383">
        <ele>552</ele>
        <time>2019-03-23T15:58:11Z</time>
      </trkpt>
      <trkpt lat="44.31106" lon="5.8239">
        <ele>552</ele>
        <time>2019-03-23T15:58:12Z</time>
      </trkpt>
      <trkpt lat="44.31106" lon="5.82396">
        <ele>552</ele>
        <time>2019-03-23T15:58:13Z</time>
      </trkpt>
      <trkpt lat="44.31105" lon="5.82403">
        <ele>552</ele>
        <time>2019-03-23T15:58:14Z</time>
      </trkpt>
      <trkpt lat="44.31104" lon="5.82409">
        <ele>552</ele>
        <time>2019-03-23T15:58:15Z</time>
      </trkpt>
      <trkpt lat="44.31102" lon="5.82415">
        <ele>552</ele>
        <time>2019-03-23T15:58:16Z</time>
      </trkpt>
      <trkpt lat="44.31099" lon="5.82421">
        <ele>552</ele>
        <time>2019-03-23T15:58:17Z</time>
      </trkpt>
      <trkpt lat="44.31097" lon="5.82427">
        <ele>552</ele>
        <time>2019-03-23T15:58:18Z</time>
      </trkpt>
      <trkpt lat="44.31095" lon="5.82432">
        <ele>552</ele>
        <time>2019-03-23T15:58:19Z</time>
      </trkpt>
      <trkpt lat="44.31093" lon="5.82437">
        <ele>552</ele>
        <time>2019-03-23T15:58:20Z</time>
      </trkpt>
      <trkpt lat="44.31091" lon="5.82441">
        <ele>552</ele>
        <time>2019-03-23T15:58:21Z</time>
      </trkpt>
      <trkpt lat="44.31089" lon="5.82445">
        <ele>552</ele>
        <time>2019-03-23T15:58:22Z</time>
      </trkpt>
      <trkpt lat="44.31087" lon="5.8245">
        <ele>552</ele>
        <time>2019-03-23T15:58:23Z</time>
      </trkpt>
      <trkpt lat="44.31085" lon="5.82455">
        <ele>552</ele>
        <time>2019-03-23T15:58:24Z</time>
      </trkpt>
      <trkpt lat="44.31083" lon="5.82459">
        <ele>552</ele>
        <time>2019-03-23T15:58:25Z</time>
      </trkpt>
      <trkpt lat="44.31081" lon="5.82464">
        <ele>552</ele>
        <time>2019-03-23T15:58:26Z</time>
      </trkpt>
      <trkpt lat="44.31079" lon="5.82468">
        <ele>552</ele>
        <time>2019-03-23T15:58:27Z</time>
      </trkpt>
      <trkpt lat="44.31078" lon="5.82474">
        <ele>552</ele>
        <time>2019-03-23T15:58:28Z</time>
      </trkpt>
      <trkpt lat="44.31076" lon="5.82479">
        <ele>552</ele>
        <time>2019-03-23T15:58:29Z</time>
      </trkpt>
      <trkpt lat="44.31074" lon="5.82486">
        <ele>552</ele>
        <time>2019-03-23T15:58:30Z</time>
      </trkpt>
      <trkpt lat="44.31073" lon="5.82493">
        <ele>552</ele>
        <time>2019-03-23T15:58:31Z</time>
      </trkpt>
      <trkpt lat="44.31073" lon="5.825">
        <ele>552</ele>
        <time>2019-03-23T15:58:32Z</time>
      </trkpt>
      <trkpt lat="44.31074" lon="5.82506">
        <ele>552</ele>
        <time>2019-03-23T15:58:33Z</time>
      </trkpt>
      <trkpt lat="44.31076" lon="5.82512">
        <ele>552</ele>
        <time>2019-03-23T15:58:34Z</time>
      </trkpt>
      <trkpt lat="44.31078" lon="5.82517">
        <ele>552</ele>
        <time>2019-03-23T15:58:35Z</time>
      </trkpt>
      <trkpt lat="44.31082" lon="5.82522">
        <ele>552</ele>
        <time>2019-03-23T15:58:36Z</time>
      </trkpt>
      <trkpt lat="44.31086" lon="5.82526">
        <ele>552</ele>
        <time>2019-03-23T15:58:37Z</time>
      </trkpt>
      <trkpt lat="44.3109" lon="5.8253">
        <ele>552</ele>
        <time>2019-03-23T15:58:38Z</time>
      </trkpt>
      <trkpt lat="44.31094" lon="5.82534">
        <ele>552</ele>
        <time>2019-03-23T15:58:39Z</time>
      </trkpt>
      <trkpt lat="44.31099" lon="5.82537">
        <ele>552</ele>
        <time>2019-03-23T15:58:40Z</time>
      </trkpt>
      <trkpt lat="44.31104" lon="5.82541">
        <ele>552</ele>
        <time>2019-03-23T15:58:41Z</time>
      </trkpt>
      <trkpt lat="44.31108" lon="5.82544">
        <ele>552</ele>
        <time>2019-03-23T15:58:42Z</time>
      </trkpt>
      <trkpt lat="44.31113" lon="5.82547">
        <ele>552</ele>
        <time>2019-03-23T15:58:43Z</time>
      </trkpt>
      <trkpt lat="44.31118" lon="5.8255">
        <ele>552</ele>
        <time>2019-03-23T15:58:44Z</time>
      </trkpt>
      <trkpt lat="44.31123" lon="5.82552">
        <ele>552</ele>
        <time>2019-03-23T15:58:45Z</time>
      </trkpt>
      <trkpt lat="44.31128" lon="5.82555">
        <ele>552</ele>
        <time>2019-03-23T15:58:46Z</time>
      </trkpt>
      <trkpt lat="44.31133" lon="5.82558">
        <ele>552</ele>
        <time>2019-03-23T15:58:47Z</time>
      </trkpt>
      <trkpt lat="44.31138" lon="5.82561">
        <ele>552</ele>
        <time>2019-03-23T15:58:48Z</time>
      </trkpt>
      <trkpt lat="44.31142" lon="5.82563">
        <ele>552</ele>
        <time>2019-03-23T15:58:49Z</time>
      </trkpt>
      <trkpt lat="44.31147" lon="5.82566">
        <ele>552</ele>
        <time>2019-03-23T15:58:50Z</time>
      </trkpt>
      <trkpt lat="44.31152" lon="5.82569">
        <ele>552</ele>
        <time>2019-03-23T15:58:51Z</time>
      </trkpt>
      <trkpt lat="44.31158" lon="5.82572">
        <ele>552</ele>
        <time>2019-03-23T15:58:52Z</time>
      </trkpt>
      <trkpt lat="44.31163" lon="5.82575">
        <ele>552</ele>
        <time>2019-03-23T15:58:53Z</time>
      </trkpt>
      <trkpt lat="44.31168" lon="5.82577">
        <ele>552</ele>
        <time>2019-03-23T15:58:54Z</time>
      </trkpt>
      <trkpt lat="44.31173" lon="5.8258">
        <ele>552</ele>
        <time>2019-03-23T15:58:55Z</time>
      </trkpt>
      <trkpt lat="44.31178" lon="5.82584">
        <ele>552</ele>
        <time>2019-03-23T15:58:56Z</time>
      </trkpt>
      <trkpt lat="44.31183" lon="5.82586">
        <ele>552</ele>
        <time>2019-03-23T15:58:57Z</time>
      </trkpt>
      <trkpt lat="44.31188" lon="5.82589">
        <ele>552</ele>
        <time>2019-03-23T15:58:58Z</time>
      </trkpt>
      <trkpt lat="44.31193" lon="5.82592">
        <ele>552</ele>
        <time>2019-03-23T15:58:59Z</time>
      </trkpt>
      <trkpt lat="44.31198" lon="5.82594">
        <ele>552</ele>
        <time>2019-03-23T15:59:00Z</time>
      </trkpt>
      <trkpt lat="44.31203" lon="5.82597">
        <ele>552</ele>
        <time>2019-03-23T15:59:01Z</time>
      </trkpt>
      <trkpt lat="44.31208" lon="5.826">
        <ele>552</ele>
        <time>2019-03-23T15:59:02Z</time>
      </trkpt>
      <trkpt lat="44.31213" lon="5.82603">
        <ele>552</ele>
        <time>2019-03-23T15:59:03Z</time>
      </trkpt>
      <trkpt lat="44.31218" lon="5.82605">
        <ele>552</ele>
        <time>2019-03-23T15:59:04Z</time>
      </trkpt>
      <trkpt lat="44.31224" lon="5.82607">
        <ele>552</ele>
        <time>2019-03-23T15:59:05Z</time>
      </trkpt>
      <trkpt lat="44.31229" lon="5.8261">
        <ele>552</ele>
        <time>2019-03-23T15:59:06Z</time>
      </trkpt>
      <trkpt lat="44.31234" lon="5.82612">
        <ele>552</ele>
        <time>2019-03-23T15:59:07Z</time>
      </trkpt>
      <trkpt lat="44.31238" lon="5.82615">
        <ele>552</ele>
        <time>2019-03-23T15:59:08Z</time>
      </trkpt>
      <trkpt lat="44.31243" lon="5.82617">
        <ele>552</ele>
        <time>2019-03-23T15:59:09Z</time>
      </trkpt>
      <trkpt lat="44.31248" lon="5.8262">
        <ele>552</ele>
        <time>2019-03-23T15:59:10Z</time>
      </trkpt>
      <trkpt lat="44.31252" lon="5.82622">
        <ele>552</ele>
        <time>2019-03-23T15:59:11Z</time>
      </trkpt>
      <trkpt lat="44.31257" lon="5.82625">
        <ele>552</ele>
        <time>2019-03-23T15:59:12Z</time>
      </trkpt>
      <trkpt lat="44.31262" lon="5.82627">
        <ele>552</ele>
        <time>2019-03-23T15:59:13Z</time>
      </trkpt>
      <trkpt lat="44.31266" lon="5.82629">
        <ele>553</ele>
        <time>2019-03-23T15:59:14Z</time>
      </trkpt>
      <trkpt lat="44.31271" lon="5.82631">
        <ele>554</ele>
        <time>2019-03-23T15:59:15Z</time>
      </trkpt>
      <trkpt lat="44.31275" lon="5.82633">
        <ele>554</ele>
        <time>2019-03-23T15:59:16Z</time>
      </trkpt>
      <trkpt lat="44.31279" lon="5.82636">
        <ele>555</ele>
        <time>2019-03-23T15:59:17Z</time>
      </trkpt>
      <trkpt lat="44.31284" lon="5.82638">
        <ele>556</ele>
        <time>2019-03-23T15:59:18Z</time>
      </trkpt>
      <trkpt lat="44.31287" lon="5.82641">
        <ele>556</ele>
        <time>2019-03-23T15:59:19Z</time>
      </trkpt>
      <trkpt lat="44.31291" lon="5.82643">
        <ele>556</ele>
        <time>2019-03-23T15:59:20Z</time>
      </trkpt>
      <trkpt lat="44.31295" lon="5.82646">
        <ele>556</ele>
        <time>2019-03-23T15:59:21Z</time>
      </trkpt>
      <trkpt lat="44.31298" lon="5.82649">
        <ele>557</ele>
        <time>2019-03-23T15:59:22Z</time>
      </trkpt>
      <trkpt lat="44.31301" lon="5.82651">
        <ele>557</ele>
        <time>2019-03-23T15:59:23Z</time>
      </trkpt>
      <trkpt lat="44.31305" lon="5.82653">
        <ele>557</ele>
        <time>2019-03-23T15:59:24Z</time>
      </trkpt>
      <trkpt lat="44.31308" lon="5.82655">
        <ele>557</ele>
        <time>2019-03-23T15:59:25Z</time>
      </trkpt>
      <trkpt lat="44.31311" lon="5.82658">
        <ele>557</ele>
        <time>2019-03-23T15:59:26Z</time>
      </trkpt>
      <trkpt lat="44.31314" lon="5.8266">
        <ele>557</ele>
        <time>2019-03-23T15:59:27Z</time>
      </trkpt>
      <trkpt lat="44.31316" lon="5.82662">
        <ele>557</ele>
        <time>2019-03-23T15:59:28Z</time>
      </trkpt>
      <trkpt lat="44.31319" lon="5.82664">
        <ele>557</ele>
        <time>2019-03-23T15:59:29Z</time>
      </trkpt>
      <trkpt lat="44.31322" lon="5.82665">
        <ele>557</ele>
        <time>2019-03-23T15:59:30Z</time>
      </trkpt>
      <trkpt lat="44.31324" lon="5.82667">
        <ele>557</ele>
        <time>2019-03-23T15:59:31Z</time>
      </trkpt>
      <trkpt lat="44.31327" lon="5.82668">
        <ele>557</ele>
        <time>2019-03-23T15:59:32Z</time>
      </trkpt>
      <trkpt lat="44.31329" lon="5.82669">
        <ele>557</ele>
        <time>2019-03-23T15:59:33Z</time>
      </trkpt>
      <trkpt lat="44.31331" lon="5.82671">
        <ele>557</ele>
        <time>2019-03-23T15:59:34Z</time>
      </trkpt>
      <trkpt lat="44.31333" lon="5.82672">
        <ele>557</ele>
        <time>2019-03-23T15:59:35Z</time>
      </trkpt>
      <trkpt lat="44.31336" lon="5.82674">
        <ele>557</ele>
        <time>2019-03-23T15:59:36Z</time>
      </trkpt>
      <trkpt lat="44.31339" lon="5.82675">
        <ele>557</ele>
        <time>2019-03-23T15:59:37Z</time>
      </trkpt>
      <trkpt lat="44.31342" lon="5.82677">
        <ele>557</ele>
        <time>2019-03-23T15:59:38Z</time>
      </trkpt>
      <trkpt lat="44.31344" lon="5.82678">
        <ele>558</ele>
        <time>2019-03-23T15:59:39Z</time>
      </trkpt>
      <trkpt lat="44.31347" lon="5.8268">
        <ele>558</ele>
        <time>2019-03-23T15:59:40Z</time>
      </trkpt>
      <trkpt lat="44.3135" lon="5.82682">
        <ele>558</ele>
        <time>2019-03-23T15:59:41Z</time>
      </trkpt>
      <trkpt lat="44.31353" lon="5.82685">
        <ele>559</ele>
        <time>2019-03-23T15:59:42Z</time>
      </trkpt>
      <trkpt lat="44.31355" lon="5.82689">
        <ele>559</ele>
        <time>2019-03-23T15:59:43Z</time>
      </trkpt>
      <trkpt lat="44.31357" lon="5.82693">
        <ele>559</ele>
        <time>2019-03-23T15:59:44Z</time>
      </trkpt>
      <trkpt lat="44.31359" lon="5.82697">
        <ele>559</ele>
        <time>2019-03-23T15:59:45Z</time>
      </trkpt>
      <trkpt lat="44.31362" lon="5.82701">
        <ele>559</ele>
        <time>2019-03-23T15:59:46Z</time>
      </trkpt>
      <trkpt lat="44.31365" lon="5.82705">
        <ele>559</ele>
        <time>2019-03-23T15:59:47Z</time>
      </trkpt>
      <trkpt lat="44.31368" lon="5.82709">
        <ele>559</ele>
        <time>2019-03-23T15:59:48Z</time>
      </trkpt>
      <trkpt lat="44.3137" lon="5.82714">
        <ele>559</ele>
        <time>2019-03-23T15:59:49Z</time>
      </trkpt>
      <trkpt lat="44.31373" lon="5.8272">
        <ele>559</ele>
        <time>2019-03-23T15:59:50Z</time>
      </trkpt>
      <trkpt lat="44.31374" lon="5.82726">
        <ele>559</ele>
        <time>2019-03-23T15:59:51Z</time>
      </trkpt>
      <trkpt lat="44.31374" lon="5.82732">
        <ele>559</ele>
        <time>2019-03-23T15:59:52Z</time>
      </trkpt>
      <trkpt lat="44.31374" lon="5.82739">
        <ele>559</ele>
        <time>2019-03-23T15:59:53Z</time>
      </trkpt>
      <trkpt lat="44.31374" lon="5.82745">
        <ele>559</ele>
        <time>2019-03-23T15:59:54Z</time>
      </trkpt>
      <trkpt lat="44.31374" lon="5.82752">
        <ele>559</ele>
        <time>2019-03-23T15:59:55Z</time>
      </trkpt>
      <trkpt lat="44.31375" lon="5.82758">
        <ele>559</ele>
        <time>2019-03-23T15:59:56Z</time>
      </trkpt>
      <trkpt lat="44.31375" lon="5.82765">
        <ele>559</ele>
        <time>2019-03-23T15:59:57Z</time>
      </trkpt>
      <trkpt lat="44.31376" lon="5.82771">
        <ele>559</ele>
        <time>2019-03-23T15:59:58Z</time>
      </trkpt>
      <trkpt lat="44.31376" lon="5.82778">
        <ele>559</ele>
        <time>2019-03-23T15:59:59Z</time>
      </trkpt>
      <trkpt lat="44.31375" lon="5.82785">
        <ele>560</ele>
        <time>2019-03-23T16:00:00Z</time>
      </trkpt>
      <trkpt lat="44.31375" lon="5.82792">
        <ele>560</ele>
        <time>2019-03-23T16:00:01Z</time>
      </trkpt>
      <trkpt lat="44.31375" lon="5.82798">
        <ele>560</ele>
        <time>2019-03-23T16:00:02Z</time>
      </trkpt>
      <trkpt lat="44.31374" lon="5.82805">
        <ele>560</ele>
        <time>2019-03-23T16:00:03Z</time>
      </trkpt>
      <trkpt lat="44.31374" lon="5.82811">
        <ele>560</ele>
        <time>2019-03-23T16:00:04Z</time>
      </trkpt>
      <trkpt lat="44.31373" lon="5.82818">
        <ele>560</ele>
        <time>2019-03-23T16:00:05Z</time>
      </trkpt>
      <trkpt lat="44.31372" lon="5.82824">
        <ele>560</ele>
        <time>2019-03-23T16:00:06Z</time>
      </trkpt>
      <trkpt lat="44.31372" lon="5.8283">
        <ele>560</ele>
        <time>2019-03-23T16:00:07Z</time>
      </trkpt>
      <trkpt lat="44.31371" lon="5.82837">
        <ele>560</ele>
        <time>2019-03-23T16:00:08Z</time>
      </trkpt>
      <trkpt lat="44.31372" lon="5.82843">
        <ele>560</ele>
        <time>2019-03-23T16:00:09Z</time>
      </trkpt>
      <trkpt lat="44.31372" lon="5.8285">
        <ele>560</ele>
        <time>2019-03-23T16:00:10Z</time>
      </trkpt>
      <trkpt lat="44.31371" lon="5.82856">
        <ele>560</ele>
        <time>2019-03-23T16:00:11Z</time>
      </trkpt>
      <trkpt lat="44.31371" lon="5.82863">
        <ele>560</ele>
        <time>2019-03-23T16:00:12Z</time>
      </trkpt>
      <trkpt lat="44.3137" lon="5.82869">
        <ele>560</ele>
        <time>2019-03-23T16:00:13Z</time>
      </trkpt>
      <trkpt lat="44.3137" lon="5.82876">
        <ele>560</ele>
        <time>2019-03-23T16:00:14Z</time>
      </trkpt>
      <trkpt lat="44.31369" lon="5.82883">
        <ele>560</ele>
        <time>2019-03-23T16:00:15Z</time>
      </trkpt>
      <trkpt lat="44.31369" lon="5.8289">
        <ele>561</ele>
        <time>2019-03-23T16:00:16Z</time>
      </trkpt>
      <trkpt lat="44.31369" lon="5.82897">
        <ele>561</ele>
        <time>2019-03-23T16:00:17Z</time>
      </trkpt>
      <trkpt lat="44.31369" lon="5.82903">
        <ele>562</ele>
        <time>2019-03-23T16:00:18Z</time>
      </trkpt>
      <trkpt lat="44.31369" lon="5.8291">
        <ele>562</ele>
        <time>2019-03-23T16:00:19Z</time>
      </trkpt>
      <trkpt lat="44.31367" lon="5.82916">
        <ele>563</ele>
        <time>2019-03-23T16:00:20Z</time>
      </trkpt>
      <trkpt lat="44.31366" lon="5.82923">
        <ele>563</ele>
        <time>2019-03-23T16:00:21Z</time>
      </trkpt>
      <trkpt lat="44.31365" lon="5.82929">
        <ele>563</ele>
        <time>2019-03-23T16:00:22Z</time>
      </trkpt>
      <trkpt lat="44.31364" lon="5.82935">
        <ele>563</ele>
        <time>2019-03-23T16:00:23Z</time>
      </trkpt>
      <trkpt lat="44.31363" lon="5.82942">
        <ele>563</ele>
        <time>2019-03-23T16:00:24Z</time>
      </trkpt>
      <trkpt lat="44.31362" lon="5.82948">
        <ele>563</ele>
        <time>2019-03-23T16:00:25Z</time>
      </trkpt>
      <trkpt lat="44.31361" lon="5.82954">
        <ele>563</ele>
        <time>2019-03-23T16:00:26Z</time>
      </trkpt>
      <trkpt lat="44.3136" lon="5.8296">
        <ele>563</ele>
        <time>2019-03-23T16:00:27Z</time>
      </trkpt>
      <trkpt lat="44.31359" lon="5.82966">
        <ele>563</ele>
        <time>2019-03-23T16:00:28Z</time>
      </trkpt>
      <trkpt lat="44.31359" lon="5.82972">
        <ele>563</ele>
        <time>2019-03-23T16:00:29Z</time>
      </trkpt>
      <trkpt lat="44.31358" lon="5.82978">
        <ele>563</ele>
        <time>2019-03-23T16:00:30Z</time>
      </trkpt>
      <trkpt lat="44.31357" lon="5.82984">
        <ele>563</ele>
        <time>2019-03-23T16:00:31Z</time>
      </trkpt>
      <trkpt lat="44.31356" lon="5.8299">
        <ele>563</ele>
        <time>2019-03-23T16:00:32Z</time>
      </trkpt>
      <trkpt lat="44.31356" lon="5.82996">
        <ele>563</ele>
        <time>2019-03-23T16:00:33Z</time>
      </trkpt>
      <trkpt lat="44.31355" lon="5.83002">
        <ele>563</ele>
        <time>2019-03-23T16:00:34Z</time>
      </trkpt>
      <trkpt lat="44.31354" lon="5.83008">
        <ele>563</ele>
        <time>2019-03-23T16:00:35Z</time>
      </trkpt>
      <trkpt lat="44.31353" lon="5.83013">
        <ele>563</ele>
        <time>2019-03-23T16:00:36Z</time>
      </trkpt>
      <trkpt lat="44.31351" lon="5.83019">
        <ele>563</ele>
        <time>2019-03-23T16:00:37Z</time>
      </trkpt>
      <trkpt lat="44.31351" lon="5.83025">
        <ele>563</ele>
        <time>2019-03-23T16:00:38Z</time>
      </trkpt>
      <trkpt lat="44.3135" lon="5.83031">
        <ele>563</ele>
        <time>2019-03-23T16:00:39Z</time>
      </trkpt>
      <trkpt lat="44.31349" lon="5.83037">
        <ele>563</ele>
        <time>2019-03-23T16:00:40Z</time>
      </trkpt>
      <trkpt lat="44.31348" lon="5.83043">
        <ele>563</ele>
        <time>2019-03-23T16:00:41Z</time>
      </trkpt>
      <trkpt lat="44.31347" lon="5.83049">
        <ele>563</ele>
        <time>2019-03-23T16:00:42Z</time>
      </trkpt>
      <trkpt lat="44.31346" lon="5.83056">
        <ele>563</ele>
        <time>2019-03-23T16:00:43Z</time>
      </trkpt>
      <trkpt lat="44.31345" lon="5.83062">
        <ele>563</ele>
        <time>2019-03-23T16:00:44Z</time>
      </trkpt>
      <trkpt lat="44.31345" lon="5.83069">
        <ele>563</ele>
        <time>2019-03-23T16:00:45Z</time>
      </trkpt>
      <trkpt lat="44.31344" lon="5.83075">
        <ele>563</ele>
        <time>2019-03-23T16:00:46Z</time>
      </trkpt>
      <trkpt lat="44.31344" lon="5.8308">
        <ele>563</ele>
        <time>2019-03-23T16:00:47Z</time>
      </trkpt>
      <trkpt lat="44.31343" lon="5.83085">
        <ele>563</ele>
        <time>2019-03-23T16:00:48Z</time>
      </trkpt>
      <trkpt lat="44.31343" lon="5.83091">
        <ele>563</ele>
        <time>2019-03-23T16:00:49Z</time>
      </trkpt>
      <trkpt lat="44.31344" lon="5.83096">
        <ele>563</ele>
        <time>2019-03-23T16:00:50Z</time>
      </trkpt>
      <trkpt lat="44.31345" lon="5.83101">
        <ele>563</ele>
        <time>2019-03-23T16:00:51Z</time>
      </trkpt>
      <trkpt lat="44.31348" lon="5.83104">
        <ele>563</ele>
        <time>2019-03-23T16:00:52Z</time>
      </trkpt>
      <trkpt lat="44.31351" lon="5.83105">
        <ele>563</ele>
        <time>2019-03-23T16:00:53Z</time>
      </trkpt>
      <trkpt lat="44.31354" lon="5.83104">
        <ele>563</ele>
        <time>2019-03-23T16:00:54Z</time>
      </trkpt>
      <trkpt lat="44.31357" lon="5.83101">
        <ele>563</ele>
        <time>2019-03-23T16:00:55Z</time>
      </trkpt>
      <trkpt lat="44.31359" lon="5.83097">
        <ele>563</ele>
        <time>2019-03-23T16:00:56Z</time>
      </trkpt>
      <trkpt lat="44.31361" lon="5.83093">
        <ele>563</ele>
        <time>2019-03-23T16:00:57Z</time>
      </trkpt>
      <trkpt lat="44.31363" lon="5.83088">
        <ele>563</ele>
        <time>2019-03-23T16:00:58Z</time>
      </trkpt>
      <trkpt lat="44.31364" lon="5.83083">
        <ele>563</ele>
        <time>2019-03-23T16:00:59Z</time>
      </trkpt>
      <trkpt lat="44.31366" lon="5.83078">
        <ele>563</ele>
        <time>2019-03-23T16:01:00Z</time>
      </trkpt>
      <trkpt lat="44.31368" lon="5.83074">
        <ele>563</ele>
        <time>2019-03-23T16:01:01Z</time>
      </trkpt>
      <trkpt lat="44.3137" lon="5.83069">
        <ele>563</ele>
        <time>2019-03-23T16:01:02Z</time>
      </trkpt>
      <trkpt lat="44.31372" lon="5.83064">
        <ele>563</ele>
        <time>2019-03-23T16:01:03Z</time>
      </trkpt>
      <trkpt lat="44.31374" lon="5.8306">
        <ele>563</ele>
        <time>2019-03-23T16:01:04Z</time>
      </trkpt>
      <trkpt lat="44.31377" lon="5.83055">
        <ele>563</ele>
        <time>2019-03-23T16:01:05Z</time>
      </trkpt>
      <trkpt lat="44.31379" lon="5.8305">
        <ele>563</ele>
        <time>2019-03-23T16:01:06Z</time>
      </trkpt>
      <trkpt lat="44.31382" lon="5.83046">
        <ele>563</ele>
        <time>2019-03-23T16:01:07Z</time>
      </trkpt>
      <trkpt lat="44.31385" lon="5.83041">
        <ele>563</ele>
        <time>2019-03-23T16:01:08Z</time>
      </trkpt>
      <trkpt lat="44.31388" lon="5.83035">
        <ele>563</ele>
        <time>2019-03-23T16:01:09Z</time>
      </trkpt>
      <trkpt lat="44.31392" lon="5.83029">
        <ele>563</ele>
        <time>2019-03-23T16:01:10Z</time>
      </trkpt>
      <trkpt lat="44.31395" lon="5.83024">
        <ele>563</ele>
        <time>2019-03-23T16:01:11Z</time>
      </trkpt>
      <trkpt lat="44.31398" lon="5.83018">
        <ele>563</ele>
        <time>2019-03-23T16:01:12Z</time>
      </trkpt>
      <trkpt lat="44.31402" lon="5.83012">
        <ele>563</ele>
        <time>2019-03-23T16:01:13Z</time>
      </trkpt>
      <trkpt lat="44.31406" lon="5.83007">
        <ele>563</ele>
        <time>2019-03-23T16:01:14Z</time>
      </trkpt>
      <trkpt lat="44.31409" lon="5.83001">
        <ele>563</ele>
        <time>2019-03-23T16:01:15Z</time>
      </trkpt>
      <trkpt lat="44.31413" lon="5.82996">
        <ele>563</ele>
        <time>2019-03-23T16:01:16Z</time>
      </trkpt>
      <trkpt lat="44.31417" lon="5.8299">
        <ele>563</ele>
        <time>2019-03-23T16:01:17Z</time>
      </trkpt>
      <trkpt lat="44.3142" lon="5.82985">
        <ele>563</ele>
        <time>2019-03-23T16:01:18Z</time>
      </trkpt>
      <trkpt lat="44.31424" lon="5.8298">
        <ele>563</ele>
        <time>2019-03-23T16:01:19Z</time>
      </trkpt>
      <trkpt lat="44.31427" lon="5.82975">
        <ele>563</ele>
        <time>2019-03-23T16:01:20Z</time>
      </trkpt>
      <trkpt lat="44.31431" lon="5.8297">
        <ele>563</ele>
        <time>2019-03-23T16:01:21Z</time>
      </trkpt>
      <trkpt lat="44.31434" lon="5.82964">
        <ele>563</ele>
        <time>2019-03-23T16:01:22Z</time>
      </trkpt>
      <trkpt lat="44.31438" lon="5.82959">
        <ele>563</ele>
        <time>2019-03-23T16:01:23Z</time>
      </trkpt>
      <trkpt lat="44.31441" lon="5.82954">
        <ele>563</ele>
        <time>2019-03-23T16:01:24Z</time>
      </trkpt>
      <trkpt lat="44.31444" lon="5.8295">
        <ele>563</ele>
        <time>2019-03-23T16:01:25Z</time>
      </trkpt>
      <trkpt lat="44.31448" lon="5.82945">
        <ele>563</ele>
        <time>2019-03-23T16:01:26Z</time>
      </trkpt>
      <trkpt lat="44.31451" lon="5.8294">
        <ele>563</ele>
        <time>2019-03-23T16:01:27Z</time>
      </trkpt>
      <trkpt lat="44.31455" lon="5.82936">
        <ele>563</ele>
        <time>2019-03-23T16:01:28Z</time>
      </trkpt>
      <trkpt lat="44.31458" lon="5.82931">
        <ele>563</ele>
        <time>2019-03-23T16:01:29Z</time>
      </trkpt>
      <trkpt lat="44.31462" lon="5.82926">
        <ele>563</ele>
        <time>2019-03-23T16:01:30Z</time>
      </trkpt>
      <trkpt lat="44.31465" lon="5.82921">
        <ele>563</ele>
        <time>2019-03-23T16:01:31Z</time>
      </trkpt>
      <trkpt lat="44.31468" lon="5.82916">
        <ele>563</ele>
        <time>2019-03-23T16:01:32Z</time>
      </trkpt>
      <trkpt lat="44.31471" lon="5.82911">
        <ele>563</ele>
        <time>2019-03-23T16:01:33Z</time>
      </trkpt>
      <trkpt lat="44.31475" lon="5.82906">
        <ele>563</ele>
        <time>2019-03-23T16:01:34Z</time>
      </trkpt>
      <trkpt lat="44.31478" lon="5.82901">
        <ele>563</ele>
        <time>2019-03-23T16:01:35Z</time>
      </trkpt>
      <trkpt lat="44.31481" lon="5.82896">
        <ele>564</ele>
        <time>2019-03-23T16:01:36Z</time>
      </trkpt>
      <trkpt lat="44.31484" lon="5.82891">
        <ele>564</ele>
        <time>2019-03-23T16:01:37Z</time>
      </trkpt>
      <trkpt lat="44.31487" lon="5.82886">
        <ele>564</ele>
        <time>2019-03-23T16:01:38Z</time>
      </trkpt>
      <trkpt lat="44.3149" lon="5.8288">
        <ele>564</ele>
        <time>2019-03-23T16:01:39Z</time>
      </trkpt>
      <trkpt lat="44.31493" lon="5.82875">
        <ele>564</ele>
        <time>2019-03-23T16:01:40Z</time>
      </trkpt>
      <trkpt lat="44.31496" lon="5.82871">
        <ele>564</ele>
        <time>2019-03-23T16:01:41Z</time>
      </trkpt>
      <trkpt lat="44.315" lon="5.82867">
        <ele>564</ele>
        <time>2019-03-23T16:01:42Z</time>
      </trkpt>
      <trkpt lat="44.31505" lon="5.82866">
        <ele>564</ele>
        <time>2019-03-23T16:01:43Z</time>
      </trkpt>
      <trkpt lat="44.31509" lon="5.82867">
        <ele>564</ele>
        <time>2019-03-23T16:01:44Z</time>
      </trkpt>
      <trkpt lat="44.31513" lon="5.8287">
        <ele>564</ele>
        <time>2019-03-23T16:01:45Z</time>
      </trkpt>
      <trkpt lat="44.31516" lon="5.82874">
        <ele>564</ele>
        <time>2019-03-23T16:01:46Z</time>
      </trkpt>
      <trkpt lat="44.31519" lon="5.82878">
        <ele>564</ele>
        <time>2019-03-23T16:01:47Z</time>
      </trkpt>
      <trkpt lat="44.31522" lon="5.82882">
        <ele>564</ele>
        <time>2019-03-23T16:01:48Z</time>
      </trkpt>
      <trkpt lat="44.31525" lon="5.82885">
        <ele>564</ele>
        <time>2019-03-23T16:01:49Z</time>
      </trkpt>
      <trkpt lat="44.31528" lon="5.82889">
        <ele>564</ele>
        <time>2019-03-23T16:01:50Z</time>
      </trkpt>
      <trkpt lat="44.31531" lon="5.82892">
        <ele>564</ele>
        <time>2019-03-23T16:01:51Z</time>
      </trkpt>
      <trkpt lat="44.31534" lon="5.82895">
        <ele>564</ele>
        <time>2019-03-23T16:01:52Z</time>
      </trkpt>
      <trkpt lat="44.31537" lon="5.82899">
        <ele>564</ele>
        <time>2019-03-23T16:01:53Z</time>
      </trkpt>
      <trkpt lat="44.3154" lon="5.82901">
        <ele>564</ele>
        <time>2019-03-23T16:01:54Z</time>
      </trkpt>
      <trkpt lat="44.31543" lon="5.82904">
        <ele>564</ele>
        <time>2019-03-23T16:01:55Z</time>
      </trkpt>
      <trkpt lat="44.31546" lon="5.82907">
        <ele>564</ele>
        <time>2019-03-23T16:01:56Z</time>
      </trkpt>
      <trkpt lat="44.31548" lon="5.8291">
        <ele>564</ele>
        <time>2019-03-23T16:01:57Z</time>
      </trkpt>
      <trkpt lat="44.31551" lon="5.82912">
        <ele>564</ele>
        <time>2019-03-23T16:01:58Z</time>
      </trkpt>
      <trkpt lat="44.31553" lon="5.82915">
        <ele>564</ele>
        <time>2019-03-23T16:01:59Z</time>
      </trkpt>
      <trkpt lat="44.31556" lon="5.82917">
        <ele>564</ele>
        <time>2019-03-23T16:02:00Z</time>
      </trkpt>
      <trkpt lat="44.31558" lon="5.8292">
        <ele>564</ele>
        <time>2019-03-23T16:02:01Z</time>
      </trkpt>
      <trkpt lat="44.31561" lon="5.82922">
        <ele>564</ele>
        <time>2019-03-23T16:02:02Z</time>
      </trkpt>
      <trkpt lat="44.31564" lon="5.82924">
        <ele>564</ele>
        <time>2019-03-23T16:02:03Z</time>
      </trkpt>
      <trkpt lat="44.31567" lon="5.82926">
        <ele>564</ele>
        <time>2019-03-23T16:02:04Z</time>
      </trkpt>
      <trkpt lat="44.31571" lon="5.82929">
        <ele>564</ele>
        <time>2019-03-23T16:02:05Z</time>
      </trkpt>
      <trkpt lat="44.31574" lon="5.82931">
        <ele>564</ele>
        <time>2019-03-23T16:02:06Z</time>
      </trkpt>
      <trkpt lat="44.31578" lon="5.82933">
        <ele>564</ele>
        <time>2019-03-23T16:02:07Z</time>
      </trkpt>
      <trkpt lat="44.31582" lon="5.82935">
        <ele>564</ele>
        <time>2019-03-23T16:02:08Z</time>
      </trkpt>
      <trkpt lat="44.31585" lon="5.82937">
        <ele>564</ele>
        <time>2019-03-23T16:02:09Z</time>
      </trkpt>
      <trkpt lat="44.31588" lon="5.82939">
        <ele>564</ele>
        <time>2019-03-23T16:02:10Z</time>
      </trkpt>
      <trkpt lat="44.31591" lon="5.82942">
        <ele>564</ele>
        <time>2019-03-23T16:02:11Z</time>
      </trkpt>
      <trkpt lat="44.31593" lon="5.82944">
        <ele>564</ele>
        <time>2019-03-23T16:02:12Z</time>
      </trkpt>
      <trkpt lat="44.31596" lon="5.82947">
        <ele>564</ele>
        <time>2019-03-23T16:02:13Z</time>
      </trkpt>
      <trkpt lat="44.31598" lon="5.8295">
        <ele>564</ele>
        <time>2019-03-23T16:02:14Z</time>
      </trkpt>
      <trkpt lat="44.31599" lon="5.82953">
        <ele>564</ele>
        <time>2019-03-23T16:02:15Z</time>
      </trkpt>
      <trkpt lat="44.316" lon="5.82956">
        <ele>564</ele>
        <time>2019-03-23T16:02:16Z</time>
      </trkpt>
      <trkpt lat="44.31601" lon="5.82959">
        <ele>564</ele>
        <time>2019-03-23T16:02:17Z</time>
      </trkpt>
      <trkpt lat="44.31602" lon="5.82961">
        <ele>564</ele>
        <time>2019-03-23T16:02:18Z</time>
      </trkpt>
      <trkpt lat="44.31604" lon="5.82961">
        <ele>564</ele>
        <time>2019-03-23T16:02:20Z</time>
      </trkpt>
      <trkpt lat="44.31606" lon="5.82961">
        <ele>564</ele>
        <time>2019-03-23T16:02:22Z</time>
      </trkpt>
      <trkpt lat="44.31608" lon="5.8296">
        <ele>564</ele>
        <time>2019-03-23T16:02:25Z</time>
      </trkpt>
      <trkpt lat="44.31608" lon="5.82959">
        <ele>564</ele>
        <time>2019-03-23T16:02:26Z</time>
      </trkpt>
      <trkpt lat="44.31608" lon="5.8296">
        <ele>564</ele>
        <time>2019-03-23T16:02:36Z</time>
      </trkpt>
      <trkpt lat="44.31609" lon="5.82961">
        <ele>564</ele>
        <time>2019-03-23T16:02:40Z</time>
      </trkpt>
      <trkpt lat="44.3161" lon="5.82963">
        <ele>564</ele>
        <time>2019-03-23T16:02:42Z</time>
      </trkpt>
      <trkpt lat="44.31609" lon="5.82962">
        <ele>564</ele>
        <time>2019-03-23T16:02:44Z</time>
      </trkpt>
      <trkpt lat="44.3161" lon="5.82963">
        <ele>564</ele>
        <time>2019-03-23T16:02:47Z</time>
      </trkpt>
      <trkpt lat="44.31611" lon="5.82963">
        <ele>565</ele>
        <time>2019-03-23T16:02:48Z</time>
      </trkpt>
      <trkpt lat="44.31611" lon="5.82961">
        <ele>567</ele>
        <time>2019-03-23T16:02:53Z</time>
      </trkpt>
      <trkpt lat="44.31612" lon="5.8296">
        <ele>567</ele>
        <time>2019-03-23T16:02:57Z</time>
      </trkpt>
      <trkpt lat="44.31611" lon="5.82958">
        <ele>567</ele>
        <time>2019-03-23T16:03:01Z</time>
      </trkpt>
      <trkpt lat="44.31611" lon="5.82959">
        <ele>568</ele>
        <time>2019-03-23T16:03:04Z</time>
      </trkpt>
    </trkseg>
  </trk>
</gpx>